﻿<?xml version="1.0" encoding="UTF-8"?>
<gpx version="v1.1.5" creator="iTravel Tech Inc. - http://www.itravel-tech.com" xmlns:xsi="http://www.w3.org/2001/XMLSchema-instance" xmlns="http://www.topografix.com/GPX/1/1" xsi:schemaLocation="http://www.topografix.com/GPX/1/1 http://www.topografix.com/GPX/1/1/gpx.xsd http://www.topografix.com/GPX/gpx_overlay/0/3 http://www.topografix.com/GPX/gpx_overlay/0/3/gpx_overlay.xsd http://www.topografix.com/GPX/gpx_modified/0/1 http://www.topografix.com/GPX/gpx_modified/0/1/gpx_modified.xsd">
<trk>
<name>Holux2012/05/01_12:09</name>
<trkseg>
<trkpt lat="43.158604" lon="19.301077">
<ele>113.524475</ele>
<time>2012-05-01T09:09:07Z</time>
<desc>lat.=43.158604, lon.=19.301077, Alt.=113.524475m. Speed=3.636000m/h.</desc>
<speed>1.010000</speed>
</trkpt>
<trkpt lat="43.158630" lon="19.301088">
<ele>113.590881</ele>
<time>2012-05-01T09:09:12Z</time>
<desc>lat.=43.158630, lon.=19.301088, Alt.=113.590881m. Speed=4.932000m/h.</desc>
<speed>1.370000</speed>
</trkpt>
<trkpt lat="43.158665" lon="19.301252">
<ele>113.727600</ele>
<time>2012-05-01T09:09:17Z</time>
<desc>lat.=43.158665, lon.=19.301252, Alt.=113.727600m. Speed=7.236000m/h.</desc>
<speed>2.010000</speed>
</trkpt>
<trkpt lat="43.158966" lon="19.293825">
<ele>847.852051</ele>
<time>2012-05-01T09:09:24Z</time>
<desc>lat.=43.158966, lon.=19.293825, Alt.=847.852051m. Speed=5.436000m/h.</desc>
<speed>1.510000</speed>
</trkpt>
<trkpt lat="43.158958" lon="19.293974">
<ele>820.242676</ele>
<time>2012-05-01T09:09:29Z</time>
<desc>lat.=43.158958, lon.=19.293974, Alt.=820.242676m. Speed=2.052000m/h.</desc>
<speed>0.570000</speed>
</trkpt>
<trkpt lat="43.158966" lon="19.294035">
<ele>825.961426</ele>
<time>2012-05-01T09:09:34Z</time>
<desc>lat.=43.158966, lon.=19.294035, Alt.=825.961426m. Speed=0.792000m/h.</desc>
<speed>0.220000</speed>
</trkpt>
<trkpt lat="43.158890" lon="19.293991">
<ele>830.164551</ele>
<time>2012-05-01T09:09:39Z</time>
<desc>lat.=43.158890, lon.=19.293991, Alt.=830.164551m. Speed=12.600000m/h.</desc>
<speed>3.500000</speed>
</trkpt>
<trkpt lat="43.158669" lon="19.293930">
<ele>829.070801</ele>
<time>2012-05-01T09:09:44Z</time>
<desc>lat.=43.158669, lon.=19.293930, Alt.=829.070801m. Speed=22.139999m/h.</desc>
<speed>6.150000</speed>
</trkpt>
<trkpt lat="43.158409" lon="19.294033">
<ele>828.336426</ele>
<time>2012-05-01T09:09:49Z</time>
<desc>lat.=43.158409, lon.=19.294033, Alt.=828.336426m. Speed=21.024000m/h.</desc>
<speed>5.840000</speed>
</trkpt>
<trkpt lat="43.158127" lon="19.294188">
<ele>830.336426</ele>
<time>2012-05-01T09:09:54Z</time>
<desc>lat.=43.158127, lon.=19.294188, Alt.=830.336426m. Speed=23.868000m/h.</desc>
<speed>6.630000</speed>
</trkpt>
<trkpt lat="43.157894" lon="19.294466">
<ele>830.227051</ele>
<time>2012-05-01T09:09:59Z</time>
<desc>lat.=43.157894, lon.=19.294466, Alt.=830.227051m. Speed=23.544001m/h.</desc>
<speed>6.540000</speed>
</trkpt>
<trkpt lat="43.157730" lon="19.294771">
<ele>828.461426</ele>
<time>2012-05-01T09:10:04Z</time>
<desc>lat.=43.157730, lon.=19.294771, Alt.=828.461426m. Speed=21.996000m/h.</desc>
<speed>6.110000</speed>
</trkpt>
<trkpt lat="43.157627" lon="19.295126">
<ele>826.758301</ele>
<time>2012-05-01T09:10:09Z</time>
<desc>lat.=43.157627, lon.=19.295126, Alt.=826.758301m. Speed=23.940001m/h.</desc>
<speed>6.650000</speed>
</trkpt>
<trkpt lat="43.157520" lon="19.295528">
<ele>824.523926</ele>
<time>2012-05-01T09:10:14Z</time>
<desc>lat.=43.157520, lon.=19.295528, Alt.=824.523926m. Speed=27.000000m/h.</desc>
<speed>7.500000</speed>
</trkpt>
<trkpt lat="43.157337" lon="19.295940">
<ele>823.539551</ele>
<time>2012-05-01T09:10:19Z</time>
<desc>lat.=43.157337, lon.=19.295940, Alt.=823.539551m. Speed=29.952000m/h.</desc>
<speed>8.320000</speed>
</trkpt>
<trkpt lat="43.157021" lon="19.296276">
<ele>821.086426</ele>
<time>2012-05-01T09:10:24Z</time>
<desc>lat.=43.157021, lon.=19.296276, Alt.=821.086426m. Speed=33.551998m/h.</desc>
<speed>9.319999</speed>
</trkpt>
<trkpt lat="43.156593" lon="19.296412">
<ele>817.164551</ele>
<time>2012-05-01T09:10:29Z</time>
<desc>lat.=43.156593, lon.=19.296412, Alt.=817.164551m. Speed=32.327999m/h.</desc>
<speed>8.980000</speed>
</trkpt>
<trkpt lat="43.156200" lon="19.296425">
<ele>813.992676</ele>
<time>2012-05-01T09:10:34Z</time>
<desc>lat.=43.156200, lon.=19.296425, Alt.=813.992676m. Speed=32.004002m/h.</desc>
<speed>8.890000</speed>
</trkpt>
<trkpt lat="43.155781" lon="19.296343">
<ele>810.664551</ele>
<time>2012-05-01T09:10:39Z</time>
<desc>lat.=43.155781, lon.=19.296343, Alt.=810.664551m. Speed=34.883999m/h.</desc>
<speed>9.690000</speed>
</trkpt>
<trkpt lat="43.155331" lon="19.296154">
<ele>806.930176</ele>
<time>2012-05-01T09:10:44Z</time>
<desc>lat.=43.155331, lon.=19.296154, Alt.=806.930176m. Speed=39.743999m/h.</desc>
<speed>11.040000</speed>
</trkpt>
<trkpt lat="43.154892" lon="19.295845">
<ele>803.055176</ele>
<time>2012-05-01T09:10:49Z</time>
<desc>lat.=43.154892, lon.=19.295845, Alt.=803.055176m. Speed=36.683998m/h.</desc>
<speed>10.189999</speed>
</trkpt>
<trkpt lat="43.154499" lon="19.295584">
<ele>799.914551</ele>
<time>2012-05-01T09:10:54Z</time>
<desc>lat.=43.154499, lon.=19.295584, Alt.=799.914551m. Speed=32.976002m/h.</desc>
<speed>9.160000</speed>
</trkpt>
<trkpt lat="43.154083" lon="19.295462">
<ele>797.164551</ele>
<time>2012-05-01T09:10:59Z</time>
<desc>lat.=43.154083, lon.=19.295462, Alt.=797.164551m. Speed=33.875999m/h.</desc>
<speed>9.410000</speed>
</trkpt>
<trkpt lat="43.153706" lon="19.295586">
<ele>794.273926</ele>
<time>2012-05-01T09:11:04Z</time>
<desc>lat.=43.153706, lon.=19.295586, Alt.=794.273926m. Speed=29.736000m/h.</desc>
<speed>8.260000</speed>
</trkpt>
<trkpt lat="43.153378" lon="19.295868">
<ele>791.492676</ele>
<time>2012-05-01T09:11:09Z</time>
<desc>lat.=43.153378, lon.=19.295868, Alt.=791.492676m. Speed=31.716000m/h.</desc>
<speed>8.810000</speed>
</trkpt>
<trkpt lat="43.153015" lon="19.296120">
<ele>787.242676</ele>
<time>2012-05-01T09:11:14Z</time>
<desc>lat.=43.153015, lon.=19.296120, Alt.=787.242676m. Speed=35.532001m/h.</desc>
<speed>9.870000</speed>
</trkpt>
<trkpt lat="43.152573" lon="19.296198">
<ele>782.930176</ele>
<time>2012-05-01T09:11:19Z</time>
<desc>lat.=43.152573, lon.=19.296198, Alt.=782.930176m. Speed=36.035999m/h.</desc>
<speed>10.010000</speed>
</trkpt>
<trkpt lat="43.152111" lon="19.296072">
<ele>780.102051</ele>
<time>2012-05-01T09:11:24Z</time>
<desc>lat.=43.152111, lon.=19.296072, Alt.=780.102051m. Speed=38.484001m/h.</desc>
<speed>10.690000</speed>
</trkpt>
<trkpt lat="43.151634" lon="19.296032">
<ele>776.008301</ele>
<time>2012-05-01T09:11:29Z</time>
<desc>lat.=43.151634, lon.=19.296032, Alt.=776.008301m. Speed=35.675999m/h.</desc>
<speed>9.910000</speed>
</trkpt>
<trkpt lat="43.151184" lon="19.295967">
<ele>772.852051</ele>
<time>2012-05-01T09:11:34Z</time>
<desc>lat.=43.151184, lon.=19.295967, Alt.=772.852051m. Speed=37.152000m/h.</desc>
<speed>10.320000</speed>
</trkpt>
<trkpt lat="43.150806" lon="19.295750">
<ele>770.117676</ele>
<time>2012-05-01T09:11:39Z</time>
<desc>lat.=43.150806, lon.=19.295750, Alt.=770.117676m. Speed=27.396000m/h.</desc>
<speed>7.610000</speed>
</trkpt>
<trkpt lat="43.150543" lon="19.295454">
<ele>770.383301</ele>
<time>2012-05-01T09:11:44Z</time>
<desc>lat.=43.150543, lon.=19.295454, Alt.=770.383301m. Speed=26.172001m/h.</desc>
<speed>7.270000</speed>
</trkpt>
<trkpt lat="43.150314" lon="19.295183">
<ele>772.820801</ele>
<time>2012-05-01T09:11:49Z</time>
<desc>lat.=43.150314, lon.=19.295183, Alt.=772.820801m. Speed=22.392000m/h.</desc>
<speed>6.220000</speed>
</trkpt>
<trkpt lat="43.150093" lon="19.294933">
<ele>772.383301</ele>
<time>2012-05-01T09:11:54Z</time>
<desc>lat.=43.150093, lon.=19.294933, Alt.=772.383301m. Speed=26.351999m/h.</desc>
<speed>7.320000</speed>
</trkpt>
<trkpt lat="43.149837" lon="19.294641">
<ele>771.680176</ele>
<time>2012-05-01T09:11:59Z</time>
<desc>lat.=43.149837, lon.=19.294641, Alt.=771.680176m. Speed=25.920000m/h.</desc>
<speed>7.200000</speed>
</trkpt>
<trkpt lat="43.149647" lon="19.294384">
<ele>772.445801</ele>
<time>2012-05-01T09:12:04Z</time>
<desc>lat.=43.149647, lon.=19.294384, Alt.=772.445801m. Speed=20.664000m/h.</desc>
<speed>5.740000</speed>
</trkpt>
<trkpt lat="43.149483" lon="19.294128">
<ele>773.695801</ele>
<time>2012-05-01T09:12:09Z</time>
<desc>lat.=43.149483, lon.=19.294128, Alt.=773.695801m. Speed=20.087999m/h.</desc>
<speed>5.580000</speed>
</trkpt>
<trkpt lat="43.149345" lon="19.293913">
<ele>775.242676</ele>
<time>2012-05-01T09:12:14Z</time>
<desc>lat.=43.149345, lon.=19.293913, Alt.=775.242676m. Speed=15.768000m/h.</desc>
<speed>4.380000</speed>
</trkpt>
<trkpt lat="43.149204" lon="19.293674">
<ele>774.930176</ele>
<time>2012-05-01T09:12:19Z</time>
<desc>lat.=43.149204, lon.=19.293674, Alt.=774.930176m. Speed=19.548000m/h.</desc>
<speed>5.430000</speed>
</trkpt>
<trkpt lat="43.149055" lon="19.293406">
<ele>774.148926</ele>
<time>2012-05-01T09:12:24Z</time>
<desc>lat.=43.149055, lon.=19.293406, Alt.=774.148926m. Speed=20.375999m/h.</desc>
<speed>5.660000</speed>
</trkpt>
<trkpt lat="43.148926" lon="19.293131">
<ele>773.695801</ele>
<time>2012-05-01T09:12:29Z</time>
<desc>lat.=43.148926, lon.=19.293131, Alt.=773.695801m. Speed=17.892000m/h.</desc>
<speed>4.970000</speed>
</trkpt>
<trkpt lat="43.148827" lon="19.292892">
<ele>773.773926</ele>
<time>2012-05-01T09:12:34Z</time>
<desc>lat.=43.148827, lon.=19.292892, Alt.=773.773926m. Speed=13.968000m/h.</desc>
<speed>3.880000</speed>
</trkpt>
<trkpt lat="43.148754" lon="19.292688">
<ele>775.086426</ele>
<time>2012-05-01T09:12:39Z</time>
<desc>lat.=43.148754, lon.=19.292688, Alt.=775.086426m. Speed=14.580000m/h.</desc>
<speed>4.050000</speed>
</trkpt>
<trkpt lat="43.148682" lon="19.292471">
<ele>777.523926</ele>
<time>2012-05-01T09:12:44Z</time>
<desc>lat.=43.148682, lon.=19.292471, Alt.=777.523926m. Speed=14.148000m/h.</desc>
<speed>3.930000</speed>
</trkpt>
<trkpt lat="43.148624" lon="19.292257">
<ele>779.445801</ele>
<time>2012-05-01T09:12:49Z</time>
<desc>lat.=43.148624, lon.=19.292257, Alt.=779.445801m. Speed=11.952000m/h.</desc>
<speed>3.320000</speed>
</trkpt>
<trkpt lat="43.148640" lon="19.292084">
<ele>782.633301</ele>
<time>2012-05-01T09:12:54Z</time>
<desc>lat.=43.148640, lon.=19.292084, Alt.=782.633301m. Speed=8.928000m/h.</desc>
<speed>2.480000</speed>
</trkpt>
<trkpt lat="43.148628" lon="19.291943">
<ele>783.727051</ele>
<time>2012-05-01T09:12:59Z</time>
<desc>lat.=43.148628, lon.=19.291943, Alt.=783.727051m. Speed=12.780000m/h.</desc>
<speed>3.550000</speed>
</trkpt>
<trkpt lat="43.148651" lon="19.291733">
<ele>785.086426</ele>
<time>2012-05-01T09:13:04Z</time>
<desc>lat.=43.148651, lon.=19.291733, Alt.=785.086426m. Speed=9.504000m/h.</desc>
<speed>2.640000</speed>
</trkpt>
<trkpt lat="43.148685" lon="19.291531">
<ele>787.102051</ele>
<time>2012-05-01T09:13:09Z</time>
<desc>lat.=43.148685, lon.=19.291531, Alt.=787.102051m. Speed=13.212000m/h.</desc>
<speed>3.670000</speed>
</trkpt>
<trkpt lat="43.148724" lon="19.291340">
<ele>789.242676</ele>
<time>2012-05-01T09:13:14Z</time>
<desc>lat.=43.148724, lon.=19.291340, Alt.=789.242676m. Speed=11.520000m/h.</desc>
<speed>3.200000</speed>
</trkpt>
<trkpt lat="43.148750" lon="19.291155">
<ele>790.992676</ele>
<time>2012-05-01T09:13:19Z</time>
<desc>lat.=43.148750, lon.=19.291155, Alt.=790.992676m. Speed=10.260000m/h.</desc>
<speed>2.850000</speed>
</trkpt>
<trkpt lat="43.148773" lon="19.290970">
<ele>792.867676</ele>
<time>2012-05-01T09:13:24Z</time>
<desc>lat.=43.148773, lon.=19.290970, Alt.=792.867676m. Speed=11.052000m/h.</desc>
<speed>3.070000</speed>
</trkpt>
<trkpt lat="43.148811" lon="19.290787">
<ele>796.820801</ele>
<time>2012-05-01T09:13:29Z</time>
<desc>lat.=43.148811, lon.=19.290787, Alt.=796.820801m. Speed=10.944000m/h.</desc>
<speed>3.040000</speed>
</trkpt>
<trkpt lat="43.148849" lon="19.290602">
<ele>801.273926</ele>
<time>2012-05-01T09:13:34Z</time>
<desc>lat.=43.148849, lon.=19.290602, Alt.=801.273926m. Speed=11.196000m/h.</desc>
<speed>3.110000</speed>
</trkpt>
<trkpt lat="43.148880" lon="19.290422">
<ele>802.930176</ele>
<time>2012-05-01T09:13:39Z</time>
<desc>lat.=43.148880, lon.=19.290422, Alt.=802.930176m. Speed=11.232000m/h.</desc>
<speed>3.120000</speed>
</trkpt>
<trkpt lat="43.148911" lon="19.290237">
<ele>801.820801</ele>
<time>2012-05-01T09:13:44Z</time>
<desc>lat.=43.148911, lon.=19.290237, Alt.=801.820801m. Speed=10.440000m/h.</desc>
<speed>2.900000</speed>
</trkpt>
<trkpt lat="43.148941" lon="19.290054">
<ele>799.883301</ele>
<time>2012-05-01T09:13:49Z</time>
<desc>lat.=43.148941, lon.=19.290054, Alt.=799.883301m. Speed=10.728000m/h.</desc>
<speed>2.980000</speed>
</trkpt>
<trkpt lat="43.148918" lon="19.289915">
<ele>801.352051</ele>
<time>2012-05-01T09:13:54Z</time>
<desc>lat.=43.148918, lon.=19.289915, Alt.=801.352051m. Speed=6.228000m/h.</desc>
<speed>1.730000</speed>
</trkpt>
<trkpt lat="43.148842" lon="19.289789">
<ele>801.289551</ele>
<time>2012-05-01T09:13:59Z</time>
<desc>lat.=43.148842, lon.=19.289789, Alt.=801.289551m. Speed=7.596000m/h.</desc>
<speed>2.110000</speed>
</trkpt>
<trkpt lat="43.148781" lon="19.289701">
<ele>801.305176</ele>
<time>2012-05-01T09:14:04Z</time>
<desc>lat.=43.148781, lon.=19.289701, Alt.=801.305176m. Speed=7.812000m/h.</desc>
<speed>2.170000</speed>
</trkpt>
<trkpt lat="43.148697" lon="19.289598">
<ele>802.383301</ele>
<time>2012-05-01T09:14:09Z</time>
<desc>lat.=43.148697, lon.=19.289598, Alt.=802.383301m. Speed=8.820000m/h.</desc>
<speed>2.450000</speed>
</trkpt>
<trkpt lat="43.148609" lon="19.289518">
<ele>802.164551</ele>
<time>2012-05-01T09:14:14Z</time>
<desc>lat.=43.148609, lon.=19.289518, Alt.=802.164551m. Speed=7.560000m/h.</desc>
<speed>2.100000</speed>
</trkpt>
<trkpt lat="43.148525" lon="19.289488">
<ele>804.258301</ele>
<time>2012-05-01T09:14:19Z</time>
<desc>lat.=43.148525, lon.=19.289488, Alt.=804.258301m. Speed=6.588000m/h.</desc>
<speed>1.830000</speed>
</trkpt>
<trkpt lat="43.148422" lon="19.289581">
<ele>805.039551</ele>
<time>2012-05-01T09:14:24Z</time>
<desc>lat.=43.148422, lon.=19.289581, Alt.=805.039551m. Speed=9.828000m/h.</desc>
<speed>2.730000</speed>
</trkpt>
<trkpt lat="43.148392" lon="19.289732">
<ele>806.055176</ele>
<time>2012-05-01T09:14:29Z</time>
<desc>lat.=43.148392, lon.=19.289732, Alt.=806.055176m. Speed=7.164000m/h.</desc>
<speed>1.990000</speed>
</trkpt>
<trkpt lat="43.148415" lon="19.289860">
<ele>807.164551</ele>
<time>2012-05-01T09:14:34Z</time>
<desc>lat.=43.148415, lon.=19.289860, Alt.=807.164551m. Speed=8.388000m/h.</desc>
<speed>2.330000</speed>
</trkpt>
<trkpt lat="43.148438" lon="19.289997">
<ele>808.523926</ele>
<time>2012-05-01T09:14:39Z</time>
<desc>lat.=43.148438, lon.=19.289997, Alt.=808.523926m. Speed=8.208000m/h.</desc>
<speed>2.280000</speed>
</trkpt>
<trkpt lat="43.148441" lon="19.290133">
<ele>809.727051</ele>
<time>2012-05-01T09:14:44Z</time>
<desc>lat.=43.148441, lon.=19.290133, Alt.=809.727051m. Speed=8.424000m/h.</desc>
<speed>2.340000</speed>
</trkpt>
<trkpt lat="43.148426" lon="19.290287">
<ele>809.930176</ele>
<time>2012-05-01T09:14:49Z</time>
<desc>lat.=43.148426, lon.=19.290287, Alt.=809.930176m. Speed=8.568000m/h.</desc>
<speed>2.380000</speed>
</trkpt>
<trkpt lat="43.148418" lon="19.290445">
<ele>809.320801</ele>
<time>2012-05-01T09:14:54Z</time>
<desc>lat.=43.148418, lon.=19.290445, Alt.=809.320801m. Speed=8.568000m/h.</desc>
<speed>2.380000</speed>
</trkpt>
<trkpt lat="43.148338" lon="19.290575">
<ele>810.070801</ele>
<time>2012-05-01T09:14:59Z</time>
<desc>lat.=43.148338, lon.=19.290575, Alt.=810.070801m. Speed=11.916000m/h.</desc>
<speed>3.310000</speed>
</trkpt>
<trkpt lat="43.148228" lon="19.290668">
<ele>811.648926</ele>
<time>2012-05-01T09:15:04Z</time>
<desc>lat.=43.148228, lon.=19.290668, Alt.=811.648926m. Speed=8.712000m/h.</desc>
<speed>2.420000</speed>
</trkpt>
<trkpt lat="43.148190" lon="19.290707">
<ele>811.711426</ele>
<time>2012-05-01T09:15:09Z</time>
<desc>lat.=43.148190, lon.=19.290707, Alt.=811.711426m. Speed=0.072000m/h.</desc>
<speed>0.020000</speed>
</trkpt>
<trkpt lat="43.148190" lon="19.290707">
<ele>811.461426</ele>
<time>2012-05-01T09:15:14Z</time>
<desc>lat.=43.148190, lon.=19.290707, Alt.=811.461426m. Speed=0.072000m/h.</desc>
<speed>0.020000</speed>
</trkpt>
<trkpt lat="43.148190" lon="19.290707">
<ele>811.445801</ele>
<time>2012-05-01T09:15:19Z</time>
<desc>lat.=43.148190, lon.=19.290707, Alt.=811.445801m. Speed=0.252000m/h.</desc>
<speed>0.070000</speed>
</trkpt>
<trkpt lat="43.148190" lon="19.290707">
<ele>811.383301</ele>
<time>2012-05-01T09:15:24Z</time>
<desc>lat.=43.148190, lon.=19.290707, Alt.=811.383301m. Speed=0.000000m/h.</desc>
<speed>0.000000</speed>
</trkpt>
<trkpt lat="43.148190" lon="19.290707">
<ele>811.320801</ele>
<time>2012-05-01T09:15:29Z</time>
<desc>lat.=43.148190, lon.=19.290707, Alt.=811.320801m. Speed=0.108000m/h.</desc>
<speed>0.030000</speed>
</trkpt>
<trkpt lat="43.148190" lon="19.290705">
<ele>811.320801</ele>
<time>2012-05-01T09:15:34Z</time>
<desc>lat.=43.148190, lon.=19.290705, Alt.=811.320801m. Speed=0.252000m/h.</desc>
<speed>0.070000</speed>
</trkpt>
<trkpt lat="43.148190" lon="19.290705">
<ele>811.133301</ele>
<time>2012-05-01T09:15:39Z</time>
<desc>lat.=43.148190, lon.=19.290705, Alt.=811.133301m. Speed=1.116000m/h.</desc>
<speed>0.310000</speed>
</trkpt>
<trkpt lat="43.148163" lon="19.290716">
<ele>811.227051</ele>
<time>2012-05-01T09:15:44Z</time>
<desc>lat.=43.148163, lon.=19.290716, Alt.=811.227051m. Speed=0.756000m/h.</desc>
<speed>0.210000</speed>
</trkpt>
<trkpt lat="43.148163" lon="19.290716">
<ele>811.180176</ele>
<time>2012-05-01T09:15:49Z</time>
<desc>lat.=43.148163, lon.=19.290716, Alt.=811.180176m. Speed=0.504000m/h.</desc>
<speed>0.140000</speed>
</trkpt>
<trkpt lat="43.148159" lon="19.290718">
<ele>811.258301</ele>
<time>2012-05-01T09:15:54Z</time>
<desc>lat.=43.148159, lon.=19.290718, Alt.=811.258301m. Speed=0.036000m/h.</desc>
<speed>0.010000</speed>
</trkpt>
<trkpt lat="43.148159" lon="19.290718">
<ele>811.258301</ele>
<time>2012-05-01T09:15:59Z</time>
<desc>lat.=43.148159, lon.=19.290718, Alt.=811.258301m. Speed=0.144000m/h.</desc>
<speed>0.040000</speed>
</trkpt>
<trkpt lat="43.148163" lon="19.290716">
<ele>811.258301</ele>
<time>2012-05-01T09:16:04Z</time>
<desc>lat.=43.148163, lon.=19.290716, Alt.=811.258301m. Speed=0.036000m/h.</desc>
<speed>0.010000</speed>
</trkpt>
<trkpt lat="43.148163" lon="19.290714">
<ele>811.242676</ele>
<time>2012-05-01T09:16:09Z</time>
<desc>lat.=43.148163, lon.=19.290714, Alt.=811.242676m. Speed=0.000000m/h.</desc>
<speed>0.000000</speed>
</trkpt>
<trkpt lat="43.148163" lon="19.290714">
<ele>811.242676</ele>
<time>2012-05-01T09:16:14Z</time>
<desc>lat.=43.148163, lon.=19.290714, Alt.=811.242676m. Speed=0.000000m/h.</desc>
<speed>0.000000</speed>
</trkpt>
<trkpt lat="43.148163" lon="19.290714">
<ele>811.242676</ele>
<time>2012-05-01T09:16:19Z</time>
<desc>lat.=43.148163, lon.=19.290714, Alt.=811.242676m. Speed=0.000000m/h.</desc>
<speed>0.000000</speed>
</trkpt>
<trkpt lat="43.148163" lon="19.290714">
<ele>811.227051</ele>
<time>2012-05-01T09:16:24Z</time>
<desc>lat.=43.148163, lon.=19.290714, Alt.=811.227051m. Speed=0.036000m/h.</desc>
<speed>0.010000</speed>
</trkpt>
<trkpt lat="43.148163" lon="19.290714">
<ele>811.211426</ele>
<time>2012-05-01T09:16:29Z</time>
<desc>lat.=43.148163, lon.=19.290714, Alt.=811.211426m. Speed=0.000000m/h.</desc>
<speed>0.000000</speed>
</trkpt>
<trkpt lat="43.148163" lon="19.290714">
<ele>811.242676</ele>
<time>2012-05-01T09:16:34Z</time>
<desc>lat.=43.148163, lon.=19.290714, Alt.=811.242676m. Speed=0.000000m/h.</desc>
<speed>0.000000</speed>
</trkpt>
<trkpt lat="43.148163" lon="19.290712">
<ele>811.242676</ele>
<time>2012-05-01T09:16:39Z</time>
<desc>lat.=43.148163, lon.=19.290712, Alt.=811.242676m. Speed=0.000000m/h.</desc>
<speed>0.000000</speed>
</trkpt>
<trkpt lat="43.148163" lon="19.290712">
<ele>811.242676</ele>
<time>2012-05-01T09:16:44Z</time>
<desc>lat.=43.148163, lon.=19.290712, Alt.=811.242676m. Speed=0.000000m/h.</desc>
<speed>0.000000</speed>
</trkpt>
<trkpt lat="43.148163" lon="19.290712">
<ele>811.227051</ele>
<time>2012-05-01T09:16:49Z</time>
<desc>lat.=43.148163, lon.=19.290712, Alt.=811.227051m. Speed=0.288000m/h.</desc>
<speed>0.080000</speed>
</trkpt>
<trkpt lat="43.148163" lon="19.290712">
<ele>811.117676</ele>
<time>2012-05-01T09:16:54Z</time>
<desc>lat.=43.148163, lon.=19.290712, Alt.=811.117676m. Speed=1.116000m/h.</desc>
<speed>0.310000</speed>
</trkpt>
<trkpt lat="43.148205" lon="19.290688">
<ele>809.961426</ele>
<time>2012-05-01T09:16:59Z</time>
<desc>lat.=43.148205, lon.=19.290688, Alt.=809.961426m. Speed=5.076000m/h.</desc>
<speed>1.410000</speed>
</trkpt>
<trkpt lat="43.148254" lon="19.290628">
<ele>809.680176</ele>
<time>2012-05-01T09:17:04Z</time>
<desc>lat.=43.148254, lon.=19.290628, Alt.=809.680176m. Speed=9.252000m/h.</desc>
<speed>2.570000</speed>
</trkpt>
<trkpt lat="43.148376" lon="19.290503">
<ele>808.898926</ele>
<time>2012-05-01T09:17:09Z</time>
<desc>lat.=43.148376, lon.=19.290503, Alt.=808.898926m. Speed=11.160000m/h.</desc>
<speed>3.100000</speed>
</trkpt>
<trkpt lat="43.148422" lon="19.290274">
<ele>806.555176</ele>
<time>2012-05-01T09:17:14Z</time>
<desc>lat.=43.148422, lon.=19.290274, Alt.=806.555176m. Speed=14.184000m/h.</desc>
<speed>3.940000</speed>
</trkpt>
<trkpt lat="43.148445" lon="19.290030">
<ele>805.992676</ele>
<time>2012-05-01T09:17:19Z</time>
<desc>lat.=43.148445, lon.=19.290030, Alt.=805.992676m. Speed=13.608000m/h.</desc>
<speed>3.780000</speed>
</trkpt>
<trkpt lat="43.148411" lon="19.289751">
<ele>804.023926</ele>
<time>2012-05-01T09:17:24Z</time>
<desc>lat.=43.148411, lon.=19.289751, Alt.=804.023926m. Speed=19.728001m/h.</desc>
<speed>5.480000</speed>
</trkpt>
<trkpt lat="43.148449" lon="19.289471">
<ele>802.852051</ele>
<time>2012-05-01T09:17:29Z</time>
<desc>lat.=43.148449, lon.=19.289471, Alt.=802.852051m. Speed=13.212000m/h.</desc>
<speed>3.670000</speed>
</trkpt>
<trkpt lat="43.148636" lon="19.289505">
<ele>802.305176</ele>
<time>2012-05-01T09:17:34Z</time>
<desc>lat.=43.148636, lon.=19.289505, Alt.=802.305176m. Speed=21.059999m/h.</desc>
<speed>5.850000</speed>
</trkpt>
<trkpt lat="43.148796" lon="19.289734">
<ele>799.914551</ele>
<time>2012-05-01T09:17:39Z</time>
<desc>lat.=43.148796, lon.=19.289734, Alt.=799.914551m. Speed=16.452000m/h.</desc>
<speed>4.570000</speed>
</trkpt>
<trkpt lat="43.148918" lon="19.289873">
<ele>798.289551</ele>
<time>2012-05-01T09:17:44Z</time>
<desc>lat.=43.148918, lon.=19.289873, Alt.=798.289551m. Speed=10.008000m/h.</desc>
<speed>2.780000</speed>
</trkpt>
<trkpt lat="43.149055" lon="19.289743">
<ele>800.586426</ele>
<time>2012-05-01T09:17:49Z</time>
<desc>lat.=43.149055, lon.=19.289743, Alt.=800.586426m. Speed=16.920000m/h.</desc>
<speed>4.700000</speed>
</trkpt>
<trkpt lat="43.149227" lon="19.289560">
<ele>803.039551</ele>
<time>2012-05-01T09:17:54Z</time>
<desc>lat.=43.149227, lon.=19.289560, Alt.=803.039551m. Speed=16.920000m/h.</desc>
<speed>4.700000</speed>
</trkpt>
<trkpt lat="43.149406" lon="19.289480">
<ele>803.977051</ele>
<time>2012-05-01T09:17:59Z</time>
<desc>lat.=43.149406, lon.=19.289480, Alt.=803.977051m. Speed=10.332000m/h.</desc>
<speed>2.870000</speed>
</trkpt>
<trkpt lat="43.149521" lon="19.289465">
<ele>804.477051</ele>
<time>2012-05-01T09:18:04Z</time>
<desc>lat.=43.149521, lon.=19.289465, Alt.=804.477051m. Speed=8.604000m/h.</desc>
<speed>2.390000</speed>
</trkpt>
<trkpt lat="43.149620" lon="19.289478">
<ele>804.711426</ele>
<time>2012-05-01T09:18:09Z</time>
<desc>lat.=43.149620, lon.=19.289478, Alt.=804.711426m. Speed=7.380000m/h.</desc>
<speed>2.050000</speed>
</trkpt>
<trkpt lat="43.149731" lon="19.289513">
<ele>804.836426</ele>
<time>2012-05-01T09:18:14Z</time>
<desc>lat.=43.149731, lon.=19.289513, Alt.=804.836426m. Speed=9.180000m/h.</desc>
<speed>2.550000</speed>
</trkpt>
<trkpt lat="43.149860" lon="19.289560">
<ele>805.383301</ele>
<time>2012-05-01T09:18:19Z</time>
<desc>lat.=43.149860, lon.=19.289560, Alt.=805.383301m. Speed=12.852000m/h.</desc>
<speed>3.570000</speed>
</trkpt>
<trkpt lat="43.150013" lon="19.289598">
<ele>806.555176</ele>
<time>2012-05-01T09:18:24Z</time>
<desc>lat.=43.150013, lon.=19.289598, Alt.=806.555176m. Speed=11.664000m/h.</desc>
<speed>3.240000</speed>
</trkpt>
<trkpt lat="43.150150" lon="19.289637">
<ele>806.758301</ele>
<time>2012-05-01T09:18:29Z</time>
<desc>lat.=43.150150, lon.=19.289637, Alt.=806.758301m. Speed=11.664000m/h.</desc>
<speed>3.240000</speed>
</trkpt>
<trkpt lat="43.150295" lon="19.289669">
<ele>807.664551</ele>
<time>2012-05-01T09:18:34Z</time>
<desc>lat.=43.150295, lon.=19.289669, Alt.=807.664551m. Speed=11.988000m/h.</desc>
<speed>3.330000</speed>
</trkpt>
<trkpt lat="43.150463" lon="19.289701">
<ele>808.039551</ele>
<time>2012-05-01T09:18:39Z</time>
<desc>lat.=43.150463, lon.=19.289701, Alt.=808.039551m. Speed=12.060000m/h.</desc>
<speed>3.350000</speed>
</trkpt>
<trkpt lat="43.150597" lon="19.289707">
<ele>808.633301</ele>
<time>2012-05-01T09:18:44Z</time>
<desc>lat.=43.150597, lon.=19.289707, Alt.=808.633301m. Speed=10.224000m/h.</desc>
<speed>2.840000</speed>
</trkpt>
<trkpt lat="43.150711" lon="19.289696">
<ele>808.992676</ele>
<time>2012-05-01T09:18:49Z</time>
<desc>lat.=43.150711, lon.=19.289696, Alt.=808.992676m. Speed=8.712000m/h.</desc>
<speed>2.420000</speed>
</trkpt>
<trkpt lat="43.150826" lon="19.289673">
<ele>809.961426</ele>
<time>2012-05-01T09:18:54Z</time>
<desc>lat.=43.150826, lon.=19.289673, Alt.=809.961426m. Speed=9.684000m/h.</desc>
<speed>2.690000</speed>
</trkpt>
<trkpt lat="43.150948" lon="19.289623">
<ele>810.148926</ele>
<time>2012-05-01T09:18:59Z</time>
<desc>lat.=43.150948, lon.=19.289623, Alt.=810.148926m. Speed=9.828000m/h.</desc>
<speed>2.730000</speed>
</trkpt>
<trkpt lat="43.151073" lon="19.289543">
<ele>810.867676</ele>
<time>2012-05-01T09:19:04Z</time>
<desc>lat.=43.151073, lon.=19.289543, Alt.=810.867676m. Speed=10.764000m/h.</desc>
<speed>2.990000</speed>
</trkpt>
<trkpt lat="43.151180" lon="19.289442">
<ele>812.039551</ele>
<time>2012-05-01T09:19:09Z</time>
<desc>lat.=43.151180, lon.=19.289442, Alt.=812.039551m. Speed=9.900000m/h.</desc>
<speed>2.750000</speed>
</trkpt>
<trkpt lat="43.151276" lon="19.289337">
<ele>812.023926</ele>
<time>2012-05-01T09:19:14Z</time>
<desc>lat.=43.151276, lon.=19.289337, Alt.=812.023926m. Speed=9.900000m/h.</desc>
<speed>2.750000</speed>
</trkpt>
<trkpt lat="43.151348" lon="19.289206">
<ele>813.414551</ele>
<time>2012-05-01T09:19:19Z</time>
<desc>lat.=43.151348, lon.=19.289206, Alt.=813.414551m. Speed=9.756000m/h.</desc>
<speed>2.710000</speed>
</trkpt>
<trkpt lat="43.151421" lon="19.289074">
<ele>814.477051</ele>
<time>2012-05-01T09:19:24Z</time>
<desc>lat.=43.151421, lon.=19.289074, Alt.=814.477051m. Speed=9.540000m/h.</desc>
<speed>2.650000</speed>
</trkpt>
<trkpt lat="43.151497" lon="19.288952">
<ele>815.086426</ele>
<time>2012-05-01T09:19:29Z</time>
<desc>lat.=43.151497, lon.=19.288952, Alt.=815.086426m. Speed=9.288000m/h.</desc>
<speed>2.580000</speed>
</trkpt>
<trkpt lat="43.151558" lon="19.288813">
<ele>816.711426</ele>
<time>2012-05-01T09:19:34Z</time>
<desc>lat.=43.151558, lon.=19.288813, Alt.=816.711426m. Speed=9.900000m/h.</desc>
<speed>2.750000</speed>
</trkpt>
<trkpt lat="43.151638" lon="19.288692">
<ele>817.383301</ele>
<time>2012-05-01T09:19:39Z</time>
<desc>lat.=43.151638, lon.=19.288692, Alt.=817.383301m. Speed=9.612000m/h.</desc>
<speed>2.670000</speed>
</trkpt>
<trkpt lat="43.151714" lon="19.288574">
<ele>817.914551</ele>
<time>2012-05-01T09:19:44Z</time>
<desc>lat.=43.151714, lon.=19.288574, Alt.=817.914551m. Speed=9.072000m/h.</desc>
<speed>2.520000</speed>
</trkpt>
<trkpt lat="43.151791" lon="19.288446">
<ele>819.164551</ele>
<time>2012-05-01T09:19:49Z</time>
<desc>lat.=43.151791, lon.=19.288446, Alt.=819.164551m. Speed=9.756000m/h.</desc>
<speed>2.710000</speed>
</trkpt>
<trkpt lat="43.151852" lon="19.288322">
<ele>821.070801</ele>
<time>2012-05-01T09:19:54Z</time>
<desc>lat.=43.151852, lon.=19.288322, Alt.=821.070801m. Speed=7.956000m/h.</desc>
<speed>2.210000</speed>
</trkpt>
<trkpt lat="43.151920" lon="19.288187">
<ele>822.289551</ele>
<time>2012-05-01T09:19:59Z</time>
<desc>lat.=43.151920, lon.=19.288187, Alt.=822.289551m. Speed=9.576000m/h.</desc>
<speed>2.660000</speed>
</trkpt>
<trkpt lat="43.151978" lon="19.288055">
<ele>823.367676</ele>
<time>2012-05-01T09:20:04Z</time>
<desc>lat.=43.151978, lon.=19.288055, Alt.=823.367676m. Speed=9.360000m/h.</desc>
<speed>2.600000</speed>
</trkpt>
<trkpt lat="43.152023" lon="19.287905">
<ele>824.352051</ele>
<time>2012-05-01T09:20:09Z</time>
<desc>lat.=43.152023, lon.=19.287905, Alt.=824.352051m. Speed=9.756000m/h.</desc>
<speed>2.710000</speed>
</trkpt>
<trkpt lat="43.152042" lon="19.287746">
<ele>825.320801</ele>
<time>2012-05-01T09:20:14Z</time>
<desc>lat.=43.152042, lon.=19.287746, Alt.=825.320801m. Speed=9.036000m/h.</desc>
<speed>2.510000</speed>
</trkpt>
<trkpt lat="43.152031" lon="19.287573">
<ele>826.352051</ele>
<time>2012-05-01T09:20:19Z</time>
<desc>lat.=43.152031, lon.=19.287573, Alt.=826.352051m. Speed=9.756000m/h.</desc>
<speed>2.710000</speed>
</trkpt>
<trkpt lat="43.152004" lon="19.287409">
<ele>826.398926</ele>
<time>2012-05-01T09:20:24Z</time>
<desc>lat.=43.152004, lon.=19.287409, Alt.=826.398926m. Speed=9.936000m/h.</desc>
<speed>2.760000</speed>
</trkpt>
<trkpt lat="43.151978" lon="19.287266">
<ele>826.836426</ele>
<time>2012-05-01T09:20:29Z</time>
<desc>lat.=43.151978, lon.=19.287266, Alt.=826.836426m. Speed=9.144000m/h.</desc>
<speed>2.540000</speed>
</trkpt>
<trkpt lat="43.151924" lon="19.287125">
<ele>827.336426</ele>
<time>2012-05-01T09:20:34Z</time>
<desc>lat.=43.151924, lon.=19.287125, Alt.=827.336426m. Speed=9.000000m/h.</desc>
<speed>2.500000</speed>
</trkpt>
<trkpt lat="43.151859" lon="19.286985">
<ele>828.070801</ele>
<time>2012-05-01T09:20:39Z</time>
<desc>lat.=43.151859, lon.=19.286985, Alt.=828.070801m. Speed=9.360000m/h.</desc>
<speed>2.600000</speed>
</trkpt>
<trkpt lat="43.151802" lon="19.286863">
<ele>828.617676</ele>
<time>2012-05-01T09:20:44Z</time>
<desc>lat.=43.151802, lon.=19.286863, Alt.=828.617676m. Speed=7.956000m/h.</desc>
<speed>2.210000</speed>
</trkpt>
<trkpt lat="43.151737" lon="19.286722">
<ele>829.477051</ele>
<time>2012-05-01T09:20:49Z</time>
<desc>lat.=43.151737, lon.=19.286722, Alt.=829.477051m. Speed=9.540000m/h.</desc>
<speed>2.650000</speed>
</trkpt>
<trkpt lat="43.151688" lon="19.286581">
<ele>829.727051</ele>
<time>2012-05-01T09:20:54Z</time>
<desc>lat.=43.151688, lon.=19.286581, Alt.=829.727051m. Speed=9.540000m/h.</desc>
<speed>2.650000</speed>
</trkpt>
<trkpt lat="43.151634" lon="19.286434">
<ele>830.336426</ele>
<time>2012-05-01T09:20:59Z</time>
<desc>lat.=43.151634, lon.=19.286434, Alt.=830.336426m. Speed=9.000000m/h.</desc>
<speed>2.500000</speed>
</trkpt>
<trkpt lat="43.151604" lon="19.286287">
<ele>830.820801</ele>
<time>2012-05-01T09:21:04Z</time>
<desc>lat.=43.151604, lon.=19.286287, Alt.=830.820801m. Speed=9.360000m/h.</desc>
<speed>2.600000</speed>
</trkpt>
<trkpt lat="43.151566" lon="19.286125">
<ele>831.133301</ele>
<time>2012-05-01T09:21:09Z</time>
<desc>lat.=43.151566, lon.=19.286125, Alt.=831.133301m. Speed=9.864000m/h.</desc>
<speed>2.740000</speed>
</trkpt>
<trkpt lat="43.151539" lon="19.285973">
<ele>831.352051</ele>
<time>2012-05-01T09:21:14Z</time>
<desc>lat.=43.151539, lon.=19.285973, Alt.=831.352051m. Speed=9.000000m/h.</desc>
<speed>2.500000</speed>
</trkpt>
<trkpt lat="43.151516" lon="19.285820">
<ele>832.055176</ele>
<time>2012-05-01T09:21:19Z</time>
<desc>lat.=43.151516, lon.=19.285820, Alt.=832.055176m. Speed=9.756000m/h.</desc>
<speed>2.710000</speed>
</trkpt>
<trkpt lat="43.151493" lon="19.285656">
<ele>832.492676</ele>
<time>2012-05-01T09:21:24Z</time>
<desc>lat.=43.151493, lon.=19.285656, Alt.=832.492676m. Speed=9.540000m/h.</desc>
<speed>2.650000</speed>
</trkpt>
<trkpt lat="43.151474" lon="19.285490">
<ele>833.023926</ele>
<time>2012-05-01T09:21:29Z</time>
<desc>lat.=43.151474, lon.=19.285490, Alt.=833.023926m. Speed=9.936000m/h.</desc>
<speed>2.760000</speed>
</trkpt>
<trkpt lat="43.151478" lon="19.285324">
<ele>833.477051</ele>
<time>2012-05-01T09:21:34Z</time>
<desc>lat.=43.151478, lon.=19.285324, Alt.=833.477051m. Speed=9.936000m/h.</desc>
<speed>2.760000</speed>
</trkpt>
<trkpt lat="43.151485" lon="19.285162">
<ele>834.273926</ele>
<time>2012-05-01T09:21:39Z</time>
<desc>lat.=43.151485, lon.=19.285162, Alt.=834.273926m. Speed=9.684000m/h.</desc>
<speed>2.690000</speed>
</trkpt>
<trkpt lat="43.151524" lon="19.285015">
<ele>835.148926</ele>
<time>2012-05-01T09:21:44Z</time>
<desc>lat.=43.151524, lon.=19.285015, Alt.=835.148926m. Speed=9.540000m/h.</desc>
<speed>2.650000</speed>
</trkpt>
<trkpt lat="43.151566" lon="19.284880">
<ele>837.211426</ele>
<time>2012-05-01T09:21:49Z</time>
<desc>lat.=43.151566, lon.=19.284880, Alt.=837.211426m. Speed=9.540000m/h.</desc>
<speed>2.650000</speed>
</trkpt>
<trkpt lat="43.151615" lon="19.284727">
<ele>837.945801</ele>
<time>2012-05-01T09:21:54Z</time>
<desc>lat.=43.151615, lon.=19.284727, Alt.=837.945801m. Speed=9.864000m/h.</desc>
<speed>2.740000</speed>
</trkpt>
<trkpt lat="43.151657" lon="19.284590">
<ele>839.414551</ele>
<time>2012-05-01T09:21:59Z</time>
<desc>lat.=43.151657, lon.=19.284590, Alt.=839.414551m. Speed=8.604000m/h.</desc>
<speed>2.390000</speed>
</trkpt>
<trkpt lat="43.151684" lon="19.284435">
<ele>841.648926</ele>
<time>2012-05-01T09:22:04Z</time>
<desc>lat.=43.151684, lon.=19.284435, Alt.=841.648926m. Speed=8.676000m/h.</desc>
<speed>2.410000</speed>
</trkpt>
<trkpt lat="43.151699" lon="19.284269">
<ele>842.164551</ele>
<time>2012-05-01T09:22:09Z</time>
<desc>lat.=43.151699, lon.=19.284269, Alt.=842.164551m. Speed=9.504000m/h.</desc>
<speed>2.640000</speed>
</trkpt>
<trkpt lat="43.151691" lon="19.284105">
<ele>844.570801</ele>
<time>2012-05-01T09:22:14Z</time>
<desc>lat.=43.151691, lon.=19.284105, Alt.=844.570801m. Speed=9.864000m/h.</desc>
<speed>2.740000</speed>
</trkpt>
<trkpt lat="43.151695" lon="19.283920">
<ele>844.711426</ele>
<time>2012-05-01T09:22:19Z</time>
<desc>lat.=43.151695, lon.=19.283920, Alt.=844.711426m. Speed=9.792000m/h.</desc>
<speed>2.720000</speed>
</trkpt>
<trkpt lat="43.151684" lon="19.283735">
<ele>844.789551</ele>
<time>2012-05-01T09:22:24Z</time>
<desc>lat.=43.151684, lon.=19.283735, Alt.=844.789551m. Speed=10.512000m/h.</desc>
<speed>2.920000</speed>
</trkpt>
<trkpt lat="43.151657" lon="19.283569">
<ele>846.445801</ele>
<time>2012-05-01T09:22:29Z</time>
<desc>lat.=43.151657, lon.=19.283569, Alt.=846.445801m. Speed=9.504000m/h.</desc>
<speed>2.640000</speed>
</trkpt>
<trkpt lat="43.151661" lon="19.283405">
<ele>846.945801</ele>
<time>2012-05-01T09:22:34Z</time>
<desc>lat.=43.151661, lon.=19.283405, Alt.=846.945801m. Speed=9.612000m/h.</desc>
<speed>2.670000</speed>
</trkpt>
<trkpt lat="43.151680" lon="19.283253">
<ele>847.539551</ele>
<time>2012-05-01T09:22:39Z</time>
<desc>lat.=43.151680, lon.=19.283253, Alt.=847.539551m. Speed=9.504000m/h.</desc>
<speed>2.640000</speed>
</trkpt>
<trkpt lat="43.151722" lon="19.283110">
<ele>847.945801</ele>
<time>2012-05-01T09:22:44Z</time>
<desc>lat.=43.151722, lon.=19.283110, Alt.=847.945801m. Speed=9.504000m/h.</desc>
<speed>2.640000</speed>
</trkpt>
<trkpt lat="43.151764" lon="19.282967">
<ele>848.992676</ele>
<time>2012-05-01T09:22:49Z</time>
<desc>lat.=43.151764, lon.=19.282967, Alt.=848.992676m. Speed=8.388000m/h.</desc>
<speed>2.330000</speed>
</trkpt>
<trkpt lat="43.151794" lon="19.282843">
<ele>851.070801</ele>
<time>2012-05-01T09:22:54Z</time>
<desc>lat.=43.151794, lon.=19.282843, Alt.=851.070801m. Speed=8.748000m/h.</desc>
<speed>2.430000</speed>
</trkpt>
<trkpt lat="43.151829" lon="19.282694">
<ele>853.586426</ele>
<time>2012-05-01T09:22:59Z</time>
<desc>lat.=43.151829, lon.=19.282694, Alt.=853.586426m. Speed=8.460000m/h.</desc>
<speed>2.350000</speed>
</trkpt>
<trkpt lat="43.151840" lon="19.282547">
<ele>855.164551</ele>
<time>2012-05-01T09:23:04Z</time>
<desc>lat.=43.151840, lon.=19.282547, Alt.=855.164551m. Speed=7.272000m/h.</desc>
<speed>2.020000</speed>
</trkpt>
<trkpt lat="43.151840" lon="19.282326">
<ele>852.586426</ele>
<time>2012-05-01T09:23:09Z</time>
<desc>lat.=43.151840, lon.=19.282326, Alt.=852.586426m. Speed=10.944000m/h.</desc>
<speed>3.040000</speed>
</trkpt>
<trkpt lat="43.151814" lon="19.282124">
<ele>852.227051</ele>
<time>2012-05-01T09:23:14Z</time>
<desc>lat.=43.151814, lon.=19.282124, Alt.=852.227051m. Speed=11.556000m/h.</desc>
<speed>3.210000</speed>
</trkpt>
<trkpt lat="43.151783" lon="19.281900">
<ele>851.070801</ele>
<time>2012-05-01T09:23:19Z</time>
<desc>lat.=43.151783, lon.=19.281900, Alt.=851.070801m. Speed=10.872000m/h.</desc>
<speed>3.020000</speed>
</trkpt>
<trkpt lat="43.151726" lon="19.281696">
<ele>850.852051</ele>
<time>2012-05-01T09:23:24Z</time>
<desc>lat.=43.151726, lon.=19.281696, Alt.=850.852051m. Speed=12.348000m/h.</desc>
<speed>3.430000</speed>
</trkpt>
<trkpt lat="43.151676" lon="19.281471">
<ele>850.883301</ele>
<time>2012-05-01T09:23:29Z</time>
<desc>lat.=43.151676, lon.=19.281471, Alt.=850.883301m. Speed=13.248000m/h.</desc>
<speed>3.680000</speed>
</trkpt>
<trkpt lat="43.151615" lon="19.281244">
<ele>850.883301</ele>
<time>2012-05-01T09:23:34Z</time>
<desc>lat.=43.151615, lon.=19.281244, Alt.=850.883301m. Speed=15.264000m/h.</desc>
<speed>4.240000</speed>
</trkpt>
<trkpt lat="43.151546" lon="19.280991">
<ele>850.617676</ele>
<time>2012-05-01T09:23:39Z</time>
<desc>lat.=43.151546, lon.=19.280991, Alt.=850.617676m. Speed=15.588000m/h.</desc>
<speed>4.330000</speed>
</trkpt>
<trkpt lat="43.151531" lon="19.280724">
<ele>850.961426</ele>
<time>2012-05-01T09:23:44Z</time>
<desc>lat.=43.151531, lon.=19.280724, Alt.=850.961426m. Speed=16.020000m/h.</desc>
<speed>4.450000</speed>
</trkpt>
<trkpt lat="43.151543" lon="19.280466">
<ele>851.508301</ele>
<time>2012-05-01T09:23:49Z</time>
<desc>lat.=43.151543, lon.=19.280466, Alt.=851.508301m. Speed=14.940000m/h.</desc>
<speed>4.150000</speed>
</trkpt>
<trkpt lat="43.151566" lon="19.280210">
<ele>852.242676</ele>
<time>2012-05-01T09:23:54Z</time>
<desc>lat.=43.151566, lon.=19.280210, Alt.=852.242676m. Speed=14.580000m/h.</desc>
<speed>4.050000</speed>
</trkpt>
<trkpt lat="43.151581" lon="19.279959">
<ele>853.898926</ele>
<time>2012-05-01T09:23:59Z</time>
<desc>lat.=43.151581, lon.=19.279959, Alt.=853.898926m. Speed=14.688000m/h.</desc>
<speed>4.080000</speed>
</trkpt>
<trkpt lat="43.151588" lon="19.279711">
<ele>851.758301</ele>
<time>2012-05-01T09:24:04Z</time>
<desc>lat.=43.151588, lon.=19.279711, Alt.=851.758301m. Speed=15.192000m/h.</desc>
<speed>4.220000</speed>
</trkpt>
<trkpt lat="43.151585" lon="19.279467">
<ele>849.430176</ele>
<time>2012-05-01T09:24:09Z</time>
<desc>lat.=43.151585, lon.=19.279467, Alt.=849.430176m. Speed=15.048000m/h.</desc>
<speed>4.180000</speed>
</trkpt>
<trkpt lat="43.151577" lon="19.279221">
<ele>847.383301</ele>
<time>2012-05-01T09:24:14Z</time>
<desc>lat.=43.151577, lon.=19.279221, Alt.=847.383301m. Speed=15.048000m/h.</desc>
<speed>4.180000</speed>
</trkpt>
<trkpt lat="43.151581" lon="19.278973">
<ele>848.539551</ele>
<time>2012-05-01T09:24:19Z</time>
<desc>lat.=43.151581, lon.=19.278973, Alt.=848.539551m. Speed=14.544000m/h.</desc>
<speed>4.040000</speed>
</trkpt>
<trkpt lat="43.151596" lon="19.278728">
<ele>849.617676</ele>
<time>2012-05-01T09:24:24Z</time>
<desc>lat.=43.151596, lon.=19.278728, Alt.=849.617676m. Speed=14.040000m/h.</desc>
<speed>3.900000</speed>
</trkpt>
<trkpt lat="43.151608" lon="19.278484">
<ele>850.148926</ele>
<time>2012-05-01T09:24:29Z</time>
<desc>lat.=43.151608, lon.=19.278484, Alt.=850.148926m. Speed=15.120000m/h.</desc>
<speed>4.200000</speed>
</trkpt>
<trkpt lat="43.151642" lon="19.278246">
<ele>850.180176</ele>
<time>2012-05-01T09:24:34Z</time>
<desc>lat.=43.151642, lon.=19.278246, Alt.=850.180176m. Speed=14.544000m/h.</desc>
<speed>4.040000</speed>
</trkpt>
<trkpt lat="43.151699" lon="19.278025">
<ele>850.758301</ele>
<time>2012-05-01T09:24:39Z</time>
<desc>lat.=43.151699, lon.=19.278025, Alt.=850.758301m. Speed=13.716000m/h.</desc>
<speed>3.810000</speed>
</trkpt>
<trkpt lat="43.151794" lon="19.277828">
<ele>851.289551</ele>
<time>2012-05-01T09:24:44Z</time>
<desc>lat.=43.151794, lon.=19.277828, Alt.=851.289551m. Speed=14.472000m/h.</desc>
<speed>4.020000</speed>
</trkpt>
<trkpt lat="43.151920" lon="19.277683">
<ele>852.555176</ele>
<time>2012-05-01T09:24:49Z</time>
<desc>lat.=43.151920, lon.=19.277683, Alt.=852.555176m. Speed=13.320000m/h.</desc>
<speed>3.700000</speed>
</trkpt>
<trkpt lat="43.152061" lon="19.277565">
<ele>853.242676</ele>
<time>2012-05-01T09:24:54Z</time>
<desc>lat.=43.152061, lon.=19.277565, Alt.=853.242676m. Speed=12.168000m/h.</desc>
<speed>3.380000</speed>
</trkpt>
<trkpt lat="43.152164" lon="19.277422">
<ele>853.180176</ele>
<time>2012-05-01T09:24:59Z</time>
<desc>lat.=43.152164, lon.=19.277422, Alt.=853.180176m. Speed=11.448000m/h.</desc>
<speed>3.180000</speed>
</trkpt>
<trkpt lat="43.152145" lon="19.277229">
<ele>853.492676</ele>
<time>2012-05-01T09:25:04Z</time>
<desc>lat.=43.152145, lon.=19.277229, Alt.=853.492676m. Speed=12.168000m/h.</desc>
<speed>3.380000</speed>
</trkpt>
<trkpt lat="43.152012" lon="19.277157">
<ele>853.664551</ele>
<time>2012-05-01T09:25:09Z</time>
<desc>lat.=43.152012, lon.=19.277157, Alt.=853.664551m. Speed=11.520000m/h.</desc>
<speed>3.200000</speed>
</trkpt>
<trkpt lat="43.151901" lon="19.277256">
<ele>854.117676</ele>
<time>2012-05-01T09:25:14Z</time>
<desc>lat.=43.151901, lon.=19.277256, Alt.=854.117676m. Speed=11.736000m/h.</desc>
<speed>3.260000</speed>
</trkpt>
<trkpt lat="43.151806" lon="19.277401">
<ele>854.773926</ele>
<time>2012-05-01T09:25:19Z</time>
<desc>lat.=43.151806, lon.=19.277401, Alt.=854.773926m. Speed=11.016000m/h.</desc>
<speed>3.060000</speed>
</trkpt>
<trkpt lat="43.151711" lon="19.277531">
<ele>855.055176</ele>
<time>2012-05-01T09:25:24Z</time>
<desc>lat.=43.151711, lon.=19.277531, Alt.=855.055176m. Speed=9.864000m/h.</desc>
<speed>2.740000</speed>
</trkpt>
<trkpt lat="43.151630" lon="19.277639">
<ele>855.164551</ele>
<time>2012-05-01T09:25:29Z</time>
<desc>lat.=43.151630, lon.=19.277639, Alt.=855.164551m. Speed=10.008000m/h.</desc>
<speed>2.780000</speed>
</trkpt>
<trkpt lat="43.151573" lon="19.277754">
<ele>856.805176</ele>
<time>2012-05-01T09:25:34Z</time>
<desc>lat.=43.151573, lon.=19.277754, Alt.=856.805176m. Speed=8.208000m/h.</desc>
<speed>2.280000</speed>
</trkpt>
<trkpt lat="43.151520" lon="19.277874">
<ele>858.039551</ele>
<time>2012-05-01T09:25:39Z</time>
<desc>lat.=43.151520, lon.=19.277874, Alt.=858.039551m. Speed=8.244000m/h.</desc>
<speed>2.290000</speed>
</trkpt>
<trkpt lat="43.151485" lon="19.277998">
<ele>859.383301</ele>
<time>2012-05-01T09:25:44Z</time>
<desc>lat.=43.151485, lon.=19.277998, Alt.=859.383301m. Speed=7.560000m/h.</desc>
<speed>2.100000</speed>
</trkpt>
<trkpt lat="43.151463" lon="19.278145">
<ele>859.805176</ele>
<time>2012-05-01T09:25:49Z</time>
<desc>lat.=43.151463, lon.=19.278145, Alt.=859.805176m. Speed=9.252000m/h.</desc>
<speed>2.570000</speed>
</trkpt>
<trkpt lat="43.151443" lon="19.278318">
<ele>859.961426</ele>
<time>2012-05-01T09:25:54Z</time>
<desc>lat.=43.151443, lon.=19.278318, Alt.=859.961426m. Speed=9.108000m/h.</desc>
<speed>2.530000</speed>
</trkpt>
<trkpt lat="43.151424" lon="19.278482">
<ele>859.711426</ele>
<time>2012-05-01T09:25:59Z</time>
<desc>lat.=43.151424, lon.=19.278482, Alt.=859.711426m. Speed=8.388000m/h.</desc>
<speed>2.330000</speed>
</trkpt>
<trkpt lat="43.151405" lon="19.278625">
<ele>859.555176</ele>
<time>2012-05-01T09:26:04Z</time>
<desc>lat.=43.151405, lon.=19.278625, Alt.=859.555176m. Speed=8.532000m/h.</desc>
<speed>2.370000</speed>
</trkpt>
<trkpt lat="43.151367" lon="19.278780">
<ele>859.352051</ele>
<time>2012-05-01T09:26:09Z</time>
<desc>lat.=43.151367, lon.=19.278780, Alt.=859.352051m. Speed=8.064000m/h.</desc>
<speed>2.240000</speed>
</trkpt>
<trkpt lat="43.151337" lon="19.278912">
<ele>860.352051</ele>
<time>2012-05-01T09:26:14Z</time>
<desc>lat.=43.151337, lon.=19.278912, Alt.=860.352051m. Speed=8.316000m/h.</desc>
<speed>2.310000</speed>
</trkpt>
<trkpt lat="43.151306" lon="19.279022">
<ele>861.508301</ele>
<time>2012-05-01T09:26:19Z</time>
<desc>lat.=43.151306, lon.=19.279022, Alt.=861.508301m. Speed=7.020000m/h.</desc>
<speed>1.950000</speed>
</trkpt>
<trkpt lat="43.151283" lon="19.279142">
<ele>863.336426</ele>
<time>2012-05-01T09:26:24Z</time>
<desc>lat.=43.151283, lon.=19.279142, Alt.=863.336426m. Speed=7.020000m/h.</desc>
<speed>1.950000</speed>
</trkpt>
<trkpt lat="43.151249" lon="19.279291">
<ele>862.430176</ele>
<time>2012-05-01T09:26:29Z</time>
<desc>lat.=43.151249, lon.=19.279291, Alt.=862.430176m. Speed=7.704000m/h.</desc>
<speed>2.140000</speed>
</trkpt>
<trkpt lat="43.151234" lon="19.279442">
<ele>863.273926</ele>
<time>2012-05-01T09:26:34Z</time>
<desc>lat.=43.151234, lon.=19.279442, Alt.=863.273926m. Speed=8.172000m/h.</desc>
<speed>2.270000</speed>
</trkpt>
<trkpt lat="43.151211" lon="19.279579">
<ele>863.367676</ele>
<time>2012-05-01T09:26:39Z</time>
<desc>lat.=43.151211, lon.=19.279579, Alt.=863.367676m. Speed=8.244000m/h.</desc>
<speed>2.290000</speed>
</trkpt>
<trkpt lat="43.151188" lon="19.279711">
<ele>863.711426</ele>
<time>2012-05-01T09:26:44Z</time>
<desc>lat.=43.151188, lon.=19.279711, Alt.=863.711426m. Speed=7.740000m/h.</desc>
<speed>2.150000</speed>
</trkpt>
<trkpt lat="43.151169" lon="19.279839">
<ele>863.648926</ele>
<time>2012-05-01T09:26:49Z</time>
<desc>lat.=43.151169, lon.=19.279839, Alt.=863.648926m. Speed=6.840000m/h.</desc>
<speed>1.900000</speed>
</trkpt>
<trkpt lat="43.151150" lon="19.279947">
<ele>864.289551</ele>
<time>2012-05-01T09:26:54Z</time>
<desc>lat.=43.151150, lon.=19.279947, Alt.=864.289551m. Speed=6.984000m/h.</desc>
<speed>1.940000</speed>
</trkpt>
<trkpt lat="43.151131" lon="19.280066">
<ele>865.852051</ele>
<time>2012-05-01T09:26:59Z</time>
<desc>lat.=43.151131, lon.=19.280066, Alt.=865.852051m. Speed=6.516000m/h.</desc>
<speed>1.810000</speed>
</trkpt>
<trkpt lat="43.151104" lon="19.280167">
<ele>867.320801</ele>
<time>2012-05-01T09:27:04Z</time>
<desc>lat.=43.151104, lon.=19.280167, Alt.=867.320801m. Speed=6.372000m/h.</desc>
<speed>1.770000</speed>
</trkpt>
<trkpt lat="43.151119" lon="19.280340">
<ele>868.945801</ele>
<time>2012-05-01T09:27:09Z</time>
<desc>lat.=43.151119, lon.=19.280340, Alt.=868.945801m. Speed=7.308000m/h.</desc>
<speed>2.030000</speed>
</trkpt>
<trkpt lat="43.151108" lon="19.280476">
<ele>870.148926</ele>
<time>2012-05-01T09:27:14Z</time>
<desc>lat.=43.151108, lon.=19.280476, Alt.=870.148926m. Speed=7.776000m/h.</desc>
<speed>2.160000</speed>
</trkpt>
<trkpt lat="43.151093" lon="19.280605">
<ele>871.367676</ele>
<time>2012-05-01T09:27:19Z</time>
<desc>lat.=43.151093, lon.=19.280605, Alt.=871.367676m. Speed=7.920000m/h.</desc>
<speed>2.200000</speed>
</trkpt>
<trkpt lat="43.151085" lon="19.280710">
<ele>870.648926</ele>
<time>2012-05-01T09:27:24Z</time>
<desc>lat.=43.151085, lon.=19.280710, Alt.=870.648926m. Speed=4.788000m/h.</desc>
<speed>1.330000</speed>
</trkpt>
<trkpt lat="43.151073" lon="19.280884">
<ele>870.758301</ele>
<time>2012-05-01T09:27:29Z</time>
<desc>lat.=43.151073, lon.=19.280884, Alt.=870.758301m. Speed=9.252000m/h.</desc>
<speed>2.570000</speed>
</trkpt>
<trkpt lat="43.151073" lon="19.281027">
<ele>871.758301</ele>
<time>2012-05-01T09:27:34Z</time>
<desc>lat.=43.151073, lon.=19.281027, Alt.=871.758301m. Speed=8.136000m/h.</desc>
<speed>2.260000</speed>
</trkpt>
<trkpt lat="43.151096" lon="19.281151">
<ele>873.492676</ele>
<time>2012-05-01T09:27:39Z</time>
<desc>lat.=43.151096, lon.=19.281151, Alt.=873.492676m. Speed=8.172000m/h.</desc>
<speed>2.270000</speed>
</trkpt>
<trkpt lat="43.151112" lon="19.281282">
<ele>873.773926</ele>
<time>2012-05-01T09:27:44Z</time>
<desc>lat.=43.151112, lon.=19.281282, Alt.=873.773926m. Speed=5.148000m/h.</desc>
<speed>1.430000</speed>
</trkpt>
<trkpt lat="43.151104" lon="19.281408">
<ele>872.055176</ele>
<time>2012-05-01T09:27:49Z</time>
<desc>lat.=43.151104, lon.=19.281408, Alt.=872.055176m. Speed=8.388000m/h.</desc>
<speed>2.330000</speed>
</trkpt>
<trkpt lat="43.151112" lon="19.281549">
<ele>872.336426</ele>
<time>2012-05-01T09:27:54Z</time>
<desc>lat.=43.151112, lon.=19.281549, Alt.=872.336426m. Speed=8.316000m/h.</desc>
<speed>2.310000</speed>
</trkpt>
<trkpt lat="43.151131" lon="19.281694">
<ele>873.367676</ele>
<time>2012-05-01T09:27:59Z</time>
<desc>lat.=43.151131, lon.=19.281694, Alt.=873.367676m. Speed=7.992000m/h.</desc>
<speed>2.220000</speed>
</trkpt>
<trkpt lat="43.151131" lon="19.281849">
<ele>873.586426</ele>
<time>2012-05-01T09:28:04Z</time>
<desc>lat.=43.151131, lon.=19.281849, Alt.=873.586426m. Speed=7.740000m/h.</desc>
<speed>2.150000</speed>
</trkpt>
<trkpt lat="43.151134" lon="19.281992">
<ele>873.992676</ele>
<time>2012-05-01T09:28:09Z</time>
<desc>lat.=43.151134, lon.=19.281992, Alt.=873.992676m. Speed=8.712000m/h.</desc>
<speed>2.420000</speed>
</trkpt>
<trkpt lat="43.151150" lon="19.282171">
<ele>872.148926</ele>
<time>2012-05-01T09:28:14Z</time>
<desc>lat.=43.151150, lon.=19.282171, Alt.=872.148926m. Speed=9.180000m/h.</desc>
<speed>2.550000</speed>
</trkpt>
<trkpt lat="43.151146" lon="19.282318">
<ele>871.961426</ele>
<time>2012-05-01T09:28:19Z</time>
<desc>lat.=43.151146, lon.=19.282318, Alt.=871.961426m. Speed=5.904000m/h.</desc>
<speed>1.640000</speed>
</trkpt>
<trkpt lat="43.151119" lon="19.282454">
<ele>872.352051</ele>
<time>2012-05-01T09:28:24Z</time>
<desc>lat.=43.151119, lon.=19.282454, Alt.=872.352051m. Speed=8.172000m/h.</desc>
<speed>2.270000</speed>
</trkpt>
<trkpt lat="43.151081" lon="19.282581">
<ele>872.883301</ele>
<time>2012-05-01T09:28:29Z</time>
<desc>lat.=43.151081, lon.=19.282581, Alt.=872.883301m. Speed=7.236000m/h.</desc>
<speed>2.010000</speed>
</trkpt>
<trkpt lat="43.151035" lon="19.282692">
<ele>873.164551</ele>
<time>2012-05-01T09:28:34Z</time>
<desc>lat.=43.151035, lon.=19.282692, Alt.=873.164551m. Speed=7.848000m/h.</desc>
<speed>2.180000</speed>
</trkpt>
<trkpt lat="43.150974" lon="19.282793">
<ele>873.477051</ele>
<time>2012-05-01T09:28:39Z</time>
<desc>lat.=43.150974, lon.=19.282793, Alt.=873.477051m. Speed=7.740000m/h.</desc>
<speed>2.150000</speed>
</trkpt>
<trkpt lat="43.150913" lon="19.282898">
<ele>874.211426</ele>
<time>2012-05-01T09:28:44Z</time>
<desc>lat.=43.150913, lon.=19.282898, Alt.=874.211426m. Speed=7.704000m/h.</desc>
<speed>2.140000</speed>
</trkpt>
<trkpt lat="43.150848" lon="19.283016">
<ele>874.961426</ele>
<time>2012-05-01T09:28:49Z</time>
<desc>lat.=43.150848, lon.=19.283016, Alt.=874.961426m. Speed=8.244000m/h.</desc>
<speed>2.290000</speed>
</trkpt>
<trkpt lat="43.150784" lon="19.283129">
<ele>875.930176</ele>
<time>2012-05-01T09:28:54Z</time>
<desc>lat.=43.150784, lon.=19.283129, Alt.=875.930176m. Speed=8.172000m/h.</desc>
<speed>2.270000</speed>
</trkpt>
<trkpt lat="43.150726" lon="19.283237">
<ele>876.820801</ele>
<time>2012-05-01T09:28:59Z</time>
<desc>lat.=43.150726, lon.=19.283237, Alt.=876.820801m. Speed=7.740000m/h.</desc>
<speed>2.150000</speed>
</trkpt>
<trkpt lat="43.150681" lon="19.283363">
<ele>877.492676</ele>
<time>2012-05-01T09:29:04Z</time>
<desc>lat.=43.150681, lon.=19.283363, Alt.=877.492676m. Speed=7.416000m/h.</desc>
<speed>2.060000</speed>
</trkpt>
<trkpt lat="43.150620" lon="19.283463">
<ele>878.367676</ele>
<time>2012-05-01T09:29:09Z</time>
<desc>lat.=43.150620, lon.=19.283463, Alt.=878.367676m. Speed=7.812000m/h.</desc>
<speed>2.170000</speed>
</trkpt>
<trkpt lat="43.150566" lon="19.283571">
<ele>879.227051</ele>
<time>2012-05-01T09:29:14Z</time>
<desc>lat.=43.150566, lon.=19.283571, Alt.=879.227051m. Speed=6.804000m/h.</desc>
<speed>1.890000</speed>
</trkpt>
<trkpt lat="43.150539" lon="19.283714">
<ele>879.523926</ele>
<time>2012-05-01T09:29:19Z</time>
<desc>lat.=43.150539, lon.=19.283714, Alt.=879.523926m. Speed=7.596000m/h.</desc>
<speed>2.110000</speed>
</trkpt>
<trkpt lat="43.150520" lon="19.283869">
<ele>879.555176</ele>
<time>2012-05-01T09:29:24Z</time>
<desc>lat.=43.150520, lon.=19.283869, Alt.=879.555176m. Speed=7.020000m/h.</desc>
<speed>1.950000</speed>
</trkpt>
<trkpt lat="43.150501" lon="19.284006">
<ele>880.102051</ele>
<time>2012-05-01T09:29:29Z</time>
<desc>lat.=43.150501, lon.=19.284006, Alt.=880.102051m. Speed=7.776000m/h.</desc>
<speed>2.160000</speed>
</trkpt>
<trkpt lat="43.150467" lon="19.284124">
<ele>880.539551</ele>
<time>2012-05-01T09:29:34Z</time>
<desc>lat.=43.150467, lon.=19.284124, Alt.=880.539551m. Speed=7.056000m/h.</desc>
<speed>1.960000</speed>
</trkpt>
<trkpt lat="43.150440" lon="19.284239">
<ele>882.164551</ele>
<time>2012-05-01T09:29:39Z</time>
<desc>lat.=43.150440, lon.=19.284239, Alt.=882.164551m. Speed=7.020000m/h.</desc>
<speed>1.950000</speed>
</trkpt>
<trkpt lat="43.150425" lon="19.284361">
<ele>883.133301</ele>
<time>2012-05-01T09:29:44Z</time>
<desc>lat.=43.150425, lon.=19.284361, Alt.=883.133301m. Speed=7.344000m/h.</desc>
<speed>2.040000</speed>
</trkpt>
<trkpt lat="43.150398" lon="19.284475">
<ele>884.305176</ele>
<time>2012-05-01T09:29:49Z</time>
<desc>lat.=43.150398, lon.=19.284475, Alt.=884.305176m. Speed=6.696000m/h.</desc>
<speed>1.860000</speed>
</trkpt>
<trkpt lat="43.150383" lon="19.284609">
<ele>885.477051</ele>
<time>2012-05-01T09:29:54Z</time>
<desc>lat.=43.150383, lon.=19.284609, Alt.=885.477051m. Speed=7.452000m/h.</desc>
<speed>2.070000</speed>
</trkpt>
<trkpt lat="43.150372" lon="19.284737">
<ele>886.570801</ele>
<time>2012-05-01T09:29:59Z</time>
<desc>lat.=43.150372, lon.=19.284737, Alt.=886.570801m. Speed=5.796000m/h.</desc>
<speed>1.610000</speed>
</trkpt>
<trkpt lat="43.150360" lon="19.284901">
<ele>886.945801</ele>
<time>2012-05-01T09:30:04Z</time>
<desc>lat.=43.150360, lon.=19.284901, Alt.=886.945801m. Speed=6.696000m/h.</desc>
<speed>1.860000</speed>
</trkpt>
<trkpt lat="43.150352" lon="19.285042">
<ele>887.367676</ele>
<time>2012-05-01T09:30:09Z</time>
<desc>lat.=43.150352, lon.=19.285042, Alt.=887.367676m. Speed=8.388000m/h.</desc>
<speed>2.330000</speed>
</trkpt>
<trkpt lat="43.150364" lon="19.285227">
<ele>887.539551</ele>
<time>2012-05-01T09:30:14Z</time>
<desc>lat.=43.150364, lon.=19.285227, Alt.=887.539551m. Speed=8.712000m/h.</desc>
<speed>2.420000</speed>
</trkpt>
<trkpt lat="43.150364" lon="19.285372">
<ele>887.883301</ele>
<time>2012-05-01T09:30:19Z</time>
<desc>lat.=43.150364, lon.=19.285372, Alt.=887.883301m. Speed=8.064000m/h.</desc>
<speed>2.240000</speed>
</trkpt>
<trkpt lat="43.150364" lon="19.285519">
<ele>888.508301</ele>
<time>2012-05-01T09:30:24Z</time>
<desc>lat.=43.150364, lon.=19.285519, Alt.=888.508301m. Speed=8.244000m/h.</desc>
<speed>2.290000</speed>
</trkpt>
<trkpt lat="43.150364" lon="19.285650">
<ele>889.508301</ele>
<time>2012-05-01T09:30:29Z</time>
<desc>lat.=43.150364, lon.=19.285650, Alt.=889.508301m. Speed=8.604000m/h.</desc>
<speed>2.390000</speed>
</trkpt>
<trkpt lat="43.150372" lon="19.285803">
<ele>889.695801</ele>
<time>2012-05-01T09:30:34Z</time>
<desc>lat.=43.150372, lon.=19.285803, Alt.=889.695801m. Speed=8.100000m/h.</desc>
<speed>2.250000</speed>
</trkpt>
<trkpt lat="43.150375" lon="19.285944">
<ele>890.039551</ele>
<time>2012-05-01T09:30:39Z</time>
<desc>lat.=43.150375, lon.=19.285944, Alt.=890.039551m. Speed=7.632000m/h.</desc>
<speed>2.120000</speed>
</trkpt>
<trkpt lat="43.150387" lon="19.286089">
<ele>890.914551</ele>
<time>2012-05-01T09:30:44Z</time>
<desc>lat.=43.150387, lon.=19.286089, Alt.=890.914551m. Speed=8.388000m/h.</desc>
<speed>2.330000</speed>
</trkpt>
<trkpt lat="43.150398" lon="19.286236">
<ele>890.836426</ele>
<time>2012-05-01T09:30:49Z</time>
<desc>lat.=43.150398, lon.=19.286236, Alt.=890.836426m. Speed=10.116000m/h.</desc>
<speed>2.810000</speed>
</trkpt>
<trkpt lat="43.150436" lon="19.286398">
<ele>891.727051</ele>
<time>2012-05-01T09:30:54Z</time>
<desc>lat.=43.150436, lon.=19.286398, Alt.=891.727051m. Speed=8.208000m/h.</desc>
<speed>2.280000</speed>
</trkpt>
<trkpt lat="43.150471" lon="19.286537">
<ele>893.398926</ele>
<time>2012-05-01T09:30:59Z</time>
<desc>lat.=43.150471, lon.=19.286537, Alt.=893.398926m. Speed=7.236000m/h.</desc>
<speed>2.010000</speed>
</trkpt>
<trkpt lat="43.150490" lon="19.286648">
<ele>895.289551</ele>
<time>2012-05-01T09:31:04Z</time>
<desc>lat.=43.150490, lon.=19.286648, Alt.=895.289551m. Speed=6.588000m/h.</desc>
<speed>1.830000</speed>
</trkpt>
<trkpt lat="43.150517" lon="19.286768">
<ele>896.945801</ele>
<time>2012-05-01T09:31:09Z</time>
<desc>lat.=43.150517, lon.=19.286768, Alt.=896.945801m. Speed=7.992000m/h.</desc>
<speed>2.220000</speed>
</trkpt>
<trkpt lat="43.150566" lon="19.286896">
<ele>898.898926</ele>
<time>2012-05-01T09:31:14Z</time>
<desc>lat.=43.150566, lon.=19.286896, Alt.=898.898926m. Speed=8.244000m/h.</desc>
<speed>2.290000</speed>
</trkpt>
<trkpt lat="43.150631" lon="19.287024">
<ele>900.008301</ele>
<time>2012-05-01T09:31:19Z</time>
<desc>lat.=43.150631, lon.=19.287024, Alt.=900.008301m. Speed=9.504000m/h.</desc>
<speed>2.640000</speed>
</trkpt>
<trkpt lat="43.150688" lon="19.287153">
<ele>902.445801</ele>
<time>2012-05-01T09:31:24Z</time>
<desc>lat.=43.150688, lon.=19.287153, Alt.=902.445801m. Speed=8.568000m/h.</desc>
<speed>2.380000</speed>
</trkpt>
<trkpt lat="43.150719" lon="19.287298">
<ele>904.008301</ele>
<time>2012-05-01T09:31:29Z</time>
<desc>lat.=43.150719, lon.=19.287298, Alt.=904.008301m. Speed=8.280000m/h.</desc>
<speed>2.300000</speed>
</trkpt>
<trkpt lat="43.150650" lon="19.287401">
<ele>903.664551</ele>
<time>2012-05-01T09:31:34Z</time>
<desc>lat.=43.150650, lon.=19.287401, Alt.=903.664551m. Speed=8.460000m/h.</desc>
<speed>2.350000</speed>
</trkpt>
<trkpt lat="43.150566" lon="19.287346">
<ele>903.992676</ele>
<time>2012-05-01T09:31:39Z</time>
<desc>lat.=43.150566, lon.=19.287346, Alt.=903.992676m. Speed=6.840000m/h.</desc>
<speed>1.900000</speed>
</trkpt>
<trkpt lat="43.150539" lon="19.287228">
<ele>904.758301</ele>
<time>2012-05-01T09:31:44Z</time>
<desc>lat.=43.150539, lon.=19.287228, Alt.=904.758301m. Speed=8.280000m/h.</desc>
<speed>2.300000</speed>
</trkpt>
<trkpt lat="43.150505" lon="19.287024">
<ele>906.352051</ele>
<time>2012-05-01T09:31:49Z</time>
<desc>lat.=43.150505, lon.=19.287024, Alt.=906.352051m. Speed=12.276000m/h.</desc>
<speed>3.410000</speed>
</trkpt>
<trkpt lat="43.150475" lon="19.286837">
<ele>907.320801</ele>
<time>2012-05-01T09:31:54Z</time>
<desc>lat.=43.150475, lon.=19.286837, Alt.=907.320801m. Speed=7.740000m/h.</desc>
<speed>2.150000</speed>
</trkpt>
<trkpt lat="43.150433" lon="19.286678">
<ele>908.070801</ele>
<time>2012-05-01T09:31:59Z</time>
<desc>lat.=43.150433, lon.=19.286678, Alt.=908.070801m. Speed=10.692000m/h.</desc>
<speed>2.970000</speed>
</trkpt>
<trkpt lat="43.150398" lon="19.286505">
<ele>908.617676</ele>
<time>2012-05-01T09:32:04Z</time>
<desc>lat.=43.150398, lon.=19.286505, Alt.=908.617676m. Speed=10.620000m/h.</desc>
<speed>2.950000</speed>
</trkpt>
<trkpt lat="43.150352" lon="19.286348">
<ele>908.930176</ele>
<time>2012-05-01T09:32:09Z</time>
<desc>lat.=43.150352, lon.=19.286348, Alt.=908.930176m. Speed=7.668000m/h.</desc>
<speed>2.130000</speed>
</trkpt>
<trkpt lat="43.150318" lon="19.286190">
<ele>908.617676</ele>
<time>2012-05-01T09:32:14Z</time>
<desc>lat.=43.150318, lon.=19.286190, Alt.=908.617676m. Speed=11.016000m/h.</desc>
<speed>3.060000</speed>
</trkpt>
<trkpt lat="43.150284" lon="19.286015">
<ele>907.930176</ele>
<time>2012-05-01T09:32:19Z</time>
<desc>lat.=43.150284, lon.=19.286015, Alt.=907.930176m. Speed=10.656000m/h.</desc>
<speed>2.960000</speed>
</trkpt>
<trkpt lat="43.150257" lon="19.285841">
<ele>907.992676</ele>
<time>2012-05-01T09:32:24Z</time>
<desc>lat.=43.150257, lon.=19.285841, Alt.=907.992676m. Speed=9.972000m/h.</desc>
<speed>2.770000</speed>
</trkpt>
<trkpt lat="43.150242" lon="19.285671">
<ele>908.867676</ele>
<time>2012-05-01T09:32:29Z</time>
<desc>lat.=43.150242, lon.=19.285671, Alt.=908.867676m. Speed=9.792000m/h.</desc>
<speed>2.720000</speed>
</trkpt>
<trkpt lat="43.150230" lon="19.285505">
<ele>909.398926</ele>
<time>2012-05-01T09:32:34Z</time>
<desc>lat.=43.150230, lon.=19.285505, Alt.=909.398926m. Speed=9.540000m/h.</desc>
<speed>2.650000</speed>
</trkpt>
<trkpt lat="43.150234" lon="19.285353">
<ele>910.195801</ele>
<time>2012-05-01T09:32:39Z</time>
<desc>lat.=43.150234, lon.=19.285353, Alt.=910.195801m. Speed=9.612000m/h.</desc>
<speed>2.670000</speed>
</trkpt>
<trkpt lat="43.150223" lon="19.285187">
<ele>911.289551</ele>
<time>2012-05-01T09:32:44Z</time>
<desc>lat.=43.150223, lon.=19.285187, Alt.=911.289551m. Speed=10.368000m/h.</desc>
<speed>2.880000</speed>
</trkpt>
<trkpt lat="43.150208" lon="19.285011">
<ele>912.648926</ele>
<time>2012-05-01T09:32:49Z</time>
<desc>lat.=43.150208, lon.=19.285011, Alt.=912.648926m. Speed=10.116000m/h.</desc>
<speed>2.810000</speed>
</trkpt>
<trkpt lat="43.150185" lon="19.284843">
<ele>913.867676</ele>
<time>2012-05-01T09:32:54Z</time>
<desc>lat.=43.150185, lon.=19.284843, Alt.=913.867676m. Speed=10.368000m/h.</desc>
<speed>2.880000</speed>
</trkpt>
<trkpt lat="43.150158" lon="19.284664">
<ele>914.805176</ele>
<time>2012-05-01T09:32:59Z</time>
<desc>lat.=43.150158, lon.=19.284664, Alt.=914.805176m. Speed=10.332000m/h.</desc>
<speed>2.870000</speed>
</trkpt>
<trkpt lat="43.150120" lon="19.284489">
<ele>915.352051</ele>
<time>2012-05-01T09:33:04Z</time>
<desc>lat.=43.150120, lon.=19.284489, Alt.=915.352051m. Speed=10.116000m/h.</desc>
<speed>2.810000</speed>
</trkpt>
<trkpt lat="43.150101" lon="19.284317">
<ele>915.758301</ele>
<time>2012-05-01T09:33:09Z</time>
<desc>lat.=43.150101, lon.=19.284317, Alt.=915.758301m. Speed=9.864000m/h.</desc>
<speed>2.740000</speed>
</trkpt>
<trkpt lat="43.150112" lon="19.284147">
<ele>916.789551</ele>
<time>2012-05-01T09:33:14Z</time>
<desc>lat.=43.150112, lon.=19.284147, Alt.=916.789551m. Speed=9.576000m/h.</desc>
<speed>2.660000</speed>
</trkpt>
<trkpt lat="43.150112" lon="19.283968">
<ele>916.148926</ele>
<time>2012-05-01T09:33:19Z</time>
<desc>lat.=43.150112, lon.=19.283968, Alt.=916.148926m. Speed=10.692000m/h.</desc>
<speed>2.970000</speed>
</trkpt>
<trkpt lat="43.150139" lon="19.283802">
<ele>917.523926</ele>
<time>2012-05-01T09:33:24Z</time>
<desc>lat.=43.150139, lon.=19.283802, Alt.=917.523926m. Speed=10.908000m/h.</desc>
<speed>3.030000</speed>
</trkpt>
<trkpt lat="43.150166" lon="19.283621">
<ele>917.336426</ele>
<time>2012-05-01T09:33:29Z</time>
<desc>lat.=43.150166, lon.=19.283621, Alt.=917.336426m. Speed=11.700000m/h.</desc>
<speed>3.250000</speed>
</trkpt>
<trkpt lat="43.150196" lon="19.283438">
<ele>918.367676</ele>
<time>2012-05-01T09:33:34Z</time>
<desc>lat.=43.150196, lon.=19.283438, Alt.=918.367676m. Speed=11.232000m/h.</desc>
<speed>3.120000</speed>
</trkpt>
<trkpt lat="43.150234" lon="19.283239">
<ele>918.789551</ele>
<time>2012-05-01T09:33:39Z</time>
<desc>lat.=43.150234, lon.=19.283239, Alt.=918.789551m. Speed=12.060000m/h.</desc>
<speed>3.350000</speed>
</trkpt>
<trkpt lat="43.150276" lon="19.283039">
<ele>919.117676</ele>
<time>2012-05-01T09:33:44Z</time>
<desc>lat.=43.150276, lon.=19.283039, Alt.=919.117676m. Speed=11.592000m/h.</desc>
<speed>3.220000</speed>
</trkpt>
<trkpt lat="43.150311" lon="19.282858">
<ele>919.945801</ele>
<time>2012-05-01T09:33:49Z</time>
<desc>lat.=43.150311, lon.=19.282858, Alt.=919.945801m. Speed=11.376000m/h.</desc>
<speed>3.160000</speed>
</trkpt>
<trkpt lat="43.150349" lon="19.282675">
<ele>920.836426</ele>
<time>2012-05-01T09:33:54Z</time>
<desc>lat.=43.150349, lon.=19.282675, Alt.=920.836426m. Speed=11.088000m/h.</desc>
<speed>3.080000</speed>
</trkpt>
<trkpt lat="43.150387" lon="19.282488">
<ele>923.539551</ele>
<time>2012-05-01T09:33:59Z</time>
<desc>lat.=43.150387, lon.=19.282488, Alt.=923.539551m. Speed=11.520000m/h.</desc>
<speed>3.200000</speed>
</trkpt>
<trkpt lat="43.150406" lon="19.282303">
<ele>924.586426</ele>
<time>2012-05-01T09:34:04Z</time>
<desc>lat.=43.150406, lon.=19.282303, Alt.=924.586426m. Speed=10.980000m/h.</desc>
<speed>3.050000</speed>
</trkpt>
<trkpt lat="43.150417" lon="19.282116">
<ele>926.742676</ele>
<time>2012-05-01T09:34:09Z</time>
<desc>lat.=43.150417, lon.=19.282116, Alt.=926.742676m. Speed=11.088000m/h.</desc>
<speed>3.080000</speed>
</trkpt>
<trkpt lat="43.150421" lon="19.281914">
<ele>928.852051</ele>
<time>2012-05-01T09:34:14Z</time>
<desc>lat.=43.150421, lon.=19.281914, Alt.=928.852051m. Speed=11.700000m/h.</desc>
<speed>3.250000</speed>
</trkpt>
<trkpt lat="43.150425" lon="19.281717">
<ele>930.430176</ele>
<time>2012-05-01T09:34:19Z</time>
<desc>lat.=43.150425, lon.=19.281717, Alt.=930.430176m. Speed=10.728000m/h.</desc>
<speed>2.980000</speed>
</trkpt>
<trkpt lat="43.150421" lon="19.281521">
<ele>931.867676</ele>
<time>2012-05-01T09:34:24Z</time>
<desc>lat.=43.150421, lon.=19.281521, Alt.=931.867676m. Speed=10.980000m/h.</desc>
<speed>3.050000</speed>
</trkpt>
<trkpt lat="43.150406" lon="19.281349">
<ele>932.195801</ele>
<time>2012-05-01T09:34:29Z</time>
<desc>lat.=43.150406, lon.=19.281349, Alt.=932.195801m. Speed=7.992000m/h.</desc>
<speed>2.220000</speed>
</trkpt>
<trkpt lat="43.150379" lon="19.281174">
<ele>933.305176</ele>
<time>2012-05-01T09:34:34Z</time>
<desc>lat.=43.150379, lon.=19.281174, Alt.=933.305176m. Speed=11.160000m/h.</desc>
<speed>3.100000</speed>
</trkpt>
<trkpt lat="43.150345" lon="19.280998">
<ele>933.398926</ele>
<time>2012-05-01T09:34:39Z</time>
<desc>lat.=43.150345, lon.=19.280998, Alt.=933.398926m. Speed=9.648000m/h.</desc>
<speed>2.680000</speed>
</trkpt>
<trkpt lat="43.150311" lon="19.280876">
<ele>933.555176</ele>
<time>2012-05-01T09:34:44Z</time>
<desc>lat.=43.150311, lon.=19.280876, Alt.=933.555176m. Speed=9.540000m/h.</desc>
<speed>2.650000</speed>
</trkpt>
<trkpt lat="43.150272" lon="19.280729">
<ele>934.805176</ele>
<time>2012-05-01T09:34:49Z</time>
<desc>lat.=43.150272, lon.=19.280729, Alt.=934.805176m. Speed=8.532000m/h.</desc>
<speed>2.370000</speed>
</trkpt>
<trkpt lat="43.150242" lon="19.280575">
<ele>935.352051</ele>
<time>2012-05-01T09:34:54Z</time>
<desc>lat.=43.150242, lon.=19.280575, Alt.=935.352051m. Speed=9.720000m/h.</desc>
<speed>2.700000</speed>
</trkpt>
<trkpt lat="43.150204" lon="19.280424">
<ele>936.836426</ele>
<time>2012-05-01T09:34:59Z</time>
<desc>lat.=43.150204, lon.=19.280424, Alt.=936.836426m. Speed=8.172000m/h.</desc>
<speed>2.270000</speed>
</trkpt>
<trkpt lat="43.150166" lon="19.280268">
<ele>937.836426</ele>
<time>2012-05-01T09:35:04Z</time>
<desc>lat.=43.150166, lon.=19.280268, Alt.=937.836426m. Speed=9.864000m/h.</desc>
<speed>2.740000</speed>
</trkpt>
<trkpt lat="43.150127" lon="19.280106">
<ele>938.352051</ele>
<time>2012-05-01T09:35:09Z</time>
<desc>lat.=43.150127, lon.=19.280106, Alt.=938.352051m. Speed=10.296000m/h.</desc>
<speed>2.860000</speed>
</trkpt>
<trkpt lat="43.150093" lon="19.279917">
<ele>940.227051</ele>
<time>2012-05-01T09:35:14Z</time>
<desc>lat.=43.150093, lon.=19.279917, Alt.=940.227051m. Speed=10.512000m/h.</desc>
<speed>2.920000</speed>
</trkpt>
<trkpt lat="43.150070" lon="19.279745">
<ele>942.992676</ele>
<time>2012-05-01T09:35:19Z</time>
<desc>lat.=43.150070, lon.=19.279745, Alt.=942.992676m. Speed=10.008000m/h.</desc>
<speed>2.780000</speed>
</trkpt>
<trkpt lat="43.150078" lon="19.279581">
<ele>947.242676</ele>
<time>2012-05-01T09:35:24Z</time>
<desc>lat.=43.150078, lon.=19.279581, Alt.=947.242676m. Speed=9.396000m/h.</desc>
<speed>2.610000</speed>
</trkpt>
<trkpt lat="43.150082" lon="19.279411">
<ele>947.414551</ele>
<time>2012-05-01T09:35:29Z</time>
<desc>lat.=43.150082, lon.=19.279411, Alt.=947.414551m. Speed=10.260000m/h.</desc>
<speed>2.850000</speed>
</trkpt>
<trkpt lat="43.150101" lon="19.279245">
<ele>949.570801</ele>
<time>2012-05-01T09:35:34Z</time>
<desc>lat.=43.150101, lon.=19.279245, Alt.=949.570801m. Speed=10.188000m/h.</desc>
<speed>2.830000</speed>
</trkpt>
<trkpt lat="43.150116" lon="19.279060">
<ele>950.555176</ele>
<time>2012-05-01T09:35:39Z</time>
<desc>lat.=43.150116, lon.=19.279060, Alt.=950.555176m. Speed=10.368000m/h.</desc>
<speed>2.880000</speed>
</trkpt>
<trkpt lat="43.150105" lon="19.278868">
<ele>950.836426</ele>
<time>2012-05-01T09:35:44Z</time>
<desc>lat.=43.150105, lon.=19.278868, Alt.=950.836426m. Speed=10.980000m/h.</desc>
<speed>3.050000</speed>
</trkpt>
<trkpt lat="43.150093" lon="19.278690">
<ele>951.852051</ele>
<time>2012-05-01T09:35:49Z</time>
<desc>lat.=43.150093, lon.=19.278690, Alt.=951.852051m. Speed=8.892000m/h.</desc>
<speed>2.470000</speed>
</trkpt>
<trkpt lat="43.150089" lon="19.278595">
<ele>953.320801</ele>
<time>2012-05-01T09:35:54Z</time>
<desc>lat.=43.150089, lon.=19.278595, Alt.=953.320801m. Speed=4.392000m/h.</desc>
<speed>1.220000</speed>
</trkpt>
<trkpt lat="43.150078" lon="19.278522">
<ele>953.352051</ele>
<time>2012-05-01T09:35:59Z</time>
<desc>lat.=43.150078, lon.=19.278522, Alt.=953.352051m. Speed=5.328000m/h.</desc>
<speed>1.480000</speed>
</trkpt>
<trkpt lat="43.150032" lon="19.278524">
<ele>952.555176</ele>
<time>2012-05-01T09:36:04Z</time>
<desc>lat.=43.150032, lon.=19.278524, Alt.=952.555176m. Speed=1.584000m/h.</desc>
<speed>0.440000</speed>
</trkpt>
<trkpt lat="43.150032" lon="19.278524">
<ele>951.914551</ele>
<time>2012-05-01T09:36:09Z</time>
<desc>lat.=43.150032, lon.=19.278524, Alt.=951.914551m. Speed=1.584000m/h.</desc>
<speed>0.440000</speed>
</trkpt>
<trkpt lat="43.150021" lon="19.278521">
<ele>951.977051</ele>
<time>2012-05-01T09:36:14Z</time>
<desc>lat.=43.150021, lon.=19.278521, Alt.=951.977051m. Speed=2.196000m/h.</desc>
<speed>0.610000</speed>
</trkpt>
<trkpt lat="43.150009" lon="19.278509">
<ele>952.445801</ele>
<time>2012-05-01T09:36:19Z</time>
<desc>lat.=43.150009, lon.=19.278509, Alt.=952.445801m. Speed=0.000000m/h.</desc>
<speed>0.000000</speed>
</trkpt>
<trkpt lat="43.150005" lon="19.278522">
<ele>952.414551</ele>
<time>2012-05-01T09:36:24Z</time>
<desc>lat.=43.150005, lon.=19.278522, Alt.=952.414551m. Speed=0.144000m/h.</desc>
<speed>0.040000</speed>
</trkpt>
<trkpt lat="43.150005" lon="19.278519">
<ele>952.055176</ele>
<time>2012-05-01T09:36:29Z</time>
<desc>lat.=43.150005, lon.=19.278519, Alt.=952.055176m. Speed=0.108000m/h.</desc>
<speed>0.030000</speed>
</trkpt>
<trkpt lat="43.150005" lon="19.278519">
<ele>952.086426</ele>
<time>2012-05-01T09:36:34Z</time>
<desc>lat.=43.150005, lon.=19.278519, Alt.=952.086426m. Speed=0.108000m/h.</desc>
<speed>0.030000</speed>
</trkpt>
<trkpt lat="43.150013" lon="19.278522">
<ele>952.070801</ele>
<time>2012-05-01T09:36:39Z</time>
<desc>lat.=43.150013, lon.=19.278522, Alt.=952.070801m. Speed=0.144000m/h.</desc>
<speed>0.040000</speed>
</trkpt>
<trkpt lat="43.150013" lon="19.278524">
<ele>952.117676</ele>
<time>2012-05-01T09:36:44Z</time>
<desc>lat.=43.150013, lon.=19.278524, Alt.=952.117676m. Speed=0.000000m/h.</desc>
<speed>0.000000</speed>
</trkpt>
<trkpt lat="43.150013" lon="19.278524">
<ele>952.102051</ele>
<time>2012-05-01T09:36:49Z</time>
<desc>lat.=43.150013, lon.=19.278524, Alt.=952.102051m. Speed=0.072000m/h.</desc>
<speed>0.020000</speed>
</trkpt>
<trkpt lat="43.150013" lon="19.278526">
<ele>952.039551</ele>
<time>2012-05-01T09:36:54Z</time>
<desc>lat.=43.150013, lon.=19.278526, Alt.=952.039551m. Speed=0.072000m/h.</desc>
<speed>0.020000</speed>
</trkpt>
<trkpt lat="43.150013" lon="19.278526">
<ele>952.008301</ele>
<time>2012-05-01T09:36:59Z</time>
<desc>lat.=43.150013, lon.=19.278526, Alt.=952.008301m. Speed=0.396000m/h.</desc>
<speed>0.110000</speed>
</trkpt>
<trkpt lat="43.150013" lon="19.278524">
<ele>951.836426</ele>
<time>2012-05-01T09:37:04Z</time>
<desc>lat.=43.150013, lon.=19.278524, Alt.=951.836426m. Speed=0.036000m/h.</desc>
<speed>0.010000</speed>
</trkpt>
<trkpt lat="43.150013" lon="19.278524">
<ele>951.773926</ele>
<time>2012-05-01T09:37:09Z</time>
<desc>lat.=43.150013, lon.=19.278524, Alt.=951.773926m. Speed=0.000000m/h.</desc>
<speed>0.000000</speed>
</trkpt>
<trkpt lat="43.150013" lon="19.278524">
<ele>951.727051</ele>
<time>2012-05-01T09:37:14Z</time>
<desc>lat.=43.150013, lon.=19.278524, Alt.=951.727051m. Speed=0.000000m/h.</desc>
<speed>0.000000</speed>
</trkpt>
<trkpt lat="43.150013" lon="19.278524">
<ele>951.711426</ele>
<time>2012-05-01T09:37:19Z</time>
<desc>lat.=43.150013, lon.=19.278524, Alt.=951.711426m. Speed=0.000000m/h.</desc>
<speed>0.000000</speed>
</trkpt>
<trkpt lat="43.150013" lon="19.278526">
<ele>951.727051</ele>
<time>2012-05-01T09:37:24Z</time>
<desc>lat.=43.150013, lon.=19.278526, Alt.=951.727051m. Speed=0.036000m/h.</desc>
<speed>0.010000</speed>
</trkpt>
<trkpt lat="43.150013" lon="19.278526">
<ele>951.742676</ele>
<time>2012-05-01T09:37:29Z</time>
<desc>lat.=43.150013, lon.=19.278526, Alt.=951.742676m. Speed=0.000000m/h.</desc>
<speed>0.000000</speed>
</trkpt>
<trkpt lat="43.150013" lon="19.278526">
<ele>951.742676</ele>
<time>2012-05-01T09:37:34Z</time>
<desc>lat.=43.150013, lon.=19.278526, Alt.=951.742676m. Speed=0.036000m/h.</desc>
<speed>0.010000</speed>
</trkpt>
<trkpt lat="43.150013" lon="19.278526">
<ele>951.789551</ele>
<time>2012-05-01T09:37:39Z</time>
<desc>lat.=43.150013, lon.=19.278526, Alt.=951.789551m. Speed=0.036000m/h.</desc>
<speed>0.010000</speed>
</trkpt>
<trkpt lat="43.150013" lon="19.278528">
<ele>951.820801</ele>
<time>2012-05-01T09:37:44Z</time>
<desc>lat.=43.150013, lon.=19.278528, Alt.=951.820801m. Speed=0.072000m/h.</desc>
<speed>0.020000</speed>
</trkpt>
<trkpt lat="43.150013" lon="19.278528">
<ele>951.867676</ele>
<time>2012-05-01T09:37:49Z</time>
<desc>lat.=43.150013, lon.=19.278528, Alt.=951.867676m. Speed=0.000000m/h.</desc>
<speed>0.000000</speed>
</trkpt>
<trkpt lat="43.150013" lon="19.278528">
<ele>951.914551</ele>
<time>2012-05-01T09:37:54Z</time>
<desc>lat.=43.150013, lon.=19.278528, Alt.=951.914551m. Speed=0.000000m/h.</desc>
<speed>0.000000</speed>
</trkpt>
<trkpt lat="43.150013" lon="19.278530">
<ele>951.930176</ele>
<time>2012-05-01T09:37:59Z</time>
<desc>lat.=43.150013, lon.=19.278530, Alt.=951.930176m. Speed=0.000000m/h.</desc>
<speed>0.000000</speed>
</trkpt>
<trkpt lat="43.150013" lon="19.278530">
<ele>951.945801</ele>
<time>2012-05-01T09:38:04Z</time>
<desc>lat.=43.150013, lon.=19.278530, Alt.=951.945801m. Speed=0.036000m/h.</desc>
<speed>0.010000</speed>
</trkpt>
<trkpt lat="43.150013" lon="19.278530">
<ele>951.961426</ele>
<time>2012-05-01T09:38:09Z</time>
<desc>lat.=43.150013, lon.=19.278530, Alt.=951.961426m. Speed=0.072000m/h.</desc>
<speed>0.020000</speed>
</trkpt>
<trkpt lat="43.150013" lon="19.278530">
<ele>951.992676</ele>
<time>2012-05-01T09:38:14Z</time>
<desc>lat.=43.150013, lon.=19.278530, Alt.=951.992676m. Speed=0.000000m/h.</desc>
<speed>0.000000</speed>
</trkpt>
<trkpt lat="43.150013" lon="19.278532">
<ele>952.008301</ele>
<time>2012-05-01T09:38:19Z</time>
<desc>lat.=43.150013, lon.=19.278532, Alt.=952.008301m. Speed=0.036000m/h.</desc>
<speed>0.010000</speed>
</trkpt>
<trkpt lat="43.150013" lon="19.278532">
<ele>952.023926</ele>
<time>2012-05-01T09:38:24Z</time>
<desc>lat.=43.150013, lon.=19.278532, Alt.=952.023926m. Speed=0.036000m/h.</desc>
<speed>0.010000</speed>
</trkpt>
<trkpt lat="43.150013" lon="19.278532">
<ele>952.023926</ele>
<time>2012-05-01T09:38:29Z</time>
<desc>lat.=43.150013, lon.=19.278532, Alt.=952.023926m. Speed=0.036000m/h.</desc>
<speed>0.010000</speed>
</trkpt>
<trkpt lat="43.150013" lon="19.278532">
<ele>952.023926</ele>
<time>2012-05-01T09:38:34Z</time>
<desc>lat.=43.150013, lon.=19.278532, Alt.=952.023926m. Speed=0.000000m/h.</desc>
<speed>0.000000</speed>
</trkpt>
<trkpt lat="43.150013" lon="19.278532">
<ele>952.023926</ele>
<time>2012-05-01T09:38:39Z</time>
<desc>lat.=43.150013, lon.=19.278532, Alt.=952.023926m. Speed=0.000000m/h.</desc>
<speed>0.000000</speed>
</trkpt>
<trkpt lat="43.150013" lon="19.278532">
<ele>952.039551</ele>
<time>2012-05-01T09:38:44Z</time>
<desc>lat.=43.150013, lon.=19.278532, Alt.=952.039551m. Speed=0.000000m/h.</desc>
<speed>0.000000</speed>
</trkpt>
<trkpt lat="43.150013" lon="19.278532">
<ele>952.055176</ele>
<time>2012-05-01T09:38:49Z</time>
<desc>lat.=43.150013, lon.=19.278532, Alt.=952.055176m. Speed=0.108000m/h.</desc>
<speed>0.030000</speed>
</trkpt>
<trkpt lat="43.150013" lon="19.278534">
<ele>952.055176</ele>
<time>2012-05-01T09:38:54Z</time>
<desc>lat.=43.150013, lon.=19.278534, Alt.=952.055176m. Speed=0.036000m/h.</desc>
<speed>0.010000</speed>
</trkpt>
<trkpt lat="43.150013" lon="19.278534">
<ele>952.086426</ele>
<time>2012-05-01T09:38:59Z</time>
<desc>lat.=43.150013, lon.=19.278534, Alt.=952.086426m. Speed=0.000000m/h.</desc>
<speed>0.000000</speed>
</trkpt>
<trkpt lat="43.150013" lon="19.278534">
<ele>952.117676</ele>
<time>2012-05-01T09:39:04Z</time>
<desc>lat.=43.150013, lon.=19.278534, Alt.=952.117676m. Speed=0.144000m/h.</desc>
<speed>0.040000</speed>
</trkpt>
<trkpt lat="43.150013" lon="19.278534">
<ele>952.148926</ele>
<time>2012-05-01T09:39:09Z</time>
<desc>lat.=43.150013, lon.=19.278534, Alt.=952.148926m. Speed=0.072000m/h.</desc>
<speed>0.020000</speed>
</trkpt>
<trkpt lat="43.150013" lon="19.278534">
<ele>952.164551</ele>
<time>2012-05-01T09:39:14Z</time>
<desc>lat.=43.150013, lon.=19.278534, Alt.=952.164551m. Speed=0.036000m/h.</desc>
<speed>0.010000</speed>
</trkpt>
<trkpt lat="43.150013" lon="19.278534">
<ele>952.164551</ele>
<time>2012-05-01T09:39:19Z</time>
<desc>lat.=43.150013, lon.=19.278534, Alt.=952.164551m. Speed=0.108000m/h.</desc>
<speed>0.030000</speed>
</trkpt>
<trkpt lat="43.150013" lon="19.278534">
<ele>952.164551</ele>
<time>2012-05-01T09:39:24Z</time>
<desc>lat.=43.150013, lon.=19.278534, Alt.=952.164551m. Speed=0.432000m/h.</desc>
<speed>0.120000</speed>
</trkpt>
<trkpt lat="43.150017" lon="19.278542">
<ele>952.164551</ele>
<time>2012-05-01T09:39:29Z</time>
<desc>lat.=43.150017, lon.=19.278542, Alt.=952.164551m. Speed=0.756000m/h.</desc>
<speed>0.210000</speed>
</trkpt>
<trkpt lat="43.150021" lon="19.278542">
<ele>952.258301</ele>
<time>2012-05-01T09:39:34Z</time>
<desc>lat.=43.150021, lon.=19.278542, Alt.=952.258301m. Speed=0.360000m/h.</desc>
<speed>0.100000</speed>
</trkpt>
<trkpt lat="43.150021" lon="19.278542">
<ele>952.258301</ele>
<time>2012-05-01T09:39:39Z</time>
<desc>lat.=43.150021, lon.=19.278542, Alt.=952.258301m. Speed=0.252000m/h.</desc>
<speed>0.070000</speed>
</trkpt>
<trkpt lat="43.150021" lon="19.278530">
<ele>952.383301</ele>
<time>2012-05-01T09:39:44Z</time>
<desc>lat.=43.150021, lon.=19.278530, Alt.=952.383301m. Speed=2.736000m/h.</desc>
<speed>0.760000</speed>
</trkpt>
<trkpt lat="43.149982" lon="19.278463">
<ele>953.508301</ele>
<time>2012-05-01T09:39:49Z</time>
<desc>lat.=43.149982, lon.=19.278463, Alt.=953.508301m. Speed=3.204000m/h.</desc>
<speed>0.890000</speed>
</trkpt>
<trkpt lat="43.149948" lon="19.278400">
<ele>953.586426</ele>
<time>2012-05-01T09:39:54Z</time>
<desc>lat.=43.149948, lon.=19.278400, Alt.=953.586426m. Speed=4.464000m/h.</desc>
<speed>1.240000</speed>
</trkpt>
<trkpt lat="43.149921" lon="19.278330">
<ele>954.414551</ele>
<time>2012-05-01T09:39:59Z</time>
<desc>lat.=43.149921, lon.=19.278330, Alt.=954.414551m. Speed=3.312000m/h.</desc>
<speed>0.920000</speed>
</trkpt>
<trkpt lat="43.149914" lon="19.278265">
<ele>955.305176</ele>
<time>2012-05-01T09:40:04Z</time>
<desc>lat.=43.149914, lon.=19.278265, Alt.=955.305176m. Speed=2.988000m/h.</desc>
<speed>0.830000</speed>
</trkpt>
<trkpt lat="43.149906" lon="19.278200">
<ele>955.602051</ele>
<time>2012-05-01T09:40:09Z</time>
<desc>lat.=43.149906, lon.=19.278200, Alt.=955.602051m. Speed=1.512000m/h.</desc>
<speed>0.420000</speed>
</trkpt>
<trkpt lat="43.149910" lon="19.278173">
<ele>955.836426</ele>
<time>2012-05-01T09:40:14Z</time>
<desc>lat.=43.149910, lon.=19.278173, Alt.=955.836426m. Speed=3.852000m/h.</desc>
<speed>1.070000</speed>
</trkpt>
<trkpt lat="43.149914" lon="19.278116">
<ele>957.070801</ele>
<time>2012-05-01T09:40:19Z</time>
<desc>lat.=43.149914, lon.=19.278116, Alt.=957.070801m. Speed=3.996000m/h.</desc>
<speed>1.110000</speed>
</trkpt>
<trkpt lat="43.149921" lon="19.278053">
<ele>958.414551</ele>
<time>2012-05-01T09:40:24Z</time>
<desc>lat.=43.149921, lon.=19.278053, Alt.=958.414551m. Speed=1.980000m/h.</desc>
<speed>0.550000</speed>
</trkpt>
<trkpt lat="43.149918" lon="19.278034">
<ele>958.727051</ele>
<time>2012-05-01T09:40:29Z</time>
<desc>lat.=43.149918, lon.=19.278034, Alt.=958.727051m. Speed=0.216000m/h.</desc>
<speed>0.060000</speed>
</trkpt>
<trkpt lat="43.149918" lon="19.278019">
<ele>959.289551</ele>
<time>2012-05-01T09:40:34Z</time>
<desc>lat.=43.149918, lon.=19.278019, Alt.=959.289551m. Speed=4.248000m/h.</desc>
<speed>1.180000</speed>
</trkpt>
<trkpt lat="43.149918" lon="19.277946">
<ele>960.367676</ele>
<time>2012-05-01T09:40:39Z</time>
<desc>lat.=43.149918, lon.=19.277946, Alt.=960.367676m. Speed=3.924000m/h.</desc>
<speed>1.090000</speed>
</trkpt>
<trkpt lat="43.149918" lon="19.277874">
<ele>961.461426</ele>
<time>2012-05-01T09:40:44Z</time>
<desc>lat.=43.149918, lon.=19.277874, Alt.=961.461426m. Speed=3.996000m/h.</desc>
<speed>1.110000</speed>
</trkpt>
<trkpt lat="43.149914" lon="19.277800">
<ele>961.883301</ele>
<time>2012-05-01T09:40:49Z</time>
<desc>lat.=43.149914, lon.=19.277800, Alt.=961.883301m. Speed=3.672000m/h.</desc>
<speed>1.020000</speed>
</trkpt>
<trkpt lat="43.149902" lon="19.277731">
<ele>962.727051</ele>
<time>2012-05-01T09:40:54Z</time>
<desc>lat.=43.149902, lon.=19.277731, Alt.=962.727051m. Speed=4.104000m/h.</desc>
<speed>1.140000</speed>
</trkpt>
<trkpt lat="43.149895" lon="19.277704">
<ele>961.820801</ele>
<time>2012-05-01T09:40:59Z</time>
<desc>lat.=43.149895, lon.=19.277704, Alt.=961.820801m. Speed=0.036000m/h.</desc>
<speed>0.010000</speed>
</trkpt>
<trkpt lat="43.149891" lon="19.277683">
<ele>961.914551</ele>
<time>2012-05-01T09:41:04Z</time>
<desc>lat.=43.149891, lon.=19.277683, Alt.=961.914551m. Speed=3.528000m/h.</desc>
<speed>0.980000</speed>
</trkpt>
<trkpt lat="43.149887" lon="19.277620">
<ele>962.695801</ele>
<time>2012-05-01T09:41:09Z</time>
<desc>lat.=43.149887, lon.=19.277620, Alt.=962.695801m. Speed=4.320000m/h.</desc>
<speed>1.200000</speed>
</trkpt>
<trkpt lat="43.149883" lon="19.277559">
<ele>963.570801</ele>
<time>2012-05-01T09:41:14Z</time>
<desc>lat.=43.149883, lon.=19.277559, Alt.=963.570801m. Speed=3.816000m/h.</desc>
<speed>1.060000</speed>
</trkpt>
<trkpt lat="43.149891" lon="19.277494">
<ele>964.242676</ele>
<time>2012-05-01T09:41:19Z</time>
<desc>lat.=43.149891, lon.=19.277494, Alt.=964.242676m. Speed=4.068000m/h.</desc>
<speed>1.130000</speed>
</trkpt>
<trkpt lat="43.149891" lon="19.277458">
<ele>964.180176</ele>
<time>2012-05-01T09:41:24Z</time>
<desc>lat.=43.149891, lon.=19.277458, Alt.=964.180176m. Speed=0.108000m/h.</desc>
<speed>0.030000</speed>
</trkpt>
<trkpt lat="43.149891" lon="19.277451">
<ele>964.102051</ele>
<time>2012-05-01T09:41:29Z</time>
<desc>lat.=43.149891, lon.=19.277451, Alt.=964.102051m. Speed=0.108000m/h.</desc>
<speed>0.030000</speed>
</trkpt>
<trkpt lat="43.149891" lon="19.277422">
<ele>964.633301</ele>
<time>2012-05-01T09:41:34Z</time>
<desc>lat.=43.149891, lon.=19.277422, Alt.=964.633301m. Speed=4.284000m/h.</desc>
<speed>1.190000</speed>
</trkpt>
<trkpt lat="43.149891" lon="19.277357">
<ele>965.289551</ele>
<time>2012-05-01T09:41:39Z</time>
<desc>lat.=43.149891, lon.=19.277357, Alt.=965.289551m. Speed=4.536000m/h.</desc>
<speed>1.260000</speed>
</trkpt>
<trkpt lat="43.149895" lon="19.277288">
<ele>966.461426</ele>
<time>2012-05-01T09:41:44Z</time>
<desc>lat.=43.149895, lon.=19.277288, Alt.=966.461426m. Speed=3.132000m/h.</desc>
<speed>0.870000</speed>
</trkpt>
<trkpt lat="43.149899" lon="19.277229">
<ele>967.680176</ele>
<time>2012-05-01T09:41:49Z</time>
<desc>lat.=43.149899, lon.=19.277229, Alt.=967.680176m. Speed=3.528000m/h.</desc>
<speed>0.980000</speed>
</trkpt>
<trkpt lat="43.149899" lon="19.277168">
<ele>968.977051</ele>
<time>2012-05-01T09:41:54Z</time>
<desc>lat.=43.149899, lon.=19.277168, Alt.=968.977051m. Speed=3.672000m/h.</desc>
<speed>1.020000</speed>
</trkpt>
<trkpt lat="43.149906" lon="19.277109">
<ele>970.039551</ele>
<time>2012-05-01T09:41:59Z</time>
<desc>lat.=43.149906, lon.=19.277109, Alt.=970.039551m. Speed=2.808000m/h.</desc>
<speed>0.780000</speed>
</trkpt>
<trkpt lat="43.149899" lon="19.277063">
<ele>970.820801</ele>
<time>2012-05-01T09:42:04Z</time>
<desc>lat.=43.149899, lon.=19.277063, Alt.=970.820801m. Speed=2.952000m/h.</desc>
<speed>0.820000</speed>
</trkpt>
<trkpt lat="43.149899" lon="19.277016">
<ele>971.711426</ele>
<time>2012-05-01T09:42:09Z</time>
<desc>lat.=43.149899, lon.=19.277016, Alt.=971.711426m. Speed=3.348000m/h.</desc>
<speed>0.930000</speed>
</trkpt>
<trkpt lat="43.149891" lon="19.276957">
<ele>972.570801</ele>
<time>2012-05-01T09:42:14Z</time>
<desc>lat.=43.149891, lon.=19.276957, Alt.=972.570801m. Speed=2.052000m/h.</desc>
<speed>0.570000</speed>
</trkpt>
<trkpt lat="43.149876" lon="19.276913">
<ele>972.555176</ele>
<time>2012-05-01T09:42:19Z</time>
<desc>lat.=43.149876, lon.=19.276913, Alt.=972.555176m. Speed=3.132000m/h.</desc>
<speed>0.870000</speed>
</trkpt>
<trkpt lat="43.149864" lon="19.276867">
<ele>973.414551</ele>
<time>2012-05-01T09:42:24Z</time>
<desc>lat.=43.149864, lon.=19.276867, Alt.=973.414551m. Speed=3.132000m/h.</desc>
<speed>0.870000</speed>
</trkpt>
<trkpt lat="43.149845" lon="19.276817">
<ele>974.883301</ele>
<time>2012-05-01T09:42:29Z</time>
<desc>lat.=43.149845, lon.=19.276817, Alt.=974.883301m. Speed=2.844000m/h.</desc>
<speed>0.790000</speed>
</trkpt>
<trkpt lat="43.149815" lon="19.276781">
<ele>976.023926</ele>
<time>2012-05-01T09:42:34Z</time>
<desc>lat.=43.149815, lon.=19.276781, Alt.=976.023926m. Speed=2.376000m/h.</desc>
<speed>0.660000</speed>
</trkpt>
<trkpt lat="43.149788" lon="19.276747">
<ele>977.195801</ele>
<time>2012-05-01T09:42:39Z</time>
<desc>lat.=43.149788, lon.=19.276747, Alt.=977.195801m. Speed=3.636000m/h.</desc>
<speed>1.010000</speed>
</trkpt>
<trkpt lat="43.149757" lon="19.276699">
<ele>977.852051</ele>
<time>2012-05-01T09:42:44Z</time>
<desc>lat.=43.149757, lon.=19.276699, Alt.=977.852051m. Speed=3.456000m/h.</desc>
<speed>0.960000</speed>
</trkpt>
<trkpt lat="43.149742" lon="19.276678">
<ele>978.164551</ele>
<time>2012-05-01T09:42:49Z</time>
<desc>lat.=43.149742, lon.=19.276678, Alt.=978.164551m. Speed=0.000000m/h.</desc>
<speed>0.000000</speed>
</trkpt>
<trkpt lat="43.149742" lon="19.276676">
<ele>978.164551</ele>
<time>2012-05-01T09:42:54Z</time>
<desc>lat.=43.149742, lon.=19.276676, Alt.=978.164551m. Speed=0.036000m/h.</desc>
<speed>0.010000</speed>
</trkpt>
<trkpt lat="43.149742" lon="19.276678">
<ele>978.133301</ele>
<time>2012-05-01T09:42:59Z</time>
<desc>lat.=43.149742, lon.=19.276678, Alt.=978.133301m. Speed=0.000000m/h.</desc>
<speed>0.000000</speed>
</trkpt>
<trkpt lat="43.149727" lon="19.276657">
<ele>977.945801</ele>
<time>2012-05-01T09:43:04Z</time>
<desc>lat.=43.149727, lon.=19.276657, Alt.=977.945801m. Speed=2.304000m/h.</desc>
<speed>0.640000</speed>
</trkpt>
<trkpt lat="43.149715" lon="19.276611">
<ele>977.164551</ele>
<time>2012-05-01T09:43:09Z</time>
<desc>lat.=43.149715, lon.=19.276611, Alt.=977.164551m. Speed=2.700000m/h.</desc>
<speed>0.750000</speed>
</trkpt>
<trkpt lat="43.149719" lon="19.276562">
<ele>977.758301</ele>
<time>2012-05-01T09:43:14Z</time>
<desc>lat.=43.149719, lon.=19.276562, Alt.=977.758301m. Speed=3.276000m/h.</desc>
<speed>0.910000</speed>
</trkpt>
<trkpt lat="43.149731" lon="19.276516">
<ele>978.617676</ele>
<time>2012-05-01T09:43:19Z</time>
<desc>lat.=43.149731, lon.=19.276516, Alt.=978.617676m. Speed=3.420000m/h.</desc>
<speed>0.950000</speed>
</trkpt>
<trkpt lat="43.149754" lon="19.276472">
<ele>979.836426</ele>
<time>2012-05-01T09:43:24Z</time>
<desc>lat.=43.149754, lon.=19.276472, Alt.=979.836426m. Speed=3.060000m/h.</desc>
<speed>0.850000</speed>
</trkpt>
<trkpt lat="43.149776" lon="19.276423">
<ele>981.023926</ele>
<time>2012-05-01T09:43:29Z</time>
<desc>lat.=43.149776, lon.=19.276423, Alt.=981.023926m. Speed=3.816000m/h.</desc>
<speed>1.060000</speed>
</trkpt>
<trkpt lat="43.149796" lon="19.276369">
<ele>981.805176</ele>
<time>2012-05-01T09:43:34Z</time>
<desc>lat.=43.149796, lon.=19.276369, Alt.=981.805176m. Speed=3.204000m/h.</desc>
<speed>0.890000</speed>
</trkpt>
<trkpt lat="43.149818" lon="19.276329">
<ele>982.758301</ele>
<time>2012-05-01T09:43:39Z</time>
<desc>lat.=43.149818, lon.=19.276329, Alt.=982.758301m. Speed=3.420000m/h.</desc>
<speed>0.950000</speed>
</trkpt>
<trkpt lat="43.149841" lon="19.276291">
<ele>983.773926</ele>
<time>2012-05-01T09:43:44Z</time>
<desc>lat.=43.149841, lon.=19.276291, Alt.=983.773926m. Speed=3.456000m/h.</desc>
<speed>0.960000</speed>
</trkpt>
<trkpt lat="43.149876" lon="19.276245">
<ele>984.445801</ele>
<time>2012-05-01T09:43:49Z</time>
<desc>lat.=43.149876, lon.=19.276245, Alt.=984.445801m. Speed=3.780000m/h.</desc>
<speed>1.050000</speed>
</trkpt>
<trkpt lat="43.149906" lon="19.276196">
<ele>984.977051</ele>
<time>2012-05-01T09:43:54Z</time>
<desc>lat.=43.149906, lon.=19.276196, Alt.=984.977051m. Speed=3.636000m/h.</desc>
<speed>1.010000</speed>
</trkpt>
<trkpt lat="43.149937" lon="19.276146">
<ele>985.227051</ele>
<time>2012-05-01T09:43:59Z</time>
<desc>lat.=43.149937, lon.=19.276146, Alt.=985.227051m. Speed=3.960000m/h.</desc>
<speed>1.100000</speed>
</trkpt>
<trkpt lat="43.149967" lon="19.276104">
<ele>986.039551</ele>
<time>2012-05-01T09:44:04Z</time>
<desc>lat.=43.149967, lon.=19.276104, Alt.=986.039551m. Speed=3.096000m/h.</desc>
<speed>0.860000</speed>
</trkpt>
<trkpt lat="43.149990" lon="19.276045">
<ele>987.336426</ele>
<time>2012-05-01T09:44:09Z</time>
<desc>lat.=43.149990, lon.=19.276045, Alt.=987.336426m. Speed=3.492000m/h.</desc>
<speed>0.970000</speed>
</trkpt>
<trkpt lat="43.150013" lon="19.275976">
<ele>988.039551</ele>
<time>2012-05-01T09:44:14Z</time>
<desc>lat.=43.150013, lon.=19.275976, Alt.=988.039551m. Speed=3.744000m/h.</desc>
<speed>1.040000</speed>
</trkpt>
<trkpt lat="43.150028" lon="19.275909">
<ele>988.414551</ele>
<time>2012-05-01T09:44:19Z</time>
<desc>lat.=43.150028, lon.=19.275909, Alt.=988.414551m. Speed=3.960000m/h.</desc>
<speed>1.100000</speed>
</trkpt>
<trkpt lat="43.150043" lon="19.275852">
<ele>989.352051</ele>
<time>2012-05-01T09:44:24Z</time>
<desc>lat.=43.150043, lon.=19.275852, Alt.=989.352051m. Speed=3.024000m/h.</desc>
<speed>0.840000</speed>
</trkpt>
<trkpt lat="43.150051" lon="19.275787">
<ele>990.180176</ele>
<time>2012-05-01T09:44:29Z</time>
<desc>lat.=43.150051, lon.=19.275787, Alt.=990.180176m. Speed=3.420000m/h.</desc>
<speed>0.950000</speed>
</trkpt>
<trkpt lat="43.150043" lon="19.275724">
<ele>990.773926</ele>
<time>2012-05-01T09:44:34Z</time>
<desc>lat.=43.150043, lon.=19.275724, Alt.=990.773926m. Speed=3.672000m/h.</desc>
<speed>1.020000</speed>
</trkpt>
<trkpt lat="43.150017" lon="19.275669">
<ele>991.539551</ele>
<time>2012-05-01T09:44:39Z</time>
<desc>lat.=43.150017, lon.=19.275669, Alt.=991.539551m. Speed=3.708000m/h.</desc>
<speed>1.030000</speed>
</trkpt>
<trkpt lat="43.149994" lon="19.275616">
<ele>992.695801</ele>
<time>2012-05-01T09:44:44Z</time>
<desc>lat.=43.149994, lon.=19.275616, Alt.=992.695801m. Speed=3.564000m/h.</desc>
<speed>0.990000</speed>
</trkpt>
<trkpt lat="43.149975" lon="19.275566">
<ele>993.680176</ele>
<time>2012-05-01T09:44:49Z</time>
<desc>lat.=43.149975, lon.=19.275566, Alt.=993.680176m. Speed=3.024000m/h.</desc>
<speed>0.840000</speed>
</trkpt>
<trkpt lat="43.149967" lon="19.275522">
<ele>994.633301</ele>
<time>2012-05-01T09:44:54Z</time>
<desc>lat.=43.149967, lon.=19.275522, Alt.=994.633301m. Speed=0.072000m/h.</desc>
<speed>0.020000</speed>
</trkpt>
<trkpt lat="43.149967" lon="19.275496">
<ele>995.414551</ele>
<time>2012-05-01T09:44:59Z</time>
<desc>lat.=43.149967, lon.=19.275496, Alt.=995.414551m. Speed=2.736000m/h.</desc>
<speed>0.760000</speed>
</trkpt>
<trkpt lat="43.149956" lon="19.275448">
<ele>996.883301</ele>
<time>2012-05-01T09:45:04Z</time>
<desc>lat.=43.149956, lon.=19.275448, Alt.=996.883301m. Speed=3.348000m/h.</desc>
<speed>0.930000</speed>
</trkpt>
<trkpt lat="43.149956" lon="19.275436">
<ele>997.727051</ele>
<time>2012-05-01T09:45:09Z</time>
<desc>lat.=43.149956, lon.=19.275436, Alt.=997.727051m. Speed=0.180000m/h.</desc>
<speed>0.050000</speed>
</trkpt>
<trkpt lat="43.149940" lon="19.275400">
<ele>998.898926</ele>
<time>2012-05-01T09:45:14Z</time>
<desc>lat.=43.149940, lon.=19.275400, Alt.=998.898926m. Speed=2.196000m/h.</desc>
<speed>0.610000</speed>
</trkpt>
<trkpt lat="43.149910" lon="19.275372">
<ele>1000.117676</ele>
<time>2012-05-01T09:45:19Z</time>
<desc>lat.=43.149910, lon.=19.275372, Alt.=1000.117676m. Speed=3.384000m/h.</desc>
<speed>0.940000</speed>
</trkpt>
<trkpt lat="43.149876" lon="19.275358">
<ele>1001.305176</ele>
<time>2012-05-01T09:45:24Z</time>
<desc>lat.=43.149876, lon.=19.275358, Alt.=1001.305176m. Speed=3.384000m/h.</desc>
<speed>0.940000</speed>
</trkpt>
<trkpt lat="43.149837" lon="19.275352">
<ele>1002.602051</ele>
<time>2012-05-01T09:45:29Z</time>
<desc>lat.=43.149837, lon.=19.275352, Alt.=1002.602051m. Speed=3.060000m/h.</desc>
<speed>0.850000</speed>
</trkpt>
<trkpt lat="43.149807" lon="19.275352">
<ele>1003.305176</ele>
<time>2012-05-01T09:45:34Z</time>
<desc>lat.=43.149807, lon.=19.275352, Alt.=1003.305176m. Speed=2.880000m/h.</desc>
<speed>0.800000</speed>
</trkpt>
<trkpt lat="43.149769" lon="19.275354">
<ele>1004.461426</ele>
<time>2012-05-01T09:45:39Z</time>
<desc>lat.=43.149769, lon.=19.275354, Alt.=1004.461426m. Speed=3.384000m/h.</desc>
<speed>0.940000</speed>
</trkpt>
<trkpt lat="43.149731" lon="19.275358">
<ele>1005.211426</ele>
<time>2012-05-01T09:45:44Z</time>
<desc>lat.=43.149731, lon.=19.275358, Alt.=1005.211426m. Speed=3.276000m/h.</desc>
<speed>0.910000</speed>
</trkpt>
<trkpt lat="43.149681" lon="19.275335">
<ele>1005.820801</ele>
<time>2012-05-01T09:45:49Z</time>
<desc>lat.=43.149681, lon.=19.275335, Alt.=1005.820801m. Speed=3.888000m/h.</desc>
<speed>1.080000</speed>
</trkpt>
<trkpt lat="43.149654" lon="19.275326">
<ele>1006.008301</ele>
<time>2012-05-01T09:45:54Z</time>
<desc>lat.=43.149654, lon.=19.275326, Alt.=1006.008301m. Speed=0.252000m/h.</desc>
<speed>0.070000</speed>
</trkpt>
<trkpt lat="43.149658" lon="19.275328">
<ele>1005.742676</ele>
<time>2012-05-01T09:45:59Z</time>
<desc>lat.=43.149658, lon.=19.275328, Alt.=1005.742676m. Speed=0.072000m/h.</desc>
<speed>0.020000</speed>
</trkpt>
<trkpt lat="43.149658" lon="19.275328">
<ele>1005.727051</ele>
<time>2012-05-01T09:46:04Z</time>
<desc>lat.=43.149658, lon.=19.275328, Alt.=1005.727051m. Speed=0.036000m/h.</desc>
<speed>0.010000</speed>
</trkpt>
<trkpt lat="43.149658" lon="19.275328">
<ele>1005.742676</ele>
<time>2012-05-01T09:46:09Z</time>
<desc>lat.=43.149658, lon.=19.275328, Alt.=1005.742676m. Speed=0.000000m/h.</desc>
<speed>0.000000</speed>
</trkpt>
<trkpt lat="43.149658" lon="19.275328">
<ele>1005.742676</ele>
<time>2012-05-01T09:46:14Z</time>
<desc>lat.=43.149658, lon.=19.275328, Alt.=1005.742676m. Speed=0.036000m/h.</desc>
<speed>0.010000</speed>
</trkpt>
<trkpt lat="43.149658" lon="19.275328">
<ele>1005.758301</ele>
<time>2012-05-01T09:46:19Z</time>
<desc>lat.=43.149658, lon.=19.275328, Alt.=1005.758301m. Speed=2.268000m/h.</desc>
<speed>0.630000</speed>
</trkpt>
<trkpt lat="43.149632" lon="19.275311">
<ele>1006.055176</ele>
<time>2012-05-01T09:46:24Z</time>
<desc>lat.=43.149632, lon.=19.275311, Alt.=1006.055176m. Speed=2.376000m/h.</desc>
<speed>0.660000</speed>
</trkpt>
<trkpt lat="43.149628" lon="19.275301">
<ele>1006.133301</ele>
<time>2012-05-01T09:46:29Z</time>
<desc>lat.=43.149628, lon.=19.275301, Alt.=1006.133301m. Speed=0.036000m/h.</desc>
<speed>0.010000</speed>
</trkpt>
<trkpt lat="43.149628" lon="19.275301">
<ele>1006.117676</ele>
<time>2012-05-01T09:46:34Z</time>
<desc>lat.=43.149628, lon.=19.275301, Alt.=1006.117676m. Speed=0.036000m/h.</desc>
<speed>0.010000</speed>
</trkpt>
<trkpt lat="43.149628" lon="19.275301">
<ele>1006.086426</ele>
<time>2012-05-01T09:46:39Z</time>
<desc>lat.=43.149628, lon.=19.275301, Alt.=1006.086426m. Speed=0.036000m/h.</desc>
<speed>0.010000</speed>
</trkpt>
<trkpt lat="43.149628" lon="19.275301">
<ele>1006.102051</ele>
<time>2012-05-01T09:46:44Z</time>
<desc>lat.=43.149628, lon.=19.275301, Alt.=1006.102051m. Speed=0.000000m/h.</desc>
<speed>0.000000</speed>
</trkpt>
<trkpt lat="43.149624" lon="19.275299">
<ele>1006.008301</ele>
<time>2012-05-01T09:46:49Z</time>
<desc>lat.=43.149624, lon.=19.275299, Alt.=1006.008301m. Speed=1.008000m/h.</desc>
<speed>0.280000</speed>
</trkpt>
<trkpt lat="43.149628" lon="19.275295">
<ele>1005.898926</ele>
<time>2012-05-01T09:46:54Z</time>
<desc>lat.=43.149628, lon.=19.275295, Alt.=1005.898926m. Speed=0.036000m/h.</desc>
<speed>0.010000</speed>
</trkpt>
<trkpt lat="43.149628" lon="19.275297">
<ele>1005.914551</ele>
<time>2012-05-01T09:46:59Z</time>
<desc>lat.=43.149628, lon.=19.275297, Alt.=1005.914551m. Speed=0.072000m/h.</desc>
<speed>0.020000</speed>
</trkpt>
<trkpt lat="43.149628" lon="19.275297">
<ele>1005.914551</ele>
<time>2012-05-01T09:47:04Z</time>
<desc>lat.=43.149628, lon.=19.275297, Alt.=1005.914551m. Speed=0.000000m/h.</desc>
<speed>0.000000</speed>
</trkpt>
<trkpt lat="43.149628" lon="19.275297">
<ele>1005.914551</ele>
<time>2012-05-01T09:47:09Z</time>
<desc>lat.=43.149628, lon.=19.275297, Alt.=1005.914551m. Speed=0.000000m/h.</desc>
<speed>0.000000</speed>
</trkpt>
<trkpt lat="43.149605" lon="19.275297">
<ele>1005.836426</ele>
<time>2012-05-01T09:47:14Z</time>
<desc>lat.=43.149605, lon.=19.275297, Alt.=1005.836426m. Speed=2.844000m/h.</desc>
<speed>0.790000</speed>
</trkpt>
<trkpt lat="43.149582" lon="19.275293">
<ele>1005.398926</ele>
<time>2012-05-01T09:47:19Z</time>
<desc>lat.=43.149582, lon.=19.275293, Alt.=1005.398926m. Speed=4.392000m/h.</desc>
<speed>1.220000</speed>
</trkpt>
<trkpt lat="43.149506" lon="19.275288">
<ele>1006.570801</ele>
<time>2012-05-01T09:47:24Z</time>
<desc>lat.=43.149506, lon.=19.275288, Alt.=1006.570801m. Speed=6.588000m/h.</desc>
<speed>1.830000</speed>
</trkpt>
<trkpt lat="43.149422" lon="19.275276">
<ele>1007.633301</ele>
<time>2012-05-01T09:47:29Z</time>
<desc>lat.=43.149422, lon.=19.275276, Alt.=1007.633301m. Speed=5.868000m/h.</desc>
<speed>1.630000</speed>
</trkpt>
<trkpt lat="43.149349" lon="19.275318">
<ele>1007.758301</ele>
<time>2012-05-01T09:47:34Z</time>
<desc>lat.=43.149349, lon.=19.275318, Alt.=1007.758301m. Speed=8.568000m/h.</desc>
<speed>2.380000</speed>
</trkpt>
<trkpt lat="43.149246" lon="19.275393">
<ele>1008.180176</ele>
<time>2012-05-01T09:47:39Z</time>
<desc>lat.=43.149246, lon.=19.275393, Alt.=1008.180176m. Speed=10.152000m/h.</desc>
<speed>2.820000</speed>
</trkpt>
<trkpt lat="43.149158" lon="19.275425">
<ele>1009.367676</ele>
<time>2012-05-01T09:47:44Z</time>
<desc>lat.=43.149158, lon.=19.275425, Alt.=1009.367676m. Speed=6.444000m/h.</desc>
<speed>1.790000</speed>
</trkpt>
<trkpt lat="43.149086" lon="19.275469">
<ele>1009.539551</ele>
<time>2012-05-01T09:47:49Z</time>
<desc>lat.=43.149086, lon.=19.275469, Alt.=1009.539551m. Speed=7.920000m/h.</desc>
<speed>2.200000</speed>
</trkpt>
<trkpt lat="43.148949" lon="19.275629">
<ele>1008.367676</ele>
<time>2012-05-01T09:47:54Z</time>
<desc>lat.=43.148949, lon.=19.275629, Alt.=1008.367676m. Speed=18.180000m/h.</desc>
<speed>5.050000</speed>
</trkpt>
<trkpt lat="43.148754" lon="19.275753">
<ele>1008.430176</ele>
<time>2012-05-01T09:47:59Z</time>
<desc>lat.=43.148754, lon.=19.275753, Alt.=1008.430176m. Speed=14.652000m/h.</desc>
<speed>4.070000</speed>
</trkpt>
<trkpt lat="43.148628" lon="19.275782">
<ele>1010.164551</ele>
<time>2012-05-01T09:48:04Z</time>
<desc>lat.=43.148628, lon.=19.275782, Alt.=1010.164551m. Speed=8.928000m/h.</desc>
<speed>2.480000</speed>
</trkpt>
<trkpt lat="43.148544" lon="19.275866">
<ele>1011.070801</ele>
<time>2012-05-01T09:48:09Z</time>
<desc>lat.=43.148544, lon.=19.275866, Alt.=1011.070801m. Speed=9.072000m/h.</desc>
<speed>2.520000</speed>
</trkpt>
<trkpt lat="43.148487" lon="19.276035">
<ele>1012.117676</ele>
<time>2012-05-01T09:48:14Z</time>
<desc>lat.=43.148487, lon.=19.276035, Alt.=1012.117676m. Speed=9.936000m/h.</desc>
<speed>2.760000</speed>
</trkpt>
<trkpt lat="43.148449" lon="19.276192">
<ele>1013.133301</ele>
<time>2012-05-01T09:48:19Z</time>
<desc>lat.=43.148449, lon.=19.276192, Alt.=1013.133301m. Speed=8.784000m/h.</desc>
<speed>2.440000</speed>
</trkpt>
<trkpt lat="43.148415" lon="19.276318">
<ele>1014.273926</ele>
<time>2012-05-01T09:48:24Z</time>
<desc>lat.=43.148415, lon.=19.276318, Alt.=1014.273926m. Speed=7.056000m/h.</desc>
<speed>1.960000</speed>
</trkpt>
<trkpt lat="43.148422" lon="19.276423">
<ele>1015.961426</ele>
<time>2012-05-01T09:48:29Z</time>
<desc>lat.=43.148422, lon.=19.276423, Alt.=1015.961426m. Speed=5.544000m/h.</desc>
<speed>1.540000</speed>
</trkpt>
<trkpt lat="43.148441" lon="19.276508">
<ele>1017.492676</ele>
<time>2012-05-01T09:48:34Z</time>
<desc>lat.=43.148441, lon.=19.276508, Alt.=1017.492676m. Speed=5.436000m/h.</desc>
<speed>1.510000</speed>
</trkpt>
<trkpt lat="43.148468" lon="19.276590">
<ele>1019.180176</ele>
<time>2012-05-01T09:48:39Z</time>
<desc>lat.=43.148468, lon.=19.276590, Alt.=1019.180176m. Speed=5.760000m/h.</desc>
<speed>1.600000</speed>
</trkpt>
<trkpt lat="43.148487" lon="19.276665">
<ele>1020.992676</ele>
<time>2012-05-01T09:48:44Z</time>
<desc>lat.=43.148487, lon.=19.276665, Alt.=1020.992676m. Speed=4.824000m/h.</desc>
<speed>1.340000</speed>
</trkpt>
<trkpt lat="43.148499" lon="19.276762">
<ele>1022.602051</ele>
<time>2012-05-01T09:48:49Z</time>
<desc>lat.=43.148499, lon.=19.276762, Alt.=1022.602051m. Speed=5.004000m/h.</desc>
<speed>1.390000</speed>
</trkpt>
<trkpt lat="43.148491" lon="19.276852">
<ele>1023.789551</ele>
<time>2012-05-01T09:48:54Z</time>
<desc>lat.=43.148491, lon.=19.276852, Alt.=1023.789551m. Speed=4.752000m/h.</desc>
<speed>1.320000</speed>
</trkpt>
<trkpt lat="43.148479" lon="19.276924">
<ele>1024.516602</ele>
<time>2012-05-01T09:48:59Z</time>
<desc>lat.=43.148479, lon.=19.276924, Alt.=1024.516602m. Speed=5.796000m/h.</desc>
<speed>1.610000</speed>
</trkpt>
<trkpt lat="43.148468" lon="19.276981">
<ele>1024.922852</ele>
<time>2012-05-01T09:49:04Z</time>
<desc>lat.=43.148468, lon.=19.276981, Alt.=1024.922852m. Speed=0.504000m/h.</desc>
<speed>0.140000</speed>
</trkpt>
<trkpt lat="43.148472" lon="19.276979">
<ele>1024.860352</ele>
<time>2012-05-01T09:49:09Z</time>
<desc>lat.=43.148472, lon.=19.276979, Alt.=1024.860352m. Speed=0.252000m/h.</desc>
<speed>0.070000</speed>
</trkpt>
<trkpt lat="43.148464" lon="19.276991">
<ele>1024.860352</ele>
<time>2012-05-01T09:49:14Z</time>
<desc>lat.=43.148464, lon.=19.276991, Alt.=1024.860352m. Speed=1.908000m/h.</desc>
<speed>0.530000</speed>
</trkpt>
<trkpt lat="43.148441" lon="19.277027">
<ele>1025.547852</ele>
<time>2012-05-01T09:49:19Z</time>
<desc>lat.=43.148441, lon.=19.277027, Alt.=1025.547852m. Speed=4.104000m/h.</desc>
<speed>1.140000</speed>
</trkpt>
<trkpt lat="43.148403" lon="19.277081">
<ele>1026.579102</ele>
<time>2012-05-01T09:49:24Z</time>
<desc>lat.=43.148403, lon.=19.277081, Alt.=1026.579102m. Speed=3.960000m/h.</desc>
<speed>1.100000</speed>
</trkpt>
<trkpt lat="43.148373" lon="19.277128">
<ele>1027.422852</ele>
<time>2012-05-01T09:49:29Z</time>
<desc>lat.=43.148373, lon.=19.277128, Alt.=1027.422852m. Speed=3.204000m/h.</desc>
<speed>0.890000</speed>
</trkpt>
<trkpt lat="43.148338" lon="19.277128">
<ele>1028.266602</ele>
<time>2012-05-01T09:49:34Z</time>
<desc>lat.=43.148338, lon.=19.277128, Alt.=1028.266602m. Speed=3.312000m/h.</desc>
<speed>0.920000</speed>
</trkpt>
<trkpt lat="43.148312" lon="19.277105">
<ele>1028.516602</ele>
<time>2012-05-01T09:49:39Z</time>
<desc>lat.=43.148312, lon.=19.277105, Alt.=1028.516602m. Speed=1.800000m/h.</desc>
<speed>0.500000</speed>
</trkpt>
<trkpt lat="43.148293" lon="19.277031">
<ele>1029.141602</ele>
<time>2012-05-01T09:49:44Z</time>
<desc>lat.=43.148293, lon.=19.277031, Alt.=1029.141602m. Speed=4.284000m/h.</desc>
<speed>1.190000</speed>
</trkpt>
<trkpt lat="43.148270" lon="19.276943">
<ele>1029.672852</ele>
<time>2012-05-01T09:49:49Z</time>
<desc>lat.=43.148270, lon.=19.276943, Alt.=1029.672852m. Speed=6.084000m/h.</desc>
<speed>1.690000</speed>
</trkpt>
<trkpt lat="43.148212" lon="19.276865">
<ele>1030.329102</ele>
<time>2012-05-01T09:49:54Z</time>
<desc>lat.=43.148212, lon.=19.276865, Alt.=1030.329102m. Speed=6.192000m/h.</desc>
<speed>1.720000</speed>
</trkpt>
<trkpt lat="43.148148" lon="19.276819">
<ele>1031.172852</ele>
<time>2012-05-01T09:49:59Z</time>
<desc>lat.=43.148148, lon.=19.276819, Alt.=1031.172852m. Speed=6.768000m/h.</desc>
<speed>1.880000</speed>
</trkpt>
<trkpt lat="43.148067" lon="19.276817">
<ele>1032.797852</ele>
<time>2012-05-01T09:50:04Z</time>
<desc>lat.=43.148067, lon.=19.276817, Alt.=1032.797852m. Speed=5.076000m/h.</desc>
<speed>1.410000</speed>
</trkpt>
<trkpt lat="43.147995" lon="19.276846">
<ele>1034.235352</ele>
<time>2012-05-01T09:50:09Z</time>
<desc>lat.=43.147995, lon.=19.276846, Alt.=1034.235352m. Speed=7.128000m/h.</desc>
<speed>1.980000</speed>
</trkpt>
<trkpt lat="43.147911" lon="19.276869">
<ele>1035.860352</ele>
<time>2012-05-01T09:50:14Z</time>
<desc>lat.=43.147911, lon.=19.276869, Alt.=1035.860352m. Speed=5.904000m/h.</desc>
<speed>1.640000</speed>
</trkpt>
<trkpt lat="43.147850" lon="19.276848">
<ele>1037.579102</ele>
<time>2012-05-01T09:50:19Z</time>
<desc>lat.=43.147850, lon.=19.276848, Alt.=1037.579102m. Speed=4.860000m/h.</desc>
<speed>1.350000</speed>
</trkpt>
<trkpt lat="43.147804" lon="19.276781">
<ele>1038.016602</ele>
<time>2012-05-01T09:50:24Z</time>
<desc>lat.=43.147804, lon.=19.276781, Alt.=1038.016602m. Speed=4.860000m/h.</desc>
<speed>1.350000</speed>
</trkpt>
<trkpt lat="43.147778" lon="19.276714">
<ele>1039.141602</ele>
<time>2012-05-01T09:50:29Z</time>
<desc>lat.=43.147778, lon.=19.276714, Alt.=1039.141602m. Speed=4.824000m/h.</desc>
<speed>1.340000</speed>
</trkpt>
<trkpt lat="43.147732" lon="19.276632">
<ele>1040.047852</ele>
<time>2012-05-01T09:50:34Z</time>
<desc>lat.=43.147732, lon.=19.276632, Alt.=1040.047852m. Speed=4.320000m/h.</desc>
<speed>1.200000</speed>
</trkpt>
<trkpt lat="43.147701" lon="19.276588">
<ele>1040.422852</ele>
<time>2012-05-01T09:50:39Z</time>
<desc>lat.=43.147701, lon.=19.276588, Alt.=1040.422852m. Speed=0.288000m/h.</desc>
<speed>0.080000</speed>
</trkpt>
<trkpt lat="43.147682" lon="19.276558">
<ele>1040.454102</ele>
<time>2012-05-01T09:50:44Z</time>
<desc>lat.=43.147682, lon.=19.276558, Alt.=1040.454102m. Speed=2.916000m/h.</desc>
<speed>0.810000</speed>
</trkpt>
<trkpt lat="43.147663" lon="19.276516">
<ele>1040.985352</ele>
<time>2012-05-01T09:50:49Z</time>
<desc>lat.=43.147663, lon.=19.276516, Alt.=1040.985352m. Speed=3.492000m/h.</desc>
<speed>0.970000</speed>
</trkpt>
<trkpt lat="43.147648" lon="19.276464">
<ele>1041.641602</ele>
<time>2012-05-01T09:50:54Z</time>
<desc>lat.=43.147648, lon.=19.276464, Alt.=1041.641602m. Speed=2.952000m/h.</desc>
<speed>0.820000</speed>
</trkpt>
<trkpt lat="43.147633" lon="19.276423">
<ele>1042.735352</ele>
<time>2012-05-01T09:50:59Z</time>
<desc>lat.=43.147633, lon.=19.276423, Alt.=1042.735352m. Speed=3.420000m/h.</desc>
<speed>0.950000</speed>
</trkpt>
<trkpt lat="43.147629" lon="19.276361">
<ele>1044.422852</ele>
<time>2012-05-01T09:51:04Z</time>
<desc>lat.=43.147629, lon.=19.276361, Alt.=1044.422852m. Speed=5.148000m/h.</desc>
<speed>1.430000</speed>
</trkpt>
<trkpt lat="43.147633" lon="19.276308">
<ele>1044.204102</ele>
<time>2012-05-01T09:51:09Z</time>
<desc>lat.=43.147633, lon.=19.276308, Alt.=1044.204102m. Speed=4.572000m/h.</desc>
<speed>1.270000</speed>
</trkpt>
<trkpt lat="43.147644" lon="19.276239">
<ele>1044.860352</ele>
<time>2012-05-01T09:51:14Z</time>
<desc>lat.=43.147644, lon.=19.276239, Alt.=1044.860352m. Speed=4.536000m/h.</desc>
<speed>1.260000</speed>
</trkpt>
<trkpt lat="43.147648" lon="19.276205">
<ele>1044.329102</ele>
<time>2012-05-01T09:51:19Z</time>
<desc>lat.=43.147648, lon.=19.276205, Alt.=1044.329102m. Speed=0.864000m/h.</desc>
<speed>0.240000</speed>
</trkpt>
<trkpt lat="43.147633" lon="19.276140">
<ele>1043.110352</ele>
<time>2012-05-01T09:51:24Z</time>
<desc>lat.=43.147633, lon.=19.276140, Alt.=1043.110352m. Speed=5.436000m/h.</desc>
<speed>1.510000</speed>
</trkpt>
<trkpt lat="43.147629" lon="19.276033">
<ele>1042.579102</ele>
<time>2012-05-01T09:51:29Z</time>
<desc>lat.=43.147629, lon.=19.276033, Alt.=1042.579102m. Speed=6.444000m/h.</desc>
<speed>1.790000</speed>
</trkpt>
<trkpt lat="43.147652" lon="19.275915">
<ele>1043.735352</ele>
<time>2012-05-01T09:51:34Z</time>
<desc>lat.=43.147652, lon.=19.275915, Alt.=1043.735352m. Speed=7.776000m/h.</desc>
<speed>2.160000</speed>
</trkpt>
<trkpt lat="43.147682" lon="19.275801">
<ele>1044.329102</ele>
<time>2012-05-01T09:51:39Z</time>
<desc>lat.=43.147682, lon.=19.275801, Alt.=1044.329102m. Speed=6.876000m/h.</desc>
<speed>1.910000</speed>
</trkpt>
<trkpt lat="43.147713" lon="19.275700">
<ele>1044.454102</ele>
<time>2012-05-01T09:51:44Z</time>
<desc>lat.=43.147713, lon.=19.275700, Alt.=1044.454102m. Speed=6.948000m/h.</desc>
<speed>1.930000</speed>
</trkpt>
<trkpt lat="43.147789" lon="19.275545">
<ele>1043.172852</ele>
<time>2012-05-01T09:51:49Z</time>
<desc>lat.=43.147789, lon.=19.275545, Alt.=1043.172852m. Speed=15.912000m/h.</desc>
<speed>4.420000</speed>
</trkpt>
<trkpt lat="43.147942" lon="19.275272">
<ele>1041.360352</ele>
<time>2012-05-01T09:51:54Z</time>
<desc>lat.=43.147942, lon.=19.275272, Alt.=1041.360352m. Speed=21.851999m/h.</desc>
<speed>6.070000</speed>
</trkpt>
<trkpt lat="43.148067" lon="19.275023">
<ele>1042.454102</ele>
<time>2012-05-01T09:51:59Z</time>
<desc>lat.=43.148067, lon.=19.275023, Alt.=1042.454102m. Speed=14.328000m/h.</desc>
<speed>3.980000</speed>
</trkpt>
<trkpt lat="43.148109" lon="19.274837">
<ele>1043.110352</ele>
<time>2012-05-01T09:52:04Z</time>
<desc>lat.=43.148109, lon.=19.274837, Alt.=1043.110352m. Speed=8.064000m/h.</desc>
<speed>2.240000</speed>
</trkpt>
<trkpt lat="43.148129" lon="19.274649">
<ele>1043.579102</ele>
<time>2012-05-01T09:52:09Z</time>
<desc>lat.=43.148129, lon.=19.274649, Alt.=1043.579102m. Speed=10.404000m/h.</desc>
<speed>2.890000</speed>
</trkpt>
<trkpt lat="43.148140" lon="19.274467">
<ele>1044.079102</ele>
<time>2012-05-01T09:52:14Z</time>
<desc>lat.=43.148140, lon.=19.274467, Alt.=1044.079102m. Speed=9.720000m/h.</desc>
<speed>2.700000</speed>
</trkpt>
<trkpt lat="43.148174" lon="19.274313">
<ele>1044.766602</ele>
<time>2012-05-01T09:52:19Z</time>
<desc>lat.=43.148174, lon.=19.274313, Alt.=1044.766602m. Speed=10.332000m/h.</desc>
<speed>2.870000</speed>
</trkpt>
<trkpt lat="43.148277" lon="19.274212">
<ele>1048.016602</ele>
<time>2012-05-01T09:52:24Z</time>
<desc>lat.=43.148277, lon.=19.274212, Alt.=1048.016602m. Speed=10.872000m/h.</desc>
<speed>3.020000</speed>
</trkpt>
<trkpt lat="43.148369" lon="19.274107">
<ele>1049.110352</ele>
<time>2012-05-01T09:52:29Z</time>
<desc>lat.=43.148369, lon.=19.274107, Alt.=1049.110352m. Speed=9.792000m/h.</desc>
<speed>2.720000</speed>
</trkpt>
<trkpt lat="43.148457" lon="19.273979">
<ele>1049.954102</ele>
<time>2012-05-01T09:52:34Z</time>
<desc>lat.=43.148457, lon.=19.273979, Alt.=1049.954102m. Speed=9.216000m/h.</desc>
<speed>2.560000</speed>
</trkpt>
<trkpt lat="43.148544" lon="19.273846">
<ele>1049.329102</ele>
<time>2012-05-01T09:52:39Z</time>
<desc>lat.=43.148544, lon.=19.273846, Alt.=1049.329102m. Speed=11.592000m/h.</desc>
<speed>3.220000</speed>
</trkpt>
<trkpt lat="43.148617" lon="19.273729">
<ele>1048.766602</ele>
<time>2012-05-01T09:52:44Z</time>
<desc>lat.=43.148617, lon.=19.273729, Alt.=1048.766602m. Speed=8.820000m/h.</desc>
<speed>2.450000</speed>
</trkpt>
<trkpt lat="43.148712" lon="19.273630">
<ele>1049.985352</ele>
<time>2012-05-01T09:52:49Z</time>
<desc>lat.=43.148712, lon.=19.273630, Alt.=1049.985352m. Speed=9.108000m/h.</desc>
<speed>2.530000</speed>
</trkpt>
<trkpt lat="43.148808" lon="19.273552">
<ele>1050.079102</ele>
<time>2012-05-01T09:52:54Z</time>
<desc>lat.=43.148808, lon.=19.273552, Alt.=1050.079102m. Speed=8.748000m/h.</desc>
<speed>2.430000</speed>
</trkpt>
<trkpt lat="43.148914" lon="19.273449">
<ele>1052.329102</ele>
<time>2012-05-01T09:52:59Z</time>
<desc>lat.=43.148914, lon.=19.273449, Alt.=1052.329102m. Speed=9.216000m/h.</desc>
<speed>2.560000</speed>
</trkpt>
<trkpt lat="43.148983" lon="19.273344">
<ele>1055.204102</ele>
<time>2012-05-01T09:53:04Z</time>
<desc>lat.=43.148983, lon.=19.273344, Alt.=1055.204102m. Speed=8.100000m/h.</desc>
<speed>2.250000</speed>
</trkpt>
<trkpt lat="43.149063" lon="19.273260">
<ele>1057.422852</ele>
<time>2012-05-01T09:53:09Z</time>
<desc>lat.=43.149063, lon.=19.273260, Alt.=1057.422852m. Speed=5.400000m/h.</desc>
<speed>1.500000</speed>
</trkpt>
<trkpt lat="43.149143" lon="19.273201">
<ele>1058.766602</ele>
<time>2012-05-01T09:53:14Z</time>
<desc>lat.=43.149143, lon.=19.273201, Alt.=1058.766602m. Speed=6.012000m/h.</desc>
<speed>1.670000</speed>
</trkpt>
<trkpt lat="43.149216" lon="19.273155">
<ele>1059.422852</ele>
<time>2012-05-01T09:53:19Z</time>
<desc>lat.=43.149216, lon.=19.273155, Alt.=1059.422852m. Speed=5.976000m/h.</desc>
<speed>1.660000</speed>
</trkpt>
<trkpt lat="43.149281" lon="19.273102">
<ele>1060.766602</ele>
<time>2012-05-01T09:53:24Z</time>
<desc>lat.=43.149281, lon.=19.273102, Alt.=1060.766602m. Speed=5.940000m/h.</desc>
<speed>1.650000</speed>
</trkpt>
<trkpt lat="43.149353" lon="19.273027">
<ele>1062.704102</ele>
<time>2012-05-01T09:53:29Z</time>
<desc>lat.=43.149353, lon.=19.273027, Alt.=1062.704102m. Speed=7.380000m/h.</desc>
<speed>2.050000</speed>
</trkpt>
<trkpt lat="43.149429" lon="19.272955">
<ele>1064.704102</ele>
<time>2012-05-01T09:53:34Z</time>
<desc>lat.=43.149429, lon.=19.272955, Alt.=1064.704102m. Speed=5.004000m/h.</desc>
<speed>1.390000</speed>
</trkpt>
<trkpt lat="43.149483" lon="19.272917">
<ele>1065.329102</ele>
<time>2012-05-01T09:53:39Z</time>
<desc>lat.=43.149483, lon.=19.272917, Alt.=1065.329102m. Speed=4.788000m/h.</desc>
<speed>1.330000</speed>
</trkpt>
<trkpt lat="43.149521" lon="19.272856">
<ele>1065.641602</ele>
<time>2012-05-01T09:53:44Z</time>
<desc>lat.=43.149521, lon.=19.272856, Alt.=1065.641602m. Speed=3.456000m/h.</desc>
<speed>0.960000</speed>
</trkpt>
<trkpt lat="43.149544" lon="19.272839">
<ele>1065.547852</ele>
<time>2012-05-01T09:53:49Z</time>
<desc>lat.=43.149544, lon.=19.272839, Alt.=1065.547852m. Speed=0.396000m/h.</desc>
<speed>0.110000</speed>
</trkpt>
<trkpt lat="43.149563" lon="19.272829">
<ele>1065.797852</ele>
<time>2012-05-01T09:53:54Z</time>
<desc>lat.=43.149563, lon.=19.272829, Alt.=1065.797852m. Speed=4.176000m/h.</desc>
<speed>1.160000</speed>
</trkpt>
<trkpt lat="43.149605" lon="19.272808">
<ele>1066.329102</ele>
<time>2012-05-01T09:53:59Z</time>
<desc>lat.=43.149605, lon.=19.272808, Alt.=1066.329102m. Speed=3.564000m/h.</desc>
<speed>0.990000</speed>
</trkpt>
<trkpt lat="43.149651" lon="19.272785">
<ele>1066.829102</ele>
<time>2012-05-01T09:54:04Z</time>
<desc>lat.=43.149651, lon.=19.272785, Alt.=1066.829102m. Speed=3.024000m/h.</desc>
<speed>0.840000</speed>
</trkpt>
<trkpt lat="43.149696" lon="19.272757">
<ele>1067.016602</ele>
<time>2012-05-01T09:54:09Z</time>
<desc>lat.=43.149696, lon.=19.272757, Alt.=1067.016602m. Speed=3.204000m/h.</desc>
<speed>0.890000</speed>
</trkpt>
<trkpt lat="43.149734" lon="19.272755">
<ele>1067.704102</ele>
<time>2012-05-01T09:54:14Z</time>
<desc>lat.=43.149734, lon.=19.272755, Alt.=1067.704102m. Speed=2.448000m/h.</desc>
<speed>0.680000</speed>
</trkpt>
<trkpt lat="43.149769" lon="19.272745">
<ele>1068.485352</ele>
<time>2012-05-01T09:54:19Z</time>
<desc>lat.=43.149769, lon.=19.272745, Alt.=1068.485352m. Speed=2.736000m/h.</desc>
<speed>0.760000</speed>
</trkpt>
<trkpt lat="43.149811" lon="19.272732">
<ele>1069.422852</ele>
<time>2012-05-01T09:54:24Z</time>
<desc>lat.=43.149811, lon.=19.272732, Alt.=1069.422852m. Speed=2.772000m/h.</desc>
<speed>0.770000</speed>
</trkpt>
<trkpt lat="43.149853" lon="19.272717">
<ele>1069.641602</ele>
<time>2012-05-01T09:54:29Z</time>
<desc>lat.=43.149853, lon.=19.272717, Alt.=1069.641602m. Speed=3.348000m/h.</desc>
<speed>0.930000</speed>
</trkpt>
<trkpt lat="43.149899" lon="19.272709">
<ele>1070.797852</ele>
<time>2012-05-01T09:54:34Z</time>
<desc>lat.=43.149899, lon.=19.272709, Alt.=1070.797852m. Speed=2.880000m/h.</desc>
<speed>0.800000</speed>
</trkpt>
<trkpt lat="43.149933" lon="19.272692">
<ele>1071.516602</ele>
<time>2012-05-01T09:54:39Z</time>
<desc>lat.=43.149933, lon.=19.272692, Alt.=1071.516602m. Speed=2.952000m/h.</desc>
<speed>0.820000</speed>
</trkpt>
<trkpt lat="43.149982" lon="19.272675">
<ele>1072.454102</ele>
<time>2012-05-01T09:54:44Z</time>
<desc>lat.=43.149982, lon.=19.272675, Alt.=1072.454102m. Speed=3.708000m/h.</desc>
<speed>1.030000</speed>
</trkpt>
<trkpt lat="43.150024" lon="19.272675">
<ele>1072.891602</ele>
<time>2012-05-01T09:54:49Z</time>
<desc>lat.=43.150024, lon.=19.272675, Alt.=1072.891602m. Speed=3.492000m/h.</desc>
<speed>0.970000</speed>
</trkpt>
<trkpt lat="43.150066" lon="19.272678">
<ele>1073.329102</ele>
<time>2012-05-01T09:54:54Z</time>
<desc>lat.=43.150066, lon.=19.272678, Alt.=1073.329102m. Speed=0.144000m/h.</desc>
<speed>0.040000</speed>
</trkpt>
<trkpt lat="43.150066" lon="19.272678">
<ele>1073.547852</ele>
<time>2012-05-01T09:54:59Z</time>
<desc>lat.=43.150066, lon.=19.272678, Alt.=1073.547852m. Speed=0.000000m/h.</desc>
<speed>0.000000</speed>
</trkpt>
<trkpt lat="43.150070" lon="19.272678">
<ele>1073.610352</ele>
<time>2012-05-01T09:55:04Z</time>
<desc>lat.=43.150070, lon.=19.272678, Alt.=1073.610352m. Speed=1.440000m/h.</desc>
<speed>0.400000</speed>
</trkpt>
<trkpt lat="43.150085" lon="19.272673">
<ele>1073.766602</ele>
<time>2012-05-01T09:55:09Z</time>
<desc>lat.=43.150085, lon.=19.272673, Alt.=1073.766602m. Speed=0.072000m/h.</desc>
<speed>0.020000</speed>
</trkpt>
<trkpt lat="43.150097" lon="19.272673">
<ele>1073.579102</ele>
<time>2012-05-01T09:55:14Z</time>
<desc>lat.=43.150097, lon.=19.272673, Alt.=1073.579102m. Speed=3.168000m/h.</desc>
<speed>0.880000</speed>
</trkpt>
<trkpt lat="43.150143" lon="19.272665">
<ele>1074.266602</ele>
<time>2012-05-01T09:55:19Z</time>
<desc>lat.=43.150143, lon.=19.272665, Alt.=1074.266602m. Speed=3.492000m/h.</desc>
<speed>0.970000</speed>
</trkpt>
<trkpt lat="43.150192" lon="19.272667">
<ele>1075.047852</ele>
<time>2012-05-01T09:55:24Z</time>
<desc>lat.=43.150192, lon.=19.272667, Alt.=1075.047852m. Speed=2.808000m/h.</desc>
<speed>0.780000</speed>
</trkpt>
<trkpt lat="43.150230" lon="19.272654">
<ele>1075.766602</ele>
<time>2012-05-01T09:55:29Z</time>
<desc>lat.=43.150230, lon.=19.272654, Alt.=1075.766602m. Speed=3.240000m/h.</desc>
<speed>0.900000</speed>
</trkpt>
<trkpt lat="43.150257" lon="19.272646">
<ele>1076.016602</ele>
<time>2012-05-01T09:55:34Z</time>
<desc>lat.=43.150257, lon.=19.272646, Alt.=1076.016602m. Speed=3.708000m/h.</desc>
<speed>1.030000</speed>
</trkpt>
<trkpt lat="43.150303" lon="19.272623">
<ele>1076.766602</ele>
<time>2012-05-01T09:55:39Z</time>
<desc>lat.=43.150303, lon.=19.272623, Alt.=1076.766602m. Speed=3.960000m/h.</desc>
<speed>1.100000</speed>
</trkpt>
<trkpt lat="43.150341" lon="19.272593">
<ele>1077.422852</ele>
<time>2012-05-01T09:55:44Z</time>
<desc>lat.=43.150341, lon.=19.272593, Alt.=1077.422852m. Speed=3.924000m/h.</desc>
<speed>1.090000</speed>
</trkpt>
<trkpt lat="43.150368" lon="19.272556">
<ele>1078.172852</ele>
<time>2012-05-01T09:55:49Z</time>
<desc>lat.=43.150368, lon.=19.272556, Alt.=1078.172852m. Speed=3.384000m/h.</desc>
<speed>0.940000</speed>
</trkpt>
<trkpt lat="43.150383" lon="19.272514">
<ele>1079.297852</ele>
<time>2012-05-01T09:55:54Z</time>
<desc>lat.=43.150383, lon.=19.272514, Alt.=1079.297852m. Speed=3.060000m/h.</desc>
<speed>0.850000</speed>
</trkpt>
<trkpt lat="43.150383" lon="19.272457">
<ele>1080.579102</ele>
<time>2012-05-01T09:55:59Z</time>
<desc>lat.=43.150383, lon.=19.272457, Alt.=1080.579102m. Speed=3.708000m/h.</desc>
<speed>1.030000</speed>
</trkpt>
<trkpt lat="43.150364" lon="19.272385">
<ele>1081.422852</ele>
<time>2012-05-01T09:56:04Z</time>
<desc>lat.=43.150364, lon.=19.272385, Alt.=1081.422852m. Speed=3.888000m/h.</desc>
<speed>1.080000</speed>
</trkpt>
<trkpt lat="43.150345" lon="19.272312">
<ele>1081.985352</ele>
<time>2012-05-01T09:56:09Z</time>
<desc>lat.=43.150345, lon.=19.272312, Alt.=1081.985352m. Speed=4.104000m/h.</desc>
<speed>1.140000</speed>
</trkpt>
<trkpt lat="43.150322" lon="19.272240">
<ele>1082.797852</ele>
<time>2012-05-01T09:56:14Z</time>
<desc>lat.=43.150322, lon.=19.272240, Alt.=1082.797852m. Speed=4.716000m/h.</desc>
<speed>1.310000</speed>
</trkpt>
<trkpt lat="43.150311" lon="19.272173">
<ele>1083.266602</ele>
<time>2012-05-01T09:56:19Z</time>
<desc>lat.=43.150311, lon.=19.272173, Alt.=1083.266602m. Speed=3.996000m/h.</desc>
<speed>1.110000</speed>
</trkpt>
<trkpt lat="43.150299" lon="19.272112">
<ele>1083.547852</ele>
<time>2012-05-01T09:56:24Z</time>
<desc>lat.=43.150299, lon.=19.272112, Alt.=1083.547852m. Speed=3.168000m/h.</desc>
<speed>0.880000</speed>
</trkpt>
<trkpt lat="43.150280" lon="19.272055">
<ele>1084.391602</ele>
<time>2012-05-01T09:56:29Z</time>
<desc>lat.=43.150280, lon.=19.272055, Alt.=1084.391602m. Speed=4.212000m/h.</desc>
<speed>1.170000</speed>
</trkpt>
<trkpt lat="43.150269" lon="19.271994">
<ele>1085.016602</ele>
<time>2012-05-01T09:56:34Z</time>
<desc>lat.=43.150269, lon.=19.271994, Alt.=1085.016602m. Speed=3.744000m/h.</desc>
<speed>1.040000</speed>
</trkpt>
<trkpt lat="43.150257" lon="19.271933">
<ele>1085.735352</ele>
<time>2012-05-01T09:56:39Z</time>
<desc>lat.=43.150257, lon.=19.271933, Alt.=1085.735352m. Speed=3.600000m/h.</desc>
<speed>1.000000</speed>
</trkpt>
<trkpt lat="43.150249" lon="19.271875">
<ele>1086.204102</ele>
<time>2012-05-01T09:56:44Z</time>
<desc>lat.=43.150249, lon.=19.271875, Alt.=1086.204102m. Speed=3.528000m/h.</desc>
<speed>0.980000</speed>
</trkpt>
<trkpt lat="43.150253" lon="19.271816">
<ele>1086.797852</ele>
<time>2012-05-01T09:56:49Z</time>
<desc>lat.=43.150253, lon.=19.271816, Alt.=1086.797852m. Speed=3.276000m/h.</desc>
<speed>0.910000</speed>
</trkpt>
<trkpt lat="43.150253" lon="19.271759">
<ele>1087.016602</ele>
<time>2012-05-01T09:56:54Z</time>
<desc>lat.=43.150253, lon.=19.271759, Alt.=1087.016602m. Speed=3.996000m/h.</desc>
<speed>1.110000</speed>
</trkpt>
<trkpt lat="43.150249" lon="19.271690">
<ele>1087.329102</ele>
<time>2012-05-01T09:56:59Z</time>
<desc>lat.=43.150249, lon.=19.271690, Alt.=1087.329102m. Speed=3.960000m/h.</desc>
<speed>1.100000</speed>
</trkpt>
<trkpt lat="43.150249" lon="19.271606">
<ele>1087.954102</ele>
<time>2012-05-01T09:57:04Z</time>
<desc>lat.=43.150249, lon.=19.271606, Alt.=1087.954102m. Speed=4.248000m/h.</desc>
<speed>1.180000</speed>
</trkpt>
<trkpt lat="43.150242" lon="19.271551">
<ele>1089.079102</ele>
<time>2012-05-01T09:57:09Z</time>
<desc>lat.=43.150242, lon.=19.271551, Alt.=1089.079102m. Speed=2.448000m/h.</desc>
<speed>0.680000</speed>
</trkpt>
<trkpt lat="43.150230" lon="19.271502">
<ele>1089.891602</ele>
<time>2012-05-01T09:57:14Z</time>
<desc>lat.=43.150230, lon.=19.271502, Alt.=1089.891602m. Speed=3.276000m/h.</desc>
<speed>0.910000</speed>
</trkpt>
<trkpt lat="43.150219" lon="19.271458">
<ele>1090.547852</ele>
<time>2012-05-01T09:57:19Z</time>
<desc>lat.=43.150219, lon.=19.271458, Alt.=1090.547852m. Speed=3.636000m/h.</desc>
<speed>1.010000</speed>
</trkpt>
<trkpt lat="43.150204" lon="19.271404">
<ele>1090.860352</ele>
<time>2012-05-01T09:57:24Z</time>
<desc>lat.=43.150204, lon.=19.271404, Alt.=1090.860352m. Speed=0.792000m/h.</desc>
<speed>0.220000</speed>
</trkpt>
<trkpt lat="43.150196" lon="19.271383">
<ele>1090.641602</ele>
<time>2012-05-01T09:57:29Z</time>
<desc>lat.=43.150196, lon.=19.271383, Alt.=1090.641602m. Speed=3.096000m/h.</desc>
<speed>0.860000</speed>
</trkpt>
<trkpt lat="43.150181" lon="19.271328">
<ele>1091.204102</ele>
<time>2012-05-01T09:57:34Z</time>
<desc>lat.=43.150181, lon.=19.271328, Alt.=1091.204102m. Speed=2.736000m/h.</desc>
<speed>0.760000</speed>
</trkpt>
<trkpt lat="43.150177" lon="19.271336">
<ele>1091.422852</ele>
<time>2012-05-01T09:57:39Z</time>
<desc>lat.=43.150177, lon.=19.271336, Alt.=1091.422852m. Speed=0.972000m/h.</desc>
<speed>0.270000</speed>
</trkpt>
<trkpt lat="43.150166" lon="19.271288">
<ele>1092.329102</ele>
<time>2012-05-01T09:57:44Z</time>
<desc>lat.=43.150166, lon.=19.271288, Alt.=1092.329102m. Speed=3.636000m/h.</desc>
<speed>1.010000</speed>
</trkpt>
<trkpt lat="43.150150" lon="19.271219">
<ele>1093.422852</ele>
<time>2012-05-01T09:57:49Z</time>
<desc>lat.=43.150150, lon.=19.271219, Alt.=1093.422852m. Speed=3.420000m/h.</desc>
<speed>0.950000</speed>
</trkpt>
<trkpt lat="43.150135" lon="19.271164">
<ele>1094.485352</ele>
<time>2012-05-01T09:57:54Z</time>
<desc>lat.=43.150135, lon.=19.271164, Alt.=1094.485352m. Speed=3.312000m/h.</desc>
<speed>0.920000</speed>
</trkpt>
<trkpt lat="43.150120" lon="19.271107">
<ele>1095.422852</ele>
<time>2012-05-01T09:57:59Z</time>
<desc>lat.=43.150120, lon.=19.271107, Alt.=1095.422852m. Speed=3.600000m/h.</desc>
<speed>1.000000</speed>
</trkpt>
<trkpt lat="43.150097" lon="19.271059">
<ele>1096.204102</ele>
<time>2012-05-01T09:58:04Z</time>
<desc>lat.=43.150097, lon.=19.271059, Alt.=1096.204102m. Speed=3.132000m/h.</desc>
<speed>0.870000</speed>
</trkpt>
<trkpt lat="43.150078" lon="19.271009">
<ele>1096.704102</ele>
<time>2012-05-01T09:58:09Z</time>
<desc>lat.=43.150078, lon.=19.271009, Alt.=1096.704102m. Speed=3.312000m/h.</desc>
<speed>0.920000</speed>
</trkpt>
<trkpt lat="43.150063" lon="19.270958">
<ele>1097.485352</ele>
<time>2012-05-01T09:58:14Z</time>
<desc>lat.=43.150063, lon.=19.270958, Alt.=1097.485352m. Speed=3.024000m/h.</desc>
<speed>0.840000</speed>
</trkpt>
<trkpt lat="43.150047" lon="19.270922">
<ele>1097.735352</ele>
<time>2012-05-01T09:58:19Z</time>
<desc>lat.=43.150047, lon.=19.270922, Alt.=1097.735352m. Speed=0.792000m/h.</desc>
<speed>0.220000</speed>
</trkpt>
<trkpt lat="43.150051" lon="19.270924">
<ele>1097.579102</ele>
<time>2012-05-01T09:58:24Z</time>
<desc>lat.=43.150051, lon.=19.270924, Alt.=1097.579102m. Speed=0.108000m/h.</desc>
<speed>0.030000</speed>
</trkpt>
<trkpt lat="43.150051" lon="19.270924">
<ele>1097.547852</ele>
<time>2012-05-01T09:58:29Z</time>
<desc>lat.=43.150051, lon.=19.270924, Alt.=1097.547852m. Speed=0.108000m/h.</desc>
<speed>0.030000</speed>
</trkpt>
<trkpt lat="43.150032" lon="19.270889">
<ele>1097.922852</ele>
<time>2012-05-01T09:58:34Z</time>
<desc>lat.=43.150032, lon.=19.270889, Alt.=1097.922852m. Speed=1.980000m/h.</desc>
<speed>0.550000</speed>
</trkpt>
<trkpt lat="43.150028" lon="19.270885">
<ele>1097.797852</ele>
<time>2012-05-01T09:58:39Z</time>
<desc>lat.=43.150028, lon.=19.270885, Alt.=1097.797852m. Speed=0.000000m/h.</desc>
<speed>0.000000</speed>
</trkpt>
<trkpt lat="43.150028" lon="19.270885">
<ele>1097.797852</ele>
<time>2012-05-01T09:58:44Z</time>
<desc>lat.=43.150028, lon.=19.270885, Alt.=1097.797852m. Speed=0.036000m/h.</desc>
<speed>0.010000</speed>
</trkpt>
<trkpt lat="43.150028" lon="19.270885">
<ele>1097.797852</ele>
<time>2012-05-01T09:58:49Z</time>
<desc>lat.=43.150028, lon.=19.270885, Alt.=1097.797852m. Speed=0.036000m/h.</desc>
<speed>0.010000</speed>
</trkpt>
<trkpt lat="43.150028" lon="19.270885">
<ele>1097.797852</ele>
<time>2012-05-01T09:58:54Z</time>
<desc>lat.=43.150028, lon.=19.270885, Alt.=1097.797852m. Speed=0.072000m/h.</desc>
<speed>0.020000</speed>
</trkpt>
<trkpt lat="43.150028" lon="19.270887">
<ele>1097.797852</ele>
<time>2012-05-01T09:58:59Z</time>
<desc>lat.=43.150028, lon.=19.270887, Alt.=1097.797852m. Speed=0.000000m/h.</desc>
<speed>0.000000</speed>
</trkpt>
<trkpt lat="43.150028" lon="19.270887">
<ele>1097.797852</ele>
<time>2012-05-01T09:59:04Z</time>
<desc>lat.=43.150028, lon.=19.270887, Alt.=1097.797852m. Speed=0.000000m/h.</desc>
<speed>0.000000</speed>
</trkpt>
<trkpt lat="43.150028" lon="19.270887">
<ele>1097.829102</ele>
<time>2012-05-01T09:59:09Z</time>
<desc>lat.=43.150028, lon.=19.270887, Alt.=1097.829102m. Speed=0.000000m/h.</desc>
<speed>0.000000</speed>
</trkpt>
<trkpt lat="43.150028" lon="19.270887">
<ele>1097.829102</ele>
<time>2012-05-01T09:59:14Z</time>
<desc>lat.=43.150028, lon.=19.270887, Alt.=1097.829102m. Speed=0.000000m/h.</desc>
<speed>0.000000</speed>
</trkpt>
<trkpt lat="43.150028" lon="19.270887">
<ele>1097.829102</ele>
<time>2012-05-01T09:59:19Z</time>
<desc>lat.=43.150028, lon.=19.270887, Alt.=1097.829102m. Speed=0.000000m/h.</desc>
<speed>0.000000</speed>
</trkpt>
<trkpt lat="43.150028" lon="19.270887">
<ele>1097.829102</ele>
<time>2012-05-01T09:59:24Z</time>
<desc>lat.=43.150028, lon.=19.270887, Alt.=1097.829102m. Speed=0.072000m/h.</desc>
<speed>0.020000</speed>
</trkpt>
<trkpt lat="43.150028" lon="19.270887">
<ele>1097.860352</ele>
<time>2012-05-01T09:59:29Z</time>
<desc>lat.=43.150028, lon.=19.270887, Alt.=1097.860352m. Speed=0.000000m/h.</desc>
<speed>0.000000</speed>
</trkpt>
<trkpt lat="43.150028" lon="19.270887">
<ele>1097.860352</ele>
<time>2012-05-01T09:59:34Z</time>
<desc>lat.=43.150028, lon.=19.270887, Alt.=1097.860352m. Speed=0.000000m/h.</desc>
<speed>0.000000</speed>
</trkpt>
<trkpt lat="43.150028" lon="19.270887">
<ele>1097.860352</ele>
<time>2012-05-01T09:59:39Z</time>
<desc>lat.=43.150028, lon.=19.270887, Alt.=1097.860352m. Speed=0.000000m/h.</desc>
<speed>0.000000</speed>
</trkpt>
<trkpt lat="43.150028" lon="19.270887">
<ele>1097.860352</ele>
<time>2012-05-01T09:59:44Z</time>
<desc>lat.=43.150028, lon.=19.270887, Alt.=1097.860352m. Speed=0.144000m/h.</desc>
<speed>0.040000</speed>
</trkpt>
<trkpt lat="43.150028" lon="19.270887">
<ele>1097.860352</ele>
<time>2012-05-01T09:59:49Z</time>
<desc>lat.=43.150028, lon.=19.270887, Alt.=1097.860352m. Speed=0.000000m/h.</desc>
<speed>0.000000</speed>
</trkpt>
<trkpt lat="43.150028" lon="19.270887">
<ele>1097.891602</ele>
<time>2012-05-01T09:59:54Z</time>
<desc>lat.=43.150028, lon.=19.270887, Alt.=1097.891602m. Speed=0.000000m/h.</desc>
<speed>0.000000</speed>
</trkpt>
<trkpt lat="43.150028" lon="19.270887">
<ele>1097.891602</ele>
<time>2012-05-01T09:59:59Z</time>
<desc>lat.=43.150028, lon.=19.270887, Alt.=1097.891602m. Speed=0.000000m/h.</desc>
<speed>0.000000</speed>
</trkpt>
<trkpt lat="43.150028" lon="19.270887">
<ele>1097.891602</ele>
<time>2012-05-01T10:00:04Z</time>
<desc>lat.=43.150028, lon.=19.270887, Alt.=1097.891602m. Speed=0.000000m/h.</desc>
<speed>0.000000</speed>
</trkpt>
<trkpt lat="43.150028" lon="19.270887">
<ele>1097.891602</ele>
<time>2012-05-01T10:00:09Z</time>
<desc>lat.=43.150028, lon.=19.270887, Alt.=1097.891602m. Speed=0.000000m/h.</desc>
<speed>0.000000</speed>
</trkpt>
<trkpt lat="43.150028" lon="19.270887">
<ele>1097.891602</ele>
<time>2012-05-01T10:00:14Z</time>
<desc>lat.=43.150028, lon.=19.270887, Alt.=1097.891602m. Speed=0.180000m/h.</desc>
<speed>0.050000</speed>
</trkpt>
<trkpt lat="43.150028" lon="19.270887">
<ele>1097.891602</ele>
<time>2012-05-01T10:00:19Z</time>
<desc>lat.=43.150028, lon.=19.270887, Alt.=1097.891602m. Speed=0.000000m/h.</desc>
<speed>0.000000</speed>
</trkpt>
<trkpt lat="43.150028" lon="19.270887">
<ele>1097.891602</ele>
<time>2012-05-01T10:00:24Z</time>
<desc>lat.=43.150028, lon.=19.270887, Alt.=1097.891602m. Speed=0.144000m/h.</desc>
<speed>0.040000</speed>
</trkpt>
<trkpt lat="43.150028" lon="19.270887">
<ele>1097.922852</ele>
<time>2012-05-01T10:00:29Z</time>
<desc>lat.=43.150028, lon.=19.270887, Alt.=1097.922852m. Speed=0.036000m/h.</desc>
<speed>0.010000</speed>
</trkpt>
<trkpt lat="43.150028" lon="19.270887">
<ele>1097.922852</ele>
<time>2012-05-01T10:00:34Z</time>
<desc>lat.=43.150028, lon.=19.270887, Alt.=1097.922852m. Speed=0.000000m/h.</desc>
<speed>0.000000</speed>
</trkpt>
<trkpt lat="43.150028" lon="19.270887">
<ele>1097.922852</ele>
<time>2012-05-01T10:00:39Z</time>
<desc>lat.=43.150028, lon.=19.270887, Alt.=1097.922852m. Speed=0.000000m/h.</desc>
<speed>0.000000</speed>
</trkpt>
<trkpt lat="43.150028" lon="19.270887">
<ele>1097.954102</ele>
<time>2012-05-01T10:00:44Z</time>
<desc>lat.=43.150028, lon.=19.270887, Alt.=1097.954102m. Speed=0.072000m/h.</desc>
<speed>0.020000</speed>
</trkpt>
<trkpt lat="43.150028" lon="19.270887">
<ele>1097.954102</ele>
<time>2012-05-01T10:00:49Z</time>
<desc>lat.=43.150028, lon.=19.270887, Alt.=1097.954102m. Speed=0.000000m/h.</desc>
<speed>0.000000</speed>
</trkpt>
<trkpt lat="43.150028" lon="19.270887">
<ele>1097.985352</ele>
<time>2012-05-01T10:00:54Z</time>
<desc>lat.=43.150028, lon.=19.270887, Alt.=1097.985352m. Speed=0.000000m/h.</desc>
<speed>0.000000</speed>
</trkpt>
<trkpt lat="43.150028" lon="19.270887">
<ele>1097.985352</ele>
<time>2012-05-01T10:00:59Z</time>
<desc>lat.=43.150028, lon.=19.270887, Alt.=1097.985352m. Speed=0.036000m/h.</desc>
<speed>0.010000</speed>
</trkpt>
<trkpt lat="43.150028" lon="19.270887">
<ele>1097.985352</ele>
<time>2012-05-01T10:01:04Z</time>
<desc>lat.=43.150028, lon.=19.270887, Alt.=1097.985352m. Speed=0.000000m/h.</desc>
<speed>0.000000</speed>
</trkpt>
<trkpt lat="43.150028" lon="19.270887">
<ele>1097.985352</ele>
<time>2012-05-01T10:01:09Z</time>
<desc>lat.=43.150028, lon.=19.270887, Alt.=1097.985352m. Speed=0.000000m/h.</desc>
<speed>0.000000</speed>
</trkpt>
<trkpt lat="43.150028" lon="19.270887">
<ele>1097.985352</ele>
<time>2012-05-01T10:01:14Z</time>
<desc>lat.=43.150028, lon.=19.270887, Alt.=1097.985352m. Speed=0.000000m/h.</desc>
<speed>0.000000</speed>
</trkpt>
<trkpt lat="43.150028" lon="19.270887">
<ele>1098.016602</ele>
<time>2012-05-01T10:01:19Z</time>
<desc>lat.=43.150028, lon.=19.270887, Alt.=1098.016602m. Speed=0.000000m/h.</desc>
<speed>0.000000</speed>
</trkpt>
<trkpt lat="43.150028" lon="19.270887">
<ele>1098.016602</ele>
<time>2012-05-01T10:01:24Z</time>
<desc>lat.=43.150028, lon.=19.270887, Alt.=1098.016602m. Speed=0.000000m/h.</desc>
<speed>0.000000</speed>
</trkpt>
<trkpt lat="43.150028" lon="19.270887">
<ele>1098.016602</ele>
<time>2012-05-01T10:01:29Z</time>
<desc>lat.=43.150028, lon.=19.270887, Alt.=1098.016602m. Speed=0.000000m/h.</desc>
<speed>0.000000</speed>
</trkpt>
<trkpt lat="43.150028" lon="19.270887">
<ele>1098.016602</ele>
<time>2012-05-01T10:01:34Z</time>
<desc>lat.=43.150028, lon.=19.270887, Alt.=1098.016602m. Speed=0.000000m/h.</desc>
<speed>0.000000</speed>
</trkpt>
<trkpt lat="43.150028" lon="19.270887">
<ele>1098.016602</ele>
<time>2012-05-01T10:01:39Z</time>
<desc>lat.=43.150028, lon.=19.270887, Alt.=1098.016602m. Speed=0.000000m/h.</desc>
<speed>0.000000</speed>
</trkpt>
<trkpt lat="43.150028" lon="19.270887">
<ele>1098.016602</ele>
<time>2012-05-01T10:01:44Z</time>
<desc>lat.=43.150028, lon.=19.270887, Alt.=1098.016602m. Speed=0.000000m/h.</desc>
<speed>0.000000</speed>
</trkpt>
<trkpt lat="43.150028" lon="19.270887">
<ele>1098.016602</ele>
<time>2012-05-01T10:01:49Z</time>
<desc>lat.=43.150028, lon.=19.270887, Alt.=1098.016602m. Speed=0.036000m/h.</desc>
<speed>0.010000</speed>
</trkpt>
<trkpt lat="43.150028" lon="19.270887">
<ele>1098.016602</ele>
<time>2012-05-01T10:01:54Z</time>
<desc>lat.=43.150028, lon.=19.270887, Alt.=1098.016602m. Speed=0.000000m/h.</desc>
<speed>0.000000</speed>
</trkpt>
<trkpt lat="43.150028" lon="19.270887">
<ele>1098.016602</ele>
<time>2012-05-01T10:01:59Z</time>
<desc>lat.=43.150028, lon.=19.270887, Alt.=1098.016602m. Speed=0.000000m/h.</desc>
<speed>0.000000</speed>
</trkpt>
<trkpt lat="43.150028" lon="19.270887">
<ele>1098.016602</ele>
<time>2012-05-01T10:02:04Z</time>
<desc>lat.=43.150028, lon.=19.270887, Alt.=1098.016602m. Speed=0.000000m/h.</desc>
<speed>0.000000</speed>
</trkpt>
<trkpt lat="43.150028" lon="19.270887">
<ele>1098.016602</ele>
<time>2012-05-01T10:02:09Z</time>
<desc>lat.=43.150028, lon.=19.270887, Alt.=1098.016602m. Speed=0.000000m/h.</desc>
<speed>0.000000</speed>
</trkpt>
<trkpt lat="43.150028" lon="19.270887">
<ele>1098.016602</ele>
<time>2012-05-01T10:02:14Z</time>
<desc>lat.=43.150028, lon.=19.270887, Alt.=1098.016602m. Speed=0.036000m/h.</desc>
<speed>0.010000</speed>
</trkpt>
<trkpt lat="43.150028" lon="19.270887">
<ele>1098.016602</ele>
<time>2012-05-01T10:02:19Z</time>
<desc>lat.=43.150028, lon.=19.270887, Alt.=1098.016602m. Speed=0.000000m/h.</desc>
<speed>0.000000</speed>
</trkpt>
<trkpt lat="43.150028" lon="19.270887">
<ele>1098.016602</ele>
<time>2012-05-01T10:02:24Z</time>
<desc>lat.=43.150028, lon.=19.270887, Alt.=1098.016602m. Speed=0.000000m/h.</desc>
<speed>0.000000</speed>
</trkpt>
<trkpt lat="43.150028" lon="19.270887">
<ele>1098.016602</ele>
<time>2012-05-01T10:02:29Z</time>
<desc>lat.=43.150028, lon.=19.270887, Alt.=1098.016602m. Speed=0.072000m/h.</desc>
<speed>0.020000</speed>
</trkpt>
<trkpt lat="43.150028" lon="19.270887">
<ele>1098.016602</ele>
<time>2012-05-01T10:02:34Z</time>
<desc>lat.=43.150028, lon.=19.270887, Alt.=1098.016602m. Speed=0.000000m/h.</desc>
<speed>0.000000</speed>
</trkpt>
<trkpt lat="43.150028" lon="19.270887">
<ele>1098.016602</ele>
<time>2012-05-01T10:02:39Z</time>
<desc>lat.=43.150028, lon.=19.270887, Alt.=1098.016602m. Speed=0.000000m/h.</desc>
<speed>0.000000</speed>
</trkpt>
<trkpt lat="43.150028" lon="19.270887">
<ele>1098.016602</ele>
<time>2012-05-01T10:02:44Z</time>
<desc>lat.=43.150028, lon.=19.270887, Alt.=1098.016602m. Speed=1.224000m/h.</desc>
<speed>0.340000</speed>
</trkpt>
<trkpt lat="43.150009" lon="19.270826">
<ele>1098.829102</ele>
<time>2012-05-01T10:02:49Z</time>
<desc>lat.=43.150009, lon.=19.270826, Alt.=1098.829102m. Speed=3.924000m/h.</desc>
<speed>1.090000</speed>
</trkpt>
<trkpt lat="43.149986" lon="19.270746">
<ele>1099.797852</ele>
<time>2012-05-01T10:02:54Z</time>
<desc>lat.=43.149986, lon.=19.270746, Alt.=1099.797852m. Speed=4.536000m/h.</desc>
<speed>1.260000</speed>
</trkpt>
<trkpt lat="43.149960" lon="19.270687">
<ele>1100.485352</ele>
<time>2012-05-01T10:02:59Z</time>
<desc>lat.=43.149960, lon.=19.270687, Alt.=1100.485352m. Speed=3.708000m/h.</desc>
<speed>1.030000</speed>
</trkpt>
<trkpt lat="43.149933" lon="19.270628">
<ele>1101.110352</ele>
<time>2012-05-01T10:03:04Z</time>
<desc>lat.=43.149933, lon.=19.270628, Alt.=1101.110352m. Speed=3.384000m/h.</desc>
<speed>0.940000</speed>
</trkpt>
<trkpt lat="43.149899" lon="19.270578">
<ele>1101.860352</ele>
<time>2012-05-01T10:03:09Z</time>
<desc>lat.=43.149899, lon.=19.270578, Alt.=1101.860352m. Speed=3.708000m/h.</desc>
<speed>1.030000</speed>
</trkpt>
<trkpt lat="43.149864" lon="19.270529">
<ele>1102.797852</ele>
<time>2012-05-01T10:03:14Z</time>
<desc>lat.=43.149864, lon.=19.270529, Alt.=1102.797852m. Speed=3.168000m/h.</desc>
<speed>0.880000</speed>
</trkpt>
<trkpt lat="43.149830" lon="19.270487">
<ele>1103.891602</ele>
<time>2012-05-01T10:03:19Z</time>
<desc>lat.=43.149830, lon.=19.270487, Alt.=1103.891602m. Speed=3.240000m/h.</desc>
<speed>0.900000</speed>
</trkpt>
<trkpt lat="43.149799" lon="19.270451">
<ele>1104.954102</ele>
<time>2012-05-01T10:03:24Z</time>
<desc>lat.=43.149799, lon.=19.270451, Alt.=1104.954102m. Speed=3.060000m/h.</desc>
<speed>0.850000</speed>
</trkpt>
<trkpt lat="43.149773" lon="19.270412">
<ele>1105.579102</ele>
<time>2012-05-01T10:03:29Z</time>
<desc>lat.=43.149773, lon.=19.270412, Alt.=1105.579102m. Speed=2.844000m/h.</desc>
<speed>0.790000</speed>
</trkpt>
<trkpt lat="43.149746" lon="19.270382">
<ele>1105.954102</ele>
<time>2012-05-01T10:03:34Z</time>
<desc>lat.=43.149746, lon.=19.270382, Alt.=1105.954102m. Speed=2.988000m/h.</desc>
<speed>0.830000</speed>
</trkpt>
<trkpt lat="43.149746" lon="19.270374">
<ele>1106.329102</ele>
<time>2012-05-01T10:03:39Z</time>
<desc>lat.=43.149746, lon.=19.270374, Alt.=1106.329102m. Speed=0.936000m/h.</desc>
<speed>0.260000</speed>
</trkpt>
<trkpt lat="43.149746" lon="19.270325">
<ele>1107.016602</ele>
<time>2012-05-01T10:03:44Z</time>
<desc>lat.=43.149746, lon.=19.270325, Alt.=1107.016602m. Speed=3.204000m/h.</desc>
<speed>0.890000</speed>
</trkpt>
<trkpt lat="43.149773" lon="19.270283">
<ele>1107.454102</ele>
<time>2012-05-01T10:03:49Z</time>
<desc>lat.=43.149773, lon.=19.270283, Alt.=1107.454102m. Speed=3.060000m/h.</desc>
<speed>0.850000</speed>
</trkpt>
<trkpt lat="43.149799" lon="19.270267">
<ele>1107.766602</ele>
<time>2012-05-01T10:03:54Z</time>
<desc>lat.=43.149799, lon.=19.270267, Alt.=1107.766602m. Speed=1.908000m/h.</desc>
<speed>0.530000</speed>
</trkpt>
<trkpt lat="43.149841" lon="19.270260">
<ele>1108.766602</ele>
<time>2012-05-01T10:03:59Z</time>
<desc>lat.=43.149841, lon.=19.270260, Alt.=1108.766602m. Speed=3.672000m/h.</desc>
<speed>1.020000</speed>
</trkpt>
<trkpt lat="43.149868" lon="19.270239">
<ele>1109.360352</ele>
<time>2012-05-01T10:04:04Z</time>
<desc>lat.=43.149868, lon.=19.270239, Alt.=1109.360352m. Speed=1.044000m/h.</desc>
<speed>0.290000</speed>
</trkpt>
<trkpt lat="43.149895" lon="19.270229">
<ele>1110.360352</ele>
<time>2012-05-01T10:04:09Z</time>
<desc>lat.=43.149895, lon.=19.270229, Alt.=1110.360352m. Speed=2.556000m/h.</desc>
<speed>0.710000</speed>
</trkpt>
<trkpt lat="43.149937" lon="19.270197">
<ele>1110.516602</ele>
<time>2012-05-01T10:04:14Z</time>
<desc>lat.=43.149937, lon.=19.270197, Alt.=1110.516602m. Speed=3.492000m/h.</desc>
<speed>0.970000</speed>
</trkpt>
<trkpt lat="43.149967" lon="19.270155">
<ele>1111.641602</ele>
<time>2012-05-01T10:04:19Z</time>
<desc>lat.=43.149967, lon.=19.270155, Alt.=1111.641602m. Speed=3.204000m/h.</desc>
<speed>0.890000</speed>
</trkpt>
<trkpt lat="43.149994" lon="19.270103">
<ele>1112.610352</ele>
<time>2012-05-01T10:04:24Z</time>
<desc>lat.=43.149994, lon.=19.270103, Alt.=1112.610352m. Speed=4.572000m/h.</desc>
<speed>1.270000</speed>
</trkpt>
<trkpt lat="43.150013" lon="19.270039">
<ele>1113.266602</ele>
<time>2012-05-01T10:04:29Z</time>
<desc>lat.=43.150013, lon.=19.270039, Alt.=1113.266602m. Speed=3.960000m/h.</desc>
<speed>1.100000</speed>
</trkpt>
<trkpt lat="43.150028" lon="19.269983">
<ele>1113.922852</ele>
<time>2012-05-01T10:04:34Z</time>
<desc>lat.=43.150028, lon.=19.269983, Alt.=1113.922852m. Speed=3.996000m/h.</desc>
<speed>1.110000</speed>
</trkpt>
<trkpt lat="43.150047" lon="19.269926">
<ele>1115.172852</ele>
<time>2012-05-01T10:04:39Z</time>
<desc>lat.=43.150047, lon.=19.269926, Alt.=1115.172852m. Speed=2.592000m/h.</desc>
<speed>0.720000</speed>
</trkpt>
<trkpt lat="43.150059" lon="19.269888">
<ele>1116.454102</ele>
<time>2012-05-01T10:04:44Z</time>
<desc>lat.=43.150059, lon.=19.269888, Alt.=1116.454102m. Speed=2.844000m/h.</desc>
<speed>0.790000</speed>
</trkpt>
<trkpt lat="43.150085" lon="19.269859">
<ele>1117.641602</ele>
<time>2012-05-01T10:04:49Z</time>
<desc>lat.=43.150085, lon.=19.269859, Alt.=1117.641602m. Speed=2.556000m/h.</desc>
<speed>0.710000</speed>
</trkpt>
<trkpt lat="43.150120" lon="19.269829">
<ele>1118.016602</ele>
<time>2012-05-01T10:04:54Z</time>
<desc>lat.=43.150120, lon.=19.269829, Alt.=1118.016602m. Speed=3.276000m/h.</desc>
<speed>0.910000</speed>
</trkpt>
<trkpt lat="43.150120" lon="19.269842">
<ele>1122.204102</ele>
<time>2012-05-01T10:04:59Z</time>
<desc>lat.=43.150120, lon.=19.269842, Alt.=1122.204102m. Speed=1.224000m/h.</desc>
<speed>0.340000</speed>
</trkpt>
<trkpt lat="43.150158" lon="19.269815">
<ele>1122.735352</ele>
<time>2012-05-01T10:05:04Z</time>
<desc>lat.=43.150158, lon.=19.269815, Alt.=1122.735352m. Speed=2.484000m/h.</desc>
<speed>0.690000</speed>
</trkpt>
<trkpt lat="43.150200" lon="19.269785">
<ele>1123.641602</ele>
<time>2012-05-01T10:05:09Z</time>
<desc>lat.=43.150200, lon.=19.269785, Alt.=1123.641602m. Speed=3.672000m/h.</desc>
<speed>1.020000</speed>
</trkpt>
<trkpt lat="43.150238" lon="19.269743">
<ele>1124.172852</ele>
<time>2012-05-01T10:05:14Z</time>
<desc>lat.=43.150238, lon.=19.269743, Alt.=1124.172852m. Speed=3.384000m/h.</desc>
<speed>0.940000</speed>
</trkpt>
<trkpt lat="43.150265" lon="19.269697">
<ele>1124.579102</ele>
<time>2012-05-01T10:05:19Z</time>
<desc>lat.=43.150265, lon.=19.269697, Alt.=1124.579102m. Speed=3.564000m/h.</desc>
<speed>0.990000</speed>
</trkpt>
<trkpt lat="43.150291" lon="19.269646">
<ele>1124.985352</ele>
<time>2012-05-01T10:05:24Z</time>
<desc>lat.=43.150291, lon.=19.269646, Alt.=1124.985352m. Speed=3.636000m/h.</desc>
<speed>1.010000</speed>
</trkpt>
<trkpt lat="43.150307" lon="19.269598">
<ele>1125.610352</ele>
<time>2012-05-01T10:05:29Z</time>
<desc>lat.=43.150307, lon.=19.269598, Alt.=1125.610352m. Speed=3.636000m/h.</desc>
<speed>1.010000</speed>
</trkpt>
<trkpt lat="43.150330" lon="19.269522">
<ele>1125.016602</ele>
<time>2012-05-01T10:05:34Z</time>
<desc>lat.=43.150330, lon.=19.269522, Alt.=1125.016602m. Speed=2.952000m/h.</desc>
<speed>0.820000</speed>
</trkpt>
<trkpt lat="43.150345" lon="19.269470">
<ele>1125.079102</ele>
<time>2012-05-01T10:05:39Z</time>
<desc>lat.=43.150345, lon.=19.269470, Alt.=1125.079102m. Speed=2.700000m/h.</desc>
<speed>0.750000</speed>
</trkpt>
<trkpt lat="43.150349" lon="19.269417">
<ele>1125.610352</ele>
<time>2012-05-01T10:05:44Z</time>
<desc>lat.=43.150349, lon.=19.269417, Alt.=1125.610352m. Speed=3.420000m/h.</desc>
<speed>0.950000</speed>
</trkpt>
<trkpt lat="43.150352" lon="19.269363">
<ele>1126.110352</ele>
<time>2012-05-01T10:05:49Z</time>
<desc>lat.=43.150352, lon.=19.269363, Alt.=1126.110352m. Speed=3.204000m/h.</desc>
<speed>0.890000</speed>
</trkpt>
<trkpt lat="43.150352" lon="19.269316">
<ele>1125.922852</ele>
<time>2012-05-01T10:05:54Z</time>
<desc>lat.=43.150352, lon.=19.269316, Alt.=1125.922852m. Speed=2.304000m/h.</desc>
<speed>0.640000</speed>
</trkpt>
<trkpt lat="43.150349" lon="19.269299">
<ele>1125.985352</ele>
<time>2012-05-01T10:05:59Z</time>
<desc>lat.=43.150349, lon.=19.269299, Alt.=1125.985352m. Speed=0.000000m/h.</desc>
<speed>0.000000</speed>
</trkpt>
<trkpt lat="43.150349" lon="19.269299">
<ele>1126.172852</ele>
<time>2012-05-01T10:06:04Z</time>
<desc>lat.=43.150349, lon.=19.269299, Alt.=1126.172852m. Speed=0.036000m/h.</desc>
<speed>0.010000</speed>
</trkpt>
<trkpt lat="43.150345" lon="19.269314">
<ele>1126.391602</ele>
<time>2012-05-01T10:06:09Z</time>
<desc>lat.=43.150345, lon.=19.269314, Alt.=1126.391602m. Speed=0.072000m/h.</desc>
<speed>0.020000</speed>
</trkpt>
<trkpt lat="43.150345" lon="19.269314">
<ele>1126.360352</ele>
<time>2012-05-01T10:06:14Z</time>
<desc>lat.=43.150345, lon.=19.269314, Alt.=1126.360352m. Speed=0.720000m/h.</desc>
<speed>0.200000</speed>
</trkpt>
<trkpt lat="43.150345" lon="19.269310">
<ele>1126.391602</ele>
<time>2012-05-01T10:06:19Z</time>
<desc>lat.=43.150345, lon.=19.269310, Alt.=1126.391602m. Speed=0.036000m/h.</desc>
<speed>0.010000</speed>
</trkpt>
<trkpt lat="43.150345" lon="19.269310">
<ele>1126.454102</ele>
<time>2012-05-01T10:06:24Z</time>
<desc>lat.=43.150345, lon.=19.269310, Alt.=1126.454102m. Speed=0.540000m/h.</desc>
<speed>0.150000</speed>
</trkpt>
<trkpt lat="43.150341" lon="19.269283">
<ele>1126.516602</ele>
<time>2012-05-01T10:06:29Z</time>
<desc>lat.=43.150341, lon.=19.269283, Alt.=1126.516602m. Speed=1.728000m/h.</desc>
<speed>0.480000</speed>
</trkpt>
<trkpt lat="43.150337" lon="19.269213">
<ele>1126.704102</ele>
<time>2012-05-01T10:06:34Z</time>
<desc>lat.=43.150337, lon.=19.269213, Alt.=1126.704102m. Speed=5.832000m/h.</desc>
<speed>1.620000</speed>
</trkpt>
<trkpt lat="43.150337" lon="19.269112">
<ele>1127.704102</ele>
<time>2012-05-01T10:06:39Z</time>
<desc>lat.=43.150337, lon.=19.269112, Alt.=1127.704102m. Speed=4.356000m/h.</desc>
<speed>1.210000</speed>
</trkpt>
<trkpt lat="43.150349" lon="19.269026">
<ele>1127.766602</ele>
<time>2012-05-01T10:06:44Z</time>
<desc>lat.=43.150349, lon.=19.269026, Alt.=1127.766602m. Speed=4.212000m/h.</desc>
<speed>1.170000</speed>
</trkpt>
<trkpt lat="43.150360" lon="19.268957">
<ele>1128.641602</ele>
<time>2012-05-01T10:06:49Z</time>
<desc>lat.=43.150360, lon.=19.268957, Alt.=1128.641602m. Speed=3.924000m/h.</desc>
<speed>1.090000</speed>
</trkpt>
<trkpt lat="43.150375" lon="19.268892">
<ele>1129.360352</ele>
<time>2012-05-01T10:06:54Z</time>
<desc>lat.=43.150375, lon.=19.268892, Alt.=1129.360352m. Speed=4.212000m/h.</desc>
<speed>1.170000</speed>
</trkpt>
<trkpt lat="43.150383" lon="19.268820">
<ele>1130.266602</ele>
<time>2012-05-01T10:06:59Z</time>
<desc>lat.=43.150383, lon.=19.268820, Alt.=1130.266602m. Speed=4.680000m/h.</desc>
<speed>1.300000</speed>
</trkpt>
<trkpt lat="43.150394" lon="19.268755">
<ele>1131.704102</ele>
<time>2012-05-01T10:07:04Z</time>
<desc>lat.=43.150394, lon.=19.268755, Alt.=1131.704102m. Speed=3.852000m/h.</desc>
<speed>1.070000</speed>
</trkpt>
<trkpt lat="43.150410" lon="19.268688">
<ele>1132.891602</ele>
<time>2012-05-01T10:07:09Z</time>
<desc>lat.=43.150410, lon.=19.268688, Alt.=1132.891602m. Speed=4.068000m/h.</desc>
<speed>1.130000</speed>
</trkpt>
<trkpt lat="43.150417" lon="19.268612">
<ele>1132.922852</ele>
<time>2012-05-01T10:07:14Z</time>
<desc>lat.=43.150417, lon.=19.268612, Alt.=1132.922852m. Speed=4.752000m/h.</desc>
<speed>1.320000</speed>
</trkpt>
<trkpt lat="43.150425" lon="19.268547">
<ele>1133.735352</ele>
<time>2012-05-01T10:07:19Z</time>
<desc>lat.=43.150425, lon.=19.268547, Alt.=1133.735352m. Speed=3.672000m/h.</desc>
<speed>1.020000</speed>
</trkpt>
<trkpt lat="43.150421" lon="19.268496">
<ele>1135.766602</ele>
<time>2012-05-01T10:07:24Z</time>
<desc>lat.=43.150421, lon.=19.268496, Alt.=1135.766602m. Speed=3.384000m/h.</desc>
<speed>0.940000</speed>
</trkpt>
<trkpt lat="43.150417" lon="19.268454">
<ele>1136.610352</ele>
<time>2012-05-01T10:07:29Z</time>
<desc>lat.=43.150417, lon.=19.268454, Alt.=1136.610352m. Speed=1.296000m/h.</desc>
<speed>0.360000</speed>
</trkpt>
<trkpt lat="43.150410" lon="19.268415">
<ele>1137.766602</ele>
<time>2012-05-01T10:07:34Z</time>
<desc>lat.=43.150410, lon.=19.268415, Alt.=1137.766602m. Speed=4.572000m/h.</desc>
<speed>1.270000</speed>
</trkpt>
<trkpt lat="43.150417" lon="19.268360">
<ele>1138.391602</ele>
<time>2012-05-01T10:07:39Z</time>
<desc>lat.=43.150417, lon.=19.268360, Alt.=1138.391602m. Speed=6.480000m/h.</desc>
<speed>1.800000</speed>
</trkpt>
<trkpt lat="43.150436" lon="19.268312">
<ele>1139.391602</ele>
<time>2012-05-01T10:07:44Z</time>
<desc>lat.=43.150436, lon.=19.268312, Alt.=1139.391602m. Speed=2.844000m/h.</desc>
<speed>0.790000</speed>
</trkpt>
<trkpt lat="43.150444" lon="19.268259">
<ele>1140.266602</ele>
<time>2012-05-01T10:07:49Z</time>
<desc>lat.=43.150444, lon.=19.268259, Alt.=1140.266602m. Speed=2.196000m/h.</desc>
<speed>0.610000</speed>
</trkpt>
<trkpt lat="43.150459" lon="19.268204">
<ele>1141.266602</ele>
<time>2012-05-01T10:07:54Z</time>
<desc>lat.=43.150459, lon.=19.268204, Alt.=1141.266602m. Speed=2.808000m/h.</desc>
<speed>0.780000</speed>
</trkpt>
<trkpt lat="43.150455" lon="19.268164">
<ele>1142.172852</ele>
<time>2012-05-01T10:07:59Z</time>
<desc>lat.=43.150455, lon.=19.268164, Alt.=1142.172852m. Speed=2.880000m/h.</desc>
<speed>0.800000</speed>
</trkpt>
<trkpt lat="43.150455" lon="19.268122">
<ele>1142.704102</ele>
<time>2012-05-01T10:08:04Z</time>
<desc>lat.=43.150455, lon.=19.268122, Alt.=1142.704102m. Speed=2.628000m/h.</desc>
<speed>0.730000</speed>
</trkpt>
<trkpt lat="43.150471" lon="19.268063">
<ele>1143.329102</ele>
<time>2012-05-01T10:08:09Z</time>
<desc>lat.=43.150471, lon.=19.268063, Alt.=1143.329102m. Speed=2.700000m/h.</desc>
<speed>0.750000</speed>
</trkpt>
<trkpt lat="43.150482" lon="19.268021">
<ele>1144.391602</ele>
<time>2012-05-01T10:08:14Z</time>
<desc>lat.=43.150482, lon.=19.268021, Alt.=1144.391602m. Speed=2.592000m/h.</desc>
<speed>0.720000</speed>
</trkpt>
<trkpt lat="43.150471" lon="19.267977">
<ele>1145.422852</ele>
<time>2012-05-01T10:08:19Z</time>
<desc>lat.=43.150471, lon.=19.267977, Alt.=1145.422852m. Speed=3.456000m/h.</desc>
<speed>0.960000</speed>
</trkpt>
<trkpt lat="43.150471" lon="19.267923">
<ele>1146.766602</ele>
<time>2012-05-01T10:08:24Z</time>
<desc>lat.=43.150471, lon.=19.267923, Alt.=1146.766602m. Speed=2.556000m/h.</desc>
<speed>0.710000</speed>
</trkpt>
<trkpt lat="43.150467" lon="19.267879">
<ele>1147.829102</ele>
<time>2012-05-01T10:08:29Z</time>
<desc>lat.=43.150467, lon.=19.267879, Alt.=1147.829102m. Speed=3.276000m/h.</desc>
<speed>0.910000</speed>
</trkpt>
<trkpt lat="43.150475" lon="19.267824">
<ele>1148.672852</ele>
<time>2012-05-01T10:08:34Z</time>
<desc>lat.=43.150475, lon.=19.267824, Alt.=1148.672852m. Speed=2.952000m/h.</desc>
<speed>0.820000</speed>
</trkpt>
<trkpt lat="43.150482" lon="19.267756">
<ele>1149.329102</ele>
<time>2012-05-01T10:08:39Z</time>
<desc>lat.=43.150482, lon.=19.267756, Alt.=1149.329102m. Speed=3.708000m/h.</desc>
<speed>1.030000</speed>
</trkpt>
<trkpt lat="43.150482" lon="19.267700">
<ele>1149.797852</ele>
<time>2012-05-01T10:08:44Z</time>
<desc>lat.=43.150482, lon.=19.267700, Alt.=1149.797852m. Speed=3.420000m/h.</desc>
<speed>0.950000</speed>
</trkpt>
<trkpt lat="43.150467" lon="19.267643">
<ele>1149.735352</ele>
<time>2012-05-01T10:08:49Z</time>
<desc>lat.=43.150467, lon.=19.267643, Alt.=1149.735352m. Speed=3.132000m/h.</desc>
<speed>0.870000</speed>
</trkpt>
<trkpt lat="43.150444" lon="19.267635">
<ele>1150.110352</ele>
<time>2012-05-01T10:08:54Z</time>
<desc>lat.=43.150444, lon.=19.267635, Alt.=1150.110352m. Speed=3.708000m/h.</desc>
<speed>1.030000</speed>
</trkpt>
<trkpt lat="43.150391" lon="19.267714">
<ele>1151.516602</ele>
<time>2012-05-01T10:08:59Z</time>
<desc>lat.=43.150391, lon.=19.267714, Alt.=1151.516602m. Speed=7.920000m/h.</desc>
<speed>2.200000</speed>
</trkpt>
<trkpt lat="43.150349" lon="19.267828">
<ele>1153.641602</ele>
<time>2012-05-01T10:09:04Z</time>
<desc>lat.=43.150349, lon.=19.267828, Alt.=1153.641602m. Speed=8.064000m/h.</desc>
<speed>2.240000</speed>
</trkpt>
<trkpt lat="43.150291" lon="19.267965">
<ele>1156.110352</ele>
<time>2012-05-01T10:09:09Z</time>
<desc>lat.=43.150291, lon.=19.267965, Alt.=1156.110352m. Speed=9.792000m/h.</desc>
<speed>2.720000</speed>
</trkpt>
<trkpt lat="43.150234" lon="19.268106">
<ele>1156.704102</ele>
<time>2012-05-01T10:09:14Z</time>
<desc>lat.=43.150234, lon.=19.268106, Alt.=1156.704102m. Speed=9.036000m/h.</desc>
<speed>2.510000</speed>
</trkpt>
<trkpt lat="43.150166" lon="19.268229">
<ele>1159.329102</ele>
<time>2012-05-01T10:09:19Z</time>
<desc>lat.=43.150166, lon.=19.268229, Alt.=1159.329102m. Speed=10.656000m/h.</desc>
<speed>2.960000</speed>
</trkpt>
<trkpt lat="43.150097" lon="19.268358">
<ele>1162.016602</ele>
<time>2012-05-01T10:09:24Z</time>
<desc>lat.=43.150097, lon.=19.268358, Alt.=1162.016602m. Speed=9.864000m/h.</desc>
<speed>2.740000</speed>
</trkpt>
<trkpt lat="43.150021" lon="19.268490">
<ele>1162.922852</ele>
<time>2012-05-01T10:09:29Z</time>
<desc>lat.=43.150021, lon.=19.268490, Alt.=1162.922852m. Speed=11.268000m/h.</desc>
<speed>3.130000</speed>
</trkpt>
<trkpt lat="43.149937" lon="19.268600">
<ele>1163.141602</ele>
<time>2012-05-01T10:09:34Z</time>
<desc>lat.=43.149937, lon.=19.268600, Alt.=1163.141602m. Speed=8.532000m/h.</desc>
<speed>2.370000</speed>
</trkpt>
<trkpt lat="43.149853" lon="19.268719">
<ele>1164.016602</ele>
<time>2012-05-01T10:09:39Z</time>
<desc>lat.=43.149853, lon.=19.268719, Alt.=1164.016602m. Speed=9.936000m/h.</desc>
<speed>2.760000</speed>
</trkpt>
<trkpt lat="43.149750" lon="19.268829">
<ele>1165.204102</ele>
<time>2012-05-01T10:09:44Z</time>
<desc>lat.=43.149750, lon.=19.268829, Alt.=1165.204102m. Speed=10.296000m/h.</desc>
<speed>2.860000</speed>
</trkpt>
<trkpt lat="43.149612" lon="19.268972">
<ele>1165.985352</ele>
<time>2012-05-01T10:09:49Z</time>
<desc>lat.=43.149612, lon.=19.268972, Alt.=1165.985352m. Speed=12.708000m/h.</desc>
<speed>3.530000</speed>
</trkpt>
<trkpt lat="43.149490" lon="19.269056">
<ele>1167.641602</ele>
<time>2012-05-01T10:09:54Z</time>
<desc>lat.=43.149490, lon.=19.269056, Alt.=1167.641602m. Speed=11.052000m/h.</desc>
<speed>3.070000</speed>
</trkpt>
<trkpt lat="43.149372" lon="19.269133">
<ele>1167.422852</ele>
<time>2012-05-01T10:09:59Z</time>
<desc>lat.=43.149372, lon.=19.269133, Alt.=1167.422852m. Speed=10.872000m/h.</desc>
<speed>3.020000</speed>
</trkpt>
<trkpt lat="43.149239" lon="19.269188">
<ele>1167.141602</ele>
<time>2012-05-01T10:10:04Z</time>
<desc>lat.=43.149239, lon.=19.269188, Alt.=1167.141602m. Speed=10.692000m/h.</desc>
<speed>2.970000</speed>
</trkpt>
<trkpt lat="43.149090" lon="19.269257">
<ele>1166.485352</ele>
<time>2012-05-01T10:10:09Z</time>
<desc>lat.=43.149090, lon.=19.269257, Alt.=1166.485352m. Speed=11.664000m/h.</desc>
<speed>3.240000</speed>
</trkpt>
<trkpt lat="43.148926" lon="19.269285">
<ele>1167.579102</ele>
<time>2012-05-01T10:10:14Z</time>
<desc>lat.=43.148926, lon.=19.269285, Alt.=1167.579102m. Speed=12.852000m/h.</desc>
<speed>3.570000</speed>
</trkpt>
<trkpt lat="43.148739" lon="19.269258">
<ele>1168.735352</ele>
<time>2012-05-01T10:10:19Z</time>
<desc>lat.=43.148739, lon.=19.269258, Alt.=1168.735352m. Speed=16.704000m/h.</desc>
<speed>4.640000</speed>
</trkpt>
<trkpt lat="43.148571" lon="19.269169">
<ele>1169.235352</ele>
<time>2012-05-01T10:10:24Z</time>
<desc>lat.=43.148571, lon.=19.269169, Alt.=1169.235352m. Speed=11.988000m/h.</desc>
<speed>3.330000</speed>
</trkpt>
<trkpt lat="43.148464" lon="19.269062">
<ele>1169.766602</ele>
<time>2012-05-01T10:10:29Z</time>
<desc>lat.=43.148464, lon.=19.269062, Alt.=1169.766602m. Speed=10.728000m/h.</desc>
<speed>2.980000</speed>
</trkpt>
<trkpt lat="43.148365" lon="19.268934">
<ele>1169.766602</ele>
<time>2012-05-01T10:10:34Z</time>
<desc>lat.=43.148365, lon.=19.268934, Alt.=1169.766602m. Speed=10.260000m/h.</desc>
<speed>2.850000</speed>
</trkpt>
<trkpt lat="43.148277" lon="19.268812">
<ele>1169.766602</ele>
<time>2012-05-01T10:10:39Z</time>
<desc>lat.=43.148277, lon.=19.268812, Alt.=1169.766602m. Speed=9.648000m/h.</desc>
<speed>2.680000</speed>
</trkpt>
<trkpt lat="43.148170" lon="19.268648">
<ele>1167.735352</ele>
<time>2012-05-01T10:10:44Z</time>
<desc>lat.=43.148170, lon.=19.268648, Alt.=1167.735352m. Speed=10.224000m/h.</desc>
<speed>2.840000</speed>
</trkpt>
<trkpt lat="43.148087" lon="19.268505">
<ele>1167.547852</ele>
<time>2012-05-01T10:10:49Z</time>
<desc>lat.=43.148087, lon.=19.268505, Alt.=1167.547852m. Speed=10.296000m/h.</desc>
<speed>2.860000</speed>
</trkpt>
<trkpt lat="43.147991" lon="19.268366">
<ele>1167.047852</ele>
<time>2012-05-01T10:10:54Z</time>
<desc>lat.=43.147991, lon.=19.268366, Alt.=1167.047852m. Speed=10.476000m/h.</desc>
<speed>2.910000</speed>
</trkpt>
<trkpt lat="43.147900" lon="19.268223">
<ele>1166.797852</ele>
<time>2012-05-01T10:10:59Z</time>
<desc>lat.=43.147900, lon.=19.268223, Alt.=1166.797852m. Speed=10.296000m/h.</desc>
<speed>2.860000</speed>
</trkpt>
<trkpt lat="43.147850" lon="19.268072">
<ele>1167.297852</ele>
<time>2012-05-01T10:11:04Z</time>
<desc>lat.=43.147850, lon.=19.268072, Alt.=1167.297852m. Speed=9.684000m/h.</desc>
<speed>2.690000</speed>
</trkpt>
<trkpt lat="43.147884" lon="19.267990">
<ele>1167.360352</ele>
<time>2012-05-01T10:11:09Z</time>
<desc>lat.=43.147884, lon.=19.267990, Alt.=1167.360352m. Speed=3.708000m/h.</desc>
<speed>1.030000</speed>
</trkpt>
<trkpt lat="43.147976" lon="19.267971">
<ele>1167.954102</ele>
<time>2012-05-01T10:11:14Z</time>
<desc>lat.=43.147976, lon.=19.267971, Alt.=1167.954102m. Speed=10.440000m/h.</desc>
<speed>2.900000</speed>
</trkpt>
<trkpt lat="43.148071" lon="19.268097">
<ele>1168.079102</ele>
<time>2012-05-01T10:11:19Z</time>
<desc>lat.=43.148071, lon.=19.268097, Alt.=1168.079102m. Speed=10.728000m/h.</desc>
<speed>2.980000</speed>
</trkpt>
<trkpt lat="43.148148" lon="19.268253">
<ele>1168.360352</ele>
<time>2012-05-01T10:11:24Z</time>
<desc>lat.=43.148148, lon.=19.268253, Alt.=1168.360352m. Speed=10.620000m/h.</desc>
<speed>2.950000</speed>
</trkpt>
<trkpt lat="43.148224" lon="19.268414">
<ele>1167.985352</ele>
<time>2012-05-01T10:11:29Z</time>
<desc>lat.=43.148224, lon.=19.268414, Alt.=1167.985352m. Speed=11.340000m/h.</desc>
<speed>3.150000</speed>
</trkpt>
<trkpt lat="43.148308" lon="19.268562">
<ele>1168.079102</ele>
<time>2012-05-01T10:11:34Z</time>
<desc>lat.=43.148308, lon.=19.268562, Alt.=1168.079102m. Speed=11.052000m/h.</desc>
<speed>3.070000</speed>
</trkpt>
<trkpt lat="43.148415" lon="19.268677">
<ele>1168.735352</ele>
<time>2012-05-01T10:11:39Z</time>
<desc>lat.=43.148415, lon.=19.268677, Alt.=1168.735352m. Speed=9.828000m/h.</desc>
<speed>2.730000</speed>
</trkpt>
<trkpt lat="43.148533" lon="19.268764">
<ele>1169.016602</ele>
<time>2012-05-01T10:11:44Z</time>
<desc>lat.=43.148533, lon.=19.268764, Alt.=1169.016602m. Speed=10.836000m/h.</desc>
<speed>3.010000</speed>
</trkpt>
<trkpt lat="43.148651" lon="19.268801">
<ele>1169.547852</ele>
<time>2012-05-01T10:11:49Z</time>
<desc>lat.=43.148651, lon.=19.268801, Alt.=1169.547852m. Speed=7.992000m/h.</desc>
<speed>2.220000</speed>
</trkpt>
<trkpt lat="43.148781" lon="19.268797">
<ele>1170.141602</ele>
<time>2012-05-01T10:11:54Z</time>
<desc>lat.=43.148781, lon.=19.268797, Alt.=1170.141602m. Speed=10.476000m/h.</desc>
<speed>2.910000</speed>
</trkpt>
<trkpt lat="43.148888" lon="19.268753">
<ele>1170.704102</ele>
<time>2012-05-01T10:11:59Z</time>
<desc>lat.=43.148888, lon.=19.268753, Alt.=1170.704102m. Speed=6.372000m/h.</desc>
<speed>1.770000</speed>
</trkpt>
<trkpt lat="43.148975" lon="19.268696">
<ele>1171.735352</ele>
<time>2012-05-01T10:12:04Z</time>
<desc>lat.=43.148975, lon.=19.268696, Alt.=1171.735352m. Speed=9.720000m/h.</desc>
<speed>2.700000</speed>
</trkpt>
<trkpt lat="43.149059" lon="19.268612">
<ele>1173.235352</ele>
<time>2012-05-01T10:12:09Z</time>
<desc>lat.=43.149059, lon.=19.268612, Alt.=1173.235352m. Speed=8.820000m/h.</desc>
<speed>2.450000</speed>
</trkpt>
<trkpt lat="43.149139" lon="19.268511">
<ele>1174.454102</ele>
<time>2012-05-01T10:12:14Z</time>
<desc>lat.=43.149139, lon.=19.268511, Alt.=1174.454102m. Speed=9.288000m/h.</desc>
<speed>2.580000</speed>
</trkpt>
<trkpt lat="43.149200" lon="19.268450">
<ele>1178.485352</ele>
<time>2012-05-01T10:12:19Z</time>
<desc>lat.=43.149200, lon.=19.268450, Alt.=1178.485352m. Speed=6.408000m/h.</desc>
<speed>1.780000</speed>
</trkpt>
<trkpt lat="43.149300" lon="19.268339">
<ele>1179.516602</ele>
<time>2012-05-01T10:12:24Z</time>
<desc>lat.=43.149300, lon.=19.268339, Alt.=1179.516602m. Speed=8.784000m/h.</desc>
<speed>2.440000</speed>
</trkpt>
<trkpt lat="43.149395" lon="19.268234">
<ele>1179.704102</ele>
<time>2012-05-01T10:12:29Z</time>
<desc>lat.=43.149395, lon.=19.268234, Alt.=1179.704102m. Speed=8.928000m/h.</desc>
<speed>2.480000</speed>
</trkpt>
<trkpt lat="43.149475" lon="19.268143">
<ele>1181.016602</ele>
<time>2012-05-01T10:12:34Z</time>
<desc>lat.=43.149475, lon.=19.268143, Alt.=1181.016602m. Speed=8.064000m/h.</desc>
<speed>2.240000</speed>
</trkpt>
<trkpt lat="43.149544" lon="19.268045">
<ele>1182.641602</ele>
<time>2012-05-01T10:12:39Z</time>
<desc>lat.=43.149544, lon.=19.268045, Alt.=1182.641602m. Speed=7.812000m/h.</desc>
<speed>2.170000</speed>
</trkpt>
<trkpt lat="43.149616" lon="19.267937">
<ele>1182.672852</ele>
<time>2012-05-01T10:12:44Z</time>
<desc>lat.=43.149616, lon.=19.267937, Alt.=1182.672852m. Speed=7.920000m/h.</desc>
<speed>2.200000</speed>
</trkpt>
<trkpt lat="43.149696" lon="19.267813">
<ele>1182.735352</ele>
<time>2012-05-01T10:12:49Z</time>
<desc>lat.=43.149696, lon.=19.267813, Alt.=1182.735352m. Speed=9.504000m/h.</desc>
<speed>2.640000</speed>
</trkpt>
<trkpt lat="43.149773" lon="19.267685">
<ele>1183.297852</ele>
<time>2012-05-01T10:12:54Z</time>
<desc>lat.=43.149773, lon.=19.267685, Alt.=1183.297852m. Speed=9.612000m/h.</desc>
<speed>2.670000</speed>
</trkpt>
<trkpt lat="43.149841" lon="19.267529">
<ele>1183.485352</ele>
<time>2012-05-01T10:12:59Z</time>
<desc>lat.=43.149841, lon.=19.267529, Alt.=1183.485352m. Speed=11.016000m/h.</desc>
<speed>3.060000</speed>
</trkpt>
<trkpt lat="43.149868" lon="19.267391">
<ele>1186.610352</ele>
<time>2012-05-01T10:13:04Z</time>
<desc>lat.=43.149868, lon.=19.267391, Alt.=1186.610352m. Speed=9.036000m/h.</desc>
<speed>2.510000</speed>
</trkpt>
<trkpt lat="43.149906" lon="19.267246">
<ele>1188.797852</ele>
<time>2012-05-01T10:13:09Z</time>
<desc>lat.=43.149906, lon.=19.267246, Alt.=1188.797852m. Speed=8.748000m/h.</desc>
<speed>2.430000</speed>
</trkpt>
<trkpt lat="43.149925" lon="19.267105">
<ele>1192.797852</ele>
<time>2012-05-01T10:13:14Z</time>
<desc>lat.=43.149925, lon.=19.267105, Alt.=1192.797852m. Speed=11.628000m/h.</desc>
<speed>3.230000</speed>
</trkpt>
<trkpt lat="43.149940" lon="19.266968">
<ele>1193.829102</ele>
<time>2012-05-01T10:13:19Z</time>
<desc>lat.=43.149940, lon.=19.266968, Alt.=1193.829102m. Speed=6.876000m/h.</desc>
<speed>1.910000</speed>
</trkpt>
<trkpt lat="43.149963" lon="19.266806">
<ele>1194.547852</ele>
<time>2012-05-01T10:13:24Z</time>
<desc>lat.=43.149963, lon.=19.266806, Alt.=1194.547852m. Speed=4.824000m/h.</desc>
<speed>1.340000</speed>
</trkpt>
<trkpt lat="43.149982" lon="19.266665">
<ele>1195.391602</ele>
<time>2012-05-01T10:13:29Z</time>
<desc>lat.=43.149982, lon.=19.266665, Alt.=1195.391602m. Speed=9.396000m/h.</desc>
<speed>2.610000</speed>
</trkpt>
<trkpt lat="43.150013" lon="19.266499">
<ele>1195.454102</ele>
<time>2012-05-01T10:13:34Z</time>
<desc>lat.=43.150013, lon.=19.266499, Alt.=1195.454102m. Speed=4.824000m/h.</desc>
<speed>1.340000</speed>
</trkpt>
<trkpt lat="43.150040" lon="19.266329">
<ele>1197.954102</ele>
<time>2012-05-01T10:13:39Z</time>
<desc>lat.=43.150040, lon.=19.266329, Alt.=1197.954102m. Speed=7.164000m/h.</desc>
<speed>1.990000</speed>
</trkpt>
<trkpt lat="43.150085" lon="19.266136">
<ele>1199.829102</ele>
<time>2012-05-01T10:13:44Z</time>
<desc>lat.=43.150085, lon.=19.266136, Alt.=1199.829102m. Speed=5.832000m/h.</desc>
<speed>1.620000</speed>
</trkpt>
<trkpt lat="43.150108" lon="19.265974">
<ele>1200.954102</ele>
<time>2012-05-01T10:13:49Z</time>
<desc>lat.=43.150108, lon.=19.265974, Alt.=1200.954102m. Speed=8.532000m/h.</desc>
<speed>2.370000</speed>
</trkpt>
<trkpt lat="43.150150" lon="19.265827">
<ele>1201.110352</ele>
<time>2012-05-01T10:13:54Z</time>
<desc>lat.=43.150150, lon.=19.265827, Alt.=1201.110352m. Speed=8.280000m/h.</desc>
<speed>2.300000</speed>
</trkpt>
<trkpt lat="43.150177" lon="19.265676">
<ele>1201.641602</ele>
<time>2012-05-01T10:13:59Z</time>
<desc>lat.=43.150177, lon.=19.265676, Alt.=1201.641602m. Speed=8.100000m/h.</desc>
<speed>2.250000</speed>
</trkpt>
<trkpt lat="43.150234" lon="19.265522">
<ele>1202.704102</ele>
<time>2012-05-01T10:14:04Z</time>
<desc>lat.=43.150234, lon.=19.265522, Alt.=1202.704102m. Speed=8.172000m/h.</desc>
<speed>2.270000</speed>
</trkpt>
<trkpt lat="43.150284" lon="19.265375">
<ele>1202.860352</ele>
<time>2012-05-01T10:14:09Z</time>
<desc>lat.=43.150284, lon.=19.265375, Alt.=1202.860352m. Speed=7.956000m/h.</desc>
<speed>2.210000</speed>
</trkpt>
<trkpt lat="43.150341" lon="19.265213">
<ele>1202.391602</ele>
<time>2012-05-01T10:14:14Z</time>
<desc>lat.=43.150341, lon.=19.265213, Alt.=1202.391602m. Speed=8.316000m/h.</desc>
<speed>2.310000</speed>
</trkpt>
<trkpt lat="43.150387" lon="19.265083">
<ele>1203.579102</ele>
<time>2012-05-01T10:14:19Z</time>
<desc>lat.=43.150387, lon.=19.265083, Alt.=1203.579102m. Speed=9.468000m/h.</desc>
<speed>2.630000</speed>
</trkpt>
<trkpt lat="43.150448" lon="19.264929">
<ele>1203.922852</ele>
<time>2012-05-01T10:14:24Z</time>
<desc>lat.=43.150448, lon.=19.264929, Alt.=1203.922852m. Speed=9.756000m/h.</desc>
<speed>2.710000</speed>
</trkpt>
<trkpt lat="43.150505" lon="19.264744">
<ele>1202.735352</ele>
<time>2012-05-01T10:14:29Z</time>
<desc>lat.=43.150505, lon.=19.264744, Alt.=1202.735352m. Speed=10.800000m/h.</desc>
<speed>3.000000</speed>
</trkpt>
<trkpt lat="43.150547" lon="19.264587">
<ele>1201.735352</ele>
<time>2012-05-01T10:14:34Z</time>
<desc>lat.=43.150547, lon.=19.264587, Alt.=1201.735352m. Speed=7.056000m/h.</desc>
<speed>1.960000</speed>
</trkpt>
<trkpt lat="43.150574" lon="19.264454">
<ele>1201.797852</ele>
<time>2012-05-01T10:14:39Z</time>
<desc>lat.=43.150574, lon.=19.264454, Alt.=1201.797852m. Speed=9.576000m/h.</desc>
<speed>2.660000</speed>
</trkpt>
<trkpt lat="43.150620" lon="19.264277">
<ele>1201.516602</ele>
<time>2012-05-01T10:14:44Z</time>
<desc>lat.=43.150620, lon.=19.264277, Alt.=1201.516602m. Speed=10.476000m/h.</desc>
<speed>2.910000</speed>
</trkpt>
<trkpt lat="43.150650" lon="19.264111">
<ele>1201.610352</ele>
<time>2012-05-01T10:14:49Z</time>
<desc>lat.=43.150650, lon.=19.264111, Alt.=1201.610352m. Speed=10.512000m/h.</desc>
<speed>2.920000</speed>
</trkpt>
<trkpt lat="43.150677" lon="19.263926">
<ele>1202.079102</ele>
<time>2012-05-01T10:14:54Z</time>
<desc>lat.=43.150677, lon.=19.263926, Alt.=1202.079102m. Speed=10.764000m/h.</desc>
<speed>2.990000</speed>
</trkpt>
<trkpt lat="43.150688" lon="19.263739">
<ele>1202.641602</ele>
<time>2012-05-01T10:14:59Z</time>
<desc>lat.=43.150688, lon.=19.263739, Alt.=1202.641602m. Speed=10.692000m/h.</desc>
<speed>2.970000</speed>
</trkpt>
<trkpt lat="43.150684" lon="19.263542">
<ele>1203.391602</ele>
<time>2012-05-01T10:15:04Z</time>
<desc>lat.=43.150684, lon.=19.263542, Alt.=1203.391602m. Speed=11.088000m/h.</desc>
<speed>3.080000</speed>
</trkpt>
<trkpt lat="43.150677" lon="19.263351">
<ele>1204.204102</ele>
<time>2012-05-01T10:15:09Z</time>
<desc>lat.=43.150677, lon.=19.263351, Alt.=1204.204102m. Speed=11.052000m/h.</desc>
<speed>3.070000</speed>
</trkpt>
<trkpt lat="43.150642" lon="19.263206">
<ele>1204.860352</ele>
<time>2012-05-01T10:15:14Z</time>
<desc>lat.=43.150642, lon.=19.263206, Alt.=1204.860352m. Speed=8.892000m/h.</desc>
<speed>2.470000</speed>
</trkpt>
<trkpt lat="43.150604" lon="19.263048">
<ele>1205.516602</ele>
<time>2012-05-01T10:15:19Z</time>
<desc>lat.=43.150604, lon.=19.263048, Alt.=1205.516602m. Speed=9.576000m/h.</desc>
<speed>2.660000</speed>
</trkpt>
<trkpt lat="43.150574" lon="19.262947">
<ele>1206.079102</ele>
<time>2012-05-01T10:15:24Z</time>
<desc>lat.=43.150574, lon.=19.262947, Alt.=1206.079102m. Speed=6.912000m/h.</desc>
<speed>1.920000</speed>
</trkpt>
<trkpt lat="43.150528" lon="19.262798">
<ele>1206.829102</ele>
<time>2012-05-01T10:15:29Z</time>
<desc>lat.=43.150528, lon.=19.262798, Alt.=1206.829102m. Speed=10.764000m/h.</desc>
<speed>2.990000</speed>
</trkpt>
<trkpt lat="43.150482" lon="19.262672">
<ele>1207.360352</ele>
<time>2012-05-01T10:15:34Z</time>
<desc>lat.=43.150482, lon.=19.262672, Alt.=1207.360352m. Speed=9.756000m/h.</desc>
<speed>2.710000</speed>
</trkpt>
<trkpt lat="43.150440" lon="19.262514">
<ele>1207.766602</ele>
<time>2012-05-01T10:15:39Z</time>
<desc>lat.=43.150440, lon.=19.262514, Alt.=1207.766602m. Speed=10.368000m/h.</desc>
<speed>2.880000</speed>
</trkpt>
<trkpt lat="43.150398" lon="19.262346">
<ele>1208.985352</ele>
<time>2012-05-01T10:15:44Z</time>
<desc>lat.=43.150398, lon.=19.262346, Alt.=1208.985352m. Speed=10.548000m/h.</desc>
<speed>2.930000</speed>
</trkpt>
<trkpt lat="43.150387" lon="19.262173">
<ele>1210.422852</ele>
<time>2012-05-01T10:15:49Z</time>
<desc>lat.=43.150387, lon.=19.262173, Alt.=1210.422852m. Speed=7.344000m/h.</desc>
<speed>2.040000</speed>
</trkpt>
<trkpt lat="43.150391" lon="19.262075">
<ele>1211.454102</ele>
<time>2012-05-01T10:15:54Z</time>
<desc>lat.=43.150391, lon.=19.262075, Alt.=1211.454102m. Speed=6.984000m/h.</desc>
<speed>1.940000</speed>
</trkpt>
<trkpt lat="43.150414" lon="19.261948">
<ele>1213.266602</ele>
<time>2012-05-01T10:15:59Z</time>
<desc>lat.=43.150414, lon.=19.261948, Alt.=1213.266602m. Speed=9.396000m/h.</desc>
<speed>2.610000</speed>
</trkpt>
<trkpt lat="43.150459" lon="19.261810">
<ele>1215.079102</ele>
<time>2012-05-01T10:16:04Z</time>
<desc>lat.=43.150459, lon.=19.261810, Alt.=1215.079102m. Speed=8.352000m/h.</desc>
<speed>2.320000</speed>
</trkpt>
<trkpt lat="43.150520" lon="19.261679">
<ele>1215.641602</ele>
<time>2012-05-01T10:16:09Z</time>
<desc>lat.=43.150520, lon.=19.261679, Alt.=1215.641602m. Speed=9.720000m/h.</desc>
<speed>2.700000</speed>
</trkpt>
<trkpt lat="43.150600" lon="19.261570">
<ele>1216.016602</ele>
<time>2012-05-01T10:16:14Z</time>
<desc>lat.=43.150600, lon.=19.261570, Alt.=1216.016602m. Speed=6.228000m/h.</desc>
<speed>1.730000</speed>
</trkpt>
<trkpt lat="43.150692" lon="19.261484">
<ele>1216.454102</ele>
<time>2012-05-01T10:16:19Z</time>
<desc>lat.=43.150692, lon.=19.261484, Alt.=1216.454102m. Speed=10.008000m/h.</desc>
<speed>2.780000</speed>
</trkpt>
<trkpt lat="43.150826" lon="19.261427">
<ele>1217.172852</ele>
<time>2012-05-01T10:16:24Z</time>
<desc>lat.=43.150826, lon.=19.261427, Alt.=1217.172852m. Speed=10.512000m/h.</desc>
<speed>2.920000</speed>
</trkpt>
<trkpt lat="43.150948" lon="19.261417">
<ele>1217.922852</ele>
<time>2012-05-01T10:16:29Z</time>
<desc>lat.=43.150948, lon.=19.261417, Alt.=1217.922852m. Speed=9.612000m/h.</desc>
<speed>2.670000</speed>
</trkpt>
<trkpt lat="43.151066" lon="19.261429">
<ele>1217.297852</ele>
<time>2012-05-01T10:16:34Z</time>
<desc>lat.=43.151066, lon.=19.261429, Alt.=1217.297852m. Speed=6.300000m/h.</desc>
<speed>1.750000</speed>
</trkpt>
<trkpt lat="43.151173" lon="19.261463">
<ele>1216.797852</ele>
<time>2012-05-01T10:16:39Z</time>
<desc>lat.=43.151173, lon.=19.261463, Alt.=1216.797852m. Speed=9.324000m/h.</desc>
<speed>2.590000</speed>
</trkpt>
<trkpt lat="43.151291" lon="19.261524">
<ele>1216.704102</ele>
<time>2012-05-01T10:16:44Z</time>
<desc>lat.=43.151291, lon.=19.261524, Alt.=1216.704102m. Speed=10.728000m/h.</desc>
<speed>2.980000</speed>
</trkpt>
<trkpt lat="43.151428" lon="19.261581">
<ele>1217.422852</ele>
<time>2012-05-01T10:16:49Z</time>
<desc>lat.=43.151428, lon.=19.261581, Alt.=1217.422852m. Speed=10.620000m/h.</desc>
<speed>2.950000</speed>
</trkpt>
<trkpt lat="43.151569" lon="19.261654">
<ele>1217.016602</ele>
<time>2012-05-01T10:16:54Z</time>
<desc>lat.=43.151569, lon.=19.261654, Alt.=1217.016602m. Speed=11.232000m/h.</desc>
<speed>3.120000</speed>
</trkpt>
<trkpt lat="43.151672" lon="19.261703">
<ele>1218.016602</ele>
<time>2012-05-01T10:16:59Z</time>
<desc>lat.=43.151672, lon.=19.261703, Alt.=1218.016602m. Speed=8.712000m/h.</desc>
<speed>2.420000</speed>
</trkpt>
<trkpt lat="43.151791" lon="19.261808">
<ele>1217.704102</ele>
<time>2012-05-01T10:17:04Z</time>
<desc>lat.=43.151791, lon.=19.261808, Alt.=1217.704102m. Speed=11.340000m/h.</desc>
<speed>3.150000</speed>
</trkpt>
<trkpt lat="43.151867" lon="19.261894">
<ele>1218.735352</ele>
<time>2012-05-01T10:17:09Z</time>
<desc>lat.=43.151867, lon.=19.261894, Alt.=1218.735352m. Speed=8.568000m/h.</desc>
<speed>2.380000</speed>
</trkpt>
<trkpt lat="43.151932" lon="19.261980">
<ele>1218.922852</ele>
<time>2012-05-01T10:17:14Z</time>
<desc>lat.=43.151932, lon.=19.261980, Alt.=1218.922852m. Speed=7.272000m/h.</desc>
<speed>2.020000</speed>
</trkpt>
<trkpt lat="43.151989" lon="19.262094">
<ele>1219.516602</ele>
<time>2012-05-01T10:17:19Z</time>
<desc>lat.=43.151989, lon.=19.262094, Alt.=1219.516602m. Speed=8.748000m/h.</desc>
<speed>2.430000</speed>
</trkpt>
<trkpt lat="43.152050" lon="19.262211">
<ele>1220.297852</ele>
<time>2012-05-01T10:17:24Z</time>
<desc>lat.=43.152050, lon.=19.262211, Alt.=1220.297852m. Speed=9.396000m/h.</desc>
<speed>2.610000</speed>
</trkpt>
<trkpt lat="43.152119" lon="19.262339">
<ele>1220.204102</ele>
<time>2012-05-01T10:17:29Z</time>
<desc>lat.=43.152119, lon.=19.262339, Alt.=1220.204102m. Speed=9.432000m/h.</desc>
<speed>2.620000</speed>
</trkpt>
<trkpt lat="43.152184" lon="19.262463">
<ele>1221.266602</ele>
<time>2012-05-01T10:17:34Z</time>
<desc>lat.=43.152184, lon.=19.262463, Alt.=1221.266602m. Speed=8.424000m/h.</desc>
<speed>2.340000</speed>
</trkpt>
<trkpt lat="43.152256" lon="19.262564">
<ele>1222.422852</ele>
<time>2012-05-01T10:17:39Z</time>
<desc>lat.=43.152256, lon.=19.262564, Alt.=1222.422852m. Speed=9.000000m/h.</desc>
<speed>2.500000</speed>
</trkpt>
<trkpt lat="43.152340" lon="19.262671">
<ele>1223.516602</ele>
<time>2012-05-01T10:17:44Z</time>
<desc>lat.=43.152340, lon.=19.262671, Alt.=1223.516602m. Speed=10.080000m/h.</desc>
<speed>2.800000</speed>
</trkpt>
<trkpt lat="43.152431" lon="19.262766">
<ele>1223.985352</ele>
<time>2012-05-01T10:17:49Z</time>
<desc>lat.=43.152431, lon.=19.262766, Alt.=1223.985352m. Speed=6.840000m/h.</desc>
<speed>1.900000</speed>
</trkpt>
<trkpt lat="43.152531" lon="19.262825">
<ele>1224.797852</ele>
<time>2012-05-01T10:17:54Z</time>
<desc>lat.=43.152531, lon.=19.262825, Alt.=1224.797852m. Speed=9.180000m/h.</desc>
<speed>2.550000</speed>
</trkpt>
<trkpt lat="43.152641" lon="19.262886">
<ele>1225.547852</ele>
<time>2012-05-01T10:17:59Z</time>
<desc>lat.=43.152641, lon.=19.262886, Alt.=1225.547852m. Speed=9.648000m/h.</desc>
<speed>2.680000</speed>
</trkpt>
<trkpt lat="43.152760" lon="19.262918">
<ele>1226.672852</ele>
<time>2012-05-01T10:18:04Z</time>
<desc>lat.=43.152760, lon.=19.262918, Alt.=1226.672852m. Speed=10.152000m/h.</desc>
<speed>2.820000</speed>
</trkpt>
<trkpt lat="43.152893" lon="19.262913">
<ele>1229.829102</ele>
<time>2012-05-01T10:18:09Z</time>
<desc>lat.=43.152893, lon.=19.262913, Alt.=1229.829102m. Speed=9.180000m/h.</desc>
<speed>2.550000</speed>
</trkpt>
<trkpt lat="43.153023" lon="19.262894">
<ele>1233.297852</ele>
<time>2012-05-01T10:18:14Z</time>
<desc>lat.=43.153023, lon.=19.262894, Alt.=1233.297852m. Speed=9.324000m/h.</desc>
<speed>2.590000</speed>
</trkpt>
<trkpt lat="43.153122" lon="19.262886">
<ele>1236.547852</ele>
<time>2012-05-01T10:18:19Z</time>
<desc>lat.=43.153122, lon.=19.262886, Alt.=1236.547852m. Speed=9.756000m/h.</desc>
<speed>2.710000</speed>
</trkpt>
<trkpt lat="43.153233" lon="19.262848">
<ele>1240.110352</ele>
<time>2012-05-01T10:18:24Z</time>
<desc>lat.=43.153233, lon.=19.262848, Alt.=1240.110352m. Speed=11.052000m/h.</desc>
<speed>3.070000</speed>
</trkpt>
<trkpt lat="43.153316" lon="19.262852">
<ele>1240.329102</ele>
<time>2012-05-01T10:18:29Z</time>
<desc>lat.=43.153316, lon.=19.262852, Alt.=1240.329102m. Speed=10.116000m/h.</desc>
<speed>2.810000</speed>
</trkpt>
<trkpt lat="43.153412" lon="19.262770">
<ele>1243.141602</ele>
<time>2012-05-01T10:18:34Z</time>
<desc>lat.=43.153412, lon.=19.262770, Alt.=1243.141602m. Speed=6.516000m/h.</desc>
<speed>1.810000</speed>
</trkpt>
<trkpt lat="43.153492" lon="19.262669">
<ele>1243.922852</ele>
<time>2012-05-01T10:18:39Z</time>
<desc>lat.=43.153492, lon.=19.262669, Alt.=1243.922852m. Speed=9.972000m/h.</desc>
<speed>2.770000</speed>
</trkpt>
<trkpt lat="43.153526" lon="19.262585">
<ele>1246.016602</ele>
<time>2012-05-01T10:18:44Z</time>
<desc>lat.=43.153526, lon.=19.262585, Alt.=1246.016602m. Speed=4.644000m/h.</desc>
<speed>1.290000</speed>
</trkpt>
<trkpt lat="43.153553" lon="19.262470">
<ele>1251.141602</ele>
<time>2012-05-01T10:18:49Z</time>
<desc>lat.=43.153553, lon.=19.262470, Alt.=1251.141602m. Speed=7.884000m/h.</desc>
<speed>2.190000</speed>
</trkpt>
<trkpt lat="43.153618" lon="19.262293">
<ele>1249.985352</ele>
<time>2012-05-01T10:18:54Z</time>
<desc>lat.=43.153618, lon.=19.262293, Alt.=1249.985352m. Speed=8.748000m/h.</desc>
<speed>2.430000</speed>
</trkpt>
<trkpt lat="43.153625" lon="19.262157">
<ele>1249.016602</ele>
<time>2012-05-01T10:18:59Z</time>
<desc>lat.=43.153625, lon.=19.262157, Alt.=1249.016602m. Speed=8.604000m/h.</desc>
<speed>2.390000</speed>
</trkpt>
<trkpt lat="43.153625" lon="19.262012">
<ele>1249.360352</ele>
<time>2012-05-01T10:19:04Z</time>
<desc>lat.=43.153625, lon.=19.262012, Alt.=1249.360352m. Speed=8.640000m/h.</desc>
<speed>2.400000</speed>
</trkpt>
<trkpt lat="43.153564" lon="19.261883">
<ele>1251.454102</ele>
<time>2012-05-01T10:19:09Z</time>
<desc>lat.=43.153564, lon.=19.261883, Alt.=1251.454102m. Speed=8.136000m/h.</desc>
<speed>2.260000</speed>
</trkpt>
<trkpt lat="43.153530" lon="19.261763">
<ele>1252.360352</ele>
<time>2012-05-01T10:19:14Z</time>
<desc>lat.=43.153530, lon.=19.261763, Alt.=1252.360352m. Speed=7.704000m/h.</desc>
<speed>2.140000</speed>
</trkpt>
<trkpt lat="43.153446" lon="19.261667">
<ele>1254.547852</ele>
<time>2012-05-01T10:19:19Z</time>
<desc>lat.=43.153446, lon.=19.261667, Alt.=1254.547852m. Speed=8.568000m/h.</desc>
<speed>2.380000</speed>
</trkpt>
<trkpt lat="43.153320" lon="19.261581">
<ele>1253.922852</ele>
<time>2012-05-01T10:19:24Z</time>
<desc>lat.=43.153320, lon.=19.261581, Alt.=1253.922852m. Speed=10.188000m/h.</desc>
<speed>2.830000</speed>
</trkpt>
<trkpt lat="43.153191" lon="19.261492">
<ele>1253.329102</ele>
<time>2012-05-01T10:19:29Z</time>
<desc>lat.=43.153191, lon.=19.261492, Alt.=1253.329102m. Speed=10.980000m/h.</desc>
<speed>3.050000</speed>
</trkpt>
<trkpt lat="43.153076" lon="19.261395">
<ele>1251.610352</ele>
<time>2012-05-01T10:19:34Z</time>
<desc>lat.=43.153076, lon.=19.261395, Alt.=1251.610352m. Speed=10.044000m/h.</desc>
<speed>2.790000</speed>
</trkpt>
<trkpt lat="43.152973" lon="19.261299">
<ele>1251.266602</ele>
<time>2012-05-01T10:19:39Z</time>
<desc>lat.=43.152973, lon.=19.261299, Alt.=1251.266602m. Speed=8.820000m/h.</desc>
<speed>2.450000</speed>
</trkpt>
<trkpt lat="43.152885" lon="19.261229">
<ele>1251.454102</ele>
<time>2012-05-01T10:19:44Z</time>
<desc>lat.=43.152885, lon.=19.261229, Alt.=1251.454102m. Speed=7.848000m/h.</desc>
<speed>2.180000</speed>
</trkpt>
<trkpt lat="43.152817" lon="19.261160">
<ele>1251.891602</ele>
<time>2012-05-01T10:19:49Z</time>
<desc>lat.=43.152817, lon.=19.261160, Alt.=1251.891602m. Speed=4.644000m/h.</desc>
<speed>1.290000</speed>
</trkpt>
<trkpt lat="43.152756" lon="19.261089">
<ele>1252.985352</ele>
<time>2012-05-01T10:19:54Z</time>
<desc>lat.=43.152756, lon.=19.261089, Alt.=1252.985352m. Speed=8.028000m/h.</desc>
<speed>2.230000</speed>
</trkpt>
<trkpt lat="43.152683" lon="19.261011">
<ele>1254.422852</ele>
<time>2012-05-01T10:19:59Z</time>
<desc>lat.=43.152683, lon.=19.261011, Alt.=1254.422852m. Speed=8.028000m/h.</desc>
<speed>2.230000</speed>
</trkpt>
<trkpt lat="43.152592" lon="19.260927">
<ele>1254.516602</ele>
<time>2012-05-01T10:20:04Z</time>
<desc>lat.=43.152592, lon.=19.260927, Alt.=1254.516602m. Speed=8.604000m/h.</desc>
<speed>2.390000</speed>
</trkpt>
<trkpt lat="43.152500" lon="19.260845">
<ele>1255.704102</ele>
<time>2012-05-01T10:20:09Z</time>
<desc>lat.=43.152500, lon.=19.260845, Alt.=1255.704102m. Speed=8.208000m/h.</desc>
<speed>2.280000</speed>
</trkpt>
<trkpt lat="43.152409" lon="19.260777">
<ele>1254.485352</ele>
<time>2012-05-01T10:20:14Z</time>
<desc>lat.=43.152409, lon.=19.260777, Alt.=1254.485352m. Speed=8.280000m/h.</desc>
<speed>2.300000</speed>
</trkpt>
<trkpt lat="43.152306" lon="19.260704">
<ele>1254.579102</ele>
<time>2012-05-01T10:20:19Z</time>
<desc>lat.=43.152306, lon.=19.260704, Alt.=1254.579102m. Speed=8.172000m/h.</desc>
<speed>2.270000</speed>
</trkpt>
<trkpt lat="43.152206" lon="19.260624">
<ele>1254.766602</ele>
<time>2012-05-01T10:20:24Z</time>
<desc>lat.=43.152206, lon.=19.260624, Alt.=1254.766602m. Speed=8.640000m/h.</desc>
<speed>2.400000</speed>
</trkpt>
<trkpt lat="43.152119" lon="19.260538">
<ele>1255.672852</ele>
<time>2012-05-01T10:20:29Z</time>
<desc>lat.=43.152119, lon.=19.260538, Alt.=1255.672852m. Speed=8.748000m/h.</desc>
<speed>2.430000</speed>
</trkpt>
<trkpt lat="43.152035" lon="19.260477">
<ele>1256.516602</ele>
<time>2012-05-01T10:20:34Z</time>
<desc>lat.=43.152035, lon.=19.260477, Alt.=1256.516602m. Speed=4.896000m/h.</desc>
<speed>1.360000</speed>
</trkpt>
<trkpt lat="43.151962" lon="19.260386">
<ele>1257.454102</ele>
<time>2012-05-01T10:20:39Z</time>
<desc>lat.=43.151962, lon.=19.260386, Alt.=1257.454102m. Speed=9.468000m/h.</desc>
<speed>2.630000</speed>
</trkpt>
<trkpt lat="43.151867" lon="19.260277">
<ele>1260.829102</ele>
<time>2012-05-01T10:20:44Z</time>
<desc>lat.=43.151867, lon.=19.260277, Alt.=1260.829102m. Speed=11.052000m/h.</desc>
<speed>3.070000</speed>
</trkpt>
<trkpt lat="43.151814" lon="19.260208">
<ele>1260.985352</ele>
<time>2012-05-01T10:20:49Z</time>
<desc>lat.=43.151814, lon.=19.260208, Alt.=1260.985352m. Speed=3.060000m/h.</desc>
<speed>0.850000</speed>
</trkpt>
<trkpt lat="43.151810" lon="19.260210">
<ele>1260.985352</ele>
<time>2012-05-01T10:20:54Z</time>
<desc>lat.=43.151810, lon.=19.260210, Alt.=1260.985352m. Speed=0.324000m/h.</desc>
<speed>0.090000</speed>
</trkpt>
<trkpt lat="43.151806" lon="19.260214">
<ele>1261.204102</ele>
<time>2012-05-01T10:20:59Z</time>
<desc>lat.=43.151806, lon.=19.260214, Alt.=1261.204102m. Speed=0.180000m/h.</desc>
<speed>0.050000</speed>
</trkpt>
<trkpt lat="43.151787" lon="19.260187">
<ele>1261.485352</ele>
<time>2012-05-01T10:21:04Z</time>
<desc>lat.=43.151787, lon.=19.260187, Alt.=1261.485352m. Speed=5.148000m/h.</desc>
<speed>1.430000</speed>
</trkpt>
<trkpt lat="43.151730" lon="19.260065">
<ele>1261.641602</ele>
<time>2012-05-01T10:21:09Z</time>
<desc>lat.=43.151730, lon.=19.260065, Alt.=1261.641602m. Speed=9.000000m/h.</desc>
<speed>2.500000</speed>
</trkpt>
<trkpt lat="43.151680" lon="19.259926">
<ele>1262.922852</ele>
<time>2012-05-01T10:21:14Z</time>
<desc>lat.=43.151680, lon.=19.259926, Alt.=1262.922852m. Speed=9.828000m/h.</desc>
<speed>2.730000</speed>
</trkpt>
<trkpt lat="43.151630" lon="19.259785">
<ele>1262.360352</ele>
<time>2012-05-01T10:21:19Z</time>
<desc>lat.=43.151630, lon.=19.259785, Alt.=1262.360352m. Speed=8.928000m/h.</desc>
<speed>2.480000</speed>
</trkpt>
<trkpt lat="43.151585" lon="19.259645">
<ele>1264.672852</ele>
<time>2012-05-01T10:21:24Z</time>
<desc>lat.=43.151585, lon.=19.259645, Alt.=1264.672852m. Speed=9.828000m/h.</desc>
<speed>2.730000</speed>
</trkpt>
<trkpt lat="43.151512" lon="19.259506">
<ele>1268.079102</ele>
<time>2012-05-01T10:21:29Z</time>
<desc>lat.=43.151512, lon.=19.259506, Alt.=1268.079102m. Speed=9.792000m/h.</desc>
<speed>2.720000</speed>
</trkpt>
<trkpt lat="43.151478" lon="19.259340">
<ele>1267.297852</ele>
<time>2012-05-01T10:21:34Z</time>
<desc>lat.=43.151478, lon.=19.259340, Alt.=1267.297852m. Speed=9.792000m/h.</desc>
<speed>2.720000</speed>
</trkpt>
<trkpt lat="43.151432" lon="19.259176">
<ele>1267.547852</ele>
<time>2012-05-01T10:21:39Z</time>
<desc>lat.=43.151432, lon.=19.259176, Alt.=1267.547852m. Speed=9.720000m/h.</desc>
<speed>2.700000</speed>
</trkpt>
<trkpt lat="43.151363" lon="19.259033">
<ele>1271.485352</ele>
<time>2012-05-01T10:21:44Z</time>
<desc>lat.=43.151363, lon.=19.259033, Alt.=1271.485352m. Speed=10.080000m/h.</desc>
<speed>2.800000</speed>
</trkpt>
<trkpt lat="43.151279" lon="19.258892">
<ele>1274.329102</ele>
<time>2012-05-01T10:21:49Z</time>
<desc>lat.=43.151279, lon.=19.258892, Alt.=1274.329102m. Speed=10.944000m/h.</desc>
<speed>3.040000</speed>
</trkpt>
<trkpt lat="43.151234" lon="19.258736">
<ele>1273.329102</ele>
<time>2012-05-01T10:21:54Z</time>
<desc>lat.=43.151234, lon.=19.258736, Alt.=1273.329102m. Speed=9.864000m/h.</desc>
<speed>2.740000</speed>
</trkpt>
<trkpt lat="43.151188" lon="19.258564">
<ele>1269.891602</ele>
<time>2012-05-01T10:21:59Z</time>
<desc>lat.=43.151188, lon.=19.258564, Alt.=1269.891602m. Speed=10.116000m/h.</desc>
<speed>2.810000</speed>
</trkpt>
<trkpt lat="43.151104" lon="19.258417">
<ele>1269.704102</ele>
<time>2012-05-01T10:22:04Z</time>
<desc>lat.=43.151104, lon.=19.258417, Alt.=1269.704102m. Speed=10.800000m/h.</desc>
<speed>3.000000</speed>
</trkpt>
<trkpt lat="43.151028" lon="19.258280">
<ele>1269.297852</ele>
<time>2012-05-01T10:22:09Z</time>
<desc>lat.=43.151028, lon.=19.258280, Alt.=1269.297852m. Speed=9.216000m/h.</desc>
<speed>2.560000</speed>
</trkpt>
<trkpt lat="43.150948" lon="19.258146">
<ele>1270.016602</ele>
<time>2012-05-01T10:22:14Z</time>
<desc>lat.=43.150948, lon.=19.258146, Alt.=1270.016602m. Speed=10.008000m/h.</desc>
<speed>2.780000</speed>
</trkpt>
<trkpt lat="43.150860" lon="19.258013">
<ele>1270.485352</ele>
<time>2012-05-01T10:22:19Z</time>
<desc>lat.=43.150860, lon.=19.258013, Alt.=1270.485352m. Speed=10.548000m/h.</desc>
<speed>2.930000</speed>
</trkpt>
<trkpt lat="43.150772" lon="19.257875">
<ele>1271.360352</ele>
<time>2012-05-01T10:22:24Z</time>
<desc>lat.=43.150772, lon.=19.257875, Alt.=1271.360352m. Speed=10.908000m/h.</desc>
<speed>3.030000</speed>
</trkpt>
<trkpt lat="43.150696" lon="19.257748">
<ele>1271.641602</ele>
<time>2012-05-01T10:22:29Z</time>
<desc>lat.=43.150696, lon.=19.257748, Alt.=1271.641602m. Speed=9.756000m/h.</desc>
<speed>2.710000</speed>
</trkpt>
<trkpt lat="43.150608" lon="19.257633">
<ele>1272.266602</ele>
<time>2012-05-01T10:22:34Z</time>
<desc>lat.=43.150608, lon.=19.257633, Alt.=1272.266602m. Speed=8.316000m/h.</desc>
<speed>2.310000</speed>
</trkpt>
<trkpt lat="43.150536" lon="19.257505">
<ele>1270.985352</ele>
<time>2012-05-01T10:22:39Z</time>
<desc>lat.=43.150536, lon.=19.257505, Alt.=1270.985352m. Speed=9.468000m/h.</desc>
<speed>2.630000</speed>
</trkpt>
<trkpt lat="43.150452" lon="19.257387">
<ele>1270.141602</ele>
<time>2012-05-01T10:22:44Z</time>
<desc>lat.=43.150452, lon.=19.257387, Alt.=1270.141602m. Speed=10.008000m/h.</desc>
<speed>2.780000</speed>
</trkpt>
<trkpt lat="43.150375" lon="19.257322">
<ele>1270.610352</ele>
<time>2012-05-01T10:22:49Z</time>
<desc>lat.=43.150375, lon.=19.257322, Alt.=1270.610352m. Speed=5.940000m/h.</desc>
<speed>1.650000</speed>
</trkpt>
<trkpt lat="43.150280" lon="19.257233">
<ele>1272.797852</ele>
<time>2012-05-01T10:22:54Z</time>
<desc>lat.=43.150280, lon.=19.257233, Alt.=1272.797852m. Speed=9.900000m/h.</desc>
<speed>2.750000</speed>
</trkpt>
<trkpt lat="43.150204" lon="19.257111">
<ele>1272.110352</ele>
<time>2012-05-01T10:22:59Z</time>
<desc>lat.=43.150204, lon.=19.257111, Alt.=1272.110352m. Speed=10.404000m/h.</desc>
<speed>2.890000</speed>
</trkpt>
<trkpt lat="43.150097" lon="19.256975">
<ele>1270.516602</ele>
<time>2012-05-01T10:23:04Z</time>
<desc>lat.=43.150097, lon.=19.256975, Alt.=1270.516602m. Speed=9.756000m/h.</desc>
<speed>2.710000</speed>
</trkpt>
<trkpt lat="43.149998" lon="19.256838">
<ele>1268.360352</ele>
<time>2012-05-01T10:23:09Z</time>
<desc>lat.=43.149998, lon.=19.256838, Alt.=1268.360352m. Speed=9.864000m/h.</desc>
<speed>2.740000</speed>
</trkpt>
<trkpt lat="43.149963" lon="19.256697">
<ele>1270.641602</ele>
<time>2012-05-01T10:23:14Z</time>
<desc>lat.=43.149963, lon.=19.256697, Alt.=1270.641602m. Speed=8.352000m/h.</desc>
<speed>2.320000</speed>
</trkpt>
<trkpt lat="43.150066" lon="19.256643">
<ele>1272.204102</ele>
<time>2012-05-01T10:23:19Z</time>
<desc>lat.=43.150066, lon.=19.256643, Alt.=1272.204102m. Speed=10.116000m/h.</desc>
<speed>2.810000</speed>
</trkpt>
<trkpt lat="43.150173" lon="19.256721">
<ele>1272.047852</ele>
<time>2012-05-01T10:23:24Z</time>
<desc>lat.=43.150173, lon.=19.256721, Alt.=1272.047852m. Speed=6.156000m/h.</desc>
<speed>1.710000</speed>
</trkpt>
<trkpt lat="43.150257" lon="19.256783">
<ele>1272.110352</ele>
<time>2012-05-01T10:23:29Z</time>
<desc>lat.=43.150257, lon.=19.256783, Alt.=1272.110352m. Speed=8.676000m/h.</desc>
<speed>2.410000</speed>
</trkpt>
<trkpt lat="43.150333" lon="19.256857">
<ele>1273.360352</ele>
<time>2012-05-01T10:23:34Z</time>
<desc>lat.=43.150333, lon.=19.256857, Alt.=1273.360352m. Speed=5.400000m/h.</desc>
<speed>1.500000</speed>
</trkpt>
<trkpt lat="43.150394" lon="19.256895">
<ele>1275.172852</ele>
<time>2012-05-01T10:23:39Z</time>
<desc>lat.=43.150394, lon.=19.256895, Alt.=1275.172852m. Speed=6.264000m/h.</desc>
<speed>1.740000</speed>
</trkpt>
<trkpt lat="43.150459" lon="19.256971">
<ele>1276.422852</ele>
<time>2012-05-01T10:23:44Z</time>
<desc>lat.=43.150459, lon.=19.256971, Alt.=1276.422852m. Speed=7.308000m/h.</desc>
<speed>2.030000</speed>
</trkpt>
<trkpt lat="43.150539" lon="19.257019">
<ele>1279.141602</ele>
<time>2012-05-01T10:23:49Z</time>
<desc>lat.=43.150539, lon.=19.257019, Alt.=1279.141602m. Speed=6.516000m/h.</desc>
<speed>1.810000</speed>
</trkpt>
<trkpt lat="43.150600" lon="19.257124">
<ele>1278.266602</ele>
<time>2012-05-01T10:23:54Z</time>
<desc>lat.=43.150600, lon.=19.257124, Alt.=1278.266602m. Speed=7.092000m/h.</desc>
<speed>1.970000</speed>
</trkpt>
<trkpt lat="43.150673" lon="19.257219">
<ele>1278.391602</ele>
<time>2012-05-01T10:23:59Z</time>
<desc>lat.=43.150673, lon.=19.257219, Alt.=1278.391602m. Speed=6.624000m/h.</desc>
<speed>1.840000</speed>
</trkpt>
<trkpt lat="43.150738" lon="19.257307">
<ele>1278.797852</ele>
<time>2012-05-01T10:24:04Z</time>
<desc>lat.=43.150738, lon.=19.257307, Alt.=1278.797852m. Speed=6.696000m/h.</desc>
<speed>1.860000</speed>
</trkpt>
<trkpt lat="43.150803" lon="19.257347">
<ele>1279.329102</ele>
<time>2012-05-01T10:24:09Z</time>
<desc>lat.=43.150803, lon.=19.257347, Alt.=1279.329102m. Speed=6.336000m/h.</desc>
<speed>1.760000</speed>
</trkpt>
<trkpt lat="43.150871" lon="19.257410">
<ele>1279.766602</ele>
<time>2012-05-01T10:24:14Z</time>
<desc>lat.=43.150871, lon.=19.257410, Alt.=1279.766602m. Speed=6.768000m/h.</desc>
<speed>1.880000</speed>
</trkpt>
<trkpt lat="43.150951" lon="19.257463">
<ele>1280.266602</ele>
<time>2012-05-01T10:24:19Z</time>
<desc>lat.=43.150951, lon.=19.257463, Alt.=1280.266602m. Speed=7.200000m/h.</desc>
<speed>2.000000</speed>
</trkpt>
<trkpt lat="43.151035" lon="19.257521">
<ele>1281.141602</ele>
<time>2012-05-01T10:24:24Z</time>
<desc>lat.=43.151035, lon.=19.257521, Alt.=1281.141602m. Speed=7.884000m/h.</desc>
<speed>2.190000</speed>
</trkpt>
<trkpt lat="43.151123" lon="19.257570">
<ele>1281.704102</ele>
<time>2012-05-01T10:24:29Z</time>
<desc>lat.=43.151123, lon.=19.257570, Alt.=1281.704102m. Speed=7.632000m/h.</desc>
<speed>2.120000</speed>
</trkpt>
<trkpt lat="43.151211" lon="19.257624">
<ele>1282.547852</ele>
<time>2012-05-01T10:24:34Z</time>
<desc>lat.=43.151211, lon.=19.257624, Alt.=1282.547852m. Speed=7.488000m/h.</desc>
<speed>2.080000</speed>
</trkpt>
<trkpt lat="43.151291" lon="19.257685">
<ele>1283.047852</ele>
<time>2012-05-01T10:24:39Z</time>
<desc>lat.=43.151291, lon.=19.257685, Alt.=1283.047852m. Speed=8.280000m/h.</desc>
<speed>2.300000</speed>
</trkpt>
<trkpt lat="43.151382" lon="19.257742">
<ele>1283.641602</ele>
<time>2012-05-01T10:24:44Z</time>
<desc>lat.=43.151382, lon.=19.257742, Alt.=1283.641602m. Speed=8.028000m/h.</desc>
<speed>2.230000</speed>
</trkpt>
<trkpt lat="43.151470" lon="19.257784">
<ele>1284.829102</ele>
<time>2012-05-01T10:24:49Z</time>
<desc>lat.=43.151470, lon.=19.257784, Alt.=1284.829102m. Speed=6.912000m/h.</desc>
<speed>1.920000</speed>
</trkpt>
<trkpt lat="43.151539" lon="19.257841">
<ele>1284.610352</ele>
<time>2012-05-01T10:24:54Z</time>
<desc>lat.=43.151539, lon.=19.257841, Alt.=1284.610352m. Speed=4.716000m/h.</desc>
<speed>1.310000</speed>
</trkpt>
<trkpt lat="43.151596" lon="19.257910">
<ele>1284.860352</ele>
<time>2012-05-01T10:24:59Z</time>
<desc>lat.=43.151596, lon.=19.257910, Alt.=1284.860352m. Speed=6.948000m/h.</desc>
<speed>1.930000</speed>
</trkpt>
<trkpt lat="43.151649" lon="19.257992">
<ele>1284.985352</ele>
<time>2012-05-01T10:25:04Z</time>
<desc>lat.=43.151649, lon.=19.257992, Alt.=1284.985352m. Speed=6.408000m/h.</desc>
<speed>1.780000</speed>
</trkpt>
<trkpt lat="43.151730" lon="19.258055">
<ele>1285.110352</ele>
<time>2012-05-01T10:25:09Z</time>
<desc>lat.=43.151730, lon.=19.258055, Alt.=1285.110352m. Speed=7.524000m/h.</desc>
<speed>2.090000</speed>
</trkpt>
<trkpt lat="43.151787" lon="19.258160">
<ele>1285.922852</ele>
<time>2012-05-01T10:25:14Z</time>
<desc>lat.=43.151787, lon.=19.258160, Alt.=1285.922852m. Speed=7.812000m/h.</desc>
<speed>2.170000</speed>
</trkpt>
<trkpt lat="43.151859" lon="19.258265">
<ele>1286.954102</ele>
<time>2012-05-01T10:25:19Z</time>
<desc>lat.=43.151859, lon.=19.258265, Alt.=1286.954102m. Speed=8.388000m/h.</desc>
<speed>2.330000</speed>
</trkpt>
<trkpt lat="43.151924" lon="19.258366">
<ele>1288.547852</ele>
<time>2012-05-01T10:25:24Z</time>
<desc>lat.=43.151924, lon.=19.258366, Alt.=1288.547852m. Speed=7.848000m/h.</desc>
<speed>2.180000</speed>
</trkpt>
<trkpt lat="43.151997" lon="19.258457">
<ele>1289.547852</ele>
<time>2012-05-01T10:25:29Z</time>
<desc>lat.=43.151997, lon.=19.258457, Alt.=1289.547852m. Speed=7.848000m/h.</desc>
<speed>2.180000</speed>
</trkpt>
<trkpt lat="43.152054" lon="19.258532">
<ele>1291.704102</ele>
<time>2012-05-01T10:25:34Z</time>
<desc>lat.=43.152054, lon.=19.258532, Alt.=1291.704102m. Speed=8.424000m/h.</desc>
<speed>2.340000</speed>
</trkpt>
<trkpt lat="43.152130" lon="19.258640">
<ele>1292.454102</ele>
<time>2012-05-01T10:25:39Z</time>
<desc>lat.=43.152130, lon.=19.258640, Alt.=1292.454102m. Speed=8.748000m/h.</desc>
<speed>2.430000</speed>
</trkpt>
<trkpt lat="43.152222" lon="19.258722">
<ele>1293.079102</ele>
<time>2012-05-01T10:25:44Z</time>
<desc>lat.=43.152222, lon.=19.258722, Alt.=1293.079102m. Speed=8.136000m/h.</desc>
<speed>2.260000</speed>
</trkpt>
<trkpt lat="43.152321" lon="19.258783">
<ele>1293.454102</ele>
<time>2012-05-01T10:25:49Z</time>
<desc>lat.=43.152321, lon.=19.258783, Alt.=1293.454102m. Speed=8.856000m/h.</desc>
<speed>2.460000</speed>
</trkpt>
<trkpt lat="43.152424" lon="19.258844">
<ele>1293.547852</ele>
<time>2012-05-01T10:25:54Z</time>
<desc>lat.=43.152424, lon.=19.258844, Alt.=1293.547852m. Speed=8.100000m/h.</desc>
<speed>2.250000</speed>
</trkpt>
<trkpt lat="43.152504" lon="19.258869">
<ele>1294.329102</ele>
<time>2012-05-01T10:25:59Z</time>
<desc>lat.=43.152504, lon.=19.258869, Alt.=1294.329102m. Speed=7.920000m/h.</desc>
<speed>2.200000</speed>
</trkpt>
<trkpt lat="43.152599" lon="19.258896">
<ele>1294.891602</ele>
<time>2012-05-01T10:26:04Z</time>
<desc>lat.=43.152599, lon.=19.258896, Alt.=1294.891602m. Speed=8.460000m/h.</desc>
<speed>2.350000</speed>
</trkpt>
<trkpt lat="43.152706" lon="19.258936">
<ele>1295.579102</ele>
<time>2012-05-01T10:26:09Z</time>
<desc>lat.=43.152706, lon.=19.258936, Alt.=1295.579102m. Speed=8.388000m/h.</desc>
<speed>2.330000</speed>
</trkpt>
<trkpt lat="43.152802" lon="19.258924">
<ele>1297.797852</ele>
<time>2012-05-01T10:26:14Z</time>
<desc>lat.=43.152802, lon.=19.258924, Alt.=1297.797852m. Speed=8.604000m/h.</desc>
<speed>2.390000</speed>
</trkpt>
<trkpt lat="43.152882" lon="19.258835">
<ele>1298.204102</ele>
<time>2012-05-01T10:26:19Z</time>
<desc>lat.=43.152882, lon.=19.258835, Alt.=1298.204102m. Speed=6.624000m/h.</desc>
<speed>1.840000</speed>
</trkpt>
<trkpt lat="43.152901" lon="19.258791">
<ele>1298.329102</ele>
<time>2012-05-01T10:26:24Z</time>
<desc>lat.=43.152901, lon.=19.258791, Alt.=1298.329102m. Speed=0.072000m/h.</desc>
<speed>0.020000</speed>
</trkpt>
<trkpt lat="43.152901" lon="19.258793">
<ele>1298.360352</ele>
<time>2012-05-01T10:26:29Z</time>
<desc>lat.=43.152901, lon.=19.258793, Alt.=1298.360352m. Speed=0.792000m/h.</desc>
<speed>0.220000</speed>
</trkpt>
<trkpt lat="43.152901" lon="19.258780">
<ele>1298.422852</ele>
<time>2012-05-01T10:26:34Z</time>
<desc>lat.=43.152901, lon.=19.258780, Alt.=1298.422852m. Speed=0.036000m/h.</desc>
<speed>0.010000</speed>
</trkpt>
<trkpt lat="43.152901" lon="19.258778">
<ele>1298.422852</ele>
<time>2012-05-01T10:26:39Z</time>
<desc>lat.=43.152901, lon.=19.258778, Alt.=1298.422852m. Speed=0.000000m/h.</desc>
<speed>0.000000</speed>
</trkpt>
<trkpt lat="43.152901" lon="19.258778">
<ele>1298.454102</ele>
<time>2012-05-01T10:26:44Z</time>
<desc>lat.=43.152901, lon.=19.258778, Alt.=1298.454102m. Speed=0.144000m/h.</desc>
<speed>0.040000</speed>
</trkpt>
<trkpt lat="43.152901" lon="19.258772">
<ele>1298.391602</ele>
<time>2012-05-01T10:26:49Z</time>
<desc>lat.=43.152901, lon.=19.258772, Alt.=1298.391602m. Speed=0.036000m/h.</desc>
<speed>0.010000</speed>
</trkpt>
<trkpt lat="43.152908" lon="19.258781">
<ele>1298.422852</ele>
<time>2012-05-01T10:26:54Z</time>
<desc>lat.=43.152908, lon.=19.258781, Alt.=1298.422852m. Speed=0.972000m/h.</desc>
<speed>0.270000</speed>
</trkpt>
<trkpt lat="43.152901" lon="19.258797">
<ele>1299.172852</ele>
<time>2012-05-01T10:26:59Z</time>
<desc>lat.=43.152901, lon.=19.258797, Alt.=1299.172852m. Speed=0.324000m/h.</desc>
<speed>0.090000</speed>
</trkpt>
<trkpt lat="43.152901" lon="19.258801">
<ele>1299.485352</ele>
<time>2012-05-01T10:27:04Z</time>
<desc>lat.=43.152901, lon.=19.258801, Alt.=1299.485352m. Speed=0.468000m/h.</desc>
<speed>0.130000</speed>
</trkpt>
<trkpt lat="43.152897" lon="19.258802">
<ele>1299.704102</ele>
<time>2012-05-01T10:27:09Z</time>
<desc>lat.=43.152897, lon.=19.258802, Alt.=1299.704102m. Speed=0.180000m/h.</desc>
<speed>0.050000</speed>
</trkpt>
<trkpt lat="43.152893" lon="19.258804">
<ele>1299.922852</ele>
<time>2012-05-01T10:27:14Z</time>
<desc>lat.=43.152893, lon.=19.258804, Alt.=1299.922852m. Speed=0.180000m/h.</desc>
<speed>0.050000</speed>
</trkpt>
<trkpt lat="43.152893" lon="19.258804">
<ele>1300.016602</ele>
<time>2012-05-01T10:27:19Z</time>
<desc>lat.=43.152893, lon.=19.258804, Alt.=1300.016602m. Speed=0.000000m/h.</desc>
<speed>0.000000</speed>
</trkpt>
<trkpt lat="43.152893" lon="19.258804">
<ele>1300.016602</ele>
<time>2012-05-01T10:27:24Z</time>
<desc>lat.=43.152893, lon.=19.258804, Alt.=1300.016602m. Speed=0.000000m/h.</desc>
<speed>0.000000</speed>
</trkpt>
<trkpt lat="43.152893" lon="19.258804">
<ele>1300.016602</ele>
<time>2012-05-01T10:27:29Z</time>
<desc>lat.=43.152893, lon.=19.258804, Alt.=1300.016602m. Speed=0.072000m/h.</desc>
<speed>0.020000</speed>
</trkpt>
<trkpt lat="43.152893" lon="19.258806">
<ele>1300.047852</ele>
<time>2012-05-01T10:27:34Z</time>
<desc>lat.=43.152893, lon.=19.258806, Alt.=1300.047852m. Speed=0.000000m/h.</desc>
<speed>0.000000</speed>
</trkpt>
<trkpt lat="43.152893" lon="19.258804">
<ele>1300.016602</ele>
<time>2012-05-01T10:27:39Z</time>
<desc>lat.=43.152893, lon.=19.258804, Alt.=1300.016602m. Speed=0.108000m/h.</desc>
<speed>0.030000</speed>
</trkpt>
<trkpt lat="43.152893" lon="19.258804">
<ele>1300.047852</ele>
<time>2012-05-01T10:27:44Z</time>
<desc>lat.=43.152893, lon.=19.258804, Alt.=1300.047852m. Speed=0.072000m/h.</desc>
<speed>0.020000</speed>
</trkpt>
<trkpt lat="43.152893" lon="19.258804">
<ele>1300.079102</ele>
<time>2012-05-01T10:27:49Z</time>
<desc>lat.=43.152893, lon.=19.258804, Alt.=1300.079102m. Speed=0.036000m/h.</desc>
<speed>0.010000</speed>
</trkpt>
<trkpt lat="43.152897" lon="19.258804">
<ele>1300.079102</ele>
<time>2012-05-01T10:27:54Z</time>
<desc>lat.=43.152897, lon.=19.258804, Alt.=1300.079102m. Speed=0.000000m/h.</desc>
<speed>0.000000</speed>
</trkpt>
<trkpt lat="43.152897" lon="19.258804">
<ele>1300.110352</ele>
<time>2012-05-01T10:27:59Z</time>
<desc>lat.=43.152897, lon.=19.258804, Alt.=1300.110352m. Speed=0.000000m/h.</desc>
<speed>0.000000</speed>
</trkpt>
<trkpt lat="43.152897" lon="19.258804">
<ele>1300.141602</ele>
<time>2012-05-01T10:28:04Z</time>
<desc>lat.=43.152897, lon.=19.258804, Alt.=1300.141602m. Speed=0.180000m/h.</desc>
<speed>0.050000</speed>
</trkpt>
<trkpt lat="43.152893" lon="19.258718">
<ele>1300.579102</ele>
<time>2012-05-01T10:28:09Z</time>
<desc>lat.=43.152893, lon.=19.258718, Alt.=1300.579102m. Speed=7.740000m/h.</desc>
<speed>2.150000</speed>
</trkpt>
<trkpt lat="43.152863" lon="19.258608">
<ele>1300.735352</ele>
<time>2012-05-01T10:28:14Z</time>
<desc>lat.=43.152863, lon.=19.258608, Alt.=1300.735352m. Speed=5.508000m/h.</desc>
<speed>1.530000</speed>
</trkpt>
<trkpt lat="43.152817" lon="19.258520">
<ele>1301.297852</ele>
<time>2012-05-01T10:28:19Z</time>
<desc>lat.=43.152817, lon.=19.258520, Alt.=1301.297852m. Speed=5.868000m/h.</desc>
<speed>1.630000</speed>
</trkpt>
<trkpt lat="43.152718" lon="19.258461">
<ele>1303.922852</ele>
<time>2012-05-01T10:28:24Z</time>
<desc>lat.=43.152718, lon.=19.258461, Alt.=1303.922852m. Speed=9.144000m/h.</desc>
<speed>2.540000</speed>
</trkpt>
<trkpt lat="43.152592" lon="19.258392">
<ele>1305.454102</ele>
<time>2012-05-01T10:28:29Z</time>
<desc>lat.=43.152592, lon.=19.258392, Alt.=1305.454102m. Speed=8.820000m/h.</desc>
<speed>2.450000</speed>
</trkpt>
<trkpt lat="43.152508" lon="19.258327">
<ele>1306.735352</ele>
<time>2012-05-01T10:28:34Z</time>
<desc>lat.=43.152508, lon.=19.258327, Alt.=1306.735352m. Speed=2.232000m/h.</desc>
<speed>0.620000</speed>
</trkpt>
<trkpt lat="43.152500" lon="19.258320">
<ele>1306.860352</ele>
<time>2012-05-01T10:28:39Z</time>
<desc>lat.=43.152500, lon.=19.258320, Alt.=1306.860352m. Speed=0.000000m/h.</desc>
<speed>0.000000</speed>
</trkpt>
<trkpt lat="43.152500" lon="19.258320">
<ele>1306.860352</ele>
<time>2012-05-01T10:28:44Z</time>
<desc>lat.=43.152500, lon.=19.258320, Alt.=1306.860352m. Speed=0.036000m/h.</desc>
<speed>0.010000</speed>
</trkpt>
<trkpt lat="43.152500" lon="19.258320">
<ele>1306.860352</ele>
<time>2012-05-01T10:28:49Z</time>
<desc>lat.=43.152500, lon.=19.258320, Alt.=1306.860352m. Speed=0.000000m/h.</desc>
<speed>0.000000</speed>
</trkpt>
<trkpt lat="43.152500" lon="19.258320">
<ele>1306.860352</ele>
<time>2012-05-01T10:28:54Z</time>
<desc>lat.=43.152500, lon.=19.258320, Alt.=1306.860352m. Speed=0.000000m/h.</desc>
<speed>0.000000</speed>
</trkpt>
<trkpt lat="43.152500" lon="19.258320">
<ele>1306.860352</ele>
<time>2012-05-01T10:28:59Z</time>
<desc>lat.=43.152500, lon.=19.258320, Alt.=1306.860352m. Speed=0.000000m/h.</desc>
<speed>0.000000</speed>
</trkpt>
<trkpt lat="43.152500" lon="19.258320">
<ele>1306.860352</ele>
<time>2012-05-01T10:29:04Z</time>
<desc>lat.=43.152500, lon.=19.258320, Alt.=1306.860352m. Speed=0.468000m/h.</desc>
<speed>0.130000</speed>
</trkpt>
<trkpt lat="43.152466" lon="19.258268">
<ele>1307.235352</ele>
<time>2012-05-01T10:29:09Z</time>
<desc>lat.=43.152466, lon.=19.258268, Alt.=1307.235352m. Speed=7.164000m/h.</desc>
<speed>1.990000</speed>
</trkpt>
<trkpt lat="43.152382" lon="19.258194">
<ele>1307.922852</ele>
<time>2012-05-01T10:29:14Z</time>
<desc>lat.=43.152382, lon.=19.258194, Alt.=1307.922852m. Speed=9.504000m/h.</desc>
<speed>2.640000</speed>
</trkpt>
<trkpt lat="43.152302" lon="19.258070">
<ele>1308.141602</ele>
<time>2012-05-01T10:29:19Z</time>
<desc>lat.=43.152302, lon.=19.258070, Alt.=1308.141602m. Speed=9.684000m/h.</desc>
<speed>2.690000</speed>
</trkpt>
<trkpt lat="43.152256" lon="19.257923">
<ele>1309.047852</ele>
<time>2012-05-01T10:29:24Z</time>
<desc>lat.=43.152256, lon.=19.257923, Alt.=1309.047852m. Speed=8.532000m/h.</desc>
<speed>2.370000</speed>
</trkpt>
<trkpt lat="43.152218" lon="19.257778">
<ele>1309.735352</ele>
<time>2012-05-01T10:29:29Z</time>
<desc>lat.=43.152218, lon.=19.257778, Alt.=1309.735352m. Speed=9.180000m/h.</desc>
<speed>2.550000</speed>
</trkpt>
<trkpt lat="43.152176" lon="19.257629">
<ele>1310.454102</ele>
<time>2012-05-01T10:29:34Z</time>
<desc>lat.=43.152176, lon.=19.257629, Alt.=1310.454102m. Speed=9.036000m/h.</desc>
<speed>2.510000</speed>
</trkpt>
<trkpt lat="43.152138" lon="19.257490">
<ele>1312.047852</ele>
<time>2012-05-01T10:29:39Z</time>
<desc>lat.=43.152138, lon.=19.257490, Alt.=1312.047852m. Speed=8.316000m/h.</desc>
<speed>2.310000</speed>
</trkpt>
<trkpt lat="43.152100" lon="19.257360">
<ele>1313.110352</ele>
<time>2012-05-01T10:29:44Z</time>
<desc>lat.=43.152100, lon.=19.257360, Alt.=1313.110352m. Speed=8.712000m/h.</desc>
<speed>2.420000</speed>
</trkpt>
<trkpt lat="43.152088" lon="19.257271">
<ele>1313.110352</ele>
<time>2012-05-01T10:29:49Z</time>
<desc>lat.=43.152088, lon.=19.257271, Alt.=1313.110352m. Speed=2.736000m/h.</desc>
<speed>0.760000</speed>
</trkpt>
<trkpt lat="43.152050" lon="19.257195">
<ele>1313.579102</ele>
<time>2012-05-01T10:29:54Z</time>
<desc>lat.=43.152050, lon.=19.257195, Alt.=1313.579102m. Speed=7.128000m/h.</desc>
<speed>1.980000</speed>
</trkpt>
<trkpt lat="43.152000" lon="19.257090">
<ele>1314.391602</ele>
<time>2012-05-01T10:29:59Z</time>
<desc>lat.=43.152000, lon.=19.257090, Alt.=1314.391602m. Speed=8.676000m/h.</desc>
<speed>2.410000</speed>
</trkpt>
<trkpt lat="43.151962" lon="19.256977">
<ele>1314.047852</ele>
<time>2012-05-01T10:30:04Z</time>
<desc>lat.=43.151962, lon.=19.256977, Alt.=1314.047852m. Speed=6.840000m/h.</desc>
<speed>1.900000</speed>
</trkpt>
<trkpt lat="43.151928" lon="19.256861">
<ele>1313.141602</ele>
<time>2012-05-01T10:30:09Z</time>
<desc>lat.=43.151928, lon.=19.256861, Alt.=1313.141602m. Speed=7.092000m/h.</desc>
<speed>1.970000</speed>
</trkpt>
<trkpt lat="43.151867" lon="19.256746">
<ele>1312.235352</ele>
<time>2012-05-01T10:30:14Z</time>
<desc>lat.=43.151867, lon.=19.256746, Alt.=1312.235352m. Speed=7.956000m/h.</desc>
<speed>2.210000</speed>
</trkpt>
<trkpt lat="43.151814" lon="19.256662">
<ele>1311.672852</ele>
<time>2012-05-01T10:30:19Z</time>
<desc>lat.=43.151814, lon.=19.256662, Alt.=1311.672852m. Speed=4.140000m/h.</desc>
<speed>1.150000</speed>
</trkpt>
<trkpt lat="43.151749" lon="19.256577">
<ele>1311.266602</ele>
<time>2012-05-01T10:30:24Z</time>
<desc>lat.=43.151749, lon.=19.256577, Alt.=1311.266602m. Speed=7.956000m/h.</desc>
<speed>2.210000</speed>
</trkpt>
<trkpt lat="43.151676" lon="19.256502">
<ele>1311.985352</ele>
<time>2012-05-01T10:30:29Z</time>
<desc>lat.=43.151676, lon.=19.256502, Alt.=1311.985352m. Speed=10.404000m/h.</desc>
<speed>2.890000</speed>
</trkpt>
<trkpt lat="43.151615" lon="19.256454">
<ele>1313.610352</ele>
<time>2012-05-01T10:30:34Z</time>
<desc>lat.=43.151615, lon.=19.256454, Alt.=1313.610352m. Speed=2.124000m/h.</desc>
<speed>0.590000</speed>
</trkpt>
<trkpt lat="43.151562" lon="19.256397">
<ele>1315.297852</ele>
<time>2012-05-01T10:30:39Z</time>
<desc>lat.=43.151562, lon.=19.256397, Alt.=1315.297852m. Speed=7.884000m/h.</desc>
<speed>2.190000</speed>
</trkpt>
<trkpt lat="43.151470" lon="19.256334">
<ele>1318.266602</ele>
<time>2012-05-01T10:30:44Z</time>
<desc>lat.=43.151470, lon.=19.256334, Alt.=1318.266602m. Speed=6.912000m/h.</desc>
<speed>1.920000</speed>
</trkpt>
<trkpt lat="43.151371" lon="19.256256">
<ele>1318.172852</ele>
<time>2012-05-01T10:30:49Z</time>
<desc>lat.=43.151371, lon.=19.256256, Alt.=1318.172852m. Speed=7.668000m/h.</desc>
<speed>2.130000</speed>
</trkpt>
<trkpt lat="43.151272" lon="19.256208">
<ele>1319.485352</ele>
<time>2012-05-01T10:30:54Z</time>
<desc>lat.=43.151272, lon.=19.256208, Alt.=1319.485352m. Speed=7.272000m/h.</desc>
<speed>2.020000</speed>
</trkpt>
<trkpt lat="43.151180" lon="19.256128">
<ele>1318.422852</ele>
<time>2012-05-01T10:30:59Z</time>
<desc>lat.=43.151180, lon.=19.256128, Alt.=1318.422852m. Speed=8.172000m/h.</desc>
<speed>2.270000</speed>
</trkpt>
<trkpt lat="43.151093" lon="19.256044">
<ele>1319.079102</ele>
<time>2012-05-01T10:31:04Z</time>
<desc>lat.=43.151093, lon.=19.256044, Alt.=1319.079102m. Speed=8.100000m/h.</desc>
<speed>2.250000</speed>
</trkpt>
<trkpt lat="43.151035" lon="19.255945">
<ele>1320.579102</ele>
<time>2012-05-01T10:31:09Z</time>
<desc>lat.=43.151035, lon.=19.255945, Alt.=1320.579102m. Speed=8.532000m/h.</desc>
<speed>2.370000</speed>
</trkpt>
<trkpt lat="43.150993" lon="19.255800">
<ele>1321.141602</ele>
<time>2012-05-01T10:31:14Z</time>
<desc>lat.=43.150993, lon.=19.255800, Alt.=1321.141602m. Speed=8.676000m/h.</desc>
<speed>2.410000</speed>
</trkpt>
<trkpt lat="43.150970" lon="19.255661">
<ele>1320.922852</ele>
<time>2012-05-01T10:31:19Z</time>
<desc>lat.=43.150970, lon.=19.255661, Alt.=1320.922852m. Speed=7.992000m/h.</desc>
<speed>2.220000</speed>
</trkpt>
<trkpt lat="43.150982" lon="19.255548">
<ele>1319.297852</ele>
<time>2012-05-01T10:31:24Z</time>
<desc>lat.=43.150982, lon.=19.255548, Alt.=1319.297852m. Speed=7.704000m/h.</desc>
<speed>2.140000</speed>
</trkpt>
<trkpt lat="43.150940" lon="19.255413">
<ele>1321.829102</ele>
<time>2012-05-01T10:31:29Z</time>
<desc>lat.=43.150940, lon.=19.255413, Alt.=1321.829102m. Speed=8.172000m/h.</desc>
<speed>2.270000</speed>
</trkpt>
<trkpt lat="43.150928" lon="19.255276">
<ele>1323.329102</ele>
<time>2012-05-01T10:31:34Z</time>
<desc>lat.=43.150928, lon.=19.255276, Alt.=1323.329102m. Speed=8.100000m/h.</desc>
<speed>2.250000</speed>
</trkpt>
<trkpt lat="43.150909" lon="19.255184">
<ele>1325.641602</ele>
<time>2012-05-01T10:31:39Z</time>
<desc>lat.=43.150909, lon.=19.255184, Alt.=1325.641602m. Speed=3.816000m/h.</desc>
<speed>1.060000</speed>
</trkpt>
<trkpt lat="43.150925" lon="19.255075">
<ele>1325.922852</ele>
<time>2012-05-01T10:31:44Z</time>
<desc>lat.=43.150925, lon.=19.255075, Alt.=1325.922852m. Speed=6.948000m/h.</desc>
<speed>1.930000</speed>
</trkpt>
<trkpt lat="43.150932" lon="19.254969">
<ele>1326.829102</ele>
<time>2012-05-01T10:31:49Z</time>
<desc>lat.=43.150932, lon.=19.254969, Alt.=1326.829102m. Speed=5.724000m/h.</desc>
<speed>1.590000</speed>
</trkpt>
<trkpt lat="43.150917" lon="19.254869">
<ele>1329.485352</ele>
<time>2012-05-01T10:31:54Z</time>
<desc>lat.=43.150917, lon.=19.254869, Alt.=1329.485352m. Speed=6.768000m/h.</desc>
<speed>1.880000</speed>
</trkpt>
<trkpt lat="43.150913" lon="19.254780">
<ele>1330.891602</ele>
<time>2012-05-01T10:31:59Z</time>
<desc>lat.=43.150913, lon.=19.254780, Alt.=1330.891602m. Speed=4.896000m/h.</desc>
<speed>1.360000</speed>
</trkpt>
<trkpt lat="43.150917" lon="19.254667">
<ele>1332.204102</ele>
<time>2012-05-01T10:32:04Z</time>
<desc>lat.=43.150917, lon.=19.254667, Alt.=1332.204102m. Speed=7.236000m/h.</desc>
<speed>2.010000</speed>
</trkpt>
<trkpt lat="43.150925" lon="19.254530">
<ele>1332.360352</ele>
<time>2012-05-01T10:32:09Z</time>
<desc>lat.=43.150925, lon.=19.254530, Alt.=1332.360352m. Speed=7.452000m/h.</desc>
<speed>2.070000</speed>
</trkpt>
<trkpt lat="43.150928" lon="19.254465">
<ele>1331.954102</ele>
<time>2012-05-01T10:32:14Z</time>
<desc>lat.=43.150928, lon.=19.254465, Alt.=1331.954102m. Speed=4.284000m/h.</desc>
<speed>1.190000</speed>
</trkpt>
<trkpt lat="43.150936" lon="19.254354">
<ele>1331.672852</ele>
<time>2012-05-01T10:32:19Z</time>
<desc>lat.=43.150936, lon.=19.254354, Alt.=1331.672852m. Speed=7.236000m/h.</desc>
<speed>2.010000</speed>
</trkpt>
<trkpt lat="43.150936" lon="19.254230">
<ele>1331.329102</ele>
<time>2012-05-01T10:32:24Z</time>
<desc>lat.=43.150936, lon.=19.254230, Alt.=1331.329102m. Speed=5.652000m/h.</desc>
<speed>1.570000</speed>
</trkpt>
<trkpt lat="43.150932" lon="19.254118">
<ele>1330.641602</ele>
<time>2012-05-01T10:32:29Z</time>
<desc>lat.=43.150932, lon.=19.254118, Alt.=1330.641602m. Speed=7.524000m/h.</desc>
<speed>2.090000</speed>
</trkpt>
<trkpt lat="43.150894" lon="19.254007">
<ele>1330.922852</ele>
<time>2012-05-01T10:32:34Z</time>
<desc>lat.=43.150894, lon.=19.254007, Alt.=1330.922852m. Speed=11.376000m/h.</desc>
<speed>3.160000</speed>
</trkpt>
<trkpt lat="43.150864" lon="19.253893">
<ele>1330.735352</ele>
<time>2012-05-01T10:32:39Z</time>
<desc>lat.=43.150864, lon.=19.253893, Alt.=1330.735352m. Speed=6.048000m/h.</desc>
<speed>1.680000</speed>
</trkpt>
<trkpt lat="43.150829" lon="19.253799">
<ele>1330.860352</ele>
<time>2012-05-01T10:32:44Z</time>
<desc>lat.=43.150829, lon.=19.253799, Alt.=1330.860352m. Speed=6.192000m/h.</desc>
<speed>1.720000</speed>
</trkpt>
<trkpt lat="43.150764" lon="19.253719">
<ele>1335.172852</ele>
<time>2012-05-01T10:32:49Z</time>
<desc>lat.=43.150764, lon.=19.253719, Alt.=1335.172852m. Speed=8.028000m/h.</desc>
<speed>2.230000</speed>
</trkpt>
<trkpt lat="43.150669" lon="19.253645">
<ele>1338.547852</ele>
<time>2012-05-01T10:32:54Z</time>
<desc>lat.=43.150669, lon.=19.253645, Alt.=1338.547852m. Speed=8.352000m/h.</desc>
<speed>2.320000</speed>
</trkpt>
<trkpt lat="43.150574" lon="19.253563">
<ele>1341.454102</ele>
<time>2012-05-01T10:32:59Z</time>
<desc>lat.=43.150574, lon.=19.253563, Alt.=1341.454102m. Speed=5.508000m/h.</desc>
<speed>1.530000</speed>
</trkpt>
<trkpt lat="43.150501" lon="19.253418">
<ele>1340.610352</ele>
<time>2012-05-01T10:33:04Z</time>
<desc>lat.=43.150501, lon.=19.253418, Alt.=1340.610352m. Speed=8.172000m/h.</desc>
<speed>2.270000</speed>
</trkpt>
<trkpt lat="43.150429" lon="19.253271">
<ele>1338.547852</ele>
<time>2012-05-01T10:33:09Z</time>
<desc>lat.=43.150429, lon.=19.253271, Alt.=1338.547852m. Speed=4.428000m/h.</desc>
<speed>1.230000</speed>
</trkpt>
<trkpt lat="43.150383" lon="19.253176">
<ele>1338.110352</ele>
<time>2012-05-01T10:33:14Z</time>
<desc>lat.=43.150383, lon.=19.253176, Alt.=1338.110352m. Speed=8.424000m/h.</desc>
<speed>2.340000</speed>
</trkpt>
<trkpt lat="43.150345" lon="19.253094">
<ele>1338.704102</ele>
<time>2012-05-01T10:33:19Z</time>
<desc>lat.=43.150345, lon.=19.253094, Alt.=1338.704102m. Speed=6.660000m/h.</desc>
<speed>1.850000</speed>
</trkpt>
<trkpt lat="43.150307" lon="19.252941">
<ele>1338.829102</ele>
<time>2012-05-01T10:33:24Z</time>
<desc>lat.=43.150307, lon.=19.252941, Alt.=1338.829102m. Speed=11.088000m/h.</desc>
<speed>3.080000</speed>
</trkpt>
<trkpt lat="43.150284" lon="19.252832">
<ele>1338.641602</ele>
<time>2012-05-01T10:33:29Z</time>
<desc>lat.=43.150284, lon.=19.252832, Alt.=1338.641602m. Speed=6.336000m/h.</desc>
<speed>1.760000</speed>
</trkpt>
<trkpt lat="43.150284" lon="19.252682">
<ele>1337.610352</ele>
<time>2012-05-01T10:33:34Z</time>
<desc>lat.=43.150284, lon.=19.252682, Alt.=1337.610352m. Speed=7.992000m/h.</desc>
<speed>2.220000</speed>
</trkpt>
<trkpt lat="43.150265" lon="19.252535">
<ele>1338.516602</ele>
<time>2012-05-01T10:33:39Z</time>
<desc>lat.=43.150265, lon.=19.252535, Alt.=1338.516602m. Speed=10.728000m/h.</desc>
<speed>2.980000</speed>
</trkpt>
<trkpt lat="43.150253" lon="19.252386">
<ele>1340.079102</ele>
<time>2012-05-01T10:33:44Z</time>
<desc>lat.=43.150253, lon.=19.252386, Alt.=1340.079102m. Speed=8.388000m/h.</desc>
<speed>2.330000</speed>
</trkpt>
<trkpt lat="43.150257" lon="19.252226">
<ele>1340.641602</ele>
<time>2012-05-01T10:33:49Z</time>
<desc>lat.=43.150257, lon.=19.252226, Alt.=1340.641602m. Speed=9.072000m/h.</desc>
<speed>2.520000</speed>
</trkpt>
<trkpt lat="43.150276" lon="19.252117">
<ele>1340.922852</ele>
<time>2012-05-01T10:33:54Z</time>
<desc>lat.=43.150276, lon.=19.252117, Alt.=1340.922852m. Speed=5.760000m/h.</desc>
<speed>1.600000</speed>
</trkpt>
<trkpt lat="43.150311" lon="19.252024">
<ele>1340.579102</ele>
<time>2012-05-01T10:33:59Z</time>
<desc>lat.=43.150311, lon.=19.252024, Alt.=1340.579102m. Speed=5.004000m/h.</desc>
<speed>1.390000</speed>
</trkpt>
<trkpt lat="43.150322" lon="19.251949">
<ele>1340.266602</ele>
<time>2012-05-01T10:34:04Z</time>
<desc>lat.=43.150322, lon.=19.251949, Alt.=1340.266602m. Speed=2.304000m/h.</desc>
<speed>0.640000</speed>
</trkpt>
<trkpt lat="43.150333" lon="19.251945">
<ele>1340.297852</ele>
<time>2012-05-01T10:34:09Z</time>
<desc>lat.=43.150333, lon.=19.251945, Alt.=1340.297852m. Speed=0.504000m/h.</desc>
<speed>0.140000</speed>
</trkpt>
<trkpt lat="43.150333" lon="19.251945">
<ele>1340.266602</ele>
<time>2012-05-01T10:34:14Z</time>
<desc>lat.=43.150333, lon.=19.251945, Alt.=1340.266602m. Speed=0.000000m/h.</desc>
<speed>0.000000</speed>
</trkpt>
<trkpt lat="43.150333" lon="19.251945">
<ele>1340.235352</ele>
<time>2012-05-01T10:34:19Z</time>
<desc>lat.=43.150333, lon.=19.251945, Alt.=1340.235352m. Speed=0.036000m/h.</desc>
<speed>0.010000</speed>
</trkpt>
<trkpt lat="43.150333" lon="19.251947">
<ele>1340.266602</ele>
<time>2012-05-01T10:34:24Z</time>
<desc>lat.=43.150333, lon.=19.251947, Alt.=1340.266602m. Speed=0.036000m/h.</desc>
<speed>0.010000</speed>
</trkpt>
<trkpt lat="43.150333" lon="19.251947">
<ele>1340.266602</ele>
<time>2012-05-01T10:34:29Z</time>
<desc>lat.=43.150333, lon.=19.251947, Alt.=1340.266602m. Speed=0.108000m/h.</desc>
<speed>0.030000</speed>
</trkpt>
<trkpt lat="43.150333" lon="19.251947">
<ele>1340.297852</ele>
<time>2012-05-01T10:34:34Z</time>
<desc>lat.=43.150333, lon.=19.251947, Alt.=1340.297852m. Speed=0.000000m/h.</desc>
<speed>0.000000</speed>
</trkpt>
<trkpt lat="43.150333" lon="19.251947">
<ele>1340.297852</ele>
<time>2012-05-01T10:34:39Z</time>
<desc>lat.=43.150333, lon.=19.251947, Alt.=1340.297852m. Speed=0.000000m/h.</desc>
<speed>0.000000</speed>
</trkpt>
<trkpt lat="43.150333" lon="19.251944">
<ele>1340.297852</ele>
<time>2012-05-01T10:34:44Z</time>
<desc>lat.=43.150333, lon.=19.251944, Alt.=1340.297852m. Speed=1.548000m/h.</desc>
<speed>0.430000</speed>
</trkpt>
<trkpt lat="43.150352" lon="19.251940">
<ele>1341.579102</ele>
<time>2012-05-01T10:34:49Z</time>
<desc>lat.=43.150352, lon.=19.251940, Alt.=1341.579102m. Speed=0.144000m/h.</desc>
<speed>0.040000</speed>
</trkpt>
<trkpt lat="43.150360" lon="19.251947">
<ele>1342.391602</ele>
<time>2012-05-01T10:34:54Z</time>
<desc>lat.=43.150360, lon.=19.251947, Alt.=1342.391602m. Speed=0.000000m/h.</desc>
<speed>0.000000</speed>
</trkpt>
<trkpt lat="43.150360" lon="19.251947">
<ele>1342.454102</ele>
<time>2012-05-01T10:34:59Z</time>
<desc>lat.=43.150360, lon.=19.251947, Alt.=1342.454102m. Speed=0.000000m/h.</desc>
<speed>0.000000</speed>
</trkpt>
<trkpt lat="43.150360" lon="19.251947">
<ele>1342.485352</ele>
<time>2012-05-01T10:35:04Z</time>
<desc>lat.=43.150360, lon.=19.251947, Alt.=1342.485352m. Speed=0.000000m/h.</desc>
<speed>0.000000</speed>
</trkpt>
<trkpt lat="43.150360" lon="19.251947">
<ele>1342.485352</ele>
<time>2012-05-01T10:35:09Z</time>
<desc>lat.=43.150360, lon.=19.251947, Alt.=1342.485352m. Speed=0.036000m/h.</desc>
<speed>0.010000</speed>
</trkpt>
<trkpt lat="43.150356" lon="19.251947">
<ele>1342.485352</ele>
<time>2012-05-01T10:35:14Z</time>
<desc>lat.=43.150356, lon.=19.251947, Alt.=1342.485352m. Speed=0.000000m/h.</desc>
<speed>0.000000</speed>
</trkpt>
<trkpt lat="43.150356" lon="19.251947">
<ele>1342.454102</ele>
<time>2012-05-01T10:35:19Z</time>
<desc>lat.=43.150356, lon.=19.251947, Alt.=1342.454102m. Speed=0.000000m/h.</desc>
<speed>0.000000</speed>
</trkpt>
<trkpt lat="43.150356" lon="19.251947">
<ele>1342.454102</ele>
<time>2012-05-01T10:35:24Z</time>
<desc>lat.=43.150356, lon.=19.251947, Alt.=1342.454102m. Speed=0.000000m/h.</desc>
<speed>0.000000</speed>
</trkpt>
<trkpt lat="43.150356" lon="19.251947">
<ele>1342.422852</ele>
<time>2012-05-01T10:35:29Z</time>
<desc>lat.=43.150356, lon.=19.251947, Alt.=1342.422852m. Speed=0.072000m/h.</desc>
<speed>0.020000</speed>
</trkpt>
<trkpt lat="43.150356" lon="19.251947">
<ele>1342.422852</ele>
<time>2012-05-01T10:35:34Z</time>
<desc>lat.=43.150356, lon.=19.251947, Alt.=1342.422852m. Speed=0.000000m/h.</desc>
<speed>0.000000</speed>
</trkpt>
<trkpt lat="43.150356" lon="19.251947">
<ele>1342.422852</ele>
<time>2012-05-01T10:35:39Z</time>
<desc>lat.=43.150356, lon.=19.251947, Alt.=1342.422852m. Speed=0.000000m/h.</desc>
<speed>0.000000</speed>
</trkpt>
<trkpt lat="43.150356" lon="19.251947">
<ele>1342.454102</ele>
<time>2012-05-01T10:35:44Z</time>
<desc>lat.=43.150356, lon.=19.251947, Alt.=1342.454102m. Speed=0.000000m/h.</desc>
<speed>0.000000</speed>
</trkpt>
<trkpt lat="43.150356" lon="19.251947">
<ele>1342.454102</ele>
<time>2012-05-01T10:35:49Z</time>
<desc>lat.=43.150356, lon.=19.251947, Alt.=1342.454102m. Speed=0.036000m/h.</desc>
<speed>0.010000</speed>
</trkpt>
<trkpt lat="43.150356" lon="19.251947">
<ele>1342.454102</ele>
<time>2012-05-01T10:35:54Z</time>
<desc>lat.=43.150356, lon.=19.251947, Alt.=1342.454102m. Speed=0.000000m/h.</desc>
<speed>0.000000</speed>
</trkpt>
<trkpt lat="43.150356" lon="19.251947">
<ele>1342.454102</ele>
<time>2012-05-01T10:35:59Z</time>
<desc>lat.=43.150356, lon.=19.251947, Alt.=1342.454102m. Speed=0.000000m/h.</desc>
<speed>0.000000</speed>
</trkpt>
<trkpt lat="43.150356" lon="19.251947">
<ele>1342.485352</ele>
<time>2012-05-01T10:36:04Z</time>
<desc>lat.=43.150356, lon.=19.251947, Alt.=1342.485352m. Speed=0.072000m/h.</desc>
<speed>0.020000</speed>
</trkpt>
<trkpt lat="43.150356" lon="19.251947">
<ele>1342.485352</ele>
<time>2012-05-01T10:36:09Z</time>
<desc>lat.=43.150356, lon.=19.251947, Alt.=1342.485352m. Speed=0.036000m/h.</desc>
<speed>0.010000</speed>
</trkpt>
<trkpt lat="43.150356" lon="19.251947">
<ele>1342.485352</ele>
<time>2012-05-01T10:36:14Z</time>
<desc>lat.=43.150356, lon.=19.251947, Alt.=1342.485352m. Speed=0.000000m/h.</desc>
<speed>0.000000</speed>
</trkpt>
<trkpt lat="43.150356" lon="19.251947">
<ele>1342.485352</ele>
<time>2012-05-01T10:36:19Z</time>
<desc>lat.=43.150356, lon.=19.251947, Alt.=1342.485352m. Speed=0.000000m/h.</desc>
<speed>0.000000</speed>
</trkpt>
<trkpt lat="43.150356" lon="19.251947">
<ele>1342.485352</ele>
<time>2012-05-01T10:36:24Z</time>
<desc>lat.=43.150356, lon.=19.251947, Alt.=1342.485352m. Speed=0.000000m/h.</desc>
<speed>0.000000</speed>
</trkpt>
<trkpt lat="43.150356" lon="19.251947">
<ele>1342.485352</ele>
<time>2012-05-01T10:36:29Z</time>
<desc>lat.=43.150356, lon.=19.251947, Alt.=1342.485352m. Speed=0.000000m/h.</desc>
<speed>0.000000</speed>
</trkpt>
<trkpt lat="43.150356" lon="19.251947">
<ele>1342.485352</ele>
<time>2012-05-01T10:36:34Z</time>
<desc>lat.=43.150356, lon.=19.251947, Alt.=1342.485352m. Speed=0.000000m/h.</desc>
<speed>0.000000</speed>
</trkpt>
<trkpt lat="43.150356" lon="19.251947">
<ele>1342.516602</ele>
<time>2012-05-01T10:36:39Z</time>
<desc>lat.=43.150356, lon.=19.251947, Alt.=1342.516602m. Speed=0.000000m/h.</desc>
<speed>0.000000</speed>
</trkpt>
<trkpt lat="43.150356" lon="19.251949">
<ele>1342.516602</ele>
<time>2012-05-01T10:36:44Z</time>
<desc>lat.=43.150356, lon.=19.251949, Alt.=1342.516602m. Speed=0.072000m/h.</desc>
<speed>0.020000</speed>
</trkpt>
<trkpt lat="43.150356" lon="19.251949">
<ele>1342.516602</ele>
<time>2012-05-01T10:36:49Z</time>
<desc>lat.=43.150356, lon.=19.251949, Alt.=1342.516602m. Speed=0.036000m/h.</desc>
<speed>0.010000</speed>
</trkpt>
<trkpt lat="43.150356" lon="19.251949">
<ele>1342.547852</ele>
<time>2012-05-01T10:36:54Z</time>
<desc>lat.=43.150356, lon.=19.251949, Alt.=1342.547852m. Speed=0.000000m/h.</desc>
<speed>0.000000</speed>
</trkpt>
<trkpt lat="43.150352" lon="19.251949">
<ele>1342.547852</ele>
<time>2012-05-01T10:36:59Z</time>
<desc>lat.=43.150352, lon.=19.251949, Alt.=1342.547852m. Speed=0.036000m/h.</desc>
<speed>0.010000</speed>
</trkpt>
<trkpt lat="43.150352" lon="19.251949">
<ele>1342.579102</ele>
<time>2012-05-01T10:37:04Z</time>
<desc>lat.=43.150352, lon.=19.251949, Alt.=1342.579102m. Speed=0.036000m/h.</desc>
<speed>0.010000</speed>
</trkpt>
<trkpt lat="43.150352" lon="19.251949">
<ele>1342.579102</ele>
<time>2012-05-01T10:37:09Z</time>
<desc>lat.=43.150352, lon.=19.251949, Alt.=1342.579102m. Speed=0.036000m/h.</desc>
<speed>0.010000</speed>
</trkpt>
<trkpt lat="43.150352" lon="19.251949">
<ele>1342.610352</ele>
<time>2012-05-01T10:37:14Z</time>
<desc>lat.=43.150352, lon.=19.251949, Alt.=1342.610352m. Speed=0.036000m/h.</desc>
<speed>0.010000</speed>
</trkpt>
<trkpt lat="43.150352" lon="19.251949">
<ele>1342.610352</ele>
<time>2012-05-01T10:37:19Z</time>
<desc>lat.=43.150352, lon.=19.251949, Alt.=1342.610352m. Speed=0.036000m/h.</desc>
<speed>0.010000</speed>
</trkpt>
<trkpt lat="43.150352" lon="19.251951">
<ele>1342.641602</ele>
<time>2012-05-01T10:37:24Z</time>
<desc>lat.=43.150352, lon.=19.251951, Alt.=1342.641602m. Speed=0.000000m/h.</desc>
<speed>0.000000</speed>
</trkpt>
<trkpt lat="43.150352" lon="19.251951">
<ele>1342.641602</ele>
<time>2012-05-01T10:37:29Z</time>
<desc>lat.=43.150352, lon.=19.251951, Alt.=1342.641602m. Speed=0.036000m/h.</desc>
<speed>0.010000</speed>
</trkpt>
<trkpt lat="43.150352" lon="19.251951">
<ele>1342.704102</ele>
<time>2012-05-01T10:37:34Z</time>
<desc>lat.=43.150352, lon.=19.251951, Alt.=1342.704102m. Speed=0.036000m/h.</desc>
<speed>0.010000</speed>
</trkpt>
<trkpt lat="43.150352" lon="19.251951">
<ele>1342.704102</ele>
<time>2012-05-01T10:37:39Z</time>
<desc>lat.=43.150352, lon.=19.251951, Alt.=1342.704102m. Speed=0.036000m/h.</desc>
<speed>0.010000</speed>
</trkpt>
<trkpt lat="43.150352" lon="19.251951">
<ele>1342.704102</ele>
<time>2012-05-01T10:37:44Z</time>
<desc>lat.=43.150352, lon.=19.251951, Alt.=1342.704102m. Speed=0.072000m/h.</desc>
<speed>0.020000</speed>
</trkpt>
<trkpt lat="43.150352" lon="19.251951">
<ele>1342.704102</ele>
<time>2012-05-01T10:37:49Z</time>
<desc>lat.=43.150352, lon.=19.251951, Alt.=1342.704102m. Speed=0.036000m/h.</desc>
<speed>0.010000</speed>
</trkpt>
<trkpt lat="43.150352" lon="19.251951">
<ele>1342.735352</ele>
<time>2012-05-01T10:37:54Z</time>
<desc>lat.=43.150352, lon.=19.251951, Alt.=1342.735352m. Speed=0.000000m/h.</desc>
<speed>0.000000</speed>
</trkpt>
<trkpt lat="43.150352" lon="19.251951">
<ele>1342.766602</ele>
<time>2012-05-01T10:37:59Z</time>
<desc>lat.=43.150352, lon.=19.251951, Alt.=1342.766602m. Speed=0.036000m/h.</desc>
<speed>0.010000</speed>
</trkpt>
<trkpt lat="43.150352" lon="19.251951">
<ele>1342.797852</ele>
<time>2012-05-01T10:38:04Z</time>
<desc>lat.=43.150352, lon.=19.251951, Alt.=1342.797852m. Speed=0.000000m/h.</desc>
<speed>0.000000</speed>
</trkpt>
<trkpt lat="43.150352" lon="19.251951">
<ele>1342.829102</ele>
<time>2012-05-01T10:38:09Z</time>
<desc>lat.=43.150352, lon.=19.251951, Alt.=1342.829102m. Speed=0.000000m/h.</desc>
<speed>0.000000</speed>
</trkpt>
<trkpt lat="43.150352" lon="19.251951">
<ele>1342.829102</ele>
<time>2012-05-01T10:38:14Z</time>
<desc>lat.=43.150352, lon.=19.251951, Alt.=1342.829102m. Speed=0.000000m/h.</desc>
<speed>0.000000</speed>
</trkpt>
<trkpt lat="43.150352" lon="19.251951">
<ele>1342.860352</ele>
<time>2012-05-01T10:38:19Z</time>
<desc>lat.=43.150352, lon.=19.251951, Alt.=1342.860352m. Speed=0.000000m/h.</desc>
<speed>0.000000</speed>
</trkpt>
<trkpt lat="43.150352" lon="19.251951">
<ele>1342.891602</ele>
<time>2012-05-01T10:38:24Z</time>
<desc>lat.=43.150352, lon.=19.251951, Alt.=1342.891602m. Speed=0.000000m/h.</desc>
<speed>0.000000</speed>
</trkpt>
<trkpt lat="43.150352" lon="19.251951">
<ele>1342.922852</ele>
<time>2012-05-01T10:38:29Z</time>
<desc>lat.=43.150352, lon.=19.251951, Alt.=1342.922852m. Speed=0.000000m/h.</desc>
<speed>0.000000</speed>
</trkpt>
<trkpt lat="43.150349" lon="19.251951">
<ele>1342.891602</ele>
<time>2012-05-01T10:38:34Z</time>
<desc>lat.=43.150349, lon.=19.251951, Alt.=1342.891602m. Speed=0.036000m/h.</desc>
<speed>0.010000</speed>
</trkpt>
<trkpt lat="43.150349" lon="19.251951">
<ele>1342.922852</ele>
<time>2012-05-01T10:38:39Z</time>
<desc>lat.=43.150349, lon.=19.251951, Alt.=1342.922852m. Speed=0.000000m/h.</desc>
<speed>0.000000</speed>
</trkpt>
<trkpt lat="43.150349" lon="19.251951">
<ele>1342.954102</ele>
<time>2012-05-01T10:38:44Z</time>
<desc>lat.=43.150349, lon.=19.251951, Alt.=1342.954102m. Speed=0.036000m/h.</desc>
<speed>0.010000</speed>
</trkpt>
<trkpt lat="43.150349" lon="19.251951">
<ele>1342.985352</ele>
<time>2012-05-01T10:38:49Z</time>
<desc>lat.=43.150349, lon.=19.251951, Alt.=1342.985352m. Speed=0.036000m/h.</desc>
<speed>0.010000</speed>
</trkpt>
<trkpt lat="43.150349" lon="19.251953">
<ele>1343.016602</ele>
<time>2012-05-01T10:38:54Z</time>
<desc>lat.=43.150349, lon.=19.251953, Alt.=1343.016602m. Speed=0.036000m/h.</desc>
<speed>0.010000</speed>
</trkpt>
<trkpt lat="43.150349" lon="19.251953">
<ele>1343.079102</ele>
<time>2012-05-01T10:38:59Z</time>
<desc>lat.=43.150349, lon.=19.251953, Alt.=1343.079102m. Speed=0.036000m/h.</desc>
<speed>0.010000</speed>
</trkpt>
<trkpt lat="43.150349" lon="19.251953">
<ele>1343.110352</ele>
<time>2012-05-01T10:39:04Z</time>
<desc>lat.=43.150349, lon.=19.251953, Alt.=1343.110352m. Speed=0.072000m/h.</desc>
<speed>0.020000</speed>
</trkpt>
<trkpt lat="43.150349" lon="19.251953">
<ele>1343.141602</ele>
<time>2012-05-01T10:39:09Z</time>
<desc>lat.=43.150349, lon.=19.251953, Alt.=1343.141602m. Speed=0.036000m/h.</desc>
<speed>0.010000</speed>
</trkpt>
<trkpt lat="43.150349" lon="19.251953">
<ele>1343.141602</ele>
<time>2012-05-01T10:39:14Z</time>
<desc>lat.=43.150349, lon.=19.251953, Alt.=1343.141602m. Speed=0.036000m/h.</desc>
<speed>0.010000</speed>
</trkpt>
<trkpt lat="43.150349" lon="19.251953">
<ele>1343.141602</ele>
<time>2012-05-01T10:39:19Z</time>
<desc>lat.=43.150349, lon.=19.251953, Alt.=1343.141602m. Speed=0.036000m/h.</desc>
<speed>0.010000</speed>
</trkpt>
<trkpt lat="43.150349" lon="19.251953">
<ele>1343.172852</ele>
<time>2012-05-01T10:39:24Z</time>
<desc>lat.=43.150349, lon.=19.251953, Alt.=1343.172852m. Speed=0.036000m/h.</desc>
<speed>0.010000</speed>
</trkpt>
<trkpt lat="43.150349" lon="19.251953">
<ele>1343.204102</ele>
<time>2012-05-01T10:39:29Z</time>
<desc>lat.=43.150349, lon.=19.251953, Alt.=1343.204102m. Speed=0.036000m/h.</desc>
<speed>0.010000</speed>
</trkpt>
<trkpt lat="43.150349" lon="19.251953">
<ele>1343.235352</ele>
<time>2012-05-01T10:39:34Z</time>
<desc>lat.=43.150349, lon.=19.251953, Alt.=1343.235352m. Speed=0.576000m/h.</desc>
<speed>0.160000</speed>
</trkpt>
<trkpt lat="43.150345" lon="19.251953">
<ele>1343.235352</ele>
<time>2012-05-01T10:39:39Z</time>
<desc>lat.=43.150345, lon.=19.251953, Alt.=1343.235352m. Speed=0.072000m/h.</desc>
<speed>0.020000</speed>
</trkpt>
<trkpt lat="43.150345" lon="19.251953">
<ele>1343.204102</ele>
<time>2012-05-01T10:39:44Z</time>
<desc>lat.=43.150345, lon.=19.251953, Alt.=1343.204102m. Speed=0.036000m/h.</desc>
<speed>0.010000</speed>
</trkpt>
<trkpt lat="43.150345" lon="19.251953">
<ele>1343.235352</ele>
<time>2012-05-01T10:39:49Z</time>
<desc>lat.=43.150345, lon.=19.251953, Alt.=1343.235352m. Speed=0.000000m/h.</desc>
<speed>0.000000</speed>
</trkpt>
<trkpt lat="43.150345" lon="19.251955">
<ele>1343.235352</ele>
<time>2012-05-01T10:39:54Z</time>
<desc>lat.=43.150345, lon.=19.251955, Alt.=1343.235352m. Speed=0.108000m/h.</desc>
<speed>0.030000</speed>
</trkpt>
<trkpt lat="43.150345" lon="19.251955">
<ele>1343.266602</ele>
<time>2012-05-01T10:39:59Z</time>
<desc>lat.=43.150345, lon.=19.251955, Alt.=1343.266602m. Speed=0.216000m/h.</desc>
<speed>0.060000</speed>
</trkpt>
<trkpt lat="43.150345" lon="19.251955">
<ele>1343.297852</ele>
<time>2012-05-01T10:40:04Z</time>
<desc>lat.=43.150345, lon.=19.251955, Alt.=1343.297852m. Speed=0.036000m/h.</desc>
<speed>0.010000</speed>
</trkpt>
<trkpt lat="43.150341" lon="19.251955">
<ele>1343.297852</ele>
<time>2012-05-01T10:40:09Z</time>
<desc>lat.=43.150341, lon.=19.251955, Alt.=1343.297852m. Speed=0.000000m/h.</desc>
<speed>0.000000</speed>
</trkpt>
<trkpt lat="43.150341" lon="19.251955">
<ele>1343.329102</ele>
<time>2012-05-01T10:40:14Z</time>
<desc>lat.=43.150341, lon.=19.251955, Alt.=1343.329102m. Speed=0.072000m/h.</desc>
<speed>0.020000</speed>
</trkpt>
<trkpt lat="43.150341" lon="19.251957">
<ele>1343.360352</ele>
<time>2012-05-01T10:40:19Z</time>
<desc>lat.=43.150341, lon.=19.251957, Alt.=1343.360352m. Speed=0.072000m/h.</desc>
<speed>0.020000</speed>
</trkpt>
<trkpt lat="43.150341" lon="19.251957">
<ele>1343.391602</ele>
<time>2012-05-01T10:40:24Z</time>
<desc>lat.=43.150341, lon.=19.251957, Alt.=1343.391602m. Speed=0.036000m/h.</desc>
<speed>0.010000</speed>
</trkpt>
<trkpt lat="43.150341" lon="19.251957">
<ele>1343.422852</ele>
<time>2012-05-01T10:40:29Z</time>
<desc>lat.=43.150341, lon.=19.251957, Alt.=1343.422852m. Speed=0.000000m/h.</desc>
<speed>0.000000</speed>
</trkpt>
<trkpt lat="43.150341" lon="19.251957">
<ele>1343.422852</ele>
<time>2012-05-01T10:40:34Z</time>
<desc>lat.=43.150341, lon.=19.251957, Alt.=1343.422852m. Speed=0.036000m/h.</desc>
<speed>0.010000</speed>
</trkpt>
<trkpt lat="43.150341" lon="19.251957">
<ele>1343.422852</ele>
<time>2012-05-01T10:40:39Z</time>
<desc>lat.=43.150341, lon.=19.251957, Alt.=1343.422852m. Speed=0.000000m/h.</desc>
<speed>0.000000</speed>
</trkpt>
<trkpt lat="43.150341" lon="19.251957">
<ele>1343.454102</ele>
<time>2012-05-01T10:40:44Z</time>
<desc>lat.=43.150341, lon.=19.251957, Alt.=1343.454102m. Speed=0.036000m/h.</desc>
<speed>0.010000</speed>
</trkpt>
<trkpt lat="43.150337" lon="19.251957">
<ele>1343.454102</ele>
<time>2012-05-01T10:40:49Z</time>
<desc>lat.=43.150337, lon.=19.251957, Alt.=1343.454102m. Speed=0.000000m/h.</desc>
<speed>0.000000</speed>
</trkpt>
<trkpt lat="43.150337" lon="19.251957">
<ele>1343.454102</ele>
<time>2012-05-01T10:40:54Z</time>
<desc>lat.=43.150337, lon.=19.251957, Alt.=1343.454102m. Speed=0.036000m/h.</desc>
<speed>0.010000</speed>
</trkpt>
<trkpt lat="43.150337" lon="19.251957">
<ele>1343.454102</ele>
<time>2012-05-01T10:40:59Z</time>
<desc>lat.=43.150337, lon.=19.251957, Alt.=1343.454102m. Speed=0.000000m/h.</desc>
<speed>0.000000</speed>
</trkpt>
<trkpt lat="43.150337" lon="19.251957">
<ele>1343.485352</ele>
<time>2012-05-01T10:41:04Z</time>
<desc>lat.=43.150337, lon.=19.251957, Alt.=1343.485352m. Speed=0.000000m/h.</desc>
<speed>0.000000</speed>
</trkpt>
<trkpt lat="43.150337" lon="19.251957">
<ele>1343.485352</ele>
<time>2012-05-01T10:41:09Z</time>
<desc>lat.=43.150337, lon.=19.251957, Alt.=1343.485352m. Speed=0.000000m/h.</desc>
<speed>0.000000</speed>
</trkpt>
<trkpt lat="43.150337" lon="19.251959">
<ele>1343.485352</ele>
<time>2012-05-01T10:41:14Z</time>
<desc>lat.=43.150337, lon.=19.251959, Alt.=1343.485352m. Speed=0.000000m/h.</desc>
<speed>0.000000</speed>
</trkpt>
<trkpt lat="43.150337" lon="19.251959">
<ele>1343.516602</ele>
<time>2012-05-01T10:41:19Z</time>
<desc>lat.=43.150337, lon.=19.251959, Alt.=1343.516602m. Speed=0.144000m/h.</desc>
<speed>0.040000</speed>
</trkpt>
<trkpt lat="43.150337" lon="19.251959">
<ele>1343.547852</ele>
<time>2012-05-01T10:41:24Z</time>
<desc>lat.=43.150337, lon.=19.251959, Alt.=1343.547852m. Speed=0.036000m/h.</desc>
<speed>0.010000</speed>
</trkpt>
<trkpt lat="43.150337" lon="19.251959">
<ele>1343.547852</ele>
<time>2012-05-01T10:41:29Z</time>
<desc>lat.=43.150337, lon.=19.251959, Alt.=1343.547852m. Speed=0.000000m/h.</desc>
<speed>0.000000</speed>
</trkpt>
<trkpt lat="43.150337" lon="19.251959">
<ele>1343.579102</ele>
<time>2012-05-01T10:41:34Z</time>
<desc>lat.=43.150337, lon.=19.251959, Alt.=1343.579102m. Speed=0.000000m/h.</desc>
<speed>0.000000</speed>
</trkpt>
<trkpt lat="43.150337" lon="19.251959">
<ele>1343.610352</ele>
<time>2012-05-01T10:41:39Z</time>
<desc>lat.=43.150337, lon.=19.251959, Alt.=1343.610352m. Speed=0.000000m/h.</desc>
<speed>0.000000</speed>
</trkpt>
<trkpt lat="43.150337" lon="19.251959">
<ele>1343.610352</ele>
<time>2012-05-01T10:41:44Z</time>
<desc>lat.=43.150337, lon.=19.251959, Alt.=1343.610352m. Speed=0.036000m/h.</desc>
<speed>0.010000</speed>
</trkpt>
<trkpt lat="43.150337" lon="19.251959">
<ele>1343.610352</ele>
<time>2012-05-01T10:41:49Z</time>
<desc>lat.=43.150337, lon.=19.251959, Alt.=1343.610352m. Speed=0.000000m/h.</desc>
<speed>0.000000</speed>
</trkpt>
<trkpt lat="43.150337" lon="19.251959">
<ele>1343.610352</ele>
<time>2012-05-01T10:41:54Z</time>
<desc>lat.=43.150337, lon.=19.251959, Alt.=1343.610352m. Speed=0.000000m/h.</desc>
<speed>0.000000</speed>
</trkpt>
<trkpt lat="43.150337" lon="19.251959">
<ele>1343.610352</ele>
<time>2012-05-01T10:41:59Z</time>
<desc>lat.=43.150337, lon.=19.251959, Alt.=1343.610352m. Speed=0.072000m/h.</desc>
<speed>0.020000</speed>
</trkpt>
<trkpt lat="43.150333" lon="19.251959">
<ele>1343.610352</ele>
<time>2012-05-01T10:42:04Z</time>
<desc>lat.=43.150333, lon.=19.251959, Alt.=1343.610352m. Speed=0.108000m/h.</desc>
<speed>0.030000</speed>
</trkpt>
<trkpt lat="43.150333" lon="19.251961">
<ele>1343.641602</ele>
<time>2012-05-01T10:42:09Z</time>
<desc>lat.=43.150333, lon.=19.251961, Alt.=1343.641602m. Speed=0.036000m/h.</desc>
<speed>0.010000</speed>
</trkpt>
<trkpt lat="43.150333" lon="19.251961">
<ele>1343.641602</ele>
<time>2012-05-01T10:42:14Z</time>
<desc>lat.=43.150333, lon.=19.251961, Alt.=1343.641602m. Speed=0.036000m/h.</desc>
<speed>0.010000</speed>
</trkpt>
<trkpt lat="43.150333" lon="19.251961">
<ele>1343.641602</ele>
<time>2012-05-01T10:42:19Z</time>
<desc>lat.=43.150333, lon.=19.251961, Alt.=1343.641602m. Speed=0.000000m/h.</desc>
<speed>0.000000</speed>
</trkpt>
<trkpt lat="43.150333" lon="19.251961">
<ele>1343.672852</ele>
<time>2012-05-01T10:42:24Z</time>
<desc>lat.=43.150333, lon.=19.251961, Alt.=1343.672852m. Speed=0.036000m/h.</desc>
<speed>0.010000</speed>
</trkpt>
<trkpt lat="43.150333" lon="19.251961">
<ele>1343.704102</ele>
<time>2012-05-01T10:42:29Z</time>
<desc>lat.=43.150333, lon.=19.251961, Alt.=1343.704102m. Speed=0.072000m/h.</desc>
<speed>0.020000</speed>
</trkpt>
<trkpt lat="43.150333" lon="19.251963">
<ele>1343.735352</ele>
<time>2012-05-01T10:42:34Z</time>
<desc>lat.=43.150333, lon.=19.251963, Alt.=1343.735352m. Speed=0.000000m/h.</desc>
<speed>0.000000</speed>
</trkpt>
<trkpt lat="43.150330" lon="19.251963">
<ele>1343.766602</ele>
<time>2012-05-01T10:42:39Z</time>
<desc>lat.=43.150330, lon.=19.251963, Alt.=1343.766602m. Speed=0.000000m/h.</desc>
<speed>0.000000</speed>
</trkpt>
<trkpt lat="43.150330" lon="19.251963">
<ele>1343.797852</ele>
<time>2012-05-01T10:42:44Z</time>
<desc>lat.=43.150330, lon.=19.251963, Alt.=1343.797852m. Speed=0.000000m/h.</desc>
<speed>0.000000</speed>
</trkpt>
<trkpt lat="43.150330" lon="19.251963">
<ele>1343.829102</ele>
<time>2012-05-01T10:42:49Z</time>
<desc>lat.=43.150330, lon.=19.251963, Alt.=1343.829102m. Speed=0.000000m/h.</desc>
<speed>0.000000</speed>
</trkpt>
<trkpt lat="43.150330" lon="19.251963">
<ele>1343.829102</ele>
<time>2012-05-01T10:42:54Z</time>
<desc>lat.=43.150330, lon.=19.251963, Alt.=1343.829102m. Speed=0.000000m/h.</desc>
<speed>0.000000</speed>
</trkpt>
<trkpt lat="43.150330" lon="19.251963">
<ele>1343.829102</ele>
<time>2012-05-01T10:42:59Z</time>
<desc>lat.=43.150330, lon.=19.251963, Alt.=1343.829102m. Speed=0.000000m/h.</desc>
<speed>0.000000</speed>
</trkpt>
<trkpt lat="43.150330" lon="19.251963">
<ele>1343.829102</ele>
<time>2012-05-01T10:43:04Z</time>
<desc>lat.=43.150330, lon.=19.251963, Alt.=1343.829102m. Speed=0.000000m/h.</desc>
<speed>0.000000</speed>
</trkpt>
<trkpt lat="43.150330" lon="19.251963">
<ele>1343.829102</ele>
<time>2012-05-01T10:43:09Z</time>
<desc>lat.=43.150330, lon.=19.251963, Alt.=1343.829102m. Speed=0.036000m/h.</desc>
<speed>0.010000</speed>
</trkpt>
<trkpt lat="43.150330" lon="19.251963">
<ele>1343.829102</ele>
<time>2012-05-01T10:43:14Z</time>
<desc>lat.=43.150330, lon.=19.251963, Alt.=1343.829102m. Speed=0.000000m/h.</desc>
<speed>0.000000</speed>
</trkpt>
<trkpt lat="43.150330" lon="19.251965">
<ele>1343.829102</ele>
<time>2012-05-01T10:43:19Z</time>
<desc>lat.=43.150330, lon.=19.251965, Alt.=1343.829102m. Speed=0.000000m/h.</desc>
<speed>0.000000</speed>
</trkpt>
<trkpt lat="43.150330" lon="19.251965">
<ele>1343.829102</ele>
<time>2012-05-01T10:43:24Z</time>
<desc>lat.=43.150330, lon.=19.251965, Alt.=1343.829102m. Speed=0.000000m/h.</desc>
<speed>0.000000</speed>
</trkpt>
<trkpt lat="43.150330" lon="19.251965">
<ele>1343.860352</ele>
<time>2012-05-01T10:43:29Z</time>
<desc>lat.=43.150330, lon.=19.251965, Alt.=1343.860352m. Speed=0.036000m/h.</desc>
<speed>0.010000</speed>
</trkpt>
<trkpt lat="43.150330" lon="19.251965">
<ele>1343.860352</ele>
<time>2012-05-01T10:43:34Z</time>
<desc>lat.=43.150330, lon.=19.251965, Alt.=1343.860352m. Speed=0.000000m/h.</desc>
<speed>0.000000</speed>
</trkpt>
<trkpt lat="43.150330" lon="19.251965">
<ele>1343.860352</ele>
<time>2012-05-01T10:43:39Z</time>
<desc>lat.=43.150330, lon.=19.251965, Alt.=1343.860352m. Speed=0.072000m/h.</desc>
<speed>0.020000</speed>
</trkpt>
<trkpt lat="43.150326" lon="19.251966">
<ele>1343.704102</ele>
<time>2012-05-01T10:43:44Z</time>
<desc>lat.=43.150326, lon.=19.251966, Alt.=1343.704102m. Speed=0.108000m/h.</desc>
<speed>0.030000</speed>
</trkpt>
<trkpt lat="43.150326" lon="19.251966">
<ele>1343.735352</ele>
<time>2012-05-01T10:43:49Z</time>
<desc>lat.=43.150326, lon.=19.251966, Alt.=1343.735352m. Speed=0.000000m/h.</desc>
<speed>0.000000</speed>
</trkpt>
<trkpt lat="43.150326" lon="19.251968">
<ele>1343.766602</ele>
<time>2012-05-01T10:43:54Z</time>
<desc>lat.=43.150326, lon.=19.251968, Alt.=1343.766602m. Speed=0.000000m/h.</desc>
<speed>0.000000</speed>
</trkpt>
<trkpt lat="43.150326" lon="19.251968">
<ele>1343.766602</ele>
<time>2012-05-01T10:43:59Z</time>
<desc>lat.=43.150326, lon.=19.251968, Alt.=1343.766602m. Speed=0.000000m/h.</desc>
<speed>0.000000</speed>
</trkpt>
<trkpt lat="43.150326" lon="19.251968">
<ele>1343.797852</ele>
<time>2012-05-01T10:44:04Z</time>
<desc>lat.=43.150326, lon.=19.251968, Alt.=1343.797852m. Speed=0.000000m/h.</desc>
<speed>0.000000</speed>
</trkpt>
<trkpt lat="43.150326" lon="19.251968">
<ele>1343.797852</ele>
<time>2012-05-01T10:44:09Z</time>
<desc>lat.=43.150326, lon.=19.251968, Alt.=1343.797852m. Speed=0.036000m/h.</desc>
<speed>0.010000</speed>
</trkpt>
<trkpt lat="43.150322" lon="19.251970">
<ele>1343.766602</ele>
<time>2012-05-01T10:44:14Z</time>
<desc>lat.=43.150322, lon.=19.251970, Alt.=1343.766602m. Speed=0.036000m/h.</desc>
<speed>0.010000</speed>
</trkpt>
<trkpt lat="43.150322" lon="19.251970">
<ele>1343.735352</ele>
<time>2012-05-01T10:44:19Z</time>
<desc>lat.=43.150322, lon.=19.251970, Alt.=1343.735352m. Speed=0.000000m/h.</desc>
<speed>0.000000</speed>
</trkpt>
<trkpt lat="43.150322" lon="19.251970">
<ele>1343.735352</ele>
<time>2012-05-01T10:44:24Z</time>
<desc>lat.=43.150322, lon.=19.251970, Alt.=1343.735352m. Speed=0.000000m/h.</desc>
<speed>0.000000</speed>
</trkpt>
<trkpt lat="43.150322" lon="19.251970">
<ele>1343.735352</ele>
<time>2012-05-01T10:44:29Z</time>
<desc>lat.=43.150322, lon.=19.251970, Alt.=1343.735352m. Speed=0.000000m/h.</desc>
<speed>0.000000</speed>
</trkpt>
<trkpt lat="43.150322" lon="19.251970">
<ele>1343.766602</ele>
<time>2012-05-01T10:44:34Z</time>
<desc>lat.=43.150322, lon.=19.251970, Alt.=1343.766602m. Speed=0.000000m/h.</desc>
<speed>0.000000</speed>
</trkpt>
<trkpt lat="43.150322" lon="19.251972">
<ele>1343.766602</ele>
<time>2012-05-01T10:44:39Z</time>
<desc>lat.=43.150322, lon.=19.251972, Alt.=1343.766602m. Speed=0.000000m/h.</desc>
<speed>0.000000</speed>
</trkpt>
<trkpt lat="43.150322" lon="19.251972">
<ele>1343.797852</ele>
<time>2012-05-01T10:44:44Z</time>
<desc>lat.=43.150322, lon.=19.251972, Alt.=1343.797852m. Speed=0.000000m/h.</desc>
<speed>0.000000</speed>
</trkpt>
<trkpt lat="43.150322" lon="19.251972">
<ele>1343.797852</ele>
<time>2012-05-01T10:44:49Z</time>
<desc>lat.=43.150322, lon.=19.251972, Alt.=1343.797852m. Speed=0.000000m/h.</desc>
<speed>0.000000</speed>
</trkpt>
<trkpt lat="43.150322" lon="19.251972">
<ele>1343.797852</ele>
<time>2012-05-01T10:44:54Z</time>
<desc>lat.=43.150322, lon.=19.251972, Alt.=1343.797852m. Speed=0.000000m/h.</desc>
<speed>0.000000</speed>
</trkpt>
<trkpt lat="43.150322" lon="19.251972">
<ele>1343.797852</ele>
<time>2012-05-01T10:44:59Z</time>
<desc>lat.=43.150322, lon.=19.251972, Alt.=1343.797852m. Speed=0.000000m/h.</desc>
<speed>0.000000</speed>
</trkpt>
<trkpt lat="43.150322" lon="19.251972">
<ele>1343.797852</ele>
<time>2012-05-01T10:45:04Z</time>
<desc>lat.=43.150322, lon.=19.251972, Alt.=1343.797852m. Speed=0.000000m/h.</desc>
<speed>0.000000</speed>
</trkpt>
<trkpt lat="43.150318" lon="19.251972">
<ele>1343.766602</ele>
<time>2012-05-01T10:45:09Z</time>
<desc>lat.=43.150318, lon.=19.251972, Alt.=1343.766602m. Speed=0.000000m/h.</desc>
<speed>0.000000</speed>
</trkpt>
<trkpt lat="43.150318" lon="19.251972">
<ele>1343.766602</ele>
<time>2012-05-01T10:45:14Z</time>
<desc>lat.=43.150318, lon.=19.251972, Alt.=1343.766602m. Speed=0.108000m/h.</desc>
<speed>0.030000</speed>
</trkpt>
<trkpt lat="43.150318" lon="19.251972">
<ele>1343.766602</ele>
<time>2012-05-01T10:45:19Z</time>
<desc>lat.=43.150318, lon.=19.251972, Alt.=1343.766602m. Speed=0.000000m/h.</desc>
<speed>0.000000</speed>
</trkpt>
<trkpt lat="43.150318" lon="19.251970">
<ele>1343.735352</ele>
<time>2012-05-01T10:45:24Z</time>
<desc>lat.=43.150318, lon.=19.251970, Alt.=1343.735352m. Speed=0.000000m/h.</desc>
<speed>0.000000</speed>
</trkpt>
<trkpt lat="43.150318" lon="19.251970">
<ele>1343.735352</ele>
<time>2012-05-01T10:45:29Z</time>
<desc>lat.=43.150318, lon.=19.251970, Alt.=1343.735352m. Speed=0.000000m/h.</desc>
<speed>0.000000</speed>
</trkpt>
<trkpt lat="43.150318" lon="19.251970">
<ele>1343.735352</ele>
<time>2012-05-01T10:45:34Z</time>
<desc>lat.=43.150318, lon.=19.251970, Alt.=1343.735352m. Speed=0.036000m/h.</desc>
<speed>0.010000</speed>
</trkpt>
<trkpt lat="43.150318" lon="19.251970">
<ele>1343.704102</ele>
<time>2012-05-01T10:45:39Z</time>
<desc>lat.=43.150318, lon.=19.251970, Alt.=1343.704102m. Speed=0.072000m/h.</desc>
<speed>0.020000</speed>
</trkpt>
<trkpt lat="43.150318" lon="19.251970">
<ele>1343.704102</ele>
<time>2012-05-01T10:45:44Z</time>
<desc>lat.=43.150318, lon.=19.251970, Alt.=1343.704102m. Speed=0.000000m/h.</desc>
<speed>0.000000</speed>
</trkpt>
<trkpt lat="43.150318" lon="19.251970">
<ele>1343.704102</ele>
<time>2012-05-01T10:45:49Z</time>
<desc>lat.=43.150318, lon.=19.251970, Alt.=1343.704102m. Speed=0.000000m/h.</desc>
<speed>0.000000</speed>
</trkpt>
<trkpt lat="43.150318" lon="19.251970">
<ele>1343.704102</ele>
<time>2012-05-01T10:45:54Z</time>
<desc>lat.=43.150318, lon.=19.251970, Alt.=1343.704102m. Speed=0.000000m/h.</desc>
<speed>0.000000</speed>
</trkpt>
<trkpt lat="43.150318" lon="19.251970">
<ele>1343.704102</ele>
<time>2012-05-01T10:45:59Z</time>
<desc>lat.=43.150318, lon.=19.251970, Alt.=1343.704102m. Speed=0.252000m/h.</desc>
<speed>0.070000</speed>
</trkpt>
<trkpt lat="43.150318" lon="19.251970">
<ele>1343.704102</ele>
<time>2012-05-01T10:46:04Z</time>
<desc>lat.=43.150318, lon.=19.251970, Alt.=1343.704102m. Speed=0.036000m/h.</desc>
<speed>0.010000</speed>
</trkpt>
<trkpt lat="43.150318" lon="19.251970">
<ele>1343.672852</ele>
<time>2012-05-01T10:46:09Z</time>
<desc>lat.=43.150318, lon.=19.251970, Alt.=1343.672852m. Speed=0.000000m/h.</desc>
<speed>0.000000</speed>
</trkpt>
<trkpt lat="43.150318" lon="19.251970">
<ele>1343.672852</ele>
<time>2012-05-01T10:46:14Z</time>
<desc>lat.=43.150318, lon.=19.251970, Alt.=1343.672852m. Speed=0.000000m/h.</desc>
<speed>0.000000</speed>
</trkpt>
<trkpt lat="43.150318" lon="19.251970">
<ele>1343.641602</ele>
<time>2012-05-01T10:46:19Z</time>
<desc>lat.=43.150318, lon.=19.251970, Alt.=1343.641602m. Speed=0.000000m/h.</desc>
<speed>0.000000</speed>
</trkpt>
<trkpt lat="43.150318" lon="19.251970">
<ele>1343.641602</ele>
<time>2012-05-01T10:46:24Z</time>
<desc>lat.=43.150318, lon.=19.251970, Alt.=1343.641602m. Speed=0.000000m/h.</desc>
<speed>0.000000</speed>
</trkpt>
<trkpt lat="43.150318" lon="19.251970">
<ele>1343.610352</ele>
<time>2012-05-01T10:46:29Z</time>
<desc>lat.=43.150318, lon.=19.251970, Alt.=1343.610352m. Speed=0.000000m/h.</desc>
<speed>0.000000</speed>
</trkpt>
<trkpt lat="43.150318" lon="19.251970">
<ele>1343.610352</ele>
<time>2012-05-01T10:46:34Z</time>
<desc>lat.=43.150318, lon.=19.251970, Alt.=1343.610352m. Speed=0.000000m/h.</desc>
<speed>0.000000</speed>
</trkpt>
<trkpt lat="43.150318" lon="19.251970">
<ele>1343.610352</ele>
<time>2012-05-01T10:46:39Z</time>
<desc>lat.=43.150318, lon.=19.251970, Alt.=1343.610352m. Speed=0.036000m/h.</desc>
<speed>0.010000</speed>
</trkpt>
<trkpt lat="43.150318" lon="19.251970">
<ele>1343.641602</ele>
<time>2012-05-01T10:46:44Z</time>
<desc>lat.=43.150318, lon.=19.251970, Alt.=1343.641602m. Speed=0.000000m/h.</desc>
<speed>0.000000</speed>
</trkpt>
<trkpt lat="43.150318" lon="19.251968">
<ele>1343.610352</ele>
<time>2012-05-01T10:46:49Z</time>
<desc>lat.=43.150318, lon.=19.251968, Alt.=1343.610352m. Speed=0.648000m/h.</desc>
<speed>0.180000</speed>
</trkpt>
<trkpt lat="43.150314" lon="19.251966">
<ele>1343.297852</ele>
<time>2012-05-01T10:46:54Z</time>
<desc>lat.=43.150314, lon.=19.251966, Alt.=1343.297852m. Speed=0.036000m/h.</desc>
<speed>0.010000</speed>
</trkpt>
<trkpt lat="43.150314" lon="19.251966">
<ele>1343.297852</ele>
<time>2012-05-01T10:46:59Z</time>
<desc>lat.=43.150314, lon.=19.251966, Alt.=1343.297852m. Speed=0.036000m/h.</desc>
<speed>0.010000</speed>
</trkpt>
<trkpt lat="43.150314" lon="19.251966">
<ele>1343.266602</ele>
<time>2012-05-01T10:47:04Z</time>
<desc>lat.=43.150314, lon.=19.251966, Alt.=1343.266602m. Speed=0.036000m/h.</desc>
<speed>0.010000</speed>
</trkpt>
<trkpt lat="43.150314" lon="19.251966">
<ele>1343.204102</ele>
<time>2012-05-01T10:47:09Z</time>
<desc>lat.=43.150314, lon.=19.251966, Alt.=1343.204102m. Speed=0.000000m/h.</desc>
<speed>0.000000</speed>
</trkpt>
<trkpt lat="43.150314" lon="19.251966">
<ele>1343.204102</ele>
<time>2012-05-01T10:47:14Z</time>
<desc>lat.=43.150314, lon.=19.251966, Alt.=1343.204102m. Speed=0.036000m/h.</desc>
<speed>0.010000</speed>
</trkpt>
<trkpt lat="43.150314" lon="19.251966">
<ele>1343.204102</ele>
<time>2012-05-01T10:47:19Z</time>
<desc>lat.=43.150314, lon.=19.251966, Alt.=1343.204102m. Speed=0.000000m/h.</desc>
<speed>0.000000</speed>
</trkpt>
<trkpt lat="43.150311" lon="19.251966">
<ele>1343.204102</ele>
<time>2012-05-01T10:47:24Z</time>
<desc>lat.=43.150311, lon.=19.251966, Alt.=1343.204102m. Speed=0.000000m/h.</desc>
<speed>0.000000</speed>
</trkpt>
<trkpt lat="43.150311" lon="19.251966">
<ele>1343.172852</ele>
<time>2012-05-01T10:47:29Z</time>
<desc>lat.=43.150311, lon.=19.251966, Alt.=1343.172852m. Speed=0.000000m/h.</desc>
<speed>0.000000</speed>
</trkpt>
<trkpt lat="43.150311" lon="19.251966">
<ele>1343.172852</ele>
<time>2012-05-01T10:47:34Z</time>
<desc>lat.=43.150311, lon.=19.251966, Alt.=1343.172852m. Speed=0.000000m/h.</desc>
<speed>0.000000</speed>
</trkpt>
<trkpt lat="43.150311" lon="19.251966">
<ele>1343.172852</ele>
<time>2012-05-01T10:47:39Z</time>
<desc>lat.=43.150311, lon.=19.251966, Alt.=1343.172852m. Speed=0.036000m/h.</desc>
<speed>0.010000</speed>
</trkpt>
<trkpt lat="43.150311" lon="19.251966">
<ele>1343.172852</ele>
<time>2012-05-01T10:47:44Z</time>
<desc>lat.=43.150311, lon.=19.251966, Alt.=1343.172852m. Speed=0.000000m/h.</desc>
<speed>0.000000</speed>
</trkpt>
<trkpt lat="43.150314" lon="19.251965">
<ele>1343.141602</ele>
<time>2012-05-01T10:47:49Z</time>
<desc>lat.=43.150314, lon.=19.251965, Alt.=1343.141602m. Speed=5.436000m/h.</desc>
<speed>1.510000</speed>
</trkpt>
<trkpt lat="43.150330" lon="19.251797">
<ele>1342.266602</ele>
<time>2012-05-01T10:47:54Z</time>
<desc>lat.=43.150330, lon.=19.251797, Alt.=1342.266602m. Speed=12.708000m/h.</desc>
<speed>3.530000</speed>
</trkpt>
<trkpt lat="43.150379" lon="19.251553">
<ele>1341.797852</ele>
<time>2012-05-01T10:47:59Z</time>
<desc>lat.=43.150379, lon.=19.251553, Alt.=1341.797852m. Speed=14.184000m/h.</desc>
<speed>3.940000</speed>
</trkpt>
<trkpt lat="43.150410" lon="19.251312">
<ele>1341.704102</ele>
<time>2012-05-01T10:48:04Z</time>
<desc>lat.=43.150410, lon.=19.251312, Alt.=1341.704102m. Speed=15.156000m/h.</desc>
<speed>4.210000</speed>
</trkpt>
<trkpt lat="43.150429" lon="19.251055">
<ele>1341.516602</ele>
<time>2012-05-01T10:48:09Z</time>
<desc>lat.=43.150429, lon.=19.251055, Alt.=1341.516602m. Speed=14.652000m/h.</desc>
<speed>4.070000</speed>
</trkpt>
<trkpt lat="43.150414" lon="19.250834">
<ele>1341.766602</ele>
<time>2012-05-01T10:48:14Z</time>
<desc>lat.=43.150414, lon.=19.250834, Alt.=1341.766602m. Speed=13.428000m/h.</desc>
<speed>3.730000</speed>
</trkpt>
<trkpt lat="43.150387" lon="19.250612">
<ele>1341.735352</ele>
<time>2012-05-01T10:48:19Z</time>
<desc>lat.=43.150387, lon.=19.250612, Alt.=1341.735352m. Speed=12.924000m/h.</desc>
<speed>3.590000</speed>
</trkpt>
<trkpt lat="43.150330" lon="19.250406">
<ele>1342.141602</ele>
<time>2012-05-01T10:48:24Z</time>
<desc>lat.=43.150330, lon.=19.250406, Alt.=1342.141602m. Speed=12.744000m/h.</desc>
<speed>3.540000</speed>
</trkpt>
<trkpt lat="43.150257" lon="19.250200">
<ele>1342.766602</ele>
<time>2012-05-01T10:48:29Z</time>
<desc>lat.=43.150257, lon.=19.250200, Alt.=1342.766602m. Speed=12.852000m/h.</desc>
<speed>3.570000</speed>
</trkpt>
<trkpt lat="43.150181" lon="19.250011">
<ele>1342.672852</ele>
<time>2012-05-01T10:48:34Z</time>
<desc>lat.=43.150181, lon.=19.250011, Alt.=1342.672852m. Speed=12.348000m/h.</desc>
<speed>3.430000</speed>
</trkpt>
<trkpt lat="43.150085" lon="19.249834">
<ele>1342.797852</ele>
<time>2012-05-01T10:48:39Z</time>
<desc>lat.=43.150085, lon.=19.249834, Alt.=1342.797852m. Speed=12.456000m/h.</desc>
<speed>3.460000</speed>
</trkpt>
<trkpt lat="43.149952" lon="19.249640">
<ele>1342.922852</ele>
<time>2012-05-01T10:48:44Z</time>
<desc>lat.=43.149952, lon.=19.249640, Alt.=1342.922852m. Speed=15.804000m/h.</desc>
<speed>4.390000</speed>
</trkpt>
<trkpt lat="43.149784" lon="19.249466">
<ele>1342.766602</ele>
<time>2012-05-01T10:48:49Z</time>
<desc>lat.=43.149784, lon.=19.249466, Alt.=1342.766602m. Speed=17.676001m/h.</desc>
<speed>4.910000</speed>
</trkpt>
<trkpt lat="43.149563" lon="19.249292">
<ele>1342.829102</ele>
<time>2012-05-01T10:48:54Z</time>
<desc>lat.=43.149563, lon.=19.249292, Alt.=1342.829102m. Speed=21.816000m/h.</desc>
<speed>6.060000</speed>
</trkpt>
<trkpt lat="43.149296" lon="19.249104">
<ele>1342.860352</ele>
<time>2012-05-01T10:48:59Z</time>
<desc>lat.=43.149296, lon.=19.249104, Alt.=1342.860352m. Speed=26.100000m/h.</desc>
<speed>7.250000</speed>
</trkpt>
<trkpt lat="43.148979" lon="19.248898">
<ele>1342.891602</ele>
<time>2012-05-01T10:49:04Z</time>
<desc>lat.=43.148979, lon.=19.248898, Alt.=1342.891602m. Speed=29.232000m/h.</desc>
<speed>8.120000</speed>
</trkpt>
<trkpt lat="43.148632" lon="19.248648">
<ele>1343.047852</ele>
<time>2012-05-01T10:49:09Z</time>
<desc>lat.=43.148632, lon.=19.248648, Alt.=1343.047852m. Speed=32.832001m/h.</desc>
<speed>9.120000</speed>
</trkpt>
<trkpt lat="43.148277" lon="19.248302">
<ele>1342.797852</ele>
<time>2012-05-01T10:49:14Z</time>
<desc>lat.=43.148277, lon.=19.248302, Alt.=1342.797852m. Speed=35.172001m/h.</desc>
<speed>9.770000</speed>
</trkpt>
<trkpt lat="43.147968" lon="19.247862">
<ele>1343.266602</ele>
<time>2012-05-01T10:49:19Z</time>
<desc>lat.=43.147968, lon.=19.247862, Alt.=1343.266602m. Speed=35.172001m/h.</desc>
<speed>9.770000</speed>
</trkpt>
<trkpt lat="43.147747" lon="19.247349">
<ele>1343.516602</ele>
<time>2012-05-01T10:49:24Z</time>
<desc>lat.=43.147747, lon.=19.247349, Alt.=1343.516602m. Speed=33.012001m/h.</desc>
<speed>9.170000</speed>
</trkpt>
<trkpt lat="43.147644" lon="19.246834">
<ele>1342.235352</ele>
<time>2012-05-01T10:49:29Z</time>
<desc>lat.=43.147644, lon.=19.246834, Alt.=1342.235352m. Speed=32.004002m/h.</desc>
<speed>8.890000</speed>
</trkpt>
<trkpt lat="43.147614" lon="19.246273">
<ele>1341.266602</ele>
<time>2012-05-01T10:49:34Z</time>
<desc>lat.=43.147614, lon.=19.246273, Alt.=1341.266602m. Speed=33.480000m/h.</desc>
<speed>9.300000</speed>
</trkpt>
<trkpt lat="43.147655" lon="19.245699">
<ele>1339.954102</ele>
<time>2012-05-01T10:49:39Z</time>
<desc>lat.=43.147655, lon.=19.245699, Alt.=1339.954102m. Speed=33.695999m/h.</desc>
<speed>9.360000</speed>
</trkpt>
<trkpt lat="43.147789" lon="19.245176">
<ele>1338.735352</ele>
<time>2012-05-01T10:49:44Z</time>
<desc>lat.=43.147789, lon.=19.245176, Alt.=1338.735352m. Speed=32.652000m/h.</desc>
<speed>9.070000</speed>
</trkpt>
<trkpt lat="43.147980" lon="19.244673">
<ele>1337.172852</ele>
<time>2012-05-01T10:49:49Z</time>
<desc>lat.=43.147980, lon.=19.244673, Alt.=1337.172852m. Speed=33.768002m/h.</desc>
<speed>9.380000</speed>
</trkpt>
<trkpt lat="43.148186" lon="19.244221">
<ele>1335.641602</ele>
<time>2012-05-01T10:49:54Z</time>
<desc>lat.=43.148186, lon.=19.244221, Alt.=1335.641602m. Speed=27.936001m/h.</desc>
<speed>7.760000</speed>
</trkpt>
<trkpt lat="43.148342" lon="19.243841">
<ele>1334.172852</ele>
<time>2012-05-01T10:49:59Z</time>
<desc>lat.=43.148342, lon.=19.243841, Alt.=1334.172852m. Speed=23.760000m/h.</desc>
<speed>6.600000</speed>
</trkpt>
<trkpt lat="43.148430" lon="19.243494">
<ele>1332.860352</ele>
<time>2012-05-01T10:50:04Z</time>
<desc>lat.=43.148430, lon.=19.243494, Alt.=1332.860352m. Speed=23.868000m/h.</desc>
<speed>6.630000</speed>
</trkpt>
<trkpt lat="43.148499" lon="19.243097">
<ele>1332.079102</ele>
<time>2012-05-01T10:50:09Z</time>
<desc>lat.=43.148499, lon.=19.243097, Alt.=1332.079102m. Speed=22.752001m/h.</desc>
<speed>6.320000</speed>
</trkpt>
<trkpt lat="43.148499" lon="19.242678">
<ele>1331.922852</ele>
<time>2012-05-01T10:50:14Z</time>
<desc>lat.=43.148499, lon.=19.242678, Alt.=1331.922852m. Speed=25.236000m/h.</desc>
<speed>7.010000</speed>
</trkpt>
<trkpt lat="43.148491" lon="19.242233">
<ele>1331.797852</ele>
<time>2012-05-01T10:50:19Z</time>
<desc>lat.=43.148491, lon.=19.242233, Alt.=1331.797852m. Speed=25.416000m/h.</desc>
<speed>7.060000</speed>
</trkpt>
<trkpt lat="43.148479" lon="19.241827">
<ele>1331.922852</ele>
<time>2012-05-01T10:50:24Z</time>
<desc>lat.=43.148479, lon.=19.241827, Alt.=1331.922852m. Speed=24.011999m/h.</desc>
<speed>6.670000</speed>
</trkpt>
<trkpt lat="43.148479" lon="19.241402">
<ele>1331.985352</ele>
<time>2012-05-01T10:50:29Z</time>
<desc>lat.=43.148479, lon.=19.241402, Alt.=1331.985352m. Speed=23.580000m/h.</desc>
<speed>6.550000</speed>
</trkpt>
<trkpt lat="43.148434" lon="19.241007">
<ele>1332.454102</ele>
<time>2012-05-01T10:50:34Z</time>
<desc>lat.=43.148434, lon.=19.241007, Alt.=1332.454102m. Speed=24.264000m/h.</desc>
<speed>6.740000</speed>
</trkpt>
<trkpt lat="43.148335" lon="19.240591">
<ele>1332.610352</ele>
<time>2012-05-01T10:50:39Z</time>
<desc>lat.=43.148335, lon.=19.240591, Alt.=1332.610352m. Speed=26.208000m/h.</desc>
<speed>7.280000</speed>
</trkpt>
<trkpt lat="43.148220" lon="19.240181">
<ele>1332.422852</ele>
<time>2012-05-01T10:50:44Z</time>
<desc>lat.=43.148220, lon.=19.240181, Alt.=1332.422852m. Speed=25.164000m/h.</desc>
<speed>6.990000</speed>
</trkpt>
<trkpt lat="43.148144" lon="19.239748">
<ele>1333.016602</ele>
<time>2012-05-01T10:50:49Z</time>
<desc>lat.=43.148144, lon.=19.239748, Alt.=1333.016602m. Speed=26.892000m/h.</desc>
<speed>7.470000</speed>
</trkpt>
<trkpt lat="43.148090" lon="19.239275">
<ele>1335.641602</ele>
<time>2012-05-01T10:50:54Z</time>
<desc>lat.=43.148090, lon.=19.239275, Alt.=1335.641602m. Speed=26.927999m/h.</desc>
<speed>7.480000</speed>
</trkpt>
<trkpt lat="43.148125" lon="19.238802">
<ele>1337.829102</ele>
<time>2012-05-01T10:50:59Z</time>
<desc>lat.=43.148125, lon.=19.238802, Alt.=1337.829102m. Speed=27.180000m/h.</desc>
<speed>7.550000</speed>
</trkpt>
<trkpt lat="43.148232" lon="19.238369">
<ele>1337.329102</ele>
<time>2012-05-01T10:51:04Z</time>
<desc>lat.=43.148232, lon.=19.238369, Alt.=1337.329102m. Speed=26.712000m/h.</desc>
<speed>7.420000</speed>
</trkpt>
<trkpt lat="43.148342" lon="19.237894">
<ele>1337.485352</ele>
<time>2012-05-01T10:51:09Z</time>
<desc>lat.=43.148342, lon.=19.237894, Alt.=1337.485352m. Speed=30.600000m/h.</desc>
<speed>8.500000</speed>
</trkpt>
<trkpt lat="43.148434" lon="19.237387">
<ele>1338.172852</ele>
<time>2012-05-01T10:51:14Z</time>
<desc>lat.=43.148434, lon.=19.237387, Alt.=1338.172852m. Speed=29.483999m/h.</desc>
<speed>8.190000</speed>
</trkpt>
<trkpt lat="43.148457" lon="19.236893">
<ele>1338.204102</ele>
<time>2012-05-01T10:51:19Z</time>
<desc>lat.=43.148457, lon.=19.236893, Alt.=1338.204102m. Speed=29.556000m/h.</desc>
<speed>8.210000</speed>
</trkpt>
<trkpt lat="43.148376" lon="19.236403">
<ele>1338.016602</ele>
<time>2012-05-01T10:51:24Z</time>
<desc>lat.=43.148376, lon.=19.236403, Alt.=1338.016602m. Speed=29.988001m/h.</desc>
<speed>8.330000</speed>
</trkpt>
<trkpt lat="43.148178" lon="19.235954">
<ele>1337.297852</ele>
<time>2012-05-01T10:51:29Z</time>
<desc>lat.=43.148178, lon.=19.235954, Alt.=1337.297852m. Speed=31.968000m/h.</desc>
<speed>8.880000</speed>
</trkpt>
<trkpt lat="43.147873" lon="19.235540">
<ele>1335.829102</ele>
<time>2012-05-01T10:51:34Z</time>
<desc>lat.=43.147873, lon.=19.235540, Alt.=1335.829102m. Speed=36.035999m/h.</desc>
<speed>10.010000</speed>
</trkpt>
<trkpt lat="43.147442" lon="19.235220">
<ele>1333.797852</ele>
<time>2012-05-01T10:51:39Z</time>
<desc>lat.=43.147442, lon.=19.235220, Alt.=1333.797852m. Speed=41.543999m/h.</desc>
<speed>11.540000</speed>
</trkpt>
<trkpt lat="43.146946" lon="19.234922">
<ele>1331.172852</ele>
<time>2012-05-01T10:51:44Z</time>
<desc>lat.=43.146946, lon.=19.234922, Alt.=1331.172852m. Speed=44.964001m/h.</desc>
<speed>12.490000</speed>
</trkpt>
<trkpt lat="43.146389" lon="19.234608">
<ele>1327.672852</ele>
<time>2012-05-01T10:51:49Z</time>
<desc>lat.=43.146389, lon.=19.234608, Alt.=1327.672852m. Speed=48.167999m/h.</desc>
<speed>13.380000</speed>
</trkpt>
<trkpt lat="43.145771" lon="19.234318">
<ele>1323.516602</ele>
<time>2012-05-01T10:51:54Z</time>
<desc>lat.=43.145771, lon.=19.234318, Alt.=1323.516602m. Speed=51.480000m/h.</desc>
<speed>14.300000</speed>
</trkpt>
<trkpt lat="43.145210" lon="19.233963">
<ele>1319.579102</ele>
<time>2012-05-01T10:51:59Z</time>
<desc>lat.=43.145210, lon.=19.233963, Alt.=1319.579102m. Speed=44.568001m/h.</desc>
<speed>12.380000</speed>
</trkpt>
<trkpt lat="43.144867" lon="19.233625">
<ele>1317.204102</ele>
<time>2012-05-01T10:52:04Z</time>
<desc>lat.=43.144867, lon.=19.233625, Alt.=1317.204102m. Speed=24.084000m/h.</desc>
<speed>6.690000</speed>
</trkpt>
<trkpt lat="43.144672" lon="19.233589">
<ele>1316.204102</ele>
<time>2012-05-01T10:52:09Z</time>
<desc>lat.=43.144672, lon.=19.233589, Alt.=1316.204102m. Speed=8.964000m/h.</desc>
<speed>2.490000</speed>
</trkpt>
<trkpt lat="43.144661" lon="19.233601">
<ele>1316.172852</ele>
<time>2012-05-01T10:52:14Z</time>
<desc>lat.=43.144661, lon.=19.233601, Alt.=1316.172852m. Speed=0.288000m/h.</desc>
<speed>0.080000</speed>
</trkpt>
<trkpt lat="43.144665" lon="19.233606">
<ele>1316.172852</ele>
<time>2012-05-01T10:52:19Z</time>
<desc>lat.=43.144665, lon.=19.233606, Alt.=1316.172852m. Speed=0.216000m/h.</desc>
<speed>0.060000</speed>
</trkpt>
<trkpt lat="43.144661" lon="19.233606">
<ele>1316.110352</ele>
<time>2012-05-01T10:52:24Z</time>
<desc>lat.=43.144661, lon.=19.233606, Alt.=1316.110352m. Speed=0.072000m/h.</desc>
<speed>0.020000</speed>
</trkpt>
<trkpt lat="43.144661" lon="19.233606">
<ele>1316.141602</ele>
<time>2012-05-01T10:52:29Z</time>
<desc>lat.=43.144661, lon.=19.233606, Alt.=1316.141602m. Speed=0.036000m/h.</desc>
<speed>0.010000</speed>
</trkpt>
<trkpt lat="43.144661" lon="19.233606">
<ele>1316.141602</ele>
<time>2012-05-01T10:52:34Z</time>
<desc>lat.=43.144661, lon.=19.233606, Alt.=1316.141602m. Speed=0.036000m/h.</desc>
<speed>0.010000</speed>
</trkpt>
<trkpt lat="43.144661" lon="19.233606">
<ele>1316.141602</ele>
<time>2012-05-01T10:52:39Z</time>
<desc>lat.=43.144661, lon.=19.233606, Alt.=1316.141602m. Speed=0.072000m/h.</desc>
<speed>0.020000</speed>
</trkpt>
<trkpt lat="43.144661" lon="19.233606">
<ele>1316.110352</ele>
<time>2012-05-01T10:52:44Z</time>
<desc>lat.=43.144661, lon.=19.233606, Alt.=1316.110352m. Speed=0.072000m/h.</desc>
<speed>0.020000</speed>
</trkpt>
<trkpt lat="43.144661" lon="19.233606">
<ele>1316.141602</ele>
<time>2012-05-01T10:52:49Z</time>
<desc>lat.=43.144661, lon.=19.233606, Alt.=1316.141602m. Speed=0.684000m/h.</desc>
<speed>0.190000</speed>
</trkpt>
<trkpt lat="43.144657" lon="19.233610">
<ele>1316.141602</ele>
<time>2012-05-01T10:52:54Z</time>
<desc>lat.=43.144657, lon.=19.233610, Alt.=1316.141602m. Speed=0.108000m/h.</desc>
<speed>0.030000</speed>
</trkpt>
<trkpt lat="43.144657" lon="19.233610">
<ele>1316.141602</ele>
<time>2012-05-01T10:52:59Z</time>
<desc>lat.=43.144657, lon.=19.233610, Alt.=1316.141602m. Speed=0.000000m/h.</desc>
<speed>0.000000</speed>
</trkpt>
<trkpt lat="43.144657" lon="19.233610">
<ele>1316.141602</ele>
<time>2012-05-01T10:53:04Z</time>
<desc>lat.=43.144657, lon.=19.233610, Alt.=1316.141602m. Speed=0.000000m/h.</desc>
<speed>0.000000</speed>
</trkpt>
<trkpt lat="43.144657" lon="19.233610">
<ele>1316.141602</ele>
<time>2012-05-01T10:53:09Z</time>
<desc>lat.=43.144657, lon.=19.233610, Alt.=1316.141602m. Speed=0.072000m/h.</desc>
<speed>0.020000</speed>
</trkpt>
<trkpt lat="43.144657" lon="19.233610">
<ele>1316.141602</ele>
<time>2012-05-01T10:53:14Z</time>
<desc>lat.=43.144657, lon.=19.233610, Alt.=1316.141602m. Speed=0.036000m/h.</desc>
<speed>0.010000</speed>
</trkpt>
<trkpt lat="43.144653" lon="19.233610">
<ele>1316.141602</ele>
<time>2012-05-01T10:53:19Z</time>
<desc>lat.=43.144653, lon.=19.233610, Alt.=1316.141602m. Speed=1.332000m/h.</desc>
<speed>0.370000</speed>
</trkpt>
<trkpt lat="43.144650" lon="19.233614">
<ele>1316.454102</ele>
<time>2012-05-01T10:53:24Z</time>
<desc>lat.=43.144650, lon.=19.233614, Alt.=1316.454102m. Speed=0.036000m/h.</desc>
<speed>0.010000</speed>
</trkpt>
<trkpt lat="43.144646" lon="19.233616">
<ele>1316.485352</ele>
<time>2012-05-01T10:53:29Z</time>
<desc>lat.=43.144646, lon.=19.233616, Alt.=1316.485352m. Speed=0.072000m/h.</desc>
<speed>0.020000</speed>
</trkpt>
<trkpt lat="43.144650" lon="19.233616">
<ele>1316.547852</ele>
<time>2012-05-01T10:53:34Z</time>
<desc>lat.=43.144650, lon.=19.233616, Alt.=1316.547852m. Speed=0.216000m/h.</desc>
<speed>0.060000</speed>
</trkpt>
<trkpt lat="43.144650" lon="19.233614">
<ele>1316.610352</ele>
<time>2012-05-01T10:53:39Z</time>
<desc>lat.=43.144650, lon.=19.233614, Alt.=1316.610352m. Speed=0.036000m/h.</desc>
<speed>0.010000</speed>
</trkpt>
<trkpt lat="43.144650" lon="19.233614">
<ele>1316.610352</ele>
<time>2012-05-01T10:53:44Z</time>
<desc>lat.=43.144650, lon.=19.233614, Alt.=1316.610352m. Speed=0.108000m/h.</desc>
<speed>0.030000</speed>
</trkpt>
<trkpt lat="43.144650" lon="19.233614">
<ele>1316.610352</ele>
<time>2012-05-01T10:53:49Z</time>
<desc>lat.=43.144650, lon.=19.233614, Alt.=1316.610352m. Speed=0.036000m/h.</desc>
<speed>0.010000</speed>
</trkpt>
<trkpt lat="43.144650" lon="19.233614">
<ele>1316.610352</ele>
<time>2012-05-01T10:53:54Z</time>
<desc>lat.=43.144650, lon.=19.233614, Alt.=1316.610352m. Speed=0.036000m/h.</desc>
<speed>0.010000</speed>
</trkpt>
<trkpt lat="43.144650" lon="19.233614">
<ele>1316.610352</ele>
<time>2012-05-01T10:53:59Z</time>
<desc>lat.=43.144650, lon.=19.233614, Alt.=1316.610352m. Speed=0.000000m/h.</desc>
<speed>0.000000</speed>
</trkpt>
<trkpt lat="43.144650" lon="19.233614">
<ele>1316.641602</ele>
<time>2012-05-01T10:54:04Z</time>
<desc>lat.=43.144650, lon.=19.233614, Alt.=1316.641602m. Speed=0.036000m/h.</desc>
<speed>0.010000</speed>
</trkpt>
<trkpt lat="43.144650" lon="19.233614">
<ele>1316.641602</ele>
<time>2012-05-01T10:54:09Z</time>
<desc>lat.=43.144650, lon.=19.233614, Alt.=1316.641602m. Speed=0.036000m/h.</desc>
<speed>0.010000</speed>
</trkpt>
<trkpt lat="43.144650" lon="19.233616">
<ele>1316.641602</ele>
<time>2012-05-01T10:54:14Z</time>
<desc>lat.=43.144650, lon.=19.233616, Alt.=1316.641602m. Speed=2.196000m/h.</desc>
<speed>0.610000</speed>
</trkpt>
<trkpt lat="43.144588" lon="19.233673">
<ele>1316.422852</ele>
<time>2012-05-01T10:54:19Z</time>
<desc>lat.=43.144588, lon.=19.233673, Alt.=1316.422852m. Speed=8.676000m/h.</desc>
<speed>2.410000</speed>
</trkpt>
<trkpt lat="43.144463" lon="19.233805">
<ele>1316.047852</ele>
<time>2012-05-01T10:54:24Z</time>
<desc>lat.=43.144463, lon.=19.233805, Alt.=1316.047852m. Speed=16.596001m/h.</desc>
<speed>4.610000</speed>
</trkpt>
<trkpt lat="43.144264" lon="19.233965">
<ele>1315.610352</ele>
<time>2012-05-01T10:54:29Z</time>
<desc>lat.=43.144264, lon.=19.233965, Alt.=1315.610352m. Speed=19.188000m/h.</desc>
<speed>5.330000</speed>
</trkpt>
<trkpt lat="43.144032" lon="19.234138">
<ele>1315.485352</ele>
<time>2012-05-01T10:54:34Z</time>
<desc>lat.=43.144032, lon.=19.234138, Alt.=1315.485352m. Speed=22.068001m/h.</desc>
<speed>6.130000</speed>
</trkpt>
<trkpt lat="43.143787" lon="19.234283">
<ele>1315.547852</ele>
<time>2012-05-01T10:54:39Z</time>
<desc>lat.=43.143787, lon.=19.234283, Alt.=1315.547852m. Speed=20.375999m/h.</desc>
<speed>5.660000</speed>
</trkpt>
<trkpt lat="43.143509" lon="19.234329">
<ele>1315.516602</ele>
<time>2012-05-01T10:54:44Z</time>
<desc>lat.=43.143509, lon.=19.234329, Alt.=1315.516602m. Speed=18.143999m/h.</desc>
<speed>5.040000</speed>
</trkpt>
<trkpt lat="43.143318" lon="19.234289">
<ele>1315.235352</ele>
<time>2012-05-01T10:54:49Z</time>
<desc>lat.=43.143318, lon.=19.234289, Alt.=1315.235352m. Speed=13.176000m/h.</desc>
<speed>3.660000</speed>
</trkpt>
<trkpt lat="43.143131" lon="19.234215">
<ele>1315.110352</ele>
<time>2012-05-01T10:54:54Z</time>
<desc>lat.=43.143131, lon.=19.234215, Alt.=1315.110352m. Speed=18.612000m/h.</desc>
<speed>5.170000</speed>
</trkpt>
<trkpt lat="43.142887" lon="19.234123">
<ele>1315.516602</ele>
<time>2012-05-01T10:54:59Z</time>
<desc>lat.=43.142887, lon.=19.234123, Alt.=1315.516602m. Speed=19.152000m/h.</desc>
<speed>5.320000</speed>
</trkpt>
<trkpt lat="43.142643" lon="19.234108">
<ele>1315.641602</ele>
<time>2012-05-01T10:55:04Z</time>
<desc>lat.=43.142643, lon.=19.234108, Alt.=1315.641602m. Speed=21.708000m/h.</desc>
<speed>6.030000</speed>
</trkpt>
<trkpt lat="43.142365" lon="19.234200">
<ele>1315.016602</ele>
<time>2012-05-01T10:55:09Z</time>
<desc>lat.=43.142365, lon.=19.234200, Alt.=1315.016602m. Speed=21.816000m/h.</desc>
<speed>6.060000</speed>
</trkpt>
<trkpt lat="43.142090" lon="19.234343">
<ele>1313.891602</ele>
<time>2012-05-01T10:55:14Z</time>
<desc>lat.=43.142090, lon.=19.234343, Alt.=1313.891602m. Speed=25.524000m/h.</desc>
<speed>7.090000</speed>
</trkpt>
<trkpt lat="43.141781" lon="19.234491">
<ele>1312.704102</ele>
<time>2012-05-01T10:55:19Z</time>
<desc>lat.=43.141781, lon.=19.234491, Alt.=1312.704102m. Speed=27.684000m/h.</desc>
<speed>7.690000</speed>
</trkpt>
<trkpt lat="43.141441" lon="19.234455">
<ele>1312.610352</ele>
<time>2012-05-01T10:55:24Z</time>
<desc>lat.=43.141441, lon.=19.234455, Alt.=1312.610352m. Speed=25.920000m/h.</desc>
<speed>7.200000</speed>
</trkpt>
<trkpt lat="43.141136" lon="19.234339">
<ele>1312.954102</ele>
<time>2012-05-01T10:55:29Z</time>
<desc>lat.=43.141136, lon.=19.234339, Alt.=1312.954102m. Speed=23.724001m/h.</desc>
<speed>6.590000</speed>
</trkpt>
<trkpt lat="43.140846" lon="19.234243">
<ele>1312.641602</ele>
<time>2012-05-01T10:55:34Z</time>
<desc>lat.=43.140846, lon.=19.234243, Alt.=1312.641602m. Speed=23.940001m/h.</desc>
<speed>6.650000</speed>
</trkpt>
<trkpt lat="43.140549" lon="19.234138">
<ele>1312.454102</ele>
<time>2012-05-01T10:55:39Z</time>
<desc>lat.=43.140549, lon.=19.234138, Alt.=1312.454102m. Speed=24.264000m/h.</desc>
<speed>6.740000</speed>
</trkpt>
<trkpt lat="43.140255" lon="19.234053">
<ele>1312.204102</ele>
<time>2012-05-01T10:55:44Z</time>
<desc>lat.=43.140255, lon.=19.234053, Alt.=1312.204102m. Speed=22.643999m/h.</desc>
<speed>6.290000</speed>
</trkpt>
<trkpt lat="43.139984" lon="19.233961">
<ele>1312.079102</ele>
<time>2012-05-01T10:55:49Z</time>
<desc>lat.=43.139984, lon.=19.233961, Alt.=1312.079102m. Speed=21.384001m/h.</desc>
<speed>5.940000</speed>
</trkpt>
<trkpt lat="43.139725" lon="19.233871">
<ele>1312.297852</ele>
<time>2012-05-01T10:55:54Z</time>
<desc>lat.=43.139725, lon.=19.233871, Alt.=1312.297852m. Speed=21.708000m/h.</desc>
<speed>6.030000</speed>
</trkpt>
<trkpt lat="43.139446" lon="19.233774">
<ele>1312.485352</ele>
<time>2012-05-01T10:55:59Z</time>
<desc>lat.=43.139446, lon.=19.233774, Alt.=1312.485352m. Speed=23.580000m/h.</desc>
<speed>6.550000</speed>
</trkpt>
<trkpt lat="43.139168" lon="19.233673">
<ele>1312.985352</ele>
<time>2012-05-01T10:56:04Z</time>
<desc>lat.=43.139168, lon.=19.233673, Alt.=1312.985352m. Speed=22.572001m/h.</desc>
<speed>6.270000</speed>
</trkpt>
<trkpt lat="43.138908" lon="19.233582">
<ele>1314.047852</ele>
<time>2012-05-01T10:56:09Z</time>
<desc>lat.=43.138908, lon.=19.233582, Alt.=1314.047852m. Speed=20.736000m/h.</desc>
<speed>5.760000</speed>
</trkpt>
<trkpt lat="43.138622" lon="19.233482">
<ele>1315.579102</ele>
<time>2012-05-01T10:56:14Z</time>
<desc>lat.=43.138622, lon.=19.233482, Alt.=1315.579102m. Speed=25.056000m/h.</desc>
<speed>6.960000</speed>
</trkpt>
<trkpt lat="43.138332" lon="19.233379">
<ele>1316.485352</ele>
<time>2012-05-01T10:56:19Z</time>
<desc>lat.=43.138332, lon.=19.233379, Alt.=1316.485352m. Speed=22.212000m/h.</desc>
<speed>6.170000</speed>
</trkpt>
<trkpt lat="43.138073" lon="19.233305">
<ele>1316.672852</ele>
<time>2012-05-01T10:56:24Z</time>
<desc>lat.=43.138073, lon.=19.233305, Alt.=1316.672852m. Speed=19.368000m/h.</desc>
<speed>5.380000</speed>
</trkpt>
<trkpt lat="43.137852" lon="19.233232">
<ele>1316.891602</ele>
<time>2012-05-01T10:56:29Z</time>
<desc>lat.=43.137852, lon.=19.233232, Alt.=1316.891602m. Speed=16.632000m/h.</desc>
<speed>4.620000</speed>
</trkpt>
<trkpt lat="43.137661" lon="19.233185">
<ele>1317.047852</ele>
<time>2012-05-01T10:56:34Z</time>
<desc>lat.=43.137661, lon.=19.233185, Alt.=1317.047852m. Speed=16.308001m/h.</desc>
<speed>4.530000</speed>
</trkpt>
<trkpt lat="43.137417" lon="19.233095">
<ele>1317.422852</ele>
<time>2012-05-01T10:56:39Z</time>
<desc>lat.=43.137417, lon.=19.233095, Alt.=1317.422852m. Speed=22.608000m/h.</desc>
<speed>6.280000</speed>
</trkpt>
<trkpt lat="43.137177" lon="19.233013">
<ele>1318.454102</ele>
<time>2012-05-01T10:56:44Z</time>
<desc>lat.=43.137177, lon.=19.233013, Alt.=1318.454102m. Speed=17.820000m/h.</desc>
<speed>4.950000</speed>
</trkpt>
<trkpt lat="43.136959" lon="19.232933">
<ele>1319.141602</ele>
<time>2012-05-01T10:56:49Z</time>
<desc>lat.=43.136959, lon.=19.232933, Alt.=1319.141602m. Speed=19.188000m/h.</desc>
<speed>5.330000</speed>
</trkpt>
<trkpt lat="43.136703" lon="19.232843">
<ele>1319.516602</ele>
<time>2012-05-01T10:56:54Z</time>
<desc>lat.=43.136703, lon.=19.232843, Alt.=1319.516602m. Speed=21.024000m/h.</desc>
<speed>5.840000</speed>
</trkpt>
<trkpt lat="43.136463" lon="19.232761">
<ele>1319.266602</ele>
<time>2012-05-01T10:56:59Z</time>
<desc>lat.=43.136463, lon.=19.232761, Alt.=1319.266602m. Speed=19.188000m/h.</desc>
<speed>5.330000</speed>
</trkpt>
<trkpt lat="43.136204" lon="19.232677">
<ele>1318.829102</ele>
<time>2012-05-01T10:57:04Z</time>
<desc>lat.=43.136204, lon.=19.232677, Alt.=1318.829102m. Speed=21.708000m/h.</desc>
<speed>6.030000</speed>
</trkpt>
<trkpt lat="43.135948" lon="19.232594">
<ele>1319.016602</ele>
<time>2012-05-01T10:57:09Z</time>
<desc>lat.=43.135948, lon.=19.232594, Alt.=1319.016602m. Speed=20.232000m/h.</desc>
<speed>5.620000</speed>
</trkpt>
<trkpt lat="43.135719" lon="19.232513">
<ele>1319.641602</ele>
<time>2012-05-01T10:57:14Z</time>
<desc>lat.=43.135719, lon.=19.232513, Alt.=1319.641602m. Speed=17.820000m/h.</desc>
<speed>4.950000</speed>
</trkpt>
<trkpt lat="43.135498" lon="19.232441">
<ele>1319.985352</ele>
<time>2012-05-01T10:57:19Z</time>
<desc>lat.=43.135498, lon.=19.232441, Alt.=1319.985352m. Speed=16.920000m/h.</desc>
<speed>4.700000</speed>
</trkpt>
<trkpt lat="43.135281" lon="19.232376">
<ele>1320.204102</ele>
<time>2012-05-01T10:57:24Z</time>
<desc>lat.=43.135281, lon.=19.232376, Alt.=1320.204102m. Speed=17.316000m/h.</desc>
<speed>4.810000</speed>
</trkpt>
<trkpt lat="43.135082" lon="19.232306">
<ele>1320.797852</ele>
<time>2012-05-01T10:57:29Z</time>
<desc>lat.=43.135082, lon.=19.232306, Alt.=1320.797852m. Speed=16.632000m/h.</desc>
<speed>4.620000</speed>
</trkpt>
<trkpt lat="43.134884" lon="19.232229">
<ele>1321.079102</ele>
<time>2012-05-01T10:57:34Z</time>
<desc>lat.=43.134884, lon.=19.232229, Alt.=1321.079102m. Speed=15.300000m/h.</desc>
<speed>4.250000</speed>
</trkpt>
<trkpt lat="43.134705" lon="19.232143">
<ele>1321.360352</ele>
<time>2012-05-01T10:57:39Z</time>
<desc>lat.=43.134705, lon.=19.232143, Alt.=1321.360352m. Speed=15.228000m/h.</desc>
<speed>4.230000</speed>
</trkpt>
<trkpt lat="43.134525" lon="19.232075">
<ele>1321.672852</ele>
<time>2012-05-01T10:57:44Z</time>
<desc>lat.=43.134525, lon.=19.232075, Alt.=1321.672852m. Speed=14.904000m/h.</desc>
<speed>4.140000</speed>
</trkpt>
<trkpt lat="43.134350" lon="19.232004">
<ele>1322.110352</ele>
<time>2012-05-01T10:57:49Z</time>
<desc>lat.=43.134350, lon.=19.232004, Alt.=1322.110352m. Speed=14.796000m/h.</desc>
<speed>4.110000</speed>
</trkpt>
<trkpt lat="43.134178" lon="19.231930">
<ele>1322.766602</ele>
<time>2012-05-01T10:57:54Z</time>
<desc>lat.=43.134178, lon.=19.231930, Alt.=1322.766602m. Speed=16.020000m/h.</desc>
<speed>4.450000</speed>
</trkpt>
<trkpt lat="43.133987" lon="19.231863">
<ele>1322.797852</ele>
<time>2012-05-01T10:57:59Z</time>
<desc>lat.=43.133987, lon.=19.231863, Alt.=1322.797852m. Speed=14.328000m/h.</desc>
<speed>3.980000</speed>
</trkpt>
<trkpt lat="43.133835" lon="19.231792">
<ele>1322.860352</ele>
<time>2012-05-01T10:58:04Z</time>
<desc>lat.=43.133835, lon.=19.231792, Alt.=1322.860352m. Speed=14.004000m/h.</desc>
<speed>3.890000</speed>
</trkpt>
<trkpt lat="43.133675" lon="19.231731">
<ele>1322.672852</ele>
<time>2012-05-01T10:58:09Z</time>
<desc>lat.=43.133675, lon.=19.231731, Alt.=1322.672852m. Speed=13.608000m/h.</desc>
<speed>3.780000</speed>
</trkpt>
<trkpt lat="43.133522" lon="19.231647">
<ele>1323.047852</ele>
<time>2012-05-01T10:58:14Z</time>
<desc>lat.=43.133522, lon.=19.231647, Alt.=1323.047852m. Speed=13.896000m/h.</desc>
<speed>3.860000</speed>
</trkpt>
<trkpt lat="43.133331" lon="19.231577">
<ele>1323.360352</ele>
<time>2012-05-01T10:58:19Z</time>
<desc>lat.=43.133331, lon.=19.231577, Alt.=1323.360352m. Speed=16.632000m/h.</desc>
<speed>4.620000</speed>
</trkpt>
<trkpt lat="43.133118" lon="19.231501">
<ele>1323.360352</ele>
<time>2012-05-01T10:58:24Z</time>
<desc>lat.=43.133118, lon.=19.231501, Alt.=1323.360352m. Speed=16.955999m/h.</desc>
<speed>4.710000</speed>
</trkpt>
<trkpt lat="43.132942" lon="19.231430">
<ele>1323.110352</ele>
<time>2012-05-01T10:58:29Z</time>
<desc>lat.=43.132942, lon.=19.231430, Alt.=1323.110352m. Speed=12.240000m/h.</desc>
<speed>3.400000</speed>
</trkpt>
<trkpt lat="43.132782" lon="19.231365">
<ele>1323.454102</ele>
<time>2012-05-01T10:58:34Z</time>
<desc>lat.=43.132782, lon.=19.231365, Alt.=1323.454102m. Speed=13.500000m/h.</desc>
<speed>3.750000</speed>
</trkpt>
<trkpt lat="43.132633" lon="19.231281">
<ele>1323.704102</ele>
<time>2012-05-01T10:58:39Z</time>
<desc>lat.=43.132633, lon.=19.231281, Alt.=1323.704102m. Speed=13.320000m/h.</desc>
<speed>3.700000</speed>
</trkpt>
<trkpt lat="43.132504" lon="19.231129">
<ele>1323.735352</ele>
<time>2012-05-01T10:58:44Z</time>
<desc>lat.=43.132504, lon.=19.231129, Alt.=1323.735352m. Speed=15.192000m/h.</desc>
<speed>4.220000</speed>
</trkpt>
<trkpt lat="43.132324" lon="19.230967">
<ele>1322.704102</ele>
<time>2012-05-01T10:58:49Z</time>
<desc>lat.=43.132324, lon.=19.230967, Alt.=1322.704102m. Speed=21.024000m/h.</desc>
<speed>5.840000</speed>
</trkpt>
<trkpt lat="43.132095" lon="19.230745">
<ele>1322.235352</ele>
<time>2012-05-01T10:58:54Z</time>
<desc>lat.=43.132095, lon.=19.230745, Alt.=1322.235352m. Speed=23.148001m/h.</desc>
<speed>6.430000</speed>
</trkpt>
<trkpt lat="43.131828" lon="19.230518">
<ele>1321.922852</ele>
<time>2012-05-01T10:58:59Z</time>
<desc>lat.=43.131828, lon.=19.230518, Alt.=1321.922852m. Speed=27.396000m/h.</desc>
<speed>7.610000</speed>
</trkpt>
<trkpt lat="43.131489" lon="19.230347">
<ele>1320.985352</ele>
<time>2012-05-01T10:59:04Z</time>
<desc>lat.=43.131489, lon.=19.230347, Alt.=1320.985352m. Speed=28.656000m/h.</desc>
<speed>7.960000</speed>
</trkpt>
<trkpt lat="43.131130" lon="19.230278">
<ele>1319.829102</ele>
<time>2012-05-01T10:59:09Z</time>
<desc>lat.=43.131130, lon.=19.230278, Alt.=1319.829102m. Speed=29.232000m/h.</desc>
<speed>8.120000</speed>
</trkpt>
<trkpt lat="43.130768" lon="19.230196">
<ele>1318.547852</ele>
<time>2012-05-01T10:59:14Z</time>
<desc>lat.=43.130768, lon.=19.230196, Alt.=1318.547852m. Speed=30.636000m/h.</desc>
<speed>8.510000</speed>
</trkpt>
<trkpt lat="43.130421" lon="19.229910">
<ele>1317.860352</ele>
<time>2012-05-01T10:59:19Z</time>
<desc>lat.=43.130421, lon.=19.229910, Alt.=1317.860352m. Speed=32.688000m/h.</desc>
<speed>9.080000</speed>
</trkpt>
<trkpt lat="43.130096" lon="19.229622">
<ele>1317.985352</ele>
<time>2012-05-01T10:59:24Z</time>
<desc>lat.=43.130096, lon.=19.229622, Alt.=1317.985352m. Speed=29.988001m/h.</desc>
<speed>8.330000</speed>
</trkpt>
<trkpt lat="43.129795" lon="19.229361">
<ele>1318.079102</ele>
<time>2012-05-01T10:59:29Z</time>
<desc>lat.=43.129795, lon.=19.229361, Alt.=1318.079102m. Speed=27.288000m/h.</desc>
<speed>7.580000</speed>
</trkpt>
<trkpt lat="43.129490" lon="19.229095">
<ele>1318.235352</ele>
<time>2012-05-01T10:59:34Z</time>
<desc>lat.=43.129490, lon.=19.229095, Alt.=1318.235352m. Speed=29.268000m/h.</desc>
<speed>8.130000</speed>
</trkpt>
<trkpt lat="43.129189" lon="19.228821">
<ele>1318.516602</ele>
<time>2012-05-01T10:59:39Z</time>
<desc>lat.=43.129189, lon.=19.228821, Alt.=1318.516602m. Speed=27.827999m/h.</desc>
<speed>7.730000</speed>
</trkpt>
<trkpt lat="43.128906" lon="19.228590">
<ele>1319.016602</ele>
<time>2012-05-01T10:59:44Z</time>
<desc>lat.=43.128906, lon.=19.228590, Alt.=1319.016602m. Speed=24.875999m/h.</desc>
<speed>6.910000</speed>
</trkpt>
<trkpt lat="43.128647" lon="19.228401">
<ele>1319.391602</ele>
<time>2012-05-01T10:59:49Z</time>
<desc>lat.=43.128647, lon.=19.228401, Alt.=1319.391602m. Speed=21.996000m/h.</desc>
<speed>6.110000</speed>
</trkpt>
<trkpt lat="43.128437" lon="19.228241">
<ele>1319.672852</ele>
<time>2012-05-01T10:59:54Z</time>
<desc>lat.=43.128437, lon.=19.228241, Alt.=1319.672852m. Speed=17.927999m/h.</desc>
<speed>4.980000</speed>
</trkpt>
<trkpt lat="43.128227" lon="19.228107">
<ele>1320.235352</ele>
<time>2012-05-01T10:59:59Z</time>
<desc>lat.=43.128227, lon.=19.228107, Alt.=1320.235352m. Speed=18.108000m/h.</desc>
<speed>5.030000</speed>
</trkpt>
<trkpt lat="43.128006" lon="19.227970">
<ele>1320.641602</ele>
<time>2012-05-01T11:00:04Z</time>
<desc>lat.=43.128006, lon.=19.227970, Alt.=1320.641602m. Speed=18.792000m/h.</desc>
<speed>5.220000</speed>
</trkpt>
<trkpt lat="43.127827" lon="19.227823">
<ele>1321.422852</ele>
<time>2012-05-01T11:00:09Z</time>
<desc>lat.=43.127827, lon.=19.227823, Alt.=1321.422852m. Speed=14.580000m/h.</desc>
<speed>4.050000</speed>
</trkpt>
<trkpt lat="43.127720" lon="19.227728">
<ele>1321.797852</ele>
<time>2012-05-01T11:00:14Z</time>
<desc>lat.=43.127720, lon.=19.227728, Alt.=1321.797852m. Speed=8.100000m/h.</desc>
<speed>2.250000</speed>
</trkpt>
<trkpt lat="43.127724" lon="19.227642">
<ele>1321.110352</ele>
<time>2012-05-01T11:00:19Z</time>
<desc>lat.=43.127724, lon.=19.227642, Alt.=1321.110352m. Speed=5.112000m/h.</desc>
<speed>1.420000</speed>
</trkpt>
<trkpt lat="43.127773" lon="19.227600">
<ele>1320.172852</ele>
<time>2012-05-01T11:00:24Z</time>
<desc>lat.=43.127773, lon.=19.227600, Alt.=1320.172852m. Speed=2.628000m/h.</desc>
<speed>0.730000</speed>
</trkpt>
<trkpt lat="43.127815" lon="19.227627">
<ele>1319.079102</ele>
<time>2012-05-01T11:00:29Z</time>
<desc>lat.=43.127815, lon.=19.227627, Alt.=1319.079102m. Speed=0.576000m/h.</desc>
<speed>0.160000</speed>
</trkpt>
<trkpt lat="43.127739" lon="19.227686">
<ele>1319.079102</ele>
<time>2012-05-01T11:00:34Z</time>
<desc>lat.=43.127739, lon.=19.227686, Alt.=1319.079102m. Speed=13.572000m/h.</desc>
<speed>3.770000</speed>
</trkpt>
<trkpt lat="43.127575" lon="19.227606">
<ele>1319.485352</ele>
<time>2012-05-01T11:00:39Z</time>
<desc>lat.=43.127575, lon.=19.227606, Alt.=1319.485352m. Speed=14.616000m/h.</desc>
<speed>4.060000</speed>
</trkpt>
<trkpt lat="43.127399" lon="19.227499">
<ele>1319.704102</ele>
<time>2012-05-01T11:00:44Z</time>
<desc>lat.=43.127399, lon.=19.227499, Alt.=1319.704102m. Speed=15.768000m/h.</desc>
<speed>4.380000</speed>
</trkpt>
<trkpt lat="43.127243" lon="19.227398">
<ele>1320.079102</ele>
<time>2012-05-01T11:00:49Z</time>
<desc>lat.=43.127243, lon.=19.227398, Alt.=1320.079102m. Speed=15.012000m/h.</desc>
<speed>4.170000</speed>
</trkpt>
<trkpt lat="43.127052" lon="19.227236">
<ele>1320.579102</ele>
<time>2012-05-01T11:00:54Z</time>
<desc>lat.=43.127052, lon.=19.227236, Alt.=1320.579102m. Speed=21.059999m/h.</desc>
<speed>5.850000</speed>
</trkpt>
<trkpt lat="43.126816" lon="19.227074">
<ele>1320.954102</ele>
<time>2012-05-01T11:00:59Z</time>
<desc>lat.=43.126816, lon.=19.227074, Alt.=1320.954102m. Speed=18.756001m/h.</desc>
<speed>5.210000</speed>
</trkpt>
<trkpt lat="43.126587" lon="19.226889">
<ele>1321.672852</ele>
<time>2012-05-01T11:01:04Z</time>
<desc>lat.=43.126587, lon.=19.226889, Alt.=1321.672852m. Speed=22.212000m/h.</desc>
<speed>6.170000</speed>
</trkpt>
<trkpt lat="43.126362" lon="19.226723">
<ele>1322.672852</ele>
<time>2012-05-01T11:01:09Z</time>
<desc>lat.=43.126362, lon.=19.226723, Alt.=1322.672852m. Speed=19.260000m/h.</desc>
<speed>5.350000</speed>
</trkpt>
<trkpt lat="43.126144" lon="19.226559">
<ele>1323.547852</ele>
<time>2012-05-01T11:01:14Z</time>
<desc>lat.=43.126144, lon.=19.226559, Alt.=1323.547852m. Speed=19.368000m/h.</desc>
<speed>5.380000</speed>
</trkpt>
<trkpt lat="43.125919" lon="19.226389">
<ele>1323.579102</ele>
<time>2012-05-01T11:01:19Z</time>
<desc>lat.=43.125919, lon.=19.226389, Alt.=1323.579102m. Speed=22.643999m/h.</desc>
<speed>6.290000</speed>
</trkpt>
<trkpt lat="43.125694" lon="19.226219">
<ele>1323.735352</ele>
<time>2012-05-01T11:01:24Z</time>
<desc>lat.=43.125694, lon.=19.226219, Alt.=1323.735352m. Speed=19.944000m/h.</desc>
<speed>5.540000</speed>
</trkpt>
<trkpt lat="43.125496" lon="19.226059">
<ele>1323.454102</ele>
<time>2012-05-01T11:01:29Z</time>
<desc>lat.=43.125496, lon.=19.226059, Alt.=1323.454102m. Speed=20.771999m/h.</desc>
<speed>5.770000</speed>
</trkpt>
<trkpt lat="43.125271" lon="19.225908">
<ele>1323.735352</ele>
<time>2012-05-01T11:01:34Z</time>
<desc>lat.=43.125271, lon.=19.225908, Alt.=1323.735352m. Speed=19.044001m/h.</desc>
<speed>5.290000</speed>
</trkpt>
<trkpt lat="43.125069" lon="19.225780">
<ele>1324.204102</ele>
<time>2012-05-01T11:01:39Z</time>
<desc>lat.=43.125069, lon.=19.225780, Alt.=1324.204102m. Speed=16.955999m/h.</desc>
<speed>4.710000</speed>
</trkpt>
<trkpt lat="43.124874" lon="19.225658">
<ele>1324.610352</ele>
<time>2012-05-01T11:01:44Z</time>
<desc>lat.=43.124874, lon.=19.225658, Alt.=1324.610352m. Speed=16.308001m/h.</desc>
<speed>4.530000</speed>
</trkpt>
<trkpt lat="43.124672" lon="19.225521">
<ele>1325.172852</ele>
<time>2012-05-01T11:01:49Z</time>
<desc>lat.=43.124672, lon.=19.225521, Alt.=1325.172852m. Speed=18.756001m/h.</desc>
<speed>5.210000</speed>
</trkpt>
<trkpt lat="43.124485" lon="19.225389">
<ele>1325.641602</ele>
<time>2012-05-01T11:01:54Z</time>
<desc>lat.=43.124485, lon.=19.225389, Alt.=1325.641602m. Speed=14.652000m/h.</desc>
<speed>4.070000</speed>
</trkpt>
<trkpt lat="43.124294" lon="19.225260">
<ele>1326.016602</ele>
<time>2012-05-01T11:01:59Z</time>
<desc>lat.=43.124294, lon.=19.225260, Alt.=1326.016602m. Speed=18.252001m/h.</desc>
<speed>5.070000</speed>
</trkpt>
<trkpt lat="43.124119" lon="19.225124">
<ele>1326.172852</ele>
<time>2012-05-01T11:02:04Z</time>
<desc>lat.=43.124119, lon.=19.225124, Alt.=1326.172852m. Speed=15.264000m/h.</desc>
<speed>4.240000</speed>
</trkpt>
<trkpt lat="43.123943" lon="19.225000">
<ele>1326.235352</ele>
<time>2012-05-01T11:02:09Z</time>
<desc>lat.=43.123943, lon.=19.225000, Alt.=1326.235352m. Speed=14.472000m/h.</desc>
<speed>4.020000</speed>
</trkpt>
<trkpt lat="43.123787" lon="19.224859">
<ele>1325.610352</ele>
<time>2012-05-01T11:02:14Z</time>
<desc>lat.=43.123787, lon.=19.224859, Alt.=1325.610352m. Speed=14.940000m/h.</desc>
<speed>4.150000</speed>
</trkpt>
<trkpt lat="43.123631" lon="19.224730">
<ele>1324.829102</ele>
<time>2012-05-01T11:02:19Z</time>
<desc>lat.=43.123631, lon.=19.224730, Alt.=1324.829102m. Speed=15.948000m/h.</desc>
<speed>4.430000</speed>
</trkpt>
<trkpt lat="43.123444" lon="19.224583">
<ele>1326.672852</ele>
<time>2012-05-01T11:02:24Z</time>
<desc>lat.=43.123444, lon.=19.224583, Alt.=1326.672852m. Speed=16.596001m/h.</desc>
<speed>4.610000</speed>
</trkpt>
<trkpt lat="43.123280" lon="19.224415">
<ele>1327.547852</ele>
<time>2012-05-01T11:02:29Z</time>
<desc>lat.=43.123280, lon.=19.224415, Alt.=1327.547852m. Speed=17.747999m/h.</desc>
<speed>4.930000</speed>
</trkpt>
<trkpt lat="43.123150" lon="19.224239">
<ele>1326.579102</ele>
<time>2012-05-01T11:02:34Z</time>
<desc>lat.=43.123150, lon.=19.224239, Alt.=1326.579102m. Speed=8.316000m/h.</desc>
<speed>2.310000</speed>
</trkpt>
<trkpt lat="43.123100" lon="19.224173">
<ele>1326.860352</ele>
<time>2012-05-01T11:02:39Z</time>
<desc>lat.=43.123100, lon.=19.224173, Alt.=1326.860352m. Speed=8.604000m/h.</desc>
<speed>2.390000</speed>
</trkpt>
<trkpt lat="43.123077" lon="19.224140">
<ele>1326.547852</ele>
<time>2012-05-01T11:02:44Z</time>
<desc>lat.=43.123077, lon.=19.224140, Alt.=1326.547852m. Speed=0.108000m/h.</desc>
<speed>0.030000</speed>
</trkpt>
<trkpt lat="43.123074" lon="19.224154">
<ele>1326.610352</ele>
<time>2012-05-01T11:02:49Z</time>
<desc>lat.=43.123074, lon.=19.224154, Alt.=1326.610352m. Speed=0.864000m/h.</desc>
<speed>0.240000</speed>
</trkpt>
<trkpt lat="43.123119" lon="19.224195">
<ele>1325.672852</ele>
<time>2012-05-01T11:02:54Z</time>
<desc>lat.=43.123119, lon.=19.224195, Alt.=1325.672852m. Speed=7.236000m/h.</desc>
<speed>2.010000</speed>
</trkpt>
<trkpt lat="43.123180" lon="19.224213">
<ele>1323.391602</ele>
<time>2012-05-01T11:02:59Z</time>
<desc>lat.=43.123180, lon.=19.224213, Alt.=1323.391602m. Speed=0.720000m/h.</desc>
<speed>0.200000</speed>
</trkpt>
<trkpt lat="43.123180" lon="19.224215">
<ele>1322.766602</ele>
<time>2012-05-01T11:03:04Z</time>
<desc>lat.=43.123180, lon.=19.224215, Alt.=1322.766602m. Speed=0.000000m/h.</desc>
<speed>0.000000</speed>
</trkpt>
<trkpt lat="43.123196" lon="19.224247">
<ele>1322.579102</ele>
<time>2012-05-01T11:03:09Z</time>
<desc>lat.=43.123196, lon.=19.224247, Alt.=1322.579102m. Speed=6.768000m/h.</desc>
<speed>1.880000</speed>
</trkpt>
<trkpt lat="43.123180" lon="19.224260">
<ele>1323.610352</ele>
<time>2012-05-01T11:03:14Z</time>
<desc>lat.=43.123180, lon.=19.224260, Alt.=1323.610352m. Speed=6.588000m/h.</desc>
<speed>1.830000</speed>
</trkpt>
<trkpt lat="43.123184" lon="19.224222">
<ele>1324.172852</ele>
<time>2012-05-01T11:03:19Z</time>
<desc>lat.=43.123184, lon.=19.224222, Alt.=1324.172852m. Speed=1.440000m/h.</desc>
<speed>0.400000</speed>
</trkpt>
<trkpt lat="43.123180" lon="19.224224">
<ele>1324.891602</ele>
<time>2012-05-01T11:03:24Z</time>
<desc>lat.=43.123180, lon.=19.224224, Alt.=1324.891602m. Speed=0.144000m/h.</desc>
<speed>0.040000</speed>
</trkpt>
<trkpt lat="43.123180" lon="19.224224">
<ele>1325.485352</ele>
<time>2012-05-01T11:03:29Z</time>
<desc>lat.=43.123180, lon.=19.224224, Alt.=1325.485352m. Speed=0.108000m/h.</desc>
<speed>0.030000</speed>
</trkpt>
<trkpt lat="43.123180" lon="19.224224">
<ele>1325.641602</ele>
<time>2012-05-01T11:03:34Z</time>
<desc>lat.=43.123180, lon.=19.224224, Alt.=1325.641602m. Speed=0.180000m/h.</desc>
<speed>0.050000</speed>
</trkpt>
<trkpt lat="43.123180" lon="19.224224">
<ele>1325.704102</ele>
<time>2012-05-01T11:03:39Z</time>
<desc>lat.=43.123180, lon.=19.224224, Alt.=1325.704102m. Speed=0.036000m/h.</desc>
<speed>0.010000</speed>
</trkpt>
<trkpt lat="43.123180" lon="19.224224">
<ele>1325.704102</ele>
<time>2012-05-01T11:03:44Z</time>
<desc>lat.=43.123180, lon.=19.224224, Alt.=1325.704102m. Speed=0.072000m/h.</desc>
<speed>0.020000</speed>
</trkpt>
<trkpt lat="43.123180" lon="19.224224">
<ele>1325.704102</ele>
<time>2012-05-01T11:03:49Z</time>
<desc>lat.=43.123180, lon.=19.224224, Alt.=1325.704102m. Speed=0.072000m/h.</desc>
<speed>0.020000</speed>
</trkpt>
<trkpt lat="43.123180" lon="19.224224">
<ele>1325.735352</ele>
<time>2012-05-01T11:03:54Z</time>
<desc>lat.=43.123180, lon.=19.224224, Alt.=1325.735352m. Speed=0.108000m/h.</desc>
<speed>0.030000</speed>
</trkpt>
<trkpt lat="43.123180" lon="19.224224">
<ele>1325.735352</ele>
<time>2012-05-01T11:03:59Z</time>
<desc>lat.=43.123180, lon.=19.224224, Alt.=1325.735352m. Speed=0.036000m/h.</desc>
<speed>0.010000</speed>
</trkpt>
<trkpt lat="43.123180" lon="19.224224">
<ele>1325.766602</ele>
<time>2012-05-01T11:04:04Z</time>
<desc>lat.=43.123180, lon.=19.224224, Alt.=1325.766602m. Speed=0.000000m/h.</desc>
<speed>0.000000</speed>
</trkpt>
<trkpt lat="43.123180" lon="19.224224">
<ele>1325.797852</ele>
<time>2012-05-01T11:04:09Z</time>
<desc>lat.=43.123180, lon.=19.224224, Alt.=1325.797852m. Speed=0.000000m/h.</desc>
<speed>0.000000</speed>
</trkpt>
<trkpt lat="43.123180" lon="19.224224">
<ele>1325.766602</ele>
<time>2012-05-01T11:04:14Z</time>
<desc>lat.=43.123180, lon.=19.224224, Alt.=1325.766602m. Speed=0.000000m/h.</desc>
<speed>0.000000</speed>
</trkpt>
<trkpt lat="43.123180" lon="19.224224">
<ele>1325.766602</ele>
<time>2012-05-01T11:04:19Z</time>
<desc>lat.=43.123180, lon.=19.224224, Alt.=1325.766602m. Speed=0.072000m/h.</desc>
<speed>0.020000</speed>
</trkpt>
<trkpt lat="43.123180" lon="19.224224">
<ele>1325.766602</ele>
<time>2012-05-01T11:04:24Z</time>
<desc>lat.=43.123180, lon.=19.224224, Alt.=1325.766602m. Speed=0.000000m/h.</desc>
<speed>0.000000</speed>
</trkpt>
<trkpt lat="43.123180" lon="19.224224">
<ele>1325.766602</ele>
<time>2012-05-01T11:04:29Z</time>
<desc>lat.=43.123180, lon.=19.224224, Alt.=1325.766602m. Speed=0.000000m/h.</desc>
<speed>0.000000</speed>
</trkpt>
<trkpt lat="43.123180" lon="19.224224">
<ele>1325.735352</ele>
<time>2012-05-01T11:04:34Z</time>
<desc>lat.=43.123180, lon.=19.224224, Alt.=1325.735352m. Speed=0.000000m/h.</desc>
<speed>0.000000</speed>
</trkpt>
<trkpt lat="43.123180" lon="19.224224">
<ele>1325.735352</ele>
<time>2012-05-01T11:04:39Z</time>
<desc>lat.=43.123180, lon.=19.224224, Alt.=1325.735352m. Speed=0.144000m/h.</desc>
<speed>0.040000</speed>
</trkpt>
<trkpt lat="43.123180" lon="19.224224">
<ele>1325.735352</ele>
<time>2012-05-01T11:04:44Z</time>
<desc>lat.=43.123180, lon.=19.224224, Alt.=1325.735352m. Speed=0.036000m/h.</desc>
<speed>0.010000</speed>
</trkpt>
<trkpt lat="43.123180" lon="19.224224">
<ele>1325.735352</ele>
<time>2012-05-01T11:04:49Z</time>
<desc>lat.=43.123180, lon.=19.224224, Alt.=1325.735352m. Speed=1.008000m/h.</desc>
<speed>0.280000</speed>
</trkpt>
<trkpt lat="43.123096" lon="19.224142">
<ele>1326.672852</ele>
<time>2012-05-01T11:04:54Z</time>
<desc>lat.=43.123096, lon.=19.224142, Alt.=1326.672852m. Speed=10.872000m/h.</desc>
<speed>3.020000</speed>
</trkpt>
<trkpt lat="43.122948" lon="19.223984">
<ele>1327.610352</ele>
<time>2012-05-01T11:04:59Z</time>
<desc>lat.=43.122948, lon.=19.223984, Alt.=1327.610352m. Speed=14.760000m/h.</desc>
<speed>4.100000</speed>
</trkpt>
<trkpt lat="43.122799" lon="19.223799">
<ele>1327.860352</ele>
<time>2012-05-01T11:05:04Z</time>
<desc>lat.=43.122799, lon.=19.223799, Alt.=1327.860352m. Speed=14.040000m/h.</desc>
<speed>3.900000</speed>
</trkpt>
<trkpt lat="43.122665" lon="19.223642">
<ele>1328.516602</ele>
<time>2012-05-01T11:05:09Z</time>
<desc>lat.=43.122665, lon.=19.223642, Alt.=1328.516602m. Speed=14.796000m/h.</desc>
<speed>4.110000</speed>
</trkpt>
<trkpt lat="43.122524" lon="19.223440">
<ele>1326.797852</ele>
<time>2012-05-01T11:05:14Z</time>
<desc>lat.=43.122524, lon.=19.223440, Alt.=1326.797852m. Speed=15.840000m/h.</desc>
<speed>4.400000</speed>
</trkpt>
<trkpt lat="43.122375" lon="19.223234">
<ele>1325.829102</ele>
<time>2012-05-01T11:05:19Z</time>
<desc>lat.=43.122375, lon.=19.223234, Alt.=1325.829102m. Speed=16.128000m/h.</desc>
<speed>4.480000</speed>
</trkpt>
<trkpt lat="43.122211" lon="19.223051">
<ele>1327.047852</ele>
<time>2012-05-01T11:05:24Z</time>
<desc>lat.=43.122211, lon.=19.223051, Alt.=1327.047852m. Speed=17.604000m/h.</desc>
<speed>4.890000</speed>
</trkpt>
<trkpt lat="43.122066" lon="19.222853">
<ele>1326.860352</ele>
<time>2012-05-01T11:05:29Z</time>
<desc>lat.=43.122066, lon.=19.222853, Alt.=1326.860352m. Speed=13.608000m/h.</desc>
<speed>3.780000</speed>
</trkpt>
<trkpt lat="43.121948" lon="19.222702">
<ele>1327.454102</ele>
<time>2012-05-01T11:05:34Z</time>
<desc>lat.=43.121948, lon.=19.222702, Alt.=1327.454102m. Speed=13.068000m/h.</desc>
<speed>3.630000</speed>
</trkpt>
<trkpt lat="43.121845" lon="19.222555">
<ele>1327.422852</ele>
<time>2012-05-01T11:05:39Z</time>
<desc>lat.=43.121845, lon.=19.222555, Alt.=1327.422852m. Speed=12.024000m/h.</desc>
<speed>3.340000</speed>
</trkpt>
<trkpt lat="43.121727" lon="19.222393">
<ele>1327.672852</ele>
<time>2012-05-01T11:05:44Z</time>
<desc>lat.=43.121727, lon.=19.222393, Alt.=1327.672852m. Speed=14.256000m/h.</desc>
<speed>3.960000</speed>
</trkpt>
<trkpt lat="43.121628" lon="19.222237">
<ele>1328.016602</ele>
<time>2012-05-01T11:05:49Z</time>
<desc>lat.=43.121628, lon.=19.222237, Alt.=1328.016602m. Speed=13.140000m/h.</desc>
<speed>3.650000</speed>
</trkpt>
<trkpt lat="43.121490" lon="19.222057">
<ele>1326.985352</ele>
<time>2012-05-01T11:05:54Z</time>
<desc>lat.=43.121490, lon.=19.222057, Alt.=1326.985352m. Speed=19.044001m/h.</desc>
<speed>5.290000</speed>
</trkpt>
<trkpt lat="43.121311" lon="19.221853">
<ele>1327.704102</ele>
<time>2012-05-01T11:05:59Z</time>
<desc>lat.=43.121311, lon.=19.221853, Alt.=1327.704102m. Speed=15.624000m/h.</desc>
<speed>4.340000</speed>
</trkpt>
<trkpt lat="43.121185" lon="19.221682">
<ele>1327.922852</ele>
<time>2012-05-01T11:06:04Z</time>
<desc>lat.=43.121185, lon.=19.221682, Alt.=1327.922852m. Speed=11.880000m/h.</desc>
<speed>3.300000</speed>
</trkpt>
<trkpt lat="43.121052" lon="19.221535">
<ele>1328.735352</ele>
<time>2012-05-01T11:06:09Z</time>
<desc>lat.=43.121052, lon.=19.221535, Alt.=1328.735352m. Speed=15.480000m/h.</desc>
<speed>4.300000</speed>
</trkpt>
<trkpt lat="43.120911" lon="19.221361">
<ele>1329.610352</ele>
<time>2012-05-01T11:06:14Z</time>
<desc>lat.=43.120911, lon.=19.221361, Alt.=1329.610352m. Speed=15.336000m/h.</desc>
<speed>4.260000</speed>
</trkpt>
<trkpt lat="43.120770" lon="19.221186">
<ele>1329.297852</ele>
<time>2012-05-01T11:06:19Z</time>
<desc>lat.=43.120770, lon.=19.221186, Alt.=1329.297852m. Speed=13.176000m/h.</desc>
<speed>3.660000</speed>
</trkpt>
<trkpt lat="43.120625" lon="19.221012">
<ele>1329.735352</ele>
<time>2012-05-01T11:06:24Z</time>
<desc>lat.=43.120625, lon.=19.221012, Alt.=1329.735352m. Speed=17.424000m/h.</desc>
<speed>4.840000</speed>
</trkpt>
<trkpt lat="43.120499" lon="19.220835">
<ele>1329.829102</ele>
<time>2012-05-01T11:06:29Z</time>
<desc>lat.=43.120499, lon.=19.220835, Alt.=1329.829102m. Speed=14.040000m/h.</desc>
<speed>3.900000</speed>
</trkpt>
<trkpt lat="43.120358" lon="19.220671">
<ele>1330.641602</ele>
<time>2012-05-01T11:06:34Z</time>
<desc>lat.=43.120358, lon.=19.220671, Alt.=1330.641602m. Speed=16.091999m/h.</desc>
<speed>4.470000</speed>
</trkpt>
<trkpt lat="43.120201" lon="19.220465">
<ele>1331.610352</ele>
<time>2012-05-01T11:06:39Z</time>
<desc>lat.=43.120201, lon.=19.220465, Alt.=1331.610352m. Speed=18.288000m/h.</desc>
<speed>5.080000</speed>
</trkpt>
<trkpt lat="43.120029" lon="19.220228">
<ele>1330.641602</ele>
<time>2012-05-01T11:06:44Z</time>
<desc>lat.=43.120029, lon.=19.220228, Alt.=1330.641602m. Speed=19.152000m/h.</desc>
<speed>5.320000</speed>
</trkpt>
<trkpt lat="43.119846" lon="19.220013">
<ele>1331.797852</ele>
<time>2012-05-01T11:06:49Z</time>
<desc>lat.=43.119846, lon.=19.220013, Alt.=1331.797852m. Speed=18.360001m/h.</desc>
<speed>5.100000</speed>
</trkpt>
<trkpt lat="43.119690" lon="19.219820">
<ele>1333.141602</ele>
<time>2012-05-01T11:06:54Z</time>
<desc>lat.=43.119690, lon.=19.219820, Alt.=1333.141602m. Speed=18.000000m/h.</desc>
<speed>5.000000</speed>
</trkpt>
<trkpt lat="43.119518" lon="19.219608">
<ele>1334.204102</ele>
<time>2012-05-01T11:06:59Z</time>
<desc>lat.=43.119518, lon.=19.219608, Alt.=1334.204102m. Speed=18.072001m/h.</desc>
<speed>5.020000</speed>
</trkpt>
<trkpt lat="43.119347" lon="19.219393">
<ele>1335.422852</ele>
<time>2012-05-01T11:07:04Z</time>
<desc>lat.=43.119347, lon.=19.219393, Alt.=1335.422852m. Speed=19.403999m/h.</desc>
<speed>5.390000</speed>
</trkpt>
<trkpt lat="43.119171" lon="19.219172">
<ele>1336.172852</ele>
<time>2012-05-01T11:07:09Z</time>
<desc>lat.=43.119171, lon.=19.219172, Alt.=1336.172852m. Speed=19.764000m/h.</desc>
<speed>5.490000</speed>
</trkpt>
<trkpt lat="43.118988" lon="19.218939">
<ele>1336.641602</ele>
<time>2012-05-01T11:07:14Z</time>
<desc>lat.=43.118988, lon.=19.218939, Alt.=1336.641602m. Speed=19.044001m/h.</desc>
<speed>5.290000</speed>
</trkpt>
<trkpt lat="43.118801" lon="19.218725">
<ele>1339.641602</ele>
<time>2012-05-01T11:07:19Z</time>
<desc>lat.=43.118801, lon.=19.218725, Alt.=1339.641602m. Speed=20.304001m/h.</desc>
<speed>5.640000</speed>
</trkpt>
<trkpt lat="43.118629" lon="19.218494">
<ele>1339.297852</ele>
<time>2012-05-01T11:07:24Z</time>
<desc>lat.=43.118629, lon.=19.218494, Alt.=1339.297852m. Speed=19.296000m/h.</desc>
<speed>5.360000</speed>
</trkpt>
<trkpt lat="43.118473" lon="19.218281">
<ele>1338.360352</ele>
<time>2012-05-01T11:07:29Z</time>
<desc>lat.=43.118473, lon.=19.218281, Alt.=1338.360352m. Speed=16.379999m/h.</desc>
<speed>4.550000</speed>
</trkpt>
<trkpt lat="43.118298" lon="19.218102">
<ele>1340.079102</ele>
<time>2012-05-01T11:07:34Z</time>
<desc>lat.=43.118298, lon.=19.218102, Alt.=1340.079102m. Speed=17.964001m/h.</desc>
<speed>4.990000</speed>
</trkpt>
<trkpt lat="43.118145" lon="19.217909">
<ele>1341.235352</ele>
<time>2012-05-01T11:07:39Z</time>
<desc>lat.=43.118145, lon.=19.217909, Alt.=1341.235352m. Speed=16.596001m/h.</desc>
<speed>4.610000</speed>
</trkpt>
<trkpt lat="43.118004" lon="19.217691">
<ele>1339.860352</ele>
<time>2012-05-01T11:07:44Z</time>
<desc>lat.=43.118004, lon.=19.217691, Alt.=1339.860352m. Speed=17.172001m/h.</desc>
<speed>4.770000</speed>
</trkpt>
<trkpt lat="43.117847" lon="19.217491">
<ele>1340.766602</ele>
<time>2012-05-01T11:07:49Z</time>
<desc>lat.=43.117847, lon.=19.217491, Alt.=1340.766602m. Speed=15.048000m/h.</desc>
<speed>4.180000</speed>
</trkpt>
<trkpt lat="43.117699" lon="19.217312">
<ele>1342.485352</ele>
<time>2012-05-01T11:07:54Z</time>
<desc>lat.=43.117699, lon.=19.217312, Alt.=1342.485352m. Speed=16.128000m/h.</desc>
<speed>4.480000</speed>
</trkpt>
<trkpt lat="43.117565" lon="19.217117">
<ele>1343.735352</ele>
<time>2012-05-01T11:07:59Z</time>
<desc>lat.=43.117565, lon.=19.217117, Alt.=1343.735352m. Speed=15.840000m/h.</desc>
<speed>4.400000</speed>
</trkpt>
<trkpt lat="43.117432" lon="19.216913">
<ele>1347.422852</ele>
<time>2012-05-01T11:08:04Z</time>
<desc>lat.=43.117432, lon.=19.216913, Alt.=1347.422852m. Speed=17.172001m/h.</desc>
<speed>4.770000</speed>
</trkpt>
<trkpt lat="43.117313" lon="19.216660">
<ele>1350.016602</ele>
<time>2012-05-01T11:08:09Z</time>
<desc>lat.=43.117313, lon.=19.216660, Alt.=1350.016602m. Speed=18.288000m/h.</desc>
<speed>5.080000</speed>
</trkpt>
<trkpt lat="43.117191" lon="19.216452">
<ele>1351.610352</ele>
<time>2012-05-01T11:08:14Z</time>
<desc>lat.=43.117191, lon.=19.216452, Alt.=1351.610352m. Speed=13.320000m/h.</desc>
<speed>3.700000</speed>
</trkpt>
<trkpt lat="43.117092" lon="19.216251">
<ele>1353.610352</ele>
<time>2012-05-01T11:08:19Z</time>
<desc>lat.=43.117092, lon.=19.216251, Alt.=1353.610352m. Speed=13.068000m/h.</desc>
<speed>3.630000</speed>
</trkpt>
<trkpt lat="43.116993" lon="19.216095">
<ele>1357.641602</ele>
<time>2012-05-01T11:08:24Z</time>
<desc>lat.=43.116993, lon.=19.216095, Alt.=1357.641602m. Speed=9.972000m/h.</desc>
<speed>2.770000</speed>
</trkpt>
<trkpt lat="43.116913" lon="19.215935">
<ele>1361.110352</ele>
<time>2012-05-01T11:08:29Z</time>
<desc>lat.=43.116913, lon.=19.215935, Alt.=1361.110352m. Speed=10.800000m/h.</desc>
<speed>3.000000</speed>
</trkpt>
<trkpt lat="43.116844" lon="19.215809">
<ele>1363.016602</ele>
<time>2012-05-01T11:08:34Z</time>
<desc>lat.=43.116844, lon.=19.215809, Alt.=1363.016602m. Speed=6.912000m/h.</desc>
<speed>1.920000</speed>
</trkpt>
<trkpt lat="43.116821" lon="19.215754">
<ele>1358.954102</ele>
<time>2012-05-01T11:08:39Z</time>
<desc>lat.=43.116821, lon.=19.215754, Alt.=1358.954102m. Speed=0.756000m/h.</desc>
<speed>0.210000</speed>
</trkpt>
<trkpt lat="43.116825" lon="19.215750">
<ele>1359.016602</ele>
<time>2012-05-01T11:08:44Z</time>
<desc>lat.=43.116825, lon.=19.215750, Alt.=1359.016602m. Speed=0.072000m/h.</desc>
<speed>0.020000</speed>
</trkpt>
<trkpt lat="43.116825" lon="19.215752">
<ele>1359.079102</ele>
<time>2012-05-01T11:08:49Z</time>
<desc>lat.=43.116825, lon.=19.215752, Alt.=1359.079102m. Speed=0.360000m/h.</desc>
<speed>0.100000</speed>
</trkpt>
<trkpt lat="43.116825" lon="19.215754">
<ele>1359.110352</ele>
<time>2012-05-01T11:08:54Z</time>
<desc>lat.=43.116825, lon.=19.215754, Alt.=1359.110352m. Speed=0.504000m/h.</desc>
<speed>0.140000</speed>
</trkpt>
<trkpt lat="43.116821" lon="19.215744">
<ele>1359.047852</ele>
<time>2012-05-01T11:08:59Z</time>
<desc>lat.=43.116821, lon.=19.215744, Alt.=1359.047852m. Speed=0.792000m/h.</desc>
<speed>0.220000</speed>
</trkpt>
<trkpt lat="43.116810" lon="19.215738">
<ele>1358.985352</ele>
<time>2012-05-01T11:09:04Z</time>
<desc>lat.=43.116810, lon.=19.215738, Alt.=1358.985352m. Speed=0.864000m/h.</desc>
<speed>0.240000</speed>
</trkpt>
<trkpt lat="43.116806" lon="19.215742">
<ele>1358.891602</ele>
<time>2012-05-01T11:09:09Z</time>
<desc>lat.=43.116806, lon.=19.215742, Alt.=1358.891602m. Speed=0.036000m/h.</desc>
<speed>0.010000</speed>
</trkpt>
<trkpt lat="43.116806" lon="19.215742">
<ele>1358.954102</ele>
<time>2012-05-01T11:09:14Z</time>
<desc>lat.=43.116806, lon.=19.215742, Alt.=1358.954102m. Speed=0.216000m/h.</desc>
<speed>0.060000</speed>
</trkpt>
<trkpt lat="43.116814" lon="19.215746">
<ele>1359.016602</ele>
<time>2012-05-01T11:09:19Z</time>
<desc>lat.=43.116814, lon.=19.215746, Alt.=1359.016602m. Speed=0.324000m/h.</desc>
<speed>0.090000</speed>
</trkpt>
<trkpt lat="43.116814" lon="19.215748">
<ele>1359.047852</ele>
<time>2012-05-01T11:09:24Z</time>
<desc>lat.=43.116814, lon.=19.215748, Alt.=1359.047852m. Speed=0.000000m/h.</desc>
<speed>0.000000</speed>
</trkpt>
<trkpt lat="43.116817" lon="19.215750">
<ele>1359.047852</ele>
<time>2012-05-01T11:09:29Z</time>
<desc>lat.=43.116817, lon.=19.215750, Alt.=1359.047852m. Speed=0.036000m/h.</desc>
<speed>0.010000</speed>
</trkpt>
<trkpt lat="43.116817" lon="19.215748">
<ele>1359.047852</ele>
<time>2012-05-01T11:09:34Z</time>
<desc>lat.=43.116817, lon.=19.215748, Alt.=1359.047852m. Speed=0.108000m/h.</desc>
<speed>0.030000</speed>
</trkpt>
<trkpt lat="43.116817" lon="19.215748">
<ele>1358.954102</ele>
<time>2012-05-01T11:09:39Z</time>
<desc>lat.=43.116817, lon.=19.215748, Alt.=1358.954102m. Speed=0.072000m/h.</desc>
<speed>0.020000</speed>
</trkpt>
<trkpt lat="43.116817" lon="19.215748">
<ele>1358.891602</ele>
<time>2012-05-01T11:09:44Z</time>
<desc>lat.=43.116817, lon.=19.215748, Alt.=1358.891602m. Speed=0.144000m/h.</desc>
<speed>0.040000</speed>
</trkpt>
<trkpt lat="43.116817" lon="19.215748">
<ele>1358.797852</ele>
<time>2012-05-01T11:09:49Z</time>
<desc>lat.=43.116817, lon.=19.215748, Alt.=1358.797852m. Speed=0.072000m/h.</desc>
<speed>0.020000</speed>
</trkpt>
<trkpt lat="43.116817" lon="19.215748">
<ele>1358.704102</ele>
<time>2012-05-01T11:09:54Z</time>
<desc>lat.=43.116817, lon.=19.215748, Alt.=1358.704102m. Speed=0.216000m/h.</desc>
<speed>0.060000</speed>
</trkpt>
<trkpt lat="43.116817" lon="19.215748">
<ele>1358.672852</ele>
<time>2012-05-01T11:09:59Z</time>
<desc>lat.=43.116817, lon.=19.215748, Alt.=1358.672852m. Speed=0.036000m/h.</desc>
<speed>0.010000</speed>
</trkpt>
<trkpt lat="43.116817" lon="19.215748">
<ele>1358.641602</ele>
<time>2012-05-01T11:10:04Z</time>
<desc>lat.=43.116817, lon.=19.215748, Alt.=1358.641602m. Speed=0.036000m/h.</desc>
<speed>0.010000</speed>
</trkpt>
<trkpt lat="43.116821" lon="19.215746">
<ele>1358.610352</ele>
<time>2012-05-01T11:10:09Z</time>
<desc>lat.=43.116821, lon.=19.215746, Alt.=1358.610352m. Speed=0.000000m/h.</desc>
<speed>0.000000</speed>
</trkpt>
<trkpt lat="43.116821" lon="19.215746">
<ele>1358.610352</ele>
<time>2012-05-01T11:10:14Z</time>
<desc>lat.=43.116821, lon.=19.215746, Alt.=1358.610352m. Speed=0.000000m/h.</desc>
<speed>0.000000</speed>
</trkpt>
<trkpt lat="43.116821" lon="19.215746">
<ele>1358.579102</ele>
<time>2012-05-01T11:10:19Z</time>
<desc>lat.=43.116821, lon.=19.215746, Alt.=1358.579102m. Speed=0.000000m/h.</desc>
<speed>0.000000</speed>
</trkpt>
<trkpt lat="43.116821" lon="19.215746">
<ele>1358.547852</ele>
<time>2012-05-01T11:10:24Z</time>
<desc>lat.=43.116821, lon.=19.215746, Alt.=1358.547852m. Speed=0.036000m/h.</desc>
<speed>0.010000</speed>
</trkpt>
<trkpt lat="43.116821" lon="19.215746">
<ele>1358.547852</ele>
<time>2012-05-01T11:10:29Z</time>
<desc>lat.=43.116821, lon.=19.215746, Alt.=1358.547852m. Speed=0.000000m/h.</desc>
<speed>0.000000</speed>
</trkpt>
<trkpt lat="43.116821" lon="19.215746">
<ele>1358.485352</ele>
<time>2012-05-01T11:10:34Z</time>
<desc>lat.=43.116821, lon.=19.215746, Alt.=1358.485352m. Speed=0.000000m/h.</desc>
<speed>0.000000</speed>
</trkpt>
<trkpt lat="43.116821" lon="19.215746">
<ele>1358.422852</ele>
<time>2012-05-01T11:10:39Z</time>
<desc>lat.=43.116821, lon.=19.215746, Alt.=1358.422852m. Speed=0.000000m/h.</desc>
<speed>0.000000</speed>
</trkpt>
<trkpt lat="43.116821" lon="19.215746">
<ele>1358.391602</ele>
<time>2012-05-01T11:10:44Z</time>
<desc>lat.=43.116821, lon.=19.215746, Alt.=1358.391602m. Speed=0.000000m/h.</desc>
<speed>0.000000</speed>
</trkpt>
<trkpt lat="43.116821" lon="19.215746">
<ele>1358.360352</ele>
<time>2012-05-01T11:10:49Z</time>
<desc>lat.=43.116821, lon.=19.215746, Alt.=1358.360352m. Speed=0.036000m/h.</desc>
<speed>0.010000</speed>
</trkpt>
<trkpt lat="43.116821" lon="19.215746">
<ele>1358.329102</ele>
<time>2012-05-01T11:10:54Z</time>
<desc>lat.=43.116821, lon.=19.215746, Alt.=1358.329102m. Speed=0.000000m/h.</desc>
<speed>0.000000</speed>
</trkpt>
<trkpt lat="43.116821" lon="19.215746">
<ele>1358.360352</ele>
<time>2012-05-01T11:10:59Z</time>
<desc>lat.=43.116821, lon.=19.215746, Alt.=1358.360352m. Speed=0.036000m/h.</desc>
<speed>0.010000</speed>
</trkpt>
<trkpt lat="43.116821" lon="19.215746">
<ele>1358.329102</ele>
<time>2012-05-01T11:11:04Z</time>
<desc>lat.=43.116821, lon.=19.215746, Alt.=1358.329102m. Speed=0.036000m/h.</desc>
<speed>0.010000</speed>
</trkpt>
<trkpt lat="43.116821" lon="19.215746">
<ele>1358.329102</ele>
<time>2012-05-01T11:11:09Z</time>
<desc>lat.=43.116821, lon.=19.215746, Alt.=1358.329102m. Speed=0.036000m/h.</desc>
<speed>0.010000</speed>
</trkpt>
<trkpt lat="43.116821" lon="19.215746">
<ele>1358.360352</ele>
<time>2012-05-01T11:11:14Z</time>
<desc>lat.=43.116821, lon.=19.215746, Alt.=1358.360352m. Speed=0.396000m/h.</desc>
<speed>0.110000</speed>
</trkpt>
<trkpt lat="43.116787" lon="19.215668">
<ele>1357.329102</ele>
<time>2012-05-01T11:11:19Z</time>
<desc>lat.=43.116787, lon.=19.215668, Alt.=1357.329102m. Speed=8.892000m/h.</desc>
<speed>2.470000</speed>
</trkpt>
<trkpt lat="43.116745" lon="19.215513">
<ele>1354.735352</ele>
<time>2012-05-01T11:11:24Z</time>
<desc>lat.=43.116745, lon.=19.215513, Alt.=1354.735352m. Speed=9.036000m/h.</desc>
<speed>2.510000</speed>
</trkpt>
<trkpt lat="43.116684" lon="19.215355">
<ele>1352.329102</ele>
<time>2012-05-01T11:11:29Z</time>
<desc>lat.=43.116684, lon.=19.215355, Alt.=1352.329102m. Speed=11.556000m/h.</desc>
<speed>3.210000</speed>
</trkpt>
<trkpt lat="43.116592" lon="19.215136">
<ele>1352.172852</ele>
<time>2012-05-01T11:11:34Z</time>
<desc>lat.=43.116592, lon.=19.215136, Alt.=1352.172852m. Speed=10.404000m/h.</desc>
<speed>2.890000</speed>
</trkpt>
<trkpt lat="43.116486" lon="19.214983">
<ele>1351.266602</ele>
<time>2012-05-01T11:11:39Z</time>
<desc>lat.=43.116486, lon.=19.214983, Alt.=1351.266602m. Speed=12.240000m/h.</desc>
<speed>3.400000</speed>
</trkpt>
<trkpt lat="43.116344" lon="19.214823">
<ele>1352.547852</ele>
<time>2012-05-01T11:11:44Z</time>
<desc>lat.=43.116344, lon.=19.214823, Alt.=1352.547852m. Speed=13.428000m/h.</desc>
<speed>3.730000</speed>
</trkpt>
<trkpt lat="43.116249" lon="19.214556">
<ele>1353.954102</ele>
<time>2012-05-01T11:11:49Z</time>
<desc>lat.=43.116249, lon.=19.214556, Alt.=1353.954102m. Speed=16.775999m/h.</desc>
<speed>4.660000</speed>
</trkpt>
<trkpt lat="43.116180" lon="19.214333">
<ele>1356.110352</ele>
<time>2012-05-01T11:11:54Z</time>
<desc>lat.=43.116180, lon.=19.214333, Alt.=1356.110352m. Speed=11.304000m/h.</desc>
<speed>3.140000</speed>
</trkpt>
<trkpt lat="43.116146" lon="19.214104">
<ele>1354.079102</ele>
<time>2012-05-01T11:11:59Z</time>
<desc>lat.=43.116146, lon.=19.214104, Alt.=1354.079102m. Speed=10.476000m/h.</desc>
<speed>2.910000</speed>
</trkpt>
<trkpt lat="43.116154" lon="19.213989">
<ele>1353.985352</ele>
<time>2012-05-01T11:12:04Z</time>
<desc>lat.=43.116154, lon.=19.213989, Alt.=1353.985352m. Speed=5.652000m/h.</desc>
<speed>1.570000</speed>
</trkpt>
<trkpt lat="43.116177" lon="19.213892">
<ele>1354.922852</ele>
<time>2012-05-01T11:12:09Z</time>
<desc>lat.=43.116177, lon.=19.213892, Alt.=1354.922852m. Speed=9.468000m/h.</desc>
<speed>2.630000</speed>
</trkpt>
<trkpt lat="43.116196" lon="19.213722">
<ele>1356.329102</ele>
<time>2012-05-01T11:12:14Z</time>
<desc>lat.=43.116196, lon.=19.213722, Alt.=1356.329102m. Speed=11.484000m/h.</desc>
<speed>3.190000</speed>
</trkpt>
<trkpt lat="43.116173" lon="19.213554">
<ele>1357.172852</ele>
<time>2012-05-01T11:12:19Z</time>
<desc>lat.=43.116173, lon.=19.213554, Alt.=1357.172852m. Speed=9.324000m/h.</desc>
<speed>2.590000</speed>
</trkpt>
<trkpt lat="43.116169" lon="19.213366">
<ele>1356.579102</ele>
<time>2012-05-01T11:12:24Z</time>
<desc>lat.=43.116169, lon.=19.213366, Alt.=1356.579102m. Speed=9.072000m/h.</desc>
<speed>2.520000</speed>
</trkpt>
<trkpt lat="43.116119" lon="19.213243">
<ele>1359.016602</ele>
<time>2012-05-01T11:12:29Z</time>
<desc>lat.=43.116119, lon.=19.213243, Alt.=1359.016602m. Speed=5.184000m/h.</desc>
<speed>1.440000</speed>
</trkpt>
<trkpt lat="43.116131" lon="19.213171">
<ele>1360.766602</ele>
<time>2012-05-01T11:12:34Z</time>
<desc>lat.=43.116131, lon.=19.213171, Alt.=1360.766602m. Speed=6.732000m/h.</desc>
<speed>1.870000</speed>
</trkpt>
<trkpt lat="43.116142" lon="19.213024">
<ele>1362.891602</ele>
<time>2012-05-01T11:12:39Z</time>
<desc>lat.=43.116142, lon.=19.213024, Alt.=1362.891602m. Speed=10.584000m/h.</desc>
<speed>2.940000</speed>
</trkpt>
<trkpt lat="43.116062" lon="19.212929">
<ele>1365.985352</ele>
<time>2012-05-01T11:12:44Z</time>
<desc>lat.=43.116062, lon.=19.212929, Alt.=1365.985352m. Speed=5.292000m/h.</desc>
<speed>1.470000</speed>
</trkpt>
<trkpt lat="43.115936" lon="19.212839">
<ele>1370.329102</ele>
<time>2012-05-01T11:12:49Z</time>
<desc>lat.=43.115936, lon.=19.212839, Alt.=1370.329102m. Speed=7.164000m/h.</desc>
<speed>1.990000</speed>
</trkpt>
<trkpt lat="43.115856" lon="19.212765">
<ele>1372.516602</ele>
<time>2012-05-01T11:12:54Z</time>
<desc>lat.=43.115856, lon.=19.212765, Alt.=1372.516602m. Speed=6.552000m/h.</desc>
<speed>1.820000</speed>
</trkpt>
<trkpt lat="43.115784" lon="19.212704">
<ele>1372.641602</ele>
<time>2012-05-01T11:12:59Z</time>
<desc>lat.=43.115784, lon.=19.212704, Alt.=1372.641602m. Speed=6.048000m/h.</desc>
<speed>1.680000</speed>
</trkpt>
<trkpt lat="43.115696" lon="19.212641">
<ele>1374.297852</ele>
<time>2012-05-01T11:13:04Z</time>
<desc>lat.=43.115696, lon.=19.212641, Alt.=1374.297852m. Speed=6.624000m/h.</desc>
<speed>1.840000</speed>
</trkpt>
<trkpt lat="43.115631" lon="19.212584">
<ele>1376.016602</ele>
<time>2012-05-01T11:13:09Z</time>
<desc>lat.=43.115631, lon.=19.212584, Alt.=1376.016602m. Speed=5.796000m/h.</desc>
<speed>1.610000</speed>
</trkpt>
<trkpt lat="43.115562" lon="19.212517">
<ele>1375.079102</ele>
<time>2012-05-01T11:13:14Z</time>
<desc>lat.=43.115562, lon.=19.212517, Alt.=1375.079102m. Speed=4.860000m/h.</desc>
<speed>1.350000</speed>
</trkpt>
<trkpt lat="43.115524" lon="19.212406">
<ele>1372.797852</ele>
<time>2012-05-01T11:13:19Z</time>
<desc>lat.=43.115524, lon.=19.212406, Alt.=1372.797852m. Speed=6.552000m/h.</desc>
<speed>1.820000</speed>
</trkpt>
<trkpt lat="43.115444" lon="19.212343">
<ele>1373.079102</ele>
<time>2012-05-01T11:13:24Z</time>
<desc>lat.=43.115444, lon.=19.212343, Alt.=1373.079102m. Speed=8.316000m/h.</desc>
<speed>2.310000</speed>
</trkpt>
<trkpt lat="43.115387" lon="19.212198">
<ele>1370.016602</ele>
<time>2012-05-01T11:13:29Z</time>
<desc>lat.=43.115387, lon.=19.212198, Alt.=1370.016602m. Speed=8.136000m/h.</desc>
<speed>2.260000</speed>
</trkpt>
<trkpt lat="43.115345" lon="19.212059">
<ele>1371.079102</ele>
<time>2012-05-01T11:13:34Z</time>
<desc>lat.=43.115345, lon.=19.212059, Alt.=1371.079102m. Speed=5.076000m/h.</desc>
<speed>1.410000</speed>
</trkpt>
<trkpt lat="43.115368" lon="19.211958">
<ele>1370.360352</ele>
<time>2012-05-01T11:13:39Z</time>
<desc>lat.=43.115368, lon.=19.211958, Alt.=1370.360352m. Speed=7.380000m/h.</desc>
<speed>2.050000</speed>
</trkpt>
<trkpt lat="43.115372" lon="19.211836">
<ele>1370.329102</ele>
<time>2012-05-01T11:13:44Z</time>
<desc>lat.=43.115372, lon.=19.211836, Alt.=1370.329102m. Speed=6.912000m/h.</desc>
<speed>1.920000</speed>
</trkpt>
<trkpt lat="43.115360" lon="19.211723">
<ele>1370.704102</ele>
<time>2012-05-01T11:13:49Z</time>
<desc>lat.=43.115360, lon.=19.211723, Alt.=1370.704102m. Speed=5.940000m/h.</desc>
<speed>1.650000</speed>
</trkpt>
<trkpt lat="43.115356" lon="19.211596">
<ele>1372.516602</ele>
<time>2012-05-01T11:13:54Z</time>
<desc>lat.=43.115356, lon.=19.211596, Alt.=1372.516602m. Speed=6.228000m/h.</desc>
<speed>1.730000</speed>
</trkpt>
<trkpt lat="43.115356" lon="19.211472">
<ele>1375.110352</ele>
<time>2012-05-01T11:13:59Z</time>
<desc>lat.=43.115356, lon.=19.211472, Alt.=1375.110352m. Speed=5.940000m/h.</desc>
<speed>1.650000</speed>
</trkpt>
<trkpt lat="43.115368" lon="19.211355">
<ele>1379.141602</ele>
<time>2012-05-01T11:14:04Z</time>
<desc>lat.=43.115368, lon.=19.211355, Alt.=1379.141602m. Speed=7.344000m/h.</desc>
<speed>2.040000</speed>
</trkpt>
<trkpt lat="43.115391" lon="19.211233">
<ele>1383.860352</ele>
<time>2012-05-01T11:14:09Z</time>
<desc>lat.=43.115391, lon.=19.211233, Alt.=1383.860352m. Speed=3.816000m/h.</desc>
<speed>1.060000</speed>
</trkpt>
<trkpt lat="43.115440" lon="19.211100">
<ele>1386.485352</ele>
<time>2012-05-01T11:14:14Z</time>
<desc>lat.=43.115440, lon.=19.211100, Alt.=1386.485352m. Speed=7.524000m/h.</desc>
<speed>2.090000</speed>
</trkpt>
<trkpt lat="43.115421" lon="19.210926">
<ele>1390.766602</ele>
<time>2012-05-01T11:14:19Z</time>
<desc>lat.=43.115421, lon.=19.210926, Alt.=1390.766602m. Speed=9.936000m/h.</desc>
<speed>2.760000</speed>
</trkpt>
<trkpt lat="43.115341" lon="19.210766">
<ele>1391.766602</ele>
<time>2012-05-01T11:14:24Z</time>
<desc>lat.=43.115341, lon.=19.210766, Alt.=1391.766602m. Speed=9.864000m/h.</desc>
<speed>2.740000</speed>
</trkpt>
<trkpt lat="43.115295" lon="19.210638">
<ele>1392.391602</ele>
<time>2012-05-01T11:14:29Z</time>
<desc>lat.=43.115295, lon.=19.210638, Alt.=1392.391602m. Speed=3.960000m/h.</desc>
<speed>1.100000</speed>
</trkpt>
<trkpt lat="43.115231" lon="19.210606">
<ele>1393.079102</ele>
<time>2012-05-01T11:14:34Z</time>
<desc>lat.=43.115231, lon.=19.210606, Alt.=1393.079102m. Speed=5.544000m/h.</desc>
<speed>1.540000</speed>
</trkpt>
<trkpt lat="43.115139" lon="19.210569">
<ele>1393.672852</ele>
<time>2012-05-01T11:14:39Z</time>
<desc>lat.=43.115139, lon.=19.210569, Alt.=1393.672852m. Speed=8.028000m/h.</desc>
<speed>2.230000</speed>
</trkpt>
<trkpt lat="43.115044" lon="19.210512">
<ele>1394.360352</ele>
<time>2012-05-01T11:14:44Z</time>
<desc>lat.=43.115044, lon.=19.210512, Alt.=1394.360352m. Speed=9.036000m/h.</desc>
<speed>2.510000</speed>
</trkpt>
<trkpt lat="43.114914" lon="19.210575">
<ele>1394.422852</ele>
<time>2012-05-01T11:14:49Z</time>
<desc>lat.=43.114914, lon.=19.210575, Alt.=1394.422852m. Speed=5.076000m/h.</desc>
<speed>1.410000</speed>
</trkpt>
<trkpt lat="43.114796" lon="19.210434">
<ele>1395.360352</ele>
<time>2012-05-01T11:14:54Z</time>
<desc>lat.=43.114796, lon.=19.210434, Alt.=1395.360352m. Speed=9.360000m/h.</desc>
<speed>2.600000</speed>
</trkpt>
<trkpt lat="43.114780" lon="19.210234">
<ele>1394.079102</ele>
<time>2012-05-01T11:14:59Z</time>
<desc>lat.=43.114780, lon.=19.210234, Alt.=1394.079102m. Speed=8.604000m/h.</desc>
<speed>2.390000</speed>
</trkpt>
<trkpt lat="43.114769" lon="19.210165">
<ele>1393.954102</ele>
<time>2012-05-01T11:15:04Z</time>
<desc>lat.=43.114769, lon.=19.210165, Alt.=1393.954102m. Speed=0.144000m/h.</desc>
<speed>0.040000</speed>
</trkpt>
<trkpt lat="43.114777" lon="19.210072">
<ele>1393.329102</ele>
<time>2012-05-01T11:15:09Z</time>
<desc>lat.=43.114777, lon.=19.210072, Alt.=1393.329102m. Speed=9.252000m/h.</desc>
<speed>2.570000</speed>
</trkpt>
<trkpt lat="43.114792" lon="19.209887">
<ele>1393.672852</ele>
<time>2012-05-01T11:15:14Z</time>
<desc>lat.=43.114792, lon.=19.209887, Alt.=1393.672852m. Speed=6.372000m/h.</desc>
<speed>1.770000</speed>
</trkpt>
<trkpt lat="43.114811" lon="19.209742">
<ele>1393.391602</ele>
<time>2012-05-01T11:15:19Z</time>
<desc>lat.=43.114811, lon.=19.209742, Alt.=1393.391602m. Speed=7.956000m/h.</desc>
<speed>2.210000</speed>
</trkpt>
<trkpt lat="43.114811" lon="19.209549">
<ele>1393.422852</ele>
<time>2012-05-01T11:15:24Z</time>
<desc>lat.=43.114811, lon.=19.209549, Alt.=1393.422852m. Speed=10.512000m/h.</desc>
<speed>2.920000</speed>
</trkpt>
<trkpt lat="43.114773" lon="19.209351">
<ele>1394.047852</ele>
<time>2012-05-01T11:15:29Z</time>
<desc>lat.=43.114773, lon.=19.209351, Alt.=1394.047852m. Speed=13.068000m/h.</desc>
<speed>3.630000</speed>
</trkpt>
<trkpt lat="43.114746" lon="19.209091">
<ele>1393.266602</ele>
<time>2012-05-01T11:15:34Z</time>
<desc>lat.=43.114746, lon.=19.209091, Alt.=1393.266602m. Speed=11.160000m/h.</desc>
<speed>3.100000</speed>
</trkpt>
<trkpt lat="43.114765" lon="19.208897">
<ele>1392.141602</ele>
<time>2012-05-01T11:15:39Z</time>
<desc>lat.=43.114765, lon.=19.208897, Alt.=1392.141602m. Speed=13.428000m/h.</desc>
<speed>3.730000</speed>
</trkpt>
<trkpt lat="43.114803" lon="19.208693">
<ele>1392.047852</ele>
<time>2012-05-01T11:15:44Z</time>
<desc>lat.=43.114803, lon.=19.208693, Alt.=1392.047852m. Speed=13.644000m/h.</desc>
<speed>3.790000</speed>
</trkpt>
<trkpt lat="43.114834" lon="19.208433">
<ele>1393.266602</ele>
<time>2012-05-01T11:15:49Z</time>
<desc>lat.=43.114834, lon.=19.208433, Alt.=1393.266602m. Speed=16.200001m/h.</desc>
<speed>4.500000</speed>
</trkpt>
<trkpt lat="43.114868" lon="19.208197">
<ele>1391.172852</ele>
<time>2012-05-01T11:15:54Z</time>
<desc>lat.=43.114868, lon.=19.208197, Alt.=1391.172852m. Speed=11.916000m/h.</desc>
<speed>3.310000</speed>
</trkpt>
<trkpt lat="43.114902" lon="19.207960">
<ele>1389.547852</ele>
<time>2012-05-01T11:15:59Z</time>
<desc>lat.=43.114902, lon.=19.207960, Alt.=1389.547852m. Speed=15.624000m/h.</desc>
<speed>4.340000</speed>
</trkpt>
<trkpt lat="43.114952" lon="19.207712">
<ele>1387.922852</ele>
<time>2012-05-01T11:16:04Z</time>
<desc>lat.=43.114952, lon.=19.207712, Alt.=1387.922852m. Speed=12.060000m/h.</desc>
<speed>3.350000</speed>
</trkpt>
<trkpt lat="43.114990" lon="19.207493">
<ele>1387.110352</ele>
<time>2012-05-01T11:16:09Z</time>
<desc>lat.=43.114990, lon.=19.207493, Alt.=1387.110352m. Speed=14.328000m/h.</desc>
<speed>3.980000</speed>
</trkpt>
<trkpt lat="43.115021" lon="19.207266">
<ele>1386.485352</ele>
<time>2012-05-01T11:16:14Z</time>
<desc>lat.=43.115021, lon.=19.207266, Alt.=1386.485352m. Speed=13.104000m/h.</desc>
<speed>3.640000</speed>
</trkpt>
<trkpt lat="43.115032" lon="19.207020">
<ele>1386.047852</ele>
<time>2012-05-01T11:16:19Z</time>
<desc>lat.=43.115032, lon.=19.207020, Alt.=1386.047852m. Speed=14.652000m/h.</desc>
<speed>4.070000</speed>
</trkpt>
<trkpt lat="43.115013" lon="19.206799">
<ele>1385.922852</ele>
<time>2012-05-01T11:16:24Z</time>
<desc>lat.=43.115013, lon.=19.206799, Alt.=1385.922852m. Speed=12.384000m/h.</desc>
<speed>3.440000</speed>
</trkpt>
<trkpt lat="43.114975" lon="19.206596">
<ele>1387.110352</ele>
<time>2012-05-01T11:16:29Z</time>
<desc>lat.=43.114975, lon.=19.206596, Alt.=1387.110352m. Speed=13.176000m/h.</desc>
<speed>3.660000</speed>
</trkpt>
<trkpt lat="43.114895" lon="19.206402">
<ele>1388.360352</ele>
<time>2012-05-01T11:16:34Z</time>
<desc>lat.=43.114895, lon.=19.206402, Alt.=1388.360352m. Speed=13.572000m/h.</desc>
<speed>3.770000</speed>
</trkpt>
<trkpt lat="43.114799" lon="19.206215">
<ele>1389.047852</ele>
<time>2012-05-01T11:16:39Z</time>
<desc>lat.=43.114799, lon.=19.206215, Alt.=1389.047852m. Speed=14.112000m/h.</desc>
<speed>3.920000</speed>
</trkpt>
<trkpt lat="43.114700" lon="19.206030">
<ele>1389.766602</ele>
<time>2012-05-01T11:16:44Z</time>
<desc>lat.=43.114700, lon.=19.206030, Alt.=1389.766602m. Speed=14.184000m/h.</desc>
<speed>3.940000</speed>
</trkpt>
<trkpt lat="43.114590" lon="19.205832">
<ele>1390.985352</ele>
<time>2012-05-01T11:16:49Z</time>
<desc>lat.=43.114590, lon.=19.205832, Alt.=1390.985352m. Speed=13.680000m/h.</desc>
<speed>3.800000</speed>
</trkpt>
<trkpt lat="43.114517" lon="19.205620">
<ele>1392.422852</ele>
<time>2012-05-01T11:16:54Z</time>
<desc>lat.=43.114517, lon.=19.205620, Alt.=1392.422852m. Speed=14.580000m/h.</desc>
<speed>4.050000</speed>
</trkpt>
<trkpt lat="43.114555" lon="19.205383">
<ele>1393.297852</ele>
<time>2012-05-01T11:16:59Z</time>
<desc>lat.=43.114555, lon.=19.205383, Alt.=1393.297852m. Speed=13.644000m/h.</desc>
<speed>3.790000</speed>
</trkpt>
<trkpt lat="43.114590" lon="19.205154">
<ele>1394.704102</ele>
<time>2012-05-01T11:17:04Z</time>
<desc>lat.=43.114590, lon.=19.205154, Alt.=1394.704102m. Speed=14.184000m/h.</desc>
<speed>3.940000</speed>
</trkpt>
<trkpt lat="43.114620" lon="19.204910">
<ele>1394.891602</ele>
<time>2012-05-01T11:17:09Z</time>
<desc>lat.=43.114620, lon.=19.204910, Alt.=1394.891602m. Speed=14.148000m/h.</desc>
<speed>3.930000</speed>
</trkpt>
<trkpt lat="43.114658" lon="19.204660">
<ele>1394.547852</ele>
<time>2012-05-01T11:17:14Z</time>
<desc>lat.=43.114658, lon.=19.204660, Alt.=1394.547852m. Speed=14.220000m/h.</desc>
<speed>3.950000</speed>
</trkpt>
<trkpt lat="43.114689" lon="19.204416">
<ele>1395.485352</ele>
<time>2012-05-01T11:17:19Z</time>
<desc>lat.=43.114689, lon.=19.204416, Alt.=1395.485352m. Speed=13.932000m/h.</desc>
<speed>3.870000</speed>
</trkpt>
<trkpt lat="43.114731" lon="19.204195">
<ele>1395.172852</ele>
<time>2012-05-01T11:17:24Z</time>
<desc>lat.=43.114731, lon.=19.204195, Alt.=1395.172852m. Speed=13.716000m/h.</desc>
<speed>3.810000</speed>
</trkpt>
<trkpt lat="43.114758" lon="19.203976">
<ele>1395.485352</ele>
<time>2012-05-01T11:17:29Z</time>
<desc>lat.=43.114758, lon.=19.203976, Alt.=1395.485352m. Speed=13.896000m/h.</desc>
<speed>3.860000</speed>
</trkpt>
<trkpt lat="43.114796" lon="19.203739">
<ele>1395.235352</ele>
<time>2012-05-01T11:17:34Z</time>
<desc>lat.=43.114796, lon.=19.203739, Alt.=1395.235352m. Speed=13.644000m/h.</desc>
<speed>3.790000</speed>
</trkpt>
<trkpt lat="43.114853" lon="19.203512">
<ele>1395.829102</ele>
<time>2012-05-01T11:17:39Z</time>
<desc>lat.=43.114853, lon.=19.203512, Alt.=1395.829102m. Speed=14.796000m/h.</desc>
<speed>4.110000</speed>
</trkpt>
<trkpt lat="43.114933" lon="19.203300">
<ele>1396.485352</ele>
<time>2012-05-01T11:17:44Z</time>
<desc>lat.=43.114933, lon.=19.203300, Alt.=1396.485352m. Speed=12.672000m/h.</desc>
<speed>3.520000</speed>
</trkpt>
<trkpt lat="43.115013" lon="19.203131">
<ele>1396.922852</ele>
<time>2012-05-01T11:17:49Z</time>
<desc>lat.=43.115013, lon.=19.203131, Alt.=1396.922852m. Speed=11.340000m/h.</desc>
<speed>3.150000</speed>
</trkpt>
<trkpt lat="43.115082" lon="19.202948">
<ele>1397.141602</ele>
<time>2012-05-01T11:17:54Z</time>
<desc>lat.=43.115082, lon.=19.202948, Alt.=1397.141602m. Speed=12.060000m/h.</desc>
<speed>3.350000</speed>
</trkpt>
<trkpt lat="43.115108" lon="19.202745">
<ele>1395.422852</ele>
<time>2012-05-01T11:17:59Z</time>
<desc>lat.=43.115108, lon.=19.202745, Alt.=1395.422852m. Speed=10.836000m/h.</desc>
<speed>3.010000</speed>
</trkpt>
<trkpt lat="43.115120" lon="19.202545">
<ele>1394.235352</ele>
<time>2012-05-01T11:18:04Z</time>
<desc>lat.=43.115120, lon.=19.202545, Alt.=1394.235352m. Speed=12.492000m/h.</desc>
<speed>3.470000</speed>
</trkpt>
<trkpt lat="43.115154" lon="19.202326">
<ele>1392.204102</ele>
<time>2012-05-01T11:18:09Z</time>
<desc>lat.=43.115154, lon.=19.202326, Alt.=1392.204102m. Speed=13.788000m/h.</desc>
<speed>3.830000</speed>
</trkpt>
<trkpt lat="43.115261" lon="19.202160">
<ele>1392.891602</ele>
<time>2012-05-01T11:18:14Z</time>
<desc>lat.=43.115261, lon.=19.202160, Alt.=1392.891602m. Speed=12.492000m/h.</desc>
<speed>3.470000</speed>
</trkpt>
<trkpt lat="43.115391" lon="19.202040">
<ele>1393.610352</ele>
<time>2012-05-01T11:18:19Z</time>
<desc>lat.=43.115391, lon.=19.202040, Alt.=1393.610352m. Speed=12.240000m/h.</desc>
<speed>3.400000</speed>
</trkpt>
<trkpt lat="43.115509" lon="19.201912">
<ele>1394.579102</ele>
<time>2012-05-01T11:18:24Z</time>
<desc>lat.=43.115509, lon.=19.201912, Alt.=1394.579102m. Speed=12.240000m/h.</desc>
<speed>3.400000</speed>
</trkpt>
<trkpt lat="43.115528" lon="19.201717">
<ele>1395.797852</ele>
<time>2012-05-01T11:18:29Z</time>
<desc>lat.=43.115528, lon.=19.201717, Alt.=1395.797852m. Speed=11.844000m/h.</desc>
<speed>3.290000</speed>
</trkpt>
<trkpt lat="43.115513" lon="19.201517">
<ele>1396.672852</ele>
<time>2012-05-01T11:18:34Z</time>
<desc>lat.=43.115513, lon.=19.201517, Alt.=1396.672852m. Speed=11.520000m/h.</desc>
<speed>3.200000</speed>
</trkpt>
<trkpt lat="43.115494" lon="19.201336">
<ele>1397.079102</ele>
<time>2012-05-01T11:18:39Z</time>
<desc>lat.=43.115494, lon.=19.201336, Alt.=1397.079102m. Speed=12.096000m/h.</desc>
<speed>3.360000</speed>
</trkpt>
<trkpt lat="43.115467" lon="19.201134">
<ele>1397.516602</ele>
<time>2012-05-01T11:18:44Z</time>
<desc>lat.=43.115467, lon.=19.201134, Alt.=1397.516602m. Speed=11.844000m/h.</desc>
<speed>3.290000</speed>
</trkpt>
<trkpt lat="43.115429" lon="19.200939">
<ele>1397.860352</ele>
<time>2012-05-01T11:18:49Z</time>
<desc>lat.=43.115429, lon.=19.200939, Alt.=1397.860352m. Speed=12.456000m/h.</desc>
<speed>3.460000</speed>
</trkpt>
<trkpt lat="43.115341" lon="19.200747">
<ele>1398.141602</ele>
<time>2012-05-01T11:18:54Z</time>
<desc>lat.=43.115341, lon.=19.200747, Alt.=1398.141602m. Speed=12.852000m/h.</desc>
<speed>3.570000</speed>
</trkpt>
<trkpt lat="43.115238" lon="19.200575">
<ele>1397.954102</ele>
<time>2012-05-01T11:18:59Z</time>
<desc>lat.=43.115238, lon.=19.200575, Alt.=1397.954102m. Speed=13.536000m/h.</desc>
<speed>3.760000</speed>
</trkpt>
<trkpt lat="43.115139" lon="19.200371">
<ele>1398.391602</ele>
<time>2012-05-01T11:19:04Z</time>
<desc>lat.=43.115139, lon.=19.200371, Alt.=1398.391602m. Speed=14.256000m/h.</desc>
<speed>3.960000</speed>
</trkpt>
<trkpt lat="43.115147" lon="19.200144">
<ele>1399.391602</ele>
<time>2012-05-01T11:19:09Z</time>
<desc>lat.=43.115147, lon.=19.200144, Alt.=1399.391602m. Speed=11.808000m/h.</desc>
<speed>3.280000</speed>
</trkpt>
<trkpt lat="43.115173" lon="19.199966">
<ele>1401.610352</ele>
<time>2012-05-01T11:19:14Z</time>
<desc>lat.=43.115173, lon.=19.199966, Alt.=1401.610352m. Speed=9.432000m/h.</desc>
<speed>2.620000</speed>
</trkpt>
<trkpt lat="43.115170" lon="19.199799">
<ele>1401.829102</ele>
<time>2012-05-01T11:19:19Z</time>
<desc>lat.=43.115170, lon.=19.199799, Alt.=1401.829102m. Speed=8.964000m/h.</desc>
<speed>2.490000</speed>
</trkpt>
<trkpt lat="43.115097" lon="19.199661">
<ele>1402.704102</ele>
<time>2012-05-01T11:19:24Z</time>
<desc>lat.=43.115097, lon.=19.199661, Alt.=1402.704102m. Speed=8.712000m/h.</desc>
<speed>2.420000</speed>
</trkpt>
<trkpt lat="43.114994" lon="19.199591">
<ele>1403.547852</ele>
<time>2012-05-01T11:19:29Z</time>
<desc>lat.=43.114994, lon.=19.199591, Alt.=1403.547852m. Speed=11.448000m/h.</desc>
<speed>3.180000</speed>
</trkpt>
<trkpt lat="43.114849" lon="19.199577">
<ele>1403.985352</ele>
<time>2012-05-01T11:19:34Z</time>
<desc>lat.=43.114849, lon.=19.199577, Alt.=1403.985352m. Speed=10.944000m/h.</desc>
<speed>3.040000</speed>
</trkpt>
<trkpt lat="43.114719" lon="19.199644">
<ele>1406.391602</ele>
<time>2012-05-01T11:19:39Z</time>
<desc>lat.=43.114719, lon.=19.199644, Alt.=1406.391602m. Speed=11.556000m/h.</desc>
<speed>3.210000</speed>
</trkpt>
<trkpt lat="43.114613" lon="19.199739">
<ele>1407.016602</ele>
<time>2012-05-01T11:19:44Z</time>
<desc>lat.=43.114613, lon.=19.199739, Alt.=1407.016602m. Speed=10.836000m/h.</desc>
<speed>3.010000</speed>
</trkpt>
<trkpt lat="43.114483" lon="19.199795">
<ele>1407.266602</ele>
<time>2012-05-01T11:19:49Z</time>
<desc>lat.=43.114483, lon.=19.199795, Alt.=1407.266602m. Speed=11.952000m/h.</desc>
<speed>3.320000</speed>
</trkpt>
<trkpt lat="43.114372" lon="19.199900">
<ele>1406.829102</ele>
<time>2012-05-01T11:19:54Z</time>
<desc>lat.=43.114372, lon.=19.199900, Alt.=1406.829102m. Speed=10.512000m/h.</desc>
<speed>2.920000</speed>
</trkpt>
<trkpt lat="43.114258" lon="19.199968">
<ele>1407.141602</ele>
<time>2012-05-01T11:19:59Z</time>
<desc>lat.=43.114258, lon.=19.199968, Alt.=1407.141602m. Speed=9.360000m/h.</desc>
<speed>2.600000</speed>
</trkpt>
<trkpt lat="43.114178" lon="19.199974">
<ele>1407.016602</ele>
<time>2012-05-01T11:20:04Z</time>
<desc>lat.=43.114178, lon.=19.199974, Alt.=1407.016602m. Speed=7.380000m/h.</desc>
<speed>2.050000</speed>
</trkpt>
<trkpt lat="43.114094" lon="19.199940">
<ele>1407.204102</ele>
<time>2012-05-01T11:20:09Z</time>
<desc>lat.=43.114094, lon.=19.199940, Alt.=1407.204102m. Speed=7.488000m/h.</desc>
<speed>2.080000</speed>
</trkpt>
<trkpt lat="43.114002" lon="19.199892">
<ele>1407.235352</ele>
<time>2012-05-01T11:20:14Z</time>
<desc>lat.=43.114002, lon.=19.199892, Alt.=1407.235352m. Speed=8.244000m/h.</desc>
<speed>2.290000</speed>
</trkpt>
<trkpt lat="43.113895" lon="19.199862">
<ele>1406.797852</ele>
<time>2012-05-01T11:20:19Z</time>
<desc>lat.=43.113895, lon.=19.199862, Alt.=1406.797852m. Speed=7.740000m/h.</desc>
<speed>2.150000</speed>
</trkpt>
<trkpt lat="43.113804" lon="19.199814">
<ele>1404.735352</ele>
<time>2012-05-01T11:20:24Z</time>
<desc>lat.=43.113804, lon.=19.199814, Alt.=1404.735352m. Speed=7.164000m/h.</desc>
<speed>1.990000</speed>
</trkpt>
<trkpt lat="43.113693" lon="19.199793">
<ele>1402.954102</ele>
<time>2012-05-01T11:20:29Z</time>
<desc>lat.=43.113693, lon.=19.199793, Alt.=1402.954102m. Speed=8.568000m/h.</desc>
<speed>2.380000</speed>
</trkpt>
<trkpt lat="43.113571" lon="19.199738">
<ele>1401.079102</ele>
<time>2012-05-01T11:20:34Z</time>
<desc>lat.=43.113571, lon.=19.199738, Alt.=1401.079102m. Speed=10.908000m/h.</desc>
<speed>3.030000</speed>
</trkpt>
<trkpt lat="43.113445" lon="19.199680">
<ele>1398.891602</ele>
<time>2012-05-01T11:20:39Z</time>
<desc>lat.=43.113445, lon.=19.199680, Alt.=1398.891602m. Speed=10.692000m/h.</desc>
<speed>2.970000</speed>
</trkpt>
<trkpt lat="43.113312" lon="19.199631">
<ele>1398.422852</ele>
<time>2012-05-01T11:20:44Z</time>
<desc>lat.=43.113312, lon.=19.199631, Alt.=1398.422852m. Speed=12.276000m/h.</desc>
<speed>3.410000</speed>
</trkpt>
<trkpt lat="43.113182" lon="19.199570">
<ele>1397.891602</ele>
<time>2012-05-01T11:20:49Z</time>
<desc>lat.=43.113182, lon.=19.199570, Alt.=1397.891602m. Speed=9.864000m/h.</desc>
<speed>2.740000</speed>
</trkpt>
<trkpt lat="43.113071" lon="19.199524">
<ele>1401.954102</ele>
<time>2012-05-01T11:20:54Z</time>
<desc>lat.=43.113071, lon.=19.199524, Alt.=1401.954102m. Speed=8.424000m/h.</desc>
<speed>2.340000</speed>
</trkpt>
<trkpt lat="43.113003" lon="19.199427">
<ele>1405.797852</ele>
<time>2012-05-01T11:20:59Z</time>
<desc>lat.=43.113003, lon.=19.199427, Alt.=1405.797852m. Speed=7.236000m/h.</desc>
<speed>2.010000</speed>
</trkpt>
<trkpt lat="43.112930" lon="19.199291">
<ele>1408.422852</ele>
<time>2012-05-01T11:21:04Z</time>
<desc>lat.=43.112930, lon.=19.199291, Alt.=1408.422852m. Speed=10.548000m/h.</desc>
<speed>2.930000</speed>
</trkpt>
<trkpt lat="43.112843" lon="19.199148">
<ele>1409.235352</ele>
<time>2012-05-01T11:21:09Z</time>
<desc>lat.=43.112843, lon.=19.199148, Alt.=1409.235352m. Speed=10.188000m/h.</desc>
<speed>2.830000</speed>
</trkpt>
<trkpt lat="43.112751" lon="19.199060">
<ele>1410.079102</ele>
<time>2012-05-01T11:21:14Z</time>
<desc>lat.=43.112751, lon.=19.199060, Alt.=1410.079102m. Speed=9.036000m/h.</desc>
<speed>2.510000</speed>
</trkpt>
<trkpt lat="43.112644" lon="19.199051">
<ele>1410.797852</ele>
<time>2012-05-01T11:21:19Z</time>
<desc>lat.=43.112644, lon.=19.199051, Alt.=1410.797852m. Speed=7.272000m/h.</desc>
<speed>2.020000</speed>
</trkpt>
<trkpt lat="43.112541" lon="19.199064">
<ele>1411.954102</ele>
<time>2012-05-01T11:21:24Z</time>
<desc>lat.=43.112541, lon.=19.199064, Alt.=1411.954102m. Speed=7.200000m/h.</desc>
<speed>2.000000</speed>
</trkpt>
<trkpt lat="43.112450" lon="19.199070">
<ele>1412.579102</ele>
<time>2012-05-01T11:21:29Z</time>
<desc>lat.=43.112450, lon.=19.199070, Alt.=1412.579102m. Speed=7.452000m/h.</desc>
<speed>2.070000</speed>
</trkpt>
<trkpt lat="43.112350" lon="19.199018">
<ele>1412.172852</ele>
<time>2012-05-01T11:21:34Z</time>
<desc>lat.=43.112350, lon.=19.199018, Alt.=1412.172852m. Speed=10.008000m/h.</desc>
<speed>2.780000</speed>
</trkpt>
<trkpt lat="43.112228" lon="19.198896">
<ele>1412.516602</ele>
<time>2012-05-01T11:21:39Z</time>
<desc>lat.=43.112228, lon.=19.198896, Alt.=1412.516602m. Speed=11.844000m/h.</desc>
<speed>3.290000</speed>
</trkpt>
<trkpt lat="43.112091" lon="19.198767">
<ele>1413.579102</ele>
<time>2012-05-01T11:21:44Z</time>
<desc>lat.=43.112091, lon.=19.198767, Alt.=1413.579102m. Speed=12.600000m/h.</desc>
<speed>3.500000</speed>
</trkpt>
<trkpt lat="43.111988" lon="19.198650">
<ele>1415.704102</ele>
<time>2012-05-01T11:21:49Z</time>
<desc>lat.=43.111988, lon.=19.198650, Alt.=1415.704102m. Speed=8.964000m/h.</desc>
<speed>2.490000</speed>
</trkpt>
<trkpt lat="43.111908" lon="19.198566">
<ele>1416.922852</ele>
<time>2012-05-01T11:21:54Z</time>
<desc>lat.=43.111908, lon.=19.198566, Alt.=1416.922852m. Speed=8.928000m/h.</desc>
<speed>2.480000</speed>
</trkpt>
<trkpt lat="43.111813" lon="19.198463">
<ele>1417.391602</ele>
<time>2012-05-01T11:21:59Z</time>
<desc>lat.=43.111813, lon.=19.198463, Alt.=1417.391602m. Speed=9.792000m/h.</desc>
<speed>2.720000</speed>
</trkpt>
<trkpt lat="43.111713" lon="19.198355">
<ele>1416.485352</ele>
<time>2012-05-01T11:22:04Z</time>
<desc>lat.=43.111713, lon.=19.198355, Alt.=1416.485352m. Speed=9.216000m/h.</desc>
<speed>2.560000</speed>
</trkpt>
<trkpt lat="43.111584" lon="19.198322">
<ele>1416.641602</ele>
<time>2012-05-01T11:22:09Z</time>
<desc>lat.=43.111584, lon.=19.198322, Alt.=1416.641602m. Speed=10.692000m/h.</desc>
<speed>2.970000</speed>
</trkpt>
<trkpt lat="43.111427" lon="19.198395">
<ele>1418.141602</ele>
<time>2012-05-01T11:22:14Z</time>
<desc>lat.=43.111427, lon.=19.198395, Alt.=1418.141602m. Speed=11.160000m/h.</desc>
<speed>3.100000</speed>
</trkpt>
<trkpt lat="43.111317" lon="19.198420">
<ele>1419.485352</ele>
<time>2012-05-01T11:22:19Z</time>
<desc>lat.=43.111317, lon.=19.198420, Alt.=1419.485352m. Speed=7.236000m/h.</desc>
<speed>2.010000</speed>
</trkpt>
<trkpt lat="43.111198" lon="19.198349">
<ele>1419.735352</ele>
<time>2012-05-01T11:22:24Z</time>
<desc>lat.=43.111198, lon.=19.198349, Alt.=1419.735352m. Speed=9.396000m/h.</desc>
<speed>2.610000</speed>
</trkpt>
<trkpt lat="43.111111" lon="19.198244">
<ele>1419.766602</ele>
<time>2012-05-01T11:22:29Z</time>
<desc>lat.=43.111111, lon.=19.198244, Alt.=1419.766602m. Speed=8.496000m/h.</desc>
<speed>2.360000</speed>
</trkpt>
<trkpt lat="43.111015" lon="19.198128">
<ele>1420.485352</ele>
<time>2012-05-01T11:22:34Z</time>
<desc>lat.=43.111015, lon.=19.198128, Alt.=1420.485352m. Speed=10.116000m/h.</desc>
<speed>2.810000</speed>
</trkpt>
<trkpt lat="43.110912" lon="19.198011">
<ele>1421.672852</ele>
<time>2012-05-01T11:22:39Z</time>
<desc>lat.=43.110912, lon.=19.198011, Alt.=1421.672852m. Speed=10.692000m/h.</desc>
<speed>2.970000</speed>
</trkpt>
<trkpt lat="43.110821" lon="19.197887">
<ele>1421.610352</ele>
<time>2012-05-01T11:22:44Z</time>
<desc>lat.=43.110821, lon.=19.197887, Alt.=1421.610352m. Speed=9.756000m/h.</desc>
<speed>2.710000</speed>
</trkpt>
<trkpt lat="43.110722" lon="19.197760">
<ele>1420.047852</ele>
<time>2012-05-01T11:22:49Z</time>
<desc>lat.=43.110722, lon.=19.197760, Alt.=1420.047852m. Speed=11.412000m/h.</desc>
<speed>3.170000</speed>
</trkpt>
<trkpt lat="43.110619" lon="19.197639">
<ele>1418.141602</ele>
<time>2012-05-01T11:22:54Z</time>
<desc>lat.=43.110619, lon.=19.197639, Alt.=1418.141602m. Speed=9.540000m/h.</desc>
<speed>2.650000</speed>
</trkpt>
<trkpt lat="43.110489" lon="19.197634">
<ele>1416.735352</ele>
<time>2012-05-01T11:22:59Z</time>
<desc>lat.=43.110489, lon.=19.197634, Alt.=1416.735352m. Speed=13.140000m/h.</desc>
<speed>3.650000</speed>
</trkpt>
<trkpt lat="43.110329" lon="19.197636">
<ele>1417.954102</ele>
<time>2012-05-01T11:23:04Z</time>
<desc>lat.=43.110329, lon.=19.197636, Alt.=1417.954102m. Speed=11.304000m/h.</desc>
<speed>3.140000</speed>
</trkpt>
<trkpt lat="43.110222" lon="19.197535">
<ele>1419.079102</ele>
<time>2012-05-01T11:23:09Z</time>
<desc>lat.=43.110222, lon.=19.197535, Alt.=1419.079102m. Speed=10.944000m/h.</desc>
<speed>3.040000</speed>
</trkpt>
<trkpt lat="43.110123" lon="19.197409">
<ele>1419.766602</ele>
<time>2012-05-01T11:23:14Z</time>
<desc>lat.=43.110123, lon.=19.197409, Alt.=1419.766602m. Speed=10.620000m/h.</desc>
<speed>2.950000</speed>
</trkpt>
<trkpt lat="43.110031" lon="19.197285">
<ele>1421.422852</ele>
<time>2012-05-01T11:23:19Z</time>
<desc>lat.=43.110031, lon.=19.197285, Alt.=1421.422852m. Speed=8.460000m/h.</desc>
<speed>2.350000</speed>
</trkpt>
<trkpt lat="43.109951" lon="19.197203">
<ele>1422.579102</ele>
<time>2012-05-01T11:23:24Z</time>
<desc>lat.=43.109951, lon.=19.197203, Alt.=1422.579102m. Speed=8.892000m/h.</desc>
<speed>2.470000</speed>
</trkpt>
<trkpt lat="43.109856" lon="19.197088">
<ele>1423.422852</ele>
<time>2012-05-01T11:23:29Z</time>
<desc>lat.=43.109856, lon.=19.197088, Alt.=1423.422852m. Speed=10.332000m/h.</desc>
<speed>2.870000</speed>
</trkpt>
<trkpt lat="43.109726" lon="19.196955">
<ele>1424.110352</ele>
<time>2012-05-01T11:23:34Z</time>
<desc>lat.=43.109726, lon.=19.196955, Alt.=1424.110352m. Speed=15.408000m/h.</desc>
<speed>4.280000</speed>
</trkpt>
<trkpt lat="43.109570" lon="19.196877">
<ele>1424.922852</ele>
<time>2012-05-01T11:23:39Z</time>
<desc>lat.=43.109570, lon.=19.196877, Alt.=1424.922852m. Speed=12.312000m/h.</desc>
<speed>3.420000</speed>
</trkpt>
<trkpt lat="43.109413" lon="19.196789">
<ele>1425.829102</ele>
<time>2012-05-01T11:23:44Z</time>
<desc>lat.=43.109413, lon.=19.196789, Alt.=1425.829102m. Speed=11.160000m/h.</desc>
<speed>3.100000</speed>
</trkpt>
<trkpt lat="43.109299" lon="19.196726">
<ele>1427.516602</ele>
<time>2012-05-01T11:23:49Z</time>
<desc>lat.=43.109299, lon.=19.196726, Alt.=1427.516602m. Speed=8.712000m/h.</desc>
<speed>2.420000</speed>
</trkpt>
<trkpt lat="43.109203" lon="19.196674">
<ele>1427.672852</ele>
<time>2012-05-01T11:23:54Z</time>
<desc>lat.=43.109203, lon.=19.196674, Alt.=1427.672852m. Speed=10.224000m/h.</desc>
<speed>2.840000</speed>
</trkpt>
<trkpt lat="43.109077" lon="19.196602">
<ele>1427.891602</ele>
<time>2012-05-01T11:23:59Z</time>
<desc>lat.=43.109077, lon.=19.196602, Alt.=1427.891602m. Speed=12.276000m/h.</desc>
<speed>3.410000</speed>
</trkpt>
<trkpt lat="43.108917" lon="19.196476">
<ele>1428.985352</ele>
<time>2012-05-01T11:24:04Z</time>
<desc>lat.=43.108917, lon.=19.196476, Alt.=1428.985352m. Speed=15.048000m/h.</desc>
<speed>4.180000</speed>
</trkpt>
<trkpt lat="43.108791" lon="19.196295">
<ele>1428.422852</ele>
<time>2012-05-01T11:24:09Z</time>
<desc>lat.=43.108791, lon.=19.196295, Alt.=1428.422852m. Speed=5.724000m/h.</desc>
<speed>1.590000</speed>
</trkpt>
<trkpt lat="43.108780" lon="19.196304">
<ele>1429.079102</ele>
<time>2012-05-01T11:24:14Z</time>
<desc>lat.=43.108780, lon.=19.196304, Alt.=1429.079102m. Speed=0.072000m/h.</desc>
<speed>0.020000</speed>
</trkpt>
<trkpt lat="43.108776" lon="19.196304">
<ele>1429.079102</ele>
<time>2012-05-01T11:24:19Z</time>
<desc>lat.=43.108776, lon.=19.196304, Alt.=1429.079102m. Speed=0.000000m/h.</desc>
<speed>0.000000</speed>
</trkpt>
<trkpt lat="43.108776" lon="19.196304">
<ele>1429.079102</ele>
<time>2012-05-01T11:24:24Z</time>
<desc>lat.=43.108776, lon.=19.196304, Alt.=1429.079102m. Speed=0.000000m/h.</desc>
<speed>0.000000</speed>
</trkpt>
<trkpt lat="43.108776" lon="19.196306">
<ele>1429.141602</ele>
<time>2012-05-01T11:24:29Z</time>
<desc>lat.=43.108776, lon.=19.196306, Alt.=1429.141602m. Speed=0.000000m/h.</desc>
<speed>0.000000</speed>
</trkpt>
<trkpt lat="43.108776" lon="19.196306">
<ele>1429.141602</ele>
<time>2012-05-01T11:24:34Z</time>
<desc>lat.=43.108776, lon.=19.196306, Alt.=1429.141602m. Speed=0.072000m/h.</desc>
<speed>0.020000</speed>
</trkpt>
<trkpt lat="43.108780" lon="19.196306">
<ele>1429.172852</ele>
<time>2012-05-01T11:24:39Z</time>
<desc>lat.=43.108780, lon.=19.196306, Alt.=1429.172852m. Speed=0.000000m/h.</desc>
<speed>0.000000</speed>
</trkpt>
<trkpt lat="43.108780" lon="19.196306">
<ele>1429.172852</ele>
<time>2012-05-01T11:24:44Z</time>
<desc>lat.=43.108780, lon.=19.196306, Alt.=1429.172852m. Speed=0.036000m/h.</desc>
<speed>0.010000</speed>
</trkpt>
<trkpt lat="43.108780" lon="19.196306">
<ele>1429.172852</ele>
<time>2012-05-01T11:24:49Z</time>
<desc>lat.=43.108780, lon.=19.196306, Alt.=1429.172852m. Speed=0.000000m/h.</desc>
<speed>0.000000</speed>
</trkpt>
<trkpt lat="43.108780" lon="19.196306">
<ele>1429.172852</ele>
<time>2012-05-01T11:24:54Z</time>
<desc>lat.=43.108780, lon.=19.196306, Alt.=1429.172852m. Speed=0.000000m/h.</desc>
<speed>0.000000</speed>
</trkpt>
<trkpt lat="43.108780" lon="19.196306">
<ele>1429.172852</ele>
<time>2012-05-01T11:24:59Z</time>
<desc>lat.=43.108780, lon.=19.196306, Alt.=1429.172852m. Speed=0.000000m/h.</desc>
<speed>0.000000</speed>
</trkpt>
<trkpt lat="43.108780" lon="19.196306">
<ele>1429.172852</ele>
<time>2012-05-01T11:25:04Z</time>
<desc>lat.=43.108780, lon.=19.196306, Alt.=1429.172852m. Speed=0.000000m/h.</desc>
<speed>0.000000</speed>
</trkpt>
<trkpt lat="43.108780" lon="19.196306">
<ele>1429.172852</ele>
<time>2012-05-01T11:25:09Z</time>
<desc>lat.=43.108780, lon.=19.196306, Alt.=1429.172852m. Speed=0.036000m/h.</desc>
<speed>0.010000</speed>
</trkpt>
<trkpt lat="43.108780" lon="19.196306">
<ele>1429.204102</ele>
<time>2012-05-01T11:25:14Z</time>
<desc>lat.=43.108780, lon.=19.196306, Alt.=1429.204102m. Speed=0.036000m/h.</desc>
<speed>0.010000</speed>
</trkpt>
<trkpt lat="43.108780" lon="19.196308">
<ele>1429.204102</ele>
<time>2012-05-01T11:25:19Z</time>
<desc>lat.=43.108780, lon.=19.196308, Alt.=1429.204102m. Speed=0.036000m/h.</desc>
<speed>0.010000</speed>
</trkpt>
<trkpt lat="43.108780" lon="19.196308">
<ele>1429.204102</ele>
<time>2012-05-01T11:25:24Z</time>
<desc>lat.=43.108780, lon.=19.196308, Alt.=1429.204102m. Speed=0.036000m/h.</desc>
<speed>0.010000</speed>
</trkpt>
<trkpt lat="43.108780" lon="19.196308">
<ele>1429.235352</ele>
<time>2012-05-01T11:25:29Z</time>
<desc>lat.=43.108780, lon.=19.196308, Alt.=1429.235352m. Speed=0.000000m/h.</desc>
<speed>0.000000</speed>
</trkpt>
<trkpt lat="43.108780" lon="19.196308">
<ele>1429.235352</ele>
<time>2012-05-01T11:25:34Z</time>
<desc>lat.=43.108780, lon.=19.196308, Alt.=1429.235352m. Speed=0.000000m/h.</desc>
<speed>0.000000</speed>
</trkpt>
<trkpt lat="43.108780" lon="19.196308">
<ele>1429.172852</ele>
<time>2012-05-01T11:25:39Z</time>
<desc>lat.=43.108780, lon.=19.196308, Alt.=1429.172852m. Speed=0.000000m/h.</desc>
<speed>0.000000</speed>
</trkpt>
<trkpt lat="43.108780" lon="19.196308">
<ele>1429.141602</ele>
<time>2012-05-01T11:25:44Z</time>
<desc>lat.=43.108780, lon.=19.196308, Alt.=1429.141602m. Speed=0.000000m/h.</desc>
<speed>0.000000</speed>
</trkpt>
<trkpt lat="43.108780" lon="19.196308">
<ele>1429.110352</ele>
<time>2012-05-01T11:25:49Z</time>
<desc>lat.=43.108780, lon.=19.196308, Alt.=1429.110352m. Speed=0.252000m/h.</desc>
<speed>0.070000</speed>
</trkpt>
<trkpt lat="43.108780" lon="19.196308">
<ele>1429.047852</ele>
<time>2012-05-01T11:25:54Z</time>
<desc>lat.=43.108780, lon.=19.196308, Alt.=1429.047852m. Speed=0.036000m/h.</desc>
<speed>0.010000</speed>
</trkpt>
<trkpt lat="43.108780" lon="19.196308">
<ele>1429.047852</ele>
<time>2012-05-01T11:25:59Z</time>
<desc>lat.=43.108780, lon.=19.196308, Alt.=1429.047852m. Speed=0.000000m/h.</desc>
<speed>0.000000</speed>
</trkpt>
<trkpt lat="43.108780" lon="19.196308">
<ele>1429.047852</ele>
<time>2012-05-01T11:26:04Z</time>
<desc>lat.=43.108780, lon.=19.196308, Alt.=1429.047852m. Speed=0.000000m/h.</desc>
<speed>0.000000</speed>
</trkpt>
<trkpt lat="43.108780" lon="19.196308">
<ele>1429.016602</ele>
<time>2012-05-01T11:26:09Z</time>
<desc>lat.=43.108780, lon.=19.196308, Alt.=1429.016602m. Speed=0.036000m/h.</desc>
<speed>0.010000</speed>
</trkpt>
<trkpt lat="43.108780" lon="19.196308">
<ele>1429.016602</ele>
<time>2012-05-01T11:26:14Z</time>
<desc>lat.=43.108780, lon.=19.196308, Alt.=1429.016602m. Speed=0.000000m/h.</desc>
<speed>0.000000</speed>
</trkpt>
<trkpt lat="43.108780" lon="19.196308">
<ele>1429.016602</ele>
<time>2012-05-01T11:26:19Z</time>
<desc>lat.=43.108780, lon.=19.196308, Alt.=1429.016602m. Speed=0.000000m/h.</desc>
<speed>0.000000</speed>
</trkpt>
<trkpt lat="43.108780" lon="19.196308">
<ele>1428.985352</ele>
<time>2012-05-01T11:26:24Z</time>
<desc>lat.=43.108780, lon.=19.196308, Alt.=1428.985352m. Speed=0.036000m/h.</desc>
<speed>0.010000</speed>
</trkpt>
<trkpt lat="43.108780" lon="19.196310">
<ele>1428.954102</ele>
<time>2012-05-01T11:26:29Z</time>
<desc>lat.=43.108780, lon.=19.196310, Alt.=1428.954102m. Speed=0.036000m/h.</desc>
<speed>0.010000</speed>
</trkpt>
<trkpt lat="43.108780" lon="19.196308">
<ele>1428.954102</ele>
<time>2012-05-01T11:26:34Z</time>
<desc>lat.=43.108780, lon.=19.196308, Alt.=1428.954102m. Speed=0.000000m/h.</desc>
<speed>0.000000</speed>
</trkpt>
<trkpt lat="43.108780" lon="19.196308">
<ele>1428.954102</ele>
<time>2012-05-01T11:26:39Z</time>
<desc>lat.=43.108780, lon.=19.196308, Alt.=1428.954102m. Speed=0.000000m/h.</desc>
<speed>0.000000</speed>
</trkpt>
<trkpt lat="43.108780" lon="19.196310">
<ele>1428.954102</ele>
<time>2012-05-01T11:26:44Z</time>
<desc>lat.=43.108780, lon.=19.196310, Alt.=1428.954102m. Speed=0.000000m/h.</desc>
<speed>0.000000</speed>
</trkpt>
<trkpt lat="43.108780" lon="19.196310">
<ele>1428.954102</ele>
<time>2012-05-01T11:26:49Z</time>
<desc>lat.=43.108780, lon.=19.196310, Alt.=1428.954102m. Speed=0.000000m/h.</desc>
<speed>0.000000</speed>
</trkpt>
<trkpt lat="43.108780" lon="19.196310">
<ele>1428.954102</ele>
<time>2012-05-01T11:26:54Z</time>
<desc>lat.=43.108780, lon.=19.196310, Alt.=1428.954102m. Speed=0.072000m/h.</desc>
<speed>0.020000</speed>
</trkpt>
<trkpt lat="43.108780" lon="19.196310">
<ele>1428.922852</ele>
<time>2012-05-01T11:26:59Z</time>
<desc>lat.=43.108780, lon.=19.196310, Alt.=1428.922852m. Speed=0.036000m/h.</desc>
<speed>0.010000</speed>
</trkpt>
<trkpt lat="43.108780" lon="19.196310">
<ele>1428.891602</ele>
<time>2012-05-01T11:27:04Z</time>
<desc>lat.=43.108780, lon.=19.196310, Alt.=1428.891602m. Speed=0.000000m/h.</desc>
<speed>0.000000</speed>
</trkpt>
<trkpt lat="43.108780" lon="19.196310">
<ele>1428.860352</ele>
<time>2012-05-01T11:27:09Z</time>
<desc>lat.=43.108780, lon.=19.196310, Alt.=1428.860352m. Speed=0.036000m/h.</desc>
<speed>0.010000</speed>
</trkpt>
<trkpt lat="43.108780" lon="19.196310">
<ele>1428.829102</ele>
<time>2012-05-01T11:27:14Z</time>
<desc>lat.=43.108780, lon.=19.196310, Alt.=1428.829102m. Speed=0.000000m/h.</desc>
<speed>0.000000</speed>
</trkpt>
<trkpt lat="43.108780" lon="19.196310">
<ele>1428.829102</ele>
<time>2012-05-01T11:27:19Z</time>
<desc>lat.=43.108780, lon.=19.196310, Alt.=1428.829102m. Speed=0.000000m/h.</desc>
<speed>0.000000</speed>
</trkpt>
<trkpt lat="43.108780" lon="19.196310">
<ele>1428.797852</ele>
<time>2012-05-01T11:27:24Z</time>
<desc>lat.=43.108780, lon.=19.196310, Alt.=1428.797852m. Speed=0.000000m/h.</desc>
<speed>0.000000</speed>
</trkpt>
<trkpt lat="43.108780" lon="19.196308">
<ele>1428.797852</ele>
<time>2012-05-01T11:27:29Z</time>
<desc>lat.=43.108780, lon.=19.196308, Alt.=1428.797852m. Speed=0.036000m/h.</desc>
<speed>0.010000</speed>
</trkpt>
<trkpt lat="43.108780" lon="19.196308">
<ele>1428.797852</ele>
<time>2012-05-01T11:27:34Z</time>
<desc>lat.=43.108780, lon.=19.196308, Alt.=1428.797852m. Speed=0.000000m/h.</desc>
<speed>0.000000</speed>
</trkpt>
<trkpt lat="43.108780" lon="19.196308">
<ele>1428.766602</ele>
<time>2012-05-01T11:27:39Z</time>
<desc>lat.=43.108780, lon.=19.196308, Alt.=1428.766602m. Speed=0.108000m/h.</desc>
<speed>0.030000</speed>
</trkpt>
<trkpt lat="43.108772" lon="19.196211">
<ele>1428.297852</ele>
<time>2012-05-01T11:27:44Z</time>
<desc>lat.=43.108772, lon.=19.196211, Alt.=1428.297852m. Speed=10.440000m/h.</desc>
<speed>2.900000</speed>
</trkpt>
<trkpt lat="43.108700" lon="19.195995">
<ele>1427.579102</ele>
<time>2012-05-01T11:27:49Z</time>
<desc>lat.=43.108700, lon.=19.195995, Alt.=1427.579102m. Speed=14.724000m/h.</desc>
<speed>4.090000</speed>
</trkpt>
<trkpt lat="43.108616" lon="19.195744">
<ele>1426.672852</ele>
<time>2012-05-01T11:27:54Z</time>
<desc>lat.=43.108616, lon.=19.195744, Alt.=1426.672852m. Speed=15.084000m/h.</desc>
<speed>4.190000</speed>
</trkpt>
<trkpt lat="43.108536" lon="19.195505">
<ele>1425.297852</ele>
<time>2012-05-01T11:27:59Z</time>
<desc>lat.=43.108536, lon.=19.195505, Alt.=1425.297852m. Speed=13.428000m/h.</desc>
<speed>3.730000</speed>
</trkpt>
<trkpt lat="43.108463" lon="19.195375">
<ele>1424.235352</ele>
<time>2012-05-01T11:28:04Z</time>
<desc>lat.=43.108463, lon.=19.195375, Alt.=1424.235352m. Speed=3.672000m/h.</desc>
<speed>1.020000</speed>
</trkpt>
<trkpt lat="43.108463" lon="19.195370">
<ele>1424.235352</ele>
<time>2012-05-01T11:28:09Z</time>
<desc>lat.=43.108463, lon.=19.195370, Alt.=1424.235352m. Speed=0.108000m/h.</desc>
<speed>0.030000</speed>
</trkpt>
<trkpt lat="43.108467" lon="19.195368">
<ele>1424.110352</ele>
<time>2012-05-01T11:28:14Z</time>
<desc>lat.=43.108467, lon.=19.195368, Alt.=1424.110352m. Speed=0.072000m/h.</desc>
<speed>0.020000</speed>
</trkpt>
<trkpt lat="43.108467" lon="19.195368">
<ele>1424.079102</ele>
<time>2012-05-01T11:28:19Z</time>
<desc>lat.=43.108467, lon.=19.195368, Alt.=1424.079102m. Speed=0.036000m/h.</desc>
<speed>0.010000</speed>
</trkpt>
<trkpt lat="43.108467" lon="19.195368">
<ele>1424.079102</ele>
<time>2012-05-01T11:28:24Z</time>
<desc>lat.=43.108467, lon.=19.195368, Alt.=1424.079102m. Speed=0.000000m/h.</desc>
<speed>0.000000</speed>
</trkpt>
<trkpt lat="43.108467" lon="19.195368">
<ele>1424.047852</ele>
<time>2012-05-01T11:28:29Z</time>
<desc>lat.=43.108467, lon.=19.195368, Alt.=1424.047852m. Speed=0.936000m/h.</desc>
<speed>0.260000</speed>
</trkpt>
<trkpt lat="43.108463" lon="19.195318">
<ele>1424.079102</ele>
<time>2012-05-01T11:28:34Z</time>
<desc>lat.=43.108463, lon.=19.195318, Alt.=1424.079102m. Speed=3.780000m/h.</desc>
<speed>1.050000</speed>
</trkpt>
<trkpt lat="43.108452" lon="19.195305">
<ele>1423.891602</ele>
<time>2012-05-01T11:28:39Z</time>
<desc>lat.=43.108452, lon.=19.195305, Alt.=1423.891602m. Speed=0.036000m/h.</desc>
<speed>0.010000</speed>
</trkpt>
<trkpt lat="43.108452" lon="19.195305">
<ele>1423.860352</ele>
<time>2012-05-01T11:28:44Z</time>
<desc>lat.=43.108452, lon.=19.195305, Alt.=1423.860352m. Speed=0.000000m/h.</desc>
<speed>0.000000</speed>
</trkpt>
<trkpt lat="43.108452" lon="19.195305">
<ele>1423.829102</ele>
<time>2012-05-01T11:28:49Z</time>
<desc>lat.=43.108452, lon.=19.195305, Alt.=1423.829102m. Speed=0.000000m/h.</desc>
<speed>0.000000</speed>
</trkpt>
<trkpt lat="43.108452" lon="19.195305">
<ele>1423.797852</ele>
<time>2012-05-01T11:28:54Z</time>
<desc>lat.=43.108452, lon.=19.195305, Alt.=1423.797852m. Speed=0.000000m/h.</desc>
<speed>0.000000</speed>
</trkpt>
<trkpt lat="43.108452" lon="19.195305">
<ele>1423.766602</ele>
<time>2012-05-01T11:28:59Z</time>
<desc>lat.=43.108452, lon.=19.195305, Alt.=1423.766602m. Speed=0.000000m/h.</desc>
<speed>0.000000</speed>
</trkpt>
<trkpt lat="43.108452" lon="19.195305">
<ele>1423.766602</ele>
<time>2012-05-01T11:29:04Z</time>
<desc>lat.=43.108452, lon.=19.195305, Alt.=1423.766602m. Speed=0.000000m/h.</desc>
<speed>0.000000</speed>
</trkpt>
<trkpt lat="43.108452" lon="19.195305">
<ele>1423.766602</ele>
<time>2012-05-01T11:29:09Z</time>
<desc>lat.=43.108452, lon.=19.195305, Alt.=1423.766602m. Speed=0.108000m/h.</desc>
<speed>0.030000</speed>
</trkpt>
<trkpt lat="43.108452" lon="19.195305">
<ele>1423.766602</ele>
<time>2012-05-01T11:29:14Z</time>
<desc>lat.=43.108452, lon.=19.195305, Alt.=1423.766602m. Speed=0.108000m/h.</desc>
<speed>0.030000</speed>
</trkpt>
<trkpt lat="43.108452" lon="19.195303">
<ele>1423.735352</ele>
<time>2012-05-01T11:29:19Z</time>
<desc>lat.=43.108452, lon.=19.195303, Alt.=1423.735352m. Speed=0.000000m/h.</desc>
<speed>0.000000</speed>
</trkpt>
<trkpt lat="43.108440" lon="19.195242">
<ele>1423.485352</ele>
<time>2012-05-01T11:29:24Z</time>
<desc>lat.=43.108440, lon.=19.195242, Alt.=1423.485352m. Speed=8.928000m/h.</desc>
<speed>2.480000</speed>
</trkpt>
<trkpt lat="43.108418" lon="19.195038">
<ele>1422.422852</ele>
<time>2012-05-01T11:29:29Z</time>
<desc>lat.=43.108418, lon.=19.195038, Alt.=1422.422852m. Speed=7.380000m/h.</desc>
<speed>2.050000</speed>
</trkpt>
<trkpt lat="43.108418" lon="19.194916">
<ele>1421.641602</ele>
<time>2012-05-01T11:29:34Z</time>
<desc>lat.=43.108418, lon.=19.194916, Alt.=1421.641602m. Speed=8.676000m/h.</desc>
<speed>2.410000</speed>
</trkpt>
<trkpt lat="43.108433" lon="19.194714">
<ele>1421.141602</ele>
<time>2012-05-01T11:29:39Z</time>
<desc>lat.=43.108433, lon.=19.194714, Alt.=1421.141602m. Speed=13.716000m/h.</desc>
<speed>3.810000</speed>
</trkpt>
<trkpt lat="43.108433" lon="19.194429">
<ele>1420.204102</ele>
<time>2012-05-01T11:29:44Z</time>
<desc>lat.=43.108433, lon.=19.194429, Alt.=1420.204102m. Speed=18.468000m/h.</desc>
<speed>5.130000</speed>
</trkpt>
<trkpt lat="43.108376" lon="19.194090">
<ele>1418.954102</ele>
<time>2012-05-01T11:29:49Z</time>
<desc>lat.=43.108376, lon.=19.194090, Alt.=1418.954102m. Speed=22.752001m/h.</desc>
<speed>6.320000</speed>
</trkpt>
<trkpt lat="43.108307" lon="19.193661">
<ele>1417.141602</ele>
<time>2012-05-01T11:29:54Z</time>
<desc>lat.=43.108307, lon.=19.193661, Alt.=1417.141602m. Speed=26.964001m/h.</desc>
<speed>7.490000</speed>
</trkpt>
<trkpt lat="43.108364" lon="19.193155">
<ele>1414.704102</ele>
<time>2012-05-01T11:29:59Z</time>
<desc>lat.=43.108364, lon.=19.193155, Alt.=1414.704102m. Speed=33.408001m/h.</desc>
<speed>9.280000</speed>
</trkpt>
<trkpt lat="43.108440" lon="19.192528">
<ele>1413.079102</ele>
<time>2012-05-01T11:30:04Z</time>
<desc>lat.=43.108440, lon.=19.192528, Alt.=1413.079102m. Speed=37.944000m/h.</desc>
<speed>10.540000</speed>
</trkpt>
<trkpt lat="43.108532" lon="19.191856">
<ele>1410.672852</ele>
<time>2012-05-01T11:30:09Z</time>
<desc>lat.=43.108532, lon.=19.191856, Alt.=1410.672852m. Speed=42.804001m/h.</desc>
<speed>11.890000</speed>
</trkpt>
<trkpt lat="43.108654" lon="19.191103">
<ele>1408.579102</ele>
<time>2012-05-01T11:30:14Z</time>
<desc>lat.=43.108654, lon.=19.191103, Alt.=1408.579102m. Speed=46.007999m/h.</desc>
<speed>12.780000</speed>
</trkpt>
<trkpt lat="43.108799" lon="19.190315">
<ele>1406.329102</ele>
<time>2012-05-01T11:30:19Z</time>
<desc>lat.=43.108799, lon.=19.190315, Alt.=1406.329102m. Speed=48.023998m/h.</desc>
<speed>13.340000</speed>
</trkpt>
<trkpt lat="43.109001" lon="19.189537">
<ele>1404.016602</ele>
<time>2012-05-01T11:30:24Z</time>
<desc>lat.=43.109001, lon.=19.189537, Alt.=1404.016602m. Speed=48.023998m/h.</desc>
<speed>13.340000</speed>
</trkpt>
<trkpt lat="43.109200" lon="19.188726">
<ele>1402.454102</ele>
<time>2012-05-01T11:30:29Z</time>
<desc>lat.=43.109200, lon.=19.188726, Alt.=1402.454102m. Speed=52.127998m/h.</desc>
<speed>14.480000</speed>
</trkpt>
<trkpt lat="43.109249" lon="19.187824">
<ele>1399.735352</ele>
<time>2012-05-01T11:30:34Z</time>
<desc>lat.=43.109249, lon.=19.187824, Alt.=1399.735352m. Speed=52.883999m/h.</desc>
<speed>14.690000</speed>
</trkpt>
<trkpt lat="43.109264" lon="19.186928">
<ele>1397.829102</ele>
<time>2012-05-01T11:30:39Z</time>
<desc>lat.=43.109264, lon.=19.186928, Alt.=1397.829102m. Speed=51.875999m/h.</desc>
<speed>14.410000</speed>
</trkpt>
<trkpt lat="43.109161" lon="19.186073">
<ele>1395.735352</ele>
<time>2012-05-01T11:30:44Z</time>
<desc>lat.=43.109161, lon.=19.186073, Alt.=1395.735352m. Speed=49.175999m/h.</desc>
<speed>13.660000</speed>
</trkpt>
<trkpt lat="43.109020" lon="19.185286">
<ele>1395.329102</ele>
<time>2012-05-01T11:30:49Z</time>
<desc>lat.=43.109020, lon.=19.185286, Alt.=1395.329102m. Speed=44.820000m/h.</desc>
<speed>12.450000</speed>
</trkpt>
<trkpt lat="43.108814" lon="19.184645">
<ele>1396.079102</ele>
<time>2012-05-01T11:30:54Z</time>
<desc>lat.=43.108814, lon.=19.184645, Alt.=1396.079102m. Speed=40.104000m/h.</desc>
<speed>11.140000</speed>
</trkpt>
<trkpt lat="43.108498" lon="19.184149">
<ele>1396.141602</ele>
<time>2012-05-01T11:30:59Z</time>
<desc>lat.=43.108498, lon.=19.184149, Alt.=1396.141602m. Speed=36.287998m/h.</desc>
<speed>10.079999</speed>
</trkpt>
<trkpt lat="43.108261" lon="19.183741">
<ele>1398.172852</ele>
<time>2012-05-01T11:31:04Z</time>
<desc>lat.=43.108261, lon.=19.183741, Alt.=1398.172852m. Speed=27.360001m/h.</desc>
<speed>7.600000</speed>
</trkpt>
<trkpt lat="43.108181" lon="19.183361">
<ele>1398.985352</ele>
<time>2012-05-01T11:31:09Z</time>
<desc>lat.=43.108181, lon.=19.183361, Alt.=1398.985352m. Speed=20.304001m/h.</desc>
<speed>5.640000</speed>
</trkpt>
<trkpt lat="43.108200" lon="19.183067">
<ele>1399.985352</ele>
<time>2012-05-01T11:31:14Z</time>
<desc>lat.=43.108200, lon.=19.183067, Alt.=1399.985352m. Speed=15.300000m/h.</desc>
<speed>4.250000</speed>
</trkpt>
<trkpt lat="43.108250" lon="19.182852">
<ele>1400.922852</ele>
<time>2012-05-01T11:31:19Z</time>
<desc>lat.=43.108250, lon.=19.182852, Alt.=1400.922852m. Speed=12.924000m/h.</desc>
<speed>3.590000</speed>
</trkpt>
<trkpt lat="43.108284" lon="19.182680">
<ele>1401.266602</ele>
<time>2012-05-01T11:31:24Z</time>
<desc>lat.=43.108284, lon.=19.182680, Alt.=1401.266602m. Speed=9.180000m/h.</desc>
<speed>2.550000</speed>
</trkpt>
<trkpt lat="43.108276" lon="19.182495">
<ele>1403.766602</ele>
<time>2012-05-01T11:31:29Z</time>
<desc>lat.=43.108276, lon.=19.182495, Alt.=1403.766602m. Speed=13.464000m/h.</desc>
<speed>3.740000</speed>
</trkpt>
<trkpt lat="43.108208" lon="19.182285">
<ele>1403.860352</ele>
<time>2012-05-01T11:31:34Z</time>
<desc>lat.=43.108208, lon.=19.182285, Alt.=1403.860352m. Speed=13.644000m/h.</desc>
<speed>3.790000</speed>
</trkpt>
<trkpt lat="43.108097" lon="19.182062">
<ele>1403.516602</ele>
<time>2012-05-01T11:31:39Z</time>
<desc>lat.=43.108097, lon.=19.182062, Alt.=1403.516602m. Speed=18.108000m/h.</desc>
<speed>5.030000</speed>
</trkpt>
<trkpt lat="43.107979" lon="19.181797">
<ele>1403.454102</ele>
<time>2012-05-01T11:31:44Z</time>
<desc>lat.=43.107979, lon.=19.181797, Alt.=1403.454102m. Speed=17.063999m/h.</desc>
<speed>4.740000</speed>
</trkpt>
<trkpt lat="43.107948" lon="19.181513">
<ele>1403.360352</ele>
<time>2012-05-01T11:31:49Z</time>
<desc>lat.=43.107948, lon.=19.181513, Alt.=1403.360352m. Speed=16.308001m/h.</desc>
<speed>4.530000</speed>
</trkpt>
<trkpt lat="43.108013" lon="19.181234">
<ele>1403.110352</ele>
<time>2012-05-01T11:31:54Z</time>
<desc>lat.=43.108013, lon.=19.181234, Alt.=1403.110352m. Speed=17.459999m/h.</desc>
<speed>4.850000</speed>
</trkpt>
<trkpt lat="43.108109" lon="19.180931">
<ele>1402.985352</ele>
<time>2012-05-01T11:31:59Z</time>
<desc>lat.=43.108109, lon.=19.180931, Alt.=1402.985352m. Speed=21.348000m/h.</desc>
<speed>5.930000</speed>
</trkpt>
<trkpt lat="43.108212" lon="19.180574">
<ele>1402.485352</ele>
<time>2012-05-01T11:32:04Z</time>
<desc>lat.=43.108212, lon.=19.180574, Alt.=1402.485352m. Speed=22.931999m/h.</desc>
<speed>6.370000</speed>
</trkpt>
<trkpt lat="43.108334" lon="19.180168">
<ele>1402.297852</ele>
<time>2012-05-01T11:32:09Z</time>
<desc>lat.=43.108334, lon.=19.180168, Alt.=1402.297852m. Speed=26.856001m/h.</desc>
<speed>7.460000</speed>
</trkpt>
<trkpt lat="43.108486" lon="19.179705">
<ele>1401.579102</ele>
<time>2012-05-01T11:32:14Z</time>
<desc>lat.=43.108486, lon.=19.179705, Alt.=1401.579102m. Speed=31.535999m/h.</desc>
<speed>8.760000</speed>
</trkpt>
<trkpt lat="43.108658" lon="19.179195">
<ele>1401.422852</ele>
<time>2012-05-01T11:32:19Z</time>
<desc>lat.=43.108658, lon.=19.179195, Alt.=1401.422852m. Speed=33.192001m/h.</desc>
<speed>9.220000</speed>
</trkpt>
<trkpt lat="43.108837" lon="19.178665">
<ele>1401.329102</ele>
<time>2012-05-01T11:32:24Z</time>
<desc>lat.=43.108837, lon.=19.178665, Alt.=1401.329102m. Speed=35.820000m/h.</desc>
<speed>9.950000</speed>
</trkpt>
<trkpt lat="43.109047" lon="19.178083">
<ele>1399.954102</ele>
<time>2012-05-01T11:32:29Z</time>
<desc>lat.=43.109047, lon.=19.178083, Alt.=1399.954102m. Speed=38.771999m/h.</desc>
<speed>10.770000</speed>
</trkpt>
<trkpt lat="43.109261" lon="19.177505">
<ele>1400.735352</ele>
<time>2012-05-01T11:32:34Z</time>
<desc>lat.=43.109261, lon.=19.177505, Alt.=1400.735352m. Speed=36.071999m/h.</desc>
<speed>10.020000</speed>
</trkpt>
<trkpt lat="43.109463" lon="19.176971">
<ele>1402.516602</ele>
<time>2012-05-01T11:32:39Z</time>
<desc>lat.=43.109463, lon.=19.176971, Alt.=1402.516602m. Speed=34.236000m/h.</desc>
<speed>9.510000</speed>
</trkpt>
<trkpt lat="43.109581" lon="19.176455">
<ele>1402.735352</ele>
<time>2012-05-01T11:32:44Z</time>
<desc>lat.=43.109581, lon.=19.176455, Alt.=1402.735352m. Speed=30.167999m/h.</desc>
<speed>8.380000</speed>
</trkpt>
<trkpt lat="43.109520" lon="19.175983">
<ele>1402.266602</ele>
<time>2012-05-01T11:32:49Z</time>
<desc>lat.=43.109520, lon.=19.175983, Alt.=1402.266602m. Speed=27.216000m/h.</desc>
<speed>7.560000</speed>
</trkpt>
<trkpt lat="43.109341" lon="19.175610">
<ele>1401.641602</ele>
<time>2012-05-01T11:32:54Z</time>
<desc>lat.=43.109341, lon.=19.175610, Alt.=1401.641602m. Speed=24.264000m/h.</desc>
<speed>6.740000</speed>
</trkpt>
<trkpt lat="43.109180" lon="19.175287">
<ele>1401.454102</ele>
<time>2012-05-01T11:32:59Z</time>
<desc>lat.=43.109180, lon.=19.175287, Alt.=1401.454102m. Speed=21.959999m/h.</desc>
<speed>6.100000</speed>
</trkpt>
<trkpt lat="43.109089" lon="19.175093">
<ele>1401.547852</ele>
<time>2012-05-01T11:33:04Z</time>
<desc>lat.=43.109089, lon.=19.175093, Alt.=1401.547852m. Speed=6.192000m/h.</desc>
<speed>1.720000</speed>
</trkpt>
<trkpt lat="43.109077" lon="19.175077">
<ele>1402.172852</ele>
<time>2012-05-01T11:33:09Z</time>
<desc>lat.=43.109077, lon.=19.175077, Alt.=1402.172852m. Speed=0.000000m/h.</desc>
<speed>0.000000</speed>
</trkpt>
<trkpt lat="43.109077" lon="19.175077">
<ele>1402.266602</ele>
<time>2012-05-01T11:33:14Z</time>
<desc>lat.=43.109077, lon.=19.175077, Alt.=1402.266602m. Speed=0.000000m/h.</desc>
<speed>0.000000</speed>
</trkpt>
<trkpt lat="43.109074" lon="19.175077">
<ele>1402.329102</ele>
<time>2012-05-01T11:33:19Z</time>
<desc>lat.=43.109074, lon.=19.175077, Alt.=1402.329102m. Speed=0.000000m/h.</desc>
<speed>0.000000</speed>
</trkpt>
<trkpt lat="43.109074" lon="19.175077">
<ele>1402.360352</ele>
<time>2012-05-01T11:33:24Z</time>
<desc>lat.=43.109074, lon.=19.175077, Alt.=1402.360352m. Speed=0.000000m/h.</desc>
<speed>0.000000</speed>
</trkpt>
<trkpt lat="43.109074" lon="19.175077">
<ele>1402.422852</ele>
<time>2012-05-01T11:33:29Z</time>
<desc>lat.=43.109074, lon.=19.175077, Alt.=1402.422852m. Speed=0.072000m/h.</desc>
<speed>0.020000</speed>
</trkpt>
<trkpt lat="43.109074" lon="19.175076">
<ele>1402.422852</ele>
<time>2012-05-01T11:33:34Z</time>
<desc>lat.=43.109074, lon.=19.175076, Alt.=1402.422852m. Speed=0.288000m/h.</desc>
<speed>0.080000</speed>
</trkpt>
<trkpt lat="43.109058" lon="19.175035">
<ele>1402.454102</ele>
<time>2012-05-01T11:33:39Z</time>
<desc>lat.=43.109058, lon.=19.175035, Alt.=1402.454102m. Speed=6.948000m/h.</desc>
<speed>1.930000</speed>
</trkpt>
<trkpt lat="43.109001" lon="19.174908">
<ele>1402.047852</ele>
<time>2012-05-01T11:33:44Z</time>
<desc>lat.=43.109001, lon.=19.174908, Alt.=1402.047852m. Speed=10.080000m/h.</desc>
<speed>2.800000</speed>
</trkpt>
<trkpt lat="43.108932" lon="19.174726">
<ele>1401.297852</ele>
<time>2012-05-01T11:33:49Z</time>
<desc>lat.=43.108932, lon.=19.174726, Alt.=1401.297852m. Speed=14.724000m/h.</desc>
<speed>4.090000</speed>
</trkpt>
<trkpt lat="43.108871" lon="19.174437">
<ele>1400.672852</ele>
<time>2012-05-01T11:33:54Z</time>
<desc>lat.=43.108871, lon.=19.174437, Alt.=1400.672852m. Speed=19.152000m/h.</desc>
<speed>5.320000</speed>
</trkpt>
<trkpt lat="43.108822" lon="19.174112">
<ele>1399.860352</ele>
<time>2012-05-01T11:33:59Z</time>
<desc>lat.=43.108822, lon.=19.174112, Alt.=1399.860352m. Speed=19.224001m/h.</desc>
<speed>5.340000</speed>
</trkpt>
<trkpt lat="43.108768" lon="19.173775">
<ele>1399.047852</ele>
<time>2012-05-01T11:34:04Z</time>
<desc>lat.=43.108768, lon.=19.173775, Alt.=1399.047852m. Speed=22.608000m/h.</desc>
<speed>6.280000</speed>
</trkpt>
<trkpt lat="43.108707" lon="19.173399">
<ele>1398.079102</ele>
<time>2012-05-01T11:34:09Z</time>
<desc>lat.=43.108707, lon.=19.173399, Alt.=1398.079102m. Speed=21.924000m/h.</desc>
<speed>6.090000</speed>
</trkpt>
<trkpt lat="43.108643" lon="19.173052">
<ele>1397.016602</ele>
<time>2012-05-01T11:34:14Z</time>
<desc>lat.=43.108643, lon.=19.173052, Alt.=1397.016602m. Speed=20.160000m/h.</desc>
<speed>5.600000</speed>
</trkpt>
<trkpt lat="43.108582" lon="19.172703">
<ele>1396.079102</ele>
<time>2012-05-01T11:34:19Z</time>
<desc>lat.=43.108582, lon.=19.172703, Alt.=1396.079102m. Speed=21.708000m/h.</desc>
<speed>6.030000</speed>
</trkpt>
<trkpt lat="43.108521" lon="19.172348">
<ele>1395.766602</ele>
<time>2012-05-01T11:34:24Z</time>
<desc>lat.=43.108521, lon.=19.172348, Alt.=1395.766602m. Speed=21.167999m/h.</desc>
<speed>5.880000</speed>
</trkpt>
<trkpt lat="43.108463" lon="19.172039">
<ele>1395.516602</ele>
<time>2012-05-01T11:34:29Z</time>
<desc>lat.=43.108463, lon.=19.172039, Alt.=1395.516602m. Speed=16.596001m/h.</desc>
<speed>4.610000</speed>
</trkpt>
<trkpt lat="43.108395" lon="19.171793">
<ele>1396.735352</ele>
<time>2012-05-01T11:34:34Z</time>
<desc>lat.=43.108395, lon.=19.171793, Alt.=1396.735352m. Speed=13.284000m/h.</desc>
<speed>3.690000</speed>
</trkpt>
<trkpt lat="43.108337" lon="19.171589">
<ele>1397.329102</ele>
<time>2012-05-01T11:34:39Z</time>
<desc>lat.=43.108337, lon.=19.171589, Alt.=1397.329102m. Speed=15.984000m/h.</desc>
<speed>4.440000</speed>
</trkpt>
<trkpt lat="43.108284" lon="19.171417">
<ele>1397.579102</ele>
<time>2012-05-01T11:34:44Z</time>
<desc>lat.=43.108284, lon.=19.171417, Alt.=1397.579102m. Speed=8.388000m/h.</desc>
<speed>2.330000</speed>
</trkpt>
<trkpt lat="43.108227" lon="19.171251">
<ele>1398.422852</ele>
<time>2012-05-01T11:34:49Z</time>
<desc>lat.=43.108227, lon.=19.171251, Alt.=1398.422852m. Speed=12.024000m/h.</desc>
<speed>3.340000</speed>
</trkpt>
<trkpt lat="43.108166" lon="19.171062">
<ele>1399.141602</ele>
<time>2012-05-01T11:34:54Z</time>
<desc>lat.=43.108166, lon.=19.171062, Alt.=1399.141602m. Speed=11.988000m/h.</desc>
<speed>3.330000</speed>
</trkpt>
<trkpt lat="43.108124" lon="19.170870">
<ele>1399.641602</ele>
<time>2012-05-01T11:34:59Z</time>
<desc>lat.=43.108124, lon.=19.170870, Alt.=1399.641602m. Speed=11.376000m/h.</desc>
<speed>3.160000</speed>
</trkpt>
<trkpt lat="43.108101" lon="19.170677">
<ele>1400.329102</ele>
<time>2012-05-01T11:35:04Z</time>
<desc>lat.=43.108101, lon.=19.170677, Alt.=1400.329102m. Speed=11.916000m/h.</desc>
<speed>3.310000</speed>
</trkpt>
<trkpt lat="43.108089" lon="19.170469">
<ele>1400.954102</ele>
<time>2012-05-01T11:35:09Z</time>
<desc>lat.=43.108089, lon.=19.170469, Alt.=1400.954102m. Speed=12.780000m/h.</desc>
<speed>3.550000</speed>
</trkpt>
<trkpt lat="43.108105" lon="19.170250">
<ele>1401.922852</ele>
<time>2012-05-01T11:35:14Z</time>
<desc>lat.=43.108105, lon.=19.170250, Alt.=1401.922852m. Speed=12.384000m/h.</desc>
<speed>3.440000</speed>
</trkpt>
<trkpt lat="43.108124" lon="19.170057">
<ele>1403.422852</ele>
<time>2012-05-01T11:35:19Z</time>
<desc>lat.=43.108124, lon.=19.170057, Alt.=1403.422852m. Speed=11.988000m/h.</desc>
<speed>3.330000</speed>
</trkpt>
<trkpt lat="43.108158" lon="19.169859">
<ele>1404.391602</ele>
<time>2012-05-01T11:35:24Z</time>
<desc>lat.=43.108158, lon.=19.169859, Alt.=1404.391602m. Speed=9.324000m/h.</desc>
<speed>2.590000</speed>
</trkpt>
<trkpt lat="43.108185" lon="19.169752">
<ele>1404.735352</ele>
<time>2012-05-01T11:35:29Z</time>
<desc>lat.=43.108185, lon.=19.169752, Alt.=1404.735352m. Speed=5.688000m/h.</desc>
<speed>1.580000</speed>
</trkpt>
<trkpt lat="43.108189" lon="19.169659">
<ele>1405.360352</ele>
<time>2012-05-01T11:35:34Z</time>
<desc>lat.=43.108189, lon.=19.169659, Alt.=1405.360352m. Speed=6.948000m/h.</desc>
<speed>1.930000</speed>
</trkpt>
<trkpt lat="43.108204" lon="19.169498">
<ele>1406.079102</ele>
<time>2012-05-01T11:35:39Z</time>
<desc>lat.=43.108204, lon.=19.169498, Alt.=1406.079102m. Speed=10.332000m/h.</desc>
<speed>2.870000</speed>
</trkpt>
<trkpt lat="43.108192" lon="19.169329">
<ele>1407.235352</ele>
<time>2012-05-01T11:35:44Z</time>
<desc>lat.=43.108192, lon.=19.169329, Alt.=1407.235352m. Speed=9.576000m/h.</desc>
<speed>2.660000</speed>
</trkpt>
<trkpt lat="43.108150" lon="19.169233">
<ele>1408.141602</ele>
<time>2012-05-01T11:35:49Z</time>
<desc>lat.=43.108150, lon.=19.169233, Alt.=1408.141602m. Speed=6.048000m/h.</desc>
<speed>1.680000</speed>
</trkpt>
<trkpt lat="43.108067" lon="19.169153">
<ele>1409.329102</ele>
<time>2012-05-01T11:35:54Z</time>
<desc>lat.=43.108067, lon.=19.169153, Alt.=1409.329102m. Speed=9.216000m/h.</desc>
<speed>2.560000</speed>
</trkpt>
<trkpt lat="43.107952" lon="19.169088">
<ele>1409.735352</ele>
<time>2012-05-01T11:35:59Z</time>
<desc>lat.=43.107952, lon.=19.169088, Alt.=1409.735352m. Speed=10.188000m/h.</desc>
<speed>2.830000</speed>
</trkpt>
<trkpt lat="43.107834" lon="19.169037">
<ele>1410.141602</ele>
<time>2012-05-01T11:36:04Z</time>
<desc>lat.=43.107834, lon.=19.169037, Alt.=1410.141602m. Speed=10.728000m/h.</desc>
<speed>2.980000</speed>
</trkpt>
<trkpt lat="43.107716" lon="19.168978">
<ele>1410.141602</ele>
<time>2012-05-01T11:36:09Z</time>
<desc>lat.=43.107716, lon.=19.168978, Alt.=1410.141602m. Speed=9.864000m/h.</desc>
<speed>2.740000</speed>
</trkpt>
<trkpt lat="43.107601" lon="19.168917">
<ele>1410.391602</ele>
<time>2012-05-01T11:36:14Z</time>
<desc>lat.=43.107601, lon.=19.168917, Alt.=1410.391602m. Speed=7.776000m/h.</desc>
<speed>2.160000</speed>
</trkpt>
<trkpt lat="43.107552" lon="19.168901">
<ele>1410.516602</ele>
<time>2012-05-01T11:36:19Z</time>
<desc>lat.=43.107552, lon.=19.168901, Alt.=1410.516602m. Speed=4.608000m/h.</desc>
<speed>1.280000</speed>
</trkpt>
<trkpt lat="43.107479" lon="19.168880">
<ele>1410.641602</ele>
<time>2012-05-01T11:36:24Z</time>
<desc>lat.=43.107479, lon.=19.168880, Alt.=1410.641602m. Speed=6.228000m/h.</desc>
<speed>1.730000</speed>
</trkpt>
<trkpt lat="43.107384" lon="19.168839">
<ele>1411.766602</ele>
<time>2012-05-01T11:36:29Z</time>
<desc>lat.=43.107384, lon.=19.168839, Alt.=1411.766602m. Speed=9.720000m/h.</desc>
<speed>2.700000</speed>
</trkpt>
<trkpt lat="43.107307" lon="19.168751">
<ele>1412.329102</ele>
<time>2012-05-01T11:36:34Z</time>
<desc>lat.=43.107307, lon.=19.168751, Alt.=1412.329102m. Speed=7.416000m/h.</desc>
<speed>2.060000</speed>
</trkpt>
<trkpt lat="43.107231" lon="19.168655">
<ele>1412.766602</ele>
<time>2012-05-01T11:36:39Z</time>
<desc>lat.=43.107231, lon.=19.168655, Alt.=1412.766602m. Speed=8.280000m/h.</desc>
<speed>2.300000</speed>
</trkpt>
<trkpt lat="43.107193" lon="19.168509">
<ele>1413.110352</ele>
<time>2012-05-01T11:36:44Z</time>
<desc>lat.=43.107193, lon.=19.168509, Alt.=1413.110352m. Speed=9.360000m/h.</desc>
<speed>2.600000</speed>
</trkpt>
<trkpt lat="43.107174" lon="19.168367">
<ele>1413.860352</ele>
<time>2012-05-01T11:36:49Z</time>
<desc>lat.=43.107174, lon.=19.168367, Alt.=1413.860352m. Speed=8.820000m/h.</desc>
<speed>2.450000</speed>
</trkpt>
<trkpt lat="43.107170" lon="19.168207">
<ele>1414.172852</ele>
<time>2012-05-01T11:36:54Z</time>
<desc>lat.=43.107170, lon.=19.168207, Alt.=1414.172852m. Speed=9.360000m/h.</desc>
<speed>2.600000</speed>
</trkpt>
<trkpt lat="43.107162" lon="19.168041">
<ele>1414.641602</ele>
<time>2012-05-01T11:36:59Z</time>
<desc>lat.=43.107162, lon.=19.168041, Alt.=1414.641602m. Speed=9.684000m/h.</desc>
<speed>2.690000</speed>
</trkpt>
<trkpt lat="43.107147" lon="19.167885">
<ele>1414.922852</ele>
<time>2012-05-01T11:37:04Z</time>
<desc>lat.=43.107147, lon.=19.167885, Alt.=1414.922852m. Speed=8.964000m/h.</desc>
<speed>2.490000</speed>
</trkpt>
<trkpt lat="43.107132" lon="19.167730">
<ele>1415.172852</ele>
<time>2012-05-01T11:37:09Z</time>
<desc>lat.=43.107132, lon.=19.167730, Alt.=1415.172852m. Speed=9.576000m/h.</desc>
<speed>2.660000</speed>
</trkpt>
<trkpt lat="43.107109" lon="19.167568">
<ele>1415.391602</ele>
<time>2012-05-01T11:37:14Z</time>
<desc>lat.=43.107109, lon.=19.167568, Alt.=1415.391602m. Speed=10.512000m/h.</desc>
<speed>2.920000</speed>
</trkpt>
<trkpt lat="43.107090" lon="19.167387">
<ele>1415.922852</ele>
<time>2012-05-01T11:37:19Z</time>
<desc>lat.=43.107090, lon.=19.167387, Alt.=1415.922852m. Speed=10.908000m/h.</desc>
<speed>3.030000</speed>
</trkpt>
<trkpt lat="43.107071" lon="19.167215">
<ele>1416.641602</ele>
<time>2012-05-01T11:37:24Z</time>
<desc>lat.=43.107071, lon.=19.167215, Alt.=1416.641602m. Speed=9.972000m/h.</desc>
<speed>2.770000</speed>
</trkpt>
<trkpt lat="43.107048" lon="19.167053">
<ele>1417.047852</ele>
<time>2012-05-01T11:37:29Z</time>
<desc>lat.=43.107048, lon.=19.167053, Alt.=1417.047852m. Speed=10.548000m/h.</desc>
<speed>2.930000</speed>
</trkpt>
<trkpt lat="43.107002" lon="19.166933">
<ele>1417.985352</ele>
<time>2012-05-01T11:37:34Z</time>
<desc>lat.=43.107002, lon.=19.166933, Alt.=1417.985352m. Speed=5.580000m/h.</desc>
<speed>1.550000</speed>
</trkpt>
<trkpt lat="43.106960" lon="19.166866">
<ele>1419.204102</ele>
<time>2012-05-01T11:37:39Z</time>
<desc>lat.=43.106960, lon.=19.166866, Alt.=1419.204102m. Speed=3.924000m/h.</desc>
<speed>1.090000</speed>
</trkpt>
<trkpt lat="43.106915" lon="19.166813">
<ele>1420.422852</ele>
<time>2012-05-01T11:37:44Z</time>
<desc>lat.=43.106915, lon.=19.166813, Alt.=1420.422852m. Speed=4.104000m/h.</desc>
<speed>1.140000</speed>
</trkpt>
<trkpt lat="43.106873" lon="19.166788">
<ele>1420.266602</ele>
<time>2012-05-01T11:37:49Z</time>
<desc>lat.=43.106873, lon.=19.166788, Alt.=1420.266602m. Speed=0.540000m/h.</desc>
<speed>0.150000</speed>
</trkpt>
<trkpt lat="43.106873" lon="19.166790">
<ele>1419.797852</ele>
<time>2012-05-01T11:37:54Z</time>
<desc>lat.=43.106873, lon.=19.166790, Alt.=1419.797852m. Speed=0.036000m/h.</desc>
<speed>0.010000</speed>
</trkpt>
<trkpt lat="43.106873" lon="19.166790">
<ele>1419.766602</ele>
<time>2012-05-01T11:37:59Z</time>
<desc>lat.=43.106873, lon.=19.166790, Alt.=1419.766602m. Speed=0.000000m/h.</desc>
<speed>0.000000</speed>
</trkpt>
<trkpt lat="43.106873" lon="19.166790">
<ele>1419.766602</ele>
<time>2012-05-01T11:38:04Z</time>
<desc>lat.=43.106873, lon.=19.166790, Alt.=1419.766602m. Speed=0.000000m/h.</desc>
<speed>0.000000</speed>
</trkpt>
<trkpt lat="43.106873" lon="19.166790">
<ele>1419.766602</ele>
<time>2012-05-01T11:38:09Z</time>
<desc>lat.=43.106873, lon.=19.166790, Alt.=1419.766602m. Speed=0.000000m/h.</desc>
<speed>0.000000</speed>
</trkpt>
<trkpt lat="43.106876" lon="19.166794">
<ele>1419.954102</ele>
<time>2012-05-01T11:38:14Z</time>
<desc>lat.=43.106876, lon.=19.166794, Alt.=1419.954102m. Speed=3.024000m/h.</desc>
<speed>0.840000</speed>
</trkpt>
<trkpt lat="43.106880" lon="19.166811">
<ele>1419.985352</ele>
<time>2012-05-01T11:38:19Z</time>
<desc>lat.=43.106880, lon.=19.166811, Alt.=1419.985352m. Speed=0.000000m/h.</desc>
<speed>0.000000</speed>
</trkpt>
<trkpt lat="43.106880" lon="19.166809">
<ele>1419.985352</ele>
<time>2012-05-01T11:38:24Z</time>
<desc>lat.=43.106880, lon.=19.166809, Alt.=1419.985352m. Speed=0.000000m/h.</desc>
<speed>0.000000</speed>
</trkpt>
<trkpt lat="43.106880" lon="19.166809">
<ele>1419.954102</ele>
<time>2012-05-01T11:38:29Z</time>
<desc>lat.=43.106880, lon.=19.166809, Alt.=1419.954102m. Speed=0.108000m/h.</desc>
<speed>0.030000</speed>
</trkpt>
<trkpt lat="43.106884" lon="19.166811">
<ele>1420.016602</ele>
<time>2012-05-01T11:38:34Z</time>
<desc>lat.=43.106884, lon.=19.166811, Alt.=1420.016602m. Speed=0.144000m/h.</desc>
<speed>0.040000</speed>
</trkpt>
<trkpt lat="43.106884" lon="19.166811">
<ele>1420.079102</ele>
<time>2012-05-01T11:38:39Z</time>
<desc>lat.=43.106884, lon.=19.166811, Alt.=1420.079102m. Speed=0.036000m/h.</desc>
<speed>0.010000</speed>
</trkpt>
<trkpt lat="43.106884" lon="19.166811">
<ele>1420.079102</ele>
<time>2012-05-01T11:38:44Z</time>
<desc>lat.=43.106884, lon.=19.166811, Alt.=1420.079102m. Speed=0.000000m/h.</desc>
<speed>0.000000</speed>
</trkpt>
<trkpt lat="43.106884" lon="19.166811">
<ele>1420.079102</ele>
<time>2012-05-01T11:38:49Z</time>
<desc>lat.=43.106884, lon.=19.166811, Alt.=1420.079102m. Speed=0.036000m/h.</desc>
<speed>0.010000</speed>
</trkpt>
<trkpt lat="43.106884" lon="19.166811">
<ele>1420.079102</ele>
<time>2012-05-01T11:38:54Z</time>
<desc>lat.=43.106884, lon.=19.166811, Alt.=1420.079102m. Speed=0.144000m/h.</desc>
<speed>0.040000</speed>
</trkpt>
<trkpt lat="43.106884" lon="19.166811">
<ele>1420.079102</ele>
<time>2012-05-01T11:38:59Z</time>
<desc>lat.=43.106884, lon.=19.166811, Alt.=1420.079102m. Speed=0.000000m/h.</desc>
<speed>0.000000</speed>
</trkpt>
<trkpt lat="43.106884" lon="19.166811">
<ele>1420.079102</ele>
<time>2012-05-01T11:39:04Z</time>
<desc>lat.=43.106884, lon.=19.166811, Alt.=1420.079102m. Speed=0.072000m/h.</desc>
<speed>0.020000</speed>
</trkpt>
<trkpt lat="43.106884" lon="19.166811">
<ele>1420.079102</ele>
<time>2012-05-01T11:39:09Z</time>
<desc>lat.=43.106884, lon.=19.166811, Alt.=1420.079102m. Speed=0.036000m/h.</desc>
<speed>0.010000</speed>
</trkpt>
<trkpt lat="43.106884" lon="19.166811">
<ele>1420.079102</ele>
<time>2012-05-01T11:39:14Z</time>
<desc>lat.=43.106884, lon.=19.166811, Alt.=1420.079102m. Speed=0.000000m/h.</desc>
<speed>0.000000</speed>
</trkpt>
<trkpt lat="43.106884" lon="19.166811">
<ele>1420.079102</ele>
<time>2012-05-01T11:39:19Z</time>
<desc>lat.=43.106884, lon.=19.166811, Alt.=1420.079102m. Speed=0.000000m/h.</desc>
<speed>0.000000</speed>
</trkpt>
<trkpt lat="43.106884" lon="19.166811">
<ele>1420.110352</ele>
<time>2012-05-01T11:39:24Z</time>
<desc>lat.=43.106884, lon.=19.166811, Alt.=1420.110352m. Speed=0.072000m/h.</desc>
<speed>0.020000</speed>
</trkpt>
<trkpt lat="43.106884" lon="19.166811">
<ele>1420.110352</ele>
<time>2012-05-01T11:39:29Z</time>
<desc>lat.=43.106884, lon.=19.166811, Alt.=1420.110352m. Speed=0.036000m/h.</desc>
<speed>0.010000</speed>
</trkpt>
<trkpt lat="43.106884" lon="19.166811">
<ele>1420.141602</ele>
<time>2012-05-01T11:39:34Z</time>
<desc>lat.=43.106884, lon.=19.166811, Alt.=1420.141602m. Speed=0.000000m/h.</desc>
<speed>0.000000</speed>
</trkpt>
<trkpt lat="43.106884" lon="19.166811">
<ele>1420.141602</ele>
<time>2012-05-01T11:39:39Z</time>
<desc>lat.=43.106884, lon.=19.166811, Alt.=1420.141602m. Speed=0.000000m/h.</desc>
<speed>0.000000</speed>
</trkpt>
<trkpt lat="43.106884" lon="19.166811">
<ele>1420.172852</ele>
<time>2012-05-01T11:39:44Z</time>
<desc>lat.=43.106884, lon.=19.166811, Alt.=1420.172852m. Speed=0.000000m/h.</desc>
<speed>0.000000</speed>
</trkpt>
<trkpt lat="43.106880" lon="19.166815">
<ele>1419.954102</ele>
<time>2012-05-01T11:39:49Z</time>
<desc>lat.=43.106880, lon.=19.166815, Alt.=1419.954102m. Speed=1.296000m/h.</desc>
<speed>0.360000</speed>
</trkpt>
<trkpt lat="43.106892" lon="19.166813">
<ele>1419.235352</ele>
<time>2012-05-01T11:39:54Z</time>
<desc>lat.=43.106892, lon.=19.166813, Alt.=1419.235352m. Speed=0.108000m/h.</desc>
<speed>0.030000</speed>
</trkpt>
<trkpt lat="43.106892" lon="19.166813">
<ele>1419.204102</ele>
<time>2012-05-01T11:39:59Z</time>
<desc>lat.=43.106892, lon.=19.166813, Alt.=1419.204102m. Speed=0.036000m/h.</desc>
<speed>0.010000</speed>
</trkpt>
<trkpt lat="43.106892" lon="19.166813">
<ele>1419.204102</ele>
<time>2012-05-01T11:40:04Z</time>
<desc>lat.=43.106892, lon.=19.166813, Alt.=1419.204102m. Speed=0.000000m/h.</desc>
<speed>0.000000</speed>
</trkpt>
<trkpt lat="43.106892" lon="19.166813">
<ele>1419.172852</ele>
<time>2012-05-01T11:40:09Z</time>
<desc>lat.=43.106892, lon.=19.166813, Alt.=1419.172852m. Speed=0.036000m/h.</desc>
<speed>0.010000</speed>
</trkpt>
<trkpt lat="43.106892" lon="19.166813">
<ele>1419.172852</ele>
<time>2012-05-01T11:40:14Z</time>
<desc>lat.=43.106892, lon.=19.166813, Alt.=1419.172852m. Speed=0.000000m/h.</desc>
<speed>0.000000</speed>
</trkpt>
<trkpt lat="43.106892" lon="19.166813">
<ele>1419.172852</ele>
<time>2012-05-01T11:40:19Z</time>
<desc>lat.=43.106892, lon.=19.166813, Alt.=1419.172852m. Speed=0.108000m/h.</desc>
<speed>0.030000</speed>
</trkpt>
<trkpt lat="43.106892" lon="19.166813">
<ele>1419.172852</ele>
<time>2012-05-01T11:40:24Z</time>
<desc>lat.=43.106892, lon.=19.166813, Alt.=1419.172852m. Speed=0.000000m/h.</desc>
<speed>0.000000</speed>
</trkpt>
<trkpt lat="43.106892" lon="19.166813">
<ele>1419.172852</ele>
<time>2012-05-01T11:40:29Z</time>
<desc>lat.=43.106892, lon.=19.166813, Alt.=1419.172852m. Speed=0.072000m/h.</desc>
<speed>0.020000</speed>
</trkpt>
<trkpt lat="43.106892" lon="19.166813">
<ele>1419.141602</ele>
<time>2012-05-01T11:40:34Z</time>
<desc>lat.=43.106892, lon.=19.166813, Alt.=1419.141602m. Speed=0.036000m/h.</desc>
<speed>0.010000</speed>
</trkpt>
<trkpt lat="43.106892" lon="19.166813">
<ele>1419.141602</ele>
<time>2012-05-01T11:40:39Z</time>
<desc>lat.=43.106892, lon.=19.166813, Alt.=1419.141602m. Speed=0.000000m/h.</desc>
<speed>0.000000</speed>
</trkpt>
<trkpt lat="43.106892" lon="19.166813">
<ele>1419.141602</ele>
<time>2012-05-01T11:40:44Z</time>
<desc>lat.=43.106892, lon.=19.166813, Alt.=1419.141602m. Speed=0.108000m/h.</desc>
<speed>0.030000</speed>
</trkpt>
<trkpt lat="43.106892" lon="19.166813">
<ele>1419.141602</ele>
<time>2012-05-01T11:40:49Z</time>
<desc>lat.=43.106892, lon.=19.166813, Alt.=1419.141602m. Speed=0.072000m/h.</desc>
<speed>0.020000</speed>
</trkpt>
<trkpt lat="43.106892" lon="19.166813">
<ele>1419.141602</ele>
<time>2012-05-01T11:40:54Z</time>
<desc>lat.=43.106892, lon.=19.166813, Alt.=1419.141602m. Speed=0.072000m/h.</desc>
<speed>0.020000</speed>
</trkpt>
<trkpt lat="43.106892" lon="19.166813">
<ele>1419.141602</ele>
<time>2012-05-01T11:40:59Z</time>
<desc>lat.=43.106892, lon.=19.166813, Alt.=1419.141602m. Speed=0.468000m/h.</desc>
<speed>0.130000</speed>
</trkpt>
<trkpt lat="43.106892" lon="19.166805">
<ele>1419.329102</ele>
<time>2012-05-01T11:41:04Z</time>
<desc>lat.=43.106892, lon.=19.166805, Alt.=1419.329102m. Speed=1.476000m/h.</desc>
<speed>0.410000</speed>
</trkpt>
<trkpt lat="43.106911" lon="19.166800">
<ele>1419.610352</ele>
<time>2012-05-01T11:41:09Z</time>
<desc>lat.=43.106911, lon.=19.166800, Alt.=1419.610352m. Speed=1.368000m/h.</desc>
<speed>0.380000</speed>
</trkpt>
<trkpt lat="43.106842" lon="19.166759">
<ele>1419.766602</ele>
<time>2012-05-01T11:41:14Z</time>
<desc>lat.=43.106842, lon.=19.166759, Alt.=1419.766602m. Speed=10.296000m/h.</desc>
<speed>2.860000</speed>
</trkpt>
<trkpt lat="43.106674" lon="19.166655">
<ele>1418.735352</ele>
<time>2012-05-01T11:41:19Z</time>
<desc>lat.=43.106674, lon.=19.166655, Alt.=1418.735352m. Speed=17.351999m/h.</desc>
<speed>4.820000</speed>
</trkpt>
<trkpt lat="43.106426" lon="19.166504">
<ele>1417.047852</ele>
<time>2012-05-01T11:41:24Z</time>
<desc>lat.=43.106426, lon.=19.166504, Alt.=1417.047852m. Speed=24.011999m/h.</desc>
<speed>6.670000</speed>
</trkpt>
<trkpt lat="43.106159" lon="19.166218">
<ele>1413.797852</ele>
<time>2012-05-01T11:41:29Z</time>
<desc>lat.=43.106159, lon.=19.166218, Alt.=1413.797852m. Speed=28.836000m/h.</desc>
<speed>8.010000</speed>
</trkpt>
<trkpt lat="43.106094" lon="19.165716">
<ele>1413.329102</ele>
<time>2012-05-01T11:41:34Z</time>
<desc>lat.=43.106094, lon.=19.165716, Alt.=1413.329102m. Speed=29.520000m/h.</desc>
<speed>8.200000</speed>
</trkpt>
<trkpt lat="43.106022" lon="19.165224">
<ele>1412.235352</ele>
<time>2012-05-01T11:41:39Z</time>
<desc>lat.=43.106022, lon.=19.165224, Alt.=1412.235352m. Speed=29.412001m/h.</desc>
<speed>8.170000</speed>
</trkpt>
<trkpt lat="43.105877" lon="19.164762">
<ele>1411.485352</ele>
<time>2012-05-01T11:41:44Z</time>
<desc>lat.=43.105877, lon.=19.164762, Alt.=1411.485352m. Speed=29.879999m/h.</desc>
<speed>8.300000</speed>
</trkpt>
<trkpt lat="43.105698" lon="19.164305">
<ele>1410.735352</ele>
<time>2012-05-01T11:41:49Z</time>
<desc>lat.=43.105698, lon.=19.164305, Alt.=1410.735352m. Speed=30.996000m/h.</desc>
<speed>8.610000</speed>
</trkpt>
<trkpt lat="43.105526" lon="19.163841">
<ele>1410.204102</ele>
<time>2012-05-01T11:41:54Z</time>
<desc>lat.=43.105526, lon.=19.163841, Alt.=1410.204102m. Speed=30.348000m/h.</desc>
<speed>8.430000</speed>
</trkpt>
<trkpt lat="43.105366" lon="19.163359">
<ele>1409.579102</ele>
<time>2012-05-01T11:41:59Z</time>
<desc>lat.=43.105366, lon.=19.163359, Alt.=1409.579102m. Speed=31.212000m/h.</desc>
<speed>8.670000</speed>
</trkpt>
<trkpt lat="43.105179" lon="19.162886">
<ele>1409.172852</ele>
<time>2012-05-01T11:42:04Z</time>
<desc>lat.=43.105179, lon.=19.162886, Alt.=1409.172852m. Speed=31.104000m/h.</desc>
<speed>8.640000</speed>
</trkpt>
<trkpt lat="43.105034" lon="19.162395">
<ele>1408.485352</ele>
<time>2012-05-01T11:42:09Z</time>
<desc>lat.=43.105034, lon.=19.162395, Alt.=1408.485352m. Speed=30.888000m/h.</desc>
<speed>8.580000</speed>
</trkpt>
<trkpt lat="43.104942" lon="19.161890">
<ele>1407.860352</ele>
<time>2012-05-01T11:42:14Z</time>
<desc>lat.=43.104942, lon.=19.161890, Alt.=1407.860352m. Speed=30.240000m/h.</desc>
<speed>8.400000</speed>
</trkpt>
<trkpt lat="43.104679" lon="19.161537">
<ele>1407.579102</ele>
<time>2012-05-01T11:42:19Z</time>
<desc>lat.=43.104679, lon.=19.161537, Alt.=1407.579102m. Speed=29.916000m/h.</desc>
<speed>8.310000</speed>
</trkpt>
<trkpt lat="43.104435" lon="19.161173">
<ele>1407.610352</ele>
<time>2012-05-01T11:42:24Z</time>
<desc>lat.=43.104435, lon.=19.161173, Alt.=1407.610352m. Speed=26.856001m/h.</desc>
<speed>7.460000</speed>
</trkpt>
<trkpt lat="43.104233" lon="19.160851">
<ele>1407.579102</ele>
<time>2012-05-01T11:42:29Z</time>
<desc>lat.=43.104233, lon.=19.160851, Alt.=1407.579102m. Speed=23.436001m/h.</desc>
<speed>6.510000</speed>
</trkpt>
<trkpt lat="43.104061" lon="19.160551">
<ele>1407.516602</ele>
<time>2012-05-01T11:42:34Z</time>
<desc>lat.=43.104061, lon.=19.160551, Alt.=1407.516602m. Speed=23.976000m/h.</desc>
<speed>6.660000</speed>
</trkpt>
<trkpt lat="43.103867" lon="19.160215">
<ele>1406.860352</ele>
<time>2012-05-01T11:42:39Z</time>
<desc>lat.=43.103867, lon.=19.160215, Alt.=1406.860352m. Speed=25.379999m/h.</desc>
<speed>7.050000</speed>
</trkpt>
<trkpt lat="43.103668" lon="19.159893">
<ele>1406.547852</ele>
<time>2012-05-01T11:42:44Z</time>
<desc>lat.=43.103668, lon.=19.159893, Alt.=1406.547852m. Speed=22.500000m/h.</desc>
<speed>6.250000</speed>
</trkpt>
<trkpt lat="43.103512" lon="19.159613">
<ele>1406.485352</ele>
<time>2012-05-01T11:42:49Z</time>
<desc>lat.=43.103512, lon.=19.159613, Alt.=1406.485352m. Speed=18.540001m/h.</desc>
<speed>5.150000</speed>
</trkpt>
<trkpt lat="43.103333" lon="19.159458">
<ele>1406.704102</ele>
<time>2012-05-01T11:42:54Z</time>
<desc>lat.=43.103333, lon.=19.159458, Alt.=1406.704102m. Speed=16.775999m/h.</desc>
<speed>4.660000</speed>
</trkpt>
<trkpt lat="43.103100" lon="19.159464">
<ele>1407.079102</ele>
<time>2012-05-01T11:42:59Z</time>
<desc>lat.=43.103100, lon.=19.159464, Alt.=1407.079102m. Speed=19.584000m/h.</desc>
<speed>5.440000</speed>
</trkpt>
<trkpt lat="43.102875" lon="19.159431">
<ele>1407.391602</ele>
<time>2012-05-01T11:43:04Z</time>
<desc>lat.=43.102875, lon.=19.159431, Alt.=1407.391602m. Speed=17.136000m/h.</desc>
<speed>4.760000</speed>
</trkpt>
<trkpt lat="43.102661" lon="19.159313">
<ele>1407.360352</ele>
<time>2012-05-01T11:43:09Z</time>
<desc>lat.=43.102661, lon.=19.159313, Alt.=1407.360352m. Speed=19.152000m/h.</desc>
<speed>5.320000</speed>
</trkpt>
<trkpt lat="43.102459" lon="19.159140">
<ele>1407.391602</ele>
<time>2012-05-01T11:43:14Z</time>
<desc>lat.=43.102459, lon.=19.159140, Alt.=1407.391602m. Speed=17.063999m/h.</desc>
<speed>4.740000</speed>
</trkpt>
<trkpt lat="43.102264" lon="19.158983">
<ele>1407.422852</ele>
<time>2012-05-01T11:43:19Z</time>
<desc>lat.=43.102264, lon.=19.158983, Alt.=1407.422852m. Speed=19.188000m/h.</desc>
<speed>5.330000</speed>
</trkpt>
<trkpt lat="43.102058" lon="19.158865">
<ele>1407.579102</ele>
<time>2012-05-01T11:43:24Z</time>
<desc>lat.=43.102058, lon.=19.158865, Alt.=1407.579102m. Speed=16.488001m/h.</desc>
<speed>4.580000</speed>
</trkpt>
<trkpt lat="43.101845" lon="19.158800">
<ele>1407.985352</ele>
<time>2012-05-01T11:43:29Z</time>
<desc>lat.=43.101845, lon.=19.158800, Alt.=1407.985352m. Speed=20.304001m/h.</desc>
<speed>5.640000</speed>
</trkpt>
<trkpt lat="43.101616" lon="19.158670">
<ele>1408.235352</ele>
<time>2012-05-01T11:43:34Z</time>
<desc>lat.=43.101616, lon.=19.158670, Alt.=1408.235352m. Speed=19.260000m/h.</desc>
<speed>5.350000</speed>
</trkpt>
<trkpt lat="43.101517" lon="19.158384">
<ele>1408.516602</ele>
<time>2012-05-01T11:43:39Z</time>
<desc>lat.=43.101517, lon.=19.158384, Alt.=1408.516602m. Speed=20.520000m/h.</desc>
<speed>5.700000</speed>
</trkpt>
<trkpt lat="43.101467" lon="19.158060">
<ele>1408.235352</ele>
<time>2012-05-01T11:43:44Z</time>
<desc>lat.=43.101467, lon.=19.158060, Alt.=1408.235352m. Speed=16.884001m/h.</desc>
<speed>4.690000</speed>
</trkpt>
<trkpt lat="43.101494" lon="19.157795">
<ele>1408.016602</ele>
<time>2012-05-01T11:43:49Z</time>
<desc>lat.=43.101494, lon.=19.157795, Alt.=1408.016602m. Speed=14.292000m/h.</desc>
<speed>3.970000</speed>
</trkpt>
<trkpt lat="43.101574" lon="19.157589">
<ele>1408.016602</ele>
<time>2012-05-01T11:43:54Z</time>
<desc>lat.=43.101574, lon.=19.157589, Alt.=1408.016602m. Speed=14.904000m/h.</desc>
<speed>4.140000</speed>
</trkpt>
<trkpt lat="43.101692" lon="19.157339">
<ele>1407.454102</ele>
<time>2012-05-01T11:43:59Z</time>
<desc>lat.=43.101692, lon.=19.157339, Alt.=1407.454102m. Speed=19.224001m/h.</desc>
<speed>5.340000</speed>
</trkpt>
<trkpt lat="43.101742" lon="19.157028">
<ele>1407.797852</ele>
<time>2012-05-01T11:44:04Z</time>
<desc>lat.=43.101742, lon.=19.157028, Alt.=1407.797852m. Speed=17.964001m/h.</desc>
<speed>4.990000</speed>
</trkpt>
<trkpt lat="43.101677" lon="19.156750">
<ele>1407.704102</ele>
<time>2012-05-01T11:44:09Z</time>
<desc>lat.=43.101677, lon.=19.156750, Alt.=1407.704102m. Speed=15.768000m/h.</desc>
<speed>4.380000</speed>
</trkpt>
<trkpt lat="43.101551" lon="19.156517">
<ele>1407.672852</ele>
<time>2012-05-01T11:44:14Z</time>
<desc>lat.=43.101551, lon.=19.156517, Alt.=1407.672852m. Speed=18.504000m/h.</desc>
<speed>5.140000</speed>
</trkpt>
<trkpt lat="43.101410" lon="19.156298">
<ele>1407.516602</ele>
<time>2012-05-01T11:44:19Z</time>
<desc>lat.=43.101410, lon.=19.156298, Alt.=1407.516602m. Speed=16.200001m/h.</desc>
<speed>4.500000</speed>
</trkpt>
<trkpt lat="43.101276" lon="19.156096">
<ele>1407.047852</ele>
<time>2012-05-01T11:44:24Z</time>
<desc>lat.=43.101276, lon.=19.156096, Alt.=1407.047852m. Speed=16.020000m/h.</desc>
<speed>4.450000</speed>
</trkpt>
<trkpt lat="43.101135" lon="19.155878">
<ele>1406.891602</ele>
<time>2012-05-01T11:44:29Z</time>
<desc>lat.=43.101135, lon.=19.155878, Alt.=1406.891602m. Speed=16.488001m/h.</desc>
<speed>4.580000</speed>
</trkpt>
<trkpt lat="43.100994" lon="19.155653">
<ele>1407.141602</ele>
<time>2012-05-01T11:44:34Z</time>
<desc>lat.=43.100994, lon.=19.155653, Alt.=1407.141602m. Speed=18.827999m/h.</desc>
<speed>5.230000</speed>
</trkpt>
<trkpt lat="43.100807" lon="19.155411">
<ele>1407.204102</ele>
<time>2012-05-01T11:44:39Z</time>
<desc>lat.=43.100807, lon.=19.155411, Alt.=1407.204102m. Speed=21.492001m/h.</desc>
<speed>5.970000</speed>
</trkpt>
<trkpt lat="43.100571" lon="19.155207">
<ele>1406.391602</ele>
<time>2012-05-01T11:44:44Z</time>
<desc>lat.=43.100571, lon.=19.155207, Alt.=1406.391602m. Speed=23.256001m/h.</desc>
<speed>6.460000</speed>
</trkpt>
<trkpt lat="43.100288" lon="19.154989">
<ele>1405.704102</ele>
<time>2012-05-01T11:44:49Z</time>
<desc>lat.=43.100288, lon.=19.154989, Alt.=1405.704102m. Speed=27.143999m/h.</desc>
<speed>7.540000</speed>
</trkpt>
<trkpt lat="43.100014" lon="19.154778">
<ele>1405.579102</ele>
<time>2012-05-01T11:44:54Z</time>
<desc>lat.=43.100014, lon.=19.154778, Alt.=1405.579102m. Speed=23.472000m/h.</desc>
<speed>6.520000</speed>
</trkpt>
<trkpt lat="43.099777" lon="19.154591">
<ele>1405.454102</ele>
<time>2012-05-01T11:44:59Z</time>
<desc>lat.=43.099777, lon.=19.154591, Alt.=1405.454102m. Speed=19.908001m/h.</desc>
<speed>5.530000</speed>
</trkpt>
<trkpt lat="43.099529" lon="19.154438">
<ele>1405.735352</ele>
<time>2012-05-01T11:45:04Z</time>
<desc>lat.=43.099529, lon.=19.154438, Alt.=1405.735352m. Speed=21.708000m/h.</desc>
<speed>6.030000</speed>
</trkpt>
<trkpt lat="43.099266" lon="19.154314">
<ele>1405.235352</ele>
<time>2012-05-01T11:45:09Z</time>
<desc>lat.=43.099266, lon.=19.154314, Alt.=1405.235352m. Speed=22.788000m/h.</desc>
<speed>6.330000</speed>
</trkpt>
<trkpt lat="43.098995" lon="19.154179">
<ele>1404.829102</ele>
<time>2012-05-01T11:45:14Z</time>
<desc>lat.=43.098995, lon.=19.154179, Alt.=1404.829102m. Speed=21.959999m/h.</desc>
<speed>6.100000</speed>
</trkpt>
<trkpt lat="43.098763" lon="19.154057">
<ele>1404.672852</ele>
<time>2012-05-01T11:45:19Z</time>
<desc>lat.=43.098763, lon.=19.154057, Alt.=1404.672852m. Speed=17.964001m/h.</desc>
<speed>4.990000</speed>
</trkpt>
<trkpt lat="43.098545" lon="19.153919">
<ele>1405.110352</ele>
<time>2012-05-01T11:45:24Z</time>
<desc>lat.=43.098545, lon.=19.153919, Alt.=1405.110352m. Speed=22.643999m/h.</desc>
<speed>6.290000</speed>
</trkpt>
<trkpt lat="43.098328" lon="19.153721">
<ele>1405.891602</ele>
<time>2012-05-01T11:45:29Z</time>
<desc>lat.=43.098328, lon.=19.153721, Alt.=1405.891602m. Speed=19.872000m/h.</desc>
<speed>5.520000</speed>
</trkpt>
<trkpt lat="43.098122" lon="19.153555">
<ele>1406.110352</ele>
<time>2012-05-01T11:45:34Z</time>
<desc>lat.=43.098122, lon.=19.153555, Alt.=1406.110352m. Speed=17.388000m/h.</desc>
<speed>4.830000</speed>
</trkpt>
<trkpt lat="43.097954" lon="19.153412">
<ele>1405.579102</ele>
<time>2012-05-01T11:45:39Z</time>
<desc>lat.=43.097954, lon.=19.153412, Alt.=1405.579102m. Speed=15.192000m/h.</desc>
<speed>4.220000</speed>
</trkpt>
<trkpt lat="43.097797" lon="19.153271">
<ele>1404.829102</ele>
<time>2012-05-01T11:45:44Z</time>
<desc>lat.=43.097797, lon.=19.153271, Alt.=1404.829102m. Speed=16.128000m/h.</desc>
<speed>4.480000</speed>
</trkpt>
<trkpt lat="43.097595" lon="19.153105">
<ele>1404.704102</ele>
<time>2012-05-01T11:45:49Z</time>
<desc>lat.=43.097595, lon.=19.153105, Alt.=1404.704102m. Speed=20.808001m/h.</desc>
<speed>5.780000</speed>
</trkpt>
<trkpt lat="43.097385" lon="19.152887">
<ele>1404.297852</ele>
<time>2012-05-01T11:45:54Z</time>
<desc>lat.=43.097385, lon.=19.152887, Alt.=1404.297852m. Speed=22.535999m/h.</desc>
<speed>6.260000</speed>
</trkpt>
<trkpt lat="43.097141" lon="19.152676">
<ele>1403.985352</ele>
<time>2012-05-01T11:45:59Z</time>
<desc>lat.=43.097141, lon.=19.152676, Alt.=1403.985352m. Speed=23.976000m/h.</desc>
<speed>6.660000</speed>
</trkpt>
<trkpt lat="43.096920" lon="19.152502">
<ele>1404.110352</ele>
<time>2012-05-01T11:46:04Z</time>
<desc>lat.=43.096920, lon.=19.152502, Alt.=1404.110352m. Speed=16.667999m/h.</desc>
<speed>4.630000</speed>
</trkpt>
<trkpt lat="43.096729" lon="19.152370">
<ele>1404.641602</ele>
<time>2012-05-01T11:46:09Z</time>
<desc>lat.=43.096729, lon.=19.152370, Alt.=1404.641602m. Speed=18.936001m/h.</desc>
<speed>5.260000</speed>
</trkpt>
<trkpt lat="43.096500" lon="19.152203">
<ele>1404.922852</ele>
<time>2012-05-01T11:46:14Z</time>
<desc>lat.=43.096500, lon.=19.152203, Alt.=1404.922852m. Speed=21.240000m/h.</desc>
<speed>5.900000</speed>
</trkpt>
<trkpt lat="43.096279" lon="19.152046">
<ele>1405.266602</ele>
<time>2012-05-01T11:46:19Z</time>
<desc>lat.=43.096279, lon.=19.152046, Alt.=1405.266602m. Speed=18.323999m/h.</desc>
<speed>5.090000</speed>
</trkpt>
<trkpt lat="43.096081" lon="19.151907">
<ele>1406.235352</ele>
<time>2012-05-01T11:46:24Z</time>
<desc>lat.=43.096081, lon.=19.151907, Alt.=1406.235352m. Speed=19.115999m/h.</desc>
<speed>5.310000</speed>
</trkpt>
<trkpt lat="43.095863" lon="19.151777">
<ele>1408.297852</ele>
<time>2012-05-01T11:46:29Z</time>
<desc>lat.=43.095863, lon.=19.151777, Alt.=1408.297852m. Speed=16.164000m/h.</desc>
<speed>4.490000</speed>
</trkpt>
<trkpt lat="43.095692" lon="19.151642">
<ele>1409.141602</ele>
<time>2012-05-01T11:46:34Z</time>
<desc>lat.=43.095692, lon.=19.151642, Alt.=1409.141602m. Speed=14.436000m/h.</desc>
<speed>4.010000</speed>
</trkpt>
<trkpt lat="43.095474" lon="19.151703">
<ele>1411.141602</ele>
<time>2012-05-01T11:46:39Z</time>
<desc>lat.=43.095474, lon.=19.151703, Alt.=1411.141602m. Speed=17.892000m/h.</desc>
<speed>4.970000</speed>
</trkpt>
<trkpt lat="43.095242" lon="19.151777">
<ele>1411.704102</ele>
<time>2012-05-01T11:46:44Z</time>
<desc>lat.=43.095242, lon.=19.151777, Alt.=1411.704102m. Speed=17.316000m/h.</desc>
<speed>4.810000</speed>
</trkpt>
<trkpt lat="43.095039" lon="19.151756">
<ele>1413.922852</ele>
<time>2012-05-01T11:46:49Z</time>
<desc>lat.=43.095039, lon.=19.151756, Alt.=1413.922852m. Speed=15.408000m/h.</desc>
<speed>4.280000</speed>
</trkpt>
<trkpt lat="43.094833" lon="19.151743">
<ele>1415.610352</ele>
<time>2012-05-01T11:46:54Z</time>
<desc>lat.=43.094833, lon.=19.151743, Alt.=1415.610352m. Speed=16.812000m/h.</desc>
<speed>4.670000</speed>
</trkpt>
<trkpt lat="43.094627" lon="19.151733">
<ele>1417.172852</ele>
<time>2012-05-01T11:46:59Z</time>
<desc>lat.=43.094627, lon.=19.151733, Alt.=1417.172852m. Speed=16.416000m/h.</desc>
<speed>4.560000</speed>
</trkpt>
<trkpt lat="43.094418" lon="19.151724">
<ele>1417.516602</ele>
<time>2012-05-01T11:47:04Z</time>
<desc>lat.=43.094418, lon.=19.151724, Alt.=1417.516602m. Speed=16.740000m/h.</desc>
<speed>4.650000</speed>
</trkpt>
<trkpt lat="43.094212" lon="19.151756">
<ele>1418.704102</ele>
<time>2012-05-01T11:47:09Z</time>
<desc>lat.=43.094212, lon.=19.151756, Alt.=1418.704102m. Speed=17.639999m/h.</desc>
<speed>4.900000</speed>
</trkpt>
<trkpt lat="43.094021" lon="19.151745">
<ele>1419.454102</ele>
<time>2012-05-01T11:47:14Z</time>
<desc>lat.=43.094021, lon.=19.151745, Alt.=1419.454102m. Speed=15.264000m/h.</desc>
<speed>4.240000</speed>
</trkpt>
<trkpt lat="43.093868" lon="19.151590">
<ele>1417.360352</ele>
<time>2012-05-01T11:47:19Z</time>
<desc>lat.=43.093868, lon.=19.151590, Alt.=1417.360352m. Speed=17.028000m/h.</desc>
<speed>4.730000</speed>
</trkpt>
<trkpt lat="43.093822" lon="19.151310">
<ele>1416.391602</ele>
<time>2012-05-01T11:47:24Z</time>
<desc>lat.=43.093822, lon.=19.151310, Alt.=1416.391602m. Speed=16.775999m/h.</desc>
<speed>4.660000</speed>
</trkpt>
<trkpt lat="43.093788" lon="19.151041">
<ele>1415.829102</ele>
<time>2012-05-01T11:47:29Z</time>
<desc>lat.=43.093788, lon.=19.151041, Alt.=1415.829102m. Speed=14.256000m/h.</desc>
<speed>3.960000</speed>
</trkpt>
<trkpt lat="43.093761" lon="19.150839">
<ele>1415.329102</ele>
<time>2012-05-01T11:47:34Z</time>
<desc>lat.=43.093761, lon.=19.150839, Alt.=1415.329102m. Speed=12.312000m/h.</desc>
<speed>3.420000</speed>
</trkpt>
<trkpt lat="43.093739" lon="19.150585">
<ele>1415.047852</ele>
<time>2012-05-01T11:47:39Z</time>
<desc>lat.=43.093739, lon.=19.150585, Alt.=1415.047852m. Speed=16.416000m/h.</desc>
<speed>4.560000</speed>
</trkpt>
<trkpt lat="43.093704" lon="19.150312">
<ele>1415.360352</ele>
<time>2012-05-01T11:47:44Z</time>
<desc>lat.=43.093704, lon.=19.150312, Alt.=1415.360352m. Speed=14.256000m/h.</desc>
<speed>3.960000</speed>
</trkpt>
<trkpt lat="43.093674" lon="19.150091">
<ele>1415.079102</ele>
<time>2012-05-01T11:47:49Z</time>
<desc>lat.=43.093674, lon.=19.150091, Alt.=1415.079102m. Speed=14.868000m/h.</desc>
<speed>4.130000</speed>
</trkpt>
<trkpt lat="43.093639" lon="19.149811">
<ele>1415.110352</ele>
<time>2012-05-01T11:47:54Z</time>
<desc>lat.=43.093639, lon.=19.149811, Alt.=1415.110352m. Speed=16.775999m/h.</desc>
<speed>4.660000</speed>
</trkpt>
<trkpt lat="43.093605" lon="19.149517">
<ele>1415.329102</ele>
<time>2012-05-01T11:47:59Z</time>
<desc>lat.=43.093605, lon.=19.149517, Alt.=1415.329102m. Speed=16.056000m/h.</desc>
<speed>4.460000</speed>
</trkpt>
<trkpt lat="43.093533" lon="19.149271">
<ele>1415.672852</ele>
<time>2012-05-01T11:48:04Z</time>
<desc>lat.=43.093533, lon.=19.149271, Alt.=1415.672852m. Speed=14.760000m/h.</desc>
<speed>4.100000</speed>
</trkpt>
<trkpt lat="43.093403" lon="19.149096">
<ele>1416.766602</ele>
<time>2012-05-01T11:48:09Z</time>
<desc>lat.=43.093403, lon.=19.149096, Alt.=1416.766602m. Speed=16.524000m/h.</desc>
<speed>4.590000</speed>
</trkpt>
<trkpt lat="43.093212" lon="19.148981">
<ele>1416.579102</ele>
<time>2012-05-01T11:48:14Z</time>
<desc>lat.=43.093212, lon.=19.148981, Alt.=1416.579102m. Speed=15.840000m/h.</desc>
<speed>4.400000</speed>
</trkpt>
<trkpt lat="43.093006" lon="19.148895">
<ele>1416.172852</ele>
<time>2012-05-01T11:48:19Z</time>
<desc>lat.=43.093006, lon.=19.148895, Alt.=1416.172852m. Speed=17.100000m/h.</desc>
<speed>4.750000</speed>
</trkpt>
<trkpt lat="43.092800" lon="19.148806">
<ele>1415.641602</ele>
<time>2012-05-01T11:48:24Z</time>
<desc>lat.=43.092800, lon.=19.148806, Alt.=1415.641602m. Speed=17.532000m/h.</desc>
<speed>4.870000</speed>
</trkpt>
<trkpt lat="43.092587" lon="19.148708">
<ele>1415.704102</ele>
<time>2012-05-01T11:48:29Z</time>
<desc>lat.=43.092587, lon.=19.148708, Alt.=1415.704102m. Speed=16.559999m/h.</desc>
<speed>4.600000</speed>
</trkpt>
<trkpt lat="43.092407" lon="19.148693">
<ele>1415.454102</ele>
<time>2012-05-01T11:48:34Z</time>
<desc>lat.=43.092407, lon.=19.148693, Alt.=1415.454102m. Speed=14.580000m/h.</desc>
<speed>4.050000</speed>
</trkpt>
<trkpt lat="43.092255" lon="19.148729">
<ele>1415.516602</ele>
<time>2012-05-01T11:48:39Z</time>
<desc>lat.=43.092255, lon.=19.148729, Alt.=1415.516602m. Speed=8.820000m/h.</desc>
<speed>2.450000</speed>
</trkpt>
<trkpt lat="43.092144" lon="19.148769">
<ele>1414.985352</ele>
<time>2012-05-01T11:48:44Z</time>
<desc>lat.=43.092144, lon.=19.148769, Alt.=1414.985352m. Speed=7.524000m/h.</desc>
<speed>2.090000</speed>
</trkpt>
<trkpt lat="43.092049" lon="19.148794">
<ele>1414.422852</ele>
<time>2012-05-01T11:48:49Z</time>
<desc>lat.=43.092049, lon.=19.148794, Alt.=1414.422852m. Speed=11.700000m/h.</desc>
<speed>3.250000</speed>
</trkpt>
<trkpt lat="43.091877" lon="19.148729">
<ele>1414.329102</ele>
<time>2012-05-01T11:48:54Z</time>
<desc>lat.=43.091877, lon.=19.148729, Alt.=1414.329102m. Speed=16.884001m/h.</desc>
<speed>4.690000</speed>
</trkpt>
<trkpt lat="43.091759" lon="19.148434">
<ele>1414.516602</ele>
<time>2012-05-01T11:48:59Z</time>
<desc>lat.=43.091759, lon.=19.148434, Alt.=1414.516602m. Speed=20.736000m/h.</desc>
<speed>5.760000</speed>
</trkpt>
<trkpt lat="43.091656" lon="19.148161">
<ele>1414.922852</ele>
<time>2012-05-01T11:49:04Z</time>
<desc>lat.=43.091656, lon.=19.148161, Alt.=1414.922852m. Speed=14.832000m/h.</desc>
<speed>4.120000</speed>
</trkpt>
<trkpt lat="43.091476" lon="19.147970">
<ele>1415.141602</ele>
<time>2012-05-01T11:49:09Z</time>
<desc>lat.=43.091476, lon.=19.147970, Alt.=1415.141602m. Speed=23.760000m/h.</desc>
<speed>6.600000</speed>
</trkpt>
<trkpt lat="43.091179" lon="19.147875">
<ele>1415.922852</ele>
<time>2012-05-01T11:49:14Z</time>
<desc>lat.=43.091179, lon.=19.147875, Alt.=1415.922852m. Speed=20.556000m/h.</desc>
<speed>5.710000</speed>
</trkpt>
<trkpt lat="43.090984" lon="19.147835">
<ele>1416.797852</ele>
<time>2012-05-01T11:49:19Z</time>
<desc>lat.=43.090984, lon.=19.147835, Alt.=1416.797852m. Speed=13.176000m/h.</desc>
<speed>3.660000</speed>
</trkpt>
<trkpt lat="43.090832" lon="19.147781">
<ele>1416.641602</ele>
<time>2012-05-01T11:49:24Z</time>
<desc>lat.=43.090832, lon.=19.147781, Alt.=1416.641602m. Speed=10.224000m/h.</desc>
<speed>2.840000</speed>
</trkpt>
<trkpt lat="43.090683" lon="19.147675">
<ele>1416.641602</ele>
<time>2012-05-01T11:49:29Z</time>
<desc>lat.=43.090683, lon.=19.147675, Alt.=1416.641602m. Speed=17.388000m/h.</desc>
<speed>4.830000</speed>
</trkpt>
<trkpt lat="43.090469" lon="19.147509">
<ele>1416.922852</ele>
<time>2012-05-01T11:49:34Z</time>
<desc>lat.=43.090469, lon.=19.147509, Alt.=1416.922852m. Speed=18.936001m/h.</desc>
<speed>5.260000</speed>
</trkpt>
<trkpt lat="43.090282" lon="19.147314">
<ele>1417.735352</ele>
<time>2012-05-01T11:49:39Z</time>
<desc>lat.=43.090282, lon.=19.147314, Alt.=1417.735352m. Speed=17.316000m/h.</desc>
<speed>4.810000</speed>
</trkpt>
<trkpt lat="43.090118" lon="19.147144">
<ele>1417.579102</ele>
<time>2012-05-01T11:49:44Z</time>
<desc>lat.=43.090118, lon.=19.147144, Alt.=1417.579102m. Speed=17.351999m/h.</desc>
<speed>4.820000</speed>
</trkpt>
<trkpt lat="43.089947" lon="19.146944">
<ele>1417.485352</ele>
<time>2012-05-01T11:49:49Z</time>
<desc>lat.=43.089947, lon.=19.146944, Alt.=1417.485352m. Speed=16.379999m/h.</desc>
<speed>4.550000</speed>
</trkpt>
<trkpt lat="43.089798" lon="19.146790">
<ele>1417.079102</ele>
<time>2012-05-01T11:49:54Z</time>
<desc>lat.=43.089798, lon.=19.146790, Alt.=1417.079102m. Speed=13.068000m/h.</desc>
<speed>3.630000</speed>
</trkpt>
<trkpt lat="43.089638" lon="19.146641">
<ele>1416.954102</ele>
<time>2012-05-01T11:49:59Z</time>
<desc>lat.=43.089638, lon.=19.146641, Alt.=1416.954102m. Speed=17.639999m/h.</desc>
<speed>4.900000</speed>
</trkpt>
<trkpt lat="43.089401" lon="19.146534">
<ele>1415.735352</ele>
<time>2012-05-01T11:50:04Z</time>
<desc>lat.=43.089401, lon.=19.146534, Alt.=1415.735352m. Speed=21.096001m/h.</desc>
<speed>5.860000</speed>
</trkpt>
<trkpt lat="43.089130" lon="19.146437">
<ele>1415.016602</ele>
<time>2012-05-01T11:50:09Z</time>
<desc>lat.=43.089130, lon.=19.146437, Alt.=1415.016602m. Speed=23.472000m/h.</desc>
<speed>6.520000</speed>
</trkpt>
<trkpt lat="43.088833" lon="19.146326">
<ele>1414.360352</ele>
<time>2012-05-01T11:50:14Z</time>
<desc>lat.=43.088833, lon.=19.146326, Alt.=1414.360352m. Speed=25.848000m/h.</desc>
<speed>7.180000</speed>
</trkpt>
<trkpt lat="43.088516" lon="19.146202">
<ele>1413.454102</ele>
<time>2012-05-01T11:50:19Z</time>
<desc>lat.=43.088516, lon.=19.146202, Alt.=1413.454102m. Speed=26.063999m/h.</desc>
<speed>7.240000</speed>
</trkpt>
<trkpt lat="43.088211" lon="19.146090">
<ele>1413.391602</ele>
<time>2012-05-01T11:50:24Z</time>
<desc>lat.=43.088211, lon.=19.146090, Alt.=1413.391602m. Speed=25.091999m/h.</desc>
<speed>6.970000</speed>
</trkpt>
<trkpt lat="43.087914" lon="19.145977">
<ele>1413.297852</ele>
<time>2012-05-01T11:50:29Z</time>
<desc>lat.=43.087914, lon.=19.145977, Alt.=1413.297852m. Speed=23.580000m/h.</desc>
<speed>6.550000</speed>
</trkpt>
<trkpt lat="43.087669" lon="19.145788">
<ele>1412.610352</ele>
<time>2012-05-01T11:50:34Z</time>
<desc>lat.=43.087669, lon.=19.145788, Alt.=1412.610352m. Speed=21.636000m/h.</desc>
<speed>6.010000</speed>
</trkpt>
<trkpt lat="43.087528" lon="19.145451">
<ele>1411.391602</ele>
<time>2012-05-01T11:50:39Z</time>
<desc>lat.=43.087528, lon.=19.145451, Alt.=1411.391602m. Speed=23.544001m/h.</desc>
<speed>6.540000</speed>
</trkpt>
<trkpt lat="43.087341" lon="19.145176">
<ele>1410.797852</ele>
<time>2012-05-01T11:50:44Z</time>
<desc>lat.=43.087341, lon.=19.145176, Alt.=1410.797852m. Speed=21.959999m/h.</desc>
<speed>6.100000</speed>
</trkpt>
<trkpt lat="43.087074" lon="19.145020">
<ele>1410.329102</ele>
<time>2012-05-01T11:50:49Z</time>
<desc>lat.=43.087074, lon.=19.145020, Alt.=1410.329102m. Speed=24.336000m/h.</desc>
<speed>6.760000</speed>
</trkpt>
<trkpt lat="43.086796" lon="19.144854">
<ele>1410.516602</ele>
<time>2012-05-01T11:50:54Z</time>
<desc>lat.=43.086796, lon.=19.144854, Alt.=1410.516602m. Speed=24.732000m/h.</desc>
<speed>6.870000</speed>
</trkpt>
<trkpt lat="43.086529" lon="19.144707">
<ele>1410.735352</ele>
<time>2012-05-01T11:50:59Z</time>
<desc>lat.=43.086529, lon.=19.144707, Alt.=1410.735352m. Speed=20.591999m/h.</desc>
<speed>5.720000</speed>
</trkpt>
<trkpt lat="43.086311" lon="19.144606">
<ele>1411.016602</ele>
<time>2012-05-01T11:51:04Z</time>
<desc>lat.=43.086311, lon.=19.144606, Alt.=1411.016602m. Speed=15.228000m/h.</desc>
<speed>4.230000</speed>
</trkpt>
<trkpt lat="43.086159" lon="19.144524">
<ele>1411.891602</ele>
<time>2012-05-01T11:51:09Z</time>
<desc>lat.=43.086159, lon.=19.144524, Alt.=1411.891602m. Speed=11.340000m/h.</desc>
<speed>3.150000</speed>
</trkpt>
<trkpt lat="43.085999" lon="19.144464">
<ele>1412.141602</ele>
<time>2012-05-01T11:51:14Z</time>
<desc>lat.=43.085999, lon.=19.144464, Alt.=1412.141602m. Speed=14.760000m/h.</desc>
<speed>4.100000</speed>
</trkpt>
<trkpt lat="43.085819" lon="19.144396">
<ele>1412.797852</ele>
<time>2012-05-01T11:51:19Z</time>
<desc>lat.=43.085819, lon.=19.144396, Alt.=1412.797852m. Speed=14.364000m/h.</desc>
<speed>3.990000</speed>
</trkpt>
<trkpt lat="43.085682" lon="19.144350">
<ele>1413.579102</ele>
<time>2012-05-01T11:51:24Z</time>
<desc>lat.=43.085682, lon.=19.144350, Alt.=1413.579102m. Speed=8.820000m/h.</desc>
<speed>2.450000</speed>
</trkpt>
<trkpt lat="43.085533" lon="19.144300">
<ele>1413.829102</ele>
<time>2012-05-01T11:51:29Z</time>
<desc>lat.=43.085533, lon.=19.144300, Alt.=1413.829102m. Speed=15.480000m/h.</desc>
<speed>4.300000</speed>
</trkpt>
<trkpt lat="43.085384" lon="19.144247">
<ele>1414.266602</ele>
<time>2012-05-01T11:51:34Z</time>
<desc>lat.=43.085384, lon.=19.144247, Alt.=1414.266602m. Speed=11.124000m/h.</desc>
<speed>3.090000</speed>
</trkpt>
<trkpt lat="43.085217" lon="19.144196">
<ele>1415.360352</ele>
<time>2012-05-01T11:51:39Z</time>
<desc>lat.=43.085217, lon.=19.144196, Alt.=1415.360352m. Speed=15.912000m/h.</desc>
<speed>4.420000</speed>
</trkpt>
<trkpt lat="43.085041" lon="19.144136">
<ele>1415.110352</ele>
<time>2012-05-01T11:51:44Z</time>
<desc>lat.=43.085041, lon.=19.144136, Alt.=1415.110352m. Speed=11.448000m/h.</desc>
<speed>3.180000</speed>
</trkpt>
<trkpt lat="43.084904" lon="19.144094">
<ele>1415.579102</ele>
<time>2012-05-01T11:51:49Z</time>
<desc>lat.=43.084904, lon.=19.144094, Alt.=1415.579102m. Speed=9.540000m/h.</desc>
<speed>2.650000</speed>
</trkpt>
<trkpt lat="43.084789" lon="19.144043">
<ele>1416.204102</ele>
<time>2012-05-01T11:51:54Z</time>
<desc>lat.=43.084789, lon.=19.144043, Alt.=1416.204102m. Speed=10.980000m/h.</desc>
<speed>3.050000</speed>
</trkpt>
<trkpt lat="43.084667" lon="19.143976">
<ele>1416.954102</ele>
<time>2012-05-01T11:51:59Z</time>
<desc>lat.=43.084667, lon.=19.143976, Alt.=1416.954102m. Speed=10.836000m/h.</desc>
<speed>3.010000</speed>
</trkpt>
<trkpt lat="43.084572" lon="19.143930">
<ele>1417.766602</ele>
<time>2012-05-01T11:52:04Z</time>
<desc>lat.=43.084572, lon.=19.143930, Alt.=1417.766602m. Speed=7.164000m/h.</desc>
<speed>1.990000</speed>
</trkpt>
<trkpt lat="43.084473" lon="19.143871">
<ele>1418.110352</ele>
<time>2012-05-01T11:52:09Z</time>
<desc>lat.=43.084473, lon.=19.143871, Alt.=1418.110352m. Speed=10.728000m/h.</desc>
<speed>2.980000</speed>
</trkpt>
<trkpt lat="43.084332" lon="19.143806">
<ele>1419.266602</ele>
<time>2012-05-01T11:52:14Z</time>
<desc>lat.=43.084332, lon.=19.143806, Alt.=1419.266602m. Speed=12.312000m/h.</desc>
<speed>3.420000</speed>
</trkpt>
<trkpt lat="43.084179" lon="19.143713">
<ele>1419.672852</ele>
<time>2012-05-01T11:52:19Z</time>
<desc>lat.=43.084179, lon.=19.143713, Alt.=1419.672852m. Speed=12.852000m/h.</desc>
<speed>3.570000</speed>
</trkpt>
<trkpt lat="43.084072" lon="19.143663">
<ele>1420.297852</ele>
<time>2012-05-01T11:52:24Z</time>
<desc>lat.=43.084072, lon.=19.143663, Alt.=1420.297852m. Speed=5.472000m/h.</desc>
<speed>1.520000</speed>
</trkpt>
<trkpt lat="43.083958" lon="19.143600">
<ele>1420.891602</ele>
<time>2012-05-01T11:52:29Z</time>
<desc>lat.=43.083958, lon.=19.143600, Alt.=1420.891602m. Speed=11.664000m/h.</desc>
<speed>3.240000</speed>
</trkpt>
<trkpt lat="43.083824" lon="19.143511">
<ele>1420.985352</ele>
<time>2012-05-01T11:52:34Z</time>
<desc>lat.=43.083824, lon.=19.143511, Alt.=1420.985352m. Speed=11.160000m/h.</desc>
<speed>3.100000</speed>
</trkpt>
<trkpt lat="43.083729" lon="19.143442">
<ele>1421.016602</ele>
<time>2012-05-01T11:52:39Z</time>
<desc>lat.=43.083729, lon.=19.143442, Alt.=1421.016602m. Speed=10.440000m/h.</desc>
<speed>2.900000</speed>
</trkpt>
<trkpt lat="43.083580" lon="19.143379">
<ele>1421.672852</ele>
<time>2012-05-01T11:52:44Z</time>
<desc>lat.=43.083580, lon.=19.143379, Alt.=1421.672852m. Speed=12.960000m/h.</desc>
<speed>3.600000</speed>
</trkpt>
<trkpt lat="43.083389" lon="19.143278">
<ele>1421.735352</ele>
<time>2012-05-01T11:52:49Z</time>
<desc>lat.=43.083389, lon.=19.143278, Alt.=1421.735352m. Speed=14.868000m/h.</desc>
<speed>4.130000</speed>
</trkpt>
<trkpt lat="43.083256" lon="19.143204">
<ele>1422.235352</ele>
<time>2012-05-01T11:52:54Z</time>
<desc>lat.=43.083256, lon.=19.143204, Alt.=1422.235352m. Speed=11.628000m/h.</desc>
<speed>3.230000</speed>
</trkpt>
<trkpt lat="43.083115" lon="19.143135">
<ele>1422.766602</ele>
<time>2012-05-01T11:52:59Z</time>
<desc>lat.=43.083115, lon.=19.143135, Alt.=1422.766602m. Speed=14.652000m/h.</desc>
<speed>4.070000</speed>
</trkpt>
<trkpt lat="43.082924" lon="19.143038">
<ele>1422.610352</ele>
<time>2012-05-01T11:53:04Z</time>
<desc>lat.=43.082924, lon.=19.143038, Alt.=1422.610352m. Speed=15.408000m/h.</desc>
<speed>4.280000</speed>
</trkpt>
<trkpt lat="43.082790" lon="19.142950">
<ele>1423.735352</ele>
<time>2012-05-01T11:53:09Z</time>
<desc>lat.=43.082790, lon.=19.142950, Alt.=1423.735352m. Speed=9.828000m/h.</desc>
<speed>2.730000</speed>
</trkpt>
<trkpt lat="43.082680" lon="19.142891">
<ele>1424.110352</ele>
<time>2012-05-01T11:53:14Z</time>
<desc>lat.=43.082680, lon.=19.142891, Alt.=1424.110352m. Speed=11.340000m/h.</desc>
<speed>3.150000</speed>
</trkpt>
<trkpt lat="43.082531" lon="19.142822">
<ele>1423.891602</ele>
<time>2012-05-01T11:53:19Z</time>
<desc>lat.=43.082531, lon.=19.142822, Alt.=1423.891602m. Speed=13.680000m/h.</desc>
<speed>3.800000</speed>
</trkpt>
<trkpt lat="43.082367" lon="19.142733">
<ele>1424.704102</ele>
<time>2012-05-01T11:53:24Z</time>
<desc>lat.=43.082367, lon.=19.142733, Alt.=1424.704102m. Speed=14.292000m/h.</desc>
<speed>3.970000</speed>
</trkpt>
<trkpt lat="43.082233" lon="19.142641">
<ele>1424.485352</ele>
<time>2012-05-01T11:53:29Z</time>
<desc>lat.=43.082233, lon.=19.142641, Alt.=1424.485352m. Speed=9.036000m/h.</desc>
<speed>2.510000</speed>
</trkpt>
<trkpt lat="43.082081" lon="19.142559">
<ele>1424.579102</ele>
<time>2012-05-01T11:53:34Z</time>
<desc>lat.=43.082081, lon.=19.142559, Alt.=1424.579102m. Speed=16.164000m/h.</desc>
<speed>4.490000</speed>
</trkpt>
<trkpt lat="43.081875" lon="19.142448">
<ele>1424.579102</ele>
<time>2012-05-01T11:53:39Z</time>
<desc>lat.=43.081875, lon.=19.142448, Alt.=1424.579102m. Speed=19.332001m/h.</desc>
<speed>5.370000</speed>
</trkpt>
<trkpt lat="43.081646" lon="19.142326">
<ele>1425.110352</ele>
<time>2012-05-01T11:53:44Z</time>
<desc>lat.=43.081646, lon.=19.142326, Alt.=1425.110352m. Speed=20.664000m/h.</desc>
<speed>5.740000</speed>
</trkpt>
<trkpt lat="43.081444" lon="19.142212">
<ele>1426.485352</ele>
<time>2012-05-01T11:53:49Z</time>
<desc>lat.=43.081444, lon.=19.142212, Alt.=1426.485352m. Speed=16.488001m/h.</desc>
<speed>4.580000</speed>
</trkpt>
<trkpt lat="43.081219" lon="19.142082">
<ele>1426.454102</ele>
<time>2012-05-01T11:53:54Z</time>
<desc>lat.=43.081219, lon.=19.142082, Alt.=1426.454102m. Speed=20.160000m/h.</desc>
<speed>5.600000</speed>
</trkpt>
<trkpt lat="43.081009" lon="19.141987">
<ele>1426.860352</ele>
<time>2012-05-01T11:53:59Z</time>
<desc>lat.=43.081009, lon.=19.141987, Alt.=1426.860352m. Speed=16.596001m/h.</desc>
<speed>4.610000</speed>
</trkpt>
<trkpt lat="43.080837" lon="19.141870">
<ele>1427.235352</ele>
<time>2012-05-01T11:54:04Z</time>
<desc>lat.=43.080837, lon.=19.141870, Alt.=1427.235352m. Speed=15.192000m/h.</desc>
<speed>4.220000</speed>
</trkpt>
<trkpt lat="43.080662" lon="19.141769">
<ele>1427.235352</ele>
<time>2012-05-01T11:54:09Z</time>
<desc>lat.=43.080662, lon.=19.141769, Alt.=1427.235352m. Speed=14.472000m/h.</desc>
<speed>4.020000</speed>
</trkpt>
<trkpt lat="43.080521" lon="19.141687">
<ele>1427.047852</ele>
<time>2012-05-01T11:54:14Z</time>
<desc>lat.=43.080521, lon.=19.141687, Alt.=1427.047852m. Speed=10.692000m/h.</desc>
<speed>2.970000</speed>
</trkpt>
<trkpt lat="43.080437" lon="19.141590">
<ele>1427.079102</ele>
<time>2012-05-01T11:54:19Z</time>
<desc>lat.=43.080437, lon.=19.141590, Alt.=1427.079102m. Speed=7.884000m/h.</desc>
<speed>2.190000</speed>
</trkpt>
<trkpt lat="43.080402" lon="19.141481">
<ele>1427.391602</ele>
<time>2012-05-01T11:54:24Z</time>
<desc>lat.=43.080402, lon.=19.141481, Alt.=1427.391602m. Speed=4.716000m/h.</desc>
<speed>1.310000</speed>
</trkpt>
<trkpt lat="43.080402" lon="19.141476">
<ele>1428.079102</ele>
<time>2012-05-01T11:54:29Z</time>
<desc>lat.=43.080402, lon.=19.141476, Alt.=1428.079102m. Speed=0.216000m/h.</desc>
<speed>0.060000</speed>
</trkpt>
<trkpt lat="43.080402" lon="19.141476">
<ele>1428.079102</ele>
<time>2012-05-01T11:54:34Z</time>
<desc>lat.=43.080402, lon.=19.141476, Alt.=1428.079102m. Speed=0.036000m/h.</desc>
<speed>0.010000</speed>
</trkpt>
<trkpt lat="43.080402" lon="19.141476">
<ele>1428.079102</ele>
<time>2012-05-01T11:54:39Z</time>
<desc>lat.=43.080402, lon.=19.141476, Alt.=1428.079102m. Speed=0.000000m/h.</desc>
<speed>0.000000</speed>
</trkpt>
<trkpt lat="43.080402" lon="19.141476">
<ele>1428.079102</ele>
<time>2012-05-01T11:54:44Z</time>
<desc>lat.=43.080402, lon.=19.141476, Alt.=1428.079102m. Speed=0.000000m/h.</desc>
<speed>0.000000</speed>
</trkpt>
<trkpt lat="43.080402" lon="19.141476">
<ele>1428.079102</ele>
<time>2012-05-01T11:54:49Z</time>
<desc>lat.=43.080402, lon.=19.141476, Alt.=1428.079102m. Speed=0.000000m/h.</desc>
<speed>0.000000</speed>
</trkpt>
<trkpt lat="43.080402" lon="19.141476">
<ele>1428.079102</ele>
<time>2012-05-01T11:54:54Z</time>
<desc>lat.=43.080402, lon.=19.141476, Alt.=1428.079102m. Speed=0.000000m/h.</desc>
<speed>0.000000</speed>
</trkpt>
<trkpt lat="43.080402" lon="19.141476">
<ele>1428.079102</ele>
<time>2012-05-01T11:54:59Z</time>
<desc>lat.=43.080402, lon.=19.141476, Alt.=1428.079102m. Speed=0.036000m/h.</desc>
<speed>0.010000</speed>
</trkpt>
<trkpt lat="43.080402" lon="19.141476">
<ele>1428.079102</ele>
<time>2012-05-01T11:55:04Z</time>
<desc>lat.=43.080402, lon.=19.141476, Alt.=1428.079102m. Speed=0.000000m/h.</desc>
<speed>0.000000</speed>
</trkpt>
<trkpt lat="43.080402" lon="19.141476">
<ele>1428.079102</ele>
<time>2012-05-01T11:55:09Z</time>
<desc>lat.=43.080402, lon.=19.141476, Alt.=1428.079102m. Speed=0.000000m/h.</desc>
<speed>0.000000</speed>
</trkpt>
<trkpt lat="43.080402" lon="19.141476">
<ele>1428.079102</ele>
<time>2012-05-01T11:55:14Z</time>
<desc>lat.=43.080402, lon.=19.141476, Alt.=1428.079102m. Speed=0.144000m/h.</desc>
<speed>0.040000</speed>
</trkpt>
<trkpt lat="43.080402" lon="19.141476">
<ele>1428.079102</ele>
<time>2012-05-01T11:55:19Z</time>
<desc>lat.=43.080402, lon.=19.141476, Alt.=1428.079102m. Speed=0.144000m/h.</desc>
<speed>0.040000</speed>
</trkpt>
<trkpt lat="43.080402" lon="19.141476">
<ele>1428.047852</ele>
<time>2012-05-01T11:55:24Z</time>
<desc>lat.=43.080402, lon.=19.141476, Alt.=1428.047852m. Speed=0.000000m/h.</desc>
<speed>0.000000</speed>
</trkpt>
<trkpt lat="43.080402" lon="19.141476">
<ele>1428.079102</ele>
<time>2012-05-01T11:55:29Z</time>
<desc>lat.=43.080402, lon.=19.141476, Alt.=1428.079102m. Speed=0.036000m/h.</desc>
<speed>0.010000</speed>
</trkpt>
<trkpt lat="43.080402" lon="19.141476">
<ele>1428.079102</ele>
<time>2012-05-01T11:55:34Z</time>
<desc>lat.=43.080402, lon.=19.141476, Alt.=1428.079102m. Speed=0.000000m/h.</desc>
<speed>0.000000</speed>
</trkpt>
<trkpt lat="43.080402" lon="19.141476">
<ele>1428.110352</ele>
<time>2012-05-01T11:55:39Z</time>
<desc>lat.=43.080402, lon.=19.141476, Alt.=1428.110352m. Speed=0.072000m/h.</desc>
<speed>0.020000</speed>
</trkpt>
<trkpt lat="43.080402" lon="19.141476">
<ele>1428.141602</ele>
<time>2012-05-01T11:55:44Z</time>
<desc>lat.=43.080402, lon.=19.141476, Alt.=1428.141602m. Speed=0.000000m/h.</desc>
<speed>0.000000</speed>
</trkpt>
<trkpt lat="43.080402" lon="19.141476">
<ele>1428.172852</ele>
<time>2012-05-01T11:55:49Z</time>
<desc>lat.=43.080402, lon.=19.141476, Alt.=1428.172852m. Speed=0.000000m/h.</desc>
<speed>0.000000</speed>
</trkpt>
<trkpt lat="43.080402" lon="19.141476">
<ele>1428.172852</ele>
<time>2012-05-01T11:55:54Z</time>
<desc>lat.=43.080402, lon.=19.141476, Alt.=1428.172852m. Speed=0.036000m/h.</desc>
<speed>0.010000</speed>
</trkpt>
<trkpt lat="43.080402" lon="19.141476">
<ele>1428.204102</ele>
<time>2012-05-01T11:55:59Z</time>
<desc>lat.=43.080402, lon.=19.141476, Alt.=1428.204102m. Speed=0.000000m/h.</desc>
<speed>0.000000</speed>
</trkpt>
<trkpt lat="43.080402" lon="19.141476">
<ele>1428.235352</ele>
<time>2012-05-01T11:56:04Z</time>
<desc>lat.=43.080402, lon.=19.141476, Alt.=1428.235352m. Speed=0.144000m/h.</desc>
<speed>0.040000</speed>
</trkpt>
<trkpt lat="43.080399" lon="19.141449">
<ele>1428.266602</ele>
<time>2012-05-01T11:56:09Z</time>
<desc>lat.=43.080399, lon.=19.141449, Alt.=1428.266602m. Speed=5.832000m/h.</desc>
<speed>1.620000</speed>
</trkpt>
<trkpt lat="43.080391" lon="19.141367">
<ele>1429.141602</ele>
<time>2012-05-01T11:56:14Z</time>
<desc>lat.=43.080391, lon.=19.141367, Alt.=1429.141602m. Speed=4.752000m/h.</desc>
<speed>1.320000</speed>
</trkpt>
<trkpt lat="43.080433" lon="19.141273">
<ele>1431.485352</ele>
<time>2012-05-01T11:56:19Z</time>
<desc>lat.=43.080433, lon.=19.141273, Alt.=1431.485352m. Speed=6.264000m/h.</desc>
<speed>1.740000</speed>
</trkpt>
<trkpt lat="43.080555" lon="19.141144">
<ele>1431.985352</ele>
<time>2012-05-01T11:56:24Z</time>
<desc>lat.=43.080555, lon.=19.141144, Alt.=1431.985352m. Speed=15.336000m/h.</desc>
<speed>4.260000</speed>
</trkpt>
<trkpt lat="43.080730" lon="19.140966">
<ele>1433.391602</ele>
<time>2012-05-01T11:56:29Z</time>
<desc>lat.=43.080730, lon.=19.140966, Alt.=1433.391602m. Speed=17.639999m/h.</desc>
<speed>4.900000</speed>
</trkpt>
<trkpt lat="43.080906" lon="19.140804">
<ele>1434.266602</ele>
<time>2012-05-01T11:56:34Z</time>
<desc>lat.=43.080906, lon.=19.140804, Alt.=1434.266602m. Speed=15.372000m/h.</desc>
<speed>4.270000</speed>
</trkpt>
<trkpt lat="43.081085" lon="19.140654">
<ele>1435.579102</ele>
<time>2012-05-01T11:56:39Z</time>
<desc>lat.=43.081085, lon.=19.140654, Alt.=1435.579102m. Speed=18.108000m/h.</desc>
<speed>5.030000</speed>
</trkpt>
<trkpt lat="43.081284" lon="19.140451">
<ele>1434.891602</ele>
<time>2012-05-01T11:56:44Z</time>
<desc>lat.=43.081284, lon.=19.140451, Alt.=1434.891602m. Speed=20.087999m/h.</desc>
<speed>5.580000</speed>
</trkpt>
<trkpt lat="43.081509" lon="19.140230">
<ele>1433.860352</ele>
<time>2012-05-01T11:56:49Z</time>
<desc>lat.=43.081509, lon.=19.140230, Alt.=1433.860352m. Speed=24.587999m/h.</desc>
<speed>6.830000</speed>
</trkpt>
<trkpt lat="43.081791" lon="19.139956">
<ele>1433.172852</ele>
<time>2012-05-01T11:56:54Z</time>
<desc>lat.=43.081791, lon.=19.139956, Alt.=1433.172852m. Speed=30.312000m/h.</desc>
<speed>8.420000</speed>
</trkpt>
<trkpt lat="43.082127" lon="19.139612">
<ele>1431.360352</ele>
<time>2012-05-01T11:56:59Z</time>
<desc>lat.=43.082127, lon.=19.139612, Alt.=1431.360352m. Speed=35.243999m/h.</desc>
<speed>9.790000</speed>
</trkpt>
<trkpt lat="43.082470" lon="19.139278">
<ele>1431.641602</ele>
<time>2012-05-01T11:57:04Z</time>
<desc>lat.=43.082470, lon.=19.139278, Alt.=1431.641602m. Speed=31.896000m/h.</desc>
<speed>8.860000</speed>
</trkpt>
<trkpt lat="43.082787" lon="19.138964">
<ele>1432.641602</ele>
<time>2012-05-01T11:57:09Z</time>
<desc>lat.=43.082787, lon.=19.138964, Alt.=1432.641602m. Speed=30.816000m/h.</desc>
<speed>8.560000</speed>
</trkpt>
<trkpt lat="43.083107" lon="19.138622">
<ele>1430.797852</ele>
<time>2012-05-01T11:57:14Z</time>
<desc>lat.=43.083107, lon.=19.138622, Alt.=1430.797852m. Speed=34.740002m/h.</desc>
<speed>9.650000</speed>
</trkpt>
<trkpt lat="43.083473" lon="19.138245">
<ele>1431.610352</ele>
<time>2012-05-01T11:57:19Z</time>
<desc>lat.=43.083473, lon.=19.138245, Alt.=1431.610352m. Speed=36.360001m/h.</desc>
<speed>10.100000</speed>
</trkpt>
<trkpt lat="43.083847" lon="19.137859">
<ele>1430.610352</ele>
<time>2012-05-01T11:57:24Z</time>
<desc>lat.=43.083847, lon.=19.137859, Alt.=1430.610352m. Speed=38.591999m/h.</desc>
<speed>10.720000</speed>
</trkpt>
<trkpt lat="43.084267" lon="19.137503">
<ele>1430.141602</ele>
<time>2012-05-01T11:57:29Z</time>
<desc>lat.=43.084267, lon.=19.137503, Alt.=1430.141602m. Speed=40.175999m/h.</desc>
<speed>11.160000</speed>
</trkpt>
<trkpt lat="43.084717" lon="19.137266">
<ele>1430.391602</ele>
<time>2012-05-01T11:57:34Z</time>
<desc>lat.=43.084717, lon.=19.137266, Alt.=1430.391602m. Speed=37.476002m/h.</desc>
<speed>10.410000</speed>
</trkpt>
<trkpt lat="43.085125" lon="19.137112">
<ele>1432.110352</ele>
<time>2012-05-01T11:57:39Z</time>
<desc>lat.=43.085125, lon.=19.137112, Alt.=1432.110352m. Speed=31.643999m/h.</desc>
<speed>8.790000</speed>
</trkpt>
<trkpt lat="43.085468" lon="19.136957">
<ele>1434.547852</ele>
<time>2012-05-01T11:57:44Z</time>
<desc>lat.=43.085468, lon.=19.136957, Alt.=1434.547852m. Speed=27.323999m/h.</desc>
<speed>7.590000</speed>
</trkpt>
<trkpt lat="43.085739" lon="19.136824">
<ele>1435.391602</ele>
<time>2012-05-01T11:57:49Z</time>
<desc>lat.=43.085739, lon.=19.136824, Alt.=1435.391602m. Speed=20.520000m/h.</desc>
<speed>5.700000</speed>
</trkpt>
<trkpt lat="43.085945" lon="19.136749">
<ele>1437.266602</ele>
<time>2012-05-01T11:57:54Z</time>
<desc>lat.=43.085945, lon.=19.136749, Alt.=1437.266602m. Speed=17.063999m/h.</desc>
<speed>4.740000</speed>
</trkpt>
<trkpt lat="43.086128" lon="19.136658">
<ele>1437.829102</ele>
<time>2012-05-01T11:57:59Z</time>
<desc>lat.=43.086128, lon.=19.136658, Alt.=1437.829102m. Speed=12.924000m/h.</desc>
<speed>3.590000</speed>
</trkpt>
<trkpt lat="43.086250" lon="19.136578">
<ele>1437.797852</ele>
<time>2012-05-01T11:58:04Z</time>
<desc>lat.=43.086250, lon.=19.136578, Alt.=1437.797852m. Speed=5.328000m/h.</desc>
<speed>1.480000</speed>
</trkpt>
<trkpt lat="43.086262" lon="19.136581">
<ele>1439.172852</ele>
<time>2012-05-01T11:58:09Z</time>
<desc>lat.=43.086262, lon.=19.136581, Alt.=1439.172852m. Speed=0.144000m/h.</desc>
<speed>0.040000</speed>
</trkpt>
<trkpt lat="43.086262" lon="19.136581">
<ele>1439.172852</ele>
<time>2012-05-01T11:58:14Z</time>
<desc>lat.=43.086262, lon.=19.136581, Alt.=1439.172852m. Speed=0.072000m/h.</desc>
<speed>0.020000</speed>
</trkpt>
<trkpt lat="43.086327" lon="19.136541">
<ele>1438.204102</ele>
<time>2012-05-01T11:58:19Z</time>
<desc>lat.=43.086327, lon.=19.136541, Alt.=1438.204102m. Speed=12.996000m/h.</desc>
<speed>3.610000</speed>
</trkpt>
<trkpt lat="43.086514" lon="19.136391">
<ele>1437.547852</ele>
<time>2012-05-01T11:58:24Z</time>
<desc>lat.=43.086514, lon.=19.136391, Alt.=1437.547852m. Speed=19.908001m/h.</desc>
<speed>5.530000</speed>
</trkpt>
<trkpt lat="43.086773" lon="19.136166">
<ele>1438.016602</ele>
<time>2012-05-01T11:58:29Z</time>
<desc>lat.=43.086773, lon.=19.136166, Alt.=1438.016602m. Speed=26.100000m/h.</desc>
<speed>7.250000</speed>
</trkpt>
<trkpt lat="43.087040" lon="19.135944">
<ele>1438.860352</ele>
<time>2012-05-01T11:58:34Z</time>
<desc>lat.=43.087040, lon.=19.135944, Alt.=1438.860352m. Speed=21.996000m/h.</desc>
<speed>6.110000</speed>
</trkpt>
<trkpt lat="43.087257" lon="19.135771">
<ele>1438.079102</ele>
<time>2012-05-01T11:58:39Z</time>
<desc>lat.=43.087257, lon.=19.135771, Alt.=1438.079102m. Speed=21.420000m/h.</desc>
<speed>5.950000</speed>
</trkpt>
<trkpt lat="43.087471" lon="19.135599">
<ele>1437.172852</ele>
<time>2012-05-01T11:58:44Z</time>
<desc>lat.=43.087471, lon.=19.135599, Alt.=1437.172852m. Speed=19.944000m/h.</desc>
<speed>5.540000</speed>
</trkpt>
<trkpt lat="43.087700" lon="19.135418">
<ele>1436.704102</ele>
<time>2012-05-01T11:58:49Z</time>
<desc>lat.=43.087700, lon.=19.135418, Alt.=1436.704102m. Speed=21.636000m/h.</desc>
<speed>6.010000</speed>
</trkpt>
<trkpt lat="43.087940" lon="19.135227">
<ele>1437.766602</ele>
<time>2012-05-01T11:58:54Z</time>
<desc>lat.=43.087940, lon.=19.135227, Alt.=1437.766602m. Speed=21.708000m/h.</desc>
<speed>6.030000</speed>
</trkpt>
<trkpt lat="43.088196" lon="19.135023">
<ele>1438.766602</ele>
<time>2012-05-01T11:58:59Z</time>
<desc>lat.=43.088196, lon.=19.135023, Alt.=1438.766602m. Speed=22.823999m/h.</desc>
<speed>6.340000</speed>
</trkpt>
<trkpt lat="43.088455" lon="19.134821">
<ele>1440.141602</ele>
<time>2012-05-01T11:59:04Z</time>
<desc>lat.=43.088455, lon.=19.134821, Alt.=1440.141602m. Speed=22.212000m/h.</desc>
<speed>6.170000</speed>
</trkpt>
<trkpt lat="43.088688" lon="19.134621">
<ele>1441.485352</ele>
<time>2012-05-01T11:59:09Z</time>
<desc>lat.=43.088688, lon.=19.134621, Alt.=1441.485352m. Speed=22.392000m/h.</desc>
<speed>6.220000</speed>
</trkpt>
<trkpt lat="43.088943" lon="19.134434">
<ele>1442.891602</ele>
<time>2012-05-01T11:59:14Z</time>
<desc>lat.=43.088943, lon.=19.134434, Alt.=1442.891602m. Speed=22.247999m/h.</desc>
<speed>6.180000</speed>
</trkpt>
<trkpt lat="43.089195" lon="19.134243">
<ele>1443.797852</ele>
<time>2012-05-01T11:59:19Z</time>
<desc>lat.=43.089195, lon.=19.134243, Alt.=1443.797852m. Speed=22.680000m/h.</desc>
<speed>6.300000</speed>
</trkpt>
<trkpt lat="43.089428" lon="19.134039">
<ele>1445.079102</ele>
<time>2012-05-01T11:59:24Z</time>
<desc>lat.=43.089428, lon.=19.134039, Alt.=1445.079102m. Speed=21.420000m/h.</desc>
<speed>5.950000</speed>
</trkpt>
<trkpt lat="43.089668" lon="19.133844">
<ele>1445.141602</ele>
<time>2012-05-01T11:59:29Z</time>
<desc>lat.=43.089668, lon.=19.133844, Alt.=1445.141602m. Speed=24.299999m/h.</desc>
<speed>6.750000</speed>
</trkpt>
<trkpt lat="43.089951" lon="19.133621">
<ele>1445.891602</ele>
<time>2012-05-01T11:59:34Z</time>
<desc>lat.=43.089951, lon.=19.133621, Alt.=1445.891602m. Speed=25.091999m/h.</desc>
<speed>6.970000</speed>
</trkpt>
<trkpt lat="43.090229" lon="19.133404">
<ele>1446.672852</ele>
<time>2012-05-01T11:59:39Z</time>
<desc>lat.=43.090229, lon.=19.133404, Alt.=1446.672852m. Speed=24.552000m/h.</desc>
<speed>6.820000</speed>
</trkpt>
<trkpt lat="43.090485" lon="19.133204">
<ele>1447.297852</ele>
<time>2012-05-01T11:59:44Z</time>
<desc>lat.=43.090485, lon.=19.133204, Alt.=1447.297852m. Speed=24.768000m/h.</desc>
<speed>6.880000</speed>
</trkpt>
<trkpt lat="43.090748" lon="19.132996">
<ele>1447.047852</ele>
<time>2012-05-01T11:59:49Z</time>
<desc>lat.=43.090748, lon.=19.132996, Alt.=1447.047852m. Speed=25.091999m/h.</desc>
<speed>6.970000</speed>
</trkpt>
<trkpt lat="43.091007" lon="19.132795">
<ele>1446.391602</ele>
<time>2012-05-01T11:59:54Z</time>
<desc>lat.=43.091007, lon.=19.132795, Alt.=1446.391602m. Speed=23.256001m/h.</desc>
<speed>6.460000</speed>
</trkpt>
<trkpt lat="43.091232" lon="19.132608">
<ele>1445.829102</ele>
<time>2012-05-01T11:59:59Z</time>
<desc>lat.=43.091232, lon.=19.132608, Alt.=1445.829102m. Speed=21.024000m/h.</desc>
<speed>5.840000</speed>
</trkpt>
<trkpt lat="43.091454" lon="19.132448">
<ele>1446.235352</ele>
<time>2012-05-01T12:00:04Z</time>
<desc>lat.=43.091454, lon.=19.132448, Alt.=1446.235352m. Speed=20.340000m/h.</desc>
<speed>5.650000</speed>
</trkpt>
<trkpt lat="43.091675" lon="19.132257">
<ele>1448.360352</ele>
<time>2012-05-01T12:00:09Z</time>
<desc>lat.=43.091675, lon.=19.132257, Alt.=1448.360352m. Speed=20.483999m/h.</desc>
<speed>5.690000</speed>
</trkpt>
<trkpt lat="43.091881" lon="19.132086">
<ele>1449.860352</ele>
<time>2012-05-01T12:00:14Z</time>
<desc>lat.=43.091881, lon.=19.132086, Alt.=1449.860352m. Speed=17.712000m/h.</desc>
<speed>4.920000</speed>
</trkpt>
<trkpt lat="43.092075" lon="19.131943">
<ele>1449.641602</ele>
<time>2012-05-01T12:00:19Z</time>
<desc>lat.=43.092075, lon.=19.131943, Alt.=1449.641602m. Speed=19.476000m/h.</desc>
<speed>5.410000</speed>
</trkpt>
<trkpt lat="43.092270" lon="19.131786">
<ele>1450.454102</ele>
<time>2012-05-01T12:00:24Z</time>
<desc>lat.=43.092270, lon.=19.131786, Alt.=1450.454102m. Speed=18.143999m/h.</desc>
<speed>5.040000</speed>
</trkpt>
<trkpt lat="43.092472" lon="19.131643">
<ele>1452.204102</ele>
<time>2012-05-01T12:00:29Z</time>
<desc>lat.=43.092472, lon.=19.131643, Alt.=1452.204102m. Speed=17.892000m/h.</desc>
<speed>4.970000</speed>
</trkpt>
<trkpt lat="43.092667" lon="19.131479">
<ele>1452.641602</ele>
<time>2012-05-01T12:00:34Z</time>
<desc>lat.=43.092667, lon.=19.131479, Alt.=1452.641602m. Speed=16.200001m/h.</desc>
<speed>4.500000</speed>
</trkpt>
<trkpt lat="43.092819" lon="19.131283">
<ele>1453.704102</ele>
<time>2012-05-01T12:00:39Z</time>
<desc>lat.=43.092819, lon.=19.131283, Alt.=1453.704102m. Speed=17.424000m/h.</desc>
<speed>4.840000</speed>
</trkpt>
<trkpt lat="43.092926" lon="19.131052">
<ele>1454.360352</ele>
<time>2012-05-01T12:00:44Z</time>
<desc>lat.=43.092926, lon.=19.131052, Alt.=1454.360352m. Speed=17.208000m/h.</desc>
<speed>4.780000</speed>
</trkpt>
<trkpt lat="43.093063" lon="19.130772">
<ele>1452.422852</ele>
<time>2012-05-01T12:00:49Z</time>
<desc>lat.=43.093063, lon.=19.130772, Alt.=1452.422852m. Speed=23.507999m/h.</desc>
<speed>6.530000</speed>
</trkpt>
<trkpt lat="43.093243" lon="19.130363">
<ele>1450.797852</ele>
<time>2012-05-01T12:00:54Z</time>
<desc>lat.=43.093243, lon.=19.130363, Alt.=1450.797852m. Speed=29.556000m/h.</desc>
<speed>8.210000</speed>
</trkpt>
<trkpt lat="43.093586" lon="19.130087">
<ele>1449.360352</ele>
<time>2012-05-01T12:00:59Z</time>
<desc>lat.=43.093586, lon.=19.130087, Alt.=1449.360352m. Speed=35.352001m/h.</desc>
<speed>9.820000</speed>
</trkpt>
<trkpt lat="43.094036" lon="19.129984">
<ele>1450.204102</ele>
<time>2012-05-01T12:01:04Z</time>
<desc>lat.=43.094036, lon.=19.129984, Alt.=1450.204102m. Speed=36.180000m/h.</desc>
<speed>10.050000</speed>
</trkpt>
<trkpt lat="43.094452" lon="19.129908">
<ele>1451.141602</ele>
<time>2012-05-01T12:01:09Z</time>
<desc>lat.=43.094452, lon.=19.129908, Alt.=1451.141602m. Speed=29.988001m/h.</desc>
<speed>8.330000</speed>
</trkpt>
<trkpt lat="43.094810" lon="19.129848">
<ele>1452.110352</ele>
<time>2012-05-01T12:01:14Z</time>
<desc>lat.=43.094810, lon.=19.129848, Alt.=1452.110352m. Speed=28.836000m/h.</desc>
<speed>8.010000</speed>
</trkpt>
<trkpt lat="43.095154" lon="19.129898">
<ele>1451.079102</ele>
<time>2012-05-01T12:01:19Z</time>
<desc>lat.=43.095154, lon.=19.129898, Alt.=1451.079102m. Speed=26.820000m/h.</desc>
<speed>7.450000</speed>
</trkpt>
<trkpt lat="43.095474" lon="19.130011">
<ele>1450.610352</ele>
<time>2012-05-01T12:01:24Z</time>
<desc>lat.=43.095474, lon.=19.130011, Alt.=1450.610352m. Speed=26.316000m/h.</desc>
<speed>7.310000</speed>
</trkpt>
<trkpt lat="43.095837" lon="19.130140">
<ele>1448.204102</ele>
<time>2012-05-01T12:01:29Z</time>
<desc>lat.=43.095837, lon.=19.130140, Alt.=1448.204102m. Speed=31.643999m/h.</desc>
<speed>8.790000</speed>
</trkpt>
<trkpt lat="43.096256" lon="19.130337">
<ele>1445.422852</ele>
<time>2012-05-01T12:01:34Z</time>
<desc>lat.=43.096256, lon.=19.130337, Alt.=1445.422852m. Speed=39.096001m/h.</desc>
<speed>10.860000</speed>
</trkpt>
<trkpt lat="43.096699" lon="19.130722">
<ele>1443.891602</ele>
<time>2012-05-01T12:01:39Z</time>
<desc>lat.=43.096699, lon.=19.130722, Alt.=1443.891602m. Speed=42.984001m/h.</desc>
<speed>11.940000</speed>
</trkpt>
<trkpt lat="43.097221" lon="19.130871">
<ele>1443.266602</ele>
<time>2012-05-01T12:01:44Z</time>
<desc>lat.=43.097221, lon.=19.130871, Alt.=1443.266602m. Speed=41.112000m/h.</desc>
<speed>11.420000</speed>
</trkpt>
<trkpt lat="43.097694" lon="19.130911">
<ele>1444.297852</ele>
<time>2012-05-01T12:01:49Z</time>
<desc>lat.=43.097694, lon.=19.130911, Alt.=1444.297852m. Speed=34.523998m/h.</desc>
<speed>9.590000</speed>
</trkpt>
<trkpt lat="43.098114" lon="19.130959">
<ele>1444.516602</ele>
<time>2012-05-01T12:01:54Z</time>
<desc>lat.=43.098114, lon.=19.130959, Alt.=1444.516602m. Speed=32.580002m/h.</desc>
<speed>9.050001</speed>
</trkpt>
<trkpt lat="43.098499" lon="19.131002">
<ele>1445.454102</ele>
<time>2012-05-01T12:01:59Z</time>
<desc>lat.=43.098499, lon.=19.131002, Alt.=1445.454102m. Speed=29.556000m/h.</desc>
<speed>8.210000</speed>
</trkpt>
<trkpt lat="43.098820" lon="19.130962">
<ele>1445.985352</ele>
<time>2012-05-01T12:02:04Z</time>
<desc>lat.=43.098820, lon.=19.130962, Alt.=1445.985352m. Speed=25.848000m/h.</desc>
<speed>7.180000</speed>
</trkpt>
<trkpt lat="43.099125" lon="19.130819">
<ele>1445.672852</ele>
<time>2012-05-01T12:02:09Z</time>
<desc>lat.=43.099125, lon.=19.130819, Alt.=1445.672852m. Speed=26.496000m/h.</desc>
<speed>7.360000</speed>
</trkpt>
<trkpt lat="43.099438" lon="19.130653">
<ele>1444.360352</ele>
<time>2012-05-01T12:02:14Z</time>
<desc>lat.=43.099438, lon.=19.130653, Alt.=1444.360352m. Speed=28.476000m/h.</desc>
<speed>7.910000</speed>
</trkpt>
<trkpt lat="43.099800" lon="19.130512">
<ele>1442.110352</ele>
<time>2012-05-01T12:02:19Z</time>
<desc>lat.=43.099800, lon.=19.130512, Alt.=1442.110352m. Speed=34.200001m/h.</desc>
<speed>9.500000</speed>
</trkpt>
<trkpt lat="43.100277" lon="19.130491">
<ele>1439.610352</ele>
<time>2012-05-01T12:02:24Z</time>
<desc>lat.=43.100277, lon.=19.130491, Alt.=1439.610352m. Speed=40.175999m/h.</desc>
<speed>11.160000</speed>
</trkpt>
<trkpt lat="43.100807" lon="19.130499">
<ele>1436.735352</ele>
<time>2012-05-01T12:02:29Z</time>
<desc>lat.=43.100807, lon.=19.130499, Alt.=1436.735352m. Speed=44.639999m/h.</desc>
<speed>12.400000</speed>
</trkpt>
<trkpt lat="43.101376" lon="19.130476">
<ele>1434.766602</ele>
<time>2012-05-01T12:02:34Z</time>
<desc>lat.=43.101376, lon.=19.130476, Alt.=1434.766602m. Speed=44.063999m/h.</desc>
<speed>12.240000</speed>
</trkpt>
<trkpt lat="43.101864" lon="19.130238">
<ele>1434.110352</ele>
<time>2012-05-01T12:02:39Z</time>
<desc>lat.=43.101864, lon.=19.130238, Alt.=1434.110352m. Speed=38.880001m/h.</desc>
<speed>10.800000</speed>
</trkpt>
<trkpt lat="43.102276" lon="19.129948">
<ele>1433.422852</ele>
<time>2012-05-01T12:02:44Z</time>
<desc>lat.=43.102276, lon.=19.129948, Alt.=1433.422852m. Speed=34.236000m/h.</desc>
<speed>9.510000</speed>
</trkpt>
<trkpt lat="43.102627" lon="19.129686">
<ele>1433.141602</ele>
<time>2012-05-01T12:02:49Z</time>
<desc>lat.=43.102627, lon.=19.129686, Alt.=1433.141602m. Speed=29.195999m/h.</desc>
<speed>8.110000</speed>
</trkpt>
<trkpt lat="43.102913" lon="19.129395">
<ele>1432.547852</ele>
<time>2012-05-01T12:02:54Z</time>
<desc>lat.=43.102913, lon.=19.129395, Alt.=1432.547852m. Speed=28.656000m/h.</desc>
<speed>7.960000</speed>
</trkpt>
<trkpt lat="43.103157" lon="19.128984">
<ele>1431.829102</ele>
<time>2012-05-01T12:02:59Z</time>
<desc>lat.=43.103157, lon.=19.128984, Alt.=1431.829102m. Speed=32.112000m/h.</desc>
<speed>8.920000</speed>
</trkpt>
<trkpt lat="43.103394" lon="19.128555">
<ele>1431.079102</ele>
<time>2012-05-01T12:03:04Z</time>
<desc>lat.=43.103394, lon.=19.128555, Alt.=1431.079102m. Speed=32.759998m/h.</desc>
<speed>9.100000</speed>
</trkpt>
<trkpt lat="43.103622" lon="19.128096">
<ele>1432.204102</ele>
<time>2012-05-01T12:03:09Z</time>
<desc>lat.=43.103622, lon.=19.128096, Alt.=1432.204102m. Speed=30.096001m/h.</desc>
<speed>8.360000</speed>
</trkpt>
<trkpt lat="43.103786" lon="19.127699">
<ele>1432.860352</ele>
<time>2012-05-01T12:03:14Z</time>
<desc>lat.=43.103786, lon.=19.127699, Alt.=1432.860352m. Speed=21.672001m/h.</desc>
<speed>6.020000</speed>
</trkpt>
<trkpt lat="43.103878" lon="19.127415">
<ele>1433.672852</ele>
<time>2012-05-01T12:03:19Z</time>
<desc>lat.=43.103878, lon.=19.127415, Alt.=1433.672852m. Speed=17.459999m/h.</desc>
<speed>4.850000</speed>
</trkpt>
<trkpt lat="43.103939" lon="19.127151">
<ele>1433.985352</ele>
<time>2012-05-01T12:03:24Z</time>
<desc>lat.=43.103939, lon.=19.127151, Alt.=1433.985352m. Speed=14.184000m/h.</desc>
<speed>3.940000</speed>
</trkpt>
<trkpt lat="43.103989" lon="19.126965">
<ele>1434.766602</ele>
<time>2012-05-01T12:03:29Z</time>
<desc>lat.=43.103989, lon.=19.126965, Alt.=1434.766602m. Speed=10.260000m/h.</desc>
<speed>2.850000</speed>
</trkpt>
<trkpt lat="43.104031" lon="19.126801">
<ele>1436.204102</ele>
<time>2012-05-01T12:03:34Z</time>
<desc>lat.=43.104031, lon.=19.126801, Alt.=1436.204102m. Speed=8.568000m/h.</desc>
<speed>2.380000</speed>
</trkpt>
<trkpt lat="43.104076" lon="19.126684">
<ele>1436.860352</ele>
<time>2012-05-01T12:03:39Z</time>
<desc>lat.=43.104076, lon.=19.126684, Alt.=1436.860352m. Speed=9.540000m/h.</desc>
<speed>2.650000</speed>
</trkpt>
<trkpt lat="43.104107" lon="19.126522">
<ele>1437.391602</ele>
<time>2012-05-01T12:03:44Z</time>
<desc>lat.=43.104107, lon.=19.126522, Alt.=1437.391602m. Speed=8.928000m/h.</desc>
<speed>2.480000</speed>
</trkpt>
<trkpt lat="43.104134" lon="19.126410">
<ele>1438.204102</ele>
<time>2012-05-01T12:03:49Z</time>
<desc>lat.=43.104134, lon.=19.126410, Alt.=1438.204102m. Speed=7.776000m/h.</desc>
<speed>2.160000</speed>
</trkpt>
<trkpt lat="43.104176" lon="19.126274">
<ele>1439.266602</ele>
<time>2012-05-01T12:03:54Z</time>
<desc>lat.=43.104176, lon.=19.126274, Alt.=1439.266602m. Speed=10.368000m/h.</desc>
<speed>2.880000</speed>
</trkpt>
<trkpt lat="43.104229" lon="19.126091">
<ele>1439.985352</ele>
<time>2012-05-01T12:03:59Z</time>
<desc>lat.=43.104229, lon.=19.126091, Alt.=1439.985352m. Speed=11.484000m/h.</desc>
<speed>3.190000</speed>
</trkpt>
<trkpt lat="43.104279" lon="19.125963">
<ele>1440.860352</ele>
<time>2012-05-01T12:04:04Z</time>
<desc>lat.=43.104279, lon.=19.125963, Alt.=1440.860352m. Speed=6.372000m/h.</desc>
<speed>1.770000</speed>
</trkpt>
<trkpt lat="43.104347" lon="19.125818">
<ele>1441.454102</ele>
<time>2012-05-01T12:04:09Z</time>
<desc>lat.=43.104347, lon.=19.125818, Alt.=1441.454102m. Speed=13.428000m/h.</desc>
<speed>3.730000</speed>
</trkpt>
<trkpt lat="43.104439" lon="19.125622">
<ele>1442.516602</ele>
<time>2012-05-01T12:04:14Z</time>
<desc>lat.=43.104439, lon.=19.125622, Alt.=1442.516602m. Speed=14.148000m/h.</desc>
<speed>3.930000</speed>
</trkpt>
<trkpt lat="43.104576" lon="19.125511">
<ele>1443.235352</ele>
<time>2012-05-01T12:04:19Z</time>
<desc>lat.=43.104576, lon.=19.125511, Alt.=1443.235352m. Speed=9.216000m/h.</desc>
<speed>2.560000</speed>
</trkpt>
<trkpt lat="43.104683" lon="19.125473">
<ele>1443.672852</ele>
<time>2012-05-01T12:04:24Z</time>
<desc>lat.=43.104683, lon.=19.125473, Alt.=1443.672852m. Speed=9.144000m/h.</desc>
<speed>2.540000</speed>
</trkpt>
<trkpt lat="43.104805" lon="19.125429">
<ele>1445.047852</ele>
<time>2012-05-01T12:04:29Z</time>
<desc>lat.=43.104805, lon.=19.125429, Alt.=1445.047852m. Speed=10.908000m/h.</desc>
<speed>3.030000</speed>
</trkpt>
<trkpt lat="43.104942" lon="19.125395">
<ele>1445.766602</ele>
<time>2012-05-01T12:04:34Z</time>
<desc>lat.=43.104942, lon.=19.125395, Alt.=1445.766602m. Speed=9.684000m/h.</desc>
<speed>2.690000</speed>
</trkpt>
<trkpt lat="43.105049" lon="19.125360">
<ele>1447.016602</ele>
<time>2012-05-01T12:04:39Z</time>
<desc>lat.=43.105049, lon.=19.125360, Alt.=1447.016602m. Speed=9.504000m/h.</desc>
<speed>2.640000</speed>
</trkpt>
<trkpt lat="43.105164" lon="19.125330">
<ele>1447.172852</ele>
<time>2012-05-01T12:04:44Z</time>
<desc>lat.=43.105164, lon.=19.125330, Alt.=1447.172852m. Speed=8.604000m/h.</desc>
<speed>2.390000</speed>
</trkpt>
<trkpt lat="43.105289" lon="19.125296">
<ele>1447.797852</ele>
<time>2012-05-01T12:04:49Z</time>
<desc>lat.=43.105289, lon.=19.125296, Alt.=1447.797852m. Speed=10.332000m/h.</desc>
<speed>2.870000</speed>
</trkpt>
<trkpt lat="43.105404" lon="19.125271">
<ele>1447.985352</ele>
<time>2012-05-01T12:04:54Z</time>
<desc>lat.=43.105404, lon.=19.125271, Alt.=1447.985352m. Speed=9.576000m/h.</desc>
<speed>2.660000</speed>
</trkpt>
<trkpt lat="43.105515" lon="19.125210">
<ele>1449.079102</ele>
<time>2012-05-01T12:04:59Z</time>
<desc>lat.=43.105515, lon.=19.125210, Alt.=1449.079102m. Speed=10.692000m/h.</desc>
<speed>2.970000</speed>
</trkpt>
<trkpt lat="43.105614" lon="19.125086">
<ele>1450.172852</ele>
<time>2012-05-01T12:05:04Z</time>
<desc>lat.=43.105614, lon.=19.125086, Alt.=1450.172852m. Speed=10.512000m/h.</desc>
<speed>2.920000</speed>
</trkpt>
<trkpt lat="43.105675" lon="19.124868">
<ele>1449.079102</ele>
<time>2012-05-01T12:05:09Z</time>
<desc>lat.=43.105675, lon.=19.124868, Alt.=1449.079102m. Speed=11.736000m/h.</desc>
<speed>3.260000</speed>
</trkpt>
<trkpt lat="43.105709" lon="19.124687">
<ele>1449.985352</ele>
<time>2012-05-01T12:05:14Z</time>
<desc>lat.=43.105709, lon.=19.124687, Alt.=1449.985352m. Speed=11.232000m/h.</desc>
<speed>3.120000</speed>
</trkpt>
<trkpt lat="43.105743" lon="19.124504">
<ele>1451.172852</ele>
<time>2012-05-01T12:05:19Z</time>
<desc>lat.=43.105743, lon.=19.124504, Alt.=1451.172852m. Speed=10.620000m/h.</desc>
<speed>2.950000</speed>
</trkpt>
<trkpt lat="43.105762" lon="19.124342">
<ele>1452.547852</ele>
<time>2012-05-01T12:05:24Z</time>
<desc>lat.=43.105762, lon.=19.124342, Alt.=1452.547852m. Speed=10.008000m/h.</desc>
<speed>2.780000</speed>
</trkpt>
<trkpt lat="43.105808" lon="19.124203">
<ele>1453.016602</ele>
<time>2012-05-01T12:05:29Z</time>
<desc>lat.=43.105808, lon.=19.124203, Alt.=1453.016602m. Speed=4.860000m/h.</desc>
<speed>1.350000</speed>
</trkpt>
<trkpt lat="43.105904" lon="19.124109">
<ele>1454.110352</ele>
<time>2012-05-01T12:05:34Z</time>
<desc>lat.=43.105904, lon.=19.124109, Alt.=1454.110352m. Speed=10.008000m/h.</desc>
<speed>2.780000</speed>
</trkpt>
<trkpt lat="43.106033" lon="19.124136">
<ele>1454.735352</ele>
<time>2012-05-01T12:05:39Z</time>
<desc>lat.=43.106033, lon.=19.124136, Alt.=1454.735352m. Speed=10.152000m/h.</desc>
<speed>2.820000</speed>
</trkpt>
<trkpt lat="43.106159" lon="19.124203">
<ele>1455.891602</ele>
<time>2012-05-01T12:05:44Z</time>
<desc>lat.=43.106159, lon.=19.124203, Alt.=1455.891602m. Speed=9.936000m/h.</desc>
<speed>2.760000</speed>
</trkpt>
<trkpt lat="43.106304" lon="19.124249">
<ele>1456.266602</ele>
<time>2012-05-01T12:05:49Z</time>
<desc>lat.=43.106304, lon.=19.124249, Alt.=1456.266602m. Speed=12.564000m/h.</desc>
<speed>3.490000</speed>
</trkpt>
<trkpt lat="43.106468" lon="19.124268">
<ele>1457.360352</ele>
<time>2012-05-01T12:05:54Z</time>
<desc>lat.=43.106468, lon.=19.124268, Alt.=1457.360352m. Speed=13.752000m/h.</desc>
<speed>3.820000</speed>
</trkpt>
<trkpt lat="43.106659" lon="19.124279">
<ele>1458.204102</ele>
<time>2012-05-01T12:05:59Z</time>
<desc>lat.=43.106659, lon.=19.124279, Alt.=1458.204102m. Speed=17.172001m/h.</desc>
<speed>4.770000</speed>
</trkpt>
<trkpt lat="43.106899" lon="19.124279">
<ele>1457.422852</ele>
<time>2012-05-01T12:06:04Z</time>
<desc>lat.=43.106899, lon.=19.124279, Alt.=1457.422852m. Speed=20.232000m/h.</desc>
<speed>5.620000</speed>
</trkpt>
<trkpt lat="43.107185" lon="19.124346">
<ele>1456.360352</ele>
<time>2012-05-01T12:06:09Z</time>
<desc>lat.=43.107185, lon.=19.124346, Alt.=1456.360352m. Speed=25.632000m/h.</desc>
<speed>7.120000</speed>
</trkpt>
<trkpt lat="43.107525" lon="19.124435">
<ele>1454.547852</ele>
<time>2012-05-01T12:06:14Z</time>
<desc>lat.=43.107525, lon.=19.124435, Alt.=1454.547852m. Speed=28.080000m/h.</desc>
<speed>7.800000</speed>
</trkpt>
<trkpt lat="43.107868" lon="19.124514">
<ele>1452.391602</ele>
<time>2012-05-01T12:06:19Z</time>
<desc>lat.=43.107868, lon.=19.124514, Alt.=1452.391602m. Speed=26.136000m/h.</desc>
<speed>7.260000</speed>
</trkpt>
<trkpt lat="43.108170" lon="19.124588">
<ele>1452.485352</ele>
<time>2012-05-01T12:06:24Z</time>
<desc>lat.=43.108170, lon.=19.124588, Alt.=1452.485352m. Speed=23.004000m/h.</desc>
<speed>6.390000</speed>
</trkpt>
<trkpt lat="43.108437" lon="19.124672">
<ele>1452.360352</ele>
<time>2012-05-01T12:06:29Z</time>
<desc>lat.=43.108437, lon.=19.124672, Alt.=1452.360352m. Speed=19.728001m/h.</desc>
<speed>5.480000</speed>
</trkpt>
<trkpt lat="43.108643" lon="19.124746">
<ele>1452.297852</ele>
<time>2012-05-01T12:06:34Z</time>
<desc>lat.=43.108643, lon.=19.124746, Alt.=1452.297852m. Speed=12.852000m/h.</desc>
<speed>3.570000</speed>
</trkpt>
<trkpt lat="43.108738" lon="19.124786">
<ele>1452.579102</ele>
<time>2012-05-01T12:06:39Z</time>
<desc>lat.=43.108738, lon.=19.124786, Alt.=1452.579102m. Speed=1.872000m/h.</desc>
<speed>0.520000</speed>
</trkpt>
<trkpt lat="43.108742" lon="19.124796">
<ele>1452.110352</ele>
<time>2012-05-01T12:06:44Z</time>
<desc>lat.=43.108742, lon.=19.124796, Alt.=1452.110352m. Speed=0.072000m/h.</desc>
<speed>0.020000</speed>
</trkpt>
<trkpt lat="43.108742" lon="19.124796">
<ele>1451.954102</ele>
<time>2012-05-01T12:06:49Z</time>
<desc>lat.=43.108742, lon.=19.124796, Alt.=1451.954102m. Speed=0.540000m/h.</desc>
<speed>0.150000</speed>
</trkpt>
<trkpt lat="43.108742" lon="19.124798">
<ele>1451.641602</ele>
<time>2012-05-01T12:06:54Z</time>
<desc>lat.=43.108742, lon.=19.124798, Alt.=1451.641602m. Speed=0.108000m/h.</desc>
<speed>0.030000</speed>
</trkpt>
<trkpt lat="43.108742" lon="19.124798">
<ele>1451.516602</ele>
<time>2012-05-01T12:06:59Z</time>
<desc>lat.=43.108742, lon.=19.124798, Alt.=1451.516602m. Speed=0.036000m/h.</desc>
<speed>0.010000</speed>
</trkpt>
<trkpt lat="43.108742" lon="19.124796">
<ele>1451.454102</ele>
<time>2012-05-01T12:07:04Z</time>
<desc>lat.=43.108742, lon.=19.124796, Alt.=1451.454102m. Speed=0.036000m/h.</desc>
<speed>0.010000</speed>
</trkpt>
<trkpt lat="43.108742" lon="19.124796">
<ele>1451.422852</ele>
<time>2012-05-01T12:07:09Z</time>
<desc>lat.=43.108742, lon.=19.124796, Alt.=1451.422852m. Speed=0.036000m/h.</desc>
<speed>0.010000</speed>
</trkpt>
<trkpt lat="43.108742" lon="19.124796">
<ele>1451.391602</ele>
<time>2012-05-01T12:07:14Z</time>
<desc>lat.=43.108742, lon.=19.124796, Alt.=1451.391602m. Speed=0.072000m/h.</desc>
<speed>0.020000</speed>
</trkpt>
<trkpt lat="43.108742" lon="19.124796">
<ele>1451.422852</ele>
<time>2012-05-01T12:07:19Z</time>
<desc>lat.=43.108742, lon.=19.124796, Alt.=1451.422852m. Speed=0.000000m/h.</desc>
<speed>0.000000</speed>
</trkpt>
<trkpt lat="43.108742" lon="19.124796">
<ele>1451.422852</ele>
<time>2012-05-01T12:07:24Z</time>
<desc>lat.=43.108742, lon.=19.124796, Alt.=1451.422852m. Speed=0.036000m/h.</desc>
<speed>0.010000</speed>
</trkpt>
<trkpt lat="43.108742" lon="19.124796">
<ele>1451.422852</ele>
<time>2012-05-01T12:07:29Z</time>
<desc>lat.=43.108742, lon.=19.124796, Alt.=1451.422852m. Speed=0.036000m/h.</desc>
<speed>0.010000</speed>
</trkpt>
<trkpt lat="43.108742" lon="19.124796">
<ele>1451.391602</ele>
<time>2012-05-01T12:07:34Z</time>
<desc>lat.=43.108742, lon.=19.124796, Alt.=1451.391602m. Speed=0.072000m/h.</desc>
<speed>0.020000</speed>
</trkpt>
<trkpt lat="43.108742" lon="19.124794">
<ele>1451.391602</ele>
<time>2012-05-01T12:07:39Z</time>
<desc>lat.=43.108742, lon.=19.124794, Alt.=1451.391602m. Speed=0.000000m/h.</desc>
<speed>0.000000</speed>
</trkpt>
<trkpt lat="43.108738" lon="19.124794">
<ele>1451.422852</ele>
<time>2012-05-01T12:07:44Z</time>
<desc>lat.=43.108738, lon.=19.124794, Alt.=1451.422852m. Speed=0.000000m/h.</desc>
<speed>0.000000</speed>
</trkpt>
<trkpt lat="43.108738" lon="19.124794">
<ele>1451.422852</ele>
<time>2012-05-01T12:07:49Z</time>
<desc>lat.=43.108738, lon.=19.124794, Alt.=1451.422852m. Speed=0.036000m/h.</desc>
<speed>0.010000</speed>
</trkpt>
<trkpt lat="43.108738" lon="19.124794">
<ele>1451.454102</ele>
<time>2012-05-01T12:07:54Z</time>
<desc>lat.=43.108738, lon.=19.124794, Alt.=1451.454102m. Speed=0.000000m/h.</desc>
<speed>0.000000</speed>
</trkpt>
<trkpt lat="43.108738" lon="19.124794">
<ele>1451.454102</ele>
<time>2012-05-01T12:07:59Z</time>
<desc>lat.=43.108738, lon.=19.124794, Alt.=1451.454102m. Speed=0.036000m/h.</desc>
<speed>0.010000</speed>
</trkpt>
<trkpt lat="43.108738" lon="19.124794">
<ele>1451.516602</ele>
<time>2012-05-01T12:08:04Z</time>
<desc>lat.=43.108738, lon.=19.124794, Alt.=1451.516602m. Speed=0.036000m/h.</desc>
<speed>0.010000</speed>
</trkpt>
<trkpt lat="43.108738" lon="19.124794">
<ele>1451.516602</ele>
<time>2012-05-01T12:08:09Z</time>
<desc>lat.=43.108738, lon.=19.124794, Alt.=1451.516602m. Speed=0.000000m/h.</desc>
<speed>0.000000</speed>
</trkpt>
<trkpt lat="43.108738" lon="19.124794">
<ele>1451.516602</ele>
<time>2012-05-01T12:08:14Z</time>
<desc>lat.=43.108738, lon.=19.124794, Alt.=1451.516602m. Speed=0.072000m/h.</desc>
<speed>0.020000</speed>
</trkpt>
<trkpt lat="43.108738" lon="19.124794">
<ele>1451.547852</ele>
<time>2012-05-01T12:08:19Z</time>
<desc>lat.=43.108738, lon.=19.124794, Alt.=1451.547852m. Speed=0.000000m/h.</desc>
<speed>0.000000</speed>
</trkpt>
<trkpt lat="43.108738" lon="19.124792">
<ele>1451.547852</ele>
<time>2012-05-01T12:08:24Z</time>
<desc>lat.=43.108738, lon.=19.124792, Alt.=1451.547852m. Speed=0.036000m/h.</desc>
<speed>0.010000</speed>
</trkpt>
<trkpt lat="43.108738" lon="19.124792">
<ele>1451.547852</ele>
<time>2012-05-01T12:08:29Z</time>
<desc>lat.=43.108738, lon.=19.124792, Alt.=1451.547852m. Speed=0.000000m/h.</desc>
<speed>0.000000</speed>
</trkpt>
<trkpt lat="43.108738" lon="19.124792">
<ele>1451.547852</ele>
<time>2012-05-01T12:08:34Z</time>
<desc>lat.=43.108738, lon.=19.124792, Alt.=1451.547852m. Speed=0.036000m/h.</desc>
<speed>0.010000</speed>
</trkpt>
<trkpt lat="43.108738" lon="19.124792">
<ele>1451.579102</ele>
<time>2012-05-01T12:08:39Z</time>
<desc>lat.=43.108738, lon.=19.124792, Alt.=1451.579102m. Speed=0.000000m/h.</desc>
<speed>0.000000</speed>
</trkpt>
<trkpt lat="43.108738" lon="19.124792">
<ele>1451.610352</ele>
<time>2012-05-01T12:08:44Z</time>
<desc>lat.=43.108738, lon.=19.124792, Alt.=1451.610352m. Speed=0.000000m/h.</desc>
<speed>0.000000</speed>
</trkpt>
<trkpt lat="43.108738" lon="19.124792">
<ele>1451.610352</ele>
<time>2012-05-01T12:08:49Z</time>
<desc>lat.=43.108738, lon.=19.124792, Alt.=1451.610352m. Speed=0.036000m/h.</desc>
<speed>0.010000</speed>
</trkpt>
<trkpt lat="43.108734" lon="19.124792">
<ele>1451.610352</ele>
<time>2012-05-01T12:08:54Z</time>
<desc>lat.=43.108734, lon.=19.124792, Alt.=1451.610352m. Speed=0.036000m/h.</desc>
<speed>0.010000</speed>
</trkpt>
<trkpt lat="43.108734" lon="19.124792">
<ele>1451.610352</ele>
<time>2012-05-01T12:08:59Z</time>
<desc>lat.=43.108734, lon.=19.124792, Alt.=1451.610352m. Speed=0.000000m/h.</desc>
<speed>0.000000</speed>
</trkpt>
<trkpt lat="43.108734" lon="19.124792">
<ele>1451.672852</ele>
<time>2012-05-01T12:09:04Z</time>
<desc>lat.=43.108734, lon.=19.124792, Alt.=1451.672852m. Speed=0.036000m/h.</desc>
<speed>0.010000</speed>
</trkpt>
<trkpt lat="43.108734" lon="19.124792">
<ele>1451.672852</ele>
<time>2012-05-01T12:09:09Z</time>
<desc>lat.=43.108734, lon.=19.124792, Alt.=1451.672852m. Speed=0.000000m/h.</desc>
<speed>0.000000</speed>
</trkpt>
<trkpt lat="43.108734" lon="19.124792">
<ele>1451.704102</ele>
<time>2012-05-01T12:09:14Z</time>
<desc>lat.=43.108734, lon.=19.124792, Alt.=1451.704102m. Speed=0.000000m/h.</desc>
<speed>0.000000</speed>
</trkpt>
<trkpt lat="43.108734" lon="19.124792">
<ele>1451.766602</ele>
<time>2012-05-01T12:09:19Z</time>
<desc>lat.=43.108734, lon.=19.124792, Alt.=1451.766602m. Speed=0.000000m/h.</desc>
<speed>0.000000</speed>
</trkpt>
<trkpt lat="43.108734" lon="19.124792">
<ele>1451.860352</ele>
<time>2012-05-01T12:09:24Z</time>
<desc>lat.=43.108734, lon.=19.124792, Alt.=1451.860352m. Speed=0.000000m/h.</desc>
<speed>0.000000</speed>
</trkpt>
<trkpt lat="43.108734" lon="19.124790">
<ele>1451.954102</ele>
<time>2012-05-01T12:09:29Z</time>
<desc>lat.=43.108734, lon.=19.124790, Alt.=1451.954102m. Speed=0.036000m/h.</desc>
<speed>0.010000</speed>
</trkpt>
<trkpt lat="43.108734" lon="19.124790">
<ele>1451.985352</ele>
<time>2012-05-01T12:09:34Z</time>
<desc>lat.=43.108734, lon.=19.124790, Alt.=1451.985352m. Speed=0.000000m/h.</desc>
<speed>0.000000</speed>
</trkpt>
<trkpt lat="43.108734" lon="19.124790">
<ele>1452.016602</ele>
<time>2012-05-01T12:09:39Z</time>
<desc>lat.=43.108734, lon.=19.124790, Alt.=1452.016602m. Speed=0.000000m/h.</desc>
<speed>0.000000</speed>
</trkpt>
<trkpt lat="43.108734" lon="19.124790">
<ele>1452.047852</ele>
<time>2012-05-01T12:09:44Z</time>
<desc>lat.=43.108734, lon.=19.124790, Alt.=1452.047852m. Speed=0.000000m/h.</desc>
<speed>0.000000</speed>
</trkpt>
<trkpt lat="43.108734" lon="19.124790">
<ele>1452.079102</ele>
<time>2012-05-01T12:09:49Z</time>
<desc>lat.=43.108734, lon.=19.124790, Alt.=1452.079102m. Speed=0.000000m/h.</desc>
<speed>0.000000</speed>
</trkpt>
<trkpt lat="43.108734" lon="19.124790">
<ele>1452.079102</ele>
<time>2012-05-01T12:09:54Z</time>
<desc>lat.=43.108734, lon.=19.124790, Alt.=1452.079102m. Speed=0.000000m/h.</desc>
<speed>0.000000</speed>
</trkpt>
<trkpt lat="43.108734" lon="19.124790">
<ele>1452.079102</ele>
<time>2012-05-01T12:09:59Z</time>
<desc>lat.=43.108734, lon.=19.124790, Alt.=1452.079102m. Speed=0.000000m/h.</desc>
<speed>0.000000</speed>
</trkpt>
<trkpt lat="43.108734" lon="19.124790">
<ele>1452.110352</ele>
<time>2012-05-01T12:10:04Z</time>
<desc>lat.=43.108734, lon.=19.124790, Alt.=1452.110352m. Speed=0.036000m/h.</desc>
<speed>0.010000</speed>
</trkpt>
<trkpt lat="43.108734" lon="19.124788">
<ele>1452.110352</ele>
<time>2012-05-01T12:10:09Z</time>
<desc>lat.=43.108734, lon.=19.124788, Alt.=1452.110352m. Speed=0.036000m/h.</desc>
<speed>0.010000</speed>
</trkpt>
<trkpt lat="43.108734" lon="19.124788">
<ele>1452.141602</ele>
<time>2012-05-01T12:10:14Z</time>
<desc>lat.=43.108734, lon.=19.124788, Alt.=1452.141602m. Speed=0.000000m/h.</desc>
<speed>0.000000</speed>
</trkpt>
<trkpt lat="43.108734" lon="19.124788">
<ele>1452.141602</ele>
<time>2012-05-01T12:10:19Z</time>
<desc>lat.=43.108734, lon.=19.124788, Alt.=1452.141602m. Speed=0.036000m/h.</desc>
<speed>0.010000</speed>
</trkpt>
<trkpt lat="43.108734" lon="19.124788">
<ele>1452.141602</ele>
<time>2012-05-01T12:10:24Z</time>
<desc>lat.=43.108734, lon.=19.124788, Alt.=1452.141602m. Speed=0.072000m/h.</desc>
<speed>0.020000</speed>
</trkpt>
<trkpt lat="43.108734" lon="19.124788">
<ele>1452.141602</ele>
<time>2012-05-01T12:10:29Z</time>
<desc>lat.=43.108734, lon.=19.124788, Alt.=1452.141602m. Speed=0.000000m/h.</desc>
<speed>0.000000</speed>
</trkpt>
<trkpt lat="43.108734" lon="19.124788">
<ele>1452.204102</ele>
<time>2012-05-01T12:10:34Z</time>
<desc>lat.=43.108734, lon.=19.124788, Alt.=1452.204102m. Speed=0.000000m/h.</desc>
<speed>0.000000</speed>
</trkpt>
<trkpt lat="43.108734" lon="19.124788">
<ele>1452.235352</ele>
<time>2012-05-01T12:10:39Z</time>
<desc>lat.=43.108734, lon.=19.124788, Alt.=1452.235352m. Speed=0.000000m/h.</desc>
<speed>0.000000</speed>
</trkpt>
<trkpt lat="43.108734" lon="19.124788">
<ele>1452.266602</ele>
<time>2012-05-01T12:10:44Z</time>
<desc>lat.=43.108734, lon.=19.124788, Alt.=1452.266602m. Speed=0.036000m/h.</desc>
<speed>0.010000</speed>
</trkpt>
<trkpt lat="43.108734" lon="19.124788">
<ele>1452.297852</ele>
<time>2012-05-01T12:10:49Z</time>
<desc>lat.=43.108734, lon.=19.124788, Alt.=1452.297852m. Speed=0.036000m/h.</desc>
<speed>0.010000</speed>
</trkpt>
<trkpt lat="43.108734" lon="19.124788">
<ele>1452.297852</ele>
<time>2012-05-01T12:10:54Z</time>
<desc>lat.=43.108734, lon.=19.124788, Alt.=1452.297852m. Speed=0.000000m/h.</desc>
<speed>0.000000</speed>
</trkpt>
<trkpt lat="43.108734" lon="19.124788">
<ele>1452.297852</ele>
<time>2012-05-01T12:10:59Z</time>
<desc>lat.=43.108734, lon.=19.124788, Alt.=1452.297852m. Speed=0.000000m/h.</desc>
<speed>0.000000</speed>
</trkpt>
<trkpt lat="43.108730" lon="19.124788">
<ele>1452.297852</ele>
<time>2012-05-01T12:11:04Z</time>
<desc>lat.=43.108730, lon.=19.124788, Alt.=1452.297852m. Speed=0.036000m/h.</desc>
<speed>0.010000</speed>
</trkpt>
<trkpt lat="43.108730" lon="19.124788">
<ele>1452.297852</ele>
<time>2012-05-01T12:11:09Z</time>
<desc>lat.=43.108730, lon.=19.124788, Alt.=1452.297852m. Speed=0.000000m/h.</desc>
<speed>0.000000</speed>
</trkpt>
<trkpt lat="43.108730" lon="19.124788">
<ele>1452.297852</ele>
<time>2012-05-01T12:11:14Z</time>
<desc>lat.=43.108730, lon.=19.124788, Alt.=1452.297852m. Speed=0.036000m/h.</desc>
<speed>0.010000</speed>
</trkpt>
<trkpt lat="43.108730" lon="19.124788">
<ele>1452.297852</ele>
<time>2012-05-01T12:11:19Z</time>
<desc>lat.=43.108730, lon.=19.124788, Alt.=1452.297852m. Speed=0.000000m/h.</desc>
<speed>0.000000</speed>
</trkpt>
<trkpt lat="43.108730" lon="19.124788">
<ele>1452.329102</ele>
<time>2012-05-01T12:11:24Z</time>
<desc>lat.=43.108730, lon.=19.124788, Alt.=1452.329102m. Speed=0.000000m/h.</desc>
<speed>0.000000</speed>
</trkpt>
<trkpt lat="43.108734" lon="19.124788">
<ele>1452.329102</ele>
<time>2012-05-01T12:11:29Z</time>
<desc>lat.=43.108734, lon.=19.124788, Alt.=1452.329102m. Speed=0.936000m/h.</desc>
<speed>0.260000</speed>
</trkpt>
<trkpt lat="43.108734" lon="19.124792">
<ele>1452.204102</ele>
<time>2012-05-01T12:11:34Z</time>
<desc>lat.=43.108734, lon.=19.124792, Alt.=1452.204102m. Speed=0.216000m/h.</desc>
<speed>0.060000</speed>
</trkpt>
<trkpt lat="43.108734" lon="19.124794">
<ele>1452.141602</ele>
<time>2012-05-01T12:11:39Z</time>
<desc>lat.=43.108734, lon.=19.124794, Alt.=1452.141602m. Speed=0.000000m/h.</desc>
<speed>0.000000</speed>
</trkpt>
<trkpt lat="43.108734" lon="19.124794">
<ele>1452.110352</ele>
<time>2012-05-01T12:11:44Z</time>
<desc>lat.=43.108734, lon.=19.124794, Alt.=1452.110352m. Speed=0.036000m/h.</desc>
<speed>0.010000</speed>
</trkpt>
<trkpt lat="43.108734" lon="19.124794">
<ele>1452.110352</ele>
<time>2012-05-01T12:11:49Z</time>
<desc>lat.=43.108734, lon.=19.124794, Alt.=1452.110352m. Speed=0.036000m/h.</desc>
<speed>0.010000</speed>
</trkpt>
<trkpt lat="43.108734" lon="19.124794">
<ele>1452.110352</ele>
<time>2012-05-01T12:11:54Z</time>
<desc>lat.=43.108734, lon.=19.124794, Alt.=1452.110352m. Speed=0.000000m/h.</desc>
<speed>0.000000</speed>
</trkpt>
<trkpt lat="43.108734" lon="19.124794">
<ele>1452.079102</ele>
<time>2012-05-01T12:11:59Z</time>
<desc>lat.=43.108734, lon.=19.124794, Alt.=1452.079102m. Speed=0.000000m/h.</desc>
<speed>0.000000</speed>
</trkpt>
<trkpt lat="43.108734" lon="19.124794">
<ele>1452.079102</ele>
<time>2012-05-01T12:12:04Z</time>
<desc>lat.=43.108734, lon.=19.124794, Alt.=1452.079102m. Speed=0.036000m/h.</desc>
<speed>0.010000</speed>
</trkpt>
<trkpt lat="43.108734" lon="19.124794">
<ele>1452.079102</ele>
<time>2012-05-01T12:12:09Z</time>
<desc>lat.=43.108734, lon.=19.124794, Alt.=1452.079102m. Speed=0.000000m/h.</desc>
<speed>0.000000</speed>
</trkpt>
<trkpt lat="43.108734" lon="19.124794">
<ele>1452.079102</ele>
<time>2012-05-01T12:12:14Z</time>
<desc>lat.=43.108734, lon.=19.124794, Alt.=1452.079102m. Speed=0.036000m/h.</desc>
<speed>0.010000</speed>
</trkpt>
<trkpt lat="43.108734" lon="19.124794">
<ele>1452.047852</ele>
<time>2012-05-01T12:12:19Z</time>
<desc>lat.=43.108734, lon.=19.124794, Alt.=1452.047852m. Speed=0.036000m/h.</desc>
<speed>0.010000</speed>
</trkpt>
<trkpt lat="43.108734" lon="19.124794">
<ele>1452.047852</ele>
<time>2012-05-01T12:12:24Z</time>
<desc>lat.=43.108734, lon.=19.124794, Alt.=1452.047852m. Speed=0.000000m/h.</desc>
<speed>0.000000</speed>
</trkpt>
<trkpt lat="43.108734" lon="19.124794">
<ele>1452.016602</ele>
<time>2012-05-01T12:12:29Z</time>
<desc>lat.=43.108734, lon.=19.124794, Alt.=1452.016602m. Speed=1.260000m/h.</desc>
<speed>0.350000</speed>
</trkpt>
<trkpt lat="43.108738" lon="19.124727">
<ele>1452.266602</ele>
<time>2012-05-01T12:12:34Z</time>
<desc>lat.=43.108738, lon.=19.124727, Alt.=1452.266602m. Speed=9.000000m/h.</desc>
<speed>2.500000</speed>
</trkpt>
<trkpt lat="43.108749" lon="19.124565">
<ele>1452.516602</ele>
<time>2012-05-01T12:12:39Z</time>
<desc>lat.=43.108749, lon.=19.124565, Alt.=1452.516602m. Speed=9.576000m/h.</desc>
<speed>2.660000</speed>
</trkpt>
<trkpt lat="43.108875" lon="19.124483">
<ele>1453.297852</ele>
<time>2012-05-01T12:12:44Z</time>
<desc>lat.=43.108875, lon.=19.124483, Alt.=1453.297852m. Speed=11.124000m/h.</desc>
<speed>3.090000</speed>
</trkpt>
<trkpt lat="43.108994" lon="19.124447">
<ele>1454.547852</ele>
<time>2012-05-01T12:12:49Z</time>
<desc>lat.=43.108994, lon.=19.124447, Alt.=1454.547852m. Speed=9.180000m/h.</desc>
<speed>2.550000</speed>
</trkpt>
<trkpt lat="43.109089" lon="19.124393">
<ele>1455.110352</ele>
<time>2012-05-01T12:12:54Z</time>
<desc>lat.=43.109089, lon.=19.124393, Alt.=1455.110352m. Speed=9.684000m/h.</desc>
<speed>2.690000</speed>
</trkpt>
<trkpt lat="43.109211" lon="19.124308">
<ele>1455.579102</ele>
<time>2012-05-01T12:12:59Z</time>
<desc>lat.=43.109211, lon.=19.124308, Alt.=1455.579102m. Speed=9.972000m/h.</desc>
<speed>2.770000</speed>
</trkpt>
<trkpt lat="43.109325" lon="19.124254">
<ele>1455.922852</ele>
<time>2012-05-01T12:13:04Z</time>
<desc>lat.=43.109325, lon.=19.124254, Alt.=1455.922852m. Speed=10.008000m/h.</desc>
<speed>2.780000</speed>
</trkpt>
<trkpt lat="43.109440" lon="19.124182">
<ele>1457.141602</ele>
<time>2012-05-01T12:13:09Z</time>
<desc>lat.=43.109440, lon.=19.124182, Alt.=1457.141602m. Speed=8.460000m/h.</desc>
<speed>2.350000</speed>
</trkpt>
<trkpt lat="43.109535" lon="19.124105">
<ele>1457.391602</ele>
<time>2012-05-01T12:13:14Z</time>
<desc>lat.=43.109535, lon.=19.124105, Alt.=1457.391602m. Speed=8.856000m/h.</desc>
<speed>2.460000</speed>
</trkpt>
<trkpt lat="43.109642" lon="19.124010">
<ele>1458.016602</ele>
<time>2012-05-01T12:13:19Z</time>
<desc>lat.=43.109642, lon.=19.124010, Alt.=1458.016602m. Speed=10.440000m/h.</desc>
<speed>2.900000</speed>
</trkpt>
<trkpt lat="43.109745" lon="19.123915">
<ele>1458.485352</ele>
<time>2012-05-01T12:13:24Z</time>
<desc>lat.=43.109745, lon.=19.123915, Alt.=1458.485352m. Speed=9.216000m/h.</desc>
<speed>2.560000</speed>
</trkpt>
<trkpt lat="43.109840" lon="19.123833">
<ele>1459.172852</ele>
<time>2012-05-01T12:13:29Z</time>
<desc>lat.=43.109840, lon.=19.123833, Alt.=1459.172852m. Speed=8.532000m/h.</desc>
<speed>2.370000</speed>
</trkpt>
<trkpt lat="43.109924" lon="19.123789">
<ele>1459.735352</ele>
<time>2012-05-01T12:13:34Z</time>
<desc>lat.=43.109924, lon.=19.123789, Alt.=1459.735352m. Speed=7.848000m/h.</desc>
<speed>2.180000</speed>
</trkpt>
<trkpt lat="43.110008" lon="19.123741">
<ele>1462.047852</ele>
<time>2012-05-01T12:13:39Z</time>
<desc>lat.=43.110008, lon.=19.123741, Alt.=1462.047852m. Speed=6.768000m/h.</desc>
<speed>1.880000</speed>
</trkpt>
<trkpt lat="43.110085" lon="19.123709">
<ele>1463.360352</ele>
<time>2012-05-01T12:13:44Z</time>
<desc>lat.=43.110085, lon.=19.123709, Alt.=1463.360352m. Speed=7.596000m/h.</desc>
<speed>2.110000</speed>
</trkpt>
<trkpt lat="43.110165" lon="19.123674">
<ele>1466.985352</ele>
<time>2012-05-01T12:13:49Z</time>
<desc>lat.=43.110165, lon.=19.123674, Alt.=1466.985352m. Speed=7.164000m/h.</desc>
<speed>1.990000</speed>
</trkpt>
<trkpt lat="43.110233" lon="19.123653">
<ele>1470.422852</ele>
<time>2012-05-01T12:13:54Z</time>
<desc>lat.=43.110233, lon.=19.123653, Alt.=1470.422852m. Speed=4.176000m/h.</desc>
<speed>1.160000</speed>
</trkpt>
<trkpt lat="43.110306" lon="19.123642">
<ele>1473.110352</ele>
<time>2012-05-01T12:13:59Z</time>
<desc>lat.=43.110306, lon.=19.123642, Alt.=1473.110352m. Speed=5.040000m/h.</desc>
<speed>1.400000</speed>
</trkpt>
<trkpt lat="43.110348" lon="19.123627">
<ele>1477.079102</ele>
<time>2012-05-01T12:14:04Z</time>
<desc>lat.=43.110348, lon.=19.123627, Alt.=1477.079102m. Speed=4.104000m/h.</desc>
<speed>1.140000</speed>
</trkpt>
<trkpt lat="43.110397" lon="19.123623">
<ele>1478.766602</ele>
<time>2012-05-01T12:14:09Z</time>
<desc>lat.=43.110397, lon.=19.123623, Alt.=1478.766602m. Speed=4.284000m/h.</desc>
<speed>1.190000</speed>
</trkpt>
<trkpt lat="43.110447" lon="19.123560">
<ele>1479.329102</ele>
<time>2012-05-01T12:14:14Z</time>
<desc>lat.=43.110447, lon.=19.123560, Alt.=1479.329102m. Speed=4.392000m/h.</desc>
<speed>1.220000</speed>
</trkpt>
<trkpt lat="43.110500" lon="19.123522">
<ele>1480.391602</ele>
<time>2012-05-01T12:14:19Z</time>
<desc>lat.=43.110500, lon.=19.123522, Alt.=1480.391602m. Speed=3.492000m/h.</desc>
<speed>0.970000</speed>
</trkpt>
<trkpt lat="43.110542" lon="19.123461">
<ele>1482.641602</ele>
<time>2012-05-01T12:14:24Z</time>
<desc>lat.=43.110542, lon.=19.123461, Alt.=1482.641602m. Speed=6.336000m/h.</desc>
<speed>1.760000</speed>
</trkpt>
<trkpt lat="43.110607" lon="19.123390">
<ele>1484.172852</ele>
<time>2012-05-01T12:14:29Z</time>
<desc>lat.=43.110607, lon.=19.123390, Alt.=1484.172852m. Speed=5.616000m/h.</desc>
<speed>1.560000</speed>
</trkpt>
<trkpt lat="43.110668" lon="19.123308">
<ele>1483.204102</ele>
<time>2012-05-01T12:14:34Z</time>
<desc>lat.=43.110668, lon.=19.123308, Alt.=1483.204102m. Speed=4.248000m/h.</desc>
<speed>1.180000</speed>
</trkpt>
<trkpt lat="43.110748" lon="19.123209">
<ele>1481.672852</ele>
<time>2012-05-01T12:14:39Z</time>
<desc>lat.=43.110748, lon.=19.123209, Alt.=1481.672852m. Speed=7.380000m/h.</desc>
<speed>2.050000</speed>
</trkpt>
<trkpt lat="43.110828" lon="19.123114">
<ele>1480.547852</ele>
<time>2012-05-01T12:14:44Z</time>
<desc>lat.=43.110828, lon.=19.123114, Alt.=1480.547852m. Speed=6.660000m/h.</desc>
<speed>1.850000</speed>
</trkpt>
<trkpt lat="43.110912" lon="19.123003">
<ele>1480.391602</ele>
<time>2012-05-01T12:14:49Z</time>
<desc>lat.=43.110912, lon.=19.123003, Alt.=1480.391602m. Speed=6.948000m/h.</desc>
<speed>1.930000</speed>
</trkpt>
<trkpt lat="43.110981" lon="19.122908">
<ele>1480.172852</ele>
<time>2012-05-01T12:14:54Z</time>
<desc>lat.=43.110981, lon.=19.122908, Alt.=1480.172852m. Speed=7.668000m/h.</desc>
<speed>2.130000</speed>
</trkpt>
<trkpt lat="43.111061" lon="19.122826">
<ele>1480.766602</ele>
<time>2012-05-01T12:14:59Z</time>
<desc>lat.=43.111061, lon.=19.122826, Alt.=1480.766602m. Speed=7.308000m/h.</desc>
<speed>2.030000</speed>
</trkpt>
<trkpt lat="43.111145" lon="19.122768">
<ele>1481.485352</ele>
<time>2012-05-01T12:15:04Z</time>
<desc>lat.=43.111145, lon.=19.122768, Alt.=1481.485352m. Speed=6.552000m/h.</desc>
<speed>1.820000</speed>
</trkpt>
<trkpt lat="43.111221" lon="19.122692">
<ele>1482.266602</ele>
<time>2012-05-01T12:15:09Z</time>
<desc>lat.=43.111221, lon.=19.122692, Alt.=1482.266602m. Speed=6.696000m/h.</desc>
<speed>1.860000</speed>
</trkpt>
<trkpt lat="43.111301" lon="19.122623">
<ele>1483.141602</ele>
<time>2012-05-01T12:15:14Z</time>
<desc>lat.=43.111301, lon.=19.122623, Alt.=1483.141602m. Speed=7.308000m/h.</desc>
<speed>2.030000</speed>
</trkpt>
<trkpt lat="43.111382" lon="19.122568">
<ele>1484.610352</ele>
<time>2012-05-01T12:15:19Z</time>
<desc>lat.=43.111382, lon.=19.122568, Alt.=1484.610352m. Speed=6.120000m/h.</desc>
<speed>1.700000</speed>
</trkpt>
<trkpt lat="43.111454" lon="19.122496">
<ele>1485.329102</ele>
<time>2012-05-01T12:15:24Z</time>
<desc>lat.=43.111454, lon.=19.122496, Alt.=1485.329102m. Speed=5.904000m/h.</desc>
<speed>1.640000</speed>
</trkpt>
<trkpt lat="43.111526" lon="19.122446">
<ele>1485.860352</ele>
<time>2012-05-01T12:15:29Z</time>
<desc>lat.=43.111526, lon.=19.122446, Alt.=1485.860352m. Speed=6.264000m/h.</desc>
<speed>1.740000</speed>
</trkpt>
<trkpt lat="43.111607" lon="19.122402">
<ele>1485.829102</ele>
<time>2012-05-01T12:15:34Z</time>
<desc>lat.=43.111607, lon.=19.122402, Alt.=1485.829102m. Speed=6.768000m/h.</desc>
<speed>1.880000</speed>
</trkpt>
<trkpt lat="43.111671" lon="19.122343">
<ele>1485.672852</ele>
<time>2012-05-01T12:15:39Z</time>
<desc>lat.=43.111671, lon.=19.122343, Alt.=1485.672852m. Speed=5.472000m/h.</desc>
<speed>1.520000</speed>
</trkpt>
<trkpt lat="43.111710" lon="19.122292">
<ele>1485.704102</ele>
<time>2012-05-01T12:15:44Z</time>
<desc>lat.=43.111710, lon.=19.122292, Alt.=1485.704102m. Speed=3.456000m/h.</desc>
<speed>0.960000</speed>
</trkpt>
<trkpt lat="43.111736" lon="19.122267">
<ele>1484.891602</ele>
<time>2012-05-01T12:15:49Z</time>
<desc>lat.=43.111736, lon.=19.122267, Alt.=1484.891602m. Speed=2.736000m/h.</desc>
<speed>0.760000</speed>
</trkpt>
<trkpt lat="43.111763" lon="19.122253">
<ele>1484.266602</ele>
<time>2012-05-01T12:15:54Z</time>
<desc>lat.=43.111763, lon.=19.122253, Alt.=1484.266602m. Speed=1.692000m/h.</desc>
<speed>0.470000</speed>
</trkpt>
<trkpt lat="43.111786" lon="19.122231">
<ele>1483.172852</ele>
<time>2012-05-01T12:15:59Z</time>
<desc>lat.=43.111786, lon.=19.122231, Alt.=1483.172852m. Speed=3.420000m/h.</desc>
<speed>0.950000</speed>
</trkpt>
<trkpt lat="43.111835" lon="19.122154">
<ele>1482.797852</ele>
<time>2012-05-01T12:16:04Z</time>
<desc>lat.=43.111835, lon.=19.122154, Alt.=1482.797852m. Speed=11.628000m/h.</desc>
<speed>3.230000</speed>
</trkpt>
<trkpt lat="43.111961" lon="19.121990">
<ele>1481.516602</ele>
<time>2012-05-01T12:16:09Z</time>
<desc>lat.=43.111961, lon.=19.121990, Alt.=1481.516602m. Speed=14.364000m/h.</desc>
<speed>3.990000</speed>
</trkpt>
<trkpt lat="43.112061" lon="19.121847">
<ele>1484.829102</ele>
<time>2012-05-01T12:16:14Z</time>
<desc>lat.=43.112061, lon.=19.121847, Alt.=1484.829102m. Speed=9.648000m/h.</desc>
<speed>2.680000</speed>
</trkpt>
<trkpt lat="43.112156" lon="19.121759">
<ele>1485.110352</ele>
<time>2012-05-01T12:16:19Z</time>
<desc>lat.=43.112156, lon.=19.121759, Alt.=1485.110352m. Speed=8.568000m/h.</desc>
<speed>2.380000</speed>
</trkpt>
<trkpt lat="43.112259" lon="19.121664">
<ele>1483.860352</ele>
<time>2012-05-01T12:16:24Z</time>
<desc>lat.=43.112259, lon.=19.121664, Alt.=1483.860352m. Speed=7.164000m/h.</desc>
<speed>1.990000</speed>
</trkpt>
<trkpt lat="43.112328" lon="19.121548">
<ele>1483.172852</ele>
<time>2012-05-01T12:16:29Z</time>
<desc>lat.=43.112328, lon.=19.121548, Alt.=1483.172852m. Speed=7.452000m/h.</desc>
<speed>2.070000</speed>
</trkpt>
<trkpt lat="43.112385" lon="19.121464">
<ele>1485.766602</ele>
<time>2012-05-01T12:16:34Z</time>
<desc>lat.=43.112385, lon.=19.121464, Alt.=1485.766602m. Speed=6.408000m/h.</desc>
<speed>1.780000</speed>
</trkpt>
<trkpt lat="43.112446" lon="19.121401">
<ele>1487.766602</ele>
<time>2012-05-01T12:16:39Z</time>
<desc>lat.=43.112446, lon.=19.121401, Alt.=1487.766602m. Speed=5.904000m/h.</desc>
<speed>1.640000</speed>
</trkpt>
<trkpt lat="43.112495" lon="19.121338">
<ele>1488.922852</ele>
<time>2012-05-01T12:16:44Z</time>
<desc>lat.=43.112495, lon.=19.121338, Alt.=1488.922852m. Speed=4.788000m/h.</desc>
<speed>1.330000</speed>
</trkpt>
<trkpt lat="43.112530" lon="19.121304">
<ele>1490.547852</ele>
<time>2012-05-01T12:16:49Z</time>
<desc>lat.=43.112530, lon.=19.121304, Alt.=1490.547852m. Speed=3.708000m/h.</desc>
<speed>1.030000</speed>
</trkpt>
<trkpt lat="43.112541" lon="19.121283">
<ele>1489.360352</ele>
<time>2012-05-01T12:16:54Z</time>
<desc>lat.=43.112541, lon.=19.121283, Alt.=1489.360352m. Speed=0.396000m/h.</desc>
<speed>0.110000</speed>
</trkpt>
<trkpt lat="43.112553" lon="19.121239">
<ele>1488.985352</ele>
<time>2012-05-01T12:16:59Z</time>
<desc>lat.=43.112553, lon.=19.121239, Alt.=1488.985352m. Speed=3.276000m/h.</desc>
<speed>0.910000</speed>
</trkpt>
<trkpt lat="43.112583" lon="19.121187">
<ele>1487.766602</ele>
<time>2012-05-01T12:17:04Z</time>
<desc>lat.=43.112583, lon.=19.121187, Alt.=1487.766602m. Speed=0.900000m/h.</desc>
<speed>0.250000</speed>
</trkpt>
<trkpt lat="43.112640" lon="19.121174">
<ele>1486.860352</ele>
<time>2012-05-01T12:17:09Z</time>
<desc>lat.=43.112640, lon.=19.121174, Alt.=1486.860352m. Speed=9.360000m/h.</desc>
<speed>2.600000</speed>
</trkpt>
<trkpt lat="43.112740" lon="19.121120">
<ele>1487.204102</ele>
<time>2012-05-01T12:17:14Z</time>
<desc>lat.=43.112740, lon.=19.121120, Alt.=1487.204102m. Speed=9.792000m/h.</desc>
<speed>2.720000</speed>
</trkpt>
<trkpt lat="43.112835" lon="19.121033">
<ele>1486.391602</ele>
<time>2012-05-01T12:17:19Z</time>
<desc>lat.=43.112835, lon.=19.121033, Alt.=1486.391602m. Speed=8.604000m/h.</desc>
<speed>2.390000</speed>
</trkpt>
<trkpt lat="43.112919" lon="19.120949">
<ele>1486.329102</ele>
<time>2012-05-01T12:17:24Z</time>
<desc>lat.=43.112919, lon.=19.120949, Alt.=1486.329102m. Speed=8.028000m/h.</desc>
<speed>2.230000</speed>
</trkpt>
<trkpt lat="43.112976" lon="19.120840">
<ele>1488.704102</ele>
<time>2012-05-01T12:17:29Z</time>
<desc>lat.=43.112976, lon.=19.120840, Alt.=1488.704102m. Speed=7.704000m/h.</desc>
<speed>2.140000</speed>
</trkpt>
<trkpt lat="43.113064" lon="19.120729">
<ele>1488.672852</ele>
<time>2012-05-01T12:17:34Z</time>
<desc>lat.=43.113064, lon.=19.120729, Alt.=1488.672852m. Speed=5.724000m/h.</desc>
<speed>1.590000</speed>
</trkpt>
<trkpt lat="43.113113" lon="19.120644">
<ele>1488.297852</ele>
<time>2012-05-01T12:17:39Z</time>
<desc>lat.=43.113113, lon.=19.120644, Alt.=1488.297852m. Speed=5.688000m/h.</desc>
<speed>1.580000</speed>
</trkpt>
<trkpt lat="43.113152" lon="19.120529">
<ele>1487.922852</ele>
<time>2012-05-01T12:17:44Z</time>
<desc>lat.=43.113152, lon.=19.120529, Alt.=1487.922852m. Speed=9.648000m/h.</desc>
<speed>2.680000</speed>
</trkpt>
<trkpt lat="43.113174" lon="19.120337">
<ele>1488.047852</ele>
<time>2012-05-01T12:17:49Z</time>
<desc>lat.=43.113174, lon.=19.120337, Alt.=1488.047852m. Speed=9.324000m/h.</desc>
<speed>2.590000</speed>
</trkpt>
<trkpt lat="43.113194" lon="19.120132">
<ele>1487.672852</ele>
<time>2012-05-01T12:17:54Z</time>
<desc>lat.=43.113194, lon.=19.120132, Alt.=1487.672852m. Speed=12.168000m/h.</desc>
<speed>3.380000</speed>
</trkpt>
<trkpt lat="43.113201" lon="19.119919">
<ele>1486.766602</ele>
<time>2012-05-01T12:17:59Z</time>
<desc>lat.=43.113201, lon.=19.119919, Alt.=1486.766602m. Speed=12.276000m/h.</desc>
<speed>3.410000</speed>
</trkpt>
<trkpt lat="43.113220" lon="19.119707">
<ele>1485.985352</ele>
<time>2012-05-01T12:18:04Z</time>
<desc>lat.=43.113220, lon.=19.119707, Alt.=1485.985352m. Speed=12.960000m/h.</desc>
<speed>3.600000</speed>
</trkpt>
<trkpt lat="43.113251" lon="19.119457">
<ele>1485.860352</ele>
<time>2012-05-01T12:18:09Z</time>
<desc>lat.=43.113251, lon.=19.119457, Alt.=1485.860352m. Speed=14.796000m/h.</desc>
<speed>4.110000</speed>
</trkpt>
<trkpt lat="43.113297" lon="19.119219">
<ele>1485.329102</ele>
<time>2012-05-01T12:18:14Z</time>
<desc>lat.=43.113297, lon.=19.119219, Alt.=1485.329102m. Speed=13.680000m/h.</desc>
<speed>3.800000</speed>
</trkpt>
<trkpt lat="43.113419" lon="19.119057">
<ele>1486.454102</ele>
<time>2012-05-01T12:18:19Z</time>
<desc>lat.=43.113419, lon.=19.119057, Alt.=1486.454102m. Speed=14.472000m/h.</desc>
<speed>4.020000</speed>
</trkpt>
<trkpt lat="43.113548" lon="19.118891">
<ele>1488.079102</ele>
<time>2012-05-01T12:18:24Z</time>
<desc>lat.=43.113548, lon.=19.118891, Alt.=1488.079102m. Speed=14.544000m/h.</desc>
<speed>4.040000</speed>
</trkpt>
<trkpt lat="43.113647" lon="19.118685">
<ele>1488.079102</ele>
<time>2012-05-01T12:18:29Z</time>
<desc>lat.=43.113647, lon.=19.118685, Alt.=1488.079102m. Speed=10.728000m/h.</desc>
<speed>2.980000</speed>
</trkpt>
<trkpt lat="43.113701" lon="19.118576">
<ele>1487.954102</ele>
<time>2012-05-01T12:18:34Z</time>
<desc>lat.=43.113701, lon.=19.118576, Alt.=1487.954102m. Speed=6.840000m/h.</desc>
<speed>1.900000</speed>
</trkpt>
<trkpt lat="43.113750" lon="19.118504">
<ele>1486.922852</ele>
<time>2012-05-01T12:18:39Z</time>
<desc>lat.=43.113750, lon.=19.118504, Alt.=1486.922852m. Speed=4.644000m/h.</desc>
<speed>1.290000</speed>
</trkpt>
<trkpt lat="43.113789" lon="19.118456">
<ele>1486.422852</ele>
<time>2012-05-01T12:18:44Z</time>
<desc>lat.=43.113789, lon.=19.118456, Alt.=1486.422852m. Speed=4.788000m/h.</desc>
<speed>1.330000</speed>
</trkpt>
<trkpt lat="43.113796" lon="19.118404">
<ele>1487.079102</ele>
<time>2012-05-01T12:18:49Z</time>
<desc>lat.=43.113796, lon.=19.118404, Alt.=1487.079102m. Speed=3.456000m/h.</desc>
<speed>0.960000</speed>
</trkpt>
<trkpt lat="43.113800" lon="19.118391">
<ele>1487.266602</ele>
<time>2012-05-01T12:18:54Z</time>
<desc>lat.=43.113800, lon.=19.118391, Alt.=1487.266602m. Speed=0.144000m/h.</desc>
<speed>0.040000</speed>
</trkpt>
<trkpt lat="43.113796" lon="19.118391">
<ele>1487.391602</ele>
<time>2012-05-01T12:18:59Z</time>
<desc>lat.=43.113796, lon.=19.118391, Alt.=1487.391602m. Speed=0.072000m/h.</desc>
<speed>0.020000</speed>
</trkpt>
<trkpt lat="43.113796" lon="19.118391">
<ele>1487.454102</ele>
<time>2012-05-01T12:19:04Z</time>
<desc>lat.=43.113796, lon.=19.118391, Alt.=1487.454102m. Speed=0.036000m/h.</desc>
<speed>0.010000</speed>
</trkpt>
<trkpt lat="43.113800" lon="19.118380">
<ele>1487.485352</ele>
<time>2012-05-01T12:19:09Z</time>
<desc>lat.=43.113800, lon.=19.118380, Alt.=1487.485352m. Speed=1.332000m/h.</desc>
<speed>0.370000</speed>
</trkpt>
<trkpt lat="43.113804" lon="19.118357">
<ele>1487.547852</ele>
<time>2012-05-01T12:19:14Z</time>
<desc>lat.=43.113804, lon.=19.118357, Alt.=1487.547852m. Speed=0.144000m/h.</desc>
<speed>0.040000</speed>
</trkpt>
<trkpt lat="43.113804" lon="19.118351">
<ele>1487.579102</ele>
<time>2012-05-01T12:19:19Z</time>
<desc>lat.=43.113804, lon.=19.118351, Alt.=1487.579102m. Speed=0.288000m/h.</desc>
<speed>0.080000</speed>
</trkpt>
<trkpt lat="43.113804" lon="19.118351">
<ele>1487.704102</ele>
<time>2012-05-01T12:19:24Z</time>
<desc>lat.=43.113804, lon.=19.118351, Alt.=1487.704102m. Speed=0.036000m/h.</desc>
<speed>0.010000</speed>
</trkpt>
<trkpt lat="43.113804" lon="19.118353">
<ele>1487.891602</ele>
<time>2012-05-01T12:19:29Z</time>
<desc>lat.=43.113804, lon.=19.118353, Alt.=1487.891602m. Speed=0.036000m/h.</desc>
<speed>0.010000</speed>
</trkpt>
<trkpt lat="43.113800" lon="19.118353">
<ele>1487.985352</ele>
<time>2012-05-01T12:19:34Z</time>
<desc>lat.=43.113800, lon.=19.118353, Alt.=1487.985352m. Speed=0.000000m/h.</desc>
<speed>0.000000</speed>
</trkpt>
<trkpt lat="43.113800" lon="19.118353">
<ele>1487.985352</ele>
<time>2012-05-01T12:19:39Z</time>
<desc>lat.=43.113800, lon.=19.118353, Alt.=1487.985352m. Speed=0.000000m/h.</desc>
<speed>0.000000</speed>
</trkpt>
<trkpt lat="43.113800" lon="19.118353">
<ele>1487.985352</ele>
<time>2012-05-01T12:19:44Z</time>
<desc>lat.=43.113800, lon.=19.118353, Alt.=1487.985352m. Speed=0.000000m/h.</desc>
<speed>0.000000</speed>
</trkpt>
<trkpt lat="43.113800" lon="19.118353">
<ele>1488.016602</ele>
<time>2012-05-01T12:19:49Z</time>
<desc>lat.=43.113800, lon.=19.118353, Alt.=1488.016602m. Speed=0.000000m/h.</desc>
<speed>0.000000</speed>
</trkpt>
<trkpt lat="43.113800" lon="19.118353">
<ele>1488.016602</ele>
<time>2012-05-01T12:19:54Z</time>
<desc>lat.=43.113800, lon.=19.118353, Alt.=1488.016602m. Speed=0.000000m/h.</desc>
<speed>0.000000</speed>
</trkpt>
<trkpt lat="43.113800" lon="19.118353">
<ele>1488.016602</ele>
<time>2012-05-01T12:19:59Z</time>
<desc>lat.=43.113800, lon.=19.118353, Alt.=1488.016602m. Speed=0.036000m/h.</desc>
<speed>0.010000</speed>
</trkpt>
<trkpt lat="43.113800" lon="19.118353">
<ele>1488.047852</ele>
<time>2012-05-01T12:20:04Z</time>
<desc>lat.=43.113800, lon.=19.118353, Alt.=1488.047852m. Speed=0.000000m/h.</desc>
<speed>0.000000</speed>
</trkpt>
<trkpt lat="43.113800" lon="19.118353">
<ele>1488.079102</ele>
<time>2012-05-01T12:20:09Z</time>
<desc>lat.=43.113800, lon.=19.118353, Alt.=1488.079102m. Speed=0.036000m/h.</desc>
<speed>0.010000</speed>
</trkpt>
<trkpt lat="43.113800" lon="19.118353">
<ele>1488.110352</ele>
<time>2012-05-01T12:20:14Z</time>
<desc>lat.=43.113800, lon.=19.118353, Alt.=1488.110352m. Speed=0.144000m/h.</desc>
<speed>0.040000</speed>
</trkpt>
<trkpt lat="43.113800" lon="19.118353">
<ele>1488.141602</ele>
<time>2012-05-01T12:20:19Z</time>
<desc>lat.=43.113800, lon.=19.118353, Alt.=1488.141602m. Speed=0.000000m/h.</desc>
<speed>0.000000</speed>
</trkpt>
<trkpt lat="43.113800" lon="19.118353">
<ele>1488.172852</ele>
<time>2012-05-01T12:20:24Z</time>
<desc>lat.=43.113800, lon.=19.118353, Alt.=1488.172852m. Speed=0.000000m/h.</desc>
<speed>0.000000</speed>
</trkpt>
<trkpt lat="43.113800" lon="19.118353">
<ele>1488.235352</ele>
<time>2012-05-01T12:20:29Z</time>
<desc>lat.=43.113800, lon.=19.118353, Alt.=1488.235352m. Speed=0.000000m/h.</desc>
<speed>0.000000</speed>
</trkpt>
<trkpt lat="43.113800" lon="19.118353">
<ele>1488.297852</ele>
<time>2012-05-01T12:20:34Z</time>
<desc>lat.=43.113800, lon.=19.118353, Alt.=1488.297852m. Speed=0.000000m/h.</desc>
<speed>0.000000</speed>
</trkpt>
<trkpt lat="43.113850" lon="19.118322">
<ele>1488.922852</ele>
<time>2012-05-01T12:20:39Z</time>
<desc>lat.=43.113850, lon.=19.118322, Alt.=1488.922852m. Speed=9.324000m/h.</desc>
<speed>2.590000</speed>
</trkpt>
<trkpt lat="43.114010" lon="19.118200">
<ele>1488.391602</ele>
<time>2012-05-01T12:20:44Z</time>
<desc>lat.=43.114010, lon.=19.118200, Alt.=1488.391602m. Speed=19.548000m/h.</desc>
<speed>5.430000</speed>
</trkpt>
<trkpt lat="43.114277" lon="19.118061">
<ele>1487.360352</ele>
<time>2012-05-01T12:20:49Z</time>
<desc>lat.=43.114277, lon.=19.118061, Alt.=1487.360352m. Speed=24.552000m/h.</desc>
<speed>6.820000</speed>
</trkpt>
<trkpt lat="43.114563" lon="19.117783">
<ele>1483.235352</ele>
<time>2012-05-01T12:20:54Z</time>
<desc>lat.=43.114563, lon.=19.117783, Alt.=1483.235352m. Speed=24.948000m/h.</desc>
<speed>6.930000</speed>
</trkpt>
<trkpt lat="43.114788" lon="19.117546">
<ele>1483.422852</ele>
<time>2012-05-01T12:20:59Z</time>
<desc>lat.=43.114788, lon.=19.117546, Alt.=1483.422852m. Speed=20.052000m/h.</desc>
<speed>5.570000</speed>
</trkpt>
<trkpt lat="43.114986" lon="19.117392">
<ele>1485.047852</ele>
<time>2012-05-01T12:21:04Z</time>
<desc>lat.=43.114986, lon.=19.117392, Alt.=1485.047852m. Speed=16.091999m/h.</desc>
<speed>4.470000</speed>
</trkpt>
<trkpt lat="43.115147" lon="19.117279">
<ele>1486.391602</ele>
<time>2012-05-01T12:21:09Z</time>
<desc>lat.=43.115147, lon.=19.117279, Alt.=1486.391602m. Speed=14.292000m/h.</desc>
<speed>3.970000</speed>
</trkpt>
<trkpt lat="43.115299" lon="19.117134">
<ele>1487.391602</ele>
<time>2012-05-01T12:21:14Z</time>
<desc>lat.=43.115299, lon.=19.117134, Alt.=1487.391602m. Speed=15.192000m/h.</desc>
<speed>4.220000</speed>
</trkpt>
<trkpt lat="43.115421" lon="19.116999">
<ele>1488.360352</ele>
<time>2012-05-01T12:21:19Z</time>
<desc>lat.=43.115421, lon.=19.116999, Alt.=1488.360352m. Speed=13.176000m/h.</desc>
<speed>3.660000</speed>
</trkpt>
<trkpt lat="43.115513" lon="19.116879">
<ele>1490.047852</ele>
<time>2012-05-01T12:21:24Z</time>
<desc>lat.=43.115513, lon.=19.116879, Alt.=1490.047852m. Speed=10.620000m/h.</desc>
<speed>2.950000</speed>
</trkpt>
<trkpt lat="43.115601" lon="19.116747">
<ele>1491.141602</ele>
<time>2012-05-01T12:21:29Z</time>
<desc>lat.=43.115601, lon.=19.116747, Alt.=1491.141602m. Speed=10.728000m/h.</desc>
<speed>2.980000</speed>
</trkpt>
<trkpt lat="43.115685" lon="19.116627">
<ele>1492.235352</ele>
<time>2012-05-01T12:21:34Z</time>
<desc>lat.=43.115685, lon.=19.116627, Alt.=1492.235352m. Speed=10.188000m/h.</desc>
<speed>2.830000</speed>
</trkpt>
<trkpt lat="43.115772" lon="19.116512">
<ele>1493.547852</ele>
<time>2012-05-01T12:21:39Z</time>
<desc>lat.=43.115772, lon.=19.116512, Alt.=1493.547852m. Speed=8.064000m/h.</desc>
<speed>2.240000</speed>
</trkpt>
<trkpt lat="43.115829" lon="19.116386">
<ele>1495.360352</ele>
<time>2012-05-01T12:21:44Z</time>
<desc>lat.=43.115829, lon.=19.116386, Alt.=1495.360352m. Speed=8.604000m/h.</desc>
<speed>2.390000</speed>
</trkpt>
<trkpt lat="43.115879" lon="19.116272">
<ele>1496.172852</ele>
<time>2012-05-01T12:21:49Z</time>
<desc>lat.=43.115879, lon.=19.116272, Alt.=1496.172852m. Speed=8.712000m/h.</desc>
<speed>2.420000</speed>
</trkpt>
<trkpt lat="43.115917" lon="19.116154">
<ele>1497.016602</ele>
<time>2012-05-01T12:21:54Z</time>
<desc>lat.=43.115917, lon.=19.116154, Alt.=1497.016602m. Speed=7.164000m/h.</desc>
<speed>1.990000</speed>
</trkpt>
<trkpt lat="43.115948" lon="19.116064">
<ele>1496.766602</ele>
<time>2012-05-01T12:21:59Z</time>
<desc>lat.=43.115948, lon.=19.116064, Alt.=1496.766602m. Speed=4.788000m/h.</desc>
<speed>1.330000</speed>
</trkpt>
<trkpt lat="43.115993" lon="19.115936">
<ele>1494.985352</ele>
<time>2012-05-01T12:22:04Z</time>
<desc>lat.=43.115993, lon.=19.115936, Alt.=1494.985352m. Speed=10.152000m/h.</desc>
<speed>2.820000</speed>
</trkpt>
<trkpt lat="43.116039" lon="19.115700">
<ele>1493.016602</ele>
<time>2012-05-01T12:22:09Z</time>
<desc>lat.=43.116039, lon.=19.115700, Alt.=1493.016602m. Speed=19.188000m/h.</desc>
<speed>5.330000</speed>
</trkpt>
<trkpt lat="43.116074" lon="19.115248">
<ele>1489.204102</ele>
<time>2012-05-01T12:22:14Z</time>
<desc>lat.=43.116074, lon.=19.115248, Alt.=1489.204102m. Speed=32.543999m/h.</desc>
<speed>9.040000</speed>
</trkpt>
<trkpt lat="43.116119" lon="19.114635">
<ele>1486.485352</ele>
<time>2012-05-01T12:22:19Z</time>
<desc>lat.=43.116119, lon.=19.114635, Alt.=1486.485352m. Speed=36.504002m/h.</desc>
<speed>10.140000</speed>
</trkpt>
<trkpt lat="43.116337" lon="19.114100">
<ele>1484.391602</ele>
<time>2012-05-01T12:22:24Z</time>
<desc>lat.=43.116337, lon.=19.114100, Alt.=1484.391602m. Speed=35.712002m/h.</desc>
<speed>9.920001</speed>
</trkpt>
<trkpt lat="43.116703" lon="19.113756">
<ele>1483.735352</ele>
<time>2012-05-01T12:22:29Z</time>
<desc>lat.=43.116703, lon.=19.113756, Alt.=1483.735352m. Speed=33.768002m/h.</desc>
<speed>9.380000</speed>
</trkpt>
<trkpt lat="43.117043" lon="19.113573">
<ele>1483.579102</ele>
<time>2012-05-01T12:22:34Z</time>
<desc>lat.=43.117043, lon.=19.113573, Alt.=1483.579102m. Speed=22.356001m/h.</desc>
<speed>6.210000</speed>
</trkpt>
<trkpt lat="43.117237" lon="19.113403">
<ele>1486.547852</ele>
<time>2012-05-01T12:22:39Z</time>
<desc>lat.=43.117237, lon.=19.113403, Alt.=1486.547852m. Speed=14.292000m/h.</desc>
<speed>3.970000</speed>
</trkpt>
<trkpt lat="43.117363" lon="19.113245">
<ele>1486.766602</ele>
<time>2012-05-01T12:22:44Z</time>
<desc>lat.=43.117363, lon.=19.113245, Alt.=1486.766602m. Speed=7.344000m/h.</desc>
<speed>2.040000</speed>
</trkpt>
<trkpt lat="43.117455" lon="19.113142">
<ele>1485.860352</ele>
<time>2012-05-01T12:22:49Z</time>
<desc>lat.=43.117455, lon.=19.113142, Alt.=1485.860352m. Speed=9.864000m/h.</desc>
<speed>2.740000</speed>
</trkpt>
<trkpt lat="43.117531" lon="19.113077">
<ele>1485.579102</ele>
<time>2012-05-01T12:22:54Z</time>
<desc>lat.=43.117531, lon.=19.113077, Alt.=1485.579102m. Speed=7.056000m/h.</desc>
<speed>1.960000</speed>
</trkpt>
<trkpt lat="43.117599" lon="19.113010">
<ele>1485.860352</ele>
<time>2012-05-01T12:22:59Z</time>
<desc>lat.=43.117599, lon.=19.113010, Alt.=1485.860352m. Speed=7.596000m/h.</desc>
<speed>2.110000</speed>
</trkpt>
<trkpt lat="43.117672" lon="19.112911">
<ele>1487.985352</ele>
<time>2012-05-01T12:23:04Z</time>
<desc>lat.=43.117672, lon.=19.112911, Alt.=1487.985352m. Speed=7.740000m/h.</desc>
<speed>2.150000</speed>
</trkpt>
<trkpt lat="43.117725" lon="19.112818">
<ele>1489.141602</ele>
<time>2012-05-01T12:23:09Z</time>
<desc>lat.=43.117725, lon.=19.112818, Alt.=1489.141602m. Speed=7.164000m/h.</desc>
<speed>1.990000</speed>
</trkpt>
<trkpt lat="43.117775" lon="19.112719">
<ele>1491.422852</ele>
<time>2012-05-01T12:23:14Z</time>
<desc>lat.=43.117775, lon.=19.112719, Alt.=1491.422852m. Speed=7.920000m/h.</desc>
<speed>2.200000</speed>
</trkpt>
<trkpt lat="43.117825" lon="19.112583">
<ele>1492.891602</ele>
<time>2012-05-01T12:23:19Z</time>
<desc>lat.=43.117825, lon.=19.112583, Alt.=1492.891602m. Speed=8.568000m/h.</desc>
<speed>2.380000</speed>
</trkpt>
<trkpt lat="43.117874" lon="19.112465">
<ele>1495.797852</ele>
<time>2012-05-01T12:23:24Z</time>
<desc>lat.=43.117874, lon.=19.112465, Alt.=1495.797852m. Speed=9.576000m/h.</desc>
<speed>2.660000</speed>
</trkpt>
<trkpt lat="43.117981" lon="19.112347">
<ele>1496.141602</ele>
<time>2012-05-01T12:23:29Z</time>
<desc>lat.=43.117981, lon.=19.112347, Alt.=1496.141602m. Speed=12.996000m/h.</desc>
<speed>3.610000</speed>
</trkpt>
<trkpt lat="43.118111" lon="19.112242">
<ele>1498.329102</ele>
<time>2012-05-01T12:23:34Z</time>
<desc>lat.=43.118111, lon.=19.112242, Alt.=1498.329102m. Speed=10.260000m/h.</desc>
<speed>2.850000</speed>
</trkpt>
<trkpt lat="43.118210" lon="19.112141">
<ele>1501.922852</ele>
<time>2012-05-01T12:23:39Z</time>
<desc>lat.=43.118210, lon.=19.112141, Alt.=1501.922852m. Speed=10.980000m/h.</desc>
<speed>3.050000</speed>
</trkpt>
<trkpt lat="43.118324" lon="19.112024">
<ele>1501.016602</ele>
<time>2012-05-01T12:23:44Z</time>
<desc>lat.=43.118324, lon.=19.112024, Alt.=1501.016602m. Speed=8.676000m/h.</desc>
<speed>2.410000</speed>
</trkpt>
<trkpt lat="43.118423" lon="19.111910">
<ele>1501.235352</ele>
<time>2012-05-01T12:23:49Z</time>
<desc>lat.=43.118423, lon.=19.111910, Alt.=1501.235352m. Speed=10.476000m/h.</desc>
<speed>2.910000</speed>
</trkpt>
<trkpt lat="43.118523" lon="19.111790">
<ele>1497.891602</ele>
<time>2012-05-01T12:23:54Z</time>
<desc>lat.=43.118523, lon.=19.111790, Alt.=1497.891602m. Speed=7.416000m/h.</desc>
<speed>2.060000</speed>
</trkpt>
<trkpt lat="43.118656" lon="19.111654">
<ele>1497.797852</ele>
<time>2012-05-01T12:23:59Z</time>
<desc>lat.=43.118656, lon.=19.111654, Alt.=1497.797852m. Speed=12.600000m/h.</desc>
<speed>3.500000</speed>
</trkpt>
<trkpt lat="43.118778" lon="19.111509">
<ele>1497.360352</ele>
<time>2012-05-01T12:24:04Z</time>
<desc>lat.=43.118778, lon.=19.111509, Alt.=1497.360352m. Speed=12.204000m/h.</desc>
<speed>3.390000</speed>
</trkpt>
<trkpt lat="43.118870" lon="19.111355">
<ele>1498.141602</ele>
<time>2012-05-01T12:24:09Z</time>
<desc>lat.=43.118870, lon.=19.111355, Alt.=1498.141602m. Speed=10.152000m/h.</desc>
<speed>2.820000</speed>
</trkpt>
<trkpt lat="43.118938" lon="19.111221">
<ele>1498.985352</ele>
<time>2012-05-01T12:24:14Z</time>
<desc>lat.=43.118938, lon.=19.111221, Alt.=1498.985352m. Speed=13.140000m/h.</desc>
<speed>3.650000</speed>
</trkpt>
<trkpt lat="43.119034" lon="19.111055">
<ele>1498.672852</ele>
<time>2012-05-01T12:24:19Z</time>
<desc>lat.=43.119034, lon.=19.111055, Alt.=1498.672852m. Speed=10.152000m/h.</desc>
<speed>2.820000</speed>
</trkpt>
<trkpt lat="43.119118" lon="19.110920">
<ele>1498.610352</ele>
<time>2012-05-01T12:24:24Z</time>
<desc>lat.=43.119118, lon.=19.110920, Alt.=1498.610352m. Speed=10.080000m/h.</desc>
<speed>2.800000</speed>
</trkpt>
<trkpt lat="43.119205" lon="19.110786">
<ele>1497.797852</ele>
<time>2012-05-01T12:24:29Z</time>
<desc>lat.=43.119205, lon.=19.110786, Alt.=1497.797852m. Speed=9.432000m/h.</desc>
<speed>2.620000</speed>
</trkpt>
<trkpt lat="43.119267" lon="19.110645">
<ele>1497.891602</ele>
<time>2012-05-01T12:24:34Z</time>
<desc>lat.=43.119267, lon.=19.110645, Alt.=1497.891602m. Speed=7.452000m/h.</desc>
<speed>2.070000</speed>
</trkpt>
<trkpt lat="43.119324" lon="19.110525">
<ele>1498.204102</ele>
<time>2012-05-01T12:24:39Z</time>
<desc>lat.=43.119324, lon.=19.110525, Alt.=1498.204102m. Speed=7.200000m/h.</desc>
<speed>2.000000</speed>
</trkpt>
<trkpt lat="43.119377" lon="19.110430">
<ele>1497.797852</ele>
<time>2012-05-01T12:24:44Z</time>
<desc>lat.=43.119377, lon.=19.110430, Alt.=1497.797852m. Speed=7.668000m/h.</desc>
<speed>2.130000</speed>
</trkpt>
<trkpt lat="43.119442" lon="19.110321">
<ele>1498.172852</ele>
<time>2012-05-01T12:24:49Z</time>
<desc>lat.=43.119442, lon.=19.110321, Alt.=1498.172852m. Speed=7.020000m/h.</desc>
<speed>1.950000</speed>
</trkpt>
<trkpt lat="43.119514" lon="19.110228">
<ele>1497.891602</ele>
<time>2012-05-01T12:24:54Z</time>
<desc>lat.=43.119514, lon.=19.110228, Alt.=1497.891602m. Speed=9.180000m/h.</desc>
<speed>2.550000</speed>
</trkpt>
<trkpt lat="43.119595" lon="19.110085">
<ele>1497.860352</ele>
<time>2012-05-01T12:24:59Z</time>
<desc>lat.=43.119595, lon.=19.110085, Alt.=1497.860352m. Speed=10.368000m/h.</desc>
<speed>2.880000</speed>
</trkpt>
<trkpt lat="43.119663" lon="19.109953">
<ele>1497.047852</ele>
<time>2012-05-01T12:25:04Z</time>
<desc>lat.=43.119663, lon.=19.109953, Alt.=1497.047852m. Speed=8.208000m/h.</desc>
<speed>2.280000</speed>
</trkpt>
<trkpt lat="43.119713" lon="19.109903">
<ele>1498.797852</ele>
<time>2012-05-01T12:25:09Z</time>
<desc>lat.=43.119713, lon.=19.109903, Alt.=1498.797852m. Speed=8.460000m/h.</desc>
<speed>2.350000</speed>
</trkpt>
<trkpt lat="43.119781" lon="19.109818">
<ele>1499.485352</ele>
<time>2012-05-01T12:25:14Z</time>
<desc>lat.=43.119781, lon.=19.109818, Alt.=1499.485352m. Speed=6.912000m/h.</desc>
<speed>1.920000</speed>
</trkpt>
<trkpt lat="43.119858" lon="19.109770">
<ele>1500.579102</ele>
<time>2012-05-01T12:25:19Z</time>
<desc>lat.=43.119858, lon.=19.109770, Alt.=1500.579102m. Speed=5.904000m/h.</desc>
<speed>1.640000</speed>
</trkpt>
<trkpt lat="43.119930" lon="19.109747">
<ele>1502.016602</ele>
<time>2012-05-01T12:25:24Z</time>
<desc>lat.=43.119930, lon.=19.109747, Alt.=1502.016602m. Speed=6.192000m/h.</desc>
<speed>1.720000</speed>
</trkpt>
<trkpt lat="43.119991" lon="19.109713">
<ele>1502.891602</ele>
<time>2012-05-01T12:25:29Z</time>
<desc>lat.=43.119991, lon.=19.109713, Alt.=1502.891602m. Speed=6.120000m/h.</desc>
<speed>1.700000</speed>
</trkpt>
<trkpt lat="43.120075" lon="19.109697">
<ele>1504.235352</ele>
<time>2012-05-01T12:25:34Z</time>
<desc>lat.=43.120075, lon.=19.109697, Alt.=1504.235352m. Speed=6.408000m/h.</desc>
<speed>1.780000</speed>
</trkpt>
<trkpt lat="43.120152" lon="19.109636">
<ele>1505.141602</ele>
<time>2012-05-01T12:25:39Z</time>
<desc>lat.=43.120152, lon.=19.109636, Alt.=1505.141602m. Speed=6.732000m/h.</desc>
<speed>1.870000</speed>
</trkpt>
<trkpt lat="43.120228" lon="19.109606">
<ele>1507.016602</ele>
<time>2012-05-01T12:25:44Z</time>
<desc>lat.=43.120228, lon.=19.109606, Alt.=1507.016602m. Speed=6.156000m/h.</desc>
<speed>1.710000</speed>
</trkpt>
<trkpt lat="43.120300" lon="19.109571">
<ele>1508.516602</ele>
<time>2012-05-01T12:25:49Z</time>
<desc>lat.=43.120300, lon.=19.109571, Alt.=1508.516602m. Speed=6.408000m/h.</desc>
<speed>1.780000</speed>
</trkpt>
<trkpt lat="43.120365" lon="19.109571">
<ele>1510.610352</ele>
<time>2012-05-01T12:25:54Z</time>
<desc>lat.=43.120365, lon.=19.109571, Alt.=1510.610352m. Speed=5.904000m/h.</desc>
<speed>1.640000</speed>
</trkpt>
<trkpt lat="43.120434" lon="19.109552">
<ele>1511.641602</ele>
<time>2012-05-01T12:25:59Z</time>
<desc>lat.=43.120434, lon.=19.109552, Alt.=1511.641602m. Speed=6.048000m/h.</desc>
<speed>1.680000</speed>
</trkpt>
<trkpt lat="43.120510" lon="19.109522">
<ele>1512.391602</ele>
<time>2012-05-01T12:26:04Z</time>
<desc>lat.=43.120510, lon.=19.109522, Alt.=1512.391602m. Speed=5.112000m/h.</desc>
<speed>1.420000</speed>
</trkpt>
<trkpt lat="43.120590" lon="19.109491">
<ele>1512.829102</ele>
<time>2012-05-01T12:26:09Z</time>
<desc>lat.=43.120590, lon.=19.109491, Alt.=1512.829102m. Speed=6.372000m/h.</desc>
<speed>1.770000</speed>
</trkpt>
<trkpt lat="43.120678" lon="19.109455">
<ele>1512.922852</ele>
<time>2012-05-01T12:26:14Z</time>
<desc>lat.=43.120678, lon.=19.109455, Alt.=1512.922852m. Speed=6.300000m/h.</desc>
<speed>1.750000</speed>
</trkpt>
<trkpt lat="43.120762" lon="19.109411">
<ele>1513.516602</ele>
<time>2012-05-01T12:26:19Z</time>
<desc>lat.=43.120762, lon.=19.109411, Alt.=1513.516602m. Speed=6.552000m/h.</desc>
<speed>1.820000</speed>
</trkpt>
<trkpt lat="43.120842" lon="19.109386">
<ele>1515.110352</ele>
<time>2012-05-01T12:26:24Z</time>
<desc>lat.=43.120842, lon.=19.109386, Alt.=1515.110352m. Speed=6.660000m/h.</desc>
<speed>1.850000</speed>
</trkpt>
<trkpt lat="43.120903" lon="19.109377">
<ele>1515.891602</ele>
<time>2012-05-01T12:26:29Z</time>
<desc>lat.=43.120903, lon.=19.109377, Alt.=1515.891602m. Speed=6.228000m/h.</desc>
<speed>1.730000</speed>
</trkpt>
<trkpt lat="43.120991" lon="19.109331">
<ele>1515.235352</ele>
<time>2012-05-01T12:26:34Z</time>
<desc>lat.=43.120991, lon.=19.109331, Alt.=1515.235352m. Speed=6.300000m/h.</desc>
<speed>1.750000</speed>
</trkpt>
<trkpt lat="43.121071" lon="19.109304">
<ele>1515.641602</ele>
<time>2012-05-01T12:26:39Z</time>
<desc>lat.=43.121071, lon.=19.109304, Alt.=1515.641602m. Speed=6.804000m/h.</desc>
<speed>1.890000</speed>
</trkpt>
<trkpt lat="43.121128" lon="19.109331">
<ele>1519.422852</ele>
<time>2012-05-01T12:26:44Z</time>
<desc>lat.=43.121128, lon.=19.109331, Alt.=1519.422852m. Speed=6.984000m/h.</desc>
<speed>1.940000</speed>
</trkpt>
<trkpt lat="43.121212" lon="19.109306">
<ele>1520.547852</ele>
<time>2012-05-01T12:26:49Z</time>
<desc>lat.=43.121212, lon.=19.109306, Alt.=1520.547852m. Speed=6.984000m/h.</desc>
<speed>1.940000</speed>
</trkpt>
<trkpt lat="43.121292" lon="19.109295">
<ele>1521.204102</ele>
<time>2012-05-01T12:26:54Z</time>
<desc>lat.=43.121292, lon.=19.109295, Alt.=1521.204102m. Speed=6.228000m/h.</desc>
<speed>1.730000</speed>
</trkpt>
<trkpt lat="43.121368" lon="19.109266">
<ele>1521.579102</ele>
<time>2012-05-01T12:26:59Z</time>
<desc>lat.=43.121368, lon.=19.109266, Alt.=1521.579102m. Speed=5.508000m/h.</desc>
<speed>1.530000</speed>
</trkpt>
<trkpt lat="43.121441" lon="19.109249">
<ele>1522.266602</ele>
<time>2012-05-01T12:27:04Z</time>
<desc>lat.=43.121441, lon.=19.109249, Alt.=1522.266602m. Speed=5.796000m/h.</desc>
<speed>1.610000</speed>
</trkpt>
<trkpt lat="43.121490" lon="19.109243">
<ele>1522.172852</ele>
<time>2012-05-01T12:27:09Z</time>
<desc>lat.=43.121490, lon.=19.109243, Alt.=1522.172852m. Speed=0.144000m/h.</desc>
<speed>0.040000</speed>
</trkpt>
<trkpt lat="43.121490" lon="19.109240">
<ele>1521.860352</ele>
<time>2012-05-01T12:27:14Z</time>
<desc>lat.=43.121490, lon.=19.109240, Alt.=1521.860352m. Speed=0.036000m/h.</desc>
<speed>0.010000</speed>
</trkpt>
<trkpt lat="43.121490" lon="19.109241">
<ele>1521.954102</ele>
<time>2012-05-01T12:27:19Z</time>
<desc>lat.=43.121490, lon.=19.109241, Alt.=1521.954102m. Speed=0.000000m/h.</desc>
<speed>0.000000</speed>
</trkpt>
<trkpt lat="43.121490" lon="19.109241">
<ele>1521.985352</ele>
<time>2012-05-01T12:27:24Z</time>
<desc>lat.=43.121490, lon.=19.109241, Alt.=1521.985352m. Speed=0.072000m/h.</desc>
<speed>0.020000</speed>
</trkpt>
<trkpt lat="43.121487" lon="19.109243">
<ele>1521.985352</ele>
<time>2012-05-01T12:27:29Z</time>
<desc>lat.=43.121487, lon.=19.109243, Alt.=1521.985352m. Speed=0.000000m/h.</desc>
<speed>0.000000</speed>
</trkpt>
<trkpt lat="43.121490" lon="19.109243">
<ele>1521.954102</ele>
<time>2012-05-01T12:27:34Z</time>
<desc>lat.=43.121490, lon.=19.109243, Alt.=1521.954102m. Speed=0.036000m/h.</desc>
<speed>0.010000</speed>
</trkpt>
<trkpt lat="43.121490" lon="19.109243">
<ele>1521.922852</ele>
<time>2012-05-01T12:27:39Z</time>
<desc>lat.=43.121490, lon.=19.109243, Alt.=1521.922852m. Speed=0.108000m/h.</desc>
<speed>0.030000</speed>
</trkpt>
<trkpt lat="43.121490" lon="19.109243">
<ele>1521.891602</ele>
<time>2012-05-01T12:27:44Z</time>
<desc>lat.=43.121490, lon.=19.109243, Alt.=1521.891602m. Speed=0.144000m/h.</desc>
<speed>0.040000</speed>
</trkpt>
<trkpt lat="43.121490" lon="19.109243">
<ele>1521.891602</ele>
<time>2012-05-01T12:27:49Z</time>
<desc>lat.=43.121490, lon.=19.109243, Alt.=1521.891602m. Speed=0.000000m/h.</desc>
<speed>0.000000</speed>
</trkpt>
<trkpt lat="43.121490" lon="19.109243">
<ele>1521.891602</ele>
<time>2012-05-01T12:27:54Z</time>
<desc>lat.=43.121490, lon.=19.109243, Alt.=1521.891602m. Speed=0.000000m/h.</desc>
<speed>0.000000</speed>
</trkpt>
<trkpt lat="43.121490" lon="19.109243">
<ele>1521.954102</ele>
<time>2012-05-01T12:27:59Z</time>
<desc>lat.=43.121490, lon.=19.109243, Alt.=1521.954102m. Speed=0.036000m/h.</desc>
<speed>0.010000</speed>
</trkpt>
<trkpt lat="43.121490" lon="19.109243">
<ele>1521.954102</ele>
<time>2012-05-01T12:28:04Z</time>
<desc>lat.=43.121490, lon.=19.109243, Alt.=1521.954102m. Speed=0.072000m/h.</desc>
<speed>0.020000</speed>
</trkpt>
<trkpt lat="43.121490" lon="19.109243">
<ele>1521.954102</ele>
<time>2012-05-01T12:28:09Z</time>
<desc>lat.=43.121490, lon.=19.109243, Alt.=1521.954102m. Speed=0.000000m/h.</desc>
<speed>0.000000</speed>
</trkpt>
<trkpt lat="43.121490" lon="19.109243">
<ele>1521.954102</ele>
<time>2012-05-01T12:28:14Z</time>
<desc>lat.=43.121490, lon.=19.109243, Alt.=1521.954102m. Speed=0.000000m/h.</desc>
<speed>0.000000</speed>
</trkpt>
<trkpt lat="43.121490" lon="19.109243">
<ele>1521.954102</ele>
<time>2012-05-01T12:28:19Z</time>
<desc>lat.=43.121490, lon.=19.109243, Alt.=1521.954102m. Speed=0.036000m/h.</desc>
<speed>0.010000</speed>
</trkpt>
<trkpt lat="43.121490" lon="19.109243">
<ele>1521.922852</ele>
<time>2012-05-01T12:28:24Z</time>
<desc>lat.=43.121490, lon.=19.109243, Alt.=1521.922852m. Speed=0.036000m/h.</desc>
<speed>0.010000</speed>
</trkpt>
<trkpt lat="43.121490" lon="19.109243">
<ele>1521.954102</ele>
<time>2012-05-01T12:28:29Z</time>
<desc>lat.=43.121490, lon.=19.109243, Alt.=1521.954102m. Speed=0.000000m/h.</desc>
<speed>0.000000</speed>
</trkpt>
<trkpt lat="43.121490" lon="19.109243">
<ele>1521.922852</ele>
<time>2012-05-01T12:28:34Z</time>
<desc>lat.=43.121490, lon.=19.109243, Alt.=1521.922852m. Speed=0.000000m/h.</desc>
<speed>0.000000</speed>
</trkpt>
<trkpt lat="43.121490" lon="19.109243">
<ele>1521.891602</ele>
<time>2012-05-01T12:28:39Z</time>
<desc>lat.=43.121490, lon.=19.109243, Alt.=1521.891602m. Speed=0.036000m/h.</desc>
<speed>0.010000</speed>
</trkpt>
<trkpt lat="43.121502" lon="19.109240">
<ele>1521.891602</ele>
<time>2012-05-01T12:28:44Z</time>
<desc>lat.=43.121502, lon.=19.109240, Alt.=1521.891602m. Speed=4.284000m/h.</desc>
<speed>1.190000</speed>
</trkpt>
<trkpt lat="43.121555" lon="19.109148">
<ele>1522.204102</ele>
<time>2012-05-01T12:28:49Z</time>
<desc>lat.=43.121555, lon.=19.109148, Alt.=1522.204102m. Speed=6.408000m/h.</desc>
<speed>1.780000</speed>
</trkpt>
<trkpt lat="43.121529" lon="19.109058">
<ele>1521.454102</ele>
<time>2012-05-01T12:28:54Z</time>
<desc>lat.=43.121529, lon.=19.109058, Alt.=1521.454102m. Speed=5.472000m/h.</desc>
<speed>1.520000</speed>
</trkpt>
<trkpt lat="43.121521" lon="19.108997">
<ele>1521.297852</ele>
<time>2012-05-01T12:28:59Z</time>
<desc>lat.=43.121521, lon.=19.108997, Alt.=1521.297852m. Speed=1.008000m/h.</desc>
<speed>0.280000</speed>
</trkpt>
<trkpt lat="43.121521" lon="19.108995">
<ele>1520.516602</ele>
<time>2012-05-01T12:29:04Z</time>
<desc>lat.=43.121521, lon.=19.108995, Alt.=1520.516602m. Speed=0.216000m/h.</desc>
<speed>0.060000</speed>
</trkpt>
<trkpt lat="43.121517" lon="19.108997">
<ele>1520.516602</ele>
<time>2012-05-01T12:29:09Z</time>
<desc>lat.=43.121517, lon.=19.108997, Alt.=1520.516602m. Speed=0.036000m/h.</desc>
<speed>0.010000</speed>
</trkpt>
<trkpt lat="43.121517" lon="19.108992">
<ele>1520.391602</ele>
<time>2012-05-01T12:29:14Z</time>
<desc>lat.=43.121517, lon.=19.108992, Alt.=1520.391602m. Speed=2.808000m/h.</desc>
<speed>0.780000</speed>
</trkpt>
<trkpt lat="43.121475" lon="19.108946">
<ele>1520.735352</ele>
<time>2012-05-01T12:29:19Z</time>
<desc>lat.=43.121475, lon.=19.108946, Alt.=1520.735352m. Speed=4.608000m/h.</desc>
<speed>1.280000</speed>
</trkpt>
<trkpt lat="43.121468" lon="19.108934">
<ele>1520.672852</ele>
<time>2012-05-01T12:29:24Z</time>
<desc>lat.=43.121468, lon.=19.108934, Alt.=1520.672852m. Speed=0.108000m/h.</desc>
<speed>0.030000</speed>
</trkpt>
<trkpt lat="43.121468" lon="19.108934">
<ele>1520.516602</ele>
<time>2012-05-01T12:29:29Z</time>
<desc>lat.=43.121468, lon.=19.108934, Alt.=1520.516602m. Speed=0.036000m/h.</desc>
<speed>0.010000</speed>
</trkpt>
<trkpt lat="43.121468" lon="19.108932">
<ele>1520.391602</ele>
<time>2012-05-01T12:29:34Z</time>
<desc>lat.=43.121468, lon.=19.108932, Alt.=1520.391602m. Speed=0.252000m/h.</desc>
<speed>0.070000</speed>
</trkpt>
<trkpt lat="43.121468" lon="19.108931">
<ele>1520.172852</ele>
<time>2012-05-01T12:29:39Z</time>
<desc>lat.=43.121468, lon.=19.108931, Alt.=1520.172852m. Speed=0.072000m/h.</desc>
<speed>0.020000</speed>
</trkpt>
<trkpt lat="43.121468" lon="19.108931">
<ele>1520.172852</ele>
<time>2012-05-01T12:29:44Z</time>
<desc>lat.=43.121468, lon.=19.108931, Alt.=1520.172852m. Speed=0.000000m/h.</desc>
<speed>0.000000</speed>
</trkpt>
<trkpt lat="43.121468" lon="19.108931">
<ele>1520.141602</ele>
<time>2012-05-01T12:29:49Z</time>
<desc>lat.=43.121468, lon.=19.108931, Alt.=1520.141602m. Speed=0.036000m/h.</desc>
<speed>0.010000</speed>
</trkpt>
<trkpt lat="43.121468" lon="19.108931">
<ele>1520.141602</ele>
<time>2012-05-01T12:29:54Z</time>
<desc>lat.=43.121468, lon.=19.108931, Alt.=1520.141602m. Speed=0.144000m/h.</desc>
<speed>0.040000</speed>
</trkpt>
<trkpt lat="43.121468" lon="19.108931">
<ele>1520.141602</ele>
<time>2012-05-01T12:29:59Z</time>
<desc>lat.=43.121468, lon.=19.108931, Alt.=1520.141602m. Speed=0.036000m/h.</desc>
<speed>0.010000</speed>
</trkpt>
<trkpt lat="43.121468" lon="19.108931">
<ele>1520.110352</ele>
<time>2012-05-01T12:30:04Z</time>
<desc>lat.=43.121468, lon.=19.108931, Alt.=1520.110352m. Speed=0.000000m/h.</desc>
<speed>0.000000</speed>
</trkpt>
<trkpt lat="43.121468" lon="19.108931">
<ele>1520.110352</ele>
<time>2012-05-01T12:30:09Z</time>
<desc>lat.=43.121468, lon.=19.108931, Alt.=1520.110352m. Speed=0.144000m/h.</desc>
<speed>0.040000</speed>
</trkpt>
<trkpt lat="43.121456" lon="19.108925">
<ele>1520.047852</ele>
<time>2012-05-01T12:30:14Z</time>
<desc>lat.=43.121456, lon.=19.108925, Alt.=1520.047852m. Speed=5.760000m/h.</desc>
<speed>1.600000</speed>
</trkpt>
<trkpt lat="43.121334" lon="19.108879">
<ele>1518.172852</ele>
<time>2012-05-01T12:30:19Z</time>
<desc>lat.=43.121334, lon.=19.108879, Alt.=1518.172852m. Speed=10.692000m/h.</desc>
<speed>2.970000</speed>
</trkpt>
<trkpt lat="43.121208" lon="19.108828">
<ele>1518.454102</ele>
<time>2012-05-01T12:30:24Z</time>
<desc>lat.=43.121208, lon.=19.108828, Alt.=1518.454102m. Speed=10.476000m/h.</desc>
<speed>2.910000</speed>
</trkpt>
<trkpt lat="43.121075" lon="19.108753">
<ele>1519.110352</ele>
<time>2012-05-01T12:30:29Z</time>
<desc>lat.=43.121075, lon.=19.108753, Alt.=1519.110352m. Speed=12.492000m/h.</desc>
<speed>3.470000</speed>
</trkpt>
<trkpt lat="43.120937" lon="19.108702">
<ele>1520.485352</ele>
<time>2012-05-01T12:30:34Z</time>
<desc>lat.=43.120937, lon.=19.108702, Alt.=1520.485352m. Speed=11.232000m/h.</desc>
<speed>3.120000</speed>
</trkpt>
<trkpt lat="43.120804" lon="19.108650">
<ele>1521.797852</ele>
<time>2012-05-01T12:30:39Z</time>
<desc>lat.=43.120804, lon.=19.108650, Alt.=1521.797852m. Speed=9.612000m/h.</desc>
<speed>2.670000</speed>
</trkpt>
<trkpt lat="43.120693" lon="19.108538">
<ele>1523.172852</ele>
<time>2012-05-01T12:30:44Z</time>
<desc>lat.=43.120693, lon.=19.108538, Alt.=1523.172852m. Speed=11.448000m/h.</desc>
<speed>3.180000</speed>
</trkpt>
<trkpt lat="43.120686" lon="19.108330">
<ele>1524.610352</ele>
<time>2012-05-01T12:30:49Z</time>
<desc>lat.=43.120686, lon.=19.108330, Alt.=1524.610352m. Speed=11.664000m/h.</desc>
<speed>3.240000</speed>
</trkpt>
<trkpt lat="43.120705" lon="19.108149">
<ele>1525.391602</ele>
<time>2012-05-01T12:30:54Z</time>
<desc>lat.=43.120705, lon.=19.108149, Alt.=1525.391602m. Speed=9.972000m/h.</desc>
<speed>2.770000</speed>
</trkpt>
<trkpt lat="43.120705" lon="19.107975">
<ele>1525.735352</ele>
<time>2012-05-01T12:30:59Z</time>
<desc>lat.=43.120705, lon.=19.107975, Alt.=1525.735352m. Speed=11.628000m/h.</desc>
<speed>3.230000</speed>
</trkpt>
<trkpt lat="43.120724" lon="19.107729">
<ele>1525.141602</ele>
<time>2012-05-01T12:31:04Z</time>
<desc>lat.=43.120724, lon.=19.107729, Alt.=1525.141602m. Speed=17.351999m/h.</desc>
<speed>4.820000</speed>
</trkpt>
<trkpt lat="43.120861" lon="19.107473">
<ele>1524.110352</ele>
<time>2012-05-01T12:31:09Z</time>
<desc>lat.=43.120861, lon.=19.107473, Alt.=1524.110352m. Speed=19.440001m/h.</desc>
<speed>5.400000</speed>
</trkpt>
<trkpt lat="43.121124" lon="19.107279">
<ele>1522.797852</ele>
<time>2012-05-01T12:31:14Z</time>
<desc>lat.=43.121124, lon.=19.107279, Alt.=1522.797852m. Speed=22.356001m/h.</desc>
<speed>6.210000</speed>
</trkpt>
<trkpt lat="43.121376" lon="19.107136">
<ele>1522.391602</ele>
<time>2012-05-01T12:31:19Z</time>
<desc>lat.=43.121376, lon.=19.107136, Alt.=1522.391602m. Speed=20.016001m/h.</desc>
<speed>5.560000</speed>
</trkpt>
<trkpt lat="43.121605" lon="19.107092">
<ele>1522.047852</ele>
<time>2012-05-01T12:31:24Z</time>
<desc>lat.=43.121605, lon.=19.107092, Alt.=1522.047852m. Speed=17.316000m/h.</desc>
<speed>4.810000</speed>
</trkpt>
<trkpt lat="43.121811" lon="19.106974">
<ele>1520.954102</ele>
<time>2012-05-01T12:31:29Z</time>
<desc>lat.=43.121811, lon.=19.106974, Alt.=1520.954102m. Speed=24.768000m/h.</desc>
<speed>6.880000</speed>
</trkpt>
<trkpt lat="43.121986" lon="19.106600">
<ele>1519.797852</ele>
<time>2012-05-01T12:31:34Z</time>
<desc>lat.=43.121986, lon.=19.106600, Alt.=1519.797852m. Speed=26.028000m/h.</desc>
<speed>7.230000</speed>
</trkpt>
<trkpt lat="43.122192" lon="19.106234">
<ele>1517.985352</ele>
<time>2012-05-01T12:31:39Z</time>
<desc>lat.=43.122192, lon.=19.106234, Alt.=1517.985352m. Speed=29.808001m/h.</desc>
<speed>8.280000</speed>
</trkpt>
<trkpt lat="43.122421" lon="19.105804">
<ele>1516.141602</ele>
<time>2012-05-01T12:31:44Z</time>
<desc>lat.=43.122421, lon.=19.105804, Alt.=1516.141602m. Speed=28.620001m/h.</desc>
<speed>7.950000</speed>
</trkpt>
<trkpt lat="43.122604" lon="19.105448">
<ele>1516.891602</ele>
<time>2012-05-01T12:31:49Z</time>
<desc>lat.=43.122604, lon.=19.105448, Alt.=1516.891602m. Speed=26.496000m/h.</desc>
<speed>7.360000</speed>
</trkpt>
<trkpt lat="43.122696" lon="19.104958">
<ele>1514.329102</ele>
<time>2012-05-01T12:31:54Z</time>
<desc>lat.=43.122696, lon.=19.104958, Alt.=1514.329102m. Speed=30.384001m/h.</desc>
<speed>8.440000</speed>
</trkpt>
<trkpt lat="43.122818" lon="19.104507">
<ele>1514.704102</ele>
<time>2012-05-01T12:31:59Z</time>
<desc>lat.=43.122818, lon.=19.104507, Alt.=1514.704102m. Speed=24.011999m/h.</desc>
<speed>6.670000</speed>
</trkpt>
<trkpt lat="43.122887" lon="19.104172">
<ele>1514.829102</ele>
<time>2012-05-01T12:32:04Z</time>
<desc>lat.=43.122887, lon.=19.104172, Alt.=1514.829102m. Speed=17.712000m/h.</desc>
<speed>4.920000</speed>
</trkpt>
<trkpt lat="43.122940" lon="19.103924">
<ele>1514.829102</ele>
<time>2012-05-01T12:32:09Z</time>
<desc>lat.=43.122940, lon.=19.103924, Alt.=1514.829102m. Speed=13.356000m/h.</desc>
<speed>3.710000</speed>
</trkpt>
<trkpt lat="43.123035" lon="19.103746">
<ele>1514.516602</ele>
<time>2012-05-01T12:32:14Z</time>
<desc>lat.=43.123035, lon.=19.103746, Alt.=1514.516602m. Speed=11.700000m/h.</desc>
<speed>3.250000</speed>
</trkpt>
<trkpt lat="43.123161" lon="19.103598">
<ele>1515.079102</ele>
<time>2012-05-01T12:32:19Z</time>
<desc>lat.=43.123161, lon.=19.103598, Alt.=1515.079102m. Speed=13.212000m/h.</desc>
<speed>3.670000</speed>
</trkpt>
<trkpt lat="43.123241" lon="19.103464">
<ele>1515.360352</ele>
<time>2012-05-01T12:32:24Z</time>
<desc>lat.=43.123241, lon.=19.103464, Alt.=1515.360352m. Speed=7.884000m/h.</desc>
<speed>2.190000</speed>
</trkpt>
<trkpt lat="43.123287" lon="19.103394">
<ele>1515.110352</ele>
<time>2012-05-01T12:32:29Z</time>
<desc>lat.=43.123287, lon.=19.103394, Alt.=1515.110352m. Speed=3.564000m/h.</desc>
<speed>0.990000</speed>
</trkpt>
<trkpt lat="43.123310" lon="19.103359">
<ele>1516.079102</ele>
<time>2012-05-01T12:32:34Z</time>
<desc>lat.=43.123310, lon.=19.103359, Alt.=1516.079102m. Speed=4.104000m/h.</desc>
<speed>1.140000</speed>
</trkpt>
<trkpt lat="43.123375" lon="19.103302">
<ele>1517.110352</ele>
<time>2012-05-01T12:32:39Z</time>
<desc>lat.=43.123375, lon.=19.103302, Alt.=1517.110352m. Speed=6.336000m/h.</desc>
<speed>1.760000</speed>
</trkpt>
<trkpt lat="43.123436" lon="19.103193">
<ele>1517.829102</ele>
<time>2012-05-01T12:32:44Z</time>
<desc>lat.=43.123436, lon.=19.103193, Alt.=1517.829102m. Speed=7.236000m/h.</desc>
<speed>2.010000</speed>
</trkpt>
<trkpt lat="43.123478" lon="19.103092">
<ele>1519.454102</ele>
<time>2012-05-01T12:32:49Z</time>
<desc>lat.=43.123478, lon.=19.103092, Alt.=1519.454102m. Speed=8.568000m/h.</desc>
<speed>2.380000</speed>
</trkpt>
<trkpt lat="43.123539" lon="19.102961">
<ele>1521.016602</ele>
<time>2012-05-01T12:32:54Z</time>
<desc>lat.=43.123539, lon.=19.102961, Alt.=1521.016602m. Speed=8.712000m/h.</desc>
<speed>2.420000</speed>
</trkpt>
<trkpt lat="43.123589" lon="19.102819">
<ele>1521.797852</ele>
<time>2012-05-01T12:32:59Z</time>
<desc>lat.=43.123589, lon.=19.102819, Alt.=1521.797852m. Speed=7.812000m/h.</desc>
<speed>2.170000</speed>
</trkpt>
<trkpt lat="43.123604" lon="19.102724">
<ele>1523.329102</ele>
<time>2012-05-01T12:33:04Z</time>
<desc>lat.=43.123604, lon.=19.102724, Alt.=1523.329102m. Speed=5.148000m/h.</desc>
<speed>1.430000</speed>
</trkpt>
<trkpt lat="43.123608" lon="19.102615">
<ele>1525.079102</ele>
<time>2012-05-01T12:33:09Z</time>
<desc>lat.=43.123608, lon.=19.102615, Alt.=1525.079102m. Speed=6.588000m/h.</desc>
<speed>1.830000</speed>
</trkpt>
<trkpt lat="43.123615" lon="19.102520">
<ele>1527.047852</ele>
<time>2012-05-01T12:33:14Z</time>
<desc>lat.=43.123615, lon.=19.102520, Alt.=1527.047852m. Speed=4.716000m/h.</desc>
<speed>1.310000</speed>
</trkpt>
<trkpt lat="43.123631" lon="19.102449">
<ele>1528.235352</ele>
<time>2012-05-01T12:33:19Z</time>
<desc>lat.=43.123631, lon.=19.102449, Alt.=1528.235352m. Speed=3.636000m/h.</desc>
<speed>1.010000</speed>
</trkpt>
<trkpt lat="43.123657" lon="19.102388">
<ele>1531.641602</ele>
<time>2012-05-01T12:33:24Z</time>
<desc>lat.=43.123657, lon.=19.102388, Alt.=1531.641602m. Speed=5.472000m/h.</desc>
<speed>1.520000</speed>
</trkpt>
<trkpt lat="43.123676" lon="19.102282">
<ele>1533.422852</ele>
<time>2012-05-01T12:33:29Z</time>
<desc>lat.=43.123676, lon.=19.102282, Alt.=1533.422852m. Speed=5.184000m/h.</desc>
<speed>1.440000</speed>
</trkpt>
<trkpt lat="43.123726" lon="19.102201">
<ele>1533.797852</ele>
<time>2012-05-01T12:33:34Z</time>
<desc>lat.=43.123726, lon.=19.102201, Alt.=1533.797852m. Speed=5.184000m/h.</desc>
<speed>1.440000</speed>
</trkpt>
<trkpt lat="43.123775" lon="19.102123">
<ele>1535.297852</ele>
<time>2012-05-01T12:33:39Z</time>
<desc>lat.=43.123775, lon.=19.102123, Alt.=1535.297852m. Speed=4.320000m/h.</desc>
<speed>1.200000</speed>
</trkpt>
<trkpt lat="43.123810" lon="19.102043">
<ele>1535.079102</ele>
<time>2012-05-01T12:33:44Z</time>
<desc>lat.=43.123810, lon.=19.102043, Alt.=1535.079102m. Speed=5.220000m/h.</desc>
<speed>1.450000</speed>
</trkpt>
<trkpt lat="43.123821" lon="19.101952">
<ele>1535.422852</ele>
<time>2012-05-01T12:33:49Z</time>
<desc>lat.=43.123821, lon.=19.101952, Alt.=1535.422852m. Speed=5.364000m/h.</desc>
<speed>1.490000</speed>
</trkpt>
<trkpt lat="43.123837" lon="19.101868">
<ele>1537.360352</ele>
<time>2012-05-01T12:33:54Z</time>
<desc>lat.=43.123837, lon.=19.101868, Alt.=1537.360352m. Speed=4.536000m/h.</desc>
<speed>1.260000</speed>
</trkpt>
<trkpt lat="43.123837" lon="19.101852">
<ele>1537.329102</ele>
<time>2012-05-01T12:33:59Z</time>
<desc>lat.=43.123837, lon.=19.101852, Alt.=1537.329102m. Speed=0.108000m/h.</desc>
<speed>0.030000</speed>
</trkpt>
<trkpt lat="43.123840" lon="19.101849">
<ele>1537.454102</ele>
<time>2012-05-01T12:34:04Z</time>
<desc>lat.=43.123840, lon.=19.101849, Alt.=1537.454102m. Speed=0.792000m/h.</desc>
<speed>0.220000</speed>
</trkpt>
<trkpt lat="43.123859" lon="19.101814">
<ele>1537.516602</ele>
<time>2012-05-01T12:34:09Z</time>
<desc>lat.=43.123859, lon.=19.101814, Alt.=1537.516602m. Speed=3.312000m/h.</desc>
<speed>0.920000</speed>
</trkpt>
<trkpt lat="43.123878" lon="19.101772">
<ele>1539.297852</ele>
<time>2012-05-01T12:34:14Z</time>
<desc>lat.=43.123878, lon.=19.101772, Alt.=1539.297852m. Speed=2.556000m/h.</desc>
<speed>0.710000</speed>
</trkpt>
<trkpt lat="43.123875" lon="19.101772">
<ele>1547.110352</ele>
<time>2012-05-01T12:34:19Z</time>
<desc>lat.=43.123875, lon.=19.101772, Alt.=1547.110352m. Speed=0.900000m/h.</desc>
<speed>0.250000</speed>
</trkpt>
<trkpt lat="43.123890" lon="19.101740">
<ele>1550.391602</ele>
<time>2012-05-01T12:34:24Z</time>
<desc>lat.=43.123890, lon.=19.101740, Alt.=1550.391602m. Speed=2.448000m/h.</desc>
<speed>0.680000</speed>
</trkpt>
<trkpt lat="43.123913" lon="19.101707">
<ele>1551.860352</ele>
<time>2012-05-01T12:34:29Z</time>
<desc>lat.=43.123913, lon.=19.101707, Alt.=1551.860352m. Speed=3.168000m/h.</desc>
<speed>0.880000</speed>
</trkpt>
<trkpt lat="43.123962" lon="19.101681">
<ele>1551.954102</ele>
<time>2012-05-01T12:34:34Z</time>
<desc>lat.=43.123962, lon.=19.101681, Alt.=1551.954102m. Speed=2.880000m/h.</desc>
<speed>0.800000</speed>
</trkpt>
<trkpt lat="43.123989" lon="19.101664">
<ele>1551.454102</ele>
<time>2012-05-01T12:34:39Z</time>
<desc>lat.=43.123989, lon.=19.101664, Alt.=1551.454102m. Speed=2.988000m/h.</desc>
<speed>0.830000</speed>
</trkpt>
<trkpt lat="43.124020" lon="19.101645">
<ele>1552.547852</ele>
<time>2012-05-01T12:34:44Z</time>
<desc>lat.=43.124020, lon.=19.101645, Alt.=1552.547852m. Speed=2.988000m/h.</desc>
<speed>0.830000</speed>
</trkpt>
<trkpt lat="43.124046" lon="19.101622">
<ele>1554.329102</ele>
<time>2012-05-01T12:34:49Z</time>
<desc>lat.=43.124046, lon.=19.101622, Alt.=1554.329102m. Speed=1.872000m/h.</desc>
<speed>0.520000</speed>
</trkpt>
<trkpt lat="43.124084" lon="19.101580">
<ele>1553.547852</ele>
<time>2012-05-01T12:34:54Z</time>
<desc>lat.=43.124084, lon.=19.101580, Alt.=1553.547852m. Speed=3.708000m/h.</desc>
<speed>1.030000</speed>
</trkpt>
<trkpt lat="43.124111" lon="19.101543">
<ele>1554.985352</ele>
<time>2012-05-01T12:34:59Z</time>
<desc>lat.=43.124111, lon.=19.101543, Alt.=1554.985352m. Speed=3.204000m/h.</desc>
<speed>0.890000</speed>
</trkpt>
<trkpt lat="43.124142" lon="19.101509">
<ele>1556.391602</ele>
<time>2012-05-01T12:35:04Z</time>
<desc>lat.=43.124142, lon.=19.101509, Alt.=1556.391602m. Speed=3.564000m/h.</desc>
<speed>0.990000</speed>
</trkpt>
<trkpt lat="43.124176" lon="19.101477">
<ele>1555.954102</ele>
<time>2012-05-01T12:35:09Z</time>
<desc>lat.=43.124176, lon.=19.101477, Alt.=1555.954102m. Speed=3.024000m/h.</desc>
<speed>0.840000</speed>
</trkpt>
<trkpt lat="43.124210" lon="19.101429">
<ele>1556.204102</ele>
<time>2012-05-01T12:35:14Z</time>
<desc>lat.=43.124210, lon.=19.101429, Alt.=1556.204102m. Speed=4.032000m/h.</desc>
<speed>1.120000</speed>
</trkpt>
<trkpt lat="43.124241" lon="19.101387">
<ele>1556.954102</ele>
<time>2012-05-01T12:35:19Z</time>
<desc>lat.=43.124241, lon.=19.101387, Alt.=1556.954102m. Speed=3.420000m/h.</desc>
<speed>0.950000</speed>
</trkpt>
<trkpt lat="43.124268" lon="19.101332">
<ele>1557.266602</ele>
<time>2012-05-01T12:35:24Z</time>
<desc>lat.=43.124268, lon.=19.101332, Alt.=1557.266602m. Speed=2.916000m/h.</desc>
<speed>0.810000</speed>
</trkpt>
<trkpt lat="43.124294" lon="19.101313">
<ele>1558.235352</ele>
<time>2012-05-01T12:35:29Z</time>
<desc>lat.=43.124294, lon.=19.101313, Alt.=1558.235352m. Speed=2.340000m/h.</desc>
<speed>0.650000</speed>
</trkpt>
<trkpt lat="43.124329" lon="19.101273">
<ele>1558.891602</ele>
<time>2012-05-01T12:35:34Z</time>
<desc>lat.=43.124329, lon.=19.101273, Alt.=1558.891602m. Speed=2.052000m/h.</desc>
<speed>0.570000</speed>
</trkpt>
<trkpt lat="43.124336" lon="19.101200">
<ele>1558.704102</ele>
<time>2012-05-01T12:35:39Z</time>
<desc>lat.=43.124336, lon.=19.101200, Alt.=1558.704102m. Speed=2.556000m/h.</desc>
<speed>0.710000</speed>
</trkpt>
<trkpt lat="43.124336" lon="19.101170">
<ele>1557.766602</ele>
<time>2012-05-01T12:35:44Z</time>
<desc>lat.=43.124336, lon.=19.101170, Alt.=1557.766602m. Speed=2.592000m/h.</desc>
<speed>0.720000</speed>
</trkpt>
<trkpt lat="43.124367" lon="19.101126">
<ele>1557.235352</ele>
<time>2012-05-01T12:35:49Z</time>
<desc>lat.=43.124367, lon.=19.101126, Alt.=1557.235352m. Speed=3.060000m/h.</desc>
<speed>0.850000</speed>
</trkpt>
<trkpt lat="43.124390" lon="19.101061">
<ele>1556.922852</ele>
<time>2012-05-01T12:35:54Z</time>
<desc>lat.=43.124390, lon.=19.101061, Alt.=1556.922852m. Speed=3.168000m/h.</desc>
<speed>0.880000</speed>
</trkpt>
<trkpt lat="43.124424" lon="19.101009">
<ele>1556.766602</ele>
<time>2012-05-01T12:35:59Z</time>
<desc>lat.=43.124424, lon.=19.101009, Alt.=1556.766602m. Speed=2.088000m/h.</desc>
<speed>0.580000</speed>
</trkpt>
<trkpt lat="43.124443" lon="19.100967">
<ele>1557.172852</ele>
<time>2012-05-01T12:36:04Z</time>
<desc>lat.=43.124443, lon.=19.100967, Alt.=1557.172852m. Speed=2.412000m/h.</desc>
<speed>0.670000</speed>
</trkpt>
<trkpt lat="43.124458" lon="19.100910">
<ele>1558.110352</ele>
<time>2012-05-01T12:36:09Z</time>
<desc>lat.=43.124458, lon.=19.100910, Alt.=1558.110352m. Speed=2.304000m/h.</desc>
<speed>0.640000</speed>
</trkpt>
<trkpt lat="43.124470" lon="19.100832">
<ele>1557.922852</ele>
<time>2012-05-01T12:36:14Z</time>
<desc>lat.=43.124470, lon.=19.100832, Alt.=1557.922852m. Speed=2.520000m/h.</desc>
<speed>0.700000</speed>
</trkpt>
<trkpt lat="43.124470" lon="19.100765">
<ele>1557.735352</ele>
<time>2012-05-01T12:36:19Z</time>
<desc>lat.=43.124470, lon.=19.100765, Alt.=1557.735352m. Speed=2.952000m/h.</desc>
<speed>0.820000</speed>
</trkpt>
<trkpt lat="43.124489" lon="19.100706">
<ele>1557.297852</ele>
<time>2012-05-01T12:36:24Z</time>
<desc>lat.=43.124489, lon.=19.100706, Alt.=1557.297852m. Speed=2.952000m/h.</desc>
<speed>0.820000</speed>
</trkpt>
<trkpt lat="43.124504" lon="19.100628">
<ele>1556.079102</ele>
<time>2012-05-01T12:36:29Z</time>
<desc>lat.=43.124504, lon.=19.100628, Alt.=1556.079102m. Speed=3.564000m/h.</desc>
<speed>0.990000</speed>
</trkpt>
<trkpt lat="43.124508" lon="19.100569">
<ele>1554.110352</ele>
<time>2012-05-01T12:36:34Z</time>
<desc>lat.=43.124508, lon.=19.100569, Alt.=1554.110352m. Speed=3.852000m/h.</desc>
<speed>1.070000</speed>
</trkpt>
<trkpt lat="43.124519" lon="19.100470">
<ele>1552.641602</ele>
<time>2012-05-01T12:36:39Z</time>
<desc>lat.=43.124519, lon.=19.100470, Alt.=1552.641602m. Speed=5.436000m/h.</desc>
<speed>1.510000</speed>
</trkpt>
<trkpt lat="43.124531" lon="19.100353">
<ele>1550.422852</ele>
<time>2012-05-01T12:36:44Z</time>
<desc>lat.=43.124531, lon.=19.100353, Alt.=1550.422852m. Speed=5.148000m/h.</desc>
<speed>1.430000</speed>
</trkpt>
<trkpt lat="43.124535" lon="19.100340">
<ele>1548.297852</ele>
<time>2012-05-01T12:36:49Z</time>
<desc>lat.=43.124535, lon.=19.100340, Alt.=1548.297852m. Speed=0.000000m/h.</desc>
<speed>0.000000</speed>
</trkpt>
<trkpt lat="43.124535" lon="19.100340">
<ele>1548.235352</ele>
<time>2012-05-01T12:36:54Z</time>
<desc>lat.=43.124535, lon.=19.100340, Alt.=1548.235352m. Speed=2.376000m/h.</desc>
<speed>0.660000</speed>
</trkpt>
<trkpt lat="43.124565" lon="19.100275">
<ele>1547.641602</ele>
<time>2012-05-01T12:36:59Z</time>
<desc>lat.=43.124565, lon.=19.100275, Alt.=1547.641602m. Speed=5.796000m/h.</desc>
<speed>1.610000</speed>
</trkpt>
<trkpt lat="43.124622" lon="19.100222">
<ele>1546.016602</ele>
<time>2012-05-01T12:37:04Z</time>
<desc>lat.=43.124622, lon.=19.100222, Alt.=1546.016602m. Speed=6.336000m/h.</desc>
<speed>1.760000</speed>
</trkpt>
<trkpt lat="43.124664" lon="19.100155">
<ele>1545.047852</ele>
<time>2012-05-01T12:37:09Z</time>
<desc>lat.=43.124664, lon.=19.100155, Alt.=1545.047852m. Speed=4.824000m/h.</desc>
<speed>1.340000</speed>
</trkpt>
<trkpt lat="43.124718" lon="19.100084">
<ele>1543.610352</ele>
<time>2012-05-01T12:37:14Z</time>
<desc>lat.=43.124718, lon.=19.100084, Alt.=1543.610352m. Speed=2.736000m/h.</desc>
<speed>0.760000</speed>
</trkpt>
<trkpt lat="43.124752" lon="19.099993">
<ele>1542.610352</ele>
<time>2012-05-01T12:37:19Z</time>
<desc>lat.=43.124752, lon.=19.099993, Alt.=1542.610352m. Speed=3.816000m/h.</desc>
<speed>1.060000</speed>
</trkpt>
<trkpt lat="43.124794" lon="19.099922">
<ele>1542.204102</ele>
<time>2012-05-01T12:37:24Z</time>
<desc>lat.=43.124794, lon.=19.099922, Alt.=1542.204102m. Speed=4.392000m/h.</desc>
<speed>1.220000</speed>
</trkpt>
<trkpt lat="43.124817" lon="19.099867">
<ele>1541.797852</ele>
<time>2012-05-01T12:37:29Z</time>
<desc>lat.=43.124817, lon.=19.099867, Alt.=1541.797852m. Speed=2.988000m/h.</desc>
<speed>0.830000</speed>
</trkpt>
<trkpt lat="43.124855" lon="19.099812">
<ele>1540.672852</ele>
<time>2012-05-01T12:37:34Z</time>
<desc>lat.=43.124855, lon.=19.099812, Alt.=1540.672852m. Speed=1.944000m/h.</desc>
<speed>0.540000</speed>
</trkpt>
<trkpt lat="43.124855" lon="19.099802">
<ele>1540.579102</ele>
<time>2012-05-01T12:37:39Z</time>
<desc>lat.=43.124855, lon.=19.099802, Alt.=1540.579102m. Speed=0.972000m/h.</desc>
<speed>0.270000</speed>
</trkpt>
<trkpt lat="43.124866" lon="19.099792">
<ele>1540.329102</ele>
<time>2012-05-01T12:37:44Z</time>
<desc>lat.=43.124866, lon.=19.099792, Alt.=1540.329102m. Speed=0.864000m/h.</desc>
<speed>0.240000</speed>
</trkpt>
<trkpt lat="43.124878" lon="19.099777">
<ele>1541.391602</ele>
<time>2012-05-01T12:37:49Z</time>
<desc>lat.=43.124878, lon.=19.099777, Alt.=1541.391602m. Speed=0.900000m/h.</desc>
<speed>0.250000</speed>
</trkpt>
<trkpt lat="43.124886" lon="19.099741">
<ele>1542.610352</ele>
<time>2012-05-01T12:37:54Z</time>
<desc>lat.=43.124886, lon.=19.099741, Alt.=1542.610352m. Speed=1.944000m/h.</desc>
<speed>0.540000</speed>
</trkpt>
<trkpt lat="43.124901" lon="19.099705">
<ele>1543.516602</ele>
<time>2012-05-01T12:37:59Z</time>
<desc>lat.=43.124901, lon.=19.099705, Alt.=1543.516602m. Speed=2.016000m/h.</desc>
<speed>0.560000</speed>
</trkpt>
<trkpt lat="43.124912" lon="19.099682">
<ele>1546.422852</ele>
<time>2012-05-01T12:38:04Z</time>
<desc>lat.=43.124912, lon.=19.099682, Alt.=1546.422852m. Speed=1.116000m/h.</desc>
<speed>0.310000</speed>
</trkpt>
<trkpt lat="43.124943" lon="19.099672">
<ele>1547.079102</ele>
<time>2012-05-01T12:38:09Z</time>
<desc>lat.=43.124943, lon.=19.099672, Alt.=1547.079102m. Speed=2.376000m/h.</desc>
<speed>0.660000</speed>
</trkpt>
<trkpt lat="43.124981" lon="19.099571">
<ele>1545.485352</ele>
<time>2012-05-01T12:38:14Z</time>
<desc>lat.=43.124981, lon.=19.099571, Alt.=1545.485352m. Speed=6.372000m/h.</desc>
<speed>1.770000</speed>
</trkpt>
<trkpt lat="43.125008" lon="19.099546">
<ele>1543.985352</ele>
<time>2012-05-01T12:38:19Z</time>
<desc>lat.=43.125008, lon.=19.099546, Alt.=1543.985352m. Speed=2.952000m/h.</desc>
<speed>0.820000</speed>
</trkpt>
<trkpt lat="43.125008" lon="19.099537">
<ele>1543.391602</ele>
<time>2012-05-01T12:38:24Z</time>
<desc>lat.=43.125008, lon.=19.099537, Alt.=1543.391602m. Speed=3.240000m/h.</desc>
<speed>0.900000</speed>
</trkpt>
<trkpt lat="43.125031" lon="19.099487">
<ele>1543.235352</ele>
<time>2012-05-01T12:38:29Z</time>
<desc>lat.=43.125031, lon.=19.099487, Alt.=1543.235352m. Speed=3.204000m/h.</desc>
<speed>0.890000</speed>
</trkpt>
<trkpt lat="43.125042" lon="19.099457">
<ele>1544.360352</ele>
<time>2012-05-01T12:38:34Z</time>
<desc>lat.=43.125042, lon.=19.099457, Alt.=1544.360352m. Speed=1.512000m/h.</desc>
<speed>0.420000</speed>
</trkpt>
<trkpt lat="43.125088" lon="19.099421">
<ele>1544.204102</ele>
<time>2012-05-01T12:38:39Z</time>
<desc>lat.=43.125088, lon.=19.099421, Alt.=1544.204102m. Speed=3.744000m/h.</desc>
<speed>1.040000</speed>
</trkpt>
<trkpt lat="43.125103" lon="19.099398">
<ele>1545.641602</ele>
<time>2012-05-01T12:38:44Z</time>
<desc>lat.=43.125103, lon.=19.099398, Alt.=1545.641602m. Speed=1.800000m/h.</desc>
<speed>0.500000</speed>
</trkpt>
<trkpt lat="43.125126" lon="19.099375">
<ele>1546.110352</ele>
<time>2012-05-01T12:38:49Z</time>
<desc>lat.=43.125126, lon.=19.099375, Alt.=1546.110352m. Speed=0.252000m/h.</desc>
<speed>0.070000</speed>
</trkpt>
<trkpt lat="43.125122" lon="19.099382">
<ele>1546.141602</ele>
<time>2012-05-01T12:38:54Z</time>
<desc>lat.=43.125122, lon.=19.099382, Alt.=1546.141602m. Speed=0.144000m/h.</desc>
<speed>0.040000</speed>
</trkpt>
<trkpt lat="43.125137" lon="19.099350">
<ele>1547.172852</ele>
<time>2012-05-01T12:38:59Z</time>
<desc>lat.=43.125137, lon.=19.099350, Alt.=1547.172852m. Speed=2.340000m/h.</desc>
<speed>0.650000</speed>
</trkpt>
<trkpt lat="43.125179" lon="19.099310">
<ele>1547.579102</ele>
<time>2012-05-01T12:39:04Z</time>
<desc>lat.=43.125179, lon.=19.099310, Alt.=1547.579102m. Speed=0.792000m/h.</desc>
<speed>0.220000</speed>
</trkpt>
<trkpt lat="43.125210" lon="19.099255">
<ele>1546.766602</ele>
<time>2012-05-01T12:39:09Z</time>
<desc>lat.=43.125210, lon.=19.099255, Alt.=1546.766602m. Speed=2.160000m/h.</desc>
<speed>0.600000</speed>
</trkpt>
<trkpt lat="43.125244" lon="19.099207">
<ele>1547.891602</ele>
<time>2012-05-01T12:39:14Z</time>
<desc>lat.=43.125244, lon.=19.099207, Alt.=1547.891602m. Speed=3.096000m/h.</desc>
<speed>0.860000</speed>
</trkpt>
<trkpt lat="43.125267" lon="19.099167">
<ele>1549.454102</ele>
<time>2012-05-01T12:39:19Z</time>
<desc>lat.=43.125267, lon.=19.099167, Alt.=1549.454102m. Speed=3.492000m/h.</desc>
<speed>0.970000</speed>
</trkpt>
<trkpt lat="43.125290" lon="19.099108">
<ele>1549.829102</ele>
<time>2012-05-01T12:39:24Z</time>
<desc>lat.=43.125290, lon.=19.099108, Alt.=1549.829102m. Speed=3.384000m/h.</desc>
<speed>0.940000</speed>
</trkpt>
<trkpt lat="43.125298" lon="19.099052">
<ele>1549.766602</ele>
<time>2012-05-01T12:39:29Z</time>
<desc>lat.=43.125298, lon.=19.099052, Alt.=1549.766602m. Speed=1.836000m/h.</desc>
<speed>0.510000</speed>
</trkpt>
<trkpt lat="43.125309" lon="19.099014">
<ele>1550.516602</ele>
<time>2012-05-01T12:39:34Z</time>
<desc>lat.=43.125309, lon.=19.099014, Alt.=1550.516602m. Speed=2.952000m/h.</desc>
<speed>0.820000</speed>
</trkpt>
<trkpt lat="43.125305" lon="19.098982">
<ele>1550.797852</ele>
<time>2012-05-01T12:39:39Z</time>
<desc>lat.=43.125305, lon.=19.098982, Alt.=1550.797852m. Speed=2.160000m/h.</desc>
<speed>0.600000</speed>
</trkpt>
<trkpt lat="43.125309" lon="19.098965">
<ele>1551.485352</ele>
<time>2012-05-01T12:39:44Z</time>
<desc>lat.=43.125309, lon.=19.098965, Alt.=1551.485352m. Speed=3.096000m/h.</desc>
<speed>0.860000</speed>
</trkpt>
<trkpt lat="43.125332" lon="19.098925">
<ele>1551.954102</ele>
<time>2012-05-01T12:39:49Z</time>
<desc>lat.=43.125332, lon.=19.098925, Alt.=1551.954102m. Speed=3.744000m/h.</desc>
<speed>1.040000</speed>
</trkpt>
<trkpt lat="43.125351" lon="19.098873">
<ele>1552.579102</ele>
<time>2012-05-01T12:39:54Z</time>
<desc>lat.=43.125351, lon.=19.098873, Alt.=1552.579102m. Speed=2.196000m/h.</desc>
<speed>0.610000</speed>
</trkpt>
<trkpt lat="43.125378" lon="19.098869">
<ele>1552.391602</ele>
<time>2012-05-01T12:39:59Z</time>
<desc>lat.=43.125378, lon.=19.098869, Alt.=1552.391602m. Speed=1.944000m/h.</desc>
<speed>0.540000</speed>
</trkpt>
<trkpt lat="43.125389" lon="19.098854">
<ele>1552.172852</ele>
<time>2012-05-01T12:40:04Z</time>
<desc>lat.=43.125389, lon.=19.098854, Alt.=1552.172852m. Speed=0.072000m/h.</desc>
<speed>0.020000</speed>
</trkpt>
<trkpt lat="43.125401" lon="19.098820">
<ele>1552.360352</ele>
<time>2012-05-01T12:40:09Z</time>
<desc>lat.=43.125401, lon.=19.098820, Alt.=1552.360352m. Speed=0.648000m/h.</desc>
<speed>0.180000</speed>
</trkpt>
<trkpt lat="43.125420" lon="19.098803">
<ele>1552.547852</ele>
<time>2012-05-01T12:40:14Z</time>
<desc>lat.=43.125420, lon.=19.098803, Alt.=1552.547852m. Speed=2.520000m/h.</desc>
<speed>0.700000</speed>
</trkpt>
<trkpt lat="43.125439" lon="19.098785">
<ele>1552.235352</ele>
<time>2012-05-01T12:40:19Z</time>
<desc>lat.=43.125439, lon.=19.098785, Alt.=1552.235352m. Speed=2.700000m/h.</desc>
<speed>0.750000</speed>
</trkpt>
<trkpt lat="43.125484" lon="19.098768">
<ele>1552.266602</ele>
<time>2012-05-01T12:40:24Z</time>
<desc>lat.=43.125484, lon.=19.098768, Alt.=1552.266602m. Speed=4.248000m/h.</desc>
<speed>1.180000</speed>
</trkpt>
<trkpt lat="43.125511" lon="19.098740">
<ele>1552.704102</ele>
<time>2012-05-01T12:40:29Z</time>
<desc>lat.=43.125511, lon.=19.098740, Alt.=1552.704102m. Speed=2.808000m/h.</desc>
<speed>0.780000</speed>
</trkpt>
<trkpt lat="43.125530" lon="19.098690">
<ele>1552.797852</ele>
<time>2012-05-01T12:40:34Z</time>
<desc>lat.=43.125530, lon.=19.098690, Alt.=1552.797852m. Speed=2.952000m/h.</desc>
<speed>0.820000</speed>
</trkpt>
<trkpt lat="43.125561" lon="19.098677">
<ele>1553.204102</ele>
<time>2012-05-01T12:40:39Z</time>
<desc>lat.=43.125561, lon.=19.098677, Alt.=1553.204102m. Speed=3.060000m/h.</desc>
<speed>0.850000</speed>
</trkpt>
<trkpt lat="43.125584" lon="19.098648">
<ele>1554.047852</ele>
<time>2012-05-01T12:40:44Z</time>
<desc>lat.=43.125584, lon.=19.098648, Alt.=1554.047852m. Speed=2.232000m/h.</desc>
<speed>0.620000</speed>
</trkpt>
<trkpt lat="43.125614" lon="19.098619">
<ele>1554.985352</ele>
<time>2012-05-01T12:40:49Z</time>
<desc>lat.=43.125614, lon.=19.098619, Alt.=1554.985352m. Speed=3.096000m/h.</desc>
<speed>0.860000</speed>
</trkpt>
<trkpt lat="43.125637" lon="19.098595">
<ele>1555.329102</ele>
<time>2012-05-01T12:40:54Z</time>
<desc>lat.=43.125637, lon.=19.098595, Alt.=1555.329102m. Speed=2.664000m/h.</desc>
<speed>0.740000</speed>
</trkpt>
<trkpt lat="43.125656" lon="19.098543">
<ele>1555.547852</ele>
<time>2012-05-01T12:40:59Z</time>
<desc>lat.=43.125656, lon.=19.098543, Alt.=1555.547852m. Speed=5.112000m/h.</desc>
<speed>1.420000</speed>
</trkpt>
<trkpt lat="43.125671" lon="19.098503">
<ele>1555.922852</ele>
<time>2012-05-01T12:41:04Z</time>
<desc>lat.=43.125671, lon.=19.098503, Alt.=1555.922852m. Speed=3.672000m/h.</desc>
<speed>1.020000</speed>
</trkpt>
<trkpt lat="43.125660" lon="19.098505">
<ele>1559.860352</ele>
<time>2012-05-01T12:41:09Z</time>
<desc>lat.=43.125660, lon.=19.098505, Alt.=1559.860352m. Speed=0.216000m/h.</desc>
<speed>0.060000</speed>
</trkpt>
<trkpt lat="43.125648" lon="19.098440">
<ele>1560.235352</ele>
<time>2012-05-01T12:41:14Z</time>
<desc>lat.=43.125648, lon.=19.098440, Alt.=1560.235352m. Speed=2.628000m/h.</desc>
<speed>0.730000</speed>
</trkpt>
<trkpt lat="43.125664" lon="19.098360">
<ele>1560.391602</ele>
<time>2012-05-01T12:41:19Z</time>
<desc>lat.=43.125664, lon.=19.098360, Alt.=1560.391602m. Speed=4.140000m/h.</desc>
<speed>1.150000</speed>
</trkpt>
<trkpt lat="43.125698" lon="19.098328">
<ele>1560.454102</ele>
<time>2012-05-01T12:41:24Z</time>
<desc>lat.=43.125698, lon.=19.098328, Alt.=1560.454102m. Speed=3.096000m/h.</desc>
<speed>0.860000</speed>
</trkpt>
<trkpt lat="43.125713" lon="19.098318">
<ele>1560.516602</ele>
<time>2012-05-01T12:41:29Z</time>
<desc>lat.=43.125713, lon.=19.098318, Alt.=1560.516602m. Speed=0.504000m/h.</desc>
<speed>0.140000</speed>
</trkpt>
<trkpt lat="43.125713" lon="19.098322">
<ele>1560.766602</ele>
<time>2012-05-01T12:41:34Z</time>
<desc>lat.=43.125713, lon.=19.098322, Alt.=1560.766602m. Speed=0.036000m/h.</desc>
<speed>0.010000</speed>
</trkpt>
<trkpt lat="43.125717" lon="19.098318">
<ele>1560.829102</ele>
<time>2012-05-01T12:41:39Z</time>
<desc>lat.=43.125717, lon.=19.098318, Alt.=1560.829102m. Speed=2.232000m/h.</desc>
<speed>0.620000</speed>
</trkpt>
<trkpt lat="43.125744" lon="19.098301">
<ele>1562.391602</ele>
<time>2012-05-01T12:41:44Z</time>
<desc>lat.=43.125744, lon.=19.098301, Alt.=1562.391602m. Speed=0.648000m/h.</desc>
<speed>0.180000</speed>
</trkpt>
<trkpt lat="43.125771" lon="19.098310">
<ele>1563.235352</ele>
<time>2012-05-01T12:41:49Z</time>
<desc>lat.=43.125771, lon.=19.098310, Alt.=1563.235352m. Speed=1.872000m/h.</desc>
<speed>0.520000</speed>
</trkpt>
<trkpt lat="43.125805" lon="19.098324">
<ele>1565.391602</ele>
<time>2012-05-01T12:41:54Z</time>
<desc>lat.=43.125805, lon.=19.098324, Alt.=1565.391602m. Speed=3.744000m/h.</desc>
<speed>1.040000</speed>
</trkpt>
<trkpt lat="43.125839" lon="19.098347">
<ele>1566.829102</ele>
<time>2012-05-01T12:41:59Z</time>
<desc>lat.=43.125839, lon.=19.098347, Alt.=1566.829102m. Speed=2.340000m/h.</desc>
<speed>0.650000</speed>
</trkpt>
<trkpt lat="43.125881" lon="19.098337">
<ele>1568.516602</ele>
<time>2012-05-01T12:42:04Z</time>
<desc>lat.=43.125881, lon.=19.098337, Alt.=1568.516602m. Speed=2.196000m/h.</desc>
<speed>0.610000</speed>
</trkpt>
<trkpt lat="43.125923" lon="19.098326">
<ele>1567.735352</ele>
<time>2012-05-01T12:42:09Z</time>
<desc>lat.=43.125923, lon.=19.098326, Alt.=1567.735352m. Speed=3.852000m/h.</desc>
<speed>1.070000</speed>
</trkpt>
<trkpt lat="43.125973" lon="19.098318">
<ele>1569.141602</ele>
<time>2012-05-01T12:42:14Z</time>
<desc>lat.=43.125973, lon.=19.098318, Alt.=1569.141602m. Speed=4.572000m/h.</desc>
<speed>1.270000</speed>
</trkpt>
<trkpt lat="43.126003" lon="19.098289">
<ele>1571.735352</ele>
<time>2012-05-01T12:42:19Z</time>
<desc>lat.=43.126003, lon.=19.098289, Alt.=1571.735352m. Speed=3.276000m/h.</desc>
<speed>0.910000</speed>
</trkpt>
<trkpt lat="43.126034" lon="19.098278">
<ele>1573.297852</ele>
<time>2012-05-01T12:42:24Z</time>
<desc>lat.=43.126034, lon.=19.098278, Alt.=1573.297852m. Speed=2.808000m/h.</desc>
<speed>0.780000</speed>
</trkpt>
<trkpt lat="43.126076" lon="19.098288">
<ele>1574.672852</ele>
<time>2012-05-01T12:42:29Z</time>
<desc>lat.=43.126076, lon.=19.098288, Alt.=1574.672852m. Speed=5.076000m/h.</desc>
<speed>1.410000</speed>
</trkpt>
<trkpt lat="43.126114" lon="19.098282">
<ele>1576.391602</ele>
<time>2012-05-01T12:42:34Z</time>
<desc>lat.=43.126114, lon.=19.098282, Alt.=1576.391602m. Speed=2.952000m/h.</desc>
<speed>0.820000</speed>
</trkpt>
<trkpt lat="43.126167" lon="19.098242">
<ele>1577.360352</ele>
<time>2012-05-01T12:42:39Z</time>
<desc>lat.=43.126167, lon.=19.098242, Alt.=1577.360352m. Speed=3.096000m/h.</desc>
<speed>0.860000</speed>
</trkpt>
<trkpt lat="43.126198" lon="19.098202">
<ele>1576.797852</ele>
<time>2012-05-01T12:42:44Z</time>
<desc>lat.=43.126198, lon.=19.098202, Alt.=1576.797852m. Speed=0.864000m/h.</desc>
<speed>0.240000</speed>
</trkpt>
<trkpt lat="43.126228" lon="19.098166">
<ele>1576.297852</ele>
<time>2012-05-01T12:42:49Z</time>
<desc>lat.=43.126228, lon.=19.098166, Alt.=1576.297852m. Speed=2.484000m/h.</desc>
<speed>0.690000</speed>
</trkpt>
<trkpt lat="43.126278" lon="19.098124">
<ele>1575.266602</ele>
<time>2012-05-01T12:42:54Z</time>
<desc>lat.=43.126278, lon.=19.098124, Alt.=1575.266602m. Speed=3.456000m/h.</desc>
<speed>0.960000</speed>
</trkpt>
<trkpt lat="43.126331" lon="19.098097">
<ele>1576.704102</ele>
<time>2012-05-01T12:42:59Z</time>
<desc>lat.=43.126331, lon.=19.098097, Alt.=1576.704102m. Speed=4.572000m/h.</desc>
<speed>1.270000</speed>
</trkpt>
<trkpt lat="43.126369" lon="19.098070">
<ele>1576.672852</ele>
<time>2012-05-01T12:43:04Z</time>
<desc>lat.=43.126369, lon.=19.098070, Alt.=1576.672852m. Speed=1.548000m/h.</desc>
<speed>0.430000</speed>
</trkpt>
<trkpt lat="43.126385" lon="19.098083">
<ele>1573.360352</ele>
<time>2012-05-01T12:43:09Z</time>
<desc>lat.=43.126385, lon.=19.098083, Alt.=1573.360352m. Speed=0.036000m/h.</desc>
<speed>0.010000</speed>
</trkpt>
<trkpt lat="43.126385" lon="19.098083">
<ele>1573.547852</ele>
<time>2012-05-01T12:43:14Z</time>
<desc>lat.=43.126385, lon.=19.098083, Alt.=1573.547852m. Speed=0.036000m/h.</desc>
<speed>0.010000</speed>
</trkpt>
<trkpt lat="43.126385" lon="19.098082">
<ele>1573.610352</ele>
<time>2012-05-01T12:43:19Z</time>
<desc>lat.=43.126385, lon.=19.098082, Alt.=1573.610352m. Speed=0.072000m/h.</desc>
<speed>0.020000</speed>
</trkpt>
<trkpt lat="43.126385" lon="19.098082">
<ele>1573.672852</ele>
<time>2012-05-01T12:43:24Z</time>
<desc>lat.=43.126385, lon.=19.098082, Alt.=1573.672852m. Speed=0.000000m/h.</desc>
<speed>0.000000</speed>
</trkpt>
<trkpt lat="43.126385" lon="19.098082">
<ele>1573.672852</ele>
<time>2012-05-01T12:43:29Z</time>
<desc>lat.=43.126385, lon.=19.098082, Alt.=1573.672852m. Speed=0.000000m/h.</desc>
<speed>0.000000</speed>
</trkpt>
<trkpt lat="43.126385" lon="19.098082">
<ele>1573.641602</ele>
<time>2012-05-01T12:43:34Z</time>
<desc>lat.=43.126385, lon.=19.098082, Alt.=1573.641602m. Speed=0.000000m/h.</desc>
<speed>0.000000</speed>
</trkpt>
<trkpt lat="43.126385" lon="19.098082">
<ele>1573.641602</ele>
<time>2012-05-01T12:43:39Z</time>
<desc>lat.=43.126385, lon.=19.098082, Alt.=1573.641602m. Speed=0.000000m/h.</desc>
<speed>0.000000</speed>
</trkpt>
<trkpt lat="43.126385" lon="19.098082">
<ele>1573.672852</ele>
<time>2012-05-01T12:43:44Z</time>
<desc>lat.=43.126385, lon.=19.098082, Alt.=1573.672852m. Speed=0.000000m/h.</desc>
<speed>0.000000</speed>
</trkpt>
<trkpt lat="43.126385" lon="19.098082">
<ele>1573.672852</ele>
<time>2012-05-01T12:43:49Z</time>
<desc>lat.=43.126385, lon.=19.098082, Alt.=1573.672852m. Speed=0.072000m/h.</desc>
<speed>0.020000</speed>
</trkpt>
<trkpt lat="43.126385" lon="19.098080">
<ele>1573.704102</ele>
<time>2012-05-01T12:43:54Z</time>
<desc>lat.=43.126385, lon.=19.098080, Alt.=1573.704102m. Speed=0.036000m/h.</desc>
<speed>0.010000</speed>
</trkpt>
<trkpt lat="43.126385" lon="19.098080">
<ele>1573.704102</ele>
<time>2012-05-01T12:43:59Z</time>
<desc>lat.=43.126385, lon.=19.098080, Alt.=1573.704102m. Speed=0.036000m/h.</desc>
<speed>0.010000</speed>
</trkpt>
<trkpt lat="43.126385" lon="19.098082">
<ele>1573.672852</ele>
<time>2012-05-01T12:44:04Z</time>
<desc>lat.=43.126385, lon.=19.098082, Alt.=1573.672852m. Speed=0.000000m/h.</desc>
<speed>0.000000</speed>
</trkpt>
<trkpt lat="43.126385" lon="19.098082">
<ele>1573.672852</ele>
<time>2012-05-01T12:44:09Z</time>
<desc>lat.=43.126385, lon.=19.098082, Alt.=1573.672852m. Speed=0.036000m/h.</desc>
<speed>0.010000</speed>
</trkpt>
<trkpt lat="43.126385" lon="19.098082">
<ele>1573.641602</ele>
<time>2012-05-01T12:44:14Z</time>
<desc>lat.=43.126385, lon.=19.098082, Alt.=1573.641602m. Speed=0.144000m/h.</desc>
<speed>0.040000</speed>
</trkpt>
<trkpt lat="43.126385" lon="19.098082">
<ele>1573.641602</ele>
<time>2012-05-01T12:44:19Z</time>
<desc>lat.=43.126385, lon.=19.098082, Alt.=1573.641602m. Speed=0.036000m/h.</desc>
<speed>0.010000</speed>
</trkpt>
<trkpt lat="43.126385" lon="19.098082">
<ele>1573.641602</ele>
<time>2012-05-01T12:44:24Z</time>
<desc>lat.=43.126385, lon.=19.098082, Alt.=1573.641602m. Speed=0.036000m/h.</desc>
<speed>0.010000</speed>
</trkpt>
<trkpt lat="43.126389" lon="19.098082">
<ele>1573.485352</ele>
<time>2012-05-01T12:44:29Z</time>
<desc>lat.=43.126389, lon.=19.098082, Alt.=1573.485352m. Speed=3.312000m/h.</desc>
<speed>0.920000</speed>
</trkpt>
<trkpt lat="43.126431" lon="19.098066">
<ele>1573.672852</ele>
<time>2012-05-01T12:44:34Z</time>
<desc>lat.=43.126431, lon.=19.098066, Alt.=1573.672852m. Speed=4.176000m/h.</desc>
<speed>1.160000</speed>
</trkpt>
<trkpt lat="43.126480" lon="19.098032">
<ele>1574.329102</ele>
<time>2012-05-01T12:44:39Z</time>
<desc>lat.=43.126480, lon.=19.098032, Alt.=1574.329102m. Speed=3.168000m/h.</desc>
<speed>0.880000</speed>
</trkpt>
<trkpt lat="43.126514" lon="19.098011">
<ele>1576.329102</ele>
<time>2012-05-01T12:44:44Z</time>
<desc>lat.=43.126514, lon.=19.098011, Alt.=1576.329102m. Speed=3.924000m/h.</desc>
<speed>1.090000</speed>
</trkpt>
<trkpt lat="43.126575" lon="19.097980">
<ele>1575.141602</ele>
<time>2012-05-01T12:44:49Z</time>
<desc>lat.=43.126575, lon.=19.097980, Alt.=1575.141602m. Speed=3.276000m/h.</desc>
<speed>0.910000</speed>
</trkpt>
<trkpt lat="43.126648" lon="19.097954">
<ele>1572.641602</ele>
<time>2012-05-01T12:44:54Z</time>
<desc>lat.=43.126648, lon.=19.097954, Alt.=1572.641602m. Speed=5.544000m/h.</desc>
<speed>1.540000</speed>
</trkpt>
<trkpt lat="43.126717" lon="19.097906">
<ele>1571.610352</ele>
<time>2012-05-01T12:44:59Z</time>
<desc>lat.=43.126717, lon.=19.097906, Alt.=1571.610352m. Speed=4.212000m/h.</desc>
<speed>1.170000</speed>
</trkpt>
<trkpt lat="43.126755" lon="19.097887">
<ele>1572.454102</ele>
<time>2012-05-01T12:45:04Z</time>
<desc>lat.=43.126755, lon.=19.097887, Alt.=1572.454102m. Speed=2.484000m/h.</desc>
<speed>0.690000</speed>
</trkpt>
<trkpt lat="43.126808" lon="19.097891">
<ele>1573.172852</ele>
<time>2012-05-01T12:45:09Z</time>
<desc>lat.=43.126808, lon.=19.097891, Alt.=1573.172852m. Speed=3.096000m/h.</desc>
<speed>0.860000</speed>
</trkpt>
<trkpt lat="43.126820" lon="19.097910">
<ele>1576.766602</ele>
<time>2012-05-01T12:45:14Z</time>
<desc>lat.=43.126820, lon.=19.097910, Alt.=1576.766602m. Speed=3.204000m/h.</desc>
<speed>0.890000</speed>
</trkpt>
<trkpt lat="43.126888" lon="19.097866">
<ele>1574.797852</ele>
<time>2012-05-01T12:45:19Z</time>
<desc>lat.=43.126888, lon.=19.097866, Alt.=1574.797852m. Speed=4.752000m/h.</desc>
<speed>1.320000</speed>
</trkpt>
<trkpt lat="43.126911" lon="19.097839">
<ele>1574.610352</ele>
<time>2012-05-01T12:45:24Z</time>
<desc>lat.=43.126911, lon.=19.097839, Alt.=1574.610352m. Speed=0.828000m/h.</desc>
<speed>0.230000</speed>
</trkpt>
<trkpt lat="43.126945" lon="19.097864">
<ele>1576.672852</ele>
<time>2012-05-01T12:45:29Z</time>
<desc>lat.=43.126945, lon.=19.097864, Alt.=1576.672852m. Speed=3.312000m/h.</desc>
<speed>0.920000</speed>
</trkpt>
<trkpt lat="43.126976" lon="19.097866">
<ele>1577.391602</ele>
<time>2012-05-01T12:45:34Z</time>
<desc>lat.=43.126976, lon.=19.097866, Alt.=1577.391602m. Speed=0.108000m/h.</desc>
<speed>0.030000</speed>
</trkpt>
<trkpt lat="43.126984" lon="19.097874">
<ele>1578.422852</ele>
<time>2012-05-01T12:45:39Z</time>
<desc>lat.=43.126984, lon.=19.097874, Alt.=1578.422852m. Speed=1.152000m/h.</desc>
<speed>0.320000</speed>
</trkpt>
<trkpt lat="43.127010" lon="19.097881">
<ele>1579.829102</ele>
<time>2012-05-01T12:45:44Z</time>
<desc>lat.=43.127010, lon.=19.097881, Alt.=1579.829102m. Speed=2.664000m/h.</desc>
<speed>0.740000</speed>
</trkpt>
<trkpt lat="43.127056" lon="19.097876">
<ele>1581.016602</ele>
<time>2012-05-01T12:45:49Z</time>
<desc>lat.=43.127056, lon.=19.097876, Alt.=1581.016602m. Speed=2.772000m/h.</desc>
<speed>0.770000</speed>
</trkpt>
<trkpt lat="43.127136" lon="19.097830">
<ele>1576.485352</ele>
<time>2012-05-01T12:45:54Z</time>
<desc>lat.=43.127136, lon.=19.097830, Alt.=1576.485352m. Speed=2.304000m/h.</desc>
<speed>0.640000</speed>
</trkpt>
<trkpt lat="43.127182" lon="19.097822">
<ele>1576.172852</ele>
<time>2012-05-01T12:45:59Z</time>
<desc>lat.=43.127182, lon.=19.097822, Alt.=1576.172852m. Speed=3.420000m/h.</desc>
<speed>0.950000</speed>
</trkpt>
<trkpt lat="43.127228" lon="19.097832">
<ele>1577.829102</ele>
<time>2012-05-01T12:46:04Z</time>
<desc>lat.=43.127228, lon.=19.097832, Alt.=1577.829102m. Speed=4.104000m/h.</desc>
<speed>1.140000</speed>
</trkpt>
<trkpt lat="43.127262" lon="19.097843">
<ele>1578.047852</ele>
<time>2012-05-01T12:46:09Z</time>
<desc>lat.=43.127262, lon.=19.097843, Alt.=1578.047852m. Speed=2.916000m/h.</desc>
<speed>0.810000</speed>
</trkpt>
<trkpt lat="43.127296" lon="19.097841">
<ele>1578.485352</ele>
<time>2012-05-01T12:46:14Z</time>
<desc>lat.=43.127296, lon.=19.097841, Alt.=1578.485352m. Speed=2.412000m/h.</desc>
<speed>0.670000</speed>
</trkpt>
<trkpt lat="43.127327" lon="19.097820">
<ele>1578.829102</ele>
<time>2012-05-01T12:46:19Z</time>
<desc>lat.=43.127327, lon.=19.097820, Alt.=1578.829102m. Speed=2.772000m/h.</desc>
<speed>0.770000</speed>
</trkpt>
<trkpt lat="43.127365" lon="19.097818">
<ele>1579.954102</ele>
<time>2012-05-01T12:46:24Z</time>
<desc>lat.=43.127365, lon.=19.097818, Alt.=1579.954102m. Speed=3.492000m/h.</desc>
<speed>0.970000</speed>
</trkpt>
<trkpt lat="43.127407" lon="19.097773">
<ele>1580.204102</ele>
<time>2012-05-01T12:46:29Z</time>
<desc>lat.=43.127407, lon.=19.097773, Alt.=1580.204102m. Speed=3.384000m/h.</desc>
<speed>0.940000</speed>
</trkpt>
<trkpt lat="43.127445" lon="19.097786">
<ele>1580.797852</ele>
<time>2012-05-01T12:46:34Z</time>
<desc>lat.=43.127445, lon.=19.097786, Alt.=1580.797852m. Speed=1.980000m/h.</desc>
<speed>0.550000</speed>
</trkpt>
<trkpt lat="43.127483" lon="19.097773">
<ele>1582.204102</ele>
<time>2012-05-01T12:46:39Z</time>
<desc>lat.=43.127483, lon.=19.097773, Alt.=1582.204102m. Speed=2.952000m/h.</desc>
<speed>0.820000</speed>
</trkpt>
<trkpt lat="43.127514" lon="19.097742">
<ele>1583.391602</ele>
<time>2012-05-01T12:46:44Z</time>
<desc>lat.=43.127514, lon.=19.097742, Alt.=1583.391602m. Speed=1.692000m/h.</desc>
<speed>0.470000</speed>
</trkpt>
<trkpt lat="43.127537" lon="19.097748">
<ele>1583.985352</ele>
<time>2012-05-01T12:46:49Z</time>
<desc>lat.=43.127537, lon.=19.097748, Alt.=1583.985352m. Speed=1.620000m/h.</desc>
<speed>0.450000</speed>
</trkpt>
<trkpt lat="43.127556" lon="19.097744">
<ele>1584.922852</ele>
<time>2012-05-01T12:46:54Z</time>
<desc>lat.=43.127556, lon.=19.097744, Alt.=1584.922852m. Speed=1.512000m/h.</desc>
<speed>0.420000</speed>
</trkpt>
<trkpt lat="43.127575" lon="19.097731">
<ele>1586.079102</ele>
<time>2012-05-01T12:46:59Z</time>
<desc>lat.=43.127575, lon.=19.097731, Alt.=1586.079102m. Speed=1.332000m/h.</desc>
<speed>0.370000</speed>
</trkpt>
<trkpt lat="43.127583" lon="19.097727">
<ele>1587.016602</ele>
<time>2012-05-01T12:47:04Z</time>
<desc>lat.=43.127583, lon.=19.097727, Alt.=1587.016602m. Speed=0.792000m/h.</desc>
<speed>0.220000</speed>
</trkpt>
<trkpt lat="43.127594" lon="19.097738">
<ele>1587.766602</ele>
<time>2012-05-01T12:47:09Z</time>
<desc>lat.=43.127594, lon.=19.097738, Alt.=1587.766602m. Speed=1.368000m/h.</desc>
<speed>0.380000</speed>
</trkpt>
<trkpt lat="43.127625" lon="19.097736">
<ele>1588.110352</ele>
<time>2012-05-01T12:47:14Z</time>
<desc>lat.=43.127625, lon.=19.097736, Alt.=1588.110352m. Speed=1.728000m/h.</desc>
<speed>0.480000</speed>
</trkpt>
<trkpt lat="43.127644" lon="19.097721">
<ele>1588.735352</ele>
<time>2012-05-01T12:47:19Z</time>
<desc>lat.=43.127644, lon.=19.097721, Alt.=1588.735352m. Speed=1.368000m/h.</desc>
<speed>0.380000</speed>
</trkpt>
<trkpt lat="43.127659" lon="19.097719">
<ele>1589.422852</ele>
<time>2012-05-01T12:47:24Z</time>
<desc>lat.=43.127659, lon.=19.097719, Alt.=1589.422852m. Speed=1.620000m/h.</desc>
<speed>0.450000</speed>
</trkpt>
<trkpt lat="43.127686" lon="19.097746">
<ele>1589.579102</ele>
<time>2012-05-01T12:47:29Z</time>
<desc>lat.=43.127686, lon.=19.097746, Alt.=1589.579102m. Speed=1.188000m/h.</desc>
<speed>0.330000</speed>
</trkpt>
<trkpt lat="43.127750" lon="19.097752">
<ele>1588.954102</ele>
<time>2012-05-01T12:47:34Z</time>
<desc>lat.=43.127750, lon.=19.097752, Alt.=1588.954102m. Speed=1.368000m/h.</desc>
<speed>0.380000</speed>
</trkpt>
<trkpt lat="43.127773" lon="19.097742">
<ele>1589.579102</ele>
<time>2012-05-01T12:47:39Z</time>
<desc>lat.=43.127773, lon.=19.097742, Alt.=1589.579102m. Speed=1.548000m/h.</desc>
<speed>0.430000</speed>
</trkpt>
<trkpt lat="43.127815" lon="19.097715">
<ele>1589.610352</ele>
<time>2012-05-01T12:47:44Z</time>
<desc>lat.=43.127815, lon.=19.097715, Alt.=1589.610352m. Speed=1.764000m/h.</desc>
<speed>0.490000</speed>
</trkpt>
<trkpt lat="43.127831" lon="19.097668">
<ele>1589.360352</ele>
<time>2012-05-01T12:47:49Z</time>
<desc>lat.=43.127831, lon.=19.097668, Alt.=1589.360352m. Speed=0.612000m/h.</desc>
<speed>0.170000</speed>
</trkpt>
<trkpt lat="43.127838" lon="19.097662">
<ele>1589.704102</ele>
<time>2012-05-01T12:47:54Z</time>
<desc>lat.=43.127838, lon.=19.097662, Alt.=1589.704102m. Speed=1.080000m/h.</desc>
<speed>0.300000</speed>
</trkpt>
<trkpt lat="43.127869" lon="19.097668">
<ele>1589.391602</ele>
<time>2012-05-01T12:47:59Z</time>
<desc>lat.=43.127869, lon.=19.097668, Alt.=1589.391602m. Speed=2.016000m/h.</desc>
<speed>0.560000</speed>
</trkpt>
<trkpt lat="43.127892" lon="19.097662">
<ele>1589.860352</ele>
<time>2012-05-01T12:48:04Z</time>
<desc>lat.=43.127892, lon.=19.097662, Alt.=1589.860352m. Speed=2.160000m/h.</desc>
<speed>0.600000</speed>
</trkpt>
<trkpt lat="43.127903" lon="19.097673">
<ele>1590.329102</ele>
<time>2012-05-01T12:48:09Z</time>
<desc>lat.=43.127903, lon.=19.097673, Alt.=1590.329102m. Speed=0.684000m/h.</desc>
<speed>0.190000</speed>
</trkpt>
<trkpt lat="43.127907" lon="19.097681">
<ele>1591.172852</ele>
<time>2012-05-01T12:48:14Z</time>
<desc>lat.=43.127907, lon.=19.097681, Alt.=1591.172852m. Speed=1.152000m/h.</desc>
<speed>0.320000</speed>
</trkpt>
<trkpt lat="43.127918" lon="19.097683">
<ele>1592.047852</ele>
<time>2012-05-01T12:48:19Z</time>
<desc>lat.=43.127918, lon.=19.097683, Alt.=1592.047852m. Speed=0.936000m/h.</desc>
<speed>0.260000</speed>
</trkpt>
<trkpt lat="43.127930" lon="19.097689">
<ele>1592.516602</ele>
<time>2012-05-01T12:48:24Z</time>
<desc>lat.=43.127930, lon.=19.097689, Alt.=1592.516602m. Speed=0.864000m/h.</desc>
<speed>0.240000</speed>
</trkpt>
<trkpt lat="43.127949" lon="19.097698">
<ele>1593.204102</ele>
<time>2012-05-01T12:48:29Z</time>
<desc>lat.=43.127949, lon.=19.097698, Alt.=1593.204102m. Speed=1.620000m/h.</desc>
<speed>0.450000</speed>
</trkpt>
<trkpt lat="43.127983" lon="19.097700">
<ele>1593.235352</ele>
<time>2012-05-01T12:48:34Z</time>
<desc>lat.=43.127983, lon.=19.097700, Alt.=1593.235352m. Speed=2.124000m/h.</desc>
<speed>0.590000</speed>
</trkpt>
<trkpt lat="43.128025" lon="19.097696">
<ele>1592.235352</ele>
<time>2012-05-01T12:48:39Z</time>
<desc>lat.=43.128025, lon.=19.097696, Alt.=1592.235352m. Speed=3.636000m/h.</desc>
<speed>1.010000</speed>
</trkpt>
<trkpt lat="43.128078" lon="19.097698">
<ele>1590.985352</ele>
<time>2012-05-01T12:48:44Z</time>
<desc>lat.=43.128078, lon.=19.097698, Alt.=1590.985352m. Speed=3.348000m/h.</desc>
<speed>0.930000</speed>
</trkpt>
<trkpt lat="43.128117" lon="19.097672">
<ele>1591.610352</ele>
<time>2012-05-01T12:48:49Z</time>
<desc>lat.=43.128117, lon.=19.097672, Alt.=1591.610352m. Speed=2.988000m/h.</desc>
<speed>0.830000</speed>
</trkpt>
<trkpt lat="43.128147" lon="19.097666">
<ele>1592.422852</ele>
<time>2012-05-01T12:48:54Z</time>
<desc>lat.=43.128147, lon.=19.097666, Alt.=1592.422852m. Speed=2.916000m/h.</desc>
<speed>0.810000</speed>
</trkpt>
<trkpt lat="43.128170" lon="19.097660">
<ele>1593.360352</ele>
<time>2012-05-01T12:48:59Z</time>
<desc>lat.=43.128170, lon.=19.097660, Alt.=1593.360352m. Speed=1.764000m/h.</desc>
<speed>0.490000</speed>
</trkpt>
<trkpt lat="43.128204" lon="19.097647">
<ele>1593.860352</ele>
<time>2012-05-01T12:49:04Z</time>
<desc>lat.=43.128204, lon.=19.097647, Alt.=1593.860352m. Speed=2.628000m/h.</desc>
<speed>0.730000</speed>
</trkpt>
<trkpt lat="43.128239" lon="19.097630">
<ele>1594.266602</ele>
<time>2012-05-01T12:49:09Z</time>
<desc>lat.=43.128239, lon.=19.097630, Alt.=1594.266602m. Speed=2.520000m/h.</desc>
<speed>0.700000</speed>
</trkpt>
<trkpt lat="43.128273" lon="19.097605">
<ele>1595.329102</ele>
<time>2012-05-01T12:49:14Z</time>
<desc>lat.=43.128273, lon.=19.097605, Alt.=1595.329102m. Speed=3.672000m/h.</desc>
<speed>1.020000</speed>
</trkpt>
<trkpt lat="43.128300" lon="19.097580">
<ele>1595.766602</ele>
<time>2012-05-01T12:49:19Z</time>
<desc>lat.=43.128300, lon.=19.097580, Alt.=1595.766602m. Speed=1.656000m/h.</desc>
<speed>0.460000</speed>
</trkpt>
<trkpt lat="43.128349" lon="19.097576">
<ele>1596.516602</ele>
<time>2012-05-01T12:49:24Z</time>
<desc>lat.=43.128349, lon.=19.097576, Alt.=1596.516602m. Speed=2.304000m/h.</desc>
<speed>0.640000</speed>
</trkpt>
<trkpt lat="43.128403" lon="19.097530">
<ele>1595.235352</ele>
<time>2012-05-01T12:49:29Z</time>
<desc>lat.=43.128403, lon.=19.097530, Alt.=1595.235352m. Speed=2.556000m/h.</desc>
<speed>0.710000</speed>
</trkpt>
<trkpt lat="43.128429" lon="19.097523">
<ele>1595.735352</ele>
<time>2012-05-01T12:49:34Z</time>
<desc>lat.=43.128429, lon.=19.097523, Alt.=1595.735352m. Speed=1.836000m/h.</desc>
<speed>0.510000</speed>
</trkpt>
<trkpt lat="43.128460" lon="19.097519">
<ele>1596.454102</ele>
<time>2012-05-01T12:49:39Z</time>
<desc>lat.=43.128460, lon.=19.097519, Alt.=1596.454102m. Speed=2.052000m/h.</desc>
<speed>0.570000</speed>
</trkpt>
<trkpt lat="43.128490" lon="19.097527">
<ele>1597.047852</ele>
<time>2012-05-01T12:49:44Z</time>
<desc>lat.=43.128490, lon.=19.097527, Alt.=1597.047852m. Speed=2.052000m/h.</desc>
<speed>0.570000</speed>
</trkpt>
<trkpt lat="43.128540" lon="19.097542">
<ele>1597.704102</ele>
<time>2012-05-01T12:49:49Z</time>
<desc>lat.=43.128540, lon.=19.097542, Alt.=1597.704102m. Speed=1.656000m/h.</desc>
<speed>0.460000</speed>
</trkpt>
<trkpt lat="43.128582" lon="19.097551">
<ele>1598.079102</ele>
<time>2012-05-01T12:49:54Z</time>
<desc>lat.=43.128582, lon.=19.097551, Alt.=1598.079102m. Speed=2.412000m/h.</desc>
<speed>0.670000</speed>
</trkpt>
<trkpt lat="43.128605" lon="19.097561">
<ele>1598.735352</ele>
<time>2012-05-01T12:49:59Z</time>
<desc>lat.=43.128605, lon.=19.097561, Alt.=1598.735352m. Speed=3.240000m/h.</desc>
<speed>0.900000</speed>
</trkpt>
<trkpt lat="43.128647" lon="19.097553">
<ele>1599.985352</ele>
<time>2012-05-01T12:50:04Z</time>
<desc>lat.=43.128647, lon.=19.097553, Alt.=1599.985352m. Speed=2.736000m/h.</desc>
<speed>0.760000</speed>
</trkpt>
<trkpt lat="43.128666" lon="19.097559">
<ele>1601.516602</ele>
<time>2012-05-01T12:50:09Z</time>
<desc>lat.=43.128666, lon.=19.097559, Alt.=1601.516602m. Speed=1.548000m/h.</desc>
<speed>0.430000</speed>
</trkpt>
<trkpt lat="43.128693" lon="19.097570">
<ele>1602.954102</ele>
<time>2012-05-01T12:50:14Z</time>
<desc>lat.=43.128693, lon.=19.097570, Alt.=1602.954102m. Speed=2.052000m/h.</desc>
<speed>0.570000</speed>
</trkpt>
<trkpt lat="43.128723" lon="19.097570">
<ele>1603.204102</ele>
<time>2012-05-01T12:50:19Z</time>
<desc>lat.=43.128723, lon.=19.097570, Alt.=1603.204102m. Speed=1.548000m/h.</desc>
<speed>0.430000</speed>
</trkpt>
<trkpt lat="43.128765" lon="19.097572">
<ele>1604.141602</ele>
<time>2012-05-01T12:50:24Z</time>
<desc>lat.=43.128765, lon.=19.097572, Alt.=1604.141602m. Speed=2.808000m/h.</desc>
<speed>0.780000</speed>
</trkpt>
<trkpt lat="43.128815" lon="19.097572">
<ele>1604.141602</ele>
<time>2012-05-01T12:50:29Z</time>
<desc>lat.=43.128815, lon.=19.097572, Alt.=1604.141602m. Speed=3.060000m/h.</desc>
<speed>0.850000</speed>
</trkpt>
<trkpt lat="43.128860" lon="19.097553">
<ele>1603.235352</ele>
<time>2012-05-01T12:50:34Z</time>
<desc>lat.=43.128860, lon.=19.097553, Alt.=1603.235352m. Speed=2.268000m/h.</desc>
<speed>0.630000</speed>
</trkpt>
<trkpt lat="43.128899" lon="19.097519">
<ele>1602.516602</ele>
<time>2012-05-01T12:50:39Z</time>
<desc>lat.=43.128899, lon.=19.097519, Alt.=1602.516602m. Speed=1.584000m/h.</desc>
<speed>0.440000</speed>
</trkpt>
<trkpt lat="43.128929" lon="19.097521">
<ele>1602.422852</ele>
<time>2012-05-01T12:50:44Z</time>
<desc>lat.=43.128929, lon.=19.097521, Alt.=1602.422852m. Speed=2.556000m/h.</desc>
<speed>0.710000</speed>
</trkpt>
<trkpt lat="43.128948" lon="19.097551">
<ele>1602.516602</ele>
<time>2012-05-01T12:50:49Z</time>
<desc>lat.=43.128948, lon.=19.097551, Alt.=1602.516602m. Speed=1.692000m/h.</desc>
<speed>0.470000</speed>
</trkpt>
<trkpt lat="43.128971" lon="19.097567">
<ele>1601.079102</ele>
<time>2012-05-01T12:50:54Z</time>
<desc>lat.=43.128971, lon.=19.097567, Alt.=1601.079102m. Speed=1.512000m/h.</desc>
<speed>0.420000</speed>
</trkpt>
<trkpt lat="43.128975" lon="19.097563">
<ele>1599.860352</ele>
<time>2012-05-01T12:50:59Z</time>
<desc>lat.=43.128975, lon.=19.097563, Alt.=1599.860352m. Speed=0.144000m/h.</desc>
<speed>0.040000</speed>
</trkpt>
<trkpt lat="43.128975" lon="19.097563">
<ele>1599.922852</ele>
<time>2012-05-01T12:51:04Z</time>
<desc>lat.=43.128975, lon.=19.097563, Alt.=1599.922852m. Speed=1.620000m/h.</desc>
<speed>0.450000</speed>
</trkpt>
<trkpt lat="43.129005" lon="19.097593">
<ele>1599.829102</ele>
<time>2012-05-01T12:51:09Z</time>
<desc>lat.=43.129005, lon.=19.097593, Alt.=1599.829102m. Speed=2.736000m/h.</desc>
<speed>0.760000</speed>
</trkpt>
<trkpt lat="43.129044" lon="19.097609">
<ele>1600.016602</ele>
<time>2012-05-01T12:51:14Z</time>
<desc>lat.=43.129044, lon.=19.097609, Alt.=1600.016602m. Speed=3.132000m/h.</desc>
<speed>0.870000</speed>
</trkpt>
<trkpt lat="43.129082" lon="19.097641">
<ele>1600.016602</ele>
<time>2012-05-01T12:51:19Z</time>
<desc>lat.=43.129082, lon.=19.097641, Alt.=1600.016602m. Speed=2.088000m/h.</desc>
<speed>0.580000</speed>
</trkpt>
<trkpt lat="43.129116" lon="19.097677">
<ele>1599.360352</ele>
<time>2012-05-01T12:51:24Z</time>
<desc>lat.=43.129116, lon.=19.097677, Alt.=1599.360352m. Speed=4.284000m/h.</desc>
<speed>1.190000</speed>
</trkpt>
<trkpt lat="43.129147" lon="19.097706">
<ele>1598.860352</ele>
<time>2012-05-01T12:51:29Z</time>
<desc>lat.=43.129147, lon.=19.097706, Alt.=1598.860352m. Speed=3.492000m/h.</desc>
<speed>0.970000</speed>
</trkpt>
<trkpt lat="43.129181" lon="19.097738">
<ele>1598.797852</ele>
<time>2012-05-01T12:51:34Z</time>
<desc>lat.=43.129181, lon.=19.097738, Alt.=1598.797852m. Speed=3.456000m/h.</desc>
<speed>0.960000</speed>
</trkpt>
<trkpt lat="43.129211" lon="19.097775">
<ele>1598.516602</ele>
<time>2012-05-01T12:51:39Z</time>
<desc>lat.=43.129211, lon.=19.097775, Alt.=1598.516602m. Speed=3.492000m/h.</desc>
<speed>0.970000</speed>
</trkpt>
<trkpt lat="43.129250" lon="19.097813">
<ele>1598.360352</ele>
<time>2012-05-01T12:51:44Z</time>
<desc>lat.=43.129250, lon.=19.097813, Alt.=1598.360352m. Speed=3.384000m/h.</desc>
<speed>0.940000</speed>
</trkpt>
<trkpt lat="43.129299" lon="19.097824">
<ele>1598.954102</ele>
<time>2012-05-01T12:51:49Z</time>
<desc>lat.=43.129299, lon.=19.097824, Alt.=1598.954102m. Speed=4.176000m/h.</desc>
<speed>1.160000</speed>
</trkpt>
<trkpt lat="43.129333" lon="19.097860">
<ele>1599.641602</ele>
<time>2012-05-01T12:51:54Z</time>
<desc>lat.=43.129333, lon.=19.097860, Alt.=1599.641602m. Speed=1.404000m/h.</desc>
<speed>0.390000</speed>
</trkpt>
<trkpt lat="43.129353" lon="19.097872">
<ele>1599.829102</ele>
<time>2012-05-01T12:51:59Z</time>
<desc>lat.=43.129353, lon.=19.097872, Alt.=1599.829102m. Speed=2.016000m/h.</desc>
<speed>0.560000</speed>
</trkpt>
<trkpt lat="43.129368" lon="19.097878">
<ele>1600.454102</ele>
<time>2012-05-01T12:52:04Z</time>
<desc>lat.=43.129368, lon.=19.097878, Alt.=1600.454102m. Speed=1.008000m/h.</desc>
<speed>0.280000</speed>
</trkpt>
<trkpt lat="43.129391" lon="19.097879">
<ele>1600.579102</ele>
<time>2012-05-01T12:52:09Z</time>
<desc>lat.=43.129391, lon.=19.097879, Alt.=1600.579102m. Speed=2.304000m/h.</desc>
<speed>0.640000</speed>
</trkpt>
<trkpt lat="43.129425" lon="19.097916">
<ele>1601.047852</ele>
<time>2012-05-01T12:52:14Z</time>
<desc>lat.=43.129425, lon.=19.097916, Alt.=1601.047852m. Speed=2.232000m/h.</desc>
<speed>0.620000</speed>
</trkpt>
<trkpt lat="43.129463" lon="19.097965">
<ele>1600.516602</ele>
<time>2012-05-01T12:52:19Z</time>
<desc>lat.=43.129463, lon.=19.097965, Alt.=1600.516602m. Speed=3.744000m/h.</desc>
<speed>1.040000</speed>
</trkpt>
<trkpt lat="43.129486" lon="19.098009">
<ele>1600.204102</ele>
<time>2012-05-01T12:52:24Z</time>
<desc>lat.=43.129486, lon.=19.098009, Alt.=1600.204102m. Speed=2.268000m/h.</desc>
<speed>0.630000</speed>
</trkpt>
<trkpt lat="43.129524" lon="19.098021">
<ele>1600.422852</ele>
<time>2012-05-01T12:52:29Z</time>
<desc>lat.=43.129524, lon.=19.098021, Alt.=1600.422852m. Speed=3.168000m/h.</desc>
<speed>0.880000</speed>
</trkpt>
<trkpt lat="43.129528" lon="19.098045">
<ele>1600.141602</ele>
<time>2012-05-01T12:52:34Z</time>
<desc>lat.=43.129528, lon.=19.098045, Alt.=1600.141602m. Speed=1.728000m/h.</desc>
<speed>0.480000</speed>
</trkpt>
<trkpt lat="43.129547" lon="19.098097">
<ele>1600.922852</ele>
<time>2012-05-01T12:52:39Z</time>
<desc>lat.=43.129547, lon.=19.098097, Alt.=1600.922852m. Speed=1.944000m/h.</desc>
<speed>0.540000</speed>
</trkpt>
<trkpt lat="43.129574" lon="19.098145">
<ele>1602.391602</ele>
<time>2012-05-01T12:52:44Z</time>
<desc>lat.=43.129574, lon.=19.098145, Alt.=1602.391602m. Speed=2.484000m/h.</desc>
<speed>0.690000</speed>
</trkpt>
<trkpt lat="43.129612" lon="19.098183">
<ele>1602.891602</ele>
<time>2012-05-01T12:52:49Z</time>
<desc>lat.=43.129612, lon.=19.098183, Alt.=1602.891602m. Speed=2.988000m/h.</desc>
<speed>0.830000</speed>
</trkpt>
<trkpt lat="43.129642" lon="19.098204">
<ele>1602.860352</ele>
<time>2012-05-01T12:52:54Z</time>
<desc>lat.=43.129642, lon.=19.098204, Alt.=1602.860352m. Speed=2.664000m/h.</desc>
<speed>0.740000</speed>
</trkpt>
<trkpt lat="43.129673" lon="19.098221">
<ele>1604.016602</ele>
<time>2012-05-01T12:52:59Z</time>
<desc>lat.=43.129673, lon.=19.098221, Alt.=1604.016602m. Speed=2.088000m/h.</desc>
<speed>0.580000</speed>
</trkpt>
<trkpt lat="43.129707" lon="19.098251">
<ele>1604.235352</ele>
<time>2012-05-01T12:53:04Z</time>
<desc>lat.=43.129707, lon.=19.098251, Alt.=1604.235352m. Speed=3.816000m/h.</desc>
<speed>1.060000</speed>
</trkpt>
<trkpt lat="43.129772" lon="19.098267">
<ele>1603.360352</ele>
<time>2012-05-01T12:53:09Z</time>
<desc>lat.=43.129772, lon.=19.098267, Alt.=1603.360352m. Speed=3.744000m/h.</desc>
<speed>1.040000</speed>
</trkpt>
<trkpt lat="43.129795" lon="19.098309">
<ele>1601.266602</ele>
<time>2012-05-01T12:53:14Z</time>
<desc>lat.=43.129795, lon.=19.098309, Alt.=1601.266602m. Speed=2.304000m/h.</desc>
<speed>0.640000</speed>
</trkpt>
<trkpt lat="43.129810" lon="19.098356">
<ele>1600.797852</ele>
<time>2012-05-01T12:53:19Z</time>
<desc>lat.=43.129810, lon.=19.098356, Alt.=1600.797852m. Speed=3.384000m/h.</desc>
<speed>0.940000</speed>
</trkpt>
<trkpt lat="43.129868" lon="19.098379">
<ele>1600.672852</ele>
<time>2012-05-01T12:53:24Z</time>
<desc>lat.=43.129868, lon.=19.098379, Alt.=1600.672852m. Speed=2.520000m/h.</desc>
<speed>0.700000</speed>
</trkpt>
<trkpt lat="43.129902" lon="19.098402">
<ele>1600.422852</ele>
<time>2012-05-01T12:53:29Z</time>
<desc>lat.=43.129902, lon.=19.098402, Alt.=1600.422852m. Speed=5.364000m/h.</desc>
<speed>1.490000</speed>
</trkpt>
<trkpt lat="43.129944" lon="19.098412">
<ele>1599.579102</ele>
<time>2012-05-01T12:53:34Z</time>
<desc>lat.=43.129944, lon.=19.098412, Alt.=1599.579102m. Speed=2.556000m/h.</desc>
<speed>0.710000</speed>
</trkpt>
<trkpt lat="43.129986" lon="19.098427">
<ele>1599.610352</ele>
<time>2012-05-01T12:53:39Z</time>
<desc>lat.=43.129986, lon.=19.098427, Alt.=1599.610352m. Speed=4.320000m/h.</desc>
<speed>1.200000</speed>
</trkpt>
<trkpt lat="43.130028" lon="19.098459">
<ele>1596.860352</ele>
<time>2012-05-01T12:53:44Z</time>
<desc>lat.=43.130028, lon.=19.098459, Alt.=1596.860352m. Speed=2.448000m/h.</desc>
<speed>0.680000</speed>
</trkpt>
<trkpt lat="43.130058" lon="19.098486">
<ele>1595.766602</ele>
<time>2012-05-01T12:53:49Z</time>
<desc>lat.=43.130058, lon.=19.098486, Alt.=1595.766602m. Speed=3.240000m/h.</desc>
<speed>0.900000</speed>
</trkpt>
<trkpt lat="43.130093" lon="19.098526">
<ele>1593.860352</ele>
<time>2012-05-01T12:53:54Z</time>
<desc>lat.=43.130093, lon.=19.098526, Alt.=1593.860352m. Speed=2.556000m/h.</desc>
<speed>0.710000</speed>
</trkpt>
<trkpt lat="43.130161" lon="19.098524">
<ele>1590.079102</ele>
<time>2012-05-01T12:53:59Z</time>
<desc>lat.=43.130161, lon.=19.098524, Alt.=1590.079102m. Speed=2.772000m/h.</desc>
<speed>0.770000</speed>
</trkpt>
<trkpt lat="43.130192" lon="19.098537">
<ele>1587.672852</ele>
<time>2012-05-01T12:54:04Z</time>
<desc>lat.=43.130192, lon.=19.098537, Alt.=1587.672852m. Speed=3.744000m/h.</desc>
<speed>1.040000</speed>
</trkpt>
<trkpt lat="43.130234" lon="19.098541">
<ele>1586.360352</ele>
<time>2012-05-01T12:54:09Z</time>
<desc>lat.=43.130234, lon.=19.098541, Alt.=1586.360352m. Speed=4.248000m/h.</desc>
<speed>1.180000</speed>
</trkpt>
<trkpt lat="43.130287" lon="19.098551">
<ele>1585.329102</ele>
<time>2012-05-01T12:54:14Z</time>
<desc>lat.=43.130287, lon.=19.098551, Alt.=1585.329102m. Speed=2.952000m/h.</desc>
<speed>0.820000</speed>
</trkpt>
<trkpt lat="43.130310" lon="19.098568">
<ele>1585.641602</ele>
<time>2012-05-01T12:54:19Z</time>
<desc>lat.=43.130310, lon.=19.098568, Alt.=1585.641602m. Speed=1.548000m/h.</desc>
<speed>0.430000</speed>
</trkpt>
<trkpt lat="43.130337" lon="19.098568">
<ele>1585.735352</ele>
<time>2012-05-01T12:54:24Z</time>
<desc>lat.=43.130337, lon.=19.098568, Alt.=1585.735352m. Speed=0.000000m/h.</desc>
<speed>0.000000</speed>
</trkpt>
<trkpt lat="43.130344" lon="19.098558">
<ele>1585.079102</ele>
<time>2012-05-01T12:54:29Z</time>
<desc>lat.=43.130344, lon.=19.098558, Alt.=1585.079102m. Speed=3.492000m/h.</desc>
<speed>0.970000</speed>
</trkpt>
<trkpt lat="43.130402" lon="19.098574">
<ele>1585.766602</ele>
<time>2012-05-01T12:54:34Z</time>
<desc>lat.=43.130402, lon.=19.098574, Alt.=1585.766602m. Speed=4.104000m/h.</desc>
<speed>1.140000</speed>
</trkpt>
<trkpt lat="43.130451" lon="19.098604">
<ele>1586.016602</ele>
<time>2012-05-01T12:54:39Z</time>
<desc>lat.=43.130451, lon.=19.098604, Alt.=1586.016602m. Speed=4.572000m/h.</desc>
<speed>1.270000</speed>
</trkpt>
<trkpt lat="43.130505" lon="19.098639">
<ele>1586.485352</ele>
<time>2012-05-01T12:54:44Z</time>
<desc>lat.=43.130505, lon.=19.098639, Alt.=1586.485352m. Speed=4.212000m/h.</desc>
<speed>1.170000</speed>
</trkpt>
<trkpt lat="43.130543" lon="19.098660">
<ele>1587.110352</ele>
<time>2012-05-01T12:54:49Z</time>
<desc>lat.=43.130543, lon.=19.098660, Alt.=1587.110352m. Speed=3.132000m/h.</desc>
<speed>0.870000</speed>
</trkpt>
<trkpt lat="43.130562" lon="19.098690">
<ele>1587.672852</ele>
<time>2012-05-01T12:54:54Z</time>
<desc>lat.=43.130562, lon.=19.098690, Alt.=1587.672852m. Speed=3.456000m/h.</desc>
<speed>0.960000</speed>
</trkpt>
<trkpt lat="43.130592" lon="19.098726">
<ele>1587.985352</ele>
<time>2012-05-01T12:54:59Z</time>
<desc>lat.=43.130592, lon.=19.098726, Alt.=1587.985352m. Speed=3.528000m/h.</desc>
<speed>0.980000</speed>
</trkpt>
<trkpt lat="43.130600" lon="19.098761">
<ele>1587.766602</ele>
<time>2012-05-01T12:55:04Z</time>
<desc>lat.=43.130600, lon.=19.098761, Alt.=1587.766602m. Speed=3.672000m/h.</desc>
<speed>1.020000</speed>
</trkpt>
<trkpt lat="43.130619" lon="19.098783">
<ele>1588.454102</ele>
<time>2012-05-01T12:55:09Z</time>
<desc>lat.=43.130619, lon.=19.098783, Alt.=1588.454102m. Speed=3.780000m/h.</desc>
<speed>1.050000</speed>
</trkpt>
<trkpt lat="43.130661" lon="19.098816">
<ele>1587.985352</ele>
<time>2012-05-01T12:55:14Z</time>
<desc>lat.=43.130661, lon.=19.098816, Alt.=1587.985352m. Speed=3.636000m/h.</desc>
<speed>1.010000</speed>
</trkpt>
<trkpt lat="43.130699" lon="19.098856">
<ele>1587.829102</ele>
<time>2012-05-01T12:55:19Z</time>
<desc>lat.=43.130699, lon.=19.098856, Alt.=1587.829102m. Speed=4.032000m/h.</desc>
<speed>1.120000</speed>
</trkpt>
<trkpt lat="43.130733" lon="19.098888">
<ele>1587.141602</ele>
<time>2012-05-01T12:55:24Z</time>
<desc>lat.=43.130733, lon.=19.098888, Alt.=1587.141602m. Speed=3.348000m/h.</desc>
<speed>0.930000</speed>
</trkpt>
<trkpt lat="43.130760" lon="19.098919">
<ele>1587.235352</ele>
<time>2012-05-01T12:55:29Z</time>
<desc>lat.=43.130760, lon.=19.098919, Alt.=1587.235352m. Speed=2.880000m/h.</desc>
<speed>0.800000</speed>
</trkpt>
<trkpt lat="43.130795" lon="19.098949">
<ele>1588.110352</ele>
<time>2012-05-01T12:55:34Z</time>
<desc>lat.=43.130795, lon.=19.098949, Alt.=1588.110352m. Speed=3.564000m/h.</desc>
<speed>0.990000</speed>
</trkpt>
<trkpt lat="43.130844" lon="19.098948">
<ele>1588.329102</ele>
<time>2012-05-01T12:55:39Z</time>
<desc>lat.=43.130844, lon.=19.098948, Alt.=1588.329102m. Speed=3.060000m/h.</desc>
<speed>0.850000</speed>
</trkpt>
<trkpt lat="43.130901" lon="19.098942">
<ele>1586.891602</ele>
<time>2012-05-01T12:55:44Z</time>
<desc>lat.=43.130901, lon.=19.098942, Alt.=1586.891602m. Speed=4.356000m/h.</desc>
<speed>1.210000</speed>
</trkpt>
<trkpt lat="43.130947" lon="19.098951">
<ele>1586.954102</ele>
<time>2012-05-01T12:55:49Z</time>
<desc>lat.=43.130947, lon.=19.098951, Alt.=1586.954102m. Speed=4.284000m/h.</desc>
<speed>1.190000</speed>
</trkpt>
<trkpt lat="43.130993" lon="19.098967">
<ele>1586.860352</ele>
<time>2012-05-01T12:55:54Z</time>
<desc>lat.=43.130993, lon.=19.098967, Alt.=1586.860352m. Speed=4.500000m/h.</desc>
<speed>1.250000</speed>
</trkpt>
<trkpt lat="43.131039" lon="19.098976">
<ele>1586.641602</ele>
<time>2012-05-01T12:55:59Z</time>
<desc>lat.=43.131039, lon.=19.098976, Alt.=1586.641602m. Speed=3.528000m/h.</desc>
<speed>0.980000</speed>
</trkpt>
<trkpt lat="43.131092" lon="19.098980">
<ele>1587.110352</ele>
<time>2012-05-01T12:56:04Z</time>
<desc>lat.=43.131092, lon.=19.098980, Alt.=1587.110352m. Speed=2.772000m/h.</desc>
<speed>0.770000</speed>
</trkpt>
<trkpt lat="43.131119" lon="19.098989">
<ele>1586.704102</ele>
<time>2012-05-01T12:56:09Z</time>
<desc>lat.=43.131119, lon.=19.098989, Alt.=1586.704102m. Speed=3.168000m/h.</desc>
<speed>0.880000</speed>
</trkpt>
<trkpt lat="43.131165" lon="19.099003">
<ele>1588.235352</ele>
<time>2012-05-01T12:56:14Z</time>
<desc>lat.=43.131165, lon.=19.099003, Alt.=1588.235352m. Speed=3.312000m/h.</desc>
<speed>0.920000</speed>
</trkpt>
<trkpt lat="43.131207" lon="19.099024">
<ele>1587.922852</ele>
<time>2012-05-01T12:56:19Z</time>
<desc>lat.=43.131207, lon.=19.099024, Alt.=1587.922852m. Speed=2.700000m/h.</desc>
<speed>0.750000</speed>
</trkpt>
<trkpt lat="43.131222" lon="19.099054">
<ele>1587.672852</ele>
<time>2012-05-01T12:56:24Z</time>
<desc>lat.=43.131222, lon.=19.099054, Alt.=1587.672852m. Speed=3.384000m/h.</desc>
<speed>0.940000</speed>
</trkpt>
<trkpt lat="43.131245" lon="19.099083">
<ele>1587.766602</ele>
<time>2012-05-01T12:56:29Z</time>
<desc>lat.=43.131245, lon.=19.099083, Alt.=1587.766602m. Speed=1.944000m/h.</desc>
<speed>0.540000</speed>
</trkpt>
<trkpt lat="43.131279" lon="19.099123">
<ele>1587.610352</ele>
<time>2012-05-01T12:56:34Z</time>
<desc>lat.=43.131279, lon.=19.099123, Alt.=1587.610352m. Speed=3.024000m/h.</desc>
<speed>0.840000</speed>
</trkpt>
<trkpt lat="43.131313" lon="19.099161">
<ele>1587.985352</ele>
<time>2012-05-01T12:56:39Z</time>
<desc>lat.=43.131313, lon.=19.099161, Alt.=1587.985352m. Speed=3.312000m/h.</desc>
<speed>0.920000</speed>
</trkpt>
<trkpt lat="43.131344" lon="19.099199">
<ele>1587.954102</ele>
<time>2012-05-01T12:56:44Z</time>
<desc>lat.=43.131344, lon.=19.099199, Alt.=1587.954102m. Speed=2.844000m/h.</desc>
<speed>0.790000</speed>
</trkpt>
<trkpt lat="43.131371" lon="19.099234">
<ele>1588.360352</ele>
<time>2012-05-01T12:56:49Z</time>
<desc>lat.=43.131371, lon.=19.099234, Alt.=1588.360352m. Speed=2.952000m/h.</desc>
<speed>0.820000</speed>
</trkpt>
<trkpt lat="43.131409" lon="19.099264">
<ele>1588.516602</ele>
<time>2012-05-01T12:56:54Z</time>
<desc>lat.=43.131409, lon.=19.099264, Alt.=1588.516602m. Speed=3.276000m/h.</desc>
<speed>0.910000</speed>
</trkpt>
<trkpt lat="43.131454" lon="19.099287">
<ele>1587.516602</ele>
<time>2012-05-01T12:56:59Z</time>
<desc>lat.=43.131454, lon.=19.099287, Alt.=1587.516602m. Speed=3.276000m/h.</desc>
<speed>0.910000</speed>
</trkpt>
<trkpt lat="43.131489" lon="19.099304">
<ele>1587.860352</ele>
<time>2012-05-01T12:57:04Z</time>
<desc>lat.=43.131489, lon.=19.099304, Alt.=1587.860352m. Speed=3.204000m/h.</desc>
<speed>0.890000</speed>
</trkpt>
<trkpt lat="43.131527" lon="19.099327">
<ele>1588.610352</ele>
<time>2012-05-01T12:57:09Z</time>
<desc>lat.=43.131527, lon.=19.099327, Alt.=1588.610352m. Speed=3.420000m/h.</desc>
<speed>0.950000</speed>
</trkpt>
<trkpt lat="43.131577" lon="19.099354">
<ele>1586.204102</ele>
<time>2012-05-01T12:57:14Z</time>
<desc>lat.=43.131577, lon.=19.099354, Alt.=1586.204102m. Speed=3.168000m/h.</desc>
<speed>0.880000</speed>
</trkpt>
<trkpt lat="43.131626" lon="19.099358">
<ele>1585.922852</ele>
<time>2012-05-01T12:57:19Z</time>
<desc>lat.=43.131626, lon.=19.099358, Alt.=1585.922852m. Speed=1.872000m/h.</desc>
<speed>0.520000</speed>
</trkpt>
<trkpt lat="43.131641" lon="19.099390">
<ele>1586.329102</ele>
<time>2012-05-01T12:57:24Z</time>
<desc>lat.=43.131641, lon.=19.099390, Alt.=1586.329102m. Speed=2.376000m/h.</desc>
<speed>0.660000</speed>
</trkpt>
<trkpt lat="43.131683" lon="19.099403">
<ele>1586.047852</ele>
<time>2012-05-01T12:57:29Z</time>
<desc>lat.=43.131683, lon.=19.099403, Alt.=1586.047852m. Speed=3.168000m/h.</desc>
<speed>0.880000</speed>
</trkpt>
<trkpt lat="43.131710" lon="19.099440">
<ele>1585.797852</ele>
<time>2012-05-01T12:57:34Z</time>
<desc>lat.=43.131710, lon.=19.099440, Alt.=1585.797852m. Speed=3.384000m/h.</desc>
<speed>0.940000</speed>
</trkpt>
<trkpt lat="43.131741" lon="19.099470">
<ele>1587.141602</ele>
<time>2012-05-01T12:57:39Z</time>
<desc>lat.=43.131741, lon.=19.099470, Alt.=1587.141602m. Speed=2.592000m/h.</desc>
<speed>0.720000</speed>
</trkpt>
<trkpt lat="43.131767" lon="19.099512">
<ele>1588.579102</ele>
<time>2012-05-01T12:57:44Z</time>
<desc>lat.=43.131767, lon.=19.099512, Alt.=1588.579102m. Speed=4.140000m/h.</desc>
<speed>1.150000</speed>
</trkpt>
<trkpt lat="43.131802" lon="19.099550">
<ele>1588.672852</ele>
<time>2012-05-01T12:57:49Z</time>
<desc>lat.=43.131802, lon.=19.099550, Alt.=1588.672852m. Speed=3.492000m/h.</desc>
<speed>0.970000</speed>
</trkpt>
<trkpt lat="43.131832" lon="19.099590">
<ele>1589.422852</ele>
<time>2012-05-01T12:57:54Z</time>
<desc>lat.=43.131832, lon.=19.099590, Alt.=1589.422852m. Speed=3.420000m/h.</desc>
<speed>0.950000</speed>
</trkpt>
<trkpt lat="43.131859" lon="19.099644">
<ele>1589.797852</ele>
<time>2012-05-01T12:57:59Z</time>
<desc>lat.=43.131859, lon.=19.099644, Alt.=1589.797852m. Speed=3.816000m/h.</desc>
<speed>1.060000</speed>
</trkpt>
<trkpt lat="43.131905" lon="19.099684">
<ele>1589.891602</ele>
<time>2012-05-01T12:58:04Z</time>
<desc>lat.=43.131905, lon.=19.099684, Alt.=1589.891602m. Speed=2.232000m/h.</desc>
<speed>0.620000</speed>
</trkpt>
<trkpt lat="43.131943" lon="19.099714">
<ele>1588.672852</ele>
<time>2012-05-01T12:58:09Z</time>
<desc>lat.=43.131943, lon.=19.099714, Alt.=1588.672852m. Speed=3.564000m/h.</desc>
<speed>0.990000</speed>
</trkpt>
<trkpt lat="43.131977" lon="19.099741">
<ele>1587.891602</ele>
<time>2012-05-01T12:58:14Z</time>
<desc>lat.=43.131977, lon.=19.099741, Alt.=1587.891602m. Speed=3.168000m/h.</desc>
<speed>0.880000</speed>
</trkpt>
<trkpt lat="43.132019" lon="19.099770">
<ele>1587.766602</ele>
<time>2012-05-01T12:58:19Z</time>
<desc>lat.=43.132019, lon.=19.099770, Alt.=1587.766602m. Speed=4.644000m/h.</desc>
<speed>1.290000</speed>
</trkpt>
<trkpt lat="43.132080" lon="19.099777">
<ele>1587.110352</ele>
<time>2012-05-01T12:58:24Z</time>
<desc>lat.=43.132080, lon.=19.099777, Alt.=1587.110352m. Speed=3.492000m/h.</desc>
<speed>0.970000</speed>
</trkpt>
<trkpt lat="43.132130" lon="19.099794">
<ele>1585.485352</ele>
<time>2012-05-01T12:58:29Z</time>
<desc>lat.=43.132130, lon.=19.099794, Alt.=1585.485352m. Speed=4.212000m/h.</desc>
<speed>1.170000</speed>
</trkpt>
<trkpt lat="43.132160" lon="19.099819">
<ele>1585.235352</ele>
<time>2012-05-01T12:58:34Z</time>
<desc>lat.=43.132160, lon.=19.099819, Alt.=1585.235352m. Speed=2.916000m/h.</desc>
<speed>0.810000</speed>
</trkpt>
<trkpt lat="43.132191" lon="19.099838">
<ele>1585.141602</ele>
<time>2012-05-01T12:58:39Z</time>
<desc>lat.=43.132191, lon.=19.099838, Alt.=1585.141602m. Speed=3.312000m/h.</desc>
<speed>0.920000</speed>
</trkpt>
<trkpt lat="43.132206" lon="19.099876">
<ele>1584.922852</ele>
<time>2012-05-01T12:58:44Z</time>
<desc>lat.=43.132206, lon.=19.099876, Alt.=1584.922852m. Speed=2.088000m/h.</desc>
<speed>0.580000</speed>
</trkpt>
<trkpt lat="43.132229" lon="19.099884">
<ele>1585.516602</ele>
<time>2012-05-01T12:58:49Z</time>
<desc>lat.=43.132229, lon.=19.099884, Alt.=1585.516602m. Speed=1.872000m/h.</desc>
<speed>0.520000</speed>
</trkpt>
<trkpt lat="43.132256" lon="19.099907">
<ele>1586.204102</ele>
<time>2012-05-01T12:58:54Z</time>
<desc>lat.=43.132256, lon.=19.099907, Alt.=1586.204102m. Speed=3.204000m/h.</desc>
<speed>0.890000</speed>
</trkpt>
<trkpt lat="43.132294" lon="19.099924">
<ele>1585.172852</ele>
<time>2012-05-01T12:58:59Z</time>
<desc>lat.=43.132294, lon.=19.099924, Alt.=1585.172852m. Speed=3.708000m/h.</desc>
<speed>1.030000</speed>
</trkpt>
<trkpt lat="43.132332" lon="19.099958">
<ele>1586.204102</ele>
<time>2012-05-01T12:59:04Z</time>
<desc>lat.=43.132332, lon.=19.099958, Alt.=1586.204102m. Speed=2.916000m/h.</desc>
<speed>0.810000</speed>
</trkpt>
<trkpt lat="43.132355" lon="19.099995">
<ele>1586.454102</ele>
<time>2012-05-01T12:59:09Z</time>
<desc>lat.=43.132355, lon.=19.099995, Alt.=1586.454102m. Speed=2.952000m/h.</desc>
<speed>0.820000</speed>
</trkpt>
<trkpt lat="43.132381" lon="19.100019">
<ele>1586.329102</ele>
<time>2012-05-01T12:59:14Z</time>
<desc>lat.=43.132381, lon.=19.100019, Alt.=1586.329102m. Speed=3.024000m/h.</desc>
<speed>0.840000</speed>
</trkpt>
<trkpt lat="43.132431" lon="19.100042">
<ele>1585.329102</ele>
<time>2012-05-01T12:59:19Z</time>
<desc>lat.=43.132431, lon.=19.100042, Alt.=1585.329102m. Speed=3.960000m/h.</desc>
<speed>1.100000</speed>
</trkpt>
<trkpt lat="43.132484" lon="19.100054">
<ele>1585.079102</ele>
<time>2012-05-01T12:59:24Z</time>
<desc>lat.=43.132484, lon.=19.100054, Alt.=1585.079102m. Speed=3.744000m/h.</desc>
<speed>1.040000</speed>
</trkpt>
<trkpt lat="43.132523" lon="19.100092">
<ele>1583.860352</ele>
<time>2012-05-01T12:59:29Z</time>
<desc>lat.=43.132523, lon.=19.100092, Alt.=1583.860352m. Speed=3.708000m/h.</desc>
<speed>1.030000</speed>
</trkpt>
<trkpt lat="43.132557" lon="19.100138">
<ele>1584.235352</ele>
<time>2012-05-01T12:59:34Z</time>
<desc>lat.=43.132557, lon.=19.100138, Alt.=1584.235352m. Speed=4.788000m/h.</desc>
<speed>1.330000</speed>
</trkpt>
<trkpt lat="43.132603" lon="19.100166">
<ele>1582.922852</ele>
<time>2012-05-01T12:59:39Z</time>
<desc>lat.=43.132603, lon.=19.100166, Alt.=1582.922852m. Speed=3.096000m/h.</desc>
<speed>0.860000</speed>
</trkpt>
<trkpt lat="43.132648" lon="19.100193">
<ele>1580.829102</ele>
<time>2012-05-01T12:59:44Z</time>
<desc>lat.=43.132648, lon.=19.100193, Alt.=1580.829102m. Speed=2.952000m/h.</desc>
<speed>0.820000</speed>
</trkpt>
<trkpt lat="43.132683" lon="19.100220">
<ele>1580.204102</ele>
<time>2012-05-01T12:59:49Z</time>
<desc>lat.=43.132683, lon.=19.100220, Alt.=1580.204102m. Speed=3.672000m/h.</desc>
<speed>1.020000</speed>
</trkpt>
<trkpt lat="43.132732" lon="19.100239">
<ele>1579.735352</ele>
<time>2012-05-01T12:59:54Z</time>
<desc>lat.=43.132732, lon.=19.100239, Alt.=1579.735352m. Speed=3.960000m/h.</desc>
<speed>1.100000</speed>
</trkpt>
<trkpt lat="43.132790" lon="19.100229">
<ele>1579.704102</ele>
<time>2012-05-01T12:59:59Z</time>
<desc>lat.=43.132790, lon.=19.100229, Alt.=1579.704102m. Speed=3.888000m/h.</desc>
<speed>1.080000</speed>
</trkpt>
<trkpt lat="43.132847" lon="19.100218">
<ele>1580.766602</ele>
<time>2012-05-01T13:00:04Z</time>
<desc>lat.=43.132847, lon.=19.100218, Alt.=1580.766602m. Speed=3.816000m/h.</desc>
<speed>1.060000</speed>
</trkpt>
<trkpt lat="43.132881" lon="19.100239">
<ele>1580.922852</ele>
<time>2012-05-01T13:00:09Z</time>
<desc>lat.=43.132881, lon.=19.100239, Alt.=1580.922852m. Speed=2.952000m/h.</desc>
<speed>0.820000</speed>
</trkpt>
<trkpt lat="43.132919" lon="19.100262">
<ele>1581.141602</ele>
<time>2012-05-01T13:00:14Z</time>
<desc>lat.=43.132919, lon.=19.100262, Alt.=1581.141602m. Speed=3.600000m/h.</desc>
<speed>1.000000</speed>
</trkpt>
<trkpt lat="43.132977" lon="19.100286">
<ele>1581.672852</ele>
<time>2012-05-01T13:00:19Z</time>
<desc>lat.=43.132977, lon.=19.100286, Alt.=1581.672852m. Speed=3.276000m/h.</desc>
<speed>0.910000</speed>
</trkpt>
<trkpt lat="43.133003" lon="19.100311">
<ele>1582.172852</ele>
<time>2012-05-01T13:00:24Z</time>
<desc>lat.=43.133003, lon.=19.100311, Alt.=1582.172852m. Speed=3.060000m/h.</desc>
<speed>0.850000</speed>
</trkpt>
<trkpt lat="43.133049" lon="19.100317">
<ele>1583.172852</ele>
<time>2012-05-01T13:00:29Z</time>
<desc>lat.=43.133049, lon.=19.100317, Alt.=1583.172852m. Speed=3.672000m/h.</desc>
<speed>1.020000</speed>
</trkpt>
<trkpt lat="43.133076" lon="19.100321">
<ele>1584.391602</ele>
<time>2012-05-01T13:00:34Z</time>
<desc>lat.=43.133076, lon.=19.100321, Alt.=1584.391602m. Speed=1.836000m/h.</desc>
<speed>0.510000</speed>
</trkpt>
<trkpt lat="43.133114" lon="19.100332">
<ele>1585.829102</ele>
<time>2012-05-01T13:00:39Z</time>
<desc>lat.=43.133114, lon.=19.100332, Alt.=1585.829102m. Speed=3.132000m/h.</desc>
<speed>0.870000</speed>
</trkpt>
<trkpt lat="43.133171" lon="19.100365">
<ele>1585.610352</ele>
<time>2012-05-01T13:00:44Z</time>
<desc>lat.=43.133171, lon.=19.100365, Alt.=1585.610352m. Speed=2.736000m/h.</desc>
<speed>0.760000</speed>
</trkpt>
<trkpt lat="43.133213" lon="19.100372">
<ele>1586.047852</ele>
<time>2012-05-01T13:00:49Z</time>
<desc>lat.=43.133213, lon.=19.100372, Alt.=1586.047852m. Speed=2.808000m/h.</desc>
<speed>0.780000</speed>
</trkpt>
<trkpt lat="43.133251" lon="19.100388">
<ele>1585.922852</ele>
<time>2012-05-01T13:00:54Z</time>
<desc>lat.=43.133251, lon.=19.100388, Alt.=1585.922852m. Speed=3.816000m/h.</desc>
<speed>1.060000</speed>
</trkpt>
<trkpt lat="43.133286" lon="19.100401">
<ele>1585.922852</ele>
<time>2012-05-01T13:00:59Z</time>
<desc>lat.=43.133286, lon.=19.100401, Alt.=1585.922852m. Speed=2.844000m/h.</desc>
<speed>0.790000</speed>
</trkpt>
<trkpt lat="43.133335" lon="19.100420">
<ele>1586.672852</ele>
<time>2012-05-01T13:01:04Z</time>
<desc>lat.=43.133335, lon.=19.100420, Alt.=1586.672852m. Speed=3.528000m/h.</desc>
<speed>0.980000</speed>
</trkpt>
<trkpt lat="43.133389" lon="19.100443">
<ele>1586.516602</ele>
<time>2012-05-01T13:01:09Z</time>
<desc>lat.=43.133389, lon.=19.100443, Alt.=1586.516602m. Speed=3.240000m/h.</desc>
<speed>0.900000</speed>
</trkpt>
<trkpt lat="43.133427" lon="19.100464">
<ele>1585.391602</ele>
<time>2012-05-01T13:01:14Z</time>
<desc>lat.=43.133427, lon.=19.100464, Alt.=1585.391602m. Speed=3.348000m/h.</desc>
<speed>0.930000</speed>
</trkpt>
<trkpt lat="43.133472" lon="19.100491">
<ele>1585.079102</ele>
<time>2012-05-01T13:01:19Z</time>
<desc>lat.=43.133472, lon.=19.100491, Alt.=1585.079102m. Speed=3.744000m/h.</desc>
<speed>1.040000</speed>
</trkpt>
<trkpt lat="43.133533" lon="19.100502">
<ele>1583.704102</ele>
<time>2012-05-01T13:01:24Z</time>
<desc>lat.=43.133533, lon.=19.100502, Alt.=1583.704102m. Speed=5.976000m/h.</desc>
<speed>1.660000</speed>
</trkpt>
<trkpt lat="43.133598" lon="19.100494">
<ele>1582.516602</ele>
<time>2012-05-01T13:01:29Z</time>
<desc>lat.=43.133598, lon.=19.100494, Alt.=1582.516602m. Speed=4.644000m/h.</desc>
<speed>1.290000</speed>
</trkpt>
<trkpt lat="43.133659" lon="19.100479">
<ele>1581.329102</ele>
<time>2012-05-01T13:01:34Z</time>
<desc>lat.=43.133659, lon.=19.100479, Alt.=1581.329102m. Speed=5.652000m/h.</desc>
<speed>1.570000</speed>
</trkpt>
<trkpt lat="43.133720" lon="19.100481">
<ele>1581.391602</ele>
<time>2012-05-01T13:01:39Z</time>
<desc>lat.=43.133720, lon.=19.100481, Alt.=1581.391602m. Speed=4.104000m/h.</desc>
<speed>1.140000</speed>
</trkpt>
<trkpt lat="43.133781" lon="19.100519">
<ele>1579.141602</ele>
<time>2012-05-01T13:01:44Z</time>
<desc>lat.=43.133781, lon.=19.100519, Alt.=1579.141602m. Speed=3.024000m/h.</desc>
<speed>0.840000</speed>
</trkpt>
<trkpt lat="43.133793" lon="19.100536">
<ele>1579.735352</ele>
<time>2012-05-01T13:01:49Z</time>
<desc>lat.=43.133793, lon.=19.100536, Alt.=1579.735352m. Speed=0.504000m/h.</desc>
<speed>0.140000</speed>
</trkpt>
<trkpt lat="43.133797" lon="19.100536">
<ele>1579.797852</ele>
<time>2012-05-01T13:01:54Z</time>
<desc>lat.=43.133797, lon.=19.100536, Alt.=1579.797852m. Speed=0.468000m/h.</desc>
<speed>0.130000</speed>
</trkpt>
<trkpt lat="43.133816" lon="19.100584">
<ele>1580.266602</ele>
<time>2012-05-01T13:01:59Z</time>
<desc>lat.=43.133816, lon.=19.100584, Alt.=1580.266602m. Speed=4.500000m/h.</desc>
<speed>1.250000</speed>
</trkpt>
<trkpt lat="43.133873" lon="19.100594">
<ele>1580.391602</ele>
<time>2012-05-01T13:02:04Z</time>
<desc>lat.=43.133873, lon.=19.100594, Alt.=1580.391602m. Speed=6.300000m/h.</desc>
<speed>1.750000</speed>
</trkpt>
<trkpt lat="43.133911" lon="19.100574">
<ele>1580.329102</ele>
<time>2012-05-01T13:02:09Z</time>
<desc>lat.=43.133911, lon.=19.100574, Alt.=1580.329102m. Speed=2.304000m/h.</desc>
<speed>0.640000</speed>
</trkpt>
<trkpt lat="43.133942" lon="19.100550">
<ele>1580.047852</ele>
<time>2012-05-01T13:02:14Z</time>
<desc>lat.=43.133942, lon.=19.100550, Alt.=1580.047852m. Speed=2.484000m/h.</desc>
<speed>0.690000</speed>
</trkpt>
<trkpt lat="43.133968" lon="19.100529">
<ele>1580.797852</ele>
<time>2012-05-01T13:02:19Z</time>
<desc>lat.=43.133968, lon.=19.100529, Alt.=1580.797852m. Speed=2.664000m/h.</desc>
<speed>0.740000</speed>
</trkpt>
<trkpt lat="43.134010" lon="19.100529">
<ele>1580.641602</ele>
<time>2012-05-01T13:02:24Z</time>
<desc>lat.=43.134010, lon.=19.100529, Alt.=1580.641602m. Speed=4.428000m/h.</desc>
<speed>1.230000</speed>
</trkpt>
<trkpt lat="43.134071" lon="19.100554">
<ele>1579.579102</ele>
<time>2012-05-01T13:02:29Z</time>
<desc>lat.=43.134071, lon.=19.100554, Alt.=1579.579102m. Speed=2.880000m/h.</desc>
<speed>0.800000</speed>
</trkpt>
<trkpt lat="43.134121" lon="19.100580">
<ele>1578.735352</ele>
<time>2012-05-01T13:02:34Z</time>
<desc>lat.=43.134121, lon.=19.100580, Alt.=1578.735352m. Speed=4.716000m/h.</desc>
<speed>1.310000</speed>
</trkpt>
<trkpt lat="43.134174" lon="19.100599">
<ele>1577.454102</ele>
<time>2012-05-01T13:02:39Z</time>
<desc>lat.=43.134174, lon.=19.100599, Alt.=1577.454102m. Speed=3.600000m/h.</desc>
<speed>1.000000</speed>
</trkpt>
<trkpt lat="43.134224" lon="19.100615">
<ele>1576.985352</ele>
<time>2012-05-01T13:02:44Z</time>
<desc>lat.=43.134224, lon.=19.100615, Alt.=1576.985352m. Speed=4.032000m/h.</desc>
<speed>1.120000</speed>
</trkpt>
<trkpt lat="43.134274" lon="19.100632">
<ele>1576.954102</ele>
<time>2012-05-01T13:02:49Z</time>
<desc>lat.=43.134274, lon.=19.100632, Alt.=1576.954102m. Speed=4.392000m/h.</desc>
<speed>1.220000</speed>
</trkpt>
<trkpt lat="43.134312" lon="19.100647">
<ele>1578.016602</ele>
<time>2012-05-01T13:02:54Z</time>
<desc>lat.=43.134312, lon.=19.100647, Alt.=1578.016602m. Speed=1.656000m/h.</desc>
<speed>0.460000</speed>
</trkpt>
<trkpt lat="43.134315" lon="19.100653">
<ele>1578.047852</ele>
<time>2012-05-01T13:02:59Z</time>
<desc>lat.=43.134315, lon.=19.100653, Alt.=1578.047852m. Speed=0.648000m/h.</desc>
<speed>0.180000</speed>
</trkpt>
<trkpt lat="43.134312" lon="19.100655">
<ele>1577.641602</ele>
<time>2012-05-01T13:03:04Z</time>
<desc>lat.=43.134312, lon.=19.100655, Alt.=1577.641602m. Speed=0.036000m/h.</desc>
<speed>0.010000</speed>
</trkpt>
<trkpt lat="43.134312" lon="19.100655">
<ele>1577.641602</ele>
<time>2012-05-01T13:03:09Z</time>
<desc>lat.=43.134312, lon.=19.100655, Alt.=1577.641602m. Speed=0.072000m/h.</desc>
<speed>0.020000</speed>
</trkpt>
<trkpt lat="43.134312" lon="19.100655">
<ele>1577.672852</ele>
<time>2012-05-01T13:03:14Z</time>
<desc>lat.=43.134312, lon.=19.100655, Alt.=1577.672852m. Speed=0.000000m/h.</desc>
<speed>0.000000</speed>
</trkpt>
<trkpt lat="43.134312" lon="19.100655">
<ele>1577.704102</ele>
<time>2012-05-01T13:03:19Z</time>
<desc>lat.=43.134312, lon.=19.100655, Alt.=1577.704102m. Speed=0.036000m/h.</desc>
<speed>0.010000</speed>
</trkpt>
<trkpt lat="43.134312" lon="19.100655">
<ele>1577.735352</ele>
<time>2012-05-01T13:03:24Z</time>
<desc>lat.=43.134312, lon.=19.100655, Alt.=1577.735352m. Speed=0.036000m/h.</desc>
<speed>0.010000</speed>
</trkpt>
<trkpt lat="43.134312" lon="19.100655">
<ele>1577.766602</ele>
<time>2012-05-01T13:03:29Z</time>
<desc>lat.=43.134312, lon.=19.100655, Alt.=1577.766602m. Speed=0.072000m/h.</desc>
<speed>0.020000</speed>
</trkpt>
<trkpt lat="43.134312" lon="19.100655">
<ele>1577.797852</ele>
<time>2012-05-01T13:03:34Z</time>
<desc>lat.=43.134312, lon.=19.100655, Alt.=1577.797852m. Speed=0.036000m/h.</desc>
<speed>0.010000</speed>
</trkpt>
<trkpt lat="43.134312" lon="19.100655">
<ele>1577.797852</ele>
<time>2012-05-01T13:03:39Z</time>
<desc>lat.=43.134312, lon.=19.100655, Alt.=1577.797852m. Speed=0.072000m/h.</desc>
<speed>0.020000</speed>
</trkpt>
<trkpt lat="43.134312" lon="19.100655">
<ele>1577.829102</ele>
<time>2012-05-01T13:03:44Z</time>
<desc>lat.=43.134312, lon.=19.100655, Alt.=1577.829102m. Speed=0.072000m/h.</desc>
<speed>0.020000</speed>
</trkpt>
<trkpt lat="43.134312" lon="19.100655">
<ele>1577.829102</ele>
<time>2012-05-01T13:03:49Z</time>
<desc>lat.=43.134312, lon.=19.100655, Alt.=1577.829102m. Speed=0.000000m/h.</desc>
<speed>0.000000</speed>
</trkpt>
<trkpt lat="43.134312" lon="19.100655">
<ele>1577.860352</ele>
<time>2012-05-01T13:03:54Z</time>
<desc>lat.=43.134312, lon.=19.100655, Alt.=1577.860352m. Speed=0.000000m/h.</desc>
<speed>0.000000</speed>
</trkpt>
<trkpt lat="43.134312" lon="19.100653">
<ele>1577.860352</ele>
<time>2012-05-01T13:03:59Z</time>
<desc>lat.=43.134312, lon.=19.100653, Alt.=1577.860352m. Speed=0.000000m/h.</desc>
<speed>0.000000</speed>
</trkpt>
<trkpt lat="43.134312" lon="19.100653">
<ele>1577.860352</ele>
<time>2012-05-01T13:04:04Z</time>
<desc>lat.=43.134312, lon.=19.100653, Alt.=1577.860352m. Speed=0.000000m/h.</desc>
<speed>0.000000</speed>
</trkpt>
<trkpt lat="43.134312" lon="19.100653">
<ele>1577.860352</ele>
<time>2012-05-01T13:04:09Z</time>
<desc>lat.=43.134312, lon.=19.100653, Alt.=1577.860352m. Speed=0.000000m/h.</desc>
<speed>0.000000</speed>
</trkpt>
<trkpt lat="43.134312" lon="19.100653">
<ele>1577.891602</ele>
<time>2012-05-01T13:04:14Z</time>
<desc>lat.=43.134312, lon.=19.100653, Alt.=1577.891602m. Speed=0.000000m/h.</desc>
<speed>0.000000</speed>
</trkpt>
<trkpt lat="43.134312" lon="19.100655">
<ele>1577.891602</ele>
<time>2012-05-01T13:04:19Z</time>
<desc>lat.=43.134312, lon.=19.100655, Alt.=1577.891602m. Speed=0.540000m/h.</desc>
<speed>0.150000</speed>
</trkpt>
<trkpt lat="43.134327" lon="19.100643">
<ele>1577.735352</ele>
<time>2012-05-01T13:04:24Z</time>
<desc>lat.=43.134327, lon.=19.100643, Alt.=1577.735352m. Speed=2.304000m/h.</desc>
<speed>0.640000</speed>
</trkpt>
<trkpt lat="43.134384" lon="19.100595">
<ele>1576.579102</ele>
<time>2012-05-01T13:04:29Z</time>
<desc>lat.=43.134384, lon.=19.100595, Alt.=1576.579102m. Speed=3.600000m/h.</desc>
<speed>1.000000</speed>
</trkpt>
<trkpt lat="43.134411" lon="19.100559">
<ele>1576.547852</ele>
<time>2012-05-01T13:04:34Z</time>
<desc>lat.=43.134411, lon.=19.100559, Alt.=1576.547852m. Speed=3.852000m/h.</desc>
<speed>1.070000</speed>
</trkpt>
<trkpt lat="43.134445" lon="19.100517">
<ele>1576.735352</ele>
<time>2012-05-01T13:04:39Z</time>
<desc>lat.=43.134445, lon.=19.100517, Alt.=1576.735352m. Speed=3.960000m/h.</desc>
<speed>1.100000</speed>
</trkpt>
<trkpt lat="43.134468" lon="19.100445">
<ele>1576.141602</ele>
<time>2012-05-01T13:04:44Z</time>
<desc>lat.=43.134468, lon.=19.100445, Alt.=1576.141602m. Speed=5.364000m/h.</desc>
<speed>1.490000</speed>
</trkpt>
<trkpt lat="43.134487" lon="19.100374">
<ele>1576.047852</ele>
<time>2012-05-01T13:04:49Z</time>
<desc>lat.=43.134487, lon.=19.100374, Alt.=1576.047852m. Speed=4.752000m/h.</desc>
<speed>1.320000</speed>
</trkpt>
<trkpt lat="43.134506" lon="19.100315">
<ele>1575.922852</ele>
<time>2012-05-01T13:04:54Z</time>
<desc>lat.=43.134506, lon.=19.100315, Alt.=1575.922852m. Speed=5.400000m/h.</desc>
<speed>1.500000</speed>
</trkpt>
<trkpt lat="43.134521" lon="19.100266">
<ele>1575.485352</ele>
<time>2012-05-01T13:04:59Z</time>
<desc>lat.=43.134521, lon.=19.100266, Alt.=1575.485352m. Speed=1.980000m/h.</desc>
<speed>0.550000</speed>
</trkpt>
<trkpt lat="43.134537" lon="19.100233">
<ele>1575.829102</ele>
<time>2012-05-01T13:05:04Z</time>
<desc>lat.=43.134537, lon.=19.100233, Alt.=1575.829102m. Speed=2.520000m/h.</desc>
<speed>0.700000</speed>
</trkpt>
<trkpt lat="43.134571" lon="19.100225">
<ele>1576.141602</ele>
<time>2012-05-01T13:05:09Z</time>
<desc>lat.=43.134571, lon.=19.100225, Alt.=1576.141602m. Speed=2.664000m/h.</desc>
<speed>0.740000</speed>
</trkpt>
<trkpt lat="43.134598" lon="19.100199">
<ele>1576.297852</ele>
<time>2012-05-01T13:05:14Z</time>
<desc>lat.=43.134598, lon.=19.100199, Alt.=1576.297852m. Speed=1.944000m/h.</desc>
<speed>0.540000</speed>
</trkpt>
<trkpt lat="43.134632" lon="19.100185">
<ele>1576.454102</ele>
<time>2012-05-01T13:05:19Z</time>
<desc>lat.=43.134632, lon.=19.100185, Alt.=1576.454102m. Speed=2.412000m/h.</desc>
<speed>0.670000</speed>
</trkpt>
<trkpt lat="43.134659" lon="19.100164">
<ele>1576.610352</ele>
<time>2012-05-01T13:05:24Z</time>
<desc>lat.=43.134659, lon.=19.100164, Alt.=1576.610352m. Speed=2.304000m/h.</desc>
<speed>0.640000</speed>
</trkpt>
<trkpt lat="43.134701" lon="19.100153">
<ele>1576.766602</ele>
<time>2012-05-01T13:05:29Z</time>
<desc>lat.=43.134701, lon.=19.100153, Alt.=1576.766602m. Speed=3.780000m/h.</desc>
<speed>1.050000</speed>
</trkpt>
<trkpt lat="43.134720" lon="19.100113">
<ele>1577.297852</ele>
<time>2012-05-01T13:05:34Z</time>
<desc>lat.=43.134720, lon.=19.100113, Alt.=1577.297852m. Speed=3.168000m/h.</desc>
<speed>0.880000</speed>
</trkpt>
<trkpt lat="43.134754" lon="19.100096">
<ele>1577.954102</ele>
<time>2012-05-01T13:05:39Z</time>
<desc>lat.=43.134754, lon.=19.100096, Alt.=1577.954102m. Speed=3.312000m/h.</desc>
<speed>0.920000</speed>
</trkpt>
<trkpt lat="43.134758" lon="19.100050">
<ele>1578.547852</ele>
<time>2012-05-01T13:05:44Z</time>
<desc>lat.=43.134758, lon.=19.100050, Alt.=1578.547852m. Speed=1.980000m/h.</desc>
<speed>0.550000</speed>
</trkpt>
<trkpt lat="43.134777" lon="19.100018">
<ele>1579.360352</ele>
<time>2012-05-01T13:05:49Z</time>
<desc>lat.=43.134777, lon.=19.100018, Alt.=1579.360352m. Speed=1.908000m/h.</desc>
<speed>0.530000</speed>
</trkpt>
<trkpt lat="43.134785" lon="19.099998">
<ele>1579.985352</ele>
<time>2012-05-01T13:05:54Z</time>
<desc>lat.=43.134785, lon.=19.099998, Alt.=1579.985352m. Speed=1.296000m/h.</desc>
<speed>0.360000</speed>
</trkpt>
<trkpt lat="43.134842" lon="19.099989">
<ele>1580.579102</ele>
<time>2012-05-01T13:05:59Z</time>
<desc>lat.=43.134842, lon.=19.099989, Alt.=1580.579102m. Speed=2.520000m/h.</desc>
<speed>0.700000</speed>
</trkpt>
<trkpt lat="43.134876" lon="19.099958">
<ele>1581.172852</ele>
<time>2012-05-01T13:06:04Z</time>
<desc>lat.=43.134876, lon.=19.099958, Alt.=1581.172852m. Speed=2.628000m/h.</desc>
<speed>0.730000</speed>
</trkpt>
<trkpt lat="43.134926" lon="19.099934">
<ele>1581.266602</ele>
<time>2012-05-01T13:06:09Z</time>
<desc>lat.=43.134926, lon.=19.099934, Alt.=1581.266602m. Speed=3.672000m/h.</desc>
<speed>1.020000</speed>
</trkpt>
<trkpt lat="43.134983" lon="19.099928">
<ele>1581.704102</ele>
<time>2012-05-01T13:06:14Z</time>
<desc>lat.=43.134983, lon.=19.099928, Alt.=1581.704102m. Speed=3.780000m/h.</desc>
<speed>1.050000</speed>
</trkpt>
<trkpt lat="43.135056" lon="19.099874">
<ele>1581.485352</ele>
<time>2012-05-01T13:06:19Z</time>
<desc>lat.=43.135056, lon.=19.099874, Alt.=1581.485352m. Speed=3.708000m/h.</desc>
<speed>1.030000</speed>
</trkpt>
<trkpt lat="43.135109" lon="19.099842">
<ele>1581.735352</ele>
<time>2012-05-01T13:06:24Z</time>
<desc>lat.=43.135109, lon.=19.099842, Alt.=1581.735352m. Speed=3.384000m/h.</desc>
<speed>0.940000</speed>
</trkpt>
<trkpt lat="43.135159" lon="19.099737">
<ele>1581.235352</ele>
<time>2012-05-01T13:06:29Z</time>
<desc>lat.=43.135159, lon.=19.099737, Alt.=1581.235352m. Speed=1.476000m/h.</desc>
<speed>0.410000</speed>
</trkpt>
<trkpt lat="43.135189" lon="19.099710">
<ele>1581.454102</ele>
<time>2012-05-01T13:06:34Z</time>
<desc>lat.=43.135189, lon.=19.099710, Alt.=1581.454102m. Speed=2.016000m/h.</desc>
<speed>0.560000</speed>
</trkpt>
<trkpt lat="43.135227" lon="19.099661">
<ele>1581.922852</ele>
<time>2012-05-01T13:06:39Z</time>
<desc>lat.=43.135227, lon.=19.099661, Alt.=1581.922852m. Speed=3.024000m/h.</desc>
<speed>0.840000</speed>
</trkpt>
<trkpt lat="43.135273" lon="19.099598">
<ele>1581.891602</ele>
<time>2012-05-01T13:06:44Z</time>
<desc>lat.=43.135273, lon.=19.099598, Alt.=1581.891602m. Speed=5.148000m/h.</desc>
<speed>1.430000</speed>
</trkpt>
<trkpt lat="43.135262" lon="19.099541">
<ele>1581.204102</ele>
<time>2012-05-01T13:06:49Z</time>
<desc>lat.=43.135262, lon.=19.099541, Alt.=1581.204102m. Speed=3.744000m/h.</desc>
<speed>1.040000</speed>
</trkpt>
<trkpt lat="43.135284" lon="19.099468">
<ele>1581.297852</ele>
<time>2012-05-01T13:06:54Z</time>
<desc>lat.=43.135284, lon.=19.099468, Alt.=1581.297852m. Speed=2.952000m/h.</desc>
<speed>0.820000</speed>
</trkpt>
<trkpt lat="43.135307" lon="19.099442">
<ele>1581.985352</ele>
<time>2012-05-01T13:06:59Z</time>
<desc>lat.=43.135307, lon.=19.099442, Alt.=1581.985352m. Speed=1.476000m/h.</desc>
<speed>0.410000</speed>
</trkpt>
<trkpt lat="43.135330" lon="19.099438">
<ele>1583.172852</ele>
<time>2012-05-01T13:07:04Z</time>
<desc>lat.=43.135330, lon.=19.099438, Alt.=1583.172852m. Speed=2.628000m/h.</desc>
<speed>0.730000</speed>
</trkpt>
<trkpt lat="43.135357" lon="19.099426">
<ele>1584.079102</ele>
<time>2012-05-01T13:07:09Z</time>
<desc>lat.=43.135357, lon.=19.099426, Alt.=1584.079102m. Speed=3.312000m/h.</desc>
<speed>0.920000</speed>
</trkpt>
<trkpt lat="43.135399" lon="19.099407">
<ele>1585.266602</ele>
<time>2012-05-01T13:07:14Z</time>
<desc>lat.=43.135399, lon.=19.099407, Alt.=1585.266602m. Speed=3.312000m/h.</desc>
<speed>0.920000</speed>
</trkpt>
<trkpt lat="43.135445" lon="19.099386">
<ele>1586.547852</ele>
<time>2012-05-01T13:07:19Z</time>
<desc>lat.=43.135445, lon.=19.099386, Alt.=1586.547852m. Speed=3.852000m/h.</desc>
<speed>1.070000</speed>
</trkpt>
<trkpt lat="43.135498" lon="19.099386">
<ele>1587.797852</ele>
<time>2012-05-01T13:07:24Z</time>
<desc>lat.=43.135498, lon.=19.099386, Alt.=1587.797852m. Speed=2.844000m/h.</desc>
<speed>0.790000</speed>
</trkpt>
<trkpt lat="43.135551" lon="19.099337">
<ele>1588.579102</ele>
<time>2012-05-01T13:07:29Z</time>
<desc>lat.=43.135551, lon.=19.099337, Alt.=1588.579102m. Speed=3.312000m/h.</desc>
<speed>0.920000</speed>
</trkpt>
<trkpt lat="43.135571" lon="19.099216">
<ele>1588.672852</ele>
<time>2012-05-01T13:07:34Z</time>
<desc>lat.=43.135571, lon.=19.099216, Alt.=1588.672852m. Speed=3.600000m/h.</desc>
<speed>1.000000</speed>
</trkpt>
<trkpt lat="43.135612" lon="19.099148">
<ele>1588.422852</ele>
<time>2012-05-01T13:07:39Z</time>
<desc>lat.=43.135612, lon.=19.099148, Alt.=1588.422852m. Speed=2.988000m/h.</desc>
<speed>0.830000</speed>
</trkpt>
<trkpt lat="43.135674" lon="19.099100">
<ele>1588.516602</ele>
<time>2012-05-01T13:07:44Z</time>
<desc>lat.=43.135674, lon.=19.099100, Alt.=1588.516602m. Speed=3.852000m/h.</desc>
<speed>1.070000</speed>
</trkpt>
<trkpt lat="43.135674" lon="19.099085">
<ele>1586.610352</ele>
<time>2012-05-01T13:07:49Z</time>
<desc>lat.=43.135674, lon.=19.099085, Alt.=1586.610352m. Speed=3.312000m/h.</desc>
<speed>0.920000</speed>
</trkpt>
<trkpt lat="43.135700" lon="19.099041">
<ele>1586.047852</ele>
<time>2012-05-01T13:07:54Z</time>
<desc>lat.=43.135700, lon.=19.099041, Alt.=1586.047852m. Speed=1.080000m/h.</desc>
<speed>0.300000</speed>
</trkpt>
<trkpt lat="43.135738" lon="19.099072">
<ele>1585.672852</ele>
<time>2012-05-01T13:07:59Z</time>
<desc>lat.=43.135738, lon.=19.099072, Alt.=1585.672852m. Speed=1.260000m/h.</desc>
<speed>0.350000</speed>
</trkpt>
<trkpt lat="43.135735" lon="19.099033">
<ele>1585.266602</ele>
<time>2012-05-01T13:08:04Z</time>
<desc>lat.=43.135735, lon.=19.099033, Alt.=1585.266602m. Speed=0.828000m/h.</desc>
<speed>0.230000</speed>
</trkpt>
<trkpt lat="43.135738" lon="19.098970">
<ele>1584.641602</ele>
<time>2012-05-01T13:08:09Z</time>
<desc>lat.=43.135738, lon.=19.098970, Alt.=1584.641602m. Speed=2.304000m/h.</desc>
<speed>0.640000</speed>
</trkpt>
<trkpt lat="43.135731" lon="19.098938">
<ele>1584.579102</ele>
<time>2012-05-01T13:08:14Z</time>
<desc>lat.=43.135731, lon.=19.098938, Alt.=1584.579102m. Speed=0.648000m/h.</desc>
<speed>0.180000</speed>
</trkpt>
<trkpt lat="43.135742" lon="19.098944">
<ele>1584.547852</ele>
<time>2012-05-01T13:08:19Z</time>
<desc>lat.=43.135742, lon.=19.098944, Alt.=1584.547852m. Speed=0.288000m/h.</desc>
<speed>0.080000</speed>
</trkpt>
<trkpt lat="43.135738" lon="19.098940">
<ele>1584.641602</ele>
<time>2012-05-01T13:08:24Z</time>
<desc>lat.=43.135738, lon.=19.098940, Alt.=1584.641602m. Speed=0.216000m/h.</desc>
<speed>0.060000</speed>
</trkpt>
<trkpt lat="43.135738" lon="19.098921">
<ele>1584.672852</ele>
<time>2012-05-01T13:08:29Z</time>
<desc>lat.=43.135738, lon.=19.098921, Alt.=1584.672852m. Speed=0.612000m/h.</desc>
<speed>0.170000</speed>
</trkpt>
<trkpt lat="43.135738" lon="19.098904">
<ele>1584.079102</ele>
<time>2012-05-01T13:08:34Z</time>
<desc>lat.=43.135738, lon.=19.098904, Alt.=1584.079102m. Speed=1.044000m/h.</desc>
<speed>0.290000</speed>
</trkpt>
<trkpt lat="43.135719" lon="19.098862">
<ele>1583.922852</ele>
<time>2012-05-01T13:08:39Z</time>
<desc>lat.=43.135719, lon.=19.098862, Alt.=1583.922852m. Speed=0.072000m/h.</desc>
<speed>0.020000</speed>
</trkpt>
<trkpt lat="43.135715" lon="19.098858">
<ele>1583.797852</ele>
<time>2012-05-01T13:08:44Z</time>
<desc>lat.=43.135715, lon.=19.098858, Alt.=1583.797852m. Speed=1.116000m/h.</desc>
<speed>0.310000</speed>
</trkpt>
<trkpt lat="43.135696" lon="19.098896">
<ele>1584.235352</ele>
<time>2012-05-01T13:08:49Z</time>
<desc>lat.=43.135696, lon.=19.098896, Alt.=1584.235352m. Speed=3.744000m/h.</desc>
<speed>1.040000</speed>
</trkpt>
<trkpt lat="43.135738" lon="19.098873">
<ele>1583.360352</ele>
<time>2012-05-01T13:08:54Z</time>
<desc>lat.=43.135738, lon.=19.098873, Alt.=1583.360352m. Speed=3.312000m/h.</desc>
<speed>0.920000</speed>
</trkpt>
<trkpt lat="43.135769" lon="19.098814">
<ele>1583.047852</ele>
<time>2012-05-01T13:08:59Z</time>
<desc>lat.=43.135769, lon.=19.098814, Alt.=1583.047852m. Speed=3.780000m/h.</desc>
<speed>1.050000</speed>
</trkpt>
<trkpt lat="43.135815" lon="19.098804">
<ele>1583.172852</ele>
<time>2012-05-01T13:09:04Z</time>
<desc>lat.=43.135815, lon.=19.098804, Alt.=1583.172852m. Speed=4.032000m/h.</desc>
<speed>1.120000</speed>
</trkpt>
<trkpt lat="43.135872" lon="19.098713">
<ele>1582.579102</ele>
<time>2012-05-01T13:09:09Z</time>
<desc>lat.=43.135872, lon.=19.098713, Alt.=1582.579102m. Speed=4.932000m/h.</desc>
<speed>1.370000</speed>
</trkpt>
<trkpt lat="43.135948" lon="19.098644">
<ele>1581.391602</ele>
<time>2012-05-01T13:09:14Z</time>
<desc>lat.=43.135948, lon.=19.098644, Alt.=1581.391602m. Speed=4.752000m/h.</desc>
<speed>1.320000</speed>
</trkpt>
<trkpt lat="43.136013" lon="19.098570">
<ele>1579.516602</ele>
<time>2012-05-01T13:09:19Z</time>
<desc>lat.=43.136013, lon.=19.098570, Alt.=1579.516602m. Speed=4.968000m/h.</desc>
<speed>1.380000</speed>
</trkpt>
<trkpt lat="43.136032" lon="19.098513">
<ele>1579.016602</ele>
<time>2012-05-01T13:09:24Z</time>
<desc>lat.=43.136032, lon.=19.098513, Alt.=1579.016602m. Speed=4.644000m/h.</desc>
<speed>1.290000</speed>
</trkpt>
<trkpt lat="43.136074" lon="19.098501">
<ele>1577.954102</ele>
<time>2012-05-01T13:09:29Z</time>
<desc>lat.=43.136074, lon.=19.098501, Alt.=1577.954102m. Speed=4.248000m/h.</desc>
<speed>1.180000</speed>
</trkpt>
<trkpt lat="43.136116" lon="19.098476">
<ele>1575.797852</ele>
<time>2012-05-01T13:09:34Z</time>
<desc>lat.=43.136116, lon.=19.098476, Alt.=1575.797852m. Speed=3.384000m/h.</desc>
<speed>0.940000</speed>
</trkpt>
<trkpt lat="43.136158" lon="19.098452">
<ele>1575.235352</ele>
<time>2012-05-01T13:09:39Z</time>
<desc>lat.=43.136158, lon.=19.098452, Alt.=1575.235352m. Speed=3.384000m/h.</desc>
<speed>0.940000</speed>
</trkpt>
<trkpt lat="43.136200" lon="19.098446">
<ele>1575.141602</ele>
<time>2012-05-01T13:09:44Z</time>
<desc>lat.=43.136200, lon.=19.098446, Alt.=1575.141602m. Speed=3.600000m/h.</desc>
<speed>1.000000</speed>
</trkpt>
<trkpt lat="43.136219" lon="19.098427">
<ele>1575.172852</ele>
<time>2012-05-01T13:09:49Z</time>
<desc>lat.=43.136219, lon.=19.098427, Alt.=1575.172852m. Speed=2.016000m/h.</desc>
<speed>0.560000</speed>
</trkpt>
<trkpt lat="43.136227" lon="19.098429">
<ele>1576.704102</ele>
<time>2012-05-01T13:09:54Z</time>
<desc>lat.=43.136227, lon.=19.098429, Alt.=1576.704102m. Speed=1.260000m/h.</desc>
<speed>0.350000</speed>
</trkpt>
<trkpt lat="43.136219" lon="19.098392">
<ele>1577.266602</ele>
<time>2012-05-01T13:09:59Z</time>
<desc>lat.=43.136219, lon.=19.098392, Alt.=1577.266602m. Speed=1.008000m/h.</desc>
<speed>0.280000</speed>
</trkpt>
<trkpt lat="43.136242" lon="19.098341">
<ele>1576.954102</ele>
<time>2012-05-01T13:10:04Z</time>
<desc>lat.=43.136242, lon.=19.098341, Alt.=1576.954102m. Speed=1.692000m/h.</desc>
<speed>0.470000</speed>
</trkpt>
<trkpt lat="43.136272" lon="19.098324">
<ele>1577.047852</ele>
<time>2012-05-01T13:10:09Z</time>
<desc>lat.=43.136272, lon.=19.098324, Alt.=1577.047852m. Speed=2.160000m/h.</desc>
<speed>0.600000</speed>
</trkpt>
<trkpt lat="43.136333" lon="19.098289">
<ele>1577.079102</ele>
<time>2012-05-01T13:10:14Z</time>
<desc>lat.=43.136333, lon.=19.098289, Alt.=1577.079102m. Speed=3.168000m/h.</desc>
<speed>0.880000</speed>
</trkpt>
<trkpt lat="43.136375" lon="19.098276">
<ele>1577.391602</ele>
<time>2012-05-01T13:10:19Z</time>
<desc>lat.=43.136375, lon.=19.098276, Alt.=1577.391602m. Speed=3.708000m/h.</desc>
<speed>1.030000</speed>
</trkpt>
<trkpt lat="43.136421" lon="19.098270">
<ele>1578.047852</ele>
<time>2012-05-01T13:10:24Z</time>
<desc>lat.=43.136421, lon.=19.098270, Alt.=1578.047852m. Speed=3.852000m/h.</desc>
<speed>1.070000</speed>
</trkpt>
<trkpt lat="43.136456" lon="19.098270">
<ele>1578.766602</ele>
<time>2012-05-01T13:10:29Z</time>
<desc>lat.=43.136456, lon.=19.098270, Alt.=1578.766602m. Speed=4.500000m/h.</desc>
<speed>1.250000</speed>
</trkpt>
<trkpt lat="43.136505" lon="19.098280">
<ele>1579.329102</ele>
<time>2012-05-01T13:10:34Z</time>
<desc>lat.=43.136505, lon.=19.098280, Alt.=1579.329102m. Speed=3.852000m/h.</desc>
<speed>1.070000</speed>
</trkpt>
<trkpt lat="43.136547" lon="19.098297">
<ele>1579.922852</ele>
<time>2012-05-01T13:10:39Z</time>
<desc>lat.=43.136547, lon.=19.098297, Alt.=1579.922852m. Speed=3.672000m/h.</desc>
<speed>1.020000</speed>
</trkpt>
<trkpt lat="43.136589" lon="19.098324">
<ele>1580.266602</ele>
<time>2012-05-01T13:10:44Z</time>
<desc>lat.=43.136589, lon.=19.098324, Alt.=1580.266602m. Speed=3.708000m/h.</desc>
<speed>1.030000</speed>
</trkpt>
<trkpt lat="43.136623" lon="19.098318">
<ele>1581.016602</ele>
<time>2012-05-01T13:10:49Z</time>
<desc>lat.=43.136623, lon.=19.098318, Alt.=1581.016602m. Speed=2.808000m/h.</desc>
<speed>0.780000</speed>
</trkpt>
<trkpt lat="43.136669" lon="19.098280">
<ele>1581.485352</ele>
<time>2012-05-01T13:10:54Z</time>
<desc>lat.=43.136669, lon.=19.098280, Alt.=1581.485352m. Speed=3.132000m/h.</desc>
<speed>0.870000</speed>
</trkpt>
<trkpt lat="43.136723" lon="19.098251">
<ele>1581.454102</ele>
<time>2012-05-01T13:10:59Z</time>
<desc>lat.=43.136723, lon.=19.098251, Alt.=1581.454102m. Speed=2.916000m/h.</desc>
<speed>0.810000</speed>
</trkpt>
<trkpt lat="43.136768" lon="19.098209">
<ele>1581.891602</ele>
<time>2012-05-01T13:11:04Z</time>
<desc>lat.=43.136768, lon.=19.098209, Alt.=1581.891602m. Speed=2.844000m/h.</desc>
<speed>0.790000</speed>
</trkpt>
<trkpt lat="43.136818" lon="19.098217">
<ele>1582.235352</ele>
<time>2012-05-01T13:11:09Z</time>
<desc>lat.=43.136818, lon.=19.098217, Alt.=1582.235352m. Speed=2.664000m/h.</desc>
<speed>0.740000</speed>
</trkpt>
<trkpt lat="43.136871" lon="19.098207">
<ele>1582.829102</ele>
<time>2012-05-01T13:11:14Z</time>
<desc>lat.=43.136871, lon.=19.098207, Alt.=1582.829102m. Speed=3.960000m/h.</desc>
<speed>1.100000</speed>
</trkpt>
<trkpt lat="43.136951" lon="19.098166">
<ele>1583.172852</ele>
<time>2012-05-01T13:11:19Z</time>
<desc>lat.=43.136951, lon.=19.098166, Alt.=1583.172852m. Speed=3.852000m/h.</desc>
<speed>1.070000</speed>
</trkpt>
<trkpt lat="43.136990" lon="19.098167">
<ele>1583.516602</ele>
<time>2012-05-01T13:11:24Z</time>
<desc>lat.=43.136990, lon.=19.098167, Alt.=1583.516602m. Speed=2.124000m/h.</desc>
<speed>0.590000</speed>
</trkpt>
<trkpt lat="43.137016" lon="19.098183">
<ele>1582.766602</ele>
<time>2012-05-01T13:11:29Z</time>
<desc>lat.=43.137016, lon.=19.098183, Alt.=1582.766602m. Speed=3.096000m/h.</desc>
<speed>0.860000</speed>
</trkpt>
<trkpt lat="43.137108" lon="19.098198">
<ele>1581.204102</ele>
<time>2012-05-01T13:11:34Z</time>
<desc>lat.=43.137108, lon.=19.098198, Alt.=1581.204102m. Speed=3.924000m/h.</desc>
<speed>1.090000</speed>
</trkpt>
<trkpt lat="43.137173" lon="19.098173">
<ele>1580.204102</ele>
<time>2012-05-01T13:11:39Z</time>
<desc>lat.=43.137173, lon.=19.098173, Alt.=1580.204102m. Speed=3.888000m/h.</desc>
<speed>1.080000</speed>
</trkpt>
<trkpt lat="43.137268" lon="19.098143">
<ele>1578.891602</ele>
<time>2012-05-01T13:11:44Z</time>
<desc>lat.=43.137268, lon.=19.098143, Alt.=1578.891602m. Speed=3.960000m/h.</desc>
<speed>1.100000</speed>
</trkpt>
<trkpt lat="43.137352" lon="19.098135">
<ele>1577.579102</ele>
<time>2012-05-01T13:11:49Z</time>
<desc>lat.=43.137352, lon.=19.098135, Alt.=1577.579102m. Speed=3.852000m/h.</desc>
<speed>1.070000</speed>
</trkpt>
<trkpt lat="43.137417" lon="19.098141">
<ele>1574.329102</ele>
<time>2012-05-01T13:11:54Z</time>
<desc>lat.=43.137417, lon.=19.098141, Alt.=1574.329102m. Speed=2.160000m/h.</desc>
<speed>0.600000</speed>
</trkpt>
<trkpt lat="43.137459" lon="19.098158">
<ele>1573.047852</ele>
<time>2012-05-01T13:11:59Z</time>
<desc>lat.=43.137459, lon.=19.098158, Alt.=1573.047852m. Speed=2.340000m/h.</desc>
<speed>0.650000</speed>
</trkpt>
<trkpt lat="43.137482" lon="19.098148">
<ele>1570.172852</ele>
<time>2012-05-01T13:12:04Z</time>
<desc>lat.=43.137482, lon.=19.098148, Alt.=1570.172852m. Speed=0.756000m/h.</desc>
<speed>0.210000</speed>
</trkpt>
<trkpt lat="43.137482" lon="19.098148">
<ele>1570.079102</ele>
<time>2012-05-01T13:12:09Z</time>
<desc>lat.=43.137482, lon.=19.098148, Alt.=1570.079102m. Speed=0.144000m/h.</desc>
<speed>0.040000</speed>
</trkpt>
<trkpt lat="43.137486" lon="19.098148">
<ele>1570.047852</ele>
<time>2012-05-01T13:12:14Z</time>
<desc>lat.=43.137486, lon.=19.098148, Alt.=1570.047852m. Speed=0.252000m/h.</desc>
<speed>0.070000</speed>
</trkpt>
<trkpt lat="43.137486" lon="19.098150">
<ele>1570.047852</ele>
<time>2012-05-01T13:12:19Z</time>
<desc>lat.=43.137486, lon.=19.098150, Alt.=1570.047852m. Speed=0.612000m/h.</desc>
<speed>0.170000</speed>
</trkpt>
<trkpt lat="43.137516" lon="19.098141">
<ele>1569.141602</ele>
<time>2012-05-01T13:12:24Z</time>
<desc>lat.=43.137516, lon.=19.098141, Alt.=1569.141602m. Speed=1.584000m/h.</desc>
<speed>0.440000</speed>
</trkpt>
<trkpt lat="43.137543" lon="19.098137">
<ele>1568.485352</ele>
<time>2012-05-01T13:12:29Z</time>
<desc>lat.=43.137543, lon.=19.098137, Alt.=1568.485352m. Speed=1.620000m/h.</desc>
<speed>0.450000</speed>
</trkpt>
<trkpt lat="43.137550" lon="19.098139">
<ele>1568.297852</ele>
<time>2012-05-01T13:12:34Z</time>
<desc>lat.=43.137550, lon.=19.098139, Alt.=1568.297852m. Speed=1.260000m/h.</desc>
<speed>0.350000</speed>
</trkpt>
<trkpt lat="43.137566" lon="19.098133">
<ele>1568.110352</ele>
<time>2012-05-01T13:12:39Z</time>
<desc>lat.=43.137566, lon.=19.098133, Alt.=1568.110352m. Speed=1.224000m/h.</desc>
<speed>0.340000</speed>
</trkpt>
<trkpt lat="43.137577" lon="19.098125">
<ele>1567.985352</ele>
<time>2012-05-01T13:12:44Z</time>
<desc>lat.=43.137577, lon.=19.098125, Alt.=1567.985352m. Speed=1.152000m/h.</desc>
<speed>0.320000</speed>
</trkpt>
<trkpt lat="43.137562" lon="19.098150">
<ele>1567.922852</ele>
<time>2012-05-01T13:12:49Z</time>
<desc>lat.=43.137562, lon.=19.098150, Alt.=1567.922852m. Speed=0.792000m/h.</desc>
<speed>0.220000</speed>
</trkpt>
<trkpt lat="43.137569" lon="19.098158">
<ele>1567.860352</ele>
<time>2012-05-01T13:12:54Z</time>
<desc>lat.=43.137569, lon.=19.098158, Alt.=1567.860352m. Speed=0.612000m/h.</desc>
<speed>0.170000</speed>
</trkpt>
<trkpt lat="43.137577" lon="19.098158">
<ele>1567.797852</ele>
<time>2012-05-01T13:12:59Z</time>
<desc>lat.=43.137577, lon.=19.098158, Alt.=1567.797852m. Speed=0.432000m/h.</desc>
<speed>0.120000</speed>
</trkpt>
<trkpt lat="43.137581" lon="19.098150">
<ele>1567.735352</ele>
<time>2012-05-01T13:13:04Z</time>
<desc>lat.=43.137581, lon.=19.098150, Alt.=1567.735352m. Speed=0.792000m/h.</desc>
<speed>0.220000</speed>
</trkpt>
<trkpt lat="43.137554" lon="19.098114">
<ele>1567.547852</ele>
<time>2012-05-01T13:13:09Z</time>
<desc>lat.=43.137554, lon.=19.098114, Alt.=1567.547852m. Speed=1.332000m/h.</desc>
<speed>0.370000</speed>
</trkpt>
<trkpt lat="43.137539" lon="19.098040">
<ele>1567.360352</ele>
<time>2012-05-01T13:13:14Z</time>
<desc>lat.=43.137539, lon.=19.098040, Alt.=1567.360352m. Speed=1.620000m/h.</desc>
<speed>0.450000</speed>
</trkpt>
<trkpt lat="43.137516" lon="19.097994">
<ele>1567.204102</ele>
<time>2012-05-01T13:13:19Z</time>
<desc>lat.=43.137516, lon.=19.097994, Alt.=1567.204102m. Speed=1.548000m/h.</desc>
<speed>0.430000</speed>
</trkpt>
<trkpt lat="43.137493" lon="19.098003">
<ele>1567.016602</ele>
<time>2012-05-01T13:13:24Z</time>
<desc>lat.=43.137493, lon.=19.098003, Alt.=1567.016602m. Speed=0.900000m/h.</desc>
<speed>0.250000</speed>
</trkpt>
<trkpt lat="43.137486" lon="19.097994">
<ele>1566.922852</ele>
<time>2012-05-01T13:13:29Z</time>
<desc>lat.=43.137486, lon.=19.097994, Alt.=1566.922852m. Speed=0.504000m/h.</desc>
<speed>0.140000</speed>
</trkpt>
<trkpt lat="43.137478" lon="19.098000">
<ele>1566.829102</ele>
<time>2012-05-01T13:13:34Z</time>
<desc>lat.=43.137478, lon.=19.098000, Alt.=1566.829102m. Speed=0.540000m/h.</desc>
<speed>0.150000</speed>
</trkpt>
<trkpt lat="43.137482" lon="19.098009">
<ele>1566.735352</ele>
<time>2012-05-01T13:13:39Z</time>
<desc>lat.=43.137482, lon.=19.098009, Alt.=1566.735352m. Speed=0.684000m/h.</desc>
<speed>0.190000</speed>
</trkpt>
<trkpt lat="43.137486" lon="19.098021">
<ele>1566.641602</ele>
<time>2012-05-01T13:13:44Z</time>
<desc>lat.=43.137486, lon.=19.098021, Alt.=1566.641602m. Speed=0.972000m/h.</desc>
<speed>0.270000</speed>
</trkpt>
<trkpt lat="43.137508" lon="19.098040">
<ele>1566.860352</ele>
<time>2012-05-01T13:13:49Z</time>
<desc>lat.=43.137508, lon.=19.098040, Alt.=1566.860352m. Speed=1.224000m/h.</desc>
<speed>0.340000</speed>
</trkpt>
<trkpt lat="43.137524" lon="19.098043">
<ele>1566.829102</ele>
<time>2012-05-01T13:13:54Z</time>
<desc>lat.=43.137524, lon.=19.098043, Alt.=1566.829102m. Speed=1.008000m/h.</desc>
<speed>0.280000</speed>
</trkpt>
<trkpt lat="43.137516" lon="19.098064">
<ele>1566.641602</ele>
<time>2012-05-01T13:13:59Z</time>
<desc>lat.=43.137516, lon.=19.098064, Alt.=1566.641602m. Speed=0.828000m/h.</desc>
<speed>0.230000</speed>
</trkpt>
<trkpt lat="43.137516" lon="19.098076">
<ele>1566.579102</ele>
<time>2012-05-01T13:14:04Z</time>
<desc>lat.=43.137516, lon.=19.098076, Alt.=1566.579102m. Speed=0.468000m/h.</desc>
<speed>0.130000</speed>
</trkpt>
<trkpt lat="43.137512" lon="19.098083">
<ele>1566.547852</ele>
<time>2012-05-01T13:14:09Z</time>
<desc>lat.=43.137512, lon.=19.098083, Alt.=1566.547852m. Speed=0.540000m/h.</desc>
<speed>0.150000</speed>
</trkpt>
<trkpt lat="43.137508" lon="19.098085">
<ele>1566.547852</ele>
<time>2012-05-01T13:14:14Z</time>
<desc>lat.=43.137508, lon.=19.098085, Alt.=1566.547852m. Speed=0.396000m/h.</desc>
<speed>0.110000</speed>
</trkpt>
<trkpt lat="43.137501" lon="19.098085">
<ele>1566.516602</ele>
<time>2012-05-01T13:14:19Z</time>
<desc>lat.=43.137501, lon.=19.098085, Alt.=1566.516602m. Speed=0.468000m/h.</desc>
<speed>0.130000</speed>
</trkpt>
<trkpt lat="43.137497" lon="19.098091">
<ele>1566.485352</ele>
<time>2012-05-01T13:14:24Z</time>
<desc>lat.=43.137497, lon.=19.098091, Alt.=1566.485352m. Speed=0.396000m/h.</desc>
<speed>0.110000</speed>
</trkpt>
<trkpt lat="43.137493" lon="19.098095">
<ele>1566.547852</ele>
<time>2012-05-01T13:14:29Z</time>
<desc>lat.=43.137493, lon.=19.098095, Alt.=1566.547852m. Speed=0.288000m/h.</desc>
<speed>0.080000</speed>
</trkpt>
<trkpt lat="43.137489" lon="19.098093">
<ele>1566.704102</ele>
<time>2012-05-01T13:14:34Z</time>
<desc>lat.=43.137489, lon.=19.098093, Alt.=1566.704102m. Speed=0.468000m/h.</desc>
<speed>0.130000</speed>
</trkpt>
<trkpt lat="43.137482" lon="19.098087">
<ele>1567.016602</ele>
<time>2012-05-01T13:14:39Z</time>
<desc>lat.=43.137482, lon.=19.098087, Alt.=1567.016602m. Speed=0.612000m/h.</desc>
<speed>0.170000</speed>
</trkpt>
<trkpt lat="43.137482" lon="19.098087">
<ele>1567.266602</ele>
<time>2012-05-01T13:14:44Z</time>
<desc>lat.=43.137482, lon.=19.098087, Alt.=1567.266602m. Speed=0.684000m/h.</desc>
<speed>0.190000</speed>
</trkpt>
<trkpt lat="43.137493" lon="19.098089">
<ele>1567.485352</ele>
<time>2012-05-01T13:14:49Z</time>
<desc>lat.=43.137493, lon.=19.098089, Alt.=1567.485352m. Speed=1.116000m/h.</desc>
<speed>0.310000</speed>
</trkpt>
<trkpt lat="43.137520" lon="19.098125">
<ele>1567.610352</ele>
<time>2012-05-01T13:14:54Z</time>
<desc>lat.=43.137520, lon.=19.098125, Alt.=1567.610352m. Speed=1.476000m/h.</desc>
<speed>0.410000</speed>
</trkpt>
<trkpt lat="43.137547" lon="19.098137">
<ele>1567.922852</ele>
<time>2012-05-01T13:14:59Z</time>
<desc>lat.=43.137547, lon.=19.098137, Alt.=1567.922852m. Speed=1.656000m/h.</desc>
<speed>0.460000</speed>
</trkpt>
<trkpt lat="43.137573" lon="19.098167">
<ele>1568.204102</ele>
<time>2012-05-01T13:15:04Z</time>
<desc>lat.=43.137573, lon.=19.098167, Alt.=1568.204102m. Speed=2.016000m/h.</desc>
<speed>0.560000</speed>
</trkpt>
<trkpt lat="43.137615" lon="19.098223">
<ele>1568.485352</ele>
<time>2012-05-01T13:15:09Z</time>
<desc>lat.=43.137615, lon.=19.098223, Alt.=1568.485352m. Speed=2.340000m/h.</desc>
<speed>0.650000</speed>
</trkpt>
<trkpt lat="43.137661" lon="19.098228">
<ele>1568.672852</ele>
<time>2012-05-01T13:15:14Z</time>
<desc>lat.=43.137661, lon.=19.098228, Alt.=1568.672852m. Speed=2.340000m/h.</desc>
<speed>0.650000</speed>
</trkpt>
<trkpt lat="43.137726" lon="19.098236">
<ele>1568.797852</ele>
<time>2012-05-01T13:15:19Z</time>
<desc>lat.=43.137726, lon.=19.098236, Alt.=1568.797852m. Speed=3.096000m/h.</desc>
<speed>0.860000</speed>
</trkpt>
<trkpt lat="43.137814" lon="19.098171">
<ele>1568.922852</ele>
<time>2012-05-01T13:15:24Z</time>
<desc>lat.=43.137814, lon.=19.098171, Alt.=1568.922852m. Speed=6.480000m/h.</desc>
<speed>1.800000</speed>
</trkpt>
<trkpt lat="43.137920" lon="19.098099">
<ele>1568.954102</ele>
<time>2012-05-01T13:15:29Z</time>
<desc>lat.=43.137920, lon.=19.098099, Alt.=1568.954102m. Speed=1.728000m/h.</desc>
<speed>0.480000</speed>
</trkpt>
<trkpt lat="43.137966" lon="19.098072">
<ele>1569.547852</ele>
<time>2012-05-01T13:15:34Z</time>
<desc>lat.=43.137966, lon.=19.098072, Alt.=1569.547852m. Speed=1.548000m/h.</desc>
<speed>0.430000</speed>
</trkpt>
<trkpt lat="43.138016" lon="19.098045">
<ele>1570.485352</ele>
<time>2012-05-01T13:15:39Z</time>
<desc>lat.=43.138016, lon.=19.098045, Alt.=1570.485352m. Speed=1.872000m/h.</desc>
<speed>0.520000</speed>
</trkpt>
<trkpt lat="43.138081" lon="19.098036">
<ele>1571.485352</ele>
<time>2012-05-01T13:15:44Z</time>
<desc>lat.=43.138081, lon.=19.098036, Alt.=1571.485352m. Speed=4.176000m/h.</desc>
<speed>1.160000</speed>
</trkpt>
<trkpt lat="43.138176" lon="19.098032">
<ele>1572.454102</ele>
<time>2012-05-01T13:15:49Z</time>
<desc>lat.=43.138176, lon.=19.098032, Alt.=1572.454102m. Speed=2.808000m/h.</desc>
<speed>0.780000</speed>
</trkpt>
<trkpt lat="43.138245" lon="19.097996">
<ele>1573.672852</ele>
<time>2012-05-01T13:15:54Z</time>
<desc>lat.=43.138245, lon.=19.097996, Alt.=1573.672852m. Speed=1.944000m/h.</desc>
<speed>0.540000</speed>
</trkpt>
<trkpt lat="43.138283" lon="19.097992">
<ele>1575.079102</ele>
<time>2012-05-01T13:15:59Z</time>
<desc>lat.=43.138283, lon.=19.097992, Alt.=1575.079102m. Speed=1.944000m/h.</desc>
<speed>0.540000</speed>
</trkpt>
<trkpt lat="43.138409" lon="19.097893">
<ele>1575.422852</ele>
<time>2012-05-01T13:16:04Z</time>
<desc>lat.=43.138409, lon.=19.097893, Alt.=1575.422852m. Speed=5.040000m/h.</desc>
<speed>1.400000</speed>
</trkpt>
<trkpt lat="43.138428" lon="19.097843">
<ele>1576.672852</ele>
<time>2012-05-01T13:16:09Z</time>
<desc>lat.=43.138428, lon.=19.097843, Alt.=1576.672852m. Speed=3.384000m/h.</desc>
<speed>0.940000</speed>
</trkpt>
<trkpt lat="43.138443" lon="19.097826">
<ele>1577.641602</ele>
<time>2012-05-01T13:16:14Z</time>
<desc>lat.=43.138443, lon.=19.097826, Alt.=1577.641602m. Speed=1.728000m/h.</desc>
<speed>0.480000</speed>
</trkpt>
<trkpt lat="43.138466" lon="19.097799">
<ele>1577.860352</ele>
<time>2012-05-01T13:16:19Z</time>
<desc>lat.=43.138466, lon.=19.097799, Alt.=1577.860352m. Speed=2.052000m/h.</desc>
<speed>0.570000</speed>
</trkpt>
<trkpt lat="43.138515" lon="19.097761">
<ele>1578.204102</ele>
<time>2012-05-01T13:16:24Z</time>
<desc>lat.=43.138515, lon.=19.097761, Alt.=1578.204102m. Speed=2.196000m/h.</desc>
<speed>0.610000</speed>
</trkpt>
<trkpt lat="43.138645" lon="19.097820">
<ele>1577.485352</ele>
<time>2012-05-01T13:16:29Z</time>
<desc>lat.=43.138645, lon.=19.097820, Alt.=1577.485352m. Speed=3.240000m/h.</desc>
<speed>0.900000</speed>
</trkpt>
<trkpt lat="43.138676" lon="19.097788">
<ele>1578.016602</ele>
<time>2012-05-01T13:16:34Z</time>
<desc>lat.=43.138676, lon.=19.097788, Alt.=1578.016602m. Speed=2.196000m/h.</desc>
<speed>0.610000</speed>
</trkpt>
<trkpt lat="43.138676" lon="19.097733">
<ele>1578.172852</ele>
<time>2012-05-01T13:16:39Z</time>
<desc>lat.=43.138676, lon.=19.097733, Alt.=1578.172852m. Speed=2.124000m/h.</desc>
<speed>0.590000</speed>
</trkpt>
<trkpt lat="43.138737" lon="19.097633">
<ele>1578.172852</ele>
<time>2012-05-01T13:16:44Z</time>
<desc>lat.=43.138737, lon.=19.097633, Alt.=1578.172852m. Speed=2.628000m/h.</desc>
<speed>0.730000</speed>
</trkpt>
<trkpt lat="43.138741" lon="19.097603">
<ele>1578.547852</ele>
<time>2012-05-01T13:16:49Z</time>
<desc>lat.=43.138741, lon.=19.097603, Alt.=1578.547852m. Speed=1.296000m/h.</desc>
<speed>0.360000</speed>
</trkpt>
<trkpt lat="43.138752" lon="19.097603">
<ele>1578.922852</ele>
<time>2012-05-01T13:16:54Z</time>
<desc>lat.=43.138752, lon.=19.097603, Alt.=1578.922852m. Speed=1.080000m/h.</desc>
<speed>0.300000</speed>
</trkpt>
<trkpt lat="43.138763" lon="19.097584">
<ele>1578.766602</ele>
<time>2012-05-01T13:16:59Z</time>
<desc>lat.=43.138763, lon.=19.097584, Alt.=1578.766602m. Speed=1.044000m/h.</desc>
<speed>0.290000</speed>
</trkpt>
<trkpt lat="43.138798" lon="19.097549">
<ele>1578.610352</ele>
<time>2012-05-01T13:17:04Z</time>
<desc>lat.=43.138798, lon.=19.097549, Alt.=1578.610352m. Speed=1.764000m/h.</desc>
<speed>0.490000</speed>
</trkpt>
<trkpt lat="43.138859" lon="19.097570">
<ele>1578.360352</ele>
<time>2012-05-01T13:17:09Z</time>
<desc>lat.=43.138859, lon.=19.097570, Alt.=1578.360352m. Speed=1.944000m/h.</desc>
<speed>0.540000</speed>
</trkpt>
<trkpt lat="43.138927" lon="19.097538">
<ele>1577.547852</ele>
<time>2012-05-01T13:17:14Z</time>
<desc>lat.=43.138927, lon.=19.097538, Alt.=1577.547852m. Speed=2.304000m/h.</desc>
<speed>0.640000</speed>
</trkpt>
<trkpt lat="43.138985" lon="19.097469">
<ele>1576.047852</ele>
<time>2012-05-01T13:17:19Z</time>
<desc>lat.=43.138985, lon.=19.097469, Alt.=1576.047852m. Speed=2.700000m/h.</desc>
<speed>0.750000</speed>
</trkpt>
<trkpt lat="43.139015" lon="19.097443">
<ele>1576.016602</ele>
<time>2012-05-01T13:17:24Z</time>
<desc>lat.=43.139015, lon.=19.097443, Alt.=1576.016602m. Speed=2.808000m/h.</desc>
<speed>0.780000</speed>
</trkpt>
<trkpt lat="43.139114" lon="19.097372">
<ele>1574.891602</ele>
<time>2012-05-01T13:17:29Z</time>
<desc>lat.=43.139114, lon.=19.097372, Alt.=1574.891602m. Speed=4.824000m/h.</desc>
<speed>1.340000</speed>
</trkpt>
<trkpt lat="43.139214" lon="19.097282">
<ele>1574.110352</ele>
<time>2012-05-01T13:17:34Z</time>
<desc>lat.=43.139214, lon.=19.097282, Alt.=1574.110352m. Speed=4.428000m/h.</desc>
<speed>1.230000</speed>
</trkpt>
<trkpt lat="43.139290" lon="19.097229">
<ele>1573.360352</ele>
<time>2012-05-01T13:17:39Z</time>
<desc>lat.=43.139290, lon.=19.097229, Alt.=1573.360352m. Speed=6.192000m/h.</desc>
<speed>1.720000</speed>
</trkpt>
<trkpt lat="43.139336" lon="19.097185">
<ele>1573.329102</ele>
<time>2012-05-01T13:17:44Z</time>
<desc>lat.=43.139336, lon.=19.097185, Alt.=1573.329102m. Speed=4.032000m/h.</desc>
<speed>1.120000</speed>
</trkpt>
<trkpt lat="43.139332" lon="19.097193">
<ele>1573.797852</ele>
<time>2012-05-01T13:17:49Z</time>
<desc>lat.=43.139332, lon.=19.097193, Alt.=1573.797852m. Speed=1.080000m/h.</desc>
<speed>0.300000</speed>
</trkpt>
<trkpt lat="43.139313" lon="19.097195">
<ele>1574.329102</ele>
<time>2012-05-01T13:17:54Z</time>
<desc>lat.=43.139313, lon.=19.097195, Alt.=1574.329102m. Speed=0.792000m/h.</desc>
<speed>0.220000</speed>
</trkpt>
<trkpt lat="43.139313" lon="19.097210">
<ele>1574.985352</ele>
<time>2012-05-01T13:17:59Z</time>
<desc>lat.=43.139313, lon.=19.097210, Alt.=1574.985352m. Speed=2.088000m/h.</desc>
<speed>0.580000</speed>
</trkpt>
<trkpt lat="43.139324" lon="19.097223">
<ele>1576.391602</ele>
<time>2012-05-01T13:18:04Z</time>
<desc>lat.=43.139324, lon.=19.097223, Alt.=1576.391602m. Speed=2.952000m/h.</desc>
<speed>0.820000</speed>
</trkpt>
<trkpt lat="43.139343" lon="19.097227">
<ele>1577.766602</ele>
<time>2012-05-01T13:18:09Z</time>
<desc>lat.=43.139343, lon.=19.097227, Alt.=1577.766602m. Speed=2.772000m/h.</desc>
<speed>0.770000</speed>
</trkpt>
<trkpt lat="43.139359" lon="19.097242">
<ele>1579.172852</ele>
<time>2012-05-01T13:18:14Z</time>
<desc>lat.=43.139359, lon.=19.097242, Alt.=1579.172852m. Speed=1.872000m/h.</desc>
<speed>0.520000</speed>
</trkpt>
<trkpt lat="43.139393" lon="19.097258">
<ele>1580.766602</ele>
<time>2012-05-01T13:18:19Z</time>
<desc>lat.=43.139393, lon.=19.097258, Alt.=1580.766602m. Speed=1.800000m/h.</desc>
<speed>0.500000</speed>
</trkpt>
<trkpt lat="43.139439" lon="19.097235">
<ele>1580.172852</ele>
<time>2012-05-01T13:18:24Z</time>
<desc>lat.=43.139439, lon.=19.097235, Alt.=1580.172852m. Speed=1.908000m/h.</desc>
<speed>0.530000</speed>
</trkpt>
<trkpt lat="43.139492" lon="19.097225">
<ele>1580.797852</ele>
<time>2012-05-01T13:18:29Z</time>
<desc>lat.=43.139492, lon.=19.097225, Alt.=1580.797852m. Speed=2.628000m/h.</desc>
<speed>0.730000</speed>
</trkpt>
<trkpt lat="43.139526" lon="19.097210">
<ele>1581.454102</ele>
<time>2012-05-01T13:18:34Z</time>
<desc>lat.=43.139526, lon.=19.097210, Alt.=1581.454102m. Speed=2.124000m/h.</desc>
<speed>0.590000</speed>
</trkpt>
<trkpt lat="43.139584" lon="19.097185">
<ele>1582.329102</ele>
<time>2012-05-01T13:18:39Z</time>
<desc>lat.=43.139584, lon.=19.097185, Alt.=1582.329102m. Speed=2.664000m/h.</desc>
<speed>0.740000</speed>
</trkpt>
<trkpt lat="43.139618" lon="19.097136">
<ele>1583.266602</ele>
<time>2012-05-01T13:18:44Z</time>
<desc>lat.=43.139618, lon.=19.097136, Alt.=1583.266602m. Speed=2.376000m/h.</desc>
<speed>0.660000</speed>
</trkpt>
<trkpt lat="43.139652" lon="19.097082">
<ele>1584.141602</ele>
<time>2012-05-01T13:18:49Z</time>
<desc>lat.=43.139652, lon.=19.097082, Alt.=1584.141602m. Speed=2.448000m/h.</desc>
<speed>0.680000</speed>
</trkpt>
<trkpt lat="43.139679" lon="19.097103">
<ele>1585.016602</ele>
<time>2012-05-01T13:18:54Z</time>
<desc>lat.=43.139679, lon.=19.097103, Alt.=1585.016602m. Speed=1.368000m/h.</desc>
<speed>0.380000</speed>
</trkpt>
<trkpt lat="43.139706" lon="19.097082">
<ele>1585.860352</ele>
<time>2012-05-01T13:18:59Z</time>
<desc>lat.=43.139706, lon.=19.097082, Alt.=1585.860352m. Speed=1.584000m/h.</desc>
<speed>0.440000</speed>
</trkpt>
<trkpt lat="43.139729" lon="19.097050">
<ele>1586.579102</ele>
<time>2012-05-01T13:19:04Z</time>
<desc>lat.=43.139729, lon.=19.097050, Alt.=1586.579102m. Speed=1.584000m/h.</desc>
<speed>0.440000</speed>
</trkpt>
<trkpt lat="43.139782" lon="19.097002">
<ele>1587.235352</ele>
<time>2012-05-01T13:19:09Z</time>
<desc>lat.=43.139782, lon.=19.097002, Alt.=1587.235352m. Speed=2.808000m/h.</desc>
<speed>0.780000</speed>
</trkpt>
<trkpt lat="43.139816" lon="19.096968">
<ele>1587.922852</ele>
<time>2012-05-01T13:19:14Z</time>
<desc>lat.=43.139816, lon.=19.096968, Alt.=1587.922852m. Speed=2.340000m/h.</desc>
<speed>0.650000</speed>
</trkpt>
<trkpt lat="43.139843" lon="19.096943">
<ele>1588.579102</ele>
<time>2012-05-01T13:19:19Z</time>
<desc>lat.=43.139843, lon.=19.096943, Alt.=1588.579102m. Speed=1.728000m/h.</desc>
<speed>0.480000</speed>
</trkpt>
<trkpt lat="43.139885" lon="19.096926">
<ele>1588.735352</ele>
<time>2012-05-01T13:19:24Z</time>
<desc>lat.=43.139885, lon.=19.096926, Alt.=1588.735352m. Speed=1.692000m/h.</desc>
<speed>0.470000</speed>
</trkpt>
<trkpt lat="43.139935" lon="19.096891">
<ele>1588.954102</ele>
<time>2012-05-01T13:19:29Z</time>
<desc>lat.=43.139935, lon.=19.096891, Alt.=1588.954102m. Speed=2.088000m/h.</desc>
<speed>0.580000</speed>
</trkpt>
<trkpt lat="43.139973" lon="19.096872">
<ele>1589.266602</ele>
<time>2012-05-01T13:19:34Z</time>
<desc>lat.=43.139973, lon.=19.096872, Alt.=1589.266602m. Speed=1.872000m/h.</desc>
<speed>0.520000</speed>
</trkpt>
<trkpt lat="43.140011" lon="19.096853">
<ele>1589.610352</ele>
<time>2012-05-01T13:19:39Z</time>
<desc>lat.=43.140011, lon.=19.096853, Alt.=1589.610352m. Speed=2.484000m/h.</desc>
<speed>0.690000</speed>
</trkpt>
<trkpt lat="43.140064" lon="19.096804">
<ele>1589.516602</ele>
<time>2012-05-01T13:19:44Z</time>
<desc>lat.=43.140064, lon.=19.096804, Alt.=1589.516602m. Speed=2.376000m/h.</desc>
<speed>0.660000</speed>
</trkpt>
<trkpt lat="43.140129" lon="19.096735">
<ele>1589.797852</ele>
<time>2012-05-01T13:19:49Z</time>
<desc>lat.=43.140129, lon.=19.096735, Alt.=1589.797852m. Speed=2.484000m/h.</desc>
<speed>0.690000</speed>
</trkpt>
<trkpt lat="43.140179" lon="19.096691">
<ele>1589.766602</ele>
<time>2012-05-01T13:19:54Z</time>
<desc>lat.=43.140179, lon.=19.096691, Alt.=1589.766602m. Speed=2.088000m/h.</desc>
<speed>0.580000</speed>
</trkpt>
<trkpt lat="43.140236" lon="19.096672">
<ele>1589.860352</ele>
<time>2012-05-01T13:19:59Z</time>
<desc>lat.=43.140236, lon.=19.096672, Alt.=1589.860352m. Speed=3.204000m/h.</desc>
<speed>0.890000</speed>
</trkpt>
<trkpt lat="43.140270" lon="19.096630">
<ele>1590.079102</ele>
<time>2012-05-01T13:20:04Z</time>
<desc>lat.=43.140270, lon.=19.096630, Alt.=1590.079102m. Speed=1.980000m/h.</desc>
<speed>0.550000</speed>
</trkpt>
<trkpt lat="43.140308" lon="19.096642">
<ele>1589.141602</ele>
<time>2012-05-01T13:20:09Z</time>
<desc>lat.=43.140308, lon.=19.096642, Alt.=1589.141602m. Speed=2.340000m/h.</desc>
<speed>0.650000</speed>
</trkpt>
<trkpt lat="43.140347" lon="19.096613">
<ele>1588.797852</ele>
<time>2012-05-01T13:20:14Z</time>
<desc>lat.=43.140347, lon.=19.096613, Alt.=1588.797852m. Speed=1.836000m/h.</desc>
<speed>0.510000</speed>
</trkpt>
<trkpt lat="43.140377" lon="19.096596">
<ele>1588.329102</ele>
<time>2012-05-01T13:20:19Z</time>
<desc>lat.=43.140377, lon.=19.096596, Alt.=1588.329102m. Speed=1.260000m/h.</desc>
<speed>0.350000</speed>
</trkpt>
<trkpt lat="43.140442" lon="19.096552">
<ele>1587.641602</ele>
<time>2012-05-01T13:20:24Z</time>
<desc>lat.=43.140442, lon.=19.096552, Alt.=1587.641602m. Speed=2.124000m/h.</desc>
<speed>0.590000</speed>
</trkpt>
<trkpt lat="43.140461" lon="19.096525">
<ele>1587.297852</ele>
<time>2012-05-01T13:20:29Z</time>
<desc>lat.=43.140461, lon.=19.096525, Alt.=1587.297852m. Speed=1.440000m/h.</desc>
<speed>0.400000</speed>
</trkpt>
<trkpt lat="43.140480" lon="19.096491">
<ele>1586.329102</ele>
<time>2012-05-01T13:20:34Z</time>
<desc>lat.=43.140480, lon.=19.096491, Alt.=1586.329102m. Speed=1.296000m/h.</desc>
<speed>0.360000</speed>
</trkpt>
<trkpt lat="43.140507" lon="19.096460">
<ele>1584.485352</ele>
<time>2012-05-01T13:20:39Z</time>
<desc>lat.=43.140507, lon.=19.096460, Alt.=1584.485352m. Speed=1.476000m/h.</desc>
<speed>0.410000</speed>
</trkpt>
<trkpt lat="43.140514" lon="19.096432">
<ele>1583.641602</ele>
<time>2012-05-01T13:20:44Z</time>
<desc>lat.=43.140514, lon.=19.096432, Alt.=1583.641602m. Speed=2.088000m/h.</desc>
<speed>0.580000</speed>
</trkpt>
<trkpt lat="43.140572" lon="19.096434">
<ele>1582.141602</ele>
<time>2012-05-01T13:20:49Z</time>
<desc>lat.=43.140572, lon.=19.096434, Alt.=1582.141602m. Speed=3.276000m/h.</desc>
<speed>0.910000</speed>
</trkpt>
<trkpt lat="43.140633" lon="19.096397">
<ele>1581.141602</ele>
<time>2012-05-01T13:20:54Z</time>
<desc>lat.=43.140633, lon.=19.096397, Alt.=1581.141602m. Speed=2.844000m/h.</desc>
<speed>0.790000</speed>
</trkpt>
<trkpt lat="43.140720" lon="19.096338">
<ele>1578.172852</ele>
<time>2012-05-01T13:20:59Z</time>
<desc>lat.=43.140720, lon.=19.096338, Alt.=1578.172852m. Speed=2.700000m/h.</desc>
<speed>0.750000</speed>
</trkpt>
<trkpt lat="43.140797" lon="19.096304">
<ele>1576.422852</ele>
<time>2012-05-01T13:21:04Z</time>
<desc>lat.=43.140797, lon.=19.096304, Alt.=1576.422852m. Speed=2.772000m/h.</desc>
<speed>0.770000</speed>
</trkpt>
<trkpt lat="43.140839" lon="19.096294">
<ele>1574.172852</ele>
<time>2012-05-01T13:21:09Z</time>
<desc>lat.=43.140839, lon.=19.096294, Alt.=1574.172852m. Speed=0.576000m/h.</desc>
<speed>0.160000</speed>
</trkpt>
<trkpt lat="43.140873" lon="19.096289">
<ele>1573.297852</ele>
<time>2012-05-01T13:21:14Z</time>
<desc>lat.=43.140873, lon.=19.096289, Alt.=1573.297852m. Speed=2.052000m/h.</desc>
<speed>0.570000</speed>
</trkpt>
<trkpt lat="43.140923" lon="19.096272">
<ele>1571.610352</ele>
<time>2012-05-01T13:21:19Z</time>
<desc>lat.=43.140923, lon.=19.096272, Alt.=1571.610352m. Speed=1.980000m/h.</desc>
<speed>0.550000</speed>
</trkpt>
<trkpt lat="43.140968" lon="19.096272">
<ele>1570.454102</ele>
<time>2012-05-01T13:21:24Z</time>
<desc>lat.=43.140968, lon.=19.096272, Alt.=1570.454102m. Speed=2.484000m/h.</desc>
<speed>0.690000</speed>
</trkpt>
<trkpt lat="43.141125" lon="19.096518">
<ele>1562.547852</ele>
<time>2012-05-01T13:21:29Z</time>
<desc>lat.=43.141125, lon.=19.096518, Alt.=1562.547852m. Speed=1.836000m/h.</desc>
<speed>0.510000</speed>
</trkpt>
<trkpt lat="43.141220" lon="19.096539">
<ele>1558.891602</ele>
<time>2012-05-01T13:21:34Z</time>
<desc>lat.=43.141220, lon.=19.096539, Alt.=1558.891602m. Speed=2.160000m/h.</desc>
<speed>0.600000</speed>
</trkpt>
<trkpt lat="43.141277" lon="19.096518">
<ele>1555.704102</ele>
<time>2012-05-01T13:21:39Z</time>
<desc>lat.=43.141277, lon.=19.096518, Alt.=1555.704102m. Speed=1.692000m/h.</desc>
<speed>0.470000</speed>
</trkpt>
<trkpt lat="43.141357" lon="19.096556">
<ele>1551.516602</ele>
<time>2012-05-01T13:21:44Z</time>
<desc>lat.=43.141357, lon.=19.096556, Alt.=1551.516602m. Speed=1.440000m/h.</desc>
<speed>0.400000</speed>
</trkpt>
<trkpt lat="43.141380" lon="19.096594">
<ele>1549.704102</ele>
<time>2012-05-01T13:21:49Z</time>
<desc>lat.=43.141380, lon.=19.096594, Alt.=1549.704102m. Speed=1.332000m/h.</desc>
<speed>0.370000</speed>
</trkpt>
<trkpt lat="43.141411" lon="19.096594">
<ele>1547.047852</ele>
<time>2012-05-01T13:21:54Z</time>
<desc>lat.=43.141411, lon.=19.096594, Alt.=1547.047852m. Speed=1.800000m/h.</desc>
<speed>0.500000</speed>
</trkpt>
<trkpt lat="43.141434" lon="19.096613">
<ele>1544.485352</ele>
<time>2012-05-01T13:21:59Z</time>
<desc>lat.=43.141434, lon.=19.096613, Alt.=1544.485352m. Speed=1.980000m/h.</desc>
<speed>0.550000</speed>
</trkpt>
<trkpt lat="43.141483" lon="19.096653">
<ele>1542.360352</ele>
<time>2012-05-01T13:22:04Z</time>
<desc>lat.=43.141483, lon.=19.096653, Alt.=1542.360352m. Speed=2.628000m/h.</desc>
<speed>0.730000</speed>
</trkpt>
<trkpt lat="43.141529" lon="19.096670">
<ele>1539.860352</ele>
<time>2012-05-01T13:22:09Z</time>
<desc>lat.=43.141529, lon.=19.096670, Alt.=1539.860352m. Speed=2.628000m/h.</desc>
<speed>0.730000</speed>
</trkpt>
<trkpt lat="43.141598" lon="19.096661">
<ele>1538.797852</ele>
<time>2012-05-01T13:22:14Z</time>
<desc>lat.=43.141598, lon.=19.096661, Alt.=1538.797852m. Speed=3.528000m/h.</desc>
<speed>0.980000</speed>
</trkpt>
<trkpt lat="43.141640" lon="19.096605">
<ele>1536.735352</ele>
<time>2012-05-01T13:22:19Z</time>
<desc>lat.=43.141640, lon.=19.096605, Alt.=1536.735352m. Speed=2.880000m/h.</desc>
<speed>0.800000</speed>
</trkpt>
<trkpt lat="43.141685" lon="19.096613">
<ele>1535.547852</ele>
<time>2012-05-01T13:22:24Z</time>
<desc>lat.=43.141685, lon.=19.096613, Alt.=1535.547852m. Speed=2.664000m/h.</desc>
<speed>0.740000</speed>
</trkpt>
<trkpt lat="43.141754" lon="19.096678">
<ele>1528.860352</ele>
<time>2012-05-01T13:22:29Z</time>
<desc>lat.=43.141754, lon.=19.096678, Alt.=1528.860352m. Speed=2.592000m/h.</desc>
<speed>0.720000</speed>
</trkpt>
<trkpt lat="43.141731" lon="19.096676">
<ele>1525.797852</ele>
<time>2012-05-01T13:22:34Z</time>
<desc>lat.=43.141731, lon.=19.096676, Alt.=1525.797852m. Speed=0.540000m/h.</desc>
<speed>0.150000</speed>
</trkpt>
<trkpt lat="43.141727" lon="19.096678">
<ele>1525.047852</ele>
<time>2012-05-01T13:22:39Z</time>
<desc>lat.=43.141727, lon.=19.096678, Alt.=1525.047852m. Speed=0.468000m/h.</desc>
<speed>0.130000</speed>
</trkpt>
<trkpt lat="43.141724" lon="19.096684">
<ele>1524.266602</ele>
<time>2012-05-01T13:22:44Z</time>
<desc>lat.=43.141724, lon.=19.096684, Alt.=1524.266602m. Speed=0.288000m/h.</desc>
<speed>0.080000</speed>
</trkpt>
<trkpt lat="43.141724" lon="19.096687">
<ele>1523.454102</ele>
<time>2012-05-01T13:22:49Z</time>
<desc>lat.=43.141724, lon.=19.096687, Alt.=1523.454102m. Speed=0.540000m/h.</desc>
<speed>0.150000</speed>
</trkpt>
<trkpt lat="43.141735" lon="19.096684">
<ele>1522.672852</ele>
<time>2012-05-01T13:22:54Z</time>
<desc>lat.=43.141735, lon.=19.096684, Alt.=1522.672852m. Speed=0.756000m/h.</desc>
<speed>0.210000</speed>
</trkpt>
<trkpt lat="43.141743" lon="19.096680">
<ele>1521.860352</ele>
<time>2012-05-01T13:22:59Z</time>
<desc>lat.=43.141743, lon.=19.096680, Alt.=1521.860352m. Speed=0.756000m/h.</desc>
<speed>0.210000</speed>
</trkpt>
<trkpt lat="43.141769" lon="19.096674">
<ele>1520.610352</ele>
<time>2012-05-01T13:23:04Z</time>
<desc>lat.=43.141769, lon.=19.096674, Alt.=1520.610352m. Speed=1.224000m/h.</desc>
<speed>0.340000</speed>
</trkpt>
<trkpt lat="43.141819" lon="19.096697">
<ele>1517.079102</ele>
<time>2012-05-01T13:23:09Z</time>
<desc>lat.=43.141819, lon.=19.096697, Alt.=1517.079102m. Speed=1.548000m/h.</desc>
<speed>0.430000</speed>
</trkpt>
<trkpt lat="43.141834" lon="19.096712">
<ele>1514.735352</ele>
<time>2012-05-01T13:23:14Z</time>
<desc>lat.=43.141834, lon.=19.096712, Alt.=1514.735352m. Speed=1.800000m/h.</desc>
<speed>0.500000</speed>
</trkpt>
<trkpt lat="43.141838" lon="19.096724">
<ele>1512.954102</ele>
<time>2012-05-01T13:23:19Z</time>
<desc>lat.=43.141838, lon.=19.096724, Alt.=1512.954102m. Speed=1.692000m/h.</desc>
<speed>0.470000</speed>
</trkpt>
<trkpt lat="43.141865" lon="19.096748">
<ele>1510.891602</ele>
<time>2012-05-01T13:23:24Z</time>
<desc>lat.=43.141865, lon.=19.096748, Alt.=1510.891602m. Speed=1.404000m/h.</desc>
<speed>0.390000</speed>
</trkpt>
<trkpt lat="43.141884" lon="19.096706">
<ele>1510.547852</ele>
<time>2012-05-01T13:23:29Z</time>
<desc>lat.=43.141884, lon.=19.096706, Alt.=1510.547852m. Speed=0.972000m/h.</desc>
<speed>0.270000</speed>
</trkpt>
<trkpt lat="43.141895" lon="19.096706">
<ele>1509.860352</ele>
<time>2012-05-01T13:23:34Z</time>
<desc>lat.=43.141895, lon.=19.096706, Alt.=1509.860352m. Speed=1.116000m/h.</desc>
<speed>0.310000</speed>
</trkpt>
<trkpt lat="43.141907" lon="19.096718">
<ele>1508.829102</ele>
<time>2012-05-01T13:23:39Z</time>
<desc>lat.=43.141907, lon.=19.096718, Alt.=1508.829102m. Speed=1.332000m/h.</desc>
<speed>0.370000</speed>
</trkpt>
<trkpt lat="43.141891" lon="19.096716">
<ele>1507.891602</ele>
<time>2012-05-01T13:23:44Z</time>
<desc>lat.=43.141891, lon.=19.096716, Alt.=1507.891602m. Speed=0.864000m/h.</desc>
<speed>0.240000</speed>
</trkpt>
<trkpt lat="43.141914" lon="19.096703">
<ele>1507.110352</ele>
<time>2012-05-01T13:23:49Z</time>
<desc>lat.=43.141914, lon.=19.096703, Alt.=1507.110352m. Speed=1.368000m/h.</desc>
<speed>0.380000</speed>
</trkpt>
<trkpt lat="43.141945" lon="19.096693">
<ele>1506.110352</ele>
<time>2012-05-01T13:23:54Z</time>
<desc>lat.=43.141945, lon.=19.096693, Alt.=1506.110352m. Speed=1.692000m/h.</desc>
<speed>0.470000</speed>
</trkpt>
<trkpt lat="43.142017" lon="19.096672">
<ele>1505.454102</ele>
<time>2012-05-01T13:23:59Z</time>
<desc>lat.=43.142017, lon.=19.096672, Alt.=1505.454102m. Speed=2.088000m/h.</desc>
<speed>0.580000</speed>
</trkpt>
<trkpt lat="43.142067" lon="19.096621">
<ele>1504.829102</ele>
<time>2012-05-01T13:24:04Z</time>
<desc>lat.=43.142067, lon.=19.096621, Alt.=1504.829102m. Speed=2.700000m/h.</desc>
<speed>0.750000</speed>
</trkpt>
<trkpt lat="43.142101" lon="19.096657">
<ele>1504.141602</ele>
<time>2012-05-01T13:24:09Z</time>
<desc>lat.=43.142101, lon.=19.096657, Alt.=1504.141602m. Speed=1.944000m/h.</desc>
<speed>0.540000</speed>
</trkpt>
<trkpt lat="43.142120" lon="19.096674">
<ele>1503.172852</ele>
<time>2012-05-01T13:24:14Z</time>
<desc>lat.=43.142120, lon.=19.096674, Alt.=1503.172852m. Speed=1.476000m/h.</desc>
<speed>0.410000</speed>
</trkpt>
<trkpt lat="43.142120" lon="19.096680">
<ele>1502.735352</ele>
<time>2012-05-01T13:24:19Z</time>
<desc>lat.=43.142120, lon.=19.096680, Alt.=1502.735352m. Speed=0.864000m/h.</desc>
<speed>0.240000</speed>
</trkpt>
<trkpt lat="43.142128" lon="19.096687">
<ele>1502.141602</ele>
<time>2012-05-01T13:24:24Z</time>
<desc>lat.=43.142128, lon.=19.096687, Alt.=1502.141602m. Speed=0.792000m/h.</desc>
<speed>0.220000</speed>
</trkpt>
<trkpt lat="43.142159" lon="19.096649">
<ele>1501.610352</ele>
<time>2012-05-01T13:24:29Z</time>
<desc>lat.=43.142159, lon.=19.096649, Alt.=1501.610352m. Speed=1.512000m/h.</desc>
<speed>0.420000</speed>
</trkpt>
<trkpt lat="43.142132" lon="19.096628">
<ele>1501.266602</ele>
<time>2012-05-01T13:24:34Z</time>
<desc>lat.=43.142132, lon.=19.096628, Alt.=1501.266602m. Speed=0.720000m/h.</desc>
<speed>0.200000</speed>
</trkpt>
<trkpt lat="43.142124" lon="19.096590">
<ele>1500.579102</ele>
<time>2012-05-01T13:24:39Z</time>
<desc>lat.=43.142124, lon.=19.096590, Alt.=1500.579102m. Speed=0.972000m/h.</desc>
<speed>0.270000</speed>
</trkpt>
<trkpt lat="43.142128" lon="19.096584">
<ele>1500.454102</ele>
<time>2012-05-01T13:24:44Z</time>
<desc>lat.=43.142128, lon.=19.096584, Alt.=1500.454102m. Speed=0.648000m/h.</desc>
<speed>0.180000</speed>
</trkpt>
<trkpt lat="43.142136" lon="19.096575">
<ele>1500.047852</ele>
<time>2012-05-01T13:24:49Z</time>
<desc>lat.=43.142136, lon.=19.096575, Alt.=1500.047852m. Speed=0.648000m/h.</desc>
<speed>0.180000</speed>
</trkpt>
<trkpt lat="43.142143" lon="19.096569">
<ele>1499.704102</ele>
<time>2012-05-01T13:24:54Z</time>
<desc>lat.=43.142143, lon.=19.096569, Alt.=1499.704102m. Speed=0.684000m/h.</desc>
<speed>0.190000</speed>
</trkpt>
<trkpt lat="43.142155" lon="19.096586">
<ele>1499.297852</ele>
<time>2012-05-01T13:24:59Z</time>
<desc>lat.=43.142155, lon.=19.096586, Alt.=1499.297852m. Speed=1.620000m/h.</desc>
<speed>0.450000</speed>
</trkpt>
<trkpt lat="43.142212" lon="19.096632">
<ele>1498.360352</ele>
<time>2012-05-01T13:25:04Z</time>
<desc>lat.=43.142212, lon.=19.096632, Alt.=1498.360352m. Speed=1.692000m/h.</desc>
<speed>0.470000</speed>
</trkpt>
<trkpt lat="43.142242" lon="19.096661">
<ele>1497.735352</ele>
<time>2012-05-01T13:25:09Z</time>
<desc>lat.=43.142242, lon.=19.096661, Alt.=1497.735352m. Speed=1.944000m/h.</desc>
<speed>0.540000</speed>
</trkpt>
<trkpt lat="43.142262" lon="19.096691">
<ele>1496.891602</ele>
<time>2012-05-01T13:25:14Z</time>
<desc>lat.=43.142262, lon.=19.096691, Alt.=1496.891602m. Speed=1.548000m/h.</desc>
<speed>0.430000</speed>
</trkpt>
<trkpt lat="43.142300" lon="19.096674">
<ele>1496.391602</ele>
<time>2012-05-01T13:25:19Z</time>
<desc>lat.=43.142300, lon.=19.096674, Alt.=1496.391602m. Speed=1.620000m/h.</desc>
<speed>0.450000</speed>
</trkpt>
<trkpt lat="43.142365" lon="19.096645">
<ele>1496.016602</ele>
<time>2012-05-01T13:25:24Z</time>
<desc>lat.=43.142365, lon.=19.096645, Alt.=1496.016602m. Speed=3.132000m/h.</desc>
<speed>0.870000</speed>
</trkpt>
<trkpt lat="43.142498" lon="19.096518">
<ele>1495.360352</ele>
<time>2012-05-01T13:25:29Z</time>
<desc>lat.=43.142498, lon.=19.096518, Alt.=1495.360352m. Speed=2.448000m/h.</desc>
<speed>0.680000</speed>
</trkpt>
<trkpt lat="43.142540" lon="19.096479">
<ele>1495.141602</ele>
<time>2012-05-01T13:25:34Z</time>
<desc>lat.=43.142540, lon.=19.096479, Alt.=1495.141602m. Speed=2.340000m/h.</desc>
<speed>0.650000</speed>
</trkpt>
<trkpt lat="43.142609" lon="19.096478">
<ele>1495.016602</ele>
<time>2012-05-01T13:25:39Z</time>
<desc>lat.=43.142609, lon.=19.096478, Alt.=1495.016602m. Speed=2.412000m/h.</desc>
<speed>0.670000</speed>
</trkpt>
<trkpt lat="43.142632" lon="19.096478">
<ele>1495.079102</ele>
<time>2012-05-01T13:25:44Z</time>
<desc>lat.=43.142632, lon.=19.096478, Alt.=1495.079102m. Speed=2.484000m/h.</desc>
<speed>0.690000</speed>
</trkpt>
<trkpt lat="43.142612" lon="19.096472">
<ele>1495.360352</ele>
<time>2012-05-01T13:25:49Z</time>
<desc>lat.=43.142612, lon.=19.096472, Alt.=1495.360352m. Speed=0.648000m/h.</desc>
<speed>0.180000</speed>
</trkpt>
<trkpt lat="43.142651" lon="19.096455">
<ele>1495.829102</ele>
<time>2012-05-01T13:25:54Z</time>
<desc>lat.=43.142651, lon.=19.096455, Alt.=1495.829102m. Speed=1.548000m/h.</desc>
<speed>0.430000</speed>
</trkpt>
<trkpt lat="43.142704" lon="19.096426">
<ele>1496.266602</ele>
<time>2012-05-01T13:25:59Z</time>
<desc>lat.=43.142704, lon.=19.096426, Alt.=1496.266602m. Speed=2.016000m/h.</desc>
<speed>0.560000</speed>
</trkpt>
<trkpt lat="43.142738" lon="19.096403">
<ele>1496.704102</ele>
<time>2012-05-01T13:26:04Z</time>
<desc>lat.=43.142738, lon.=19.096403, Alt.=1496.704102m. Speed=2.052000m/h.</desc>
<speed>0.570000</speed>
</trkpt>
<trkpt lat="43.142769" lon="19.096394">
<ele>1497.110352</ele>
<time>2012-05-01T13:26:09Z</time>
<desc>lat.=43.142769, lon.=19.096394, Alt.=1497.110352m. Speed=1.980000m/h.</desc>
<speed>0.550000</speed>
</trkpt>
<trkpt lat="43.142796" lon="19.096413">
<ele>1497.516602</ele>
<time>2012-05-01T13:26:14Z</time>
<desc>lat.=43.142796, lon.=19.096413, Alt.=1497.516602m. Speed=2.088000m/h.</desc>
<speed>0.580000</speed>
</trkpt>
<trkpt lat="43.142776" lon="19.096409">
<ele>1497.922852</ele>
<time>2012-05-01T13:26:19Z</time>
<desc>lat.=43.142776, lon.=19.096409, Alt.=1497.922852m. Speed=1.044000m/h.</desc>
<speed>0.290000</speed>
</trkpt>
<trkpt lat="43.142757" lon="19.096411">
<ele>1498.297852</ele>
<time>2012-05-01T13:26:24Z</time>
<desc>lat.=43.142757, lon.=19.096411, Alt.=1498.297852m. Speed=1.620000m/h.</desc>
<speed>0.450000</speed>
</trkpt>
<trkpt lat="43.142731" lon="19.096415">
<ele>1498.704102</ele>
<time>2012-05-01T13:26:29Z</time>
<desc>lat.=43.142731, lon.=19.096415, Alt.=1498.704102m. Speed=0.972000m/h.</desc>
<speed>0.270000</speed>
</trkpt>
<trkpt lat="43.142727" lon="19.096439">
<ele>1499.172852</ele>
<time>2012-05-01T13:26:34Z</time>
<desc>lat.=43.142727, lon.=19.096439, Alt.=1499.172852m. Speed=0.360000m/h.</desc>
<speed>0.100000</speed>
</trkpt>
<trkpt lat="43.142727" lon="19.096436">
<ele>1499.641602</ele>
<time>2012-05-01T13:26:39Z</time>
<desc>lat.=43.142727, lon.=19.096436, Alt.=1499.641602m. Speed=0.432000m/h.</desc>
<speed>0.120000</speed>
</trkpt>
<trkpt lat="43.142727" lon="19.096428">
<ele>1500.141602</ele>
<time>2012-05-01T13:26:44Z</time>
<desc>lat.=43.142727, lon.=19.096428, Alt.=1500.141602m. Speed=0.396000m/h.</desc>
<speed>0.110000</speed>
</trkpt>
<trkpt lat="43.142723" lon="19.096420">
<ele>1500.641602</ele>
<time>2012-05-01T13:26:49Z</time>
<desc>lat.=43.142723, lon.=19.096420, Alt.=1500.641602m. Speed=0.504000m/h.</desc>
<speed>0.140000</speed>
</trkpt>
<trkpt lat="43.142719" lon="19.096413">
<ele>1501.172852</ele>
<time>2012-05-01T13:26:54Z</time>
<desc>lat.=43.142719, lon.=19.096413, Alt.=1501.172852m. Speed=0.324000m/h.</desc>
<speed>0.090000</speed>
</trkpt>
<trkpt lat="43.142723" lon="19.096411">
<ele>1501.704102</ele>
<time>2012-05-01T13:26:59Z</time>
<desc>lat.=43.142723, lon.=19.096411, Alt.=1501.704102m. Speed=0.216000m/h.</desc>
<speed>0.060000</speed>
</trkpt>
<trkpt lat="43.142723" lon="19.096407">
<ele>1502.266602</ele>
<time>2012-05-01T13:27:04Z</time>
<desc>lat.=43.142723, lon.=19.096407, Alt.=1502.266602m. Speed=0.324000m/h.</desc>
<speed>0.090000</speed>
</trkpt>
<trkpt lat="43.142723" lon="19.096401">
<ele>1502.829102</ele>
<time>2012-05-01T13:27:09Z</time>
<desc>lat.=43.142723, lon.=19.096401, Alt.=1502.829102m. Speed=0.324000m/h.</desc>
<speed>0.090000</speed>
</trkpt>
<trkpt lat="43.142723" lon="19.096395">
<ele>1503.391602</ele>
<time>2012-05-01T13:27:14Z</time>
<desc>lat.=43.142723, lon.=19.096395, Alt.=1503.391602m. Speed=0.324000m/h.</desc>
<speed>0.090000</speed>
</trkpt>
<trkpt lat="43.142727" lon="19.096386">
<ele>1503.954102</ele>
<time>2012-05-01T13:27:19Z</time>
<desc>lat.=43.142727, lon.=19.096386, Alt.=1503.954102m. Speed=1.368000m/h.</desc>
<speed>0.380000</speed>
</trkpt>
<trkpt lat="43.142727" lon="19.096275">
<ele>1504.579102</ele>
<time>2012-05-01T13:27:24Z</time>
<desc>lat.=43.142727, lon.=19.096275, Alt.=1504.579102m. Speed=1.908000m/h.</desc>
<speed>0.530000</speed>
</trkpt>
<trkpt lat="43.142731" lon="19.096216">
<ele>1505.204102</ele>
<time>2012-05-01T13:27:29Z</time>
<desc>lat.=43.142731, lon.=19.096216, Alt.=1505.204102m. Speed=1.116000m/h.</desc>
<speed>0.310000</speed>
</trkpt>
<trkpt lat="43.142746" lon="19.096203">
<ele>1505.922852</ele>
<time>2012-05-01T13:27:34Z</time>
<desc>lat.=43.142746, lon.=19.096203, Alt.=1505.922852m. Speed=1.224000m/h.</desc>
<speed>0.340000</speed>
</trkpt>
<trkpt lat="43.142799" lon="19.096149">
<ele>1506.454102</ele>
<time>2012-05-01T13:27:39Z</time>
<desc>lat.=43.142799, lon.=19.096149, Alt.=1506.454102m. Speed=2.628000m/h.</desc>
<speed>0.730000</speed>
</trkpt>
<trkpt lat="43.142822" lon="19.096132">
<ele>1507.047852</ele>
<time>2012-05-01T13:27:44Z</time>
<desc>lat.=43.142822, lon.=19.096132, Alt.=1507.047852m. Speed=2.304000m/h.</desc>
<speed>0.640000</speed>
</trkpt>
<trkpt lat="43.142818" lon="19.096119">
<ele>1507.641602</ele>
<time>2012-05-01T13:27:49Z</time>
<desc>lat.=43.142818, lon.=19.096119, Alt.=1507.641602m. Speed=1.440000m/h.</desc>
<speed>0.400000</speed>
</trkpt>
<trkpt lat="43.142876" lon="19.096052">
<ele>1508.266602</ele>
<time>2012-05-01T13:27:54Z</time>
<desc>lat.=43.142876, lon.=19.096052, Alt.=1508.266602m. Speed=4.284000m/h.</desc>
<speed>1.190000</speed>
</trkpt>
<trkpt lat="43.142925" lon="19.096031">
<ele>1508.829102</ele>
<time>2012-05-01T13:27:59Z</time>
<desc>lat.=43.142925, lon.=19.096031, Alt.=1508.829102m. Speed=4.104000m/h.</desc>
<speed>1.140000</speed>
</trkpt>
<trkpt lat="43.142960" lon="19.096041">
<ele>1509.235352</ele>
<time>2012-05-01T13:28:04Z</time>
<desc>lat.=43.142960, lon.=19.096041, Alt.=1509.235352m. Speed=2.988000m/h.</desc>
<speed>0.830000</speed>
</trkpt>
<trkpt lat="43.143009" lon="19.096050">
<ele>1509.766602</ele>
<time>2012-05-01T13:28:09Z</time>
<desc>lat.=43.143009, lon.=19.096050, Alt.=1509.766602m. Speed=3.204000m/h.</desc>
<speed>0.890000</speed>
</trkpt>
<trkpt lat="43.143066" lon="19.096098">
<ele>1510.422852</ele>
<time>2012-05-01T13:28:14Z</time>
<desc>lat.=43.143066, lon.=19.096098, Alt.=1510.422852m. Speed=2.664000m/h.</desc>
<speed>0.740000</speed>
</trkpt>
<trkpt lat="43.143097" lon="19.096088">
<ele>1511.110352</ele>
<time>2012-05-01T13:28:19Z</time>
<desc>lat.=43.143097, lon.=19.096088, Alt.=1511.110352m. Speed=2.916000m/h.</desc>
<speed>0.810000</speed>
</trkpt>
<trkpt lat="43.143124" lon="19.096088">
<ele>1511.672852</ele>
<time>2012-05-01T13:28:24Z</time>
<desc>lat.=43.143124, lon.=19.096088, Alt.=1511.672852m. Speed=2.700000m/h.</desc>
<speed>0.750000</speed>
</trkpt>
<trkpt lat="43.143154" lon="19.096098">
<ele>1512.360352</ele>
<time>2012-05-01T13:28:29Z</time>
<desc>lat.=43.143154, lon.=19.096098, Alt.=1512.360352m. Speed=2.304000m/h.</desc>
<speed>0.640000</speed>
</trkpt>
<trkpt lat="43.143185" lon="19.096088">
<ele>1512.985352</ele>
<time>2012-05-01T13:28:34Z</time>
<desc>lat.=43.143185, lon.=19.096088, Alt.=1512.985352m. Speed=2.880000m/h.</desc>
<speed>0.800000</speed>
</trkpt>
<trkpt lat="43.143204" lon="19.096035">
<ele>1513.672852</ele>
<time>2012-05-01T13:28:39Z</time>
<desc>lat.=43.143204, lon.=19.096035, Alt.=1513.672852m. Speed=3.132000m/h.</desc>
<speed>0.870000</speed>
</trkpt>
<trkpt lat="43.143242" lon="19.095922">
<ele>1514.329102</ele>
<time>2012-05-01T13:28:44Z</time>
<desc>lat.=43.143242, lon.=19.095922, Alt.=1514.329102m. Speed=4.932000m/h.</desc>
<speed>1.370000</speed>
</trkpt>
<trkpt lat="43.143333" lon="19.095886">
<ele>1515.360352</ele>
<time>2012-05-01T13:28:49Z</time>
<desc>lat.=43.143333, lon.=19.095886, Alt.=1515.360352m. Speed=4.104000m/h.</desc>
<speed>1.140000</speed>
</trkpt>
<trkpt lat="43.143402" lon="19.095900">
<ele>1516.329102</ele>
<time>2012-05-01T13:28:54Z</time>
<desc>lat.=43.143402, lon.=19.095900, Alt.=1516.329102m. Speed=4.752000m/h.</desc>
<speed>1.320000</speed>
</trkpt>
<trkpt lat="43.143463" lon="19.095871">
<ele>1516.891602</ele>
<time>2012-05-01T13:28:59Z</time>
<desc>lat.=43.143463, lon.=19.095871, Alt.=1516.891602m. Speed=2.484000m/h.</desc>
<speed>0.690000</speed>
</trkpt>
<trkpt lat="43.143547" lon="19.095900">
<ele>1517.266602</ele>
<time>2012-05-01T13:29:04Z</time>
<desc>lat.=43.143547, lon.=19.095900, Alt.=1517.266602m. Speed=3.276000m/h.</desc>
<speed>0.910000</speed>
</trkpt>
<trkpt lat="43.143585" lon="19.095850">
<ele>1517.610352</ele>
<time>2012-05-01T13:29:09Z</time>
<desc>lat.=43.143585, lon.=19.095850, Alt.=1517.610352m. Speed=3.528000m/h.</desc>
<speed>0.980000</speed>
</trkpt>
<trkpt lat="43.143555" lon="19.095751">
<ele>1517.454102</ele>
<time>2012-05-01T13:29:14Z</time>
<desc>lat.=43.143555, lon.=19.095751, Alt.=1517.454102m. Speed=2.484000m/h.</desc>
<speed>0.690000</speed>
</trkpt>
<trkpt lat="43.143551" lon="19.095745">
<ele>1517.797852</ele>
<time>2012-05-01T13:29:19Z</time>
<desc>lat.=43.143551, lon.=19.095745, Alt.=1517.797852m. Speed=2.412000m/h.</desc>
<speed>0.670000</speed>
</trkpt>
<trkpt lat="43.143539" lon="19.095701">
<ele>1517.547852</ele>
<time>2012-05-01T13:29:24Z</time>
<desc>lat.=43.143539, lon.=19.095701, Alt.=1517.547852m. Speed=2.016000m/h.</desc>
<speed>0.560000</speed>
</trkpt>
<trkpt lat="43.143524" lon="19.095690">
<ele>1516.329102</ele>
<time>2012-05-01T13:29:29Z</time>
<desc>lat.=43.143524, lon.=19.095690, Alt.=1516.329102m. Speed=1.656000m/h.</desc>
<speed>0.460000</speed>
</trkpt>
<trkpt lat="43.143559" lon="19.095699">
<ele>1515.485352</ele>
<time>2012-05-01T13:29:34Z</time>
<desc>lat.=43.143559, lon.=19.095699, Alt.=1515.485352m. Speed=2.196000m/h.</desc>
<speed>0.610000</speed>
</trkpt>
<trkpt lat="43.143661" lon="19.095795">
<ele>1513.141602</ele>
<time>2012-05-01T13:29:39Z</time>
<desc>lat.=43.143661, lon.=19.095795, Alt.=1513.141602m. Speed=3.672000m/h.</desc>
<speed>1.020000</speed>
</trkpt>
<trkpt lat="43.143684" lon="19.095774">
<ele>1511.735352</ele>
<time>2012-05-01T13:29:44Z</time>
<desc>lat.=43.143684, lon.=19.095774, Alt.=1511.735352m. Speed=3.348000m/h.</desc>
<speed>0.930000</speed>
</trkpt>
<trkpt lat="43.143982" lon="19.095882">
<ele>1505.797852</ele>
<time>2012-05-01T13:29:49Z</time>
<desc>lat.=43.143982, lon.=19.095882, Alt.=1505.797852m. Speed=10.440000m/h.</desc>
<speed>2.900000</speed>
</trkpt>
<trkpt lat="43.144131" lon="19.095757">
<ele>1502.954102</ele>
<time>2012-05-01T13:29:54Z</time>
<desc>lat.=43.144131, lon.=19.095757, Alt.=1502.954102m. Speed=9.540000m/h.</desc>
<speed>2.650000</speed>
</trkpt>
<trkpt lat="43.144257" lon="19.095629">
<ele>1500.985352</ele>
<time>2012-05-01T13:29:59Z</time>
<desc>lat.=43.144257, lon.=19.095629, Alt.=1500.985352m. Speed=9.684000m/h.</desc>
<speed>2.690000</speed>
</trkpt>
<trkpt lat="43.144268" lon="19.095470">
<ele>1497.454102</ele>
<time>2012-05-01T13:30:04Z</time>
<desc>lat.=43.144268, lon.=19.095470, Alt.=1497.454102m. Speed=7.056000m/h.</desc>
<speed>1.960000</speed>
</trkpt>
<trkpt lat="43.144176" lon="19.095369">
<ele>1489.985352</ele>
<time>2012-05-01T13:30:09Z</time>
<desc>lat.=43.144176, lon.=19.095369, Alt.=1489.985352m. Speed=6.408000m/h.</desc>
<speed>1.780000</speed>
</trkpt>
<trkpt lat="43.144135" lon="19.095295">
<ele>1484.204102</ele>
<time>2012-05-01T13:30:14Z</time>
<desc>lat.=43.144135, lon.=19.095295, Alt.=1484.204102m. Speed=0.396000m/h.</desc>
<speed>0.110000</speed>
</trkpt>
<trkpt lat="43.144104" lon="19.095272">
<ele>1480.954102</ele>
<time>2012-05-01T13:30:19Z</time>
<desc>lat.=43.144104, lon.=19.095272, Alt.=1480.954102m. Speed=4.608000m/h.</desc>
<speed>1.280000</speed>
</trkpt>
<trkpt lat="43.144100" lon="19.095198">
<ele>1478.422852</ele>
<time>2012-05-01T13:30:24Z</time>
<desc>lat.=43.144100, lon.=19.095198, Alt.=1478.422852m. Speed=4.968000m/h.</desc>
<speed>1.380000</speed>
</trkpt>
<trkpt lat="43.144104" lon="19.095129">
<ele>1476.204102</ele>
<time>2012-05-01T13:30:29Z</time>
<desc>lat.=43.144104, lon.=19.095129, Alt.=1476.204102m. Speed=4.428000m/h.</desc>
<speed>1.230000</speed>
</trkpt>
<trkpt lat="43.144112" lon="19.095070">
<ele>1473.610352</ele>
<time>2012-05-01T13:30:34Z</time>
<desc>lat.=43.144112, lon.=19.095070, Alt.=1473.610352m. Speed=4.140000m/h.</desc>
<speed>1.150000</speed>
</trkpt>
<trkpt lat="43.144104" lon="19.095009">
<ele>1471.047852</ele>
<time>2012-05-01T13:30:39Z</time>
<desc>lat.=43.144104, lon.=19.095009, Alt.=1471.047852m. Speed=3.672000m/h.</desc>
<speed>1.020000</speed>
</trkpt>
<trkpt lat="43.144081" lon="19.094942">
<ele>1468.047852</ele>
<time>2012-05-01T13:30:44Z</time>
<desc>lat.=43.144081, lon.=19.094942, Alt.=1468.047852m. Speed=3.672000m/h.</desc>
<speed>1.020000</speed>
</trkpt>
<trkpt lat="43.144100" lon="19.094877">
<ele>1464.641602</ele>
<time>2012-05-01T13:30:49Z</time>
<desc>lat.=43.144100, lon.=19.094877, Alt.=1464.641602m. Speed=4.464000m/h.</desc>
<speed>1.240000</speed>
</trkpt>
<trkpt lat="43.144135" lon="19.094816">
<ele>1460.485352</ele>
<time>2012-05-01T13:30:54Z</time>
<desc>lat.=43.144135, lon.=19.094816, Alt.=1460.485352m. Speed=3.384000m/h.</desc>
<speed>0.940000</speed>
</trkpt>
<trkpt lat="43.144157" lon="19.094746">
<ele>1457.860352</ele>
<time>2012-05-01T13:30:59Z</time>
<desc>lat.=43.144157, lon.=19.094746, Alt.=1457.860352m. Speed=3.780000m/h.</desc>
<speed>1.050000</speed>
</trkpt>
<trkpt lat="43.144180" lon="19.094696">
<ele>1456.141602</ele>
<time>2012-05-01T13:31:04Z</time>
<desc>lat.=43.144180, lon.=19.094696, Alt.=1456.141602m. Speed=3.744000m/h.</desc>
<speed>1.040000</speed>
</trkpt>
<trkpt lat="43.144199" lon="19.094639">
<ele>1454.891602</ele>
<time>2012-05-01T13:31:09Z</time>
<desc>lat.=43.144199, lon.=19.094639, Alt.=1454.891602m. Speed=3.312000m/h.</desc>
<speed>0.920000</speed>
</trkpt>
<trkpt lat="43.144222" lon="19.094591">
<ele>1454.954102</ele>
<time>2012-05-01T13:31:14Z</time>
<desc>lat.=43.144222, lon.=19.094591, Alt.=1454.954102m. Speed=3.204000m/h.</desc>
<speed>0.890000</speed>
</trkpt>
<trkpt lat="43.144245" lon="19.094528">
<ele>1453.797852</ele>
<time>2012-05-01T13:31:19Z</time>
<desc>lat.=43.144245, lon.=19.094528, Alt.=1453.797852m. Speed=4.032000m/h.</desc>
<speed>1.120000</speed>
</trkpt>
<trkpt lat="43.144234" lon="19.094482">
<ele>1451.672852</ele>
<time>2012-05-01T13:31:24Z</time>
<desc>lat.=43.144234, lon.=19.094482, Alt.=1451.672852m. Speed=0.324000m/h.</desc>
<speed>0.090000</speed>
</trkpt>
<trkpt lat="43.144230" lon="19.094479">
<ele>1451.079102</ele>
<time>2012-05-01T13:31:29Z</time>
<desc>lat.=43.144230, lon.=19.094479, Alt.=1451.079102m. Speed=0.144000m/h.</desc>
<speed>0.040000</speed>
</trkpt>
<trkpt lat="43.144230" lon="19.094477">
<ele>1451.079102</ele>
<time>2012-05-01T13:31:34Z</time>
<desc>lat.=43.144230, lon.=19.094477, Alt.=1451.079102m. Speed=0.000000m/h.</desc>
<speed>0.000000</speed>
</trkpt>
<trkpt lat="43.144222" lon="19.094479">
<ele>1450.922852</ele>
<time>2012-05-01T13:31:39Z</time>
<desc>lat.=43.144222, lon.=19.094479, Alt.=1450.922852m. Speed=0.108000m/h.</desc>
<speed>0.030000</speed>
</trkpt>
<trkpt lat="43.144218" lon="19.094479">
<ele>1450.860352</ele>
<time>2012-05-01T13:31:44Z</time>
<desc>lat.=43.144218, lon.=19.094479, Alt.=1450.860352m. Speed=0.036000m/h.</desc>
<speed>0.010000</speed>
</trkpt>
<trkpt lat="43.144218" lon="19.094479">
<ele>1450.797852</ele>
<time>2012-05-01T13:31:49Z</time>
<desc>lat.=43.144218, lon.=19.094479, Alt.=1450.797852m. Speed=0.000000m/h.</desc>
<speed>0.000000</speed>
</trkpt>
<trkpt lat="43.144218" lon="19.094479">
<ele>1450.766602</ele>
<time>2012-05-01T13:31:54Z</time>
<desc>lat.=43.144218, lon.=19.094479, Alt.=1450.766602m. Speed=0.000000m/h.</desc>
<speed>0.000000</speed>
</trkpt>
<trkpt lat="43.144215" lon="19.094479">
<ele>1450.735352</ele>
<time>2012-05-01T13:31:59Z</time>
<desc>lat.=43.144215, lon.=19.094479, Alt.=1450.735352m. Speed=0.000000m/h.</desc>
<speed>0.000000</speed>
</trkpt>
<trkpt lat="43.144215" lon="19.094479">
<ele>1450.704102</ele>
<time>2012-05-01T13:32:04Z</time>
<desc>lat.=43.144215, lon.=19.094479, Alt.=1450.704102m. Speed=0.036000m/h.</desc>
<speed>0.010000</speed>
</trkpt>
<trkpt lat="43.144215" lon="19.094481">
<ele>1450.672852</ele>
<time>2012-05-01T13:32:09Z</time>
<desc>lat.=43.144215, lon.=19.094481, Alt.=1450.672852m. Speed=0.000000m/h.</desc>
<speed>0.000000</speed>
</trkpt>
<trkpt lat="43.144215" lon="19.094481">
<ele>1450.641602</ele>
<time>2012-05-01T13:32:14Z</time>
<desc>lat.=43.144215, lon.=19.094481, Alt.=1450.641602m. Speed=0.036000m/h.</desc>
<speed>0.010000</speed>
</trkpt>
<trkpt lat="43.144215" lon="19.094481">
<ele>1450.610352</ele>
<time>2012-05-01T13:32:19Z</time>
<desc>lat.=43.144215, lon.=19.094481, Alt.=1450.610352m. Speed=0.000000m/h.</desc>
<speed>0.000000</speed>
</trkpt>
<trkpt lat="43.144215" lon="19.094481">
<ele>1450.579102</ele>
<time>2012-05-01T13:32:24Z</time>
<desc>lat.=43.144215, lon.=19.094481, Alt.=1450.579102m. Speed=0.036000m/h.</desc>
<speed>0.010000</speed>
</trkpt>
<trkpt lat="43.144211" lon="19.094481">
<ele>1450.547852</ele>
<time>2012-05-01T13:32:29Z</time>
<desc>lat.=43.144211, lon.=19.094481, Alt.=1450.547852m. Speed=0.036000m/h.</desc>
<speed>0.010000</speed>
</trkpt>
<trkpt lat="43.144211" lon="19.094481">
<ele>1450.547852</ele>
<time>2012-05-01T13:32:34Z</time>
<desc>lat.=43.144211, lon.=19.094481, Alt.=1450.547852m. Speed=0.000000m/h.</desc>
<speed>0.000000</speed>
</trkpt>
<trkpt lat="43.144211" lon="19.094481">
<ele>1450.516602</ele>
<time>2012-05-01T13:32:39Z</time>
<desc>lat.=43.144211, lon.=19.094481, Alt.=1450.516602m. Speed=0.000000m/h.</desc>
<speed>0.000000</speed>
</trkpt>
<trkpt lat="43.144211" lon="19.094481">
<ele>1450.516602</ele>
<time>2012-05-01T13:32:44Z</time>
<desc>lat.=43.144211, lon.=19.094481, Alt.=1450.516602m. Speed=0.000000m/h.</desc>
<speed>0.000000</speed>
</trkpt>
<trkpt lat="43.144211" lon="19.094481">
<ele>1450.485352</ele>
<time>2012-05-01T13:32:49Z</time>
<desc>lat.=43.144211, lon.=19.094481, Alt.=1450.485352m. Speed=0.036000m/h.</desc>
<speed>0.010000</speed>
</trkpt>
<trkpt lat="43.144211" lon="19.094481">
<ele>1450.485352</ele>
<time>2012-05-01T13:32:54Z</time>
<desc>lat.=43.144211, lon.=19.094481, Alt.=1450.485352m. Speed=0.000000m/h.</desc>
<speed>0.000000</speed>
</trkpt>
<trkpt lat="43.144211" lon="19.094481">
<ele>1450.454102</ele>
<time>2012-05-01T13:32:59Z</time>
<desc>lat.=43.144211, lon.=19.094481, Alt.=1450.454102m. Speed=0.000000m/h.</desc>
<speed>0.000000</speed>
</trkpt>
<trkpt lat="43.144207" lon="19.094481">
<ele>1450.454102</ele>
<time>2012-05-01T13:33:04Z</time>
<desc>lat.=43.144207, lon.=19.094481, Alt.=1450.454102m. Speed=0.000000m/h.</desc>
<speed>0.000000</speed>
</trkpt>
<trkpt lat="43.144207" lon="19.094481">
<ele>1450.422852</ele>
<time>2012-05-01T13:33:09Z</time>
<desc>lat.=43.144207, lon.=19.094481, Alt.=1450.422852m. Speed=0.000000m/h.</desc>
<speed>0.000000</speed>
</trkpt>
<trkpt lat="43.144207" lon="19.094481">
<ele>1450.422852</ele>
<time>2012-05-01T13:33:14Z</time>
<desc>lat.=43.144207, lon.=19.094481, Alt.=1450.422852m. Speed=0.000000m/h.</desc>
<speed>0.000000</speed>
</trkpt>
<trkpt lat="43.144207" lon="19.094482">
<ele>1450.391602</ele>
<time>2012-05-01T13:33:19Z</time>
<desc>lat.=43.144207, lon.=19.094482, Alt.=1450.391602m. Speed=0.000000m/h.</desc>
<speed>0.000000</speed>
</trkpt>
<trkpt lat="43.144207" lon="19.094482">
<ele>1450.391602</ele>
<time>2012-05-01T13:33:24Z</time>
<desc>lat.=43.144207, lon.=19.094482, Alt.=1450.391602m. Speed=0.036000m/h.</desc>
<speed>0.010000</speed>
</trkpt>
<trkpt lat="43.144207" lon="19.094482">
<ele>1450.360352</ele>
<time>2012-05-01T13:33:29Z</time>
<desc>lat.=43.144207, lon.=19.094482, Alt.=1450.360352m. Speed=0.000000m/h.</desc>
<speed>0.000000</speed>
</trkpt>
<trkpt lat="43.144207" lon="19.094482">
<ele>1450.329102</ele>
<time>2012-05-01T13:33:34Z</time>
<desc>lat.=43.144207, lon.=19.094482, Alt.=1450.329102m. Speed=0.000000m/h.</desc>
<speed>0.000000</speed>
</trkpt>
<trkpt lat="43.144207" lon="19.094482">
<ele>1450.329102</ele>
<time>2012-05-01T13:33:39Z</time>
<desc>lat.=43.144207, lon.=19.094482, Alt.=1450.329102m. Speed=0.036000m/h.</desc>
<speed>0.010000</speed>
</trkpt>
<trkpt lat="43.144207" lon="19.094482">
<ele>1450.297852</ele>
<time>2012-05-01T13:33:44Z</time>
<desc>lat.=43.144207, lon.=19.094482, Alt.=1450.297852m. Speed=0.036000m/h.</desc>
<speed>0.010000</speed>
</trkpt>
<trkpt lat="43.144203" lon="19.094482">
<ele>1450.266602</ele>
<time>2012-05-01T13:33:49Z</time>
<desc>lat.=43.144203, lon.=19.094482, Alt.=1450.266602m. Speed=0.000000m/h.</desc>
<speed>0.000000</speed>
</trkpt>
<trkpt lat="43.144203" lon="19.094482">
<ele>1450.266602</ele>
<time>2012-05-01T13:33:54Z</time>
<desc>lat.=43.144203, lon.=19.094482, Alt.=1450.266602m. Speed=0.000000m/h.</desc>
<speed>0.000000</speed>
</trkpt>
<trkpt lat="43.144203" lon="19.094482">
<ele>1450.235352</ele>
<time>2012-05-01T13:33:59Z</time>
<desc>lat.=43.144203, lon.=19.094482, Alt.=1450.235352m. Speed=0.000000m/h.</desc>
<speed>0.000000</speed>
</trkpt>
<trkpt lat="43.144203" lon="19.094482">
<ele>1450.204102</ele>
<time>2012-05-01T13:34:04Z</time>
<desc>lat.=43.144203, lon.=19.094482, Alt.=1450.204102m. Speed=0.000000m/h.</desc>
<speed>0.000000</speed>
</trkpt>
<trkpt lat="43.144203" lon="19.094482">
<ele>1450.172852</ele>
<time>2012-05-01T13:34:09Z</time>
<desc>lat.=43.144203, lon.=19.094482, Alt.=1450.172852m. Speed=0.000000m/h.</desc>
<speed>0.000000</speed>
</trkpt>
<trkpt lat="43.144203" lon="19.094484">
<ele>1450.141602</ele>
<time>2012-05-01T13:34:14Z</time>
<desc>lat.=43.144203, lon.=19.094484, Alt.=1450.141602m. Speed=0.000000m/h.</desc>
<speed>0.000000</speed>
</trkpt>
<trkpt lat="43.144203" lon="19.094484">
<ele>1450.141602</ele>
<time>2012-05-01T13:34:19Z</time>
<desc>lat.=43.144203, lon.=19.094484, Alt.=1450.141602m. Speed=0.000000m/h.</desc>
<speed>0.000000</speed>
</trkpt>
<trkpt lat="43.144203" lon="19.094484">
<ele>1450.110352</ele>
<time>2012-05-01T13:34:24Z</time>
<desc>lat.=43.144203, lon.=19.094484, Alt.=1450.110352m. Speed=0.000000m/h.</desc>
<speed>0.000000</speed>
</trkpt>
<trkpt lat="43.144203" lon="19.094484">
<ele>1450.110352</ele>
<time>2012-05-01T13:34:29Z</time>
<desc>lat.=43.144203, lon.=19.094484, Alt.=1450.110352m. Speed=0.000000m/h.</desc>
<speed>0.000000</speed>
</trkpt>
<trkpt lat="43.144203" lon="19.094484">
<ele>1450.079102</ele>
<time>2012-05-01T13:34:34Z</time>
<desc>lat.=43.144203, lon.=19.094484, Alt.=1450.079102m. Speed=0.072000m/h.</desc>
<speed>0.020000</speed>
</trkpt>
<trkpt lat="43.144203" lon="19.094484">
<ele>1450.047852</ele>
<time>2012-05-01T13:34:39Z</time>
<desc>lat.=43.144203, lon.=19.094484, Alt.=1450.047852m. Speed=0.000000m/h.</desc>
<speed>0.000000</speed>
</trkpt>
<trkpt lat="43.144203" lon="19.094486">
<ele>1450.016602</ele>
<time>2012-05-01T13:34:44Z</time>
<desc>lat.=43.144203, lon.=19.094486, Alt.=1450.016602m. Speed=0.000000m/h.</desc>
<speed>0.000000</speed>
</trkpt>
<trkpt lat="43.144199" lon="19.094486">
<ele>1450.016602</ele>
<time>2012-05-01T13:34:49Z</time>
<desc>lat.=43.144199, lon.=19.094486, Alt.=1450.016602m. Speed=0.000000m/h.</desc>
<speed>0.000000</speed>
</trkpt>
<trkpt lat="43.144199" lon="19.094486">
<ele>1449.985352</ele>
<time>2012-05-01T13:34:54Z</time>
<desc>lat.=43.144199, lon.=19.094486, Alt.=1449.985352m. Speed=0.000000m/h.</desc>
<speed>0.000000</speed>
</trkpt>
<trkpt lat="43.144199" lon="19.094486">
<ele>1449.985352</ele>
<time>2012-05-01T13:34:59Z</time>
<desc>lat.=43.144199, lon.=19.094486, Alt.=1449.985352m. Speed=0.000000m/h.</desc>
<speed>0.000000</speed>
</trkpt>
<trkpt lat="43.144199" lon="19.094486">
<ele>1449.954102</ele>
<time>2012-05-01T13:35:04Z</time>
<desc>lat.=43.144199, lon.=19.094486, Alt.=1449.954102m. Speed=0.000000m/h.</desc>
<speed>0.000000</speed>
</trkpt>
<trkpt lat="43.144199" lon="19.094486">
<ele>1449.954102</ele>
<time>2012-05-01T13:35:09Z</time>
<desc>lat.=43.144199, lon.=19.094486, Alt.=1449.954102m. Speed=0.000000m/h.</desc>
<speed>0.000000</speed>
</trkpt>
<trkpt lat="43.144199" lon="19.094486">
<ele>1449.922852</ele>
<time>2012-05-01T13:35:14Z</time>
<desc>lat.=43.144199, lon.=19.094486, Alt.=1449.922852m. Speed=0.000000m/h.</desc>
<speed>0.000000</speed>
</trkpt>
<trkpt lat="43.144199" lon="19.094488">
<ele>1449.891602</ele>
<time>2012-05-01T13:35:19Z</time>
<desc>lat.=43.144199, lon.=19.094488, Alt.=1449.891602m. Speed=0.000000m/h.</desc>
<speed>0.000000</speed>
</trkpt>
<trkpt lat="43.144199" lon="19.094488">
<ele>1449.860352</ele>
<time>2012-05-01T13:35:24Z</time>
<desc>lat.=43.144199, lon.=19.094488, Alt.=1449.860352m. Speed=0.000000m/h.</desc>
<speed>0.000000</speed>
</trkpt>
<trkpt lat="43.144199" lon="19.094488">
<ele>1449.829102</ele>
<time>2012-05-01T13:35:29Z</time>
<desc>lat.=43.144199, lon.=19.094488, Alt.=1449.829102m. Speed=0.000000m/h.</desc>
<speed>0.000000</speed>
</trkpt>
<trkpt lat="43.144199" lon="19.094488">
<ele>1449.829102</ele>
<time>2012-05-01T13:35:34Z</time>
<desc>lat.=43.144199, lon.=19.094488, Alt.=1449.829102m. Speed=0.036000m/h.</desc>
<speed>0.010000</speed>
</trkpt>
<trkpt lat="43.144199" lon="19.094488">
<ele>1449.797852</ele>
<time>2012-05-01T13:35:39Z</time>
<desc>lat.=43.144199, lon.=19.094488, Alt.=1449.797852m. Speed=0.000000m/h.</desc>
<speed>0.000000</speed>
</trkpt>
<trkpt lat="43.144199" lon="19.094488">
<ele>1449.766602</ele>
<time>2012-05-01T13:35:44Z</time>
<desc>lat.=43.144199, lon.=19.094488, Alt.=1449.766602m. Speed=0.000000m/h.</desc>
<speed>0.000000</speed>
</trkpt>
<trkpt lat="43.144196" lon="19.094488">
<ele>1449.735352</ele>
<time>2012-05-01T13:35:49Z</time>
<desc>lat.=43.144196, lon.=19.094488, Alt.=1449.735352m. Speed=0.000000m/h.</desc>
<speed>0.000000</speed>
</trkpt>
<trkpt lat="43.144196" lon="19.094488">
<ele>1449.735352</ele>
<time>2012-05-01T13:35:54Z</time>
<desc>lat.=43.144196, lon.=19.094488, Alt.=1449.735352m. Speed=0.000000m/h.</desc>
<speed>0.000000</speed>
</trkpt>
<trkpt lat="43.144196" lon="19.094488">
<ele>1449.704102</ele>
<time>2012-05-01T13:35:59Z</time>
<desc>lat.=43.144196, lon.=19.094488, Alt.=1449.704102m. Speed=0.000000m/h.</desc>
<speed>0.000000</speed>
</trkpt>
<trkpt lat="43.144196" lon="19.094488">
<ele>1449.672852</ele>
<time>2012-05-01T13:36:04Z</time>
<desc>lat.=43.144196, lon.=19.094488, Alt.=1449.672852m. Speed=0.000000m/h.</desc>
<speed>0.000000</speed>
</trkpt>
<trkpt lat="43.144196" lon="19.094488">
<ele>1449.672852</ele>
<time>2012-05-01T13:36:09Z</time>
<desc>lat.=43.144196, lon.=19.094488, Alt.=1449.672852m. Speed=0.036000m/h.</desc>
<speed>0.010000</speed>
</trkpt>
<trkpt lat="43.144196" lon="19.094490">
<ele>1449.641602</ele>
<time>2012-05-01T13:36:14Z</time>
<desc>lat.=43.144196, lon.=19.094490, Alt.=1449.641602m. Speed=0.000000m/h.</desc>
<speed>0.000000</speed>
</trkpt>
<trkpt lat="43.144196" lon="19.094490">
<ele>1449.610352</ele>
<time>2012-05-01T13:36:19Z</time>
<desc>lat.=43.144196, lon.=19.094490, Alt.=1449.610352m. Speed=0.000000m/h.</desc>
<speed>0.000000</speed>
</trkpt>
<trkpt lat="43.144196" lon="19.094490">
<ele>1449.579102</ele>
<time>2012-05-01T13:36:24Z</time>
<desc>lat.=43.144196, lon.=19.094490, Alt.=1449.579102m. Speed=0.000000m/h.</desc>
<speed>0.000000</speed>
</trkpt>
<trkpt lat="43.144196" lon="19.094490">
<ele>1449.547852</ele>
<time>2012-05-01T13:36:29Z</time>
<desc>lat.=43.144196, lon.=19.094490, Alt.=1449.547852m. Speed=0.000000m/h.</desc>
<speed>0.000000</speed>
</trkpt>
<trkpt lat="43.144196" lon="19.094490">
<ele>1449.516602</ele>
<time>2012-05-01T13:36:34Z</time>
<desc>lat.=43.144196, lon.=19.094490, Alt.=1449.516602m. Speed=0.036000m/h.</desc>
<speed>0.010000</speed>
</trkpt>
<trkpt lat="43.144196" lon="19.094490">
<ele>1449.485352</ele>
<time>2012-05-01T13:36:39Z</time>
<desc>lat.=43.144196, lon.=19.094490, Alt.=1449.485352m. Speed=0.000000m/h.</desc>
<speed>0.000000</speed>
</trkpt>
<trkpt lat="43.144196" lon="19.094490">
<ele>1449.485352</ele>
<time>2012-05-01T13:36:44Z</time>
<desc>lat.=43.144196, lon.=19.094490, Alt.=1449.485352m. Speed=0.000000m/h.</desc>
<speed>0.000000</speed>
</trkpt>
<trkpt lat="43.144192" lon="19.094490">
<ele>1449.454102</ele>
<time>2012-05-01T13:36:49Z</time>
<desc>lat.=43.144192, lon.=19.094490, Alt.=1449.454102m. Speed=0.000000m/h.</desc>
<speed>0.000000</speed>
</trkpt>
<trkpt lat="43.144192" lon="19.094492">
<ele>1449.422852</ele>
<time>2012-05-01T13:36:54Z</time>
<desc>lat.=43.144192, lon.=19.094492, Alt.=1449.422852m. Speed=0.000000m/h.</desc>
<speed>0.000000</speed>
</trkpt>
<trkpt lat="43.144192" lon="19.094492">
<ele>1449.422852</ele>
<time>2012-05-01T13:36:59Z</time>
<desc>lat.=43.144192, lon.=19.094492, Alt.=1449.422852m. Speed=0.000000m/h.</desc>
<speed>0.000000</speed>
</trkpt>
<trkpt lat="43.144192" lon="19.094492">
<ele>1449.391602</ele>
<time>2012-05-01T13:37:04Z</time>
<desc>lat.=43.144192, lon.=19.094492, Alt.=1449.391602m. Speed=0.000000m/h.</desc>
<speed>0.000000</speed>
</trkpt>
<trkpt lat="43.144192" lon="19.094492">
<ele>1449.360352</ele>
<time>2012-05-01T13:37:09Z</time>
<desc>lat.=43.144192, lon.=19.094492, Alt.=1449.360352m. Speed=0.000000m/h.</desc>
<speed>0.000000</speed>
</trkpt>
<trkpt lat="43.144192" lon="19.094492">
<ele>1449.329102</ele>
<time>2012-05-01T13:37:14Z</time>
<desc>lat.=43.144192, lon.=19.094492, Alt.=1449.329102m. Speed=0.036000m/h.</desc>
<speed>0.010000</speed>
</trkpt>
<trkpt lat="43.144192" lon="19.094492">
<ele>1449.329102</ele>
<time>2012-05-01T13:37:19Z</time>
<desc>lat.=43.144192, lon.=19.094492, Alt.=1449.329102m. Speed=0.000000m/h.</desc>
<speed>0.000000</speed>
</trkpt>
<trkpt lat="43.144192" lon="19.094492">
<ele>1449.297852</ele>
<time>2012-05-01T13:37:24Z</time>
<desc>lat.=43.144192, lon.=19.094492, Alt.=1449.297852m. Speed=0.000000m/h.</desc>
<speed>0.000000</speed>
</trkpt>
<trkpt lat="43.144192" lon="19.094492">
<ele>1449.266602</ele>
<time>2012-05-01T13:37:29Z</time>
<desc>lat.=43.144192, lon.=19.094492, Alt.=1449.266602m. Speed=0.000000m/h.</desc>
<speed>0.000000</speed>
</trkpt>
<trkpt lat="43.144192" lon="19.094494">
<ele>1449.266602</ele>
<time>2012-05-01T13:37:34Z</time>
<desc>lat.=43.144192, lon.=19.094494, Alt.=1449.266602m. Speed=0.000000m/h.</desc>
<speed>0.000000</speed>
</trkpt>
<trkpt lat="43.144192" lon="19.094494">
<ele>1449.235352</ele>
<time>2012-05-01T13:37:39Z</time>
<desc>lat.=43.144192, lon.=19.094494, Alt.=1449.235352m. Speed=0.000000m/h.</desc>
<speed>0.000000</speed>
</trkpt>
<trkpt lat="43.144188" lon="19.094494">
<ele>1449.235352</ele>
<time>2012-05-01T13:37:44Z</time>
<desc>lat.=43.144188, lon.=19.094494, Alt.=1449.235352m. Speed=0.036000m/h.</desc>
<speed>0.010000</speed>
</trkpt>
<trkpt lat="43.144188" lon="19.094494">
<ele>1449.204102</ele>
<time>2012-05-01T13:37:49Z</time>
<desc>lat.=43.144188, lon.=19.094494, Alt.=1449.204102m. Speed=0.000000m/h.</desc>
<speed>0.000000</speed>
</trkpt>
<trkpt lat="43.144188" lon="19.094494">
<ele>1449.172852</ele>
<time>2012-05-01T13:37:54Z</time>
<desc>lat.=43.144188, lon.=19.094494, Alt.=1449.172852m. Speed=0.000000m/h.</desc>
<speed>0.000000</speed>
</trkpt>
<trkpt lat="43.144188" lon="19.094494">
<ele>1449.172852</ele>
<time>2012-05-01T13:37:59Z</time>
<desc>lat.=43.144188, lon.=19.094494, Alt.=1449.172852m. Speed=0.000000m/h.</desc>
<speed>0.000000</speed>
</trkpt>
<trkpt lat="43.144188" lon="19.094496">
<ele>1449.141602</ele>
<time>2012-05-01T13:38:04Z</time>
<desc>lat.=43.144188, lon.=19.094496, Alt.=1449.141602m. Speed=0.000000m/h.</desc>
<speed>0.000000</speed>
</trkpt>
<trkpt lat="43.144188" lon="19.094496">
<ele>1449.141602</ele>
<time>2012-05-01T13:38:09Z</time>
<desc>lat.=43.144188, lon.=19.094496, Alt.=1449.141602m. Speed=0.036000m/h.</desc>
<speed>0.010000</speed>
</trkpt>
<trkpt lat="43.144188" lon="19.094496">
<ele>1449.110352</ele>
<time>2012-05-01T13:38:14Z</time>
<desc>lat.=43.144188, lon.=19.094496, Alt.=1449.110352m. Speed=0.000000m/h.</desc>
<speed>0.000000</speed>
</trkpt>
<trkpt lat="43.144188" lon="19.094496">
<ele>1449.110352</ele>
<time>2012-05-01T13:38:19Z</time>
<desc>lat.=43.144188, lon.=19.094496, Alt.=1449.110352m. Speed=0.000000m/h.</desc>
<speed>0.000000</speed>
</trkpt>
<trkpt lat="43.144188" lon="19.094496">
<ele>1449.079102</ele>
<time>2012-05-01T13:38:24Z</time>
<desc>lat.=43.144188, lon.=19.094496, Alt.=1449.079102m. Speed=0.000000m/h.</desc>
<speed>0.000000</speed>
</trkpt>
<trkpt lat="43.144188" lon="19.094498">
<ele>1449.047852</ele>
<time>2012-05-01T13:38:29Z</time>
<desc>lat.=43.144188, lon.=19.094498, Alt.=1449.047852m. Speed=0.036000m/h.</desc>
<speed>0.010000</speed>
</trkpt>
<trkpt lat="43.144188" lon="19.094498">
<ele>1449.047852</ele>
<time>2012-05-01T13:38:34Z</time>
<desc>lat.=43.144188, lon.=19.094498, Alt.=1449.047852m. Speed=0.000000m/h.</desc>
<speed>0.000000</speed>
</trkpt>
<trkpt lat="43.144188" lon="19.094498">
<ele>1449.016602</ele>
<time>2012-05-01T13:38:39Z</time>
<desc>lat.=43.144188, lon.=19.094498, Alt.=1449.016602m. Speed=0.000000m/h.</desc>
<speed>0.000000</speed>
</trkpt>
<trkpt lat="43.144188" lon="19.094498">
<ele>1449.016602</ele>
<time>2012-05-01T13:38:44Z</time>
<desc>lat.=43.144188, lon.=19.094498, Alt.=1449.016602m. Speed=0.036000m/h.</desc>
<speed>0.010000</speed>
</trkpt>
<trkpt lat="43.144184" lon="19.094498">
<ele>1449.016602</ele>
<time>2012-05-01T13:38:49Z</time>
<desc>lat.=43.144184, lon.=19.094498, Alt.=1449.016602m. Speed=0.000000m/h.</desc>
<speed>0.000000</speed>
</trkpt>
<trkpt lat="43.144184" lon="19.094498">
<ele>1448.985352</ele>
<time>2012-05-01T13:38:54Z</time>
<desc>lat.=43.144184, lon.=19.094498, Alt.=1448.985352m. Speed=0.000000m/h.</desc>
<speed>0.000000</speed>
</trkpt>
<trkpt lat="43.144184" lon="19.094498">
<ele>1448.985352</ele>
<time>2012-05-01T13:38:59Z</time>
<desc>lat.=43.144184, lon.=19.094498, Alt.=1448.985352m. Speed=0.000000m/h.</desc>
<speed>0.000000</speed>
</trkpt>
<trkpt lat="43.144184" lon="19.094500">
<ele>1448.954102</ele>
<time>2012-05-01T13:39:04Z</time>
<desc>lat.=43.144184, lon.=19.094500, Alt.=1448.954102m. Speed=0.000000m/h.</desc>
<speed>0.000000</speed>
</trkpt>
<trkpt lat="43.144184" lon="19.094500">
<ele>1448.922852</ele>
<time>2012-05-01T13:39:09Z</time>
<desc>lat.=43.144184, lon.=19.094500, Alt.=1448.922852m. Speed=0.000000m/h.</desc>
<speed>0.000000</speed>
</trkpt>
<trkpt lat="43.144184" lon="19.094500">
<ele>1448.922852</ele>
<time>2012-05-01T13:39:14Z</time>
<desc>lat.=43.144184, lon.=19.094500, Alt.=1448.922852m. Speed=0.000000m/h.</desc>
<speed>0.000000</speed>
</trkpt>
<trkpt lat="43.144184" lon="19.094500">
<ele>1448.891602</ele>
<time>2012-05-01T13:39:19Z</time>
<desc>lat.=43.144184, lon.=19.094500, Alt.=1448.891602m. Speed=0.000000m/h.</desc>
<speed>0.000000</speed>
</trkpt>
<trkpt lat="43.144184" lon="19.094500">
<ele>1448.891602</ele>
<time>2012-05-01T13:39:24Z</time>
<desc>lat.=43.144184, lon.=19.094500, Alt.=1448.891602m. Speed=0.036000m/h.</desc>
<speed>0.010000</speed>
</trkpt>
<trkpt lat="43.144184" lon="19.094500">
<ele>1448.860352</ele>
<time>2012-05-01T13:39:29Z</time>
<desc>lat.=43.144184, lon.=19.094500, Alt.=1448.860352m. Speed=0.036000m/h.</desc>
<speed>0.010000</speed>
</trkpt>
<trkpt lat="43.144184" lon="19.094501">
<ele>1448.829102</ele>
<time>2012-05-01T13:39:34Z</time>
<desc>lat.=43.144184, lon.=19.094501, Alt.=1448.829102m. Speed=0.000000m/h.</desc>
<speed>0.000000</speed>
</trkpt>
<trkpt lat="43.144184" lon="19.094501">
<ele>1448.829102</ele>
<time>2012-05-01T13:39:39Z</time>
<desc>lat.=43.144184, lon.=19.094501, Alt.=1448.829102m. Speed=0.000000m/h.</desc>
<speed>0.000000</speed>
</trkpt>
<trkpt lat="43.144184" lon="19.094501">
<ele>1448.797852</ele>
<time>2012-05-01T13:39:44Z</time>
<desc>lat.=43.144184, lon.=19.094501, Alt.=1448.797852m. Speed=0.000000m/h.</desc>
<speed>0.000000</speed>
</trkpt>
<trkpt lat="43.144184" lon="19.094501">
<ele>1448.766602</ele>
<time>2012-05-01T13:39:49Z</time>
<desc>lat.=43.144184, lon.=19.094501, Alt.=1448.766602m. Speed=0.000000m/h.</desc>
<speed>0.000000</speed>
</trkpt>
<trkpt lat="43.144184" lon="19.094501">
<ele>1448.735352</ele>
<time>2012-05-01T13:39:54Z</time>
<desc>lat.=43.144184, lon.=19.094501, Alt.=1448.735352m. Speed=0.000000m/h.</desc>
<speed>0.000000</speed>
</trkpt>
<trkpt lat="43.144184" lon="19.094501">
<ele>1448.735352</ele>
<time>2012-05-01T13:39:59Z</time>
<desc>lat.=43.144184, lon.=19.094501, Alt.=1448.735352m. Speed=0.000000m/h.</desc>
<speed>0.000000</speed>
</trkpt>
<trkpt lat="43.144184" lon="19.094501">
<ele>1448.704102</ele>
<time>2012-05-01T13:40:04Z</time>
<desc>lat.=43.144184, lon.=19.094501, Alt.=1448.704102m. Speed=0.000000m/h.</desc>
<speed>0.000000</speed>
</trkpt>
<trkpt lat="43.144184" lon="19.094501">
<ele>1448.672852</ele>
<time>2012-05-01T13:40:09Z</time>
<desc>lat.=43.144184, lon.=19.094501, Alt.=1448.672852m. Speed=0.000000m/h.</desc>
<speed>0.000000</speed>
</trkpt>
<trkpt lat="43.144184" lon="19.094503">
<ele>1448.641602</ele>
<time>2012-05-01T13:40:14Z</time>
<desc>lat.=43.144184, lon.=19.094503, Alt.=1448.641602m. Speed=0.000000m/h.</desc>
<speed>0.000000</speed>
</trkpt>
<trkpt lat="43.144180" lon="19.094503">
<ele>1448.610352</ele>
<time>2012-05-01T13:40:19Z</time>
<desc>lat.=43.144180, lon.=19.094503, Alt.=1448.610352m. Speed=0.072000m/h.</desc>
<speed>0.020000</speed>
</trkpt>
<trkpt lat="43.144180" lon="19.094503">
<ele>1448.610352</ele>
<time>2012-05-01T13:40:24Z</time>
<desc>lat.=43.144180, lon.=19.094503, Alt.=1448.610352m. Speed=0.000000m/h.</desc>
<speed>0.000000</speed>
</trkpt>
<trkpt lat="43.144180" lon="19.094503">
<ele>1448.610352</ele>
<time>2012-05-01T13:40:29Z</time>
<desc>lat.=43.144180, lon.=19.094503, Alt.=1448.610352m. Speed=0.036000m/h.</desc>
<speed>0.010000</speed>
</trkpt>
<trkpt lat="43.144180" lon="19.094503">
<ele>1448.579102</ele>
<time>2012-05-01T13:40:34Z</time>
<desc>lat.=43.144180, lon.=19.094503, Alt.=1448.579102m. Speed=0.000000m/h.</desc>
<speed>0.000000</speed>
</trkpt>
<trkpt lat="43.144180" lon="19.094505">
<ele>1448.547852</ele>
<time>2012-05-01T13:40:39Z</time>
<desc>lat.=43.144180, lon.=19.094505, Alt.=1448.547852m. Speed=0.000000m/h.</desc>
<speed>0.000000</speed>
</trkpt>
<trkpt lat="43.144180" lon="19.094505">
<ele>1448.547852</ele>
<time>2012-05-01T13:40:44Z</time>
<desc>lat.=43.144180, lon.=19.094505, Alt.=1448.547852m. Speed=0.036000m/h.</desc>
<speed>0.010000</speed>
</trkpt>
<trkpt lat="43.144180" lon="19.094505">
<ele>1448.516602</ele>
<time>2012-05-01T13:40:49Z</time>
<desc>lat.=43.144180, lon.=19.094505, Alt.=1448.516602m. Speed=0.036000m/h.</desc>
<speed>0.010000</speed>
</trkpt>
<trkpt lat="43.144180" lon="19.094505">
<ele>1448.485352</ele>
<time>2012-05-01T13:40:54Z</time>
<desc>lat.=43.144180, lon.=19.094505, Alt.=1448.485352m. Speed=0.000000m/h.</desc>
<speed>0.000000</speed>
</trkpt>
<trkpt lat="43.144180" lon="19.094505">
<ele>1448.422852</ele>
<time>2012-05-01T13:40:59Z</time>
<desc>lat.=43.144180, lon.=19.094505, Alt.=1448.422852m. Speed=0.000000m/h.</desc>
<speed>0.000000</speed>
</trkpt>
<trkpt lat="43.144180" lon="19.094505">
<ele>1448.391602</ele>
<time>2012-05-01T13:41:04Z</time>
<desc>lat.=43.144180, lon.=19.094505, Alt.=1448.391602m. Speed=0.000000m/h.</desc>
<speed>0.000000</speed>
</trkpt>
<trkpt lat="43.144180" lon="19.094505">
<ele>1448.360352</ele>
<time>2012-05-01T13:41:09Z</time>
<desc>lat.=43.144180, lon.=19.094505, Alt.=1448.360352m. Speed=0.000000m/h.</desc>
<speed>0.000000</speed>
</trkpt>
<trkpt lat="43.144180" lon="19.094505">
<ele>1448.360352</ele>
<time>2012-05-01T13:41:14Z</time>
<desc>lat.=43.144180, lon.=19.094505, Alt.=1448.360352m. Speed=0.036000m/h.</desc>
<speed>0.010000</speed>
</trkpt>
<trkpt lat="43.144180" lon="19.094505">
<ele>1448.329102</ele>
<time>2012-05-01T13:41:19Z</time>
<desc>lat.=43.144180, lon.=19.094505, Alt.=1448.329102m. Speed=0.000000m/h.</desc>
<speed>0.000000</speed>
</trkpt>
<trkpt lat="43.144180" lon="19.094505">
<ele>1448.297852</ele>
<time>2012-05-01T13:41:24Z</time>
<desc>lat.=43.144180, lon.=19.094505, Alt.=1448.297852m. Speed=0.000000m/h.</desc>
<speed>0.000000</speed>
</trkpt>
<trkpt lat="43.144176" lon="19.094507">
<ele>1448.297852</ele>
<time>2012-05-01T13:41:29Z</time>
<desc>lat.=43.144176, lon.=19.094507, Alt.=1448.297852m. Speed=0.000000m/h.</desc>
<speed>0.000000</speed>
</trkpt>
<trkpt lat="43.144176" lon="19.094507">
<ele>1448.266602</ele>
<time>2012-05-01T13:41:34Z</time>
<desc>lat.=43.144176, lon.=19.094507, Alt.=1448.266602m. Speed=0.000000m/h.</desc>
<speed>0.000000</speed>
</trkpt>
<trkpt lat="43.144176" lon="19.094507">
<ele>1448.235352</ele>
<time>2012-05-01T13:41:39Z</time>
<desc>lat.=43.144176, lon.=19.094507, Alt.=1448.235352m. Speed=0.000000m/h.</desc>
<speed>0.000000</speed>
</trkpt>
<trkpt lat="43.144176" lon="19.094507">
<ele>1448.204102</ele>
<time>2012-05-01T13:41:44Z</time>
<desc>lat.=43.144176, lon.=19.094507, Alt.=1448.204102m. Speed=0.000000m/h.</desc>
<speed>0.000000</speed>
</trkpt>
<trkpt lat="43.144176" lon="19.094507">
<ele>1448.172852</ele>
<time>2012-05-01T13:41:49Z</time>
<desc>lat.=43.144176, lon.=19.094507, Alt.=1448.172852m. Speed=0.000000m/h.</desc>
<speed>0.000000</speed>
</trkpt>
<trkpt lat="43.144176" lon="19.094507">
<ele>1448.172852</ele>
<time>2012-05-01T13:41:54Z</time>
<desc>lat.=43.144176, lon.=19.094507, Alt.=1448.172852m. Speed=0.000000m/h.</desc>
<speed>0.000000</speed>
</trkpt>
<trkpt lat="43.144176" lon="19.094507">
<ele>1448.141602</ele>
<time>2012-05-01T13:41:59Z</time>
<desc>lat.=43.144176, lon.=19.094507, Alt.=1448.141602m. Speed=0.000000m/h.</desc>
<speed>0.000000</speed>
</trkpt>
<trkpt lat="43.144176" lon="19.094507">
<ele>1448.110352</ele>
<time>2012-05-01T13:42:04Z</time>
<desc>lat.=43.144176, lon.=19.094507, Alt.=1448.110352m. Speed=0.000000m/h.</desc>
<speed>0.000000</speed>
</trkpt>
<trkpt lat="43.144176" lon="19.094509">
<ele>1448.079102</ele>
<time>2012-05-01T13:42:09Z</time>
<desc>lat.=43.144176, lon.=19.094509, Alt.=1448.079102m. Speed=0.000000m/h.</desc>
<speed>0.000000</speed>
</trkpt>
<trkpt lat="43.144176" lon="19.094509">
<ele>1448.079102</ele>
<time>2012-05-01T13:42:14Z</time>
<desc>lat.=43.144176, lon.=19.094509, Alt.=1448.079102m. Speed=0.036000m/h.</desc>
<speed>0.010000</speed>
</trkpt>
<trkpt lat="43.144176" lon="19.094509">
<ele>1448.079102</ele>
<time>2012-05-01T13:42:19Z</time>
<desc>lat.=43.144176, lon.=19.094509, Alt.=1448.079102m. Speed=0.000000m/h.</desc>
<speed>0.000000</speed>
</trkpt>
<trkpt lat="43.144176" lon="19.094509">
<ele>1448.079102</ele>
<time>2012-05-01T13:42:24Z</time>
<desc>lat.=43.144176, lon.=19.094509, Alt.=1448.079102m. Speed=0.000000m/h.</desc>
<speed>0.000000</speed>
</trkpt>
<trkpt lat="43.144176" lon="19.094509">
<ele>1448.047852</ele>
<time>2012-05-01T13:42:29Z</time>
<desc>lat.=43.144176, lon.=19.094509, Alt.=1448.047852m. Speed=0.036000m/h.</desc>
<speed>0.010000</speed>
</trkpt>
<trkpt lat="43.144176" lon="19.094509">
<ele>1448.016602</ele>
<time>2012-05-01T13:42:34Z</time>
<desc>lat.=43.144176, lon.=19.094509, Alt.=1448.016602m. Speed=0.036000m/h.</desc>
<speed>0.010000</speed>
</trkpt>
<trkpt lat="43.144173" lon="19.094509">
<ele>1447.985352</ele>
<time>2012-05-01T13:42:39Z</time>
<desc>lat.=43.144173, lon.=19.094509, Alt.=1447.985352m. Speed=0.000000m/h.</desc>
<speed>0.000000</speed>
</trkpt>
<trkpt lat="43.144173" lon="19.094509">
<ele>1447.985352</ele>
<time>2012-05-01T13:42:44Z</time>
<desc>lat.=43.144173, lon.=19.094509, Alt.=1447.985352m. Speed=0.000000m/h.</desc>
<speed>0.000000</speed>
</trkpt>
<trkpt lat="43.144173" lon="19.094509">
<ele>1447.954102</ele>
<time>2012-05-01T13:42:49Z</time>
<desc>lat.=43.144173, lon.=19.094509, Alt.=1447.954102m. Speed=0.000000m/h.</desc>
<speed>0.000000</speed>
</trkpt>
<trkpt lat="43.144173" lon="19.094511">
<ele>1447.922852</ele>
<time>2012-05-01T13:42:54Z</time>
<desc>lat.=43.144173, lon.=19.094511, Alt.=1447.922852m. Speed=0.000000m/h.</desc>
<speed>0.000000</speed>
</trkpt>
<trkpt lat="43.144173" lon="19.094511">
<ele>1447.922852</ele>
<time>2012-05-01T13:42:59Z</time>
<desc>lat.=43.144173, lon.=19.094511, Alt.=1447.922852m. Speed=0.036000m/h.</desc>
<speed>0.010000</speed>
</trkpt>
<trkpt lat="43.144173" lon="19.094511">
<ele>1447.891602</ele>
<time>2012-05-01T13:43:04Z</time>
<desc>lat.=43.144173, lon.=19.094511, Alt.=1447.891602m. Speed=0.000000m/h.</desc>
<speed>0.000000</speed>
</trkpt>
<trkpt lat="43.144173" lon="19.094511">
<ele>1447.860352</ele>
<time>2012-05-01T13:43:09Z</time>
<desc>lat.=43.144173, lon.=19.094511, Alt.=1447.860352m. Speed=0.000000m/h.</desc>
<speed>0.000000</speed>
</trkpt>
<trkpt lat="43.144173" lon="19.094511">
<ele>1447.829102</ele>
<time>2012-05-01T13:43:14Z</time>
<desc>lat.=43.144173, lon.=19.094511, Alt.=1447.829102m. Speed=0.000000m/h.</desc>
<speed>0.000000</speed>
</trkpt>
<trkpt lat="43.144173" lon="19.094511">
<ele>1447.829102</ele>
<time>2012-05-01T13:43:19Z</time>
<desc>lat.=43.144173, lon.=19.094511, Alt.=1447.829102m. Speed=0.000000m/h.</desc>
<speed>0.000000</speed>
</trkpt>
<trkpt lat="43.144173" lon="19.094511">
<ele>1447.797852</ele>
<time>2012-05-01T13:43:24Z</time>
<desc>lat.=43.144173, lon.=19.094511, Alt.=1447.797852m. Speed=0.000000m/h.</desc>
<speed>0.000000</speed>
</trkpt>
<trkpt lat="43.144173" lon="19.094513">
<ele>1447.766602</ele>
<time>2012-05-01T13:43:29Z</time>
<desc>lat.=43.144173, lon.=19.094513, Alt.=1447.766602m. Speed=0.000000m/h.</desc>
<speed>0.000000</speed>
</trkpt>
<trkpt lat="43.144173" lon="19.094513">
<ele>1447.766602</ele>
<time>2012-05-01T13:43:34Z</time>
<desc>lat.=43.144173, lon.=19.094513, Alt.=1447.766602m. Speed=0.000000m/h.</desc>
<speed>0.000000</speed>
</trkpt>
<trkpt lat="43.144173" lon="19.094513">
<ele>1447.735352</ele>
<time>2012-05-01T13:43:39Z</time>
<desc>lat.=43.144173, lon.=19.094513, Alt.=1447.735352m. Speed=0.036000m/h.</desc>
<speed>0.010000</speed>
</trkpt>
<trkpt lat="43.144173" lon="19.094513">
<ele>1447.704102</ele>
<time>2012-05-01T13:43:44Z</time>
<desc>lat.=43.144173, lon.=19.094513, Alt.=1447.704102m. Speed=0.036000m/h.</desc>
<speed>0.010000</speed>
</trkpt>
<trkpt lat="43.144173" lon="19.094513">
<ele>1447.704102</ele>
<time>2012-05-01T13:43:49Z</time>
<desc>lat.=43.144173, lon.=19.094513, Alt.=1447.704102m. Speed=0.036000m/h.</desc>
<speed>0.010000</speed>
</trkpt>
<trkpt lat="43.144173" lon="19.094515">
<ele>1447.672852</ele>
<time>2012-05-01T13:43:54Z</time>
<desc>lat.=43.144173, lon.=19.094515, Alt.=1447.672852m. Speed=0.000000m/h.</desc>
<speed>0.000000</speed>
</trkpt>
<trkpt lat="43.144173" lon="19.094515">
<ele>1447.672852</ele>
<time>2012-05-01T13:43:59Z</time>
<desc>lat.=43.144173, lon.=19.094515, Alt.=1447.672852m. Speed=0.000000m/h.</desc>
<speed>0.000000</speed>
</trkpt>
<trkpt lat="43.144169" lon="19.094515">
<ele>1447.641602</ele>
<time>2012-05-01T13:44:04Z</time>
<desc>lat.=43.144169, lon.=19.094515, Alt.=1447.641602m. Speed=0.000000m/h.</desc>
<speed>0.000000</speed>
</trkpt>
<trkpt lat="43.144169" lon="19.094515">
<ele>1447.610352</ele>
<time>2012-05-01T13:44:09Z</time>
<desc>lat.=43.144169, lon.=19.094515, Alt.=1447.610352m. Speed=0.000000m/h.</desc>
<speed>0.000000</speed>
</trkpt>
<trkpt lat="43.144169" lon="19.094515">
<ele>1447.579102</ele>
<time>2012-05-01T13:44:14Z</time>
<desc>lat.=43.144169, lon.=19.094515, Alt.=1447.579102m. Speed=0.000000m/h.</desc>
<speed>0.000000</speed>
</trkpt>
<trkpt lat="43.144169" lon="19.094515">
<ele>1447.547852</ele>
<time>2012-05-01T13:44:19Z</time>
<desc>lat.=43.144169, lon.=19.094515, Alt.=1447.547852m. Speed=0.000000m/h.</desc>
<speed>0.000000</speed>
</trkpt>
<trkpt lat="43.144169" lon="19.094515">
<ele>1447.516602</ele>
<time>2012-05-01T13:44:24Z</time>
<desc>lat.=43.144169, lon.=19.094515, Alt.=1447.516602m. Speed=0.000000m/h.</desc>
<speed>0.000000</speed>
</trkpt>
<trkpt lat="43.144169" lon="19.094515">
<ele>1447.485352</ele>
<time>2012-05-01T13:44:29Z</time>
<desc>lat.=43.144169, lon.=19.094515, Alt.=1447.485352m. Speed=0.000000m/h.</desc>
<speed>0.000000</speed>
</trkpt>
<trkpt lat="43.144169" lon="19.094515">
<ele>1447.454102</ele>
<time>2012-05-01T13:44:34Z</time>
<desc>lat.=43.144169, lon.=19.094515, Alt.=1447.454102m. Speed=0.000000m/h.</desc>
<speed>0.000000</speed>
</trkpt>
<trkpt lat="43.144169" lon="19.094515">
<ele>1447.454102</ele>
<time>2012-05-01T13:44:39Z</time>
<desc>lat.=43.144169, lon.=19.094515, Alt.=1447.454102m. Speed=0.000000m/h.</desc>
<speed>0.000000</speed>
</trkpt>
<trkpt lat="43.144169" lon="19.094517">
<ele>1447.422852</ele>
<time>2012-05-01T13:44:44Z</time>
<desc>lat.=43.144169, lon.=19.094517, Alt.=1447.422852m. Speed=0.000000m/h.</desc>
<speed>0.000000</speed>
</trkpt>
<trkpt lat="43.144169" lon="19.094517">
<ele>1447.391602</ele>
<time>2012-05-01T13:44:49Z</time>
<desc>lat.=43.144169, lon.=19.094517, Alt.=1447.391602m. Speed=0.000000m/h.</desc>
<speed>0.000000</speed>
</trkpt>
<trkpt lat="43.144169" lon="19.094517">
<ele>1447.360352</ele>
<time>2012-05-01T13:44:54Z</time>
<desc>lat.=43.144169, lon.=19.094517, Alt.=1447.360352m. Speed=0.000000m/h.</desc>
<speed>0.000000</speed>
</trkpt>
<trkpt lat="43.144169" lon="19.094517">
<ele>1447.360352</ele>
<time>2012-05-01T13:44:59Z</time>
<desc>lat.=43.144169, lon.=19.094517, Alt.=1447.360352m. Speed=0.000000m/h.</desc>
<speed>0.000000</speed>
</trkpt>
<trkpt lat="43.144169" lon="19.094517">
<ele>1447.329102</ele>
<time>2012-05-01T13:45:04Z</time>
<desc>lat.=43.144169, lon.=19.094517, Alt.=1447.329102m. Speed=0.000000m/h.</desc>
<speed>0.000000</speed>
</trkpt>
<trkpt lat="43.144169" lon="19.094517">
<ele>1447.297852</ele>
<time>2012-05-01T13:45:09Z</time>
<desc>lat.=43.144169, lon.=19.094517, Alt.=1447.297852m. Speed=0.108000m/h.</desc>
<speed>0.030000</speed>
</trkpt>
<trkpt lat="43.144169" lon="19.094517">
<ele>1447.297852</ele>
<time>2012-05-01T13:45:14Z</time>
<desc>lat.=43.144169, lon.=19.094517, Alt.=1447.297852m. Speed=0.000000m/h.</desc>
<speed>0.000000</speed>
</trkpt>
<trkpt lat="43.144169" lon="19.094519">
<ele>1447.297852</ele>
<time>2012-05-01T13:45:19Z</time>
<desc>lat.=43.144169, lon.=19.094519, Alt.=1447.297852m. Speed=0.000000m/h.</desc>
<speed>0.000000</speed>
</trkpt>
<trkpt lat="43.144169" lon="19.094519">
<ele>1447.266602</ele>
<time>2012-05-01T13:45:24Z</time>
<desc>lat.=43.144169, lon.=19.094519, Alt.=1447.266602m. Speed=0.000000m/h.</desc>
<speed>0.000000</speed>
</trkpt>
<trkpt lat="43.144169" lon="19.094519">
<ele>1447.235352</ele>
<time>2012-05-01T13:45:29Z</time>
<desc>lat.=43.144169, lon.=19.094519, Alt.=1447.235352m. Speed=0.000000m/h.</desc>
<speed>0.000000</speed>
</trkpt>
<trkpt lat="43.144169" lon="19.094519">
<ele>1447.235352</ele>
<time>2012-05-01T13:45:34Z</time>
<desc>lat.=43.144169, lon.=19.094519, Alt.=1447.235352m. Speed=0.000000m/h.</desc>
<speed>0.000000</speed>
</trkpt>
<trkpt lat="43.144169" lon="19.094519">
<ele>1447.204102</ele>
<time>2012-05-01T13:45:39Z</time>
<desc>lat.=43.144169, lon.=19.094519, Alt.=1447.204102m. Speed=0.000000m/h.</desc>
<speed>0.000000</speed>
</trkpt>
<trkpt lat="43.144169" lon="19.094519">
<ele>1447.172852</ele>
<time>2012-05-01T13:45:44Z</time>
<desc>lat.=43.144169, lon.=19.094519, Alt.=1447.172852m. Speed=0.000000m/h.</desc>
<speed>0.000000</speed>
</trkpt>
<trkpt lat="43.144165" lon="19.094519">
<ele>1447.172852</ele>
<time>2012-05-01T13:45:49Z</time>
<desc>lat.=43.144165, lon.=19.094519, Alt.=1447.172852m. Speed=0.000000m/h.</desc>
<speed>0.000000</speed>
</trkpt>
<trkpt lat="43.144165" lon="19.094519">
<ele>1447.172852</ele>
<time>2012-05-01T13:45:54Z</time>
<desc>lat.=43.144165, lon.=19.094519, Alt.=1447.172852m. Speed=0.000000m/h.</desc>
<speed>0.000000</speed>
</trkpt>
<trkpt lat="43.144165" lon="19.094519">
<ele>1447.141602</ele>
<time>2012-05-01T13:45:59Z</time>
<desc>lat.=43.144165, lon.=19.094519, Alt.=1447.141602m. Speed=0.000000m/h.</desc>
<speed>0.000000</speed>
</trkpt>
<trkpt lat="43.144165" lon="19.094519">
<ele>1447.079102</ele>
<time>2012-05-01T13:46:04Z</time>
<desc>lat.=43.144165, lon.=19.094519, Alt.=1447.079102m. Speed=0.000000m/h.</desc>
<speed>0.000000</speed>
</trkpt>
<trkpt lat="43.144165" lon="19.094521">
<ele>1447.079102</ele>
<time>2012-05-01T13:46:09Z</time>
<desc>lat.=43.144165, lon.=19.094521, Alt.=1447.079102m. Speed=0.000000m/h.</desc>
<speed>0.000000</speed>
</trkpt>
<trkpt lat="43.144165" lon="19.094521">
<ele>1447.079102</ele>
<time>2012-05-01T13:46:14Z</time>
<desc>lat.=43.144165, lon.=19.094521, Alt.=1447.079102m. Speed=0.000000m/h.</desc>
<speed>0.000000</speed>
</trkpt>
<trkpt lat="43.144165" lon="19.094521">
<ele>1447.079102</ele>
<time>2012-05-01T13:46:19Z</time>
<desc>lat.=43.144165, lon.=19.094521, Alt.=1447.079102m. Speed=0.036000m/h.</desc>
<speed>0.010000</speed>
</trkpt>
<trkpt lat="43.144165" lon="19.094521">
<ele>1447.079102</ele>
<time>2012-05-01T13:46:24Z</time>
<desc>lat.=43.144165, lon.=19.094521, Alt.=1447.079102m. Speed=0.036000m/h.</desc>
<speed>0.010000</speed>
</trkpt>
<trkpt lat="43.144161" lon="19.094521">
<ele>1447.079102</ele>
<time>2012-05-01T13:46:29Z</time>
<desc>lat.=43.144161, lon.=19.094521, Alt.=1447.079102m. Speed=0.000000m/h.</desc>
<speed>0.000000</speed>
</trkpt>
<trkpt lat="43.144161" lon="19.094521">
<ele>1447.079102</ele>
<time>2012-05-01T13:46:34Z</time>
<desc>lat.=43.144161, lon.=19.094521, Alt.=1447.079102m. Speed=0.000000m/h.</desc>
<speed>0.000000</speed>
</trkpt>
<trkpt lat="43.144161" lon="19.094521">
<ele>1447.047852</ele>
<time>2012-05-01T13:46:39Z</time>
<desc>lat.=43.144161, lon.=19.094521, Alt.=1447.047852m. Speed=0.036000m/h.</desc>
<speed>0.010000</speed>
</trkpt>
<trkpt lat="43.144161" lon="19.094521">
<ele>1447.047852</ele>
<time>2012-05-01T13:46:44Z</time>
<desc>lat.=43.144161, lon.=19.094521, Alt.=1447.047852m. Speed=0.000000m/h.</desc>
<speed>0.000000</speed>
</trkpt>
<trkpt lat="43.144161" lon="19.094521">
<ele>1447.016602</ele>
<time>2012-05-01T13:46:49Z</time>
<desc>lat.=43.144161, lon.=19.094521, Alt.=1447.016602m. Speed=0.000000m/h.</desc>
<speed>0.000000</speed>
</trkpt>
<trkpt lat="43.144161" lon="19.094521">
<ele>1446.954102</ele>
<time>2012-05-01T13:46:54Z</time>
<desc>lat.=43.144161, lon.=19.094521, Alt.=1446.954102m. Speed=0.000000m/h.</desc>
<speed>0.000000</speed>
</trkpt>
<trkpt lat="43.144161" lon="19.094521">
<ele>1446.954102</ele>
<time>2012-05-01T13:46:59Z</time>
<desc>lat.=43.144161, lon.=19.094521, Alt.=1446.954102m. Speed=0.000000m/h.</desc>
<speed>0.000000</speed>
</trkpt>
<trkpt lat="43.144161" lon="19.094522">
<ele>1446.954102</ele>
<time>2012-05-01T13:47:04Z</time>
<desc>lat.=43.144161, lon.=19.094522, Alt.=1446.954102m. Speed=0.000000m/h.</desc>
<speed>0.000000</speed>
</trkpt>
<trkpt lat="43.144161" lon="19.094522">
<ele>1446.922852</ele>
<time>2012-05-01T13:47:09Z</time>
<desc>lat.=43.144161, lon.=19.094522, Alt.=1446.922852m. Speed=0.036000m/h.</desc>
<speed>0.010000</speed>
</trkpt>
<trkpt lat="43.144161" lon="19.094522">
<ele>1446.891602</ele>
<time>2012-05-01T13:47:14Z</time>
<desc>lat.=43.144161, lon.=19.094522, Alt.=1446.891602m. Speed=0.036000m/h.</desc>
<speed>0.010000</speed>
</trkpt>
<trkpt lat="43.144161" lon="19.094522">
<ele>1446.891602</ele>
<time>2012-05-01T13:47:19Z</time>
<desc>lat.=43.144161, lon.=19.094522, Alt.=1446.891602m. Speed=0.036000m/h.</desc>
<speed>0.010000</speed>
</trkpt>
<trkpt lat="43.144161" lon="19.094522">
<ele>1446.860352</ele>
<time>2012-05-01T13:47:24Z</time>
<desc>lat.=43.144161, lon.=19.094522, Alt.=1446.860352m. Speed=0.000000m/h.</desc>
<speed>0.000000</speed>
</trkpt>
<trkpt lat="43.144161" lon="19.094522">
<ele>1446.829102</ele>
<time>2012-05-01T13:47:29Z</time>
<desc>lat.=43.144161, lon.=19.094522, Alt.=1446.829102m. Speed=0.036000m/h.</desc>
<speed>0.010000</speed>
</trkpt>
<trkpt lat="43.144161" lon="19.094522">
<ele>1446.797852</ele>
<time>2012-05-01T13:47:34Z</time>
<desc>lat.=43.144161, lon.=19.094522, Alt.=1446.797852m. Speed=0.036000m/h.</desc>
<speed>0.010000</speed>
</trkpt>
<trkpt lat="43.144161" lon="19.094522">
<ele>1446.797852</ele>
<time>2012-05-01T13:47:39Z</time>
<desc>lat.=43.144161, lon.=19.094522, Alt.=1446.797852m. Speed=0.000000m/h.</desc>
<speed>0.000000</speed>
</trkpt>
<trkpt lat="43.144161" lon="19.094524">
<ele>1446.766602</ele>
<time>2012-05-01T13:47:44Z</time>
<desc>lat.=43.144161, lon.=19.094524, Alt.=1446.766602m. Speed=0.000000m/h.</desc>
<speed>0.000000</speed>
</trkpt>
<trkpt lat="43.144161" lon="19.094524">
<ele>1446.735352</ele>
<time>2012-05-01T13:47:49Z</time>
<desc>lat.=43.144161, lon.=19.094524, Alt.=1446.735352m. Speed=0.000000m/h.</desc>
<speed>0.000000</speed>
</trkpt>
<trkpt lat="43.144157" lon="19.094524">
<ele>1446.735352</ele>
<time>2012-05-01T13:47:54Z</time>
<desc>lat.=43.144157, lon.=19.094524, Alt.=1446.735352m. Speed=0.000000m/h.</desc>
<speed>0.000000</speed>
</trkpt>
<trkpt lat="43.144157" lon="19.094524">
<ele>1446.704102</ele>
<time>2012-05-01T13:47:59Z</time>
<desc>lat.=43.144157, lon.=19.094524, Alt.=1446.704102m. Speed=0.000000m/h.</desc>
<speed>0.000000</speed>
</trkpt>
<trkpt lat="43.144157" lon="19.094524">
<ele>1446.704102</ele>
<time>2012-05-01T13:48:04Z</time>
<desc>lat.=43.144157, lon.=19.094524, Alt.=1446.704102m. Speed=0.000000m/h.</desc>
<speed>0.000000</speed>
</trkpt>
<trkpt lat="43.144157" lon="19.094524">
<ele>1446.704102</ele>
<time>2012-05-01T13:48:09Z</time>
<desc>lat.=43.144157, lon.=19.094524, Alt.=1446.704102m. Speed=0.072000m/h.</desc>
<speed>0.020000</speed>
</trkpt>
<trkpt lat="43.144157" lon="19.094524">
<ele>1446.704102</ele>
<time>2012-05-01T13:48:14Z</time>
<desc>lat.=43.144157, lon.=19.094524, Alt.=1446.704102m. Speed=0.036000m/h.</desc>
<speed>0.010000</speed>
</trkpt>
<trkpt lat="43.144157" lon="19.094526">
<ele>1446.704102</ele>
<time>2012-05-01T13:48:19Z</time>
<desc>lat.=43.144157, lon.=19.094526, Alt.=1446.704102m. Speed=0.036000m/h.</desc>
<speed>0.010000</speed>
</trkpt>
<trkpt lat="43.144157" lon="19.094526">
<ele>1446.704102</ele>
<time>2012-05-01T13:48:24Z</time>
<desc>lat.=43.144157, lon.=19.094526, Alt.=1446.704102m. Speed=0.000000m/h.</desc>
<speed>0.000000</speed>
</trkpt>
<trkpt lat="43.144157" lon="19.094526">
<ele>1446.672852</ele>
<time>2012-05-01T13:48:29Z</time>
<desc>lat.=43.144157, lon.=19.094526, Alt.=1446.672852m. Speed=0.000000m/h.</desc>
<speed>0.000000</speed>
</trkpt>
<trkpt lat="43.144157" lon="19.094526">
<ele>1446.672852</ele>
<time>2012-05-01T13:48:34Z</time>
<desc>lat.=43.144157, lon.=19.094526, Alt.=1446.672852m. Speed=0.000000m/h.</desc>
<speed>0.000000</speed>
</trkpt>
<trkpt lat="43.144157" lon="19.094526">
<ele>1446.641602</ele>
<time>2012-05-01T13:48:39Z</time>
<desc>lat.=43.144157, lon.=19.094526, Alt.=1446.641602m. Speed=0.000000m/h.</desc>
<speed>0.000000</speed>
</trkpt>
<trkpt lat="43.144157" lon="19.094528">
<ele>1446.641602</ele>
<time>2012-05-01T13:48:44Z</time>
<desc>lat.=43.144157, lon.=19.094528, Alt.=1446.641602m. Speed=0.072000m/h.</desc>
<speed>0.020000</speed>
</trkpt>
<trkpt lat="43.144157" lon="19.094528">
<ele>1446.610352</ele>
<time>2012-05-01T13:48:49Z</time>
<desc>lat.=43.144157, lon.=19.094528, Alt.=1446.610352m. Speed=0.000000m/h.</desc>
<speed>0.000000</speed>
</trkpt>
<trkpt lat="43.144157" lon="19.094528">
<ele>1446.610352</ele>
<time>2012-05-01T13:48:54Z</time>
<desc>lat.=43.144157, lon.=19.094528, Alt.=1446.610352m. Speed=0.108000m/h.</desc>
<speed>0.030000</speed>
</trkpt>
<trkpt lat="43.144157" lon="19.094528">
<ele>1446.610352</ele>
<time>2012-05-01T13:48:59Z</time>
<desc>lat.=43.144157, lon.=19.094528, Alt.=1446.610352m. Speed=0.072000m/h.</desc>
<speed>0.020000</speed>
</trkpt>
<trkpt lat="43.144157" lon="19.094528">
<ele>1446.579102</ele>
<time>2012-05-01T13:49:04Z</time>
<desc>lat.=43.144157, lon.=19.094528, Alt.=1446.579102m. Speed=0.072000m/h.</desc>
<speed>0.020000</speed>
</trkpt>
<trkpt lat="43.144154" lon="19.094524">
<ele>1446.485352</ele>
<time>2012-05-01T13:49:09Z</time>
<desc>lat.=43.144154, lon.=19.094524, Alt.=1446.485352m. Speed=0.036000m/h.</desc>
<speed>0.010000</speed>
</trkpt>
<trkpt lat="43.144138" lon="19.094517">
<ele>1446.172852</ele>
<time>2012-05-01T13:49:14Z</time>
<desc>lat.=43.144138, lon.=19.094517, Alt.=1446.172852m. Speed=1.080000m/h.</desc>
<speed>0.300000</speed>
</trkpt>
<trkpt lat="43.144112" lon="19.094616">
<ele>1445.704102</ele>
<time>2012-05-01T13:49:19Z</time>
<desc>lat.=43.144112, lon.=19.094616, Alt.=1445.704102m. Speed=10.404000m/h.</desc>
<speed>2.890000</speed>
</trkpt>
<trkpt lat="43.144024" lon="19.094797">
<ele>1442.422852</ele>
<time>2012-05-01T13:49:24Z</time>
<desc>lat.=43.144024, lon.=19.094797, Alt.=1442.422852m. Speed=12.024000m/h.</desc>
<speed>3.340000</speed>
</trkpt>
<trkpt lat="43.143925" lon="19.095001">
<ele>1439.829102</ele>
<time>2012-05-01T13:49:29Z</time>
<desc>lat.=43.143925, lon.=19.095001, Alt.=1439.829102m. Speed=13.356000m/h.</desc>
<speed>3.710000</speed>
</trkpt>
<trkpt lat="43.143867" lon="19.095140">
<ele>1437.610352</ele>
<time>2012-05-01T13:49:34Z</time>
<desc>lat.=43.143867, lon.=19.095140, Alt.=1437.610352m. Speed=6.228000m/h.</desc>
<speed>1.730000</speed>
</trkpt>
<trkpt lat="43.143864" lon="19.095276">
<ele>1436.547852</ele>
<time>2012-05-01T13:49:39Z</time>
<desc>lat.=43.143864, lon.=19.095276, Alt.=1436.547852m. Speed=9.828000m/h.</desc>
<speed>2.730000</speed>
</trkpt>
<trkpt lat="43.143841" lon="19.095377">
<ele>1435.360352</ele>
<time>2012-05-01T13:49:44Z</time>
<desc>lat.=43.143841, lon.=19.095377, Alt.=1435.360352m. Speed=5.688000m/h.</desc>
<speed>1.580000</speed>
</trkpt>
<trkpt lat="43.143822" lon="19.095512">
<ele>1434.985352</ele>
<time>2012-05-01T13:49:49Z</time>
<desc>lat.=43.143822, lon.=19.095512, Alt.=1434.985352m. Speed=9.432000m/h.</desc>
<speed>2.620000</speed>
</trkpt>
<trkpt lat="43.143795" lon="19.095638">
<ele>1434.297852</ele>
<time>2012-05-01T13:49:54Z</time>
<desc>lat.=43.143795, lon.=19.095638, Alt.=1434.297852m. Speed=7.848000m/h.</desc>
<speed>2.180000</speed>
</trkpt>
<trkpt lat="43.143818" lon="19.095751">
<ele>1436.485352</ele>
<time>2012-05-01T13:49:59Z</time>
<desc>lat.=43.143818, lon.=19.095751, Alt.=1436.485352m. Speed=7.812000m/h.</desc>
<speed>2.170000</speed>
</trkpt>
<trkpt lat="43.143871" lon="19.095896">
<ele>1436.235352</ele>
<time>2012-05-01T13:50:04Z</time>
<desc>lat.=43.143871, lon.=19.095896, Alt.=1436.235352m. Speed=7.524000m/h.</desc>
<speed>2.090000</speed>
</trkpt>
<trkpt lat="43.143875" lon="19.096003">
<ele>1436.141602</ele>
<time>2012-05-01T13:50:09Z</time>
<desc>lat.=43.143875, lon.=19.096003, Alt.=1436.141602m. Speed=6.948000m/h.</desc>
<speed>1.930000</speed>
</trkpt>
<trkpt lat="43.143875" lon="19.096077">
<ele>1436.266602</ele>
<time>2012-05-01T13:50:14Z</time>
<desc>lat.=43.143875, lon.=19.096077, Alt.=1436.266602m. Speed=1.872000m/h.</desc>
<speed>0.520000</speed>
</trkpt>
<trkpt lat="43.143887" lon="19.096121">
<ele>1436.829102</ele>
<time>2012-05-01T13:50:19Z</time>
<desc>lat.=43.143887, lon.=19.096121, Alt.=1436.829102m. Speed=4.032000m/h.</desc>
<speed>1.120000</speed>
</trkpt>
<trkpt lat="43.143879" lon="19.096188">
<ele>1437.172852</ele>
<time>2012-05-01T13:50:24Z</time>
<desc>lat.=43.143879, lon.=19.096188, Alt.=1437.172852m. Speed=4.032000m/h.</desc>
<speed>1.120000</speed>
</trkpt>
<trkpt lat="43.143902" lon="19.096214">
<ele>1436.110352</ele>
<time>2012-05-01T13:50:29Z</time>
<desc>lat.=43.143902, lon.=19.096214, Alt.=1436.110352m. Speed=3.312000m/h.</desc>
<speed>0.920000</speed>
</trkpt>
<trkpt lat="43.143894" lon="19.096285">
<ele>1436.204102</ele>
<time>2012-05-01T13:50:34Z</time>
<desc>lat.=43.143894, lon.=19.096285, Alt.=1436.204102m. Speed=3.564000m/h.</desc>
<speed>0.990000</speed>
</trkpt>
<trkpt lat="43.143898" lon="19.096386">
<ele>1437.079102</ele>
<time>2012-05-01T13:50:39Z</time>
<desc>lat.=43.143898, lon.=19.096386, Alt.=1437.079102m. Speed=7.344000m/h.</desc>
<speed>2.040000</speed>
</trkpt>
<trkpt lat="43.143940" lon="19.096476">
<ele>1438.204102</ele>
<time>2012-05-01T13:50:44Z</time>
<desc>lat.=43.143940, lon.=19.096476, Alt.=1438.204102m. Speed=5.220000m/h.</desc>
<speed>1.450000</speed>
</trkpt>
<trkpt lat="43.143978" lon="19.096537">
<ele>1439.610352</ele>
<time>2012-05-01T13:50:49Z</time>
<desc>lat.=43.143978, lon.=19.096537, Alt.=1439.610352m. Speed=6.480000m/h.</desc>
<speed>1.800000</speed>
</trkpt>
<trkpt lat="43.144005" lon="19.096601">
<ele>1441.016602</ele>
<time>2012-05-01T13:50:54Z</time>
<desc>lat.=43.144005, lon.=19.096601, Alt.=1441.016602m. Speed=1.188000m/h.</desc>
<speed>0.330000</speed>
</trkpt>
<trkpt lat="43.144043" lon="19.096622">
<ele>1442.204102</ele>
<time>2012-05-01T13:50:59Z</time>
<desc>lat.=43.144043, lon.=19.096622, Alt.=1442.204102m. Speed=2.448000m/h.</desc>
<speed>0.680000</speed>
</trkpt>
<trkpt lat="43.144058" lon="19.096624">
<ele>1444.235352</ele>
<time>2012-05-01T13:51:04Z</time>
<desc>lat.=43.144058, lon.=19.096624, Alt.=1444.235352m. Speed=1.224000m/h.</desc>
<speed>0.340000</speed>
</trkpt>
<trkpt lat="43.144173" lon="19.096689">
<ele>1445.391602</ele>
<time>2012-05-01T13:51:09Z</time>
<desc>lat.=43.144173, lon.=19.096689, Alt.=1445.391602m. Speed=4.284000m/h.</desc>
<speed>1.190000</speed>
</trkpt>
<trkpt lat="43.144203" lon="19.096703">
<ele>1447.079102</ele>
<time>2012-05-01T13:51:14Z</time>
<desc>lat.=43.144203, lon.=19.096703, Alt.=1447.079102m. Speed=2.592000m/h.</desc>
<speed>0.720000</speed>
</trkpt>
<trkpt lat="43.144218" lon="19.096720">
<ele>1448.547852</ele>
<time>2012-05-01T13:51:19Z</time>
<desc>lat.=43.144218, lon.=19.096720, Alt.=1448.547852m. Speed=1.620000m/h.</desc>
<speed>0.450000</speed>
</trkpt>
<trkpt lat="43.144295" lon="19.096737">
<ele>1448.391602</ele>
<time>2012-05-01T13:51:24Z</time>
<desc>lat.=43.144295, lon.=19.096737, Alt.=1448.391602m. Speed=3.528000m/h.</desc>
<speed>0.980000</speed>
</trkpt>
<trkpt lat="43.144352" lon="19.096746">
<ele>1449.266602</ele>
<time>2012-05-01T13:51:29Z</time>
<desc>lat.=43.144352, lon.=19.096746, Alt.=1449.266602m. Speed=3.312000m/h.</desc>
<speed>0.920000</speed>
</trkpt>
<trkpt lat="43.144405" lon="19.096815">
<ele>1450.735352</ele>
<time>2012-05-01T13:51:34Z</time>
<desc>lat.=43.144405, lon.=19.096815, Alt.=1450.735352m. Speed=5.148000m/h.</desc>
<speed>1.430000</speed>
</trkpt>
<trkpt lat="43.144451" lon="19.096849">
<ele>1452.360352</ele>
<time>2012-05-01T13:51:39Z</time>
<desc>lat.=43.144451, lon.=19.096849, Alt.=1452.360352m. Speed=3.600000m/h.</desc>
<speed>1.000000</speed>
</trkpt>
<trkpt lat="43.144512" lon="19.096888">
<ele>1453.641602</ele>
<time>2012-05-01T13:51:44Z</time>
<desc>lat.=43.144512, lon.=19.096888, Alt.=1453.641602m. Speed=2.304000m/h.</desc>
<speed>0.640000</speed>
</trkpt>
<trkpt lat="43.144615" lon="19.096979">
<ele>1455.829102</ele>
<time>2012-05-01T13:51:49Z</time>
<desc>lat.=43.144615, lon.=19.096979, Alt.=1455.829102m. Speed=6.588000m/h.</desc>
<speed>1.830000</speed>
</trkpt>
<trkpt lat="43.144684" lon="19.097034">
<ele>1458.141602</ele>
<time>2012-05-01T13:51:54Z</time>
<desc>lat.=43.144684, lon.=19.097034, Alt.=1458.141602m. Speed=4.320000m/h.</desc>
<speed>1.200000</speed>
</trkpt>
<trkpt lat="43.144741" lon="19.097082">
<ele>1458.579102</ele>
<time>2012-05-01T13:51:59Z</time>
<desc>lat.=43.144741, lon.=19.097082, Alt.=1458.579102m. Speed=5.616000m/h.</desc>
<speed>1.560000</speed>
</trkpt>
<trkpt lat="43.144814" lon="19.097116">
<ele>1459.016602</ele>
<time>2012-05-01T13:52:04Z</time>
<desc>lat.=43.144814, lon.=19.097116, Alt.=1459.016602m. Speed=9.072000m/h.</desc>
<speed>2.520000</speed>
</trkpt>
<trkpt lat="43.144943" lon="19.097172">
<ele>1456.860352</ele>
<time>2012-05-01T13:52:09Z</time>
<desc>lat.=43.144943, lon.=19.097172, Alt.=1456.860352m. Speed=8.352000m/h.</desc>
<speed>2.320000</speed>
</trkpt>
<trkpt lat="43.145016" lon="19.097273">
<ele>1457.454102</ele>
<time>2012-05-01T13:52:14Z</time>
<desc>lat.=43.145016, lon.=19.097273, Alt.=1457.454102m. Speed=6.660000m/h.</desc>
<speed>1.850000</speed>
</trkpt>
<trkpt lat="43.145119" lon="19.097319">
<ele>1455.547852</ele>
<time>2012-05-01T13:52:19Z</time>
<desc>lat.=43.145119, lon.=19.097319, Alt.=1455.547852m. Speed=6.084000m/h.</desc>
<speed>1.690000</speed>
</trkpt>
<trkpt lat="43.145248" lon="19.097324">
<ele>1453.110352</ele>
<time>2012-05-01T13:52:24Z</time>
<desc>lat.=43.145248, lon.=19.097324, Alt.=1453.110352m. Speed=9.360000m/h.</desc>
<speed>2.600000</speed>
</trkpt>
<trkpt lat="43.145370" lon="19.097376">
<ele>1449.266602</ele>
<time>2012-05-01T13:52:29Z</time>
<desc>lat.=43.145370, lon.=19.097376, Alt.=1449.266602m. Speed=9.612000m/h.</desc>
<speed>2.670000</speed>
</trkpt>
<trkpt lat="43.145481" lon="19.097425">
<ele>1447.954102</ele>
<time>2012-05-01T13:52:34Z</time>
<desc>lat.=43.145481, lon.=19.097425, Alt.=1447.954102m. Speed=7.560000m/h.</desc>
<speed>2.100000</speed>
</trkpt>
<trkpt lat="43.145596" lon="19.097441">
<ele>1447.172852</ele>
<time>2012-05-01T13:52:39Z</time>
<desc>lat.=43.145596, lon.=19.097441, Alt.=1447.172852m. Speed=8.280000m/h.</desc>
<speed>2.300000</speed>
</trkpt>
<trkpt lat="43.145725" lon="19.097441">
<ele>1445.454102</ele>
<time>2012-05-01T13:52:44Z</time>
<desc>lat.=43.145725, lon.=19.097441, Alt.=1445.454102m. Speed=7.200000m/h.</desc>
<speed>2.000000</speed>
</trkpt>
<trkpt lat="43.145836" lon="19.097429">
<ele>1447.360352</ele>
<time>2012-05-01T13:52:49Z</time>
<desc>lat.=43.145836, lon.=19.097429, Alt.=1447.360352m. Speed=7.560000m/h.</desc>
<speed>2.100000</speed>
</trkpt>
<trkpt lat="43.145916" lon="19.097437">
<ele>1448.610352</ele>
<time>2012-05-01T13:52:54Z</time>
<desc>lat.=43.145916, lon.=19.097437, Alt.=1448.610352m. Speed=6.948000m/h.</desc>
<speed>1.930000</speed>
</trkpt>
<trkpt lat="43.146000" lon="19.097445">
<ele>1449.704102</ele>
<time>2012-05-01T13:52:59Z</time>
<desc>lat.=43.146000, lon.=19.097445, Alt.=1449.704102m. Speed=6.084000m/h.</desc>
<speed>1.690000</speed>
</trkpt>
<trkpt lat="43.146072" lon="19.097252">
<ele>1451.641602</ele>
<time>2012-05-01T13:53:04Z</time>
<desc>lat.=43.146072, lon.=19.097252, Alt.=1451.641602m. Speed=5.616000m/h.</desc>
<speed>1.560000</speed>
</trkpt>
<trkpt lat="43.146164" lon="19.097107">
<ele>1452.735352</ele>
<time>2012-05-01T13:53:09Z</time>
<desc>lat.=43.146164, lon.=19.097107, Alt.=1452.735352m. Speed=1.116000m/h.</desc>
<speed>0.310000</speed>
</trkpt>
<trkpt lat="43.146248" lon="19.097090">
<ele>1453.110352</ele>
<time>2012-05-01T13:53:14Z</time>
<desc>lat.=43.146248, lon.=19.097090, Alt.=1453.110352m. Speed=1.008000m/h.</desc>
<speed>0.280000</speed>
</trkpt>
<trkpt lat="43.146271" lon="19.097067">
<ele>1452.391602</ele>
<time>2012-05-01T13:53:19Z</time>
<desc>lat.=43.146271, lon.=19.097067, Alt.=1452.391602m. Speed=0.792000m/h.</desc>
<speed>0.220000</speed>
</trkpt>
<trkpt lat="43.146275" lon="19.097061">
<ele>1452.485352</ele>
<time>2012-05-01T13:53:24Z</time>
<desc>lat.=43.146275, lon.=19.097061, Alt.=1452.485352m. Speed=0.180000m/h.</desc>
<speed>0.050000</speed>
</trkpt>
<trkpt lat="43.146324" lon="19.097027">
<ele>1448.954102</ele>
<time>2012-05-01T13:53:29Z</time>
<desc>lat.=43.146324, lon.=19.097027, Alt.=1448.954102m. Speed=0.360000m/h.</desc>
<speed>0.100000</speed>
</trkpt>
<trkpt lat="43.146339" lon="19.097021">
<ele>1447.704102</ele>
<time>2012-05-01T13:53:34Z</time>
<desc>lat.=43.146339, lon.=19.097021, Alt.=1447.704102m. Speed=0.072000m/h.</desc>
<speed>0.020000</speed>
</trkpt>
<trkpt lat="43.146343" lon="19.097019">
<ele>1447.641602</ele>
<time>2012-05-01T13:53:39Z</time>
<desc>lat.=43.146343, lon.=19.097019, Alt.=1447.641602m. Speed=0.360000m/h.</desc>
<speed>0.100000</speed>
</trkpt>
<trkpt lat="43.146347" lon="19.097017">
<ele>1447.641602</ele>
<time>2012-05-01T13:53:44Z</time>
<desc>lat.=43.146347, lon.=19.097017, Alt.=1447.641602m. Speed=0.000000m/h.</desc>
<speed>0.000000</speed>
</trkpt>
<trkpt lat="43.146351" lon="19.097019">
<ele>1447.579102</ele>
<time>2012-05-01T13:53:49Z</time>
<desc>lat.=43.146351, lon.=19.097019, Alt.=1447.579102m. Speed=0.108000m/h.</desc>
<speed>0.030000</speed>
</trkpt>
<trkpt lat="43.146351" lon="19.097019">
<ele>1447.672852</ele>
<time>2012-05-01T13:53:54Z</time>
<desc>lat.=43.146351, lon.=19.097019, Alt.=1447.672852m. Speed=0.180000m/h.</desc>
<speed>0.050000</speed>
</trkpt>
<trkpt lat="43.146355" lon="19.097017">
<ele>1447.829102</ele>
<time>2012-05-01T13:53:59Z</time>
<desc>lat.=43.146355, lon.=19.097017, Alt.=1447.829102m. Speed=0.756000m/h.</desc>
<speed>0.210000</speed>
</trkpt>
<trkpt lat="43.146381" lon="19.096998">
<ele>1447.922852</ele>
<time>2012-05-01T13:54:04Z</time>
<desc>lat.=43.146381, lon.=19.096998, Alt.=1447.922852m. Speed=1.440000m/h.</desc>
<speed>0.400000</speed>
</trkpt>
<trkpt lat="43.146385" lon="19.096939">
<ele>1447.922852</ele>
<time>2012-05-01T13:54:09Z</time>
<desc>lat.=43.146385, lon.=19.096939, Alt.=1447.922852m. Speed=1.332000m/h.</desc>
<speed>0.370000</speed>
</trkpt>
<trkpt lat="43.146336" lon="19.096912">
<ele>1448.297852</ele>
<time>2012-05-01T13:54:14Z</time>
<desc>lat.=43.146336, lon.=19.096912, Alt.=1448.297852m. Speed=0.504000m/h.</desc>
<speed>0.140000</speed>
</trkpt>
<trkpt lat="43.146328" lon="19.096905">
<ele>1448.297852</ele>
<time>2012-05-01T13:54:19Z</time>
<desc>lat.=43.146328, lon.=19.096905, Alt.=1448.297852m. Speed=1.080000m/h.</desc>
<speed>0.300000</speed>
</trkpt>
<trkpt lat="43.146313" lon="19.096905">
<ele>1447.516602</ele>
<time>2012-05-01T13:54:24Z</time>
<desc>lat.=43.146313, lon.=19.096905, Alt.=1447.516602m. Speed=0.864000m/h.</desc>
<speed>0.240000</speed>
</trkpt>
<trkpt lat="43.146370" lon="19.096914">
<ele>1447.829102</ele>
<time>2012-05-01T13:54:29Z</time>
<desc>lat.=43.146370, lon.=19.096914, Alt.=1447.829102m. Speed=3.204000m/h.</desc>
<speed>0.890000</speed>
</trkpt>
<trkpt lat="43.146465" lon="19.096956">
<ele>1447.797852</ele>
<time>2012-05-01T13:54:34Z</time>
<desc>lat.=43.146465, lon.=19.096956, Alt.=1447.797852m. Speed=4.824000m/h.</desc>
<speed>1.340000</speed>
</trkpt>
<trkpt lat="43.146526" lon="19.097006">
<ele>1447.735352</ele>
<time>2012-05-01T13:54:39Z</time>
<desc>lat.=43.146526, lon.=19.097006, Alt.=1447.735352m. Speed=4.428000m/h.</desc>
<speed>1.230000</speed>
</trkpt>
<trkpt lat="43.146538" lon="19.097128">
<ele>1447.454102</ele>
<time>2012-05-01T13:54:44Z</time>
<desc>lat.=43.146538, lon.=19.097128, Alt.=1447.454102m. Speed=5.436000m/h.</desc>
<speed>1.510000</speed>
</trkpt>
<trkpt lat="43.146595" lon="19.097309">
<ele>1446.391602</ele>
<time>2012-05-01T13:54:49Z</time>
<desc>lat.=43.146595, lon.=19.097309, Alt.=1446.391602m. Speed=6.984000m/h.</desc>
<speed>1.940000</speed>
</trkpt>
<trkpt lat="43.146717" lon="19.097399">
<ele>1446.141602</ele>
<time>2012-05-01T13:54:54Z</time>
<desc>lat.=43.146717, lon.=19.097399, Alt.=1446.141602m. Speed=1.548000m/h.</desc>
<speed>0.430000</speed>
</trkpt>
<trkpt lat="43.146721" lon="19.097414">
<ele>1443.610352</ele>
<time>2012-05-01T13:54:59Z</time>
<desc>lat.=43.146721, lon.=19.097414, Alt.=1443.610352m. Speed=0.324000m/h.</desc>
<speed>0.090000</speed>
</trkpt>
<trkpt lat="43.146721" lon="19.097418">
<ele>1443.485352</ele>
<time>2012-05-01T13:55:04Z</time>
<desc>lat.=43.146721, lon.=19.097418, Alt.=1443.485352m. Speed=0.288000m/h.</desc>
<speed>0.080000</speed>
</trkpt>
<trkpt lat="43.146744" lon="19.097403">
<ele>1442.922852</ele>
<time>2012-05-01T13:55:09Z</time>
<desc>lat.=43.146744, lon.=19.097403, Alt.=1442.922852m. Speed=1.620000m/h.</desc>
<speed>0.450000</speed>
</trkpt>
<trkpt lat="43.146797" lon="19.097395">
<ele>1441.954102</ele>
<time>2012-05-01T13:55:14Z</time>
<desc>lat.=43.146797, lon.=19.097395, Alt.=1441.954102m. Speed=2.952000m/h.</desc>
<speed>0.820000</speed>
</trkpt>
<trkpt lat="43.146893" lon="19.097439">
<ele>1440.547852</ele>
<time>2012-05-01T13:55:19Z</time>
<desc>lat.=43.146893, lon.=19.097439, Alt.=1440.547852m. Speed=5.904000m/h.</desc>
<speed>1.640000</speed>
</trkpt>
<trkpt lat="43.146935" lon="19.097462">
<ele>1438.641602</ele>
<time>2012-05-01T13:55:24Z</time>
<desc>lat.=43.146935, lon.=19.097462, Alt.=1438.641602m. Speed=3.024000m/h.</desc>
<speed>0.840000</speed>
</trkpt>
<trkpt lat="43.146961" lon="19.097488">
<ele>1437.047852</ele>
<time>2012-05-01T13:55:29Z</time>
<desc>lat.=43.146961, lon.=19.097488, Alt.=1437.047852m. Speed=4.500000m/h.</desc>
<speed>1.250000</speed>
</trkpt>
<trkpt lat="43.146992" lon="19.097502">
<ele>1437.704102</ele>
<time>2012-05-01T13:55:34Z</time>
<desc>lat.=43.146992, lon.=19.097502, Alt.=1437.704102m. Speed=0.972000m/h.</desc>
<speed>0.270000</speed>
</trkpt>
<trkpt lat="43.147015" lon="19.097513">
<ele>1438.141602</ele>
<time>2012-05-01T13:55:39Z</time>
<desc>lat.=43.147015, lon.=19.097513, Alt.=1438.141602m. Speed=0.828000m/h.</desc>
<speed>0.230000</speed>
</trkpt>
<trkpt lat="43.147026" lon="19.097479">
<ele>1437.922852</ele>
<time>2012-05-01T13:55:44Z</time>
<desc>lat.=43.147026, lon.=19.097479, Alt.=1437.922852m. Speed=2.736000m/h.</desc>
<speed>0.760000</speed>
</trkpt>
<trkpt lat="43.147209" lon="19.097527">
<ele>1438.922852</ele>
<time>2012-05-01T13:55:49Z</time>
<desc>lat.=43.147209, lon.=19.097527, Alt.=1438.922852m. Speed=9.252000m/h.</desc>
<speed>2.570000</speed>
</trkpt>
<trkpt lat="43.147411" lon="19.097477">
<ele>1438.766602</ele>
<time>2012-05-01T13:55:54Z</time>
<desc>lat.=43.147411, lon.=19.097477, Alt.=1438.766602m. Speed=9.360000m/h.</desc>
<speed>2.600000</speed>
</trkpt>
<trkpt lat="43.147514" lon="19.097469">
<ele>1441.235352</ele>
<time>2012-05-01T13:55:59Z</time>
<desc>lat.=43.147514, lon.=19.097469, Alt.=1441.235352m. Speed=7.236000m/h.</desc>
<speed>2.010000</speed>
</trkpt>
<trkpt lat="43.147675" lon="19.097433">
<ele>1444.704102</ele>
<time>2012-05-01T13:56:04Z</time>
<desc>lat.=43.147675, lon.=19.097433, Alt.=1444.704102m. Speed=9.936000m/h.</desc>
<speed>2.760000</speed>
</trkpt>
<trkpt lat="43.147820" lon="19.097401">
<ele>1446.954102</ele>
<time>2012-05-01T13:56:09Z</time>
<desc>lat.=43.147820, lon.=19.097401, Alt.=1446.954102m. Speed=8.532000m/h.</desc>
<speed>2.370000</speed>
</trkpt>
<trkpt lat="43.147854" lon="19.097355">
<ele>1449.266602</ele>
<time>2012-05-01T13:56:14Z</time>
<desc>lat.=43.147854, lon.=19.097355, Alt.=1449.266602m. Speed=1.548000m/h.</desc>
<speed>0.430000</speed>
</trkpt>
<trkpt lat="43.147854" lon="19.097351">
<ele>1451.797852</ele>
<time>2012-05-01T13:56:19Z</time>
<desc>lat.=43.147854, lon.=19.097351, Alt.=1451.797852m. Speed=1.368000m/h.</desc>
<speed>0.380000</speed>
</trkpt>
<trkpt lat="43.147846" lon="19.097340">
<ele>1453.797852</ele>
<time>2012-05-01T13:56:24Z</time>
<desc>lat.=43.147846, lon.=19.097340, Alt.=1453.797852m. Speed=1.008000m/h.</desc>
<speed>0.280000</speed>
</trkpt>
<trkpt lat="43.147839" lon="19.097334">
<ele>1454.579102</ele>
<time>2012-05-01T13:56:29Z</time>
<desc>lat.=43.147839, lon.=19.097334, Alt.=1454.579102m. Speed=0.432000m/h.</desc>
<speed>0.120000</speed>
</trkpt>
<trkpt lat="43.147839" lon="19.097326">
<ele>1454.922852</ele>
<time>2012-05-01T13:56:34Z</time>
<desc>lat.=43.147839, lon.=19.097326, Alt.=1454.922852m. Speed=0.576000m/h.</desc>
<speed>0.160000</speed>
</trkpt>
<trkpt lat="43.147835" lon="19.097319">
<ele>1455.079102</ele>
<time>2012-05-01T13:56:39Z</time>
<desc>lat.=43.147835, lon.=19.097319, Alt.=1455.079102m. Speed=0.108000m/h.</desc>
<speed>0.030000</speed>
</trkpt>
<trkpt lat="43.147835" lon="19.097317">
<ele>1455.235352</ele>
<time>2012-05-01T13:56:44Z</time>
<desc>lat.=43.147835, lon.=19.097317, Alt.=1455.235352m. Speed=0.504000m/h.</desc>
<speed>0.140000</speed>
</trkpt>
<trkpt lat="43.147823" lon="19.097303">
<ele>1455.297852</ele>
<time>2012-05-01T13:56:49Z</time>
<desc>lat.=43.147823, lon.=19.097303, Alt.=1455.297852m. Speed=0.900000m/h.</desc>
<speed>0.250000</speed>
</trkpt>
<trkpt lat="43.147827" lon="19.097290">
<ele>1455.266602</ele>
<time>2012-05-01T13:56:54Z</time>
<desc>lat.=43.147827, lon.=19.097290, Alt.=1455.266602m. Speed=0.396000m/h.</desc>
<speed>0.110000</speed>
</trkpt>
<trkpt lat="43.147831" lon="19.097292">
<ele>1455.235352</ele>
<time>2012-05-01T13:56:59Z</time>
<desc>lat.=43.147831, lon.=19.097292, Alt.=1455.235352m. Speed=0.288000m/h.</desc>
<speed>0.080000</speed>
</trkpt>
<trkpt lat="43.147831" lon="19.097286">
<ele>1455.297852</ele>
<time>2012-05-01T13:57:04Z</time>
<desc>lat.=43.147831, lon.=19.097286, Alt.=1455.297852m. Speed=0.504000m/h.</desc>
<speed>0.140000</speed>
</trkpt>
<trkpt lat="43.147846" lon="19.097294">
<ele>1455.360352</ele>
<time>2012-05-01T13:57:09Z</time>
<desc>lat.=43.147846, lon.=19.097294, Alt.=1455.360352m. Speed=0.792000m/h.</desc>
<speed>0.220000</speed>
</trkpt>
<trkpt lat="43.147854" lon="19.097296">
<ele>1455.454102</ele>
<time>2012-05-01T13:57:14Z</time>
<desc>lat.=43.147854, lon.=19.097296, Alt.=1455.454102m. Speed=0.072000m/h.</desc>
<speed>0.020000</speed>
</trkpt>
<trkpt lat="43.147850" lon="19.097294">
<ele>1455.516602</ele>
<time>2012-05-01T13:57:19Z</time>
<desc>lat.=43.147850, lon.=19.097294, Alt.=1455.516602m. Speed=0.468000m/h.</desc>
<speed>0.130000</speed>
</trkpt>
<trkpt lat="43.147854" lon="19.097281">
<ele>1455.547852</ele>
<time>2012-05-01T13:57:24Z</time>
<desc>lat.=43.147854, lon.=19.097281, Alt.=1455.547852m. Speed=0.648000m/h.</desc>
<speed>0.180000</speed>
</trkpt>
<trkpt lat="43.147846" lon="19.097271">
<ele>1455.610352</ele>
<time>2012-05-01T13:57:29Z</time>
<desc>lat.=43.147846, lon.=19.097271, Alt.=1455.610352m. Speed=0.576000m/h.</desc>
<speed>0.160000</speed>
</trkpt>
<trkpt lat="43.147846" lon="19.097269">
<ele>1455.641602</ele>
<time>2012-05-01T13:57:34Z</time>
<desc>lat.=43.147846, lon.=19.097269, Alt.=1455.641602m. Speed=1.260000m/h.</desc>
<speed>0.350000</speed>
</trkpt>
<trkpt lat="43.147930" lon="19.097294">
<ele>1455.547852</ele>
<time>2012-05-01T13:57:39Z</time>
<desc>lat.=43.147930, lon.=19.097294, Alt.=1455.547852m. Speed=7.920000m/h.</desc>
<speed>2.200000</speed>
</trkpt>
<trkpt lat="43.148006" lon="19.097330">
<ele>1453.829102</ele>
<time>2012-05-01T13:57:44Z</time>
<desc>lat.=43.148006, lon.=19.097330, Alt.=1453.829102m. Speed=12.240000m/h.</desc>
<speed>3.400000</speed>
</trkpt>
<trkpt lat="43.148045" lon="19.097483">
<ele>1452.829102</ele>
<time>2012-05-01T13:57:49Z</time>
<desc>lat.=43.148045, lon.=19.097483, Alt.=1452.829102m. Speed=8.712000m/h.</desc>
<speed>2.420000</speed>
</trkpt>
<trkpt lat="43.148117" lon="19.097622">
<ele>1452.391602</ele>
<time>2012-05-01T13:57:54Z</time>
<desc>lat.=43.148117, lon.=19.097622, Alt.=1452.391602m. Speed=9.072000m/h.</desc>
<speed>2.520000</speed>
</trkpt>
<trkpt lat="43.148205" lon="19.097771">
<ele>1452.204102</ele>
<time>2012-05-01T13:57:59Z</time>
<desc>lat.=43.148205, lon.=19.097771, Alt.=1452.204102m. Speed=1.512000m/h.</desc>
<speed>0.420000</speed>
</trkpt>
<trkpt lat="43.148167" lon="19.097778">
<ele>1451.797852</ele>
<time>2012-05-01T13:58:04Z</time>
<desc>lat.=43.148167, lon.=19.097778, Alt.=1451.797852m. Speed=1.008000m/h.</desc>
<speed>0.280000</speed>
</trkpt>
<trkpt lat="43.148170" lon="19.097815">
<ele>1451.735352</ele>
<time>2012-05-01T13:58:09Z</time>
<desc>lat.=43.148170, lon.=19.097815, Alt.=1451.735352m. Speed=2.160000m/h.</desc>
<speed>0.600000</speed>
</trkpt>
<trkpt lat="43.148247" lon="19.097969">
<ele>1451.922852</ele>
<time>2012-05-01T13:58:14Z</time>
<desc>lat.=43.148247, lon.=19.097969, Alt.=1451.922852m. Speed=11.232000m/h.</desc>
<speed>3.120000</speed>
</trkpt>
<trkpt lat="43.148319" lon="19.098183">
<ele>1452.454102</ele>
<time>2012-05-01T13:58:19Z</time>
<desc>lat.=43.148319, lon.=19.098183, Alt.=1452.454102m. Speed=9.504000m/h.</desc>
<speed>2.640000</speed>
</trkpt>
<trkpt lat="43.148384" lon="19.098419">
<ele>1452.860352</ele>
<time>2012-05-01T13:58:24Z</time>
<desc>lat.=43.148384, lon.=19.098419, Alt.=1452.860352m. Speed=15.192000m/h.</desc>
<speed>4.220000</speed>
</trkpt>
<trkpt lat="43.148563" lon="19.098749">
<ele>1453.079102</ele>
<time>2012-05-01T13:58:29Z</time>
<desc>lat.=43.148563, lon.=19.098749, Alt.=1453.079102m. Speed=21.132000m/h.</desc>
<speed>5.870000</speed>
</trkpt>
<trkpt lat="43.148773" lon="19.099072">
<ele>1453.579102</ele>
<time>2012-05-01T13:58:34Z</time>
<desc>lat.=43.148773, lon.=19.099072, Alt.=1453.579102m. Speed=20.448000m/h.</desc>
<speed>5.680000</speed>
</trkpt>
<trkpt lat="43.149044" lon="19.099421">
<ele>1454.641602</ele>
<time>2012-05-01T13:58:39Z</time>
<desc>lat.=43.149044, lon.=19.099421, Alt.=1454.641602m. Speed=21.096001m/h.</desc>
<speed>5.860000</speed>
</trkpt>
<trkpt lat="43.149353" lon="19.099773">
<ele>1457.672852</ele>
<time>2012-05-01T13:58:44Z</time>
<desc>lat.=43.149353, lon.=19.099773, Alt.=1457.672852m. Speed=21.959999m/h.</desc>
<speed>6.100000</speed>
</trkpt>
<trkpt lat="43.149609" lon="19.100048">
<ele>1458.860352</ele>
<time>2012-05-01T13:58:49Z</time>
<desc>lat.=43.149609, lon.=19.100048, Alt.=1458.860352m. Speed=20.988001m/h.</desc>
<speed>5.830000</speed>
</trkpt>
<trkpt lat="43.149891" lon="19.100279">
<ele>1457.610352</ele>
<time>2012-05-01T13:58:54Z</time>
<desc>lat.=43.149891, lon.=19.100279, Alt.=1457.610352m. Speed=21.384001m/h.</desc>
<speed>5.940000</speed>
</trkpt>
<trkpt lat="43.149998" lon="19.100368">
<ele>1457.704102</ele>
<time>2012-05-01T13:58:59Z</time>
<desc>lat.=43.149998, lon.=19.100368, Alt.=1457.704102m. Speed=1.656000m/h.</desc>
<speed>0.460000</speed>
</trkpt>
<trkpt lat="43.150108" lon="19.100519">
<ele>1453.516602</ele>
<time>2012-05-01T13:59:04Z</time>
<desc>lat.=43.150108, lon.=19.100519, Alt.=1453.516602m. Speed=14.724000m/h.</desc>
<speed>4.090000</speed>
</trkpt>
<trkpt lat="43.150265" lon="19.100704">
<ele>1452.141602</ele>
<time>2012-05-01T13:59:09Z</time>
<desc>lat.=43.150265, lon.=19.100704, Alt.=1452.141602m. Speed=19.152000m/h.</desc>
<speed>5.320000</speed>
</trkpt>
<trkpt lat="43.150364" lon="19.100922">
<ele>1452.235352</ele>
<time>2012-05-01T13:59:14Z</time>
<desc>lat.=43.150364, lon.=19.100922, Alt.=1452.235352m. Speed=15.876000m/h.</desc>
<speed>4.410000</speed>
</trkpt>
<trkpt lat="43.150589" lon="19.101192">
<ele>1453.672852</ele>
<time>2012-05-01T13:59:19Z</time>
<desc>lat.=43.150589, lon.=19.101192, Alt.=1453.672852m. Speed=20.052000m/h.</desc>
<speed>5.570000</speed>
</trkpt>
<trkpt lat="43.150932" lon="19.101509">
<ele>1450.672852</ele>
<time>2012-05-01T13:59:24Z</time>
<desc>lat.=43.150932, lon.=19.101509, Alt.=1450.672852m. Speed=23.868000m/h.</desc>
<speed>6.630000</speed>
</trkpt>
<trkpt lat="43.151226" lon="19.101740">
<ele>1448.735352</ele>
<time>2012-05-01T13:59:29Z</time>
<desc>lat.=43.151226, lon.=19.101740, Alt.=1448.735352m. Speed=21.672001m/h.</desc>
<speed>6.020000</speed>
</trkpt>
<trkpt lat="43.151577" lon="19.101698">
<ele>1447.360352</ele>
<time>2012-05-01T13:59:34Z</time>
<desc>lat.=43.151577, lon.=19.101698, Alt.=1447.360352m. Speed=27.719999m/h.</desc>
<speed>7.700000</speed>
</trkpt>
<trkpt lat="43.151825" lon="19.101320">
<ele>1445.985352</ele>
<time>2012-05-01T13:59:39Z</time>
<desc>lat.=43.151825, lon.=19.101320, Alt.=1445.985352m. Speed=26.280001m/h.</desc>
<speed>7.300000</speed>
</trkpt>
<trkpt lat="43.152103" lon="19.101076">
<ele>1445.797852</ele>
<time>2012-05-01T13:59:44Z</time>
<desc>lat.=43.152103, lon.=19.101076, Alt.=1445.797852m. Speed=23.544001m/h.</desc>
<speed>6.540000</speed>
</trkpt>
<trkpt lat="43.152382" lon="19.101000">
<ele>1445.985352</ele>
<time>2012-05-01T13:59:49Z</time>
<desc>lat.=43.152382, lon.=19.101000, Alt.=1445.985352m. Speed=20.916000m/h.</desc>
<speed>5.810000</speed>
</trkpt>
<trkpt lat="43.152714" lon="19.100916">
<ele>1448.016602</ele>
<time>2012-05-01T13:59:54Z</time>
<desc>lat.=43.152714, lon.=19.100916, Alt.=1448.016602m. Speed=23.219999m/h.</desc>
<speed>6.450000</speed>
</trkpt>
<trkpt lat="43.152992" lon="19.100880">
<ele>1448.297852</ele>
<time>2012-05-01T13:59:59Z</time>
<desc>lat.=43.152992, lon.=19.100880, Alt.=1448.297852m. Speed=24.768000m/h.</desc>
<speed>6.880000</speed>
</trkpt>
<trkpt lat="43.153275" lon="19.100878">
<ele>1450.204102</ele>
<time>2012-05-01T14:00:04Z</time>
<desc>lat.=43.153275, lon.=19.100878, Alt.=1450.204102m. Speed=21.959999m/h.</desc>
<speed>6.100000</speed>
</trkpt>
<trkpt lat="43.153534" lon="19.101040">
<ele>1450.579102</ele>
<time>2012-05-01T14:00:09Z</time>
<desc>lat.=43.153534, lon.=19.101040, Alt.=1450.579102m. Speed=23.472000m/h.</desc>
<speed>6.520000</speed>
</trkpt>
<trkpt lat="43.153728" lon="19.101156">
<ele>1449.547852</ele>
<time>2012-05-01T14:00:14Z</time>
<desc>lat.=43.153728, lon.=19.101156, Alt.=1449.547852m. Speed=16.308001m/h.</desc>
<speed>4.530000</speed>
</trkpt>
<trkpt lat="43.153854" lon="19.101286">
<ele>1450.079102</ele>
<time>2012-05-01T14:00:19Z</time>
<desc>lat.=43.153854, lon.=19.101286, Alt.=1450.079102m. Speed=16.955999m/h.</desc>
<speed>4.710000</speed>
</trkpt>
<trkpt lat="43.154053" lon="19.101536">
<ele>1450.985352</ele>
<time>2012-05-01T14:00:24Z</time>
<desc>lat.=43.154053, lon.=19.101536, Alt.=1450.985352m. Speed=22.968000m/h.</desc>
<speed>6.380000</speed>
</trkpt>
<trkpt lat="43.154236" lon="19.101780">
<ele>1451.079102</ele>
<time>2012-05-01T14:00:29Z</time>
<desc>lat.=43.154236, lon.=19.101780, Alt.=1451.079102m. Speed=21.420000m/h.</desc>
<speed>5.950000</speed>
</trkpt>
<trkpt lat="43.154350" lon="19.102083">
<ele>1451.829102</ele>
<time>2012-05-01T14:00:34Z</time>
<desc>lat.=43.154350, lon.=19.102083, Alt.=1451.829102m. Speed=21.455999m/h.</desc>
<speed>5.960000</speed>
</trkpt>
<trkpt lat="43.154415" lon="19.102409">
<ele>1451.610352</ele>
<time>2012-05-01T14:00:39Z</time>
<desc>lat.=43.154415, lon.=19.102409, Alt.=1451.610352m. Speed=23.148001m/h.</desc>
<speed>6.430000</speed>
</trkpt>
<trkpt lat="43.154446" lon="19.102751">
<ele>1452.266602</ele>
<time>2012-05-01T14:00:44Z</time>
<desc>lat.=43.154446, lon.=19.102751, Alt.=1452.266602m. Speed=23.580000m/h.</desc>
<speed>6.550000</speed>
</trkpt>
<trkpt lat="43.154472" lon="19.103088">
<ele>1453.360352</ele>
<time>2012-05-01T14:00:49Z</time>
<desc>lat.=43.154472, lon.=19.103088, Alt.=1453.360352m. Speed=18.108000m/h.</desc>
<speed>5.030000</speed>
</trkpt>
<trkpt lat="43.154636" lon="19.103397">
<ele>1451.922852</ele>
<time>2012-05-01T14:00:54Z</time>
<desc>lat.=43.154636, lon.=19.103397, Alt.=1451.922852m. Speed=24.299999m/h.</desc>
<speed>6.750000</speed>
</trkpt>
<trkpt lat="43.154797" lon="19.103758">
<ele>1448.454102</ele>
<time>2012-05-01T14:00:59Z</time>
<desc>lat.=43.154797, lon.=19.103758, Alt.=1448.454102m. Speed=21.563999m/h.</desc>
<speed>5.990000</speed>
</trkpt>
<trkpt lat="43.154873" lon="19.104078">
<ele>1447.172852</ele>
<time>2012-05-01T14:01:04Z</time>
<desc>lat.=43.154873, lon.=19.104078, Alt.=1447.172852m. Speed=21.672001m/h.</desc>
<speed>6.020000</speed>
</trkpt>
<trkpt lat="43.154884" lon="19.104431">
<ele>1445.797852</ele>
<time>2012-05-01T14:01:09Z</time>
<desc>lat.=43.154884, lon.=19.104431, Alt.=1445.797852m. Speed=21.348000m/h.</desc>
<speed>5.930000</speed>
</trkpt>
<trkpt lat="43.154812" lon="19.104755">
<ele>1443.610352</ele>
<time>2012-05-01T14:01:14Z</time>
<desc>lat.=43.154812, lon.=19.104755, Alt.=1443.610352m. Speed=19.836000m/h.</desc>
<speed>5.510000</speed>
</trkpt>
<trkpt lat="43.154713" lon="19.105043">
<ele>1441.922852</ele>
<time>2012-05-01T14:01:19Z</time>
<desc>lat.=43.154713, lon.=19.105043, Alt.=1441.922852m. Speed=19.691999m/h.</desc>
<speed>5.470000</speed>
</trkpt>
<trkpt lat="43.154629" lon="19.105337">
<ele>1439.266602</ele>
<time>2012-05-01T14:01:24Z</time>
<desc>lat.=43.154629, lon.=19.105337, Alt.=1439.266602m. Speed=17.028000m/h.</desc>
<speed>4.730000</speed>
</trkpt>
<trkpt lat="43.154533" lon="19.105612">
<ele>1438.204102</ele>
<time>2012-05-01T14:01:29Z</time>
<desc>lat.=43.154533, lon.=19.105612, Alt.=1438.204102m. Speed=17.243999m/h.</desc>
<speed>4.790000</speed>
</trkpt>
<trkpt lat="43.154427" lon="19.105909">
<ele>1435.704102</ele>
<time>2012-05-01T14:01:34Z</time>
<desc>lat.=43.154427, lon.=19.105909, Alt.=1435.704102m. Speed=22.104000m/h.</desc>
<speed>6.140000</speed>
</trkpt>
<trkpt lat="43.154255" lon="19.106207">
<ele>1434.579102</ele>
<time>2012-05-01T14:01:39Z</time>
<desc>lat.=43.154255, lon.=19.106207, Alt.=1434.579102m. Speed=22.032000m/h.</desc>
<speed>6.120000</speed>
</trkpt>
<trkpt lat="43.154087" lon="19.106392">
<ele>1432.954102</ele>
<time>2012-05-01T14:01:44Z</time>
<desc>lat.=43.154087, lon.=19.106392, Alt.=1432.954102m. Speed=14.472000m/h.</desc>
<speed>4.020000</speed>
</trkpt>
<trkpt lat="43.153969" lon="19.106524">
<ele>1430.610352</ele>
<time>2012-05-01T14:01:49Z</time>
<desc>lat.=43.153969, lon.=19.106524, Alt.=1430.610352m. Speed=11.700000m/h.</desc>
<speed>3.250000</speed>
</trkpt>
<trkpt lat="43.153820" lon="19.106602">
<ele>1429.235352</ele>
<time>2012-05-01T14:01:54Z</time>
<desc>lat.=43.153820, lon.=19.106602, Alt.=1429.235352m. Speed=13.572000m/h.</desc>
<speed>3.770000</speed>
</trkpt>
<trkpt lat="43.153652" lon="19.106663">
<ele>1428.422852</ele>
<time>2012-05-01T14:01:59Z</time>
<desc>lat.=43.153652, lon.=19.106663, Alt.=1428.422852m. Speed=14.760000m/h.</desc>
<speed>4.100000</speed>
</trkpt>
<trkpt lat="43.153446" lon="19.106741">
<ele>1430.297852</ele>
<time>2012-05-01T14:02:04Z</time>
<desc>lat.=43.153446, lon.=19.106741, Alt.=1430.297852m. Speed=17.316000m/h.</desc>
<speed>4.810000</speed>
</trkpt>
<trkpt lat="43.153255" lon="19.106878">
<ele>1432.266602</ele>
<time>2012-05-01T14:02:09Z</time>
<desc>lat.=43.153255, lon.=19.106878, Alt.=1432.266602m. Speed=18.431999m/h.</desc>
<speed>5.120000</speed>
</trkpt>
<trkpt lat="43.153126" lon="19.107222">
<ele>1433.297852</ele>
<time>2012-05-01T14:02:14Z</time>
<desc>lat.=43.153126, lon.=19.107222, Alt.=1433.297852m. Speed=25.236000m/h.</desc>
<speed>7.010000</speed>
</trkpt>
<trkpt lat="43.153141" lon="19.107584">
<ele>1431.172852</ele>
<time>2012-05-01T14:02:19Z</time>
<desc>lat.=43.153141, lon.=19.107584, Alt.=1431.172852m. Speed=18.827999m/h.</desc>
<speed>5.230000</speed>
</trkpt>
<trkpt lat="43.153198" lon="19.107925">
<ele>1429.797852</ele>
<time>2012-05-01T14:02:24Z</time>
<desc>lat.=43.153198, lon.=19.107925, Alt.=1429.797852m. Speed=18.648001m/h.</desc>
<speed>5.180000</speed>
</trkpt>
<trkpt lat="43.153221" lon="19.108238">
<ele>1428.860352</ele>
<time>2012-05-01T14:02:29Z</time>
<desc>lat.=43.153221, lon.=19.108238, Alt.=1428.860352m. Speed=18.323999m/h.</desc>
<speed>5.090000</speed>
</trkpt>
<trkpt lat="43.153149" lon="19.108555">
<ele>1428.297852</ele>
<time>2012-05-01T14:02:34Z</time>
<desc>lat.=43.153149, lon.=19.108555, Alt.=1428.297852m. Speed=20.232000m/h.</desc>
<speed>5.620000</speed>
</trkpt>
<trkpt lat="43.153030" lon="19.108839">
<ele>1430.172852</ele>
<time>2012-05-01T14:02:39Z</time>
<desc>lat.=43.153030, lon.=19.108839, Alt.=1430.172852m. Speed=18.000000m/h.</desc>
<speed>5.000000</speed>
</trkpt>
<trkpt lat="43.152973" lon="19.109093">
<ele>1430.579102</ele>
<time>2012-05-01T14:02:44Z</time>
<desc>lat.=43.152973, lon.=19.109093, Alt.=1430.579102m. Speed=17.676001m/h.</desc>
<speed>4.910000</speed>
</trkpt>
<trkpt lat="43.152992" lon="19.109335">
<ele>1431.766602</ele>
<time>2012-05-01T14:02:49Z</time>
<desc>lat.=43.152992, lon.=19.109335, Alt.=1431.766602m. Speed=9.972000m/h.</desc>
<speed>2.770000</speed>
</trkpt>
<trkpt lat="43.153015" lon="19.109499">
<ele>1431.860352</ele>
<time>2012-05-01T14:02:54Z</time>
<desc>lat.=43.153015, lon.=19.109499, Alt.=1431.860352m. Speed=9.648000m/h.</desc>
<speed>2.680000</speed>
</trkpt>
<trkpt lat="43.153042" lon="19.109688">
<ele>1432.204102</ele>
<time>2012-05-01T14:02:59Z</time>
<desc>lat.=43.153042, lon.=19.109688, Alt.=1432.204102m. Speed=11.340000m/h.</desc>
<speed>3.150000</speed>
</trkpt>
<trkpt lat="43.153030" lon="19.109844">
<ele>1433.204102</ele>
<time>2012-05-01T14:03:04Z</time>
<desc>lat.=43.153030, lon.=19.109844, Alt.=1433.204102m. Speed=7.524000m/h.</desc>
<speed>2.090000</speed>
</trkpt>
<trkpt lat="43.152985" lon="19.109997">
<ele>1434.954102</ele>
<time>2012-05-01T14:03:09Z</time>
<desc>lat.=43.152985, lon.=19.109997, Alt.=1434.954102m. Speed=11.340000m/h.</desc>
<speed>3.150000</speed>
</trkpt>
<trkpt lat="43.152977" lon="19.110226">
<ele>1438.391602</ele>
<time>2012-05-01T14:03:14Z</time>
<desc>lat.=43.152977, lon.=19.110226, Alt.=1438.391602m. Speed=13.464000m/h.</desc>
<speed>3.740000</speed>
</trkpt>
<trkpt lat="43.152931" lon="19.110403">
<ele>1440.641602</ele>
<time>2012-05-01T14:03:19Z</time>
<desc>lat.=43.152931, lon.=19.110403, Alt.=1440.641602m. Speed=9.108000m/h.</desc>
<speed>2.530000</speed>
</trkpt>
<trkpt lat="43.152912" lon="19.110624">
<ele>1442.016602</ele>
<time>2012-05-01T14:03:24Z</time>
<desc>lat.=43.152912, lon.=19.110624, Alt.=1442.016602m. Speed=13.428000m/h.</desc>
<speed>3.730000</speed>
</trkpt>
<trkpt lat="43.152973" lon="19.110878">
<ele>1442.579102</ele>
<time>2012-05-01T14:03:29Z</time>
<desc>lat.=43.152973, lon.=19.110878, Alt.=1442.579102m. Speed=12.384000m/h.</desc>
<speed>3.440000</speed>
</trkpt>
<trkpt lat="43.153019" lon="19.111048">
<ele>1444.360352</ele>
<time>2012-05-01T14:03:34Z</time>
<desc>lat.=43.153019, lon.=19.111048, Alt.=1444.360352m. Speed=12.024000m/h.</desc>
<speed>3.340000</speed>
</trkpt>
<trkpt lat="43.153069" lon="19.111259">
<ele>1445.360352</ele>
<time>2012-05-01T14:03:39Z</time>
<desc>lat.=43.153069, lon.=19.111259, Alt.=1445.360352m. Speed=14.580000m/h.</desc>
<speed>4.050000</speed>
</trkpt>
<trkpt lat="43.153118" lon="19.111502">
<ele>1444.829102</ele>
<time>2012-05-01T14:03:44Z</time>
<desc>lat.=43.153118, lon.=19.111502, Alt.=1444.829102m. Speed=12.744000m/h.</desc>
<speed>3.540000</speed>
</trkpt>
<trkpt lat="43.153191" lon="19.111742">
<ele>1441.891602</ele>
<time>2012-05-01T14:03:49Z</time>
<desc>lat.=43.153191, lon.=19.111742, Alt.=1441.891602m. Speed=14.724000m/h.</desc>
<speed>4.090000</speed>
</trkpt>
<trkpt lat="43.153225" lon="19.111950">
<ele>1438.360352</ele>
<time>2012-05-01T14:03:54Z</time>
<desc>lat.=43.153225, lon.=19.111950, Alt.=1438.360352m. Speed=12.420000m/h.</desc>
<speed>3.450000</speed>
</trkpt>
<trkpt lat="43.153236" lon="19.112144">
<ele>1436.204102</ele>
<time>2012-05-01T14:03:59Z</time>
<desc>lat.=43.153236, lon.=19.112144, Alt.=1436.204102m. Speed=10.260000m/h.</desc>
<speed>2.850000</speed>
</trkpt>
<trkpt lat="43.153301" lon="19.112370">
<ele>1433.391602</ele>
<time>2012-05-01T14:04:04Z</time>
<desc>lat.=43.153301, lon.=19.112370, Alt.=1433.391602m. Speed=11.556000m/h.</desc>
<speed>3.210000</speed>
</trkpt>
<trkpt lat="43.153397" lon="19.112593">
<ele>1433.735352</ele>
<time>2012-05-01T14:04:09Z</time>
<desc>lat.=43.153397, lon.=19.112593, Alt.=1433.735352m. Speed=13.176000m/h.</desc>
<speed>3.660000</speed>
</trkpt>
<trkpt lat="43.153454" lon="19.112856">
<ele>1433.141602</ele>
<time>2012-05-01T14:04:14Z</time>
<desc>lat.=43.153454, lon.=19.112856, Alt.=1433.141602m. Speed=13.068000m/h.</desc>
<speed>3.630000</speed>
</trkpt>
<trkpt lat="43.153488" lon="19.113096">
<ele>1433.985352</ele>
<time>2012-05-01T14:04:19Z</time>
<desc>lat.=43.153488, lon.=19.113096, Alt.=1433.985352m. Speed=15.444000m/h.</desc>
<speed>4.290000</speed>
</trkpt>
<trkpt lat="43.153637" lon="19.113413">
<ele>1435.016602</ele>
<time>2012-05-01T14:04:24Z</time>
<desc>lat.=43.153637, lon.=19.113413, Alt.=1435.016602m. Speed=19.944000m/h.</desc>
<speed>5.540000</speed>
</trkpt>
<trkpt lat="43.153759" lon="19.113708">
<ele>1435.735352</ele>
<time>2012-05-01T14:04:29Z</time>
<desc>lat.=43.153759, lon.=19.113708, Alt.=1435.735352m. Speed=15.084000m/h.</desc>
<speed>4.190000</speed>
</trkpt>
<trkpt lat="43.153851" lon="19.114000">
<ele>1436.735352</ele>
<time>2012-05-01T14:04:34Z</time>
<desc>lat.=43.153851, lon.=19.114000, Alt.=1436.735352m. Speed=14.256000m/h.</desc>
<speed>3.960000</speed>
</trkpt>
<trkpt lat="43.153919" lon="19.114279">
<ele>1436.704102</ele>
<time>2012-05-01T14:04:39Z</time>
<desc>lat.=43.153919, lon.=19.114279, Alt.=1436.704102m. Speed=15.660000m/h.</desc>
<speed>4.350000</speed>
</trkpt>
<trkpt lat="43.153992" lon="19.114506">
<ele>1435.954102</ele>
<time>2012-05-01T14:04:44Z</time>
<desc>lat.=43.153992, lon.=19.114506, Alt.=1435.954102m. Speed=11.124000m/h.</desc>
<speed>3.090000</speed>
</trkpt>
<trkpt lat="43.154037" lon="19.114750">
<ele>1434.047852</ele>
<time>2012-05-01T14:04:49Z</time>
<desc>lat.=43.154037, lon.=19.114750, Alt.=1434.047852m. Speed=18.827999m/h.</desc>
<speed>5.230000</speed>
</trkpt>
<trkpt lat="43.154106" lon="19.115034">
<ele>1432.172852</ele>
<time>2012-05-01T14:04:54Z</time>
<desc>lat.=43.154106, lon.=19.115034, Alt.=1432.172852m. Speed=15.444000m/h.</desc>
<speed>4.290000</speed>
</trkpt>
<trkpt lat="43.154140" lon="19.115257">
<ele>1430.610352</ele>
<time>2012-05-01T14:04:59Z</time>
<desc>lat.=43.154140, lon.=19.115257, Alt.=1430.610352m. Speed=15.228000m/h.</desc>
<speed>4.230000</speed>
</trkpt>
<trkpt lat="43.154186" lon="19.115561">
<ele>1429.547852</ele>
<time>2012-05-01T14:05:04Z</time>
<desc>lat.=43.154186, lon.=19.115561, Alt.=1429.547852m. Speed=21.600000m/h.</desc>
<speed>6.000000</speed>
</trkpt>
<trkpt lat="43.154243" lon="19.115917">
<ele>1429.235352</ele>
<time>2012-05-01T14:05:09Z</time>
<desc>lat.=43.154243, lon.=19.115917, Alt.=1429.235352m. Speed=18.648001m/h.</desc>
<speed>5.180000</speed>
</trkpt>
<trkpt lat="43.154282" lon="19.116211">
<ele>1427.985352</ele>
<time>2012-05-01T14:05:14Z</time>
<desc>lat.=43.154282, lon.=19.116211, Alt.=1427.985352m. Speed=18.936001m/h.</desc>
<speed>5.260000</speed>
</trkpt>
<trkpt lat="43.154305" lon="19.116514">
<ele>1428.547852</ele>
<time>2012-05-01T14:05:19Z</time>
<desc>lat.=43.154305, lon.=19.116514, Alt.=1428.547852m. Speed=15.156000m/h.</desc>
<speed>4.210000</speed>
</trkpt>
<trkpt lat="43.154350" lon="19.116713">
<ele>1428.891602</ele>
<time>2012-05-01T14:05:24Z</time>
<desc>lat.=43.154350, lon.=19.116713, Alt.=1428.891602m. Speed=6.732000m/h.</desc>
<speed>1.870000</speed>
</trkpt>
<trkpt lat="43.154350" lon="19.116770">
<ele>1430.329102</ele>
<time>2012-05-01T14:05:29Z</time>
<desc>lat.=43.154350, lon.=19.116770, Alt.=1430.329102m. Speed=4.500000m/h.</desc>
<speed>1.250000</speed>
</trkpt>
<trkpt lat="43.154369" lon="19.116957">
<ele>1431.454102</ele>
<time>2012-05-01T14:05:34Z</time>
<desc>lat.=43.154369, lon.=19.116957, Alt.=1431.454102m. Speed=16.704000m/h.</desc>
<speed>4.640000</speed>
</trkpt>
<trkpt lat="43.154442" lon="19.117207">
<ele>1432.766602</ele>
<time>2012-05-01T14:05:39Z</time>
<desc>lat.=43.154442, lon.=19.117207, Alt.=1432.766602m. Speed=17.424000m/h.</desc>
<speed>4.840000</speed>
</trkpt>
<trkpt lat="43.154545" lon="19.117502">
<ele>1433.735352</ele>
<time>2012-05-01T14:05:44Z</time>
<desc>lat.=43.154545, lon.=19.117502, Alt.=1433.735352m. Speed=20.375999m/h.</desc>
<speed>5.660000</speed>
</trkpt>
<trkpt lat="43.154629" lon="19.117804">
<ele>1435.110352</ele>
<time>2012-05-01T14:05:49Z</time>
<desc>lat.=43.154629, lon.=19.117804, Alt.=1435.110352m. Speed=15.228000m/h.</desc>
<speed>4.230000</speed>
</trkpt>
<trkpt lat="43.154724" lon="19.118107">
<ele>1436.454102</ele>
<time>2012-05-01T14:05:54Z</time>
<desc>lat.=43.154724, lon.=19.118107, Alt.=1436.454102m. Speed=20.556000m/h.</desc>
<speed>5.710000</speed>
</trkpt>
<trkpt lat="43.154816" lon="19.118393">
<ele>1437.422852</ele>
<time>2012-05-01T14:05:59Z</time>
<desc>lat.=43.154816, lon.=19.118393, Alt.=1437.422852m. Speed=16.667999m/h.</desc>
<speed>4.630000</speed>
</trkpt>
<trkpt lat="43.154896" lon="19.118675">
<ele>1439.579102</ele>
<time>2012-05-01T14:06:04Z</time>
<desc>lat.=43.154896, lon.=19.118675, Alt.=1439.579102m. Speed=15.192000m/h.</desc>
<speed>4.220000</speed>
</trkpt>
<trkpt lat="43.155018" lon="19.118988">
<ele>1441.110352</ele>
<time>2012-05-01T14:06:09Z</time>
<desc>lat.=43.155018, lon.=19.118988, Alt.=1441.110352m. Speed=18.792000m/h.</desc>
<speed>5.220000</speed>
</trkpt>
<trkpt lat="43.155094" lon="19.119293">
<ele>1442.204102</ele>
<time>2012-05-01T14:06:14Z</time>
<desc>lat.=43.155094, lon.=19.119293, Alt.=1442.204102m. Speed=21.743999m/h.</desc>
<speed>6.040000</speed>
</trkpt>
<trkpt lat="43.155148" lon="19.119669">
<ele>1441.829102</ele>
<time>2012-05-01T14:06:19Z</time>
<desc>lat.=43.155148, lon.=19.119669, Alt.=1441.829102m. Speed=21.167999m/h.</desc>
<speed>5.880000</speed>
</trkpt>
<trkpt lat="43.155128" lon="19.120060">
<ele>1443.047852</ele>
<time>2012-05-01T14:06:24Z</time>
<desc>lat.=43.155128, lon.=19.120060, Alt.=1443.047852m. Speed=25.271999m/h.</desc>
<speed>7.020000</speed>
</trkpt>
<trkpt lat="43.155106" lon="19.120424">
<ele>1444.016602</ele>
<time>2012-05-01T14:06:29Z</time>
<desc>lat.=43.155106, lon.=19.120424, Alt.=1444.016602m. Speed=18.576000m/h.</desc>
<speed>5.160000</speed>
</trkpt>
<trkpt lat="43.155098" lon="19.120623">
<ele>1444.766602</ele>
<time>2012-05-01T14:06:34Z</time>
<desc>lat.=43.155098, lon.=19.120623, Alt.=1444.766602m. Speed=5.580000m/h.</desc>
<speed>1.550000</speed>
</trkpt>
<trkpt lat="43.155064" lon="19.120714">
<ele>1446.829102</ele>
<time>2012-05-01T14:06:39Z</time>
<desc>lat.=43.155064, lon.=19.120714, Alt.=1446.829102m. Speed=9.864000m/h.</desc>
<speed>2.740000</speed>
</trkpt>
<trkpt lat="43.155018" lon="19.120834">
<ele>1447.579102</ele>
<time>2012-05-01T14:06:44Z</time>
<desc>lat.=43.155018, lon.=19.120834, Alt.=1447.579102m. Speed=5.760000m/h.</desc>
<speed>1.600000</speed>
</trkpt>
<trkpt lat="43.154949" lon="19.120871">
<ele>1449.829102</ele>
<time>2012-05-01T14:06:49Z</time>
<desc>lat.=43.154949, lon.=19.120871, Alt.=1449.829102m. Speed=3.600000m/h.</desc>
<speed>1.000000</speed>
</trkpt>
<trkpt lat="43.154930" lon="19.120897">
<ele>1450.297852</ele>
<time>2012-05-01T14:06:54Z</time>
<desc>lat.=43.154930, lon.=19.120897, Alt.=1450.297852m. Speed=0.468000m/h.</desc>
<speed>0.130000</speed>
</trkpt>
<trkpt lat="43.154930" lon="19.120899">
<ele>1450.297852</ele>
<time>2012-05-01T14:06:59Z</time>
<desc>lat.=43.154930, lon.=19.120899, Alt.=1450.297852m. Speed=0.036000m/h.</desc>
<speed>0.010000</speed>
</trkpt>
<trkpt lat="43.154930" lon="19.120899">
<ele>1450.266602</ele>
<time>2012-05-01T14:07:04Z</time>
<desc>lat.=43.154930, lon.=19.120899, Alt.=1450.266602m. Speed=0.000000m/h.</desc>
<speed>0.000000</speed>
</trkpt>
<trkpt lat="43.154930" lon="19.120897">
<ele>1450.172852</ele>
<time>2012-05-01T14:07:09Z</time>
<desc>lat.=43.154930, lon.=19.120897, Alt.=1450.172852m. Speed=0.144000m/h.</desc>
<speed>0.040000</speed>
</trkpt>
<trkpt lat="43.154930" lon="19.120907">
<ele>1450.141602</ele>
<time>2012-05-01T14:07:14Z</time>
<desc>lat.=43.154930, lon.=19.120907, Alt.=1450.141602m. Speed=1.404000m/h.</desc>
<speed>0.390000</speed>
</trkpt>
<trkpt lat="43.154980" lon="19.120934">
<ele>1449.360352</ele>
<time>2012-05-01T14:07:19Z</time>
<desc>lat.=43.154980, lon.=19.120934, Alt.=1449.360352m. Speed=5.940000m/h.</desc>
<speed>1.650000</speed>
</trkpt>
<trkpt lat="43.155102" lon="19.120947">
<ele>1450.047852</ele>
<time>2012-05-01T14:07:24Z</time>
<desc>lat.=43.155102, lon.=19.120947, Alt.=1450.047852m. Speed=11.412000m/h.</desc>
<speed>3.170000</speed>
</trkpt>
<trkpt lat="43.155224" lon="19.120960">
<ele>1450.579102</ele>
<time>2012-05-01T14:07:29Z</time>
<desc>lat.=43.155224, lon.=19.120960, Alt.=1450.579102m. Speed=10.620000m/h.</desc>
<speed>2.950000</speed>
</trkpt>
<trkpt lat="43.155323" lon="19.120989">
<ele>1448.454102</ele>
<time>2012-05-01T14:07:34Z</time>
<desc>lat.=43.155323, lon.=19.120989, Alt.=1448.454102m. Speed=5.544000m/h.</desc>
<speed>1.540000</speed>
</trkpt>
<trkpt lat="43.155392" lon="19.120983">
<ele>1447.422852</ele>
<time>2012-05-01T14:07:39Z</time>
<desc>lat.=43.155392, lon.=19.120983, Alt.=1447.422852m. Speed=3.528000m/h.</desc>
<speed>0.980000</speed>
</trkpt>
<trkpt lat="43.155392" lon="19.120991">
<ele>1446.610352</ele>
<time>2012-05-01T14:07:44Z</time>
<desc>lat.=43.155392, lon.=19.120991, Alt.=1446.610352m. Speed=0.180000m/h.</desc>
<speed>0.050000</speed>
</trkpt>
<trkpt lat="43.155392" lon="19.120993">
<ele>1446.579102</ele>
<time>2012-05-01T14:07:49Z</time>
<desc>lat.=43.155392, lon.=19.120993, Alt.=1446.579102m. Speed=0.072000m/h.</desc>
<speed>0.020000</speed>
</trkpt>
<trkpt lat="43.155392" lon="19.120993">
<ele>1446.516602</ele>
<time>2012-05-01T14:07:54Z</time>
<desc>lat.=43.155392, lon.=19.120993, Alt.=1446.516602m. Speed=0.072000m/h.</desc>
<speed>0.020000</speed>
</trkpt>
<trkpt lat="43.155392" lon="19.120995">
<ele>1446.516602</ele>
<time>2012-05-01T14:07:59Z</time>
<desc>lat.=43.155392, lon.=19.120995, Alt.=1446.516602m. Speed=0.072000m/h.</desc>
<speed>0.020000</speed>
</trkpt>
<trkpt lat="43.155392" lon="19.120995">
<ele>1446.516602</ele>
<time>2012-05-01T14:08:04Z</time>
<desc>lat.=43.155392, lon.=19.120995, Alt.=1446.516602m. Speed=0.144000m/h.</desc>
<speed>0.040000</speed>
</trkpt>
<trkpt lat="43.155392" lon="19.120995">
<ele>1446.516602</ele>
<time>2012-05-01T14:08:09Z</time>
<desc>lat.=43.155392, lon.=19.120995, Alt.=1446.516602m. Speed=5.220000m/h.</desc>
<speed>1.450000</speed>
</trkpt>
<trkpt lat="43.155510" lon="19.121017">
<ele>1445.829102</ele>
<time>2012-05-01T14:08:14Z</time>
<desc>lat.=43.155510, lon.=19.121017, Alt.=1445.829102m. Speed=7.308000m/h.</desc>
<speed>2.030000</speed>
</trkpt>
<trkpt lat="43.155613" lon="19.120981">
<ele>1442.766602</ele>
<time>2012-05-01T14:08:19Z</time>
<desc>lat.=43.155613, lon.=19.120981, Alt.=1442.766602m. Speed=14.508000m/h.</desc>
<speed>4.030000</speed>
</trkpt>
<trkpt lat="43.155815" lon="19.121037">
<ele>1443.016602</ele>
<time>2012-05-01T14:08:24Z</time>
<desc>lat.=43.155815, lon.=19.121037, Alt.=1443.016602m. Speed=18.216000m/h.</desc>
<speed>5.060000</speed>
</trkpt>
<trkpt lat="43.156048" lon="19.121136">
<ele>1442.735352</ele>
<time>2012-05-01T14:08:29Z</time>
<desc>lat.=43.156048, lon.=19.121136, Alt.=1442.735352m. Speed=21.024000m/h.</desc>
<speed>5.840000</speed>
</trkpt>
<trkpt lat="43.156315" lon="19.121239">
<ele>1442.016602</ele>
<time>2012-05-01T14:08:34Z</time>
<desc>lat.=43.156315, lon.=19.121239, Alt.=1442.016602m. Speed=20.412001m/h.</desc>
<speed>5.670000</speed>
</trkpt>
<trkpt lat="43.156570" lon="19.121367">
<ele>1444.672852</ele>
<time>2012-05-01T14:08:39Z</time>
<desc>lat.=43.156570, lon.=19.121367, Alt.=1444.672852m. Speed=22.356001m/h.</desc>
<speed>6.210000</speed>
</trkpt>
<trkpt lat="43.156834" lon="19.121456">
<ele>1443.204102</ele>
<time>2012-05-01T14:08:44Z</time>
<desc>lat.=43.156834, lon.=19.121456, Alt.=1443.204102m. Speed=17.892000m/h.</desc>
<speed>4.970000</speed>
</trkpt>
<trkpt lat="43.157021" lon="19.121511">
<ele>1443.204102</ele>
<time>2012-05-01T14:08:49Z</time>
<desc>lat.=43.157021, lon.=19.121511, Alt.=1443.204102m. Speed=12.312000m/h.</desc>
<speed>3.420000</speed>
</trkpt>
<trkpt lat="43.157059" lon="19.121496">
<ele>1442.516602</ele>
<time>2012-05-01T14:08:54Z</time>
<desc>lat.=43.157059, lon.=19.121496, Alt.=1442.516602m. Speed=0.036000m/h.</desc>
<speed>0.010000</speed>
</trkpt>
<trkpt lat="43.157055" lon="19.121494">
<ele>1442.922852</ele>
<time>2012-05-01T14:08:59Z</time>
<desc>lat.=43.157055, lon.=19.121494, Alt.=1442.922852m. Speed=0.072000m/h.</desc>
<speed>0.020000</speed>
</trkpt>
<trkpt lat="43.157059" lon="19.121485">
<ele>1443.016602</ele>
<time>2012-05-01T14:09:04Z</time>
<desc>lat.=43.157059, lon.=19.121485, Alt.=1443.016602m. Speed=4.932000m/h.</desc>
<speed>1.370000</speed>
</trkpt>
<trkpt lat="43.156963" lon="19.121435">
<ele>1442.079102</ele>
<time>2012-05-01T14:09:09Z</time>
<desc>lat.=43.156963, lon.=19.121435, Alt.=1442.079102m. Speed=11.880000m/h.</desc>
<speed>3.300000</speed>
</trkpt>
<trkpt lat="43.156792" lon="19.121355">
<ele>1445.079102</ele>
<time>2012-05-01T14:09:14Z</time>
<desc>lat.=43.156792, lon.=19.121355, Alt.=1445.079102m. Speed=15.372000m/h.</desc>
<speed>4.270000</speed>
</trkpt>
<trkpt lat="43.156677" lon="19.121296">
<ele>1445.485352</ele>
<time>2012-05-01T14:09:19Z</time>
<desc>lat.=43.156677, lon.=19.121296, Alt.=1445.485352m. Speed=10.044000m/h.</desc>
<speed>2.790000</speed>
</trkpt>
<trkpt lat="43.156490" lon="19.121229">
<ele>1448.891602</ele>
<time>2012-05-01T14:09:24Z</time>
<desc>lat.=43.156490, lon.=19.121229, Alt.=1448.891602m. Speed=15.588000m/h.</desc>
<speed>4.330000</speed>
</trkpt>
<trkpt lat="43.156342" lon="19.121176">
<ele>1450.891602</ele>
<time>2012-05-01T14:09:29Z</time>
<desc>lat.=43.156342, lon.=19.121176, Alt.=1450.891602m. Speed=7.200000m/h.</desc>
<speed>2.000000</speed>
</trkpt>
<trkpt lat="43.156265" lon="19.121155">
<ele>1453.422852</ele>
<time>2012-05-01T14:09:34Z</time>
<desc>lat.=43.156265, lon.=19.121155, Alt.=1453.422852m. Speed=3.960000m/h.</desc>
<speed>1.100000</speed>
</trkpt>
<trkpt lat="43.156193" lon="19.121119">
<ele>1453.735352</ele>
<time>2012-05-01T14:09:39Z</time>
<desc>lat.=43.156193, lon.=19.121119, Alt.=1453.735352m. Speed=5.976000m/h.</desc>
<speed>1.660000</speed>
</trkpt>
<trkpt lat="43.156071" lon="19.121086">
<ele>1453.235352</ele>
<time>2012-05-01T14:09:44Z</time>
<desc>lat.=43.156071, lon.=19.121086, Alt.=1453.235352m. Speed=11.556000m/h.</desc>
<speed>3.210000</speed>
</trkpt>
<trkpt lat="43.155922" lon="19.121031">
<ele>1455.672852</ele>
<time>2012-05-01T14:09:49Z</time>
<desc>lat.=43.155922, lon.=19.121031, Alt.=1455.672852m. Speed=16.452000m/h.</desc>
<speed>4.570000</speed>
</trkpt>
<trkpt lat="43.155804" lon="19.120987">
<ele>1454.735352</ele>
<time>2012-05-01T14:09:54Z</time>
<desc>lat.=43.155804, lon.=19.120987, Alt.=1454.735352m. Speed=8.244000m/h.</desc>
<speed>2.290000</speed>
</trkpt>
<trkpt lat="43.155739" lon="19.120968">
<ele>1452.891602</ele>
<time>2012-05-01T14:09:59Z</time>
<desc>lat.=43.155739, lon.=19.120968, Alt.=1452.891602m. Speed=5.256000m/h.</desc>
<speed>1.460000</speed>
</trkpt>
<trkpt lat="43.155651" lon="19.120949">
<ele>1452.391602</ele>
<time>2012-05-01T14:10:04Z</time>
<desc>lat.=43.155651, lon.=19.120949, Alt.=1452.391602m. Speed=11.160000m/h.</desc>
<speed>3.100000</speed>
</trkpt>
<trkpt lat="43.155495" lon="19.120924">
<ele>1451.454102</ele>
<time>2012-05-01T14:10:09Z</time>
<desc>lat.=43.155495, lon.=19.120924, Alt.=1451.454102m. Speed=10.296000m/h.</desc>
<speed>2.860000</speed>
</trkpt>
<trkpt lat="43.155315" lon="19.120913">
<ele>1451.454102</ele>
<time>2012-05-01T14:10:14Z</time>
<desc>lat.=43.155315, lon.=19.120913, Alt.=1451.454102m. Speed=11.340000m/h.</desc>
<speed>3.150000</speed>
</trkpt>
<trkpt lat="43.155216" lon="19.120878">
<ele>1451.985352</ele>
<time>2012-05-01T14:10:19Z</time>
<desc>lat.=43.155216, lon.=19.120878, Alt.=1451.985352m. Speed=2.160000m/h.</desc>
<speed>0.600000</speed>
</trkpt>
<trkpt lat="43.155128" lon="19.120905">
<ele>1452.985352</ele>
<time>2012-05-01T14:10:24Z</time>
<desc>lat.=43.155128, lon.=19.120905, Alt.=1452.985352m. Speed=12.996000m/h.</desc>
<speed>3.610000</speed>
</trkpt>
<trkpt lat="43.155010" lon="19.121113">
<ele>1453.954102</ele>
<time>2012-05-01T14:10:29Z</time>
<desc>lat.=43.155010, lon.=19.121113, Alt.=1453.954102m. Speed=12.672000m/h.</desc>
<speed>3.520000</speed>
</trkpt>
<trkpt lat="43.154930" lon="19.121340">
<ele>1455.047852</ele>
<time>2012-05-01T14:10:34Z</time>
<desc>lat.=43.154930, lon.=19.121340, Alt.=1455.047852m. Speed=13.176000m/h.</desc>
<speed>3.660000</speed>
</trkpt>
<trkpt lat="43.154877" lon="19.121553">
<ele>1456.016602</ele>
<time>2012-05-01T14:10:39Z</time>
<desc>lat.=43.154877, lon.=19.121553, Alt.=1456.016602m. Speed=13.104000m/h.</desc>
<speed>3.640000</speed>
</trkpt>
<trkpt lat="43.154842" lon="19.121803">
<ele>1455.829102</ele>
<time>2012-05-01T14:10:44Z</time>
<desc>lat.=43.154842, lon.=19.121803, Alt.=1455.829102m. Speed=13.536000m/h.</desc>
<speed>3.760000</speed>
</trkpt>
<trkpt lat="43.154823" lon="19.122013">
<ele>1455.641602</ele>
<time>2012-05-01T14:10:49Z</time>
<desc>lat.=43.154823, lon.=19.122013, Alt.=1455.641602m. Speed=10.872000m/h.</desc>
<speed>3.020000</speed>
</trkpt>
<trkpt lat="43.154797" lon="19.122229">
<ele>1455.110352</ele>
<time>2012-05-01T14:10:54Z</time>
<desc>lat.=43.154797, lon.=19.122229, Alt.=1455.110352m. Speed=12.780000m/h.</desc>
<speed>3.550000</speed>
</trkpt>
<trkpt lat="43.154720" lon="19.122318">
<ele>1457.172852</ele>
<time>2012-05-01T14:10:59Z</time>
<desc>lat.=43.154720, lon.=19.122318, Alt.=1457.172852m. Speed=12.924000m/h.</desc>
<speed>3.590000</speed>
</trkpt>
<trkpt lat="43.154606" lon="19.122299">
<ele>1457.391602</ele>
<time>2012-05-01T14:11:04Z</time>
<desc>lat.=43.154606, lon.=19.122299, Alt.=1457.391602m. Speed=5.940000m/h.</desc>
<speed>1.650000</speed>
</trkpt>
<trkpt lat="43.154491" lon="19.122295">
<ele>1457.797852</ele>
<time>2012-05-01T14:11:09Z</time>
<desc>lat.=43.154491, lon.=19.122295, Alt.=1457.797852m. Speed=2.844000m/h.</desc>
<speed>0.790000</speed>
</trkpt>
<trkpt lat="43.154411" lon="19.122385">
<ele>1459.016602</ele>
<time>2012-05-01T14:11:14Z</time>
<desc>lat.=43.154411, lon.=19.122385, Alt.=1459.016602m. Speed=7.380000m/h.</desc>
<speed>2.050000</speed>
</trkpt>
<trkpt lat="43.154366" lon="19.122450">
<ele>1457.172852</ele>
<time>2012-05-01T14:11:19Z</time>
<desc>lat.=43.154366, lon.=19.122450, Alt.=1457.172852m. Speed=3.492000m/h.</desc>
<speed>0.970000</speed>
</trkpt>
<trkpt lat="43.154358" lon="19.122459">
<ele>1457.079102</ele>
<time>2012-05-01T14:11:24Z</time>
<desc>lat.=43.154358, lon.=19.122459, Alt.=1457.079102m. Speed=0.288000m/h.</desc>
<speed>0.080000</speed>
</trkpt>
<trkpt lat="43.154358" lon="19.122459">
<ele>1457.079102</ele>
<time>2012-05-01T14:11:29Z</time>
<desc>lat.=43.154358, lon.=19.122459, Alt.=1457.079102m. Speed=0.108000m/h.</desc>
<speed>0.030000</speed>
</trkpt>
<trkpt lat="43.154358" lon="19.122458">
<ele>1457.079102</ele>
<time>2012-05-01T14:11:34Z</time>
<desc>lat.=43.154358, lon.=19.122458, Alt.=1457.079102m. Speed=0.900000m/h.</desc>
<speed>0.250000</speed>
</trkpt>
<trkpt lat="43.154354" lon="19.122471">
<ele>1457.047852</ele>
<time>2012-05-01T14:11:39Z</time>
<desc>lat.=43.154354, lon.=19.122471, Alt.=1457.047852m. Speed=2.700000m/h.</desc>
<speed>0.750000</speed>
</trkpt>
<trkpt lat="43.154343" lon="19.122501">
<ele>1456.954102</ele>
<time>2012-05-01T14:11:44Z</time>
<desc>lat.=43.154343, lon.=19.122501, Alt.=1456.954102m. Speed=0.468000m/h.</desc>
<speed>0.130000</speed>
</trkpt>
<trkpt lat="43.154350" lon="19.122499">
<ele>1456.922852</ele>
<time>2012-05-01T14:11:49Z</time>
<desc>lat.=43.154350, lon.=19.122499, Alt.=1456.922852m. Speed=0.864000m/h.</desc>
<speed>0.240000</speed>
</trkpt>
<trkpt lat="43.154354" lon="19.122499">
<ele>1456.891602</ele>
<time>2012-05-01T14:11:54Z</time>
<desc>lat.=43.154354, lon.=19.122499, Alt.=1456.891602m. Speed=0.288000m/h.</desc>
<speed>0.080000</speed>
</trkpt>
<trkpt lat="43.154358" lon="19.122499">
<ele>1457.079102</ele>
<time>2012-05-01T14:11:59Z</time>
<desc>lat.=43.154358, lon.=19.122499, Alt.=1457.079102m. Speed=0.252000m/h.</desc>
<speed>0.070000</speed>
</trkpt>
<trkpt lat="43.154366" lon="19.122498">
<ele>1457.547852</ele>
<time>2012-05-01T14:12:04Z</time>
<desc>lat.=43.154366, lon.=19.122498, Alt.=1457.547852m. Speed=0.504000m/h.</desc>
<speed>0.140000</speed>
</trkpt>
<trkpt lat="43.154369" lon="19.122496">
<ele>1458.079102</ele>
<time>2012-05-01T14:12:09Z</time>
<desc>lat.=43.154369, lon.=19.122496, Alt.=1458.079102m. Speed=0.504000m/h.</desc>
<speed>0.140000</speed>
</trkpt>
<trkpt lat="43.154366" lon="19.122494">
<ele>1458.516602</ele>
<time>2012-05-01T14:12:14Z</time>
<desc>lat.=43.154366, lon.=19.122494, Alt.=1458.516602m. Speed=0.972000m/h.</desc>
<speed>0.270000</speed>
</trkpt>
<trkpt lat="43.154362" lon="19.122488">
<ele>1458.735352</ele>
<time>2012-05-01T14:12:19Z</time>
<desc>lat.=43.154362, lon.=19.122488, Alt.=1458.735352m. Speed=0.504000m/h.</desc>
<speed>0.140000</speed>
</trkpt>
<trkpt lat="43.154366" lon="19.122486">
<ele>1458.672852</ele>
<time>2012-05-01T14:12:24Z</time>
<desc>lat.=43.154366, lon.=19.122486, Alt.=1458.672852m. Speed=0.540000m/h.</desc>
<speed>0.150000</speed>
</trkpt>
<trkpt lat="43.154366" lon="19.122484">
<ele>1458.672852</ele>
<time>2012-05-01T14:12:29Z</time>
<desc>lat.=43.154366, lon.=19.122484, Alt.=1458.672852m. Speed=0.252000m/h.</desc>
<speed>0.070000</speed>
</trkpt>
<trkpt lat="43.154377" lon="19.122471">
<ele>1458.610352</ele>
<time>2012-05-01T14:12:34Z</time>
<desc>lat.=43.154377, lon.=19.122471, Alt.=1458.610352m. Speed=1.800000m/h.</desc>
<speed>0.500000</speed>
</trkpt>
<trkpt lat="43.154388" lon="19.122486">
<ele>1458.641602</ele>
<time>2012-05-01T14:12:39Z</time>
<desc>lat.=43.154388, lon.=19.122486, Alt.=1458.641602m. Speed=0.684000m/h.</desc>
<speed>0.190000</speed>
</trkpt>
<trkpt lat="43.154392" lon="19.122467">
<ele>1458.704102</ele>
<time>2012-05-01T14:12:44Z</time>
<desc>lat.=43.154392, lon.=19.122467, Alt.=1458.704102m. Speed=1.800000m/h.</desc>
<speed>0.500000</speed>
</trkpt>
<trkpt lat="43.154411" lon="19.122421">
<ele>1458.766602</ele>
<time>2012-05-01T14:12:49Z</time>
<desc>lat.=43.154411, lon.=19.122421, Alt.=1458.766602m. Speed=3.960000m/h.</desc>
<speed>1.100000</speed>
</trkpt>
<trkpt lat="43.154404" lon="19.122364">
<ele>1458.329102</ele>
<time>2012-05-01T14:12:54Z</time>
<desc>lat.=43.154404, lon.=19.122364, Alt.=1458.329102m. Speed=0.576000m/h.</desc>
<speed>0.160000</speed>
</trkpt>
<trkpt lat="43.154396" lon="19.122355">
<ele>1458.391602</ele>
<time>2012-05-01T14:12:59Z</time>
<desc>lat.=43.154396, lon.=19.122355, Alt.=1458.391602m. Speed=0.144000m/h.</desc>
<speed>0.040000</speed>
</trkpt>
<trkpt lat="43.154400" lon="19.122362">
<ele>1458.485352</ele>
<time>2012-05-01T14:13:04Z</time>
<desc>lat.=43.154400, lon.=19.122362, Alt.=1458.485352m. Speed=0.216000m/h.</desc>
<speed>0.060000</speed>
</trkpt>
<trkpt lat="43.154400" lon="19.122362">
<ele>1458.485352</ele>
<time>2012-05-01T14:13:09Z</time>
<desc>lat.=43.154400, lon.=19.122362, Alt.=1458.485352m. Speed=0.144000m/h.</desc>
<speed>0.040000</speed>
</trkpt>
<trkpt lat="43.154396" lon="19.122362">
<ele>1458.516602</ele>
<time>2012-05-01T14:13:14Z</time>
<desc>lat.=43.154396, lon.=19.122362, Alt.=1458.516602m. Speed=0.180000m/h.</desc>
<speed>0.050000</speed>
</trkpt>
<trkpt lat="43.154400" lon="19.122362">
<ele>1458.610352</ele>
<time>2012-05-01T14:13:19Z</time>
<desc>lat.=43.154400, lon.=19.122362, Alt.=1458.610352m. Speed=0.108000m/h.</desc>
<speed>0.030000</speed>
</trkpt>
<trkpt lat="43.154400" lon="19.122362">
<ele>1458.641602</ele>
<time>2012-05-01T14:13:24Z</time>
<desc>lat.=43.154400, lon.=19.122362, Alt.=1458.641602m. Speed=0.000000m/h.</desc>
<speed>0.000000</speed>
</trkpt>
<trkpt lat="43.154400" lon="19.122362">
<ele>1458.641602</ele>
<time>2012-05-01T14:13:29Z</time>
<desc>lat.=43.154400, lon.=19.122362, Alt.=1458.641602m. Speed=0.000000m/h.</desc>
<speed>0.000000</speed>
</trkpt>
<trkpt lat="43.154400" lon="19.122362">
<ele>1458.672852</ele>
<time>2012-05-01T14:13:34Z</time>
<desc>lat.=43.154400, lon.=19.122362, Alt.=1458.672852m. Speed=0.072000m/h.</desc>
<speed>0.020000</speed>
</trkpt>
<trkpt lat="43.154400" lon="19.122362">
<ele>1458.672852</ele>
<time>2012-05-01T14:13:39Z</time>
<desc>lat.=43.154400, lon.=19.122362, Alt.=1458.672852m. Speed=0.000000m/h.</desc>
<speed>0.000000</speed>
</trkpt>
<trkpt lat="43.154400" lon="19.122360">
<ele>1458.704102</ele>
<time>2012-05-01T14:13:44Z</time>
<desc>lat.=43.154400, lon.=19.122360, Alt.=1458.704102m. Speed=0.036000m/h.</desc>
<speed>0.010000</speed>
</trkpt>
<trkpt lat="43.154400" lon="19.122360">
<ele>1458.735352</ele>
<time>2012-05-01T14:13:49Z</time>
<desc>lat.=43.154400, lon.=19.122360, Alt.=1458.735352m. Speed=0.000000m/h.</desc>
<speed>0.000000</speed>
</trkpt>
<trkpt lat="43.154400" lon="19.122360">
<ele>1458.735352</ele>
<time>2012-05-01T14:13:54Z</time>
<desc>lat.=43.154400, lon.=19.122360, Alt.=1458.735352m. Speed=0.000000m/h.</desc>
<speed>0.000000</speed>
</trkpt>
<trkpt lat="43.154400" lon="19.122358">
<ele>1458.766602</ele>
<time>2012-05-01T14:13:59Z</time>
<desc>lat.=43.154400, lon.=19.122358, Alt.=1458.766602m. Speed=0.000000m/h.</desc>
<speed>0.000000</speed>
</trkpt>
<trkpt lat="43.154400" lon="19.122356">
<ele>1458.766602</ele>
<time>2012-05-01T14:14:04Z</time>
<desc>lat.=43.154400, lon.=19.122356, Alt.=1458.766602m. Speed=0.000000m/h.</desc>
<speed>0.000000</speed>
</trkpt>
<trkpt lat="43.154404" lon="19.122356">
<ele>1458.797852</ele>
<time>2012-05-01T14:14:09Z</time>
<desc>lat.=43.154404, lon.=19.122356, Alt.=1458.797852m. Speed=0.000000m/h.</desc>
<speed>0.000000</speed>
</trkpt>
<trkpt lat="43.154404" lon="19.122355">
<ele>1458.829102</ele>
<time>2012-05-01T14:14:14Z</time>
<desc>lat.=43.154404, lon.=19.122355, Alt.=1458.829102m. Speed=0.000000m/h.</desc>
<speed>0.000000</speed>
</trkpt>
<trkpt lat="43.154404" lon="19.122355">
<ele>1458.860352</ele>
<time>2012-05-01T14:14:19Z</time>
<desc>lat.=43.154404, lon.=19.122355, Alt.=1458.860352m. Speed=0.000000m/h.</desc>
<speed>0.000000</speed>
</trkpt>
<trkpt lat="43.154404" lon="19.122355">
<ele>1458.860352</ele>
<time>2012-05-01T14:14:24Z</time>
<desc>lat.=43.154404, lon.=19.122355, Alt.=1458.860352m. Speed=0.000000m/h.</desc>
<speed>0.000000</speed>
</trkpt>
<trkpt lat="43.154404" lon="19.122355">
<ele>1458.891602</ele>
<time>2012-05-01T14:14:29Z</time>
<desc>lat.=43.154404, lon.=19.122355, Alt.=1458.891602m. Speed=0.000000m/h.</desc>
<speed>0.000000</speed>
</trkpt>
<trkpt lat="43.154404" lon="19.122355">
<ele>1458.891602</ele>
<time>2012-05-01T14:14:34Z</time>
<desc>lat.=43.154404, lon.=19.122355, Alt.=1458.891602m. Speed=0.000000m/h.</desc>
<speed>0.000000</speed>
</trkpt>
<trkpt lat="43.154404" lon="19.122355">
<ele>1458.891602</ele>
<time>2012-05-01T14:14:39Z</time>
<desc>lat.=43.154404, lon.=19.122355, Alt.=1458.891602m. Speed=0.000000m/h.</desc>
<speed>0.000000</speed>
</trkpt>
<trkpt lat="43.154404" lon="19.122355">
<ele>1458.860352</ele>
<time>2012-05-01T14:14:44Z</time>
<desc>lat.=43.154404, lon.=19.122355, Alt.=1458.860352m. Speed=0.000000m/h.</desc>
<speed>0.000000</speed>
</trkpt>
<trkpt lat="43.154404" lon="19.122355">
<ele>1458.860352</ele>
<time>2012-05-01T14:14:49Z</time>
<desc>lat.=43.154404, lon.=19.122355, Alt.=1458.860352m. Speed=0.000000m/h.</desc>
<speed>0.000000</speed>
</trkpt>
<trkpt lat="43.154404" lon="19.122355">
<ele>1458.860352</ele>
<time>2012-05-01T14:14:54Z</time>
<desc>lat.=43.154404, lon.=19.122355, Alt.=1458.860352m. Speed=0.000000m/h.</desc>
<speed>0.000000</speed>
</trkpt>
<trkpt lat="43.154404" lon="19.122355">
<ele>1458.891602</ele>
<time>2012-05-01T14:14:59Z</time>
<desc>lat.=43.154404, lon.=19.122355, Alt.=1458.891602m. Speed=0.036000m/h.</desc>
<speed>0.010000</speed>
</trkpt>
<trkpt lat="43.154404" lon="19.122355">
<ele>1458.860352</ele>
<time>2012-05-01T14:15:04Z</time>
<desc>lat.=43.154404, lon.=19.122355, Alt.=1458.860352m. Speed=0.000000m/h.</desc>
<speed>0.000000</speed>
</trkpt>
<trkpt lat="43.154408" lon="19.122355">
<ele>1458.891602</ele>
<time>2012-05-01T14:15:09Z</time>
<desc>lat.=43.154408, lon.=19.122355, Alt.=1458.891602m. Speed=0.036000m/h.</desc>
<speed>0.010000</speed>
</trkpt>
<trkpt lat="43.154408" lon="19.122355">
<ele>1458.860352</ele>
<time>2012-05-01T14:15:14Z</time>
<desc>lat.=43.154408, lon.=19.122355, Alt.=1458.860352m. Speed=0.000000m/h.</desc>
<speed>0.000000</speed>
</trkpt>
<trkpt lat="43.154408" lon="19.122355">
<ele>1458.797852</ele>
<time>2012-05-01T14:15:19Z</time>
<desc>lat.=43.154408, lon.=19.122355, Alt.=1458.797852m. Speed=0.000000m/h.</desc>
<speed>0.000000</speed>
</trkpt>
<trkpt lat="43.154408" lon="19.122355">
<ele>1458.860352</ele>
<time>2012-05-01T14:15:24Z</time>
<desc>lat.=43.154408, lon.=19.122355, Alt.=1458.860352m. Speed=0.000000m/h.</desc>
<speed>0.000000</speed>
</trkpt>
<trkpt lat="43.154408" lon="19.122355">
<ele>1458.922852</ele>
<time>2012-05-01T14:15:29Z</time>
<desc>lat.=43.154408, lon.=19.122355, Alt.=1458.922852m. Speed=0.036000m/h.</desc>
<speed>0.010000</speed>
</trkpt>
<trkpt lat="43.154408" lon="19.122355">
<ele>1458.922852</ele>
<time>2012-05-01T14:15:34Z</time>
<desc>lat.=43.154408, lon.=19.122355, Alt.=1458.922852m. Speed=0.000000m/h.</desc>
<speed>0.000000</speed>
</trkpt>
<trkpt lat="43.154408" lon="19.122355">
<ele>1458.954102</ele>
<time>2012-05-01T14:15:39Z</time>
<desc>lat.=43.154408, lon.=19.122355, Alt.=1458.954102m. Speed=0.000000m/h.</desc>
<speed>0.000000</speed>
</trkpt>
<trkpt lat="43.154408" lon="19.122355">
<ele>1458.954102</ele>
<time>2012-05-01T14:15:44Z</time>
<desc>lat.=43.154408, lon.=19.122355, Alt.=1458.954102m. Speed=0.000000m/h.</desc>
<speed>0.000000</speed>
</trkpt>
<trkpt lat="43.154408" lon="19.122355">
<ele>1459.016602</ele>
<time>2012-05-01T14:15:49Z</time>
<desc>lat.=43.154408, lon.=19.122355, Alt.=1459.016602m. Speed=0.000000m/h.</desc>
<speed>0.000000</speed>
</trkpt>
<trkpt lat="43.154408" lon="19.122353">
<ele>1459.047852</ele>
<time>2012-05-01T14:15:54Z</time>
<desc>lat.=43.154408, lon.=19.122353, Alt.=1459.047852m. Speed=0.000000m/h.</desc>
<speed>0.000000</speed>
</trkpt>
<trkpt lat="43.154408" lon="19.122353">
<ele>1459.110352</ele>
<time>2012-05-01T14:15:59Z</time>
<desc>lat.=43.154408, lon.=19.122353, Alt.=1459.110352m. Speed=0.036000m/h.</desc>
<speed>0.010000</speed>
</trkpt>
<trkpt lat="43.154408" lon="19.122351">
<ele>1459.110352</ele>
<time>2012-05-01T14:16:04Z</time>
<desc>lat.=43.154408, lon.=19.122351, Alt.=1459.110352m. Speed=0.000000m/h.</desc>
<speed>0.000000</speed>
</trkpt>
<trkpt lat="43.154408" lon="19.122351">
<ele>1459.079102</ele>
<time>2012-05-01T14:16:09Z</time>
<desc>lat.=43.154408, lon.=19.122351, Alt.=1459.079102m. Speed=0.000000m/h.</desc>
<speed>0.000000</speed>
</trkpt>
<trkpt lat="43.154408" lon="19.122351">
<ele>1459.047852</ele>
<time>2012-05-01T14:16:14Z</time>
<desc>lat.=43.154408, lon.=19.122351, Alt.=1459.047852m. Speed=0.036000m/h.</desc>
<speed>0.010000</speed>
</trkpt>
<trkpt lat="43.154408" lon="19.122351">
<ele>1459.047852</ele>
<time>2012-05-01T14:16:19Z</time>
<desc>lat.=43.154408, lon.=19.122351, Alt.=1459.047852m. Speed=0.036000m/h.</desc>
<speed>0.010000</speed>
</trkpt>
<trkpt lat="43.154408" lon="19.122351">
<ele>1459.016602</ele>
<time>2012-05-01T14:16:24Z</time>
<desc>lat.=43.154408, lon.=19.122351, Alt.=1459.016602m. Speed=0.000000m/h.</desc>
<speed>0.000000</speed>
</trkpt>
<trkpt lat="43.154408" lon="19.122351">
<ele>1459.016602</ele>
<time>2012-05-01T14:16:29Z</time>
<desc>lat.=43.154408, lon.=19.122351, Alt.=1459.016602m. Speed=0.000000m/h.</desc>
<speed>0.000000</speed>
</trkpt>
<trkpt lat="43.154408" lon="19.122351">
<ele>1458.985352</ele>
<time>2012-05-01T14:16:34Z</time>
<desc>lat.=43.154408, lon.=19.122351, Alt.=1458.985352m. Speed=0.000000m/h.</desc>
<speed>0.000000</speed>
</trkpt>
<trkpt lat="43.154408" lon="19.122351">
<ele>1458.922852</ele>
<time>2012-05-01T14:16:39Z</time>
<desc>lat.=43.154408, lon.=19.122351, Alt.=1458.922852m. Speed=0.000000m/h.</desc>
<speed>0.000000</speed>
</trkpt>
<trkpt lat="43.154408" lon="19.122351">
<ele>1458.891602</ele>
<time>2012-05-01T14:16:44Z</time>
<desc>lat.=43.154408, lon.=19.122351, Alt.=1458.891602m. Speed=0.000000m/h.</desc>
<speed>0.000000</speed>
</trkpt>
<trkpt lat="43.154408" lon="19.122351">
<ele>1458.860352</ele>
<time>2012-05-01T14:16:49Z</time>
<desc>lat.=43.154408, lon.=19.122351, Alt.=1458.860352m. Speed=0.000000m/h.</desc>
<speed>0.000000</speed>
</trkpt>
<trkpt lat="43.154408" lon="19.122351">
<ele>1458.829102</ele>
<time>2012-05-01T14:16:54Z</time>
<desc>lat.=43.154408, lon.=19.122351, Alt.=1458.829102m. Speed=0.000000m/h.</desc>
<speed>0.000000</speed>
</trkpt>
<trkpt lat="43.154408" lon="19.122351">
<ele>1458.797852</ele>
<time>2012-05-01T14:16:59Z</time>
<desc>lat.=43.154408, lon.=19.122351, Alt.=1458.797852m. Speed=0.000000m/h.</desc>
<speed>0.000000</speed>
</trkpt>
<trkpt lat="43.154408" lon="19.122349">
<ele>1458.766602</ele>
<time>2012-05-01T14:17:04Z</time>
<desc>lat.=43.154408, lon.=19.122349, Alt.=1458.766602m. Speed=0.000000m/h.</desc>
<speed>0.000000</speed>
</trkpt>
<trkpt lat="43.154408" lon="19.122349">
<ele>1458.766602</ele>
<time>2012-05-01T14:17:09Z</time>
<desc>lat.=43.154408, lon.=19.122349, Alt.=1458.766602m. Speed=0.036000m/h.</desc>
<speed>0.010000</speed>
</trkpt>
<trkpt lat="43.154408" lon="19.122349">
<ele>1458.704102</ele>
<time>2012-05-01T14:17:14Z</time>
<desc>lat.=43.154408, lon.=19.122349, Alt.=1458.704102m. Speed=0.072000m/h.</desc>
<speed>0.020000</speed>
</trkpt>
<trkpt lat="43.154408" lon="19.122349">
<ele>1458.672852</ele>
<time>2012-05-01T14:17:19Z</time>
<desc>lat.=43.154408, lon.=19.122349, Alt.=1458.672852m. Speed=0.000000m/h.</desc>
<speed>0.000000</speed>
</trkpt>
<trkpt lat="43.154408" lon="19.122349">
<ele>1458.641602</ele>
<time>2012-05-01T14:17:24Z</time>
<desc>lat.=43.154408, lon.=19.122349, Alt.=1458.641602m. Speed=0.072000m/h.</desc>
<speed>0.020000</speed>
</trkpt>
<trkpt lat="43.154408" lon="19.122349">
<ele>1458.610352</ele>
<time>2012-05-01T14:17:29Z</time>
<desc>lat.=43.154408, lon.=19.122349, Alt.=1458.610352m. Speed=0.036000m/h.</desc>
<speed>0.010000</speed>
</trkpt>
<trkpt lat="43.154408" lon="19.122349">
<ele>1458.579102</ele>
<time>2012-05-01T14:17:34Z</time>
<desc>lat.=43.154408, lon.=19.122349, Alt.=1458.579102m. Speed=0.000000m/h.</desc>
<speed>0.000000</speed>
</trkpt>
<trkpt lat="43.154408" lon="19.122349">
<ele>1458.547852</ele>
<time>2012-05-01T14:17:39Z</time>
<desc>lat.=43.154408, lon.=19.122349, Alt.=1458.547852m. Speed=0.036000m/h.</desc>
<speed>0.010000</speed>
</trkpt>
<trkpt lat="43.154408" lon="19.122349">
<ele>1458.547852</ele>
<time>2012-05-01T14:17:44Z</time>
<desc>lat.=43.154408, lon.=19.122349, Alt.=1458.547852m. Speed=0.036000m/h.</desc>
<speed>0.010000</speed>
</trkpt>
<trkpt lat="43.154408" lon="19.122351">
<ele>1458.516602</ele>
<time>2012-05-01T14:17:49Z</time>
<desc>lat.=43.154408, lon.=19.122351, Alt.=1458.516602m. Speed=0.108000m/h.</desc>
<speed>0.030000</speed>
</trkpt>
<trkpt lat="43.154411" lon="19.122351">
<ele>1458.485352</ele>
<time>2012-05-01T14:17:54Z</time>
<desc>lat.=43.154411, lon.=19.122351, Alt.=1458.485352m. Speed=0.108000m/h.</desc>
<speed>0.030000</speed>
</trkpt>
<trkpt lat="43.154411" lon="19.122351">
<ele>1458.454102</ele>
<time>2012-05-01T14:17:59Z</time>
<desc>lat.=43.154411, lon.=19.122351, Alt.=1458.454102m. Speed=0.108000m/h.</desc>
<speed>0.030000</speed>
</trkpt>
<trkpt lat="43.154411" lon="19.122351">
<ele>1458.422852</ele>
<time>2012-05-01T14:18:04Z</time>
<desc>lat.=43.154411, lon.=19.122351, Alt.=1458.422852m. Speed=0.036000m/h.</desc>
<speed>0.010000</speed>
</trkpt>
<trkpt lat="43.154411" lon="19.122351">
<ele>1458.391602</ele>
<time>2012-05-01T14:18:09Z</time>
<desc>lat.=43.154411, lon.=19.122351, Alt.=1458.391602m. Speed=0.072000m/h.</desc>
<speed>0.020000</speed>
</trkpt>
<trkpt lat="43.154411" lon="19.122351">
<ele>1458.329102</ele>
<time>2012-05-01T14:18:14Z</time>
<desc>lat.=43.154411, lon.=19.122351, Alt.=1458.329102m. Speed=0.072000m/h.</desc>
<speed>0.020000</speed>
</trkpt>
<trkpt lat="43.154411" lon="19.122351">
<ele>1458.266602</ele>
<time>2012-05-01T14:18:19Z</time>
<desc>lat.=43.154411, lon.=19.122351, Alt.=1458.266602m. Speed=0.000000m/h.</desc>
<speed>0.000000</speed>
</trkpt>
<trkpt lat="43.154411" lon="19.122349">
<ele>1458.235352</ele>
<time>2012-05-01T14:18:24Z</time>
<desc>lat.=43.154411, lon.=19.122349, Alt.=1458.235352m. Speed=0.000000m/h.</desc>
<speed>0.000000</speed>
</trkpt>
<trkpt lat="43.154411" lon="19.122347">
<ele>1458.235352</ele>
<time>2012-05-01T14:18:29Z</time>
<desc>lat.=43.154411, lon.=19.122347, Alt.=1458.235352m. Speed=0.072000m/h.</desc>
<speed>0.020000</speed>
</trkpt>
<trkpt lat="43.154411" lon="19.122345">
<ele>1458.235352</ele>
<time>2012-05-01T14:18:34Z</time>
<desc>lat.=43.154411, lon.=19.122345, Alt.=1458.235352m. Speed=0.108000m/h.</desc>
<speed>0.030000</speed>
</trkpt>
<trkpt lat="43.154411" lon="19.122345">
<ele>1458.235352</ele>
<time>2012-05-01T14:18:39Z</time>
<desc>lat.=43.154411, lon.=19.122345, Alt.=1458.235352m. Speed=0.000000m/h.</desc>
<speed>0.000000</speed>
</trkpt>
<trkpt lat="43.154411" lon="19.122343">
<ele>1458.235352</ele>
<time>2012-05-01T14:18:44Z</time>
<desc>lat.=43.154411, lon.=19.122343, Alt.=1458.235352m. Speed=0.000000m/h.</desc>
<speed>0.000000</speed>
</trkpt>
<trkpt lat="43.154411" lon="19.122343">
<ele>1458.235352</ele>
<time>2012-05-01T14:18:49Z</time>
<desc>lat.=43.154411, lon.=19.122343, Alt.=1458.235352m. Speed=0.000000m/h.</desc>
<speed>0.000000</speed>
</trkpt>
<trkpt lat="43.154411" lon="19.122343">
<ele>1458.266602</ele>
<time>2012-05-01T14:18:54Z</time>
<desc>lat.=43.154411, lon.=19.122343, Alt.=1458.266602m. Speed=0.000000m/h.</desc>
<speed>0.000000</speed>
</trkpt>
<trkpt lat="43.154411" lon="19.122343">
<ele>1458.266602</ele>
<time>2012-05-01T14:18:59Z</time>
<desc>lat.=43.154411, lon.=19.122343, Alt.=1458.266602m. Speed=0.036000m/h.</desc>
<speed>0.010000</speed>
</trkpt>
<trkpt lat="43.154411" lon="19.122341">
<ele>1458.266602</ele>
<time>2012-05-01T14:19:04Z</time>
<desc>lat.=43.154411, lon.=19.122341, Alt.=1458.266602m. Speed=0.072000m/h.</desc>
<speed>0.020000</speed>
</trkpt>
<trkpt lat="43.154411" lon="19.122341">
<ele>1458.266602</ele>
<time>2012-05-01T14:19:09Z</time>
<desc>lat.=43.154411, lon.=19.122341, Alt.=1458.266602m. Speed=0.072000m/h.</desc>
<speed>0.020000</speed>
</trkpt>
<trkpt lat="43.154411" lon="19.122341">
<ele>1458.266602</ele>
<time>2012-05-01T14:19:14Z</time>
<desc>lat.=43.154411, lon.=19.122341, Alt.=1458.266602m. Speed=0.108000m/h.</desc>
<speed>0.030000</speed>
</trkpt>
<trkpt lat="43.154411" lon="19.122341">
<ele>1458.235352</ele>
<time>2012-05-01T14:19:19Z</time>
<desc>lat.=43.154411, lon.=19.122341, Alt.=1458.235352m. Speed=0.036000m/h.</desc>
<speed>0.010000</speed>
</trkpt>
<trkpt lat="43.154411" lon="19.122341">
<ele>1458.235352</ele>
<time>2012-05-01T14:19:24Z</time>
<desc>lat.=43.154411, lon.=19.122341, Alt.=1458.235352m. Speed=0.072000m/h.</desc>
<speed>0.020000</speed>
</trkpt>
<trkpt lat="43.154408" lon="19.122341">
<ele>1458.235352</ele>
<time>2012-05-01T14:19:29Z</time>
<desc>lat.=43.154408, lon.=19.122341, Alt.=1458.235352m. Speed=0.000000m/h.</desc>
<speed>0.000000</speed>
</trkpt>
<trkpt lat="43.154411" lon="19.122339">
<ele>1458.172852</ele>
<time>2012-05-01T14:19:34Z</time>
<desc>lat.=43.154411, lon.=19.122339, Alt.=1458.172852m. Speed=0.036000m/h.</desc>
<speed>0.010000</speed>
</trkpt>
<trkpt lat="43.154411" lon="19.122339">
<ele>1458.141602</ele>
<time>2012-05-01T14:19:39Z</time>
<desc>lat.=43.154411, lon.=19.122339, Alt.=1458.141602m. Speed=0.036000m/h.</desc>
<speed>0.010000</speed>
</trkpt>
<trkpt lat="43.154411" lon="19.122339">
<ele>1458.110352</ele>
<time>2012-05-01T14:19:44Z</time>
<desc>lat.=43.154411, lon.=19.122339, Alt.=1458.110352m. Speed=0.036000m/h.</desc>
<speed>0.010000</speed>
</trkpt>
<trkpt lat="43.154411" lon="19.122337">
<ele>1458.110352</ele>
<time>2012-05-01T14:19:49Z</time>
<desc>lat.=43.154411, lon.=19.122337, Alt.=1458.110352m. Speed=0.072000m/h.</desc>
<speed>0.020000</speed>
</trkpt>
<trkpt lat="43.154408" lon="19.122337">
<ele>1458.110352</ele>
<time>2012-05-01T14:19:54Z</time>
<desc>lat.=43.154408, lon.=19.122337, Alt.=1458.110352m. Speed=0.144000m/h.</desc>
<speed>0.040000</speed>
</trkpt>
<trkpt lat="43.154408" lon="19.122335">
<ele>1458.110352</ele>
<time>2012-05-01T14:19:59Z</time>
<desc>lat.=43.154408, lon.=19.122335, Alt.=1458.110352m. Speed=0.072000m/h.</desc>
<speed>0.020000</speed>
</trkpt>
<trkpt lat="43.154408" lon="19.122335">
<ele>1458.079102</ele>
<time>2012-05-01T14:20:04Z</time>
<desc>lat.=43.154408, lon.=19.122335, Alt.=1458.079102m. Speed=0.000000m/h.</desc>
<speed>0.000000</speed>
</trkpt>
<trkpt lat="43.154408" lon="19.122335">
<ele>1458.047852</ele>
<time>2012-05-01T14:20:09Z</time>
<desc>lat.=43.154408, lon.=19.122335, Alt.=1458.047852m. Speed=0.000000m/h.</desc>
<speed>0.000000</speed>
</trkpt>
<trkpt lat="43.154408" lon="19.122335">
<ele>1458.016602</ele>
<time>2012-05-01T14:20:14Z</time>
<desc>lat.=43.154408, lon.=19.122335, Alt.=1458.016602m. Speed=0.108000m/h.</desc>
<speed>0.030000</speed>
</trkpt>
<trkpt lat="43.154408" lon="19.122335">
<ele>1457.985352</ele>
<time>2012-05-01T14:20:19Z</time>
<desc>lat.=43.154408, lon.=19.122335, Alt.=1457.985352m. Speed=0.000000m/h.</desc>
<speed>0.000000</speed>
</trkpt>
<trkpt lat="43.154408" lon="19.122335">
<ele>1457.954102</ele>
<time>2012-05-01T14:20:24Z</time>
<desc>lat.=43.154408, lon.=19.122335, Alt.=1457.954102m. Speed=0.000000m/h.</desc>
<speed>0.000000</speed>
</trkpt>
<trkpt lat="43.154408" lon="19.122335">
<ele>1457.954102</ele>
<time>2012-05-01T14:20:29Z</time>
<desc>lat.=43.154408, lon.=19.122335, Alt.=1457.954102m. Speed=0.000000m/h.</desc>
<speed>0.000000</speed>
</trkpt>
<trkpt lat="43.154408" lon="19.122335">
<ele>1457.954102</ele>
<time>2012-05-01T14:20:34Z</time>
<desc>lat.=43.154408, lon.=19.122335, Alt.=1457.954102m. Speed=0.072000m/h.</desc>
<speed>0.020000</speed>
</trkpt>
<trkpt lat="43.154408" lon="19.122335">
<ele>1457.954102</ele>
<time>2012-05-01T14:20:39Z</time>
<desc>lat.=43.154408, lon.=19.122335, Alt.=1457.954102m. Speed=0.000000m/h.</desc>
<speed>0.000000</speed>
</trkpt>
<trkpt lat="43.154408" lon="19.122335">
<ele>1457.922852</ele>
<time>2012-05-01T14:20:44Z</time>
<desc>lat.=43.154408, lon.=19.122335, Alt.=1457.922852m. Speed=0.036000m/h.</desc>
<speed>0.010000</speed>
</trkpt>
<trkpt lat="43.154408" lon="19.122335">
<ele>1457.891602</ele>
<time>2012-05-01T14:20:49Z</time>
<desc>lat.=43.154408, lon.=19.122335, Alt.=1457.891602m. Speed=0.072000m/h.</desc>
<speed>0.020000</speed>
</trkpt>
<trkpt lat="43.154408" lon="19.122335">
<ele>1457.860352</ele>
<time>2012-05-01T14:20:54Z</time>
<desc>lat.=43.154408, lon.=19.122335, Alt.=1457.860352m. Speed=0.000000m/h.</desc>
<speed>0.000000</speed>
</trkpt>
<trkpt lat="43.154408" lon="19.122335">
<ele>1457.829102</ele>
<time>2012-05-01T14:20:59Z</time>
<desc>lat.=43.154408, lon.=19.122335, Alt.=1457.829102m. Speed=0.072000m/h.</desc>
<speed>0.020000</speed>
</trkpt>
<trkpt lat="43.154408" lon="19.122334">
<ele>1457.797852</ele>
<time>2012-05-01T14:21:04Z</time>
<desc>lat.=43.154408, lon.=19.122334, Alt.=1457.797852m. Speed=0.288000m/h.</desc>
<speed>0.080000</speed>
</trkpt>
<trkpt lat="43.154408" lon="19.122332">
<ele>1457.797852</ele>
<time>2012-05-01T14:21:09Z</time>
<desc>lat.=43.154408, lon.=19.122332, Alt.=1457.797852m. Speed=0.360000m/h.</desc>
<speed>0.100000</speed>
</trkpt>
<trkpt lat="43.154404" lon="19.122332">
<ele>1457.797852</ele>
<time>2012-05-01T14:21:14Z</time>
<desc>lat.=43.154404, lon.=19.122332, Alt.=1457.797852m. Speed=0.108000m/h.</desc>
<speed>0.030000</speed>
</trkpt>
<trkpt lat="43.154404" lon="19.122332">
<ele>1457.766602</ele>
<time>2012-05-01T14:21:19Z</time>
<desc>lat.=43.154404, lon.=19.122332, Alt.=1457.766602m. Speed=0.000000m/h.</desc>
<speed>0.000000</speed>
</trkpt>
<trkpt lat="43.154404" lon="19.122332">
<ele>1457.766602</ele>
<time>2012-05-01T14:21:24Z</time>
<desc>lat.=43.154404, lon.=19.122332, Alt.=1457.766602m. Speed=0.036000m/h.</desc>
<speed>0.010000</speed>
</trkpt>
<trkpt lat="43.154408" lon="19.122332">
<ele>1457.797852</ele>
<time>2012-05-01T14:21:29Z</time>
<desc>lat.=43.154408, lon.=19.122332, Alt.=1457.797852m. Speed=0.108000m/h.</desc>
<speed>0.030000</speed>
</trkpt>
<trkpt lat="43.154408" lon="19.122332">
<ele>1457.797852</ele>
<time>2012-05-01T14:21:34Z</time>
<desc>lat.=43.154408, lon.=19.122332, Alt.=1457.797852m. Speed=0.036000m/h.</desc>
<speed>0.010000</speed>
</trkpt>
<trkpt lat="43.154408" lon="19.122332">
<ele>1457.797852</ele>
<time>2012-05-01T14:21:39Z</time>
<desc>lat.=43.154408, lon.=19.122332, Alt.=1457.797852m. Speed=0.000000m/h.</desc>
<speed>0.000000</speed>
</trkpt>
<trkpt lat="43.154408" lon="19.122332">
<ele>1457.829102</ele>
<time>2012-05-01T14:21:44Z</time>
<desc>lat.=43.154408, lon.=19.122332, Alt.=1457.829102m. Speed=0.036000m/h.</desc>
<speed>0.010000</speed>
</trkpt>
<trkpt lat="43.154408" lon="19.122330">
<ele>1457.860352</ele>
<time>2012-05-01T14:21:49Z</time>
<desc>lat.=43.154408, lon.=19.122330, Alt.=1457.860352m. Speed=0.036000m/h.</desc>
<speed>0.010000</speed>
</trkpt>
<trkpt lat="43.154408" lon="19.122328">
<ele>1457.860352</ele>
<time>2012-05-01T14:21:54Z</time>
<desc>lat.=43.154408, lon.=19.122328, Alt.=1457.860352m. Speed=0.036000m/h.</desc>
<speed>0.010000</speed>
</trkpt>
<trkpt lat="43.154408" lon="19.122328">
<ele>1457.922852</ele>
<time>2012-05-01T14:21:59Z</time>
<desc>lat.=43.154408, lon.=19.122328, Alt.=1457.922852m. Speed=0.000000m/h.</desc>
<speed>0.000000</speed>
</trkpt>
<trkpt lat="43.154408" lon="19.122328">
<ele>1457.985352</ele>
<time>2012-05-01T14:22:04Z</time>
<desc>lat.=43.154408, lon.=19.122328, Alt.=1457.985352m. Speed=0.000000m/h.</desc>
<speed>0.000000</speed>
</trkpt>
<trkpt lat="43.154408" lon="19.122326">
<ele>1458.016602</ele>
<time>2012-05-01T14:22:09Z</time>
<desc>lat.=43.154408, lon.=19.122326, Alt.=1458.016602m. Speed=0.000000m/h.</desc>
<speed>0.000000</speed>
</trkpt>
<trkpt lat="43.154408" lon="19.122326">
<ele>1458.016602</ele>
<time>2012-05-01T14:22:14Z</time>
<desc>lat.=43.154408, lon.=19.122326, Alt.=1458.016602m. Speed=0.000000m/h.</desc>
<speed>0.000000</speed>
</trkpt>
<trkpt lat="43.154408" lon="19.122324">
<ele>1457.985352</ele>
<time>2012-05-01T14:22:19Z</time>
<desc>lat.=43.154408, lon.=19.122324, Alt.=1457.985352m. Speed=0.000000m/h.</desc>
<speed>0.000000</speed>
</trkpt>
<trkpt lat="43.154408" lon="19.122324">
<ele>1457.954102</ele>
<time>2012-05-01T14:22:24Z</time>
<desc>lat.=43.154408, lon.=19.122324, Alt.=1457.954102m. Speed=0.000000m/h.</desc>
<speed>0.000000</speed>
</trkpt>
<trkpt lat="43.154408" lon="19.122326">
<ele>1457.922852</ele>
<time>2012-05-01T14:22:29Z</time>
<desc>lat.=43.154408, lon.=19.122326, Alt.=1457.922852m. Speed=0.000000m/h.</desc>
<speed>0.000000</speed>
</trkpt>
<trkpt lat="43.154408" lon="19.122324">
<ele>1457.922852</ele>
<time>2012-05-01T14:22:34Z</time>
<desc>lat.=43.154408, lon.=19.122324, Alt.=1457.922852m. Speed=0.000000m/h.</desc>
<speed>0.000000</speed>
</trkpt>
<trkpt lat="43.154408" lon="19.122324">
<ele>1457.954102</ele>
<time>2012-05-01T14:22:39Z</time>
<desc>lat.=43.154408, lon.=19.122324, Alt.=1457.954102m. Speed=0.000000m/h.</desc>
<speed>0.000000</speed>
</trkpt>
<trkpt lat="43.154408" lon="19.122322">
<ele>1457.985352</ele>
<time>2012-05-01T14:22:44Z</time>
<desc>lat.=43.154408, lon.=19.122322, Alt.=1457.985352m. Speed=0.036000m/h.</desc>
<speed>0.010000</speed>
</trkpt>
<trkpt lat="43.154408" lon="19.122322">
<ele>1457.985352</ele>
<time>2012-05-01T14:22:49Z</time>
<desc>lat.=43.154408, lon.=19.122322, Alt.=1457.985352m. Speed=0.036000m/h.</desc>
<speed>0.010000</speed>
</trkpt>
<trkpt lat="43.154408" lon="19.122322">
<ele>1457.985352</ele>
<time>2012-05-01T14:22:54Z</time>
<desc>lat.=43.154408, lon.=19.122322, Alt.=1457.985352m. Speed=0.000000m/h.</desc>
<speed>0.000000</speed>
</trkpt>
<trkpt lat="43.154408" lon="19.122320">
<ele>1457.954102</ele>
<time>2012-05-01T14:22:59Z</time>
<desc>lat.=43.154408, lon.=19.122320, Alt.=1457.954102m. Speed=0.072000m/h.</desc>
<speed>0.020000</speed>
</trkpt>
<trkpt lat="43.154408" lon="19.122320">
<ele>1457.922852</ele>
<time>2012-05-01T14:23:04Z</time>
<desc>lat.=43.154408, lon.=19.122320, Alt.=1457.922852m. Speed=0.036000m/h.</desc>
<speed>0.010000</speed>
</trkpt>
<trkpt lat="43.154408" lon="19.122320">
<ele>1457.922852</ele>
<time>2012-05-01T14:23:09Z</time>
<desc>lat.=43.154408, lon.=19.122320, Alt.=1457.922852m. Speed=0.036000m/h.</desc>
<speed>0.010000</speed>
</trkpt>
<trkpt lat="43.154408" lon="19.122320">
<ele>1457.922852</ele>
<time>2012-05-01T14:23:14Z</time>
<desc>lat.=43.154408, lon.=19.122320, Alt.=1457.922852m. Speed=0.000000m/h.</desc>
<speed>0.000000</speed>
</trkpt>
<trkpt lat="43.154408" lon="19.122320">
<ele>1457.922852</ele>
<time>2012-05-01T14:23:19Z</time>
<desc>lat.=43.154408, lon.=19.122320, Alt.=1457.922852m. Speed=0.000000m/h.</desc>
<speed>0.000000</speed>
</trkpt>
<trkpt lat="43.154408" lon="19.122320">
<ele>1457.954102</ele>
<time>2012-05-01T14:23:24Z</time>
<desc>lat.=43.154408, lon.=19.122320, Alt.=1457.954102m. Speed=0.036000m/h.</desc>
<speed>0.010000</speed>
</trkpt>
<trkpt lat="43.154408" lon="19.122318">
<ele>1457.922852</ele>
<time>2012-05-01T14:23:29Z</time>
<desc>lat.=43.154408, lon.=19.122318, Alt.=1457.922852m. Speed=0.072000m/h.</desc>
<speed>0.020000</speed>
</trkpt>
<trkpt lat="43.154408" lon="19.122318">
<ele>1457.954102</ele>
<time>2012-05-01T14:23:34Z</time>
<desc>lat.=43.154408, lon.=19.122318, Alt.=1457.954102m. Speed=0.108000m/h.</desc>
<speed>0.030000</speed>
</trkpt>
<trkpt lat="43.154408" lon="19.122316">
<ele>1457.985352</ele>
<time>2012-05-01T14:23:39Z</time>
<desc>lat.=43.154408, lon.=19.122316, Alt.=1457.985352m. Speed=0.108000m/h.</desc>
<speed>0.030000</speed>
</trkpt>
<trkpt lat="43.154408" lon="19.122316">
<ele>1458.016602</ele>
<time>2012-05-01T14:23:44Z</time>
<desc>lat.=43.154408, lon.=19.122316, Alt.=1458.016602m. Speed=0.108000m/h.</desc>
<speed>0.030000</speed>
</trkpt>
<trkpt lat="43.154408" lon="19.122314">
<ele>1458.047852</ele>
<time>2012-05-01T14:23:49Z</time>
<desc>lat.=43.154408, lon.=19.122314, Alt.=1458.047852m. Speed=0.000000m/h.</desc>
<speed>0.000000</speed>
</trkpt>
<trkpt lat="43.154408" lon="19.122314">
<ele>1458.016602</ele>
<time>2012-05-01T14:23:54Z</time>
<desc>lat.=43.154408, lon.=19.122314, Alt.=1458.016602m. Speed=0.072000m/h.</desc>
<speed>0.020000</speed>
</trkpt>
<trkpt lat="43.154408" lon="19.122314">
<ele>1458.016602</ele>
<time>2012-05-01T14:23:59Z</time>
<desc>lat.=43.154408, lon.=19.122314, Alt.=1458.016602m. Speed=0.036000m/h.</desc>
<speed>0.010000</speed>
</trkpt>
<trkpt lat="43.154408" lon="19.122314">
<ele>1457.985352</ele>
<time>2012-05-01T14:24:04Z</time>
<desc>lat.=43.154408, lon.=19.122314, Alt.=1457.985352m. Speed=0.072000m/h.</desc>
<speed>0.020000</speed>
</trkpt>
<trkpt lat="43.154408" lon="19.122314">
<ele>1457.954102</ele>
<time>2012-05-01T14:24:09Z</time>
<desc>lat.=43.154408, lon.=19.122314, Alt.=1457.954102m. Speed=0.036000m/h.</desc>
<speed>0.010000</speed>
</trkpt>
<trkpt lat="43.154408" lon="19.122314">
<ele>1457.922852</ele>
<time>2012-05-01T14:24:14Z</time>
<desc>lat.=43.154408, lon.=19.122314, Alt.=1457.922852m. Speed=0.000000m/h.</desc>
<speed>0.000000</speed>
</trkpt>
<trkpt lat="43.154408" lon="19.122313">
<ele>1457.922852</ele>
<time>2012-05-01T14:24:19Z</time>
<desc>lat.=43.154408, lon.=19.122313, Alt.=1457.922852m. Speed=0.036000m/h.</desc>
<speed>0.010000</speed>
</trkpt>
<trkpt lat="43.154408" lon="19.122313">
<ele>1457.954102</ele>
<time>2012-05-01T14:24:24Z</time>
<desc>lat.=43.154408, lon.=19.122313, Alt.=1457.954102m. Speed=0.000000m/h.</desc>
<speed>0.000000</speed>
</trkpt>
<trkpt lat="43.154408" lon="19.122311">
<ele>1457.985352</ele>
<time>2012-05-01T14:24:29Z</time>
<desc>lat.=43.154408, lon.=19.122311, Alt.=1457.985352m. Speed=0.000000m/h.</desc>
<speed>0.000000</speed>
</trkpt>
<trkpt lat="43.154408" lon="19.122311">
<ele>1457.985352</ele>
<time>2012-05-01T14:24:34Z</time>
<desc>lat.=43.154408, lon.=19.122311, Alt.=1457.985352m. Speed=0.000000m/h.</desc>
<speed>0.000000</speed>
</trkpt>
<trkpt lat="43.154408" lon="19.122311">
<ele>1457.985352</ele>
<time>2012-05-01T14:24:39Z</time>
<desc>lat.=43.154408, lon.=19.122311, Alt.=1457.985352m. Speed=0.036000m/h.</desc>
<speed>0.010000</speed>
</trkpt>
<trkpt lat="43.154408" lon="19.122309">
<ele>1458.016602</ele>
<time>2012-05-01T14:24:44Z</time>
<desc>lat.=43.154408, lon.=19.122309, Alt.=1458.016602m. Speed=0.000000m/h.</desc>
<speed>0.000000</speed>
</trkpt>
<trkpt lat="43.154408" lon="19.122309">
<ele>1457.985352</ele>
<time>2012-05-01T14:24:49Z</time>
<desc>lat.=43.154408, lon.=19.122309, Alt.=1457.985352m. Speed=0.000000m/h.</desc>
<speed>0.000000</speed>
</trkpt>
<trkpt lat="43.154408" lon="19.122309">
<ele>1457.985352</ele>
<time>2012-05-01T14:24:54Z</time>
<desc>lat.=43.154408, lon.=19.122309, Alt.=1457.985352m. Speed=0.072000m/h.</desc>
<speed>0.020000</speed>
</trkpt>
<trkpt lat="43.154408" lon="19.122309">
<ele>1457.985352</ele>
<time>2012-05-01T14:24:59Z</time>
<desc>lat.=43.154408, lon.=19.122309, Alt.=1457.985352m. Speed=0.072000m/h.</desc>
<speed>0.020000</speed>
</trkpt>
<trkpt lat="43.154408" lon="19.122309">
<ele>1458.016602</ele>
<time>2012-05-01T14:25:04Z</time>
<desc>lat.=43.154408, lon.=19.122309, Alt.=1458.016602m. Speed=0.072000m/h.</desc>
<speed>0.020000</speed>
</trkpt>
<trkpt lat="43.154404" lon="19.122309">
<ele>1458.047852</ele>
<time>2012-05-01T14:25:09Z</time>
<desc>lat.=43.154404, lon.=19.122309, Alt.=1458.047852m. Speed=0.000000m/h.</desc>
<speed>0.000000</speed>
</trkpt>
<trkpt lat="43.154404" lon="19.122307">
<ele>1458.047852</ele>
<time>2012-05-01T14:25:14Z</time>
<desc>lat.=43.154404, lon.=19.122307, Alt.=1458.047852m. Speed=0.000000m/h.</desc>
<speed>0.000000</speed>
</trkpt>
<trkpt lat="43.154404" lon="19.122307">
<ele>1458.079102</ele>
<time>2012-05-01T14:25:19Z</time>
<desc>lat.=43.154404, lon.=19.122307, Alt.=1458.079102m. Speed=0.108000m/h.</desc>
<speed>0.030000</speed>
</trkpt>
<trkpt lat="43.154404" lon="19.122307">
<ele>1458.079102</ele>
<time>2012-05-01T14:25:24Z</time>
<desc>lat.=43.154404, lon.=19.122307, Alt.=1458.079102m. Speed=0.072000m/h.</desc>
<speed>0.020000</speed>
</trkpt>
<trkpt lat="43.154404" lon="19.122305">
<ele>1458.079102</ele>
<time>2012-05-01T14:25:29Z</time>
<desc>lat.=43.154404, lon.=19.122305, Alt.=1458.079102m. Speed=0.144000m/h.</desc>
<speed>0.040000</speed>
</trkpt>
<trkpt lat="43.154404" lon="19.122305">
<ele>1458.047852</ele>
<time>2012-05-01T14:25:34Z</time>
<desc>lat.=43.154404, lon.=19.122305, Alt.=1458.047852m. Speed=0.072000m/h.</desc>
<speed>0.020000</speed>
</trkpt>
<trkpt lat="43.154404" lon="19.122303">
<ele>1458.016602</ele>
<time>2012-05-01T14:25:39Z</time>
<desc>lat.=43.154404, lon.=19.122303, Alt.=1458.016602m. Speed=0.108000m/h.</desc>
<speed>0.030000</speed>
</trkpt>
<trkpt lat="43.154404" lon="19.122303">
<ele>1457.985352</ele>
<time>2012-05-01T14:25:44Z</time>
<desc>lat.=43.154404, lon.=19.122303, Alt.=1457.985352m. Speed=0.036000m/h.</desc>
<speed>0.010000</speed>
</trkpt>
<trkpt lat="43.154404" lon="19.122303">
<ele>1457.985352</ele>
<time>2012-05-01T14:25:49Z</time>
<desc>lat.=43.154404, lon.=19.122303, Alt.=1457.985352m. Speed=0.108000m/h.</desc>
<speed>0.030000</speed>
</trkpt>
<trkpt lat="43.154404" lon="19.122303">
<ele>1457.985352</ele>
<time>2012-05-01T14:25:54Z</time>
<desc>lat.=43.154404, lon.=19.122303, Alt.=1457.985352m. Speed=0.036000m/h.</desc>
<speed>0.010000</speed>
</trkpt>
<trkpt lat="43.154404" lon="19.122301">
<ele>1457.985352</ele>
<time>2012-05-01T14:25:59Z</time>
<desc>lat.=43.154404, lon.=19.122301, Alt.=1457.985352m. Speed=0.072000m/h.</desc>
<speed>0.020000</speed>
</trkpt>
<trkpt lat="43.154400" lon="19.122301">
<ele>1457.922852</ele>
<time>2012-05-01T14:26:04Z</time>
<desc>lat.=43.154400, lon.=19.122301, Alt.=1457.922852m. Speed=0.072000m/h.</desc>
<speed>0.020000</speed>
</trkpt>
<trkpt lat="43.154400" lon="19.122301">
<ele>1457.829102</ele>
<time>2012-05-01T14:26:09Z</time>
<desc>lat.=43.154400, lon.=19.122301, Alt.=1457.829102m. Speed=0.036000m/h.</desc>
<speed>0.010000</speed>
</trkpt>
<trkpt lat="43.154400" lon="19.122301">
<ele>1457.797852</ele>
<time>2012-05-01T14:26:14Z</time>
<desc>lat.=43.154400, lon.=19.122301, Alt.=1457.797852m. Speed=0.000000m/h.</desc>
<speed>0.000000</speed>
</trkpt>
<trkpt lat="43.154400" lon="19.122301">
<ele>1457.766602</ele>
<time>2012-05-01T14:26:19Z</time>
<desc>lat.=43.154400, lon.=19.122301, Alt.=1457.766602m. Speed=0.036000m/h.</desc>
<speed>0.010000</speed>
</trkpt>
<trkpt lat="43.154400" lon="19.122301">
<ele>1457.766602</ele>
<time>2012-05-01T14:26:24Z</time>
<desc>lat.=43.154400, lon.=19.122301, Alt.=1457.766602m. Speed=0.000000m/h.</desc>
<speed>0.000000</speed>
</trkpt>
<trkpt lat="43.154400" lon="19.122301">
<ele>1457.735352</ele>
<time>2012-05-01T14:26:29Z</time>
<desc>lat.=43.154400, lon.=19.122301, Alt.=1457.735352m. Speed=0.036000m/h.</desc>
<speed>0.010000</speed>
</trkpt>
<trkpt lat="43.154400" lon="19.122301">
<ele>1457.672852</ele>
<time>2012-05-01T14:26:34Z</time>
<desc>lat.=43.154400, lon.=19.122301, Alt.=1457.672852m. Speed=0.000000m/h.</desc>
<speed>0.000000</speed>
</trkpt>
<trkpt lat="43.154400" lon="19.122301">
<ele>1457.672852</ele>
<time>2012-05-01T14:26:39Z</time>
<desc>lat.=43.154400, lon.=19.122301, Alt.=1457.672852m. Speed=0.000000m/h.</desc>
<speed>0.000000</speed>
</trkpt>
<trkpt lat="43.154400" lon="19.122301">
<ele>1457.704102</ele>
<time>2012-05-01T14:26:44Z</time>
<desc>lat.=43.154400, lon.=19.122301, Alt.=1457.704102m. Speed=0.036000m/h.</desc>
<speed>0.010000</speed>
</trkpt>
<trkpt lat="43.154400" lon="19.122299">
<ele>1457.735352</ele>
<time>2012-05-01T14:26:49Z</time>
<desc>lat.=43.154400, lon.=19.122299, Alt.=1457.735352m. Speed=0.036000m/h.</desc>
<speed>0.010000</speed>
</trkpt>
<trkpt lat="43.154400" lon="19.122299">
<ele>1457.735352</ele>
<time>2012-05-01T14:26:54Z</time>
<desc>lat.=43.154400, lon.=19.122299, Alt.=1457.735352m. Speed=0.036000m/h.</desc>
<speed>0.010000</speed>
</trkpt>
<trkpt lat="43.154400" lon="19.122299">
<ele>1457.672852</ele>
<time>2012-05-01T14:26:59Z</time>
<desc>lat.=43.154400, lon.=19.122299, Alt.=1457.672852m. Speed=0.000000m/h.</desc>
<speed>0.000000</speed>
</trkpt>
<trkpt lat="43.154400" lon="19.122299">
<ele>1457.641602</ele>
<time>2012-05-01T14:27:04Z</time>
<desc>lat.=43.154400, lon.=19.122299, Alt.=1457.641602m. Speed=0.000000m/h.</desc>
<speed>0.000000</speed>
</trkpt>
<trkpt lat="43.154396" lon="19.122299">
<ele>1457.547852</ele>
<time>2012-05-01T14:27:09Z</time>
<desc>lat.=43.154396, lon.=19.122299, Alt.=1457.547852m. Speed=0.000000m/h.</desc>
<speed>0.000000</speed>
</trkpt>
<trkpt lat="43.154396" lon="19.122299">
<ele>1457.516602</ele>
<time>2012-05-01T14:27:14Z</time>
<desc>lat.=43.154396, lon.=19.122299, Alt.=1457.516602m. Speed=0.000000m/h.</desc>
<speed>0.000000</speed>
</trkpt>
<trkpt lat="43.154396" lon="19.122299">
<ele>1457.454102</ele>
<time>2012-05-01T14:27:19Z</time>
<desc>lat.=43.154396, lon.=19.122299, Alt.=1457.454102m. Speed=0.000000m/h.</desc>
<speed>0.000000</speed>
</trkpt>
<trkpt lat="43.154396" lon="19.122299">
<ele>1457.454102</ele>
<time>2012-05-01T14:27:24Z</time>
<desc>lat.=43.154396, lon.=19.122299, Alt.=1457.454102m. Speed=0.000000m/h.</desc>
<speed>0.000000</speed>
</trkpt>
<trkpt lat="43.154396" lon="19.122299">
<ele>1457.454102</ele>
<time>2012-05-01T14:27:29Z</time>
<desc>lat.=43.154396, lon.=19.122299, Alt.=1457.454102m. Speed=0.000000m/h.</desc>
<speed>0.000000</speed>
</trkpt>
<trkpt lat="43.154396" lon="19.122299">
<ele>1457.454102</ele>
<time>2012-05-01T14:27:34Z</time>
<desc>lat.=43.154396, lon.=19.122299, Alt.=1457.454102m. Speed=0.000000m/h.</desc>
<speed>0.000000</speed>
</trkpt>
<trkpt lat="43.154396" lon="19.122299">
<ele>1457.485352</ele>
<time>2012-05-01T14:27:39Z</time>
<desc>lat.=43.154396, lon.=19.122299, Alt.=1457.485352m. Speed=0.000000m/h.</desc>
<speed>0.000000</speed>
</trkpt>
<trkpt lat="43.154396" lon="19.122297">
<ele>1457.579102</ele>
<time>2012-05-01T14:27:44Z</time>
<desc>lat.=43.154396, lon.=19.122297, Alt.=1457.579102m. Speed=0.000000m/h.</desc>
<speed>0.000000</speed>
</trkpt>
<trkpt lat="43.154396" lon="19.122297">
<ele>1457.610352</ele>
<time>2012-05-01T14:27:49Z</time>
<desc>lat.=43.154396, lon.=19.122297, Alt.=1457.610352m. Speed=0.000000m/h.</desc>
<speed>0.000000</speed>
</trkpt>
<trkpt lat="43.154396" lon="19.122297">
<ele>1457.579102</ele>
<time>2012-05-01T14:27:54Z</time>
<desc>lat.=43.154396, lon.=19.122297, Alt.=1457.579102m. Speed=0.000000m/h.</desc>
<speed>0.000000</speed>
</trkpt>
<trkpt lat="43.154396" lon="19.122297">
<ele>1457.516602</ele>
<time>2012-05-01T14:27:59Z</time>
<desc>lat.=43.154396, lon.=19.122297, Alt.=1457.516602m. Speed=0.000000m/h.</desc>
<speed>0.000000</speed>
</trkpt>
<trkpt lat="43.154396" lon="19.122297">
<ele>1457.454102</ele>
<time>2012-05-01T14:28:04Z</time>
<desc>lat.=43.154396, lon.=19.122297, Alt.=1457.454102m. Speed=0.000000m/h.</desc>
<speed>0.000000</speed>
</trkpt>
<trkpt lat="43.154396" lon="19.122297">
<ele>1457.360352</ele>
<time>2012-05-01T14:28:09Z</time>
<desc>lat.=43.154396, lon.=19.122297, Alt.=1457.360352m. Speed=0.000000m/h.</desc>
<speed>0.000000</speed>
</trkpt>
<trkpt lat="43.154396" lon="19.122297">
<ele>1457.297852</ele>
<time>2012-05-01T14:28:14Z</time>
<desc>lat.=43.154396, lon.=19.122297, Alt.=1457.297852m. Speed=0.000000m/h.</desc>
<speed>0.000000</speed>
</trkpt>
<trkpt lat="43.154396" lon="19.122297">
<ele>1457.297852</ele>
<time>2012-05-01T14:28:19Z</time>
<desc>lat.=43.154396, lon.=19.122297, Alt.=1457.297852m. Speed=0.000000m/h.</desc>
<speed>0.000000</speed>
</trkpt>
<trkpt lat="43.154396" lon="19.122297">
<ele>1457.329102</ele>
<time>2012-05-01T14:28:24Z</time>
<desc>lat.=43.154396, lon.=19.122297, Alt.=1457.329102m. Speed=0.036000m/h.</desc>
<speed>0.010000</speed>
</trkpt>
<trkpt lat="43.154396" lon="19.122297">
<ele>1457.360352</ele>
<time>2012-05-01T14:28:29Z</time>
<desc>lat.=43.154396, lon.=19.122297, Alt.=1457.360352m. Speed=0.000000m/h.</desc>
<speed>0.000000</speed>
</trkpt>
<trkpt lat="43.154396" lon="19.122297">
<ele>1457.391602</ele>
<time>2012-05-01T14:28:34Z</time>
<desc>lat.=43.154396, lon.=19.122297, Alt.=1457.391602m. Speed=0.000000m/h.</desc>
<speed>0.000000</speed>
</trkpt>
<trkpt lat="43.154396" lon="19.122297">
<ele>1457.391602</ele>
<time>2012-05-01T14:28:39Z</time>
<desc>lat.=43.154396, lon.=19.122297, Alt.=1457.391602m. Speed=0.000000m/h.</desc>
<speed>0.000000</speed>
</trkpt>
<trkpt lat="43.154396" lon="19.122297">
<ele>1457.360352</ele>
<time>2012-05-01T14:28:44Z</time>
<desc>lat.=43.154396, lon.=19.122297, Alt.=1457.360352m. Speed=0.000000m/h.</desc>
<speed>0.000000</speed>
</trkpt>
<trkpt lat="43.154396" lon="19.122297">
<ele>1457.297852</ele>
<time>2012-05-01T14:28:49Z</time>
<desc>lat.=43.154396, lon.=19.122297, Alt.=1457.297852m. Speed=0.036000m/h.</desc>
<speed>0.010000</speed>
</trkpt>
<trkpt lat="43.154396" lon="19.122297">
<ele>1457.235352</ele>
<time>2012-05-01T14:28:54Z</time>
<desc>lat.=43.154396, lon.=19.122297, Alt.=1457.235352m. Speed=0.000000m/h.</desc>
<speed>0.000000</speed>
</trkpt>
<trkpt lat="43.154396" lon="19.122297">
<ele>1457.172852</ele>
<time>2012-05-01T14:28:59Z</time>
<desc>lat.=43.154396, lon.=19.122297, Alt.=1457.172852m. Speed=0.000000m/h.</desc>
<speed>0.000000</speed>
</trkpt>
<trkpt lat="43.154396" lon="19.122297">
<ele>1457.110352</ele>
<time>2012-05-01T14:29:04Z</time>
<desc>lat.=43.154396, lon.=19.122297, Alt.=1457.110352m. Speed=0.000000m/h.</desc>
<speed>0.000000</speed>
</trkpt>
<trkpt lat="43.154396" lon="19.122297">
<ele>1457.079102</ele>
<time>2012-05-01T14:29:09Z</time>
<desc>lat.=43.154396, lon.=19.122297, Alt.=1457.079102m. Speed=0.000000m/h.</desc>
<speed>0.000000</speed>
</trkpt>
<trkpt lat="43.154396" lon="19.122297">
<ele>1457.079102</ele>
<time>2012-05-01T14:29:14Z</time>
<desc>lat.=43.154396, lon.=19.122297, Alt.=1457.079102m. Speed=0.000000m/h.</desc>
<speed>0.000000</speed>
</trkpt>
<trkpt lat="43.154396" lon="19.122297">
<ele>1457.079102</ele>
<time>2012-05-01T14:29:19Z</time>
<desc>lat.=43.154396, lon.=19.122297, Alt.=1457.079102m. Speed=0.000000m/h.</desc>
<speed>0.000000</speed>
</trkpt>
<trkpt lat="43.154396" lon="19.122297">
<ele>1457.110352</ele>
<time>2012-05-01T14:29:24Z</time>
<desc>lat.=43.154396, lon.=19.122297, Alt.=1457.110352m. Speed=0.000000m/h.</desc>
<speed>0.000000</speed>
</trkpt>
<trkpt lat="43.154396" lon="19.122297">
<ele>1457.079102</ele>
<time>2012-05-01T14:29:29Z</time>
<desc>lat.=43.154396, lon.=19.122297, Alt.=1457.079102m. Speed=0.000000m/h.</desc>
<speed>0.000000</speed>
</trkpt>
<trkpt lat="43.154396" lon="19.122297">
<ele>1457.047852</ele>
<time>2012-05-01T14:29:34Z</time>
<desc>lat.=43.154396, lon.=19.122297, Alt.=1457.047852m. Speed=0.000000m/h.</desc>
<speed>0.000000</speed>
</trkpt>
<trkpt lat="43.154396" lon="19.122297">
<ele>1456.985352</ele>
<time>2012-05-01T14:29:39Z</time>
<desc>lat.=43.154396, lon.=19.122297, Alt.=1456.985352m. Speed=0.000000m/h.</desc>
<speed>0.000000</speed>
</trkpt>
<trkpt lat="43.154396" lon="19.122297">
<ele>1456.891602</ele>
<time>2012-05-01T14:29:44Z</time>
<desc>lat.=43.154396, lon.=19.122297, Alt.=1456.891602m. Speed=0.036000m/h.</desc>
<speed>0.010000</speed>
</trkpt>
<trkpt lat="43.154396" lon="19.122297">
<ele>1456.797852</ele>
<time>2012-05-01T14:29:49Z</time>
<desc>lat.=43.154396, lon.=19.122297, Alt.=1456.797852m. Speed=0.072000m/h.</desc>
<speed>0.020000</speed>
</trkpt>
<trkpt lat="43.154396" lon="19.122297">
<ele>1456.735352</ele>
<time>2012-05-01T14:29:54Z</time>
<desc>lat.=43.154396, lon.=19.122297, Alt.=1456.735352m. Speed=0.036000m/h.</desc>
<speed>0.010000</speed>
</trkpt>
<trkpt lat="43.154396" lon="19.122297">
<ele>1456.704102</ele>
<time>2012-05-01T14:29:59Z</time>
<desc>lat.=43.154396, lon.=19.122297, Alt.=1456.704102m. Speed=0.000000m/h.</desc>
<speed>0.000000</speed>
</trkpt>
<trkpt lat="43.154396" lon="19.122297">
<ele>1456.735352</ele>
<time>2012-05-01T14:30:04Z</time>
<desc>lat.=43.154396, lon.=19.122297, Alt.=1456.735352m. Speed=0.036000m/h.</desc>
<speed>0.010000</speed>
</trkpt>
<trkpt lat="43.154396" lon="19.122297">
<ele>1456.735352</ele>
<time>2012-05-01T14:30:09Z</time>
<desc>lat.=43.154396, lon.=19.122297, Alt.=1456.735352m. Speed=0.000000m/h.</desc>
<speed>0.000000</speed>
</trkpt>
<trkpt lat="43.154396" lon="19.122297">
<ele>1456.766602</ele>
<time>2012-05-01T14:30:14Z</time>
<desc>lat.=43.154396, lon.=19.122297, Alt.=1456.766602m. Speed=0.000000m/h.</desc>
<speed>0.000000</speed>
</trkpt>
<trkpt lat="43.154396" lon="19.122297">
<ele>1456.797852</ele>
<time>2012-05-01T14:30:19Z</time>
<desc>lat.=43.154396, lon.=19.122297, Alt.=1456.797852m. Speed=0.000000m/h.</desc>
<speed>0.000000</speed>
</trkpt>
<trkpt lat="43.154396" lon="19.122297">
<ele>1456.797852</ele>
<time>2012-05-01T14:30:24Z</time>
<desc>lat.=43.154396, lon.=19.122297, Alt.=1456.797852m. Speed=0.000000m/h.</desc>
<speed>0.000000</speed>
</trkpt>
<trkpt lat="43.154396" lon="19.122297">
<ele>1456.766602</ele>
<time>2012-05-01T14:30:29Z</time>
<desc>lat.=43.154396, lon.=19.122297, Alt.=1456.766602m. Speed=0.036000m/h.</desc>
<speed>0.010000</speed>
</trkpt>
<trkpt lat="43.154396" lon="19.122297">
<ele>1456.735352</ele>
<time>2012-05-01T14:30:34Z</time>
<desc>lat.=43.154396, lon.=19.122297, Alt.=1456.735352m. Speed=0.000000m/h.</desc>
<speed>0.000000</speed>
</trkpt>
<trkpt lat="43.154396" lon="19.122297">
<ele>1456.641602</ele>
<time>2012-05-01T14:30:39Z</time>
<desc>lat.=43.154396, lon.=19.122297, Alt.=1456.641602m. Speed=0.000000m/h.</desc>
<speed>0.000000</speed>
</trkpt>
<trkpt lat="43.154396" lon="19.122297">
<ele>1456.547852</ele>
<time>2012-05-01T14:30:44Z</time>
<desc>lat.=43.154396, lon.=19.122297, Alt.=1456.547852m. Speed=0.000000m/h.</desc>
<speed>0.000000</speed>
</trkpt>
<trkpt lat="43.154396" lon="19.122297">
<ele>1456.516602</ele>
<time>2012-05-01T14:30:49Z</time>
<desc>lat.=43.154396, lon.=19.122297, Alt.=1456.516602m. Speed=0.000000m/h.</desc>
<speed>0.000000</speed>
</trkpt>
<trkpt lat="43.154396" lon="19.122297">
<ele>1456.516602</ele>
<time>2012-05-01T14:30:54Z</time>
<desc>lat.=43.154396, lon.=19.122297, Alt.=1456.516602m. Speed=0.000000m/h.</desc>
<speed>0.000000</speed>
</trkpt>
<trkpt lat="43.154396" lon="19.122297">
<ele>1456.579102</ele>
<time>2012-05-01T14:30:59Z</time>
<desc>lat.=43.154396, lon.=19.122297, Alt.=1456.579102m. Speed=0.000000m/h.</desc>
<speed>0.000000</speed>
</trkpt>
<trkpt lat="43.154396" lon="19.122297">
<ele>1456.610352</ele>
<time>2012-05-01T14:31:04Z</time>
<desc>lat.=43.154396, lon.=19.122297, Alt.=1456.610352m. Speed=0.000000m/h.</desc>
<speed>0.000000</speed>
</trkpt>
<trkpt lat="43.154396" lon="19.122297">
<ele>1456.610352</ele>
<time>2012-05-01T14:31:09Z</time>
<desc>lat.=43.154396, lon.=19.122297, Alt.=1456.610352m. Speed=0.000000m/h.</desc>
<speed>0.000000</speed>
</trkpt>
<trkpt lat="43.154396" lon="19.122297">
<ele>1456.579102</ele>
<time>2012-05-01T14:31:14Z</time>
<desc>lat.=43.154396, lon.=19.122297, Alt.=1456.579102m. Speed=0.000000m/h.</desc>
<speed>0.000000</speed>
</trkpt>
<trkpt lat="43.154396" lon="19.122297">
<ele>1456.579102</ele>
<time>2012-05-01T14:31:19Z</time>
<desc>lat.=43.154396, lon.=19.122297, Alt.=1456.579102m. Speed=0.000000m/h.</desc>
<speed>0.000000</speed>
</trkpt>
<trkpt lat="43.154396" lon="19.122297">
<ele>1456.516602</ele>
<time>2012-05-01T14:31:24Z</time>
<desc>lat.=43.154396, lon.=19.122297, Alt.=1456.516602m. Speed=0.000000m/h.</desc>
<speed>0.000000</speed>
</trkpt>
<trkpt lat="43.154396" lon="19.122295">
<ele>1456.485352</ele>
<time>2012-05-01T14:31:29Z</time>
<desc>lat.=43.154396, lon.=19.122295, Alt.=1456.485352m. Speed=0.000000m/h.</desc>
<speed>0.000000</speed>
</trkpt>
<trkpt lat="43.154396" lon="19.122295">
<ele>1456.454102</ele>
<time>2012-05-01T14:31:34Z</time>
<desc>lat.=43.154396, lon.=19.122295, Alt.=1456.454102m. Speed=0.000000m/h.</desc>
<speed>0.000000</speed>
</trkpt>
<trkpt lat="43.154396" lon="19.122295">
<ele>1456.391602</ele>
<time>2012-05-01T14:31:39Z</time>
<desc>lat.=43.154396, lon.=19.122295, Alt.=1456.391602m. Speed=0.000000m/h.</desc>
<speed>0.000000</speed>
</trkpt>
<trkpt lat="43.154396" lon="19.122295">
<ele>1456.391602</ele>
<time>2012-05-01T14:31:44Z</time>
<desc>lat.=43.154396, lon.=19.122295, Alt.=1456.391602m. Speed=0.000000m/h.</desc>
<speed>0.000000</speed>
</trkpt>
<trkpt lat="43.154396" lon="19.122295">
<ele>1456.422852</ele>
<time>2012-05-01T14:31:49Z</time>
<desc>lat.=43.154396, lon.=19.122295, Alt.=1456.422852m. Speed=0.000000m/h.</desc>
<speed>0.000000</speed>
</trkpt>
<trkpt lat="43.154396" lon="19.122295">
<ele>1456.454102</ele>
<time>2012-05-01T14:31:54Z</time>
<desc>lat.=43.154396, lon.=19.122295, Alt.=1456.454102m. Speed=0.000000m/h.</desc>
<speed>0.000000</speed>
</trkpt>
<trkpt lat="43.154396" lon="19.122295">
<ele>1456.485352</ele>
<time>2012-05-01T14:31:59Z</time>
<desc>lat.=43.154396, lon.=19.122295, Alt.=1456.485352m. Speed=0.000000m/h.</desc>
<speed>0.000000</speed>
</trkpt>
<trkpt lat="43.154396" lon="19.122295">
<ele>1456.485352</ele>
<time>2012-05-01T14:32:04Z</time>
<desc>lat.=43.154396, lon.=19.122295, Alt.=1456.485352m. Speed=0.000000m/h.</desc>
<speed>0.000000</speed>
</trkpt>
<trkpt lat="43.154396" lon="19.122295">
<ele>1456.485352</ele>
<time>2012-05-01T14:32:09Z</time>
<desc>lat.=43.154396, lon.=19.122295, Alt.=1456.485352m. Speed=0.000000m/h.</desc>
<speed>0.000000</speed>
</trkpt>
<trkpt lat="43.154396" lon="19.122295">
<ele>1456.422852</ele>
<time>2012-05-01T14:32:14Z</time>
<desc>lat.=43.154396, lon.=19.122295, Alt.=1456.422852m. Speed=0.000000m/h.</desc>
<speed>0.000000</speed>
</trkpt>
<trkpt lat="43.154396" lon="19.122295">
<ele>1456.360352</ele>
<time>2012-05-01T14:32:19Z</time>
<desc>lat.=43.154396, lon.=19.122295, Alt.=1456.360352m. Speed=0.000000m/h.</desc>
<speed>0.000000</speed>
</trkpt>
<trkpt lat="43.154396" lon="19.122295">
<ele>1456.329102</ele>
<time>2012-05-01T14:32:24Z</time>
<desc>lat.=43.154396, lon.=19.122295, Alt.=1456.329102m. Speed=0.000000m/h.</desc>
<speed>0.000000</speed>
</trkpt>
<trkpt lat="43.154396" lon="19.122295">
<ele>1456.329102</ele>
<time>2012-05-01T14:32:29Z</time>
<desc>lat.=43.154396, lon.=19.122295, Alt.=1456.329102m. Speed=0.036000m/h.</desc>
<speed>0.010000</speed>
</trkpt>
<trkpt lat="43.154396" lon="19.122295">
<ele>1456.360352</ele>
<time>2012-05-01T14:32:34Z</time>
<desc>lat.=43.154396, lon.=19.122295, Alt.=1456.360352m. Speed=0.000000m/h.</desc>
<speed>0.000000</speed>
</trkpt>
<trkpt lat="43.154396" lon="19.122295">
<ele>1456.360352</ele>
<time>2012-05-01T14:32:39Z</time>
<desc>lat.=43.154396, lon.=19.122295, Alt.=1456.360352m. Speed=0.000000m/h.</desc>
<speed>0.000000</speed>
</trkpt>
<trkpt lat="43.154396" lon="19.122295">
<ele>1456.391602</ele>
<time>2012-05-01T14:32:44Z</time>
<desc>lat.=43.154396, lon.=19.122295, Alt.=1456.391602m. Speed=0.000000m/h.</desc>
<speed>0.000000</speed>
</trkpt>
<trkpt lat="43.154396" lon="19.122293">
<ele>1456.454102</ele>
<time>2012-05-01T14:32:49Z</time>
<desc>lat.=43.154396, lon.=19.122293, Alt.=1456.454102m. Speed=0.000000m/h.</desc>
<speed>0.000000</speed>
</trkpt>
<trkpt lat="43.154396" lon="19.122293">
<ele>1456.485352</ele>
<time>2012-05-01T14:32:54Z</time>
<desc>lat.=43.154396, lon.=19.122293, Alt.=1456.485352m. Speed=0.000000m/h.</desc>
<speed>0.000000</speed>
</trkpt>
<trkpt lat="43.154396" lon="19.122293">
<ele>1456.516602</ele>
<time>2012-05-01T14:32:59Z</time>
<desc>lat.=43.154396, lon.=19.122293, Alt.=1456.516602m. Speed=0.072000m/h.</desc>
<speed>0.020000</speed>
</trkpt>
<trkpt lat="43.154396" lon="19.122293">
<ele>1456.485352</ele>
<time>2012-05-01T14:33:04Z</time>
<desc>lat.=43.154396, lon.=19.122293, Alt.=1456.485352m. Speed=0.000000m/h.</desc>
<speed>0.000000</speed>
</trkpt>
<trkpt lat="43.154396" lon="19.122293">
<ele>1456.454102</ele>
<time>2012-05-01T14:33:09Z</time>
<desc>lat.=43.154396, lon.=19.122293, Alt.=1456.454102m. Speed=0.000000m/h.</desc>
<speed>0.000000</speed>
</trkpt>
<trkpt lat="43.154396" lon="19.122293">
<ele>1456.454102</ele>
<time>2012-05-01T14:33:14Z</time>
<desc>lat.=43.154396, lon.=19.122293, Alt.=1456.454102m. Speed=0.000000m/h.</desc>
<speed>0.000000</speed>
</trkpt>
<trkpt lat="43.154392" lon="19.122292">
<ele>1456.454102</ele>
<time>2012-05-01T14:33:19Z</time>
<desc>lat.=43.154392, lon.=19.122292, Alt.=1456.454102m. Speed=0.000000m/h.</desc>
<speed>0.000000</speed>
</trkpt>
<trkpt lat="43.154396" lon="19.122292">
<ele>1456.485352</ele>
<time>2012-05-01T14:33:24Z</time>
<desc>lat.=43.154396, lon.=19.122292, Alt.=1456.485352m. Speed=0.036000m/h.</desc>
<speed>0.010000</speed>
</trkpt>
<trkpt lat="43.154396" lon="19.122292">
<ele>1456.485352</ele>
<time>2012-05-01T14:33:29Z</time>
<desc>lat.=43.154396, lon.=19.122292, Alt.=1456.485352m. Speed=0.000000m/h.</desc>
<speed>0.000000</speed>
</trkpt>
<trkpt lat="43.154396" lon="19.122292">
<ele>1456.516602</ele>
<time>2012-05-01T14:33:34Z</time>
<desc>lat.=43.154396, lon.=19.122292, Alt.=1456.516602m. Speed=0.000000m/h.</desc>
<speed>0.000000</speed>
</trkpt>
<trkpt lat="43.154396" lon="19.122292">
<ele>1456.516602</ele>
<time>2012-05-01T14:33:39Z</time>
<desc>lat.=43.154396, lon.=19.122292, Alt.=1456.516602m. Speed=0.000000m/h.</desc>
<speed>0.000000</speed>
</trkpt>
<trkpt lat="43.154396" lon="19.122290">
<ele>1456.485352</ele>
<time>2012-05-01T14:33:44Z</time>
<desc>lat.=43.154396, lon.=19.122290, Alt.=1456.485352m. Speed=0.000000m/h.</desc>
<speed>0.000000</speed>
</trkpt>
<trkpt lat="43.154396" lon="19.122290">
<ele>1456.454102</ele>
<time>2012-05-01T14:33:49Z</time>
<desc>lat.=43.154396, lon.=19.122290, Alt.=1456.454102m. Speed=0.000000m/h.</desc>
<speed>0.000000</speed>
</trkpt>
<trkpt lat="43.154396" lon="19.122290">
<ele>1456.422852</ele>
<time>2012-05-01T14:33:54Z</time>
<desc>lat.=43.154396, lon.=19.122290, Alt.=1456.422852m. Speed=0.000000m/h.</desc>
<speed>0.000000</speed>
</trkpt>
<trkpt lat="43.154396" lon="19.122290">
<ele>1456.391602</ele>
<time>2012-05-01T14:33:59Z</time>
<desc>lat.=43.154396, lon.=19.122290, Alt.=1456.391602m. Speed=0.000000m/h.</desc>
<speed>0.000000</speed>
</trkpt>
<trkpt lat="43.154396" lon="19.122288">
<ele>1456.516602</ele>
<time>2012-05-01T14:34:04Z</time>
<desc>lat.=43.154396, lon.=19.122288, Alt.=1456.516602m. Speed=0.072000m/h.</desc>
<speed>0.020000</speed>
</trkpt>
<trkpt lat="43.154396" lon="19.122286">
<ele>1456.579102</ele>
<time>2012-05-01T14:34:09Z</time>
<desc>lat.=43.154396, lon.=19.122286, Alt.=1456.579102m. Speed=0.000000m/h.</desc>
<speed>0.000000</speed>
</trkpt>
<trkpt lat="43.154396" lon="19.122286">
<ele>1456.641602</ele>
<time>2012-05-01T14:34:14Z</time>
<desc>lat.=43.154396, lon.=19.122286, Alt.=1456.641602m. Speed=0.036000m/h.</desc>
<speed>0.010000</speed>
</trkpt>
<trkpt lat="43.154396" lon="19.122286">
<ele>1456.672852</ele>
<time>2012-05-01T14:34:19Z</time>
<desc>lat.=43.154396, lon.=19.122286, Alt.=1456.672852m. Speed=0.000000m/h.</desc>
<speed>0.000000</speed>
</trkpt>
<trkpt lat="43.154396" lon="19.122286">
<ele>1456.735352</ele>
<time>2012-05-01T14:34:24Z</time>
<desc>lat.=43.154396, lon.=19.122286, Alt.=1456.735352m. Speed=0.000000m/h.</desc>
<speed>0.000000</speed>
</trkpt>
<trkpt lat="43.154392" lon="19.122284">
<ele>1456.766602</ele>
<time>2012-05-01T14:34:29Z</time>
<desc>lat.=43.154392, lon.=19.122284, Alt.=1456.766602m. Speed=0.000000m/h.</desc>
<speed>0.000000</speed>
</trkpt>
<trkpt lat="43.154392" lon="19.122284">
<ele>1456.766602</ele>
<time>2012-05-01T14:34:34Z</time>
<desc>lat.=43.154392, lon.=19.122284, Alt.=1456.766602m. Speed=0.000000m/h.</desc>
<speed>0.000000</speed>
</trkpt>
<trkpt lat="43.154392" lon="19.122284">
<ele>1456.766602</ele>
<time>2012-05-01T14:34:39Z</time>
<desc>lat.=43.154392, lon.=19.122284, Alt.=1456.766602m. Speed=0.000000m/h.</desc>
<speed>0.000000</speed>
</trkpt>
<trkpt lat="43.154392" lon="19.122284">
<ele>1456.735352</ele>
<time>2012-05-01T14:34:44Z</time>
<desc>lat.=43.154392, lon.=19.122284, Alt.=1456.735352m. Speed=0.000000m/h.</desc>
<speed>0.000000</speed>
</trkpt>
<trkpt lat="43.154392" lon="19.122284">
<ele>1456.704102</ele>
<time>2012-05-01T14:34:49Z</time>
<desc>lat.=43.154392, lon.=19.122284, Alt.=1456.704102m. Speed=0.000000m/h.</desc>
<speed>0.000000</speed>
</trkpt>
<trkpt lat="43.154392" lon="19.122284">
<ele>1456.672852</ele>
<time>2012-05-01T14:34:54Z</time>
<desc>lat.=43.154392, lon.=19.122284, Alt.=1456.672852m. Speed=0.036000m/h.</desc>
<speed>0.010000</speed>
</trkpt>
<trkpt lat="43.154392" lon="19.122284">
<ele>1456.672852</ele>
<time>2012-05-01T14:34:59Z</time>
<desc>lat.=43.154392, lon.=19.122284, Alt.=1456.672852m. Speed=0.000000m/h.</desc>
<speed>0.000000</speed>
</trkpt>
<trkpt lat="43.154392" lon="19.122282">
<ele>1456.735352</ele>
<time>2012-05-01T14:35:04Z</time>
<desc>lat.=43.154392, lon.=19.122282, Alt.=1456.735352m. Speed=0.000000m/h.</desc>
<speed>0.000000</speed>
</trkpt>
<trkpt lat="43.154392" lon="19.122282">
<ele>1456.797852</ele>
<time>2012-05-01T14:35:09Z</time>
<desc>lat.=43.154392, lon.=19.122282, Alt.=1456.797852m. Speed=0.000000m/h.</desc>
<speed>0.000000</speed>
</trkpt>
<trkpt lat="43.154392" lon="19.122282">
<ele>1456.860352</ele>
<time>2012-05-01T14:35:14Z</time>
<desc>lat.=43.154392, lon.=19.122282, Alt.=1456.860352m. Speed=0.000000m/h.</desc>
<speed>0.000000</speed>
</trkpt>
<trkpt lat="43.154392" lon="19.122282">
<ele>1456.891602</ele>
<time>2012-05-01T14:35:19Z</time>
<desc>lat.=43.154392, lon.=19.122282, Alt.=1456.891602m. Speed=0.000000m/h.</desc>
<speed>0.000000</speed>
</trkpt>
<trkpt lat="43.154392" lon="19.122282">
<ele>1456.922852</ele>
<time>2012-05-01T14:35:24Z</time>
<desc>lat.=43.154392, lon.=19.122282, Alt.=1456.922852m. Speed=0.000000m/h.</desc>
<speed>0.000000</speed>
</trkpt>
<trkpt lat="43.154392" lon="19.122282">
<ele>1456.922852</ele>
<time>2012-05-01T14:35:29Z</time>
<desc>lat.=43.154392, lon.=19.122282, Alt.=1456.922852m. Speed=0.000000m/h.</desc>
<speed>0.000000</speed>
</trkpt>
<trkpt lat="43.154392" lon="19.122282">
<ele>1456.891602</ele>
<time>2012-05-01T14:35:34Z</time>
<desc>lat.=43.154392, lon.=19.122282, Alt.=1456.891602m. Speed=0.000000m/h.</desc>
<speed>0.000000</speed>
</trkpt>
<trkpt lat="43.154392" lon="19.122280">
<ele>1456.860352</ele>
<time>2012-05-01T14:35:39Z</time>
<desc>lat.=43.154392, lon.=19.122280, Alt.=1456.860352m. Speed=0.036000m/h.</desc>
<speed>0.010000</speed>
</trkpt>
<trkpt lat="43.154392" lon="19.122280">
<ele>1456.829102</ele>
<time>2012-05-01T14:35:44Z</time>
<desc>lat.=43.154392, lon.=19.122280, Alt.=1456.829102m. Speed=0.036000m/h.</desc>
<speed>0.010000</speed>
</trkpt>
<trkpt lat="43.154392" lon="19.122280">
<ele>1456.860352</ele>
<time>2012-05-01T14:35:49Z</time>
<desc>lat.=43.154392, lon.=19.122280, Alt.=1456.860352m. Speed=0.000000m/h.</desc>
<speed>0.000000</speed>
</trkpt>
<trkpt lat="43.154392" lon="19.122280">
<ele>1456.891602</ele>
<time>2012-05-01T14:35:54Z</time>
<desc>lat.=43.154392, lon.=19.122280, Alt.=1456.891602m. Speed=0.000000m/h.</desc>
<speed>0.000000</speed>
</trkpt>
<trkpt lat="43.154392" lon="19.122280">
<ele>1456.891602</ele>
<time>2012-05-01T14:35:59Z</time>
<desc>lat.=43.154392, lon.=19.122280, Alt.=1456.891602m. Speed=0.000000m/h.</desc>
<speed>0.000000</speed>
</trkpt>
<trkpt lat="43.154392" lon="19.122278">
<ele>1456.860352</ele>
<time>2012-05-01T14:36:04Z</time>
<desc>lat.=43.154392, lon.=19.122278, Alt.=1456.860352m. Speed=0.036000m/h.</desc>
<speed>0.010000</speed>
</trkpt>
<trkpt lat="43.154392" lon="19.122278">
<ele>1456.829102</ele>
<time>2012-05-01T14:36:09Z</time>
<desc>lat.=43.154392, lon.=19.122278, Alt.=1456.829102m. Speed=0.000000m/h.</desc>
<speed>0.000000</speed>
</trkpt>
<trkpt lat="43.154392" lon="19.122278">
<ele>1456.829102</ele>
<time>2012-05-01T14:36:14Z</time>
<desc>lat.=43.154392, lon.=19.122278, Alt.=1456.829102m. Speed=0.000000m/h.</desc>
<speed>0.000000</speed>
</trkpt>
<trkpt lat="43.154392" lon="19.122278">
<ele>1456.860352</ele>
<time>2012-05-01T14:36:19Z</time>
<desc>lat.=43.154392, lon.=19.122278, Alt.=1456.860352m. Speed=0.000000m/h.</desc>
<speed>0.000000</speed>
</trkpt>
<trkpt lat="43.154392" lon="19.122278">
<ele>1456.860352</ele>
<time>2012-05-01T14:36:24Z</time>
<desc>lat.=43.154392, lon.=19.122278, Alt.=1456.860352m. Speed=0.000000m/h.</desc>
<speed>0.000000</speed>
</trkpt>
<trkpt lat="43.154392" lon="19.122276">
<ele>1456.891602</ele>
<time>2012-05-01T14:36:29Z</time>
<desc>lat.=43.154392, lon.=19.122276, Alt.=1456.891602m. Speed=0.108000m/h.</desc>
<speed>0.030000</speed>
</trkpt>
<trkpt lat="43.154392" lon="19.122276">
<ele>1456.954102</ele>
<time>2012-05-01T14:36:34Z</time>
<desc>lat.=43.154392, lon.=19.122276, Alt.=1456.954102m. Speed=0.036000m/h.</desc>
<speed>0.010000</speed>
</trkpt>
<trkpt lat="43.154392" lon="19.122269">
<ele>1457.079102</ele>
<time>2012-05-01T14:36:39Z</time>
<desc>lat.=43.154392, lon.=19.122269, Alt.=1457.079102m. Speed=0.036000m/h.</desc>
<speed>0.010000</speed>
</trkpt>
<trkpt lat="43.154392" lon="19.122261">
<ele>1457.141602</ele>
<time>2012-05-01T14:36:44Z</time>
<desc>lat.=43.154392, lon.=19.122261, Alt.=1457.141602m. Speed=0.000000m/h.</desc>
<speed>0.000000</speed>
</trkpt>
<trkpt lat="43.154392" lon="19.122261">
<ele>1457.172852</ele>
<time>2012-05-01T14:36:49Z</time>
<desc>lat.=43.154392, lon.=19.122261, Alt.=1457.172852m. Speed=0.000000m/h.</desc>
<speed>0.000000</speed>
</trkpt>
<trkpt lat="43.154392" lon="19.122259">
<ele>1457.172852</ele>
<time>2012-05-01T14:36:54Z</time>
<desc>lat.=43.154392, lon.=19.122259, Alt.=1457.172852m. Speed=0.000000m/h.</desc>
<speed>0.000000</speed>
</trkpt>
<trkpt lat="43.154392" lon="19.122259">
<ele>1457.204102</ele>
<time>2012-05-01T14:36:59Z</time>
<desc>lat.=43.154392, lon.=19.122259, Alt.=1457.204102m. Speed=0.000000m/h.</desc>
<speed>0.000000</speed>
</trkpt>
<trkpt lat="43.154392" lon="19.122259">
<ele>1457.235352</ele>
<time>2012-05-01T14:37:04Z</time>
<desc>lat.=43.154392, lon.=19.122259, Alt.=1457.235352m. Speed=0.000000m/h.</desc>
<speed>0.000000</speed>
</trkpt>
<trkpt lat="43.154392" lon="19.122257">
<ele>1457.266602</ele>
<time>2012-05-01T14:37:09Z</time>
<desc>lat.=43.154392, lon.=19.122257, Alt.=1457.266602m. Speed=0.000000m/h.</desc>
<speed>0.000000</speed>
</trkpt>
<trkpt lat="43.154392" lon="19.122257">
<ele>1457.266602</ele>
<time>2012-05-01T14:37:14Z</time>
<desc>lat.=43.154392, lon.=19.122257, Alt.=1457.266602m. Speed=0.000000m/h.</desc>
<speed>0.000000</speed>
</trkpt>
<trkpt lat="43.154392" lon="19.122257">
<ele>1457.235352</ele>
<time>2012-05-01T14:37:19Z</time>
<desc>lat.=43.154392, lon.=19.122257, Alt.=1457.235352m. Speed=0.000000m/h.</desc>
<speed>0.000000</speed>
</trkpt>
<trkpt lat="43.154392" lon="19.122257">
<ele>1457.235352</ele>
<time>2012-05-01T14:37:24Z</time>
<desc>lat.=43.154392, lon.=19.122257, Alt.=1457.235352m. Speed=0.000000m/h.</desc>
<speed>0.000000</speed>
</trkpt>
<trkpt lat="43.154392" lon="19.122257">
<ele>1457.266602</ele>
<time>2012-05-01T14:37:29Z</time>
<desc>lat.=43.154392, lon.=19.122257, Alt.=1457.266602m. Speed=0.000000m/h.</desc>
<speed>0.000000</speed>
</trkpt>
<trkpt lat="43.154392" lon="19.122257">
<ele>1457.235352</ele>
<time>2012-05-01T14:37:34Z</time>
<desc>lat.=43.154392, lon.=19.122257, Alt.=1457.235352m. Speed=0.000000m/h.</desc>
<speed>0.000000</speed>
</trkpt>
<trkpt lat="43.154392" lon="19.122257">
<ele>1457.204102</ele>
<time>2012-05-01T14:37:39Z</time>
<desc>lat.=43.154392, lon.=19.122257, Alt.=1457.204102m. Speed=0.000000m/h.</desc>
<speed>0.000000</speed>
</trkpt>
<trkpt lat="43.154392" lon="19.122255">
<ele>1457.235352</ele>
<time>2012-05-01T14:37:44Z</time>
<desc>lat.=43.154392, lon.=19.122255, Alt.=1457.235352m. Speed=0.000000m/h.</desc>
<speed>0.000000</speed>
</trkpt>
<trkpt lat="43.154392" lon="19.122255">
<ele>1457.266602</ele>
<time>2012-05-01T14:37:49Z</time>
<desc>lat.=43.154392, lon.=19.122255, Alt.=1457.266602m. Speed=0.000000m/h.</desc>
<speed>0.000000</speed>
</trkpt>
<trkpt lat="43.154392" lon="19.122255">
<ele>1457.297852</ele>
<time>2012-05-01T14:37:54Z</time>
<desc>lat.=43.154392, lon.=19.122255, Alt.=1457.297852m. Speed=0.000000m/h.</desc>
<speed>0.000000</speed>
</trkpt>
<trkpt lat="43.154392" lon="19.122255">
<ele>1457.266602</ele>
<time>2012-05-01T14:37:59Z</time>
<desc>lat.=43.154392, lon.=19.122255, Alt.=1457.266602m. Speed=0.000000m/h.</desc>
<speed>0.000000</speed>
</trkpt>
<trkpt lat="43.154392" lon="19.122255">
<ele>1457.266602</ele>
<time>2012-05-01T14:38:04Z</time>
<desc>lat.=43.154392, lon.=19.122255, Alt.=1457.266602m. Speed=0.000000m/h.</desc>
<speed>0.000000</speed>
</trkpt>
<trkpt lat="43.154392" lon="19.122255">
<ele>1457.329102</ele>
<time>2012-05-01T14:38:09Z</time>
<desc>lat.=43.154392, lon.=19.122255, Alt.=1457.329102m. Speed=0.000000m/h.</desc>
<speed>0.000000</speed>
</trkpt>
<trkpt lat="43.154392" lon="19.122255">
<ele>1457.360352</ele>
<time>2012-05-01T14:38:14Z</time>
<desc>lat.=43.154392, lon.=19.122255, Alt.=1457.360352m. Speed=0.000000m/h.</desc>
<speed>0.000000</speed>
</trkpt>
<trkpt lat="43.154392" lon="19.122255">
<ele>1457.329102</ele>
<time>2012-05-01T14:38:19Z</time>
<desc>lat.=43.154392, lon.=19.122255, Alt.=1457.329102m. Speed=0.000000m/h.</desc>
<speed>0.000000</speed>
</trkpt>
<trkpt lat="43.154392" lon="19.122255">
<ele>1457.266602</ele>
<time>2012-05-01T14:38:24Z</time>
<desc>lat.=43.154392, lon.=19.122255, Alt.=1457.266602m. Speed=0.036000m/h.</desc>
<speed>0.010000</speed>
</trkpt>
<trkpt lat="43.154392" lon="19.122255">
<ele>1457.235352</ele>
<time>2012-05-01T14:38:29Z</time>
<desc>lat.=43.154392, lon.=19.122255, Alt.=1457.235352m. Speed=0.000000m/h.</desc>
<speed>0.000000</speed>
</trkpt>
<trkpt lat="43.154392" lon="19.122255">
<ele>1457.266602</ele>
<time>2012-05-01T14:38:34Z</time>
<desc>lat.=43.154392, lon.=19.122255, Alt.=1457.266602m. Speed=0.036000m/h.</desc>
<speed>0.010000</speed>
</trkpt>
<trkpt lat="43.154392" lon="19.122257">
<ele>1457.297852</ele>
<time>2012-05-01T14:38:39Z</time>
<desc>lat.=43.154392, lon.=19.122257, Alt.=1457.297852m. Speed=0.036000m/h.</desc>
<speed>0.010000</speed>
</trkpt>
<trkpt lat="43.154392" lon="19.122257">
<ele>1457.266602</ele>
<time>2012-05-01T14:38:44Z</time>
<desc>lat.=43.154392, lon.=19.122257, Alt.=1457.266602m. Speed=0.000000m/h.</desc>
<speed>0.000000</speed>
</trkpt>
<trkpt lat="43.154392" lon="19.122257">
<ele>1457.235352</ele>
<time>2012-05-01T14:38:49Z</time>
<desc>lat.=43.154392, lon.=19.122257, Alt.=1457.235352m. Speed=0.000000m/h.</desc>
<speed>0.000000</speed>
</trkpt>
<trkpt lat="43.154392" lon="19.122257">
<ele>1457.235352</ele>
<time>2012-05-01T14:38:54Z</time>
<desc>lat.=43.154392, lon.=19.122257, Alt.=1457.235352m. Speed=0.036000m/h.</desc>
<speed>0.010000</speed>
</trkpt>
<trkpt lat="43.154396" lon="19.122257">
<ele>1457.266602</ele>
<time>2012-05-01T14:38:59Z</time>
<desc>lat.=43.154396, lon.=19.122257, Alt.=1457.266602m. Speed=0.000000m/h.</desc>
<speed>0.000000</speed>
</trkpt>
<trkpt lat="43.154392" lon="19.122257">
<ele>1457.266602</ele>
<time>2012-05-01T14:39:04Z</time>
<desc>lat.=43.154392, lon.=19.122257, Alt.=1457.266602m. Speed=0.000000m/h.</desc>
<speed>0.000000</speed>
</trkpt>
<trkpt lat="43.154392" lon="19.122257">
<ele>1457.235352</ele>
<time>2012-05-01T14:39:09Z</time>
<desc>lat.=43.154392, lon.=19.122257, Alt.=1457.235352m. Speed=0.000000m/h.</desc>
<speed>0.000000</speed>
</trkpt>
<trkpt lat="43.154396" lon="19.122257">
<ele>1457.172852</ele>
<time>2012-05-01T14:39:14Z</time>
<desc>lat.=43.154396, lon.=19.122257, Alt.=1457.172852m. Speed=0.000000m/h.</desc>
<speed>0.000000</speed>
</trkpt>
<trkpt lat="43.154396" lon="19.122257">
<ele>1457.172852</ele>
<time>2012-05-01T14:39:19Z</time>
<desc>lat.=43.154396, lon.=19.122257, Alt.=1457.172852m. Speed=0.036000m/h.</desc>
<speed>0.010000</speed>
</trkpt>
<trkpt lat="43.154396" lon="19.122259">
<ele>1457.204102</ele>
<time>2012-05-01T14:39:24Z</time>
<desc>lat.=43.154396, lon.=19.122259, Alt.=1457.204102m. Speed=0.000000m/h.</desc>
<speed>0.000000</speed>
</trkpt>
<trkpt lat="43.154396" lon="19.122257">
<ele>1457.235352</ele>
<time>2012-05-01T14:39:29Z</time>
<desc>lat.=43.154396, lon.=19.122257, Alt.=1457.235352m. Speed=0.000000m/h.</desc>
<speed>0.000000</speed>
</trkpt>
<trkpt lat="43.154396" lon="19.122257">
<ele>1457.204102</ele>
<time>2012-05-01T14:39:34Z</time>
<desc>lat.=43.154396, lon.=19.122257, Alt.=1457.204102m. Speed=0.000000m/h.</desc>
<speed>0.000000</speed>
</trkpt>
<trkpt lat="43.154396" lon="19.122257">
<ele>1457.235352</ele>
<time>2012-05-01T14:39:39Z</time>
<desc>lat.=43.154396, lon.=19.122257, Alt.=1457.235352m. Speed=0.000000m/h.</desc>
<speed>0.000000</speed>
</trkpt>
<trkpt lat="43.154396" lon="19.122257">
<ele>1457.266602</ele>
<time>2012-05-01T14:39:44Z</time>
<desc>lat.=43.154396, lon.=19.122257, Alt.=1457.266602m. Speed=0.000000m/h.</desc>
<speed>0.000000</speed>
</trkpt>
<trkpt lat="43.154392" lon="19.122257">
<ele>1457.266602</ele>
<time>2012-05-01T14:39:49Z</time>
<desc>lat.=43.154392, lon.=19.122257, Alt.=1457.266602m. Speed=0.000000m/h.</desc>
<speed>0.000000</speed>
</trkpt>
<trkpt lat="43.154396" lon="19.122257">
<ele>1457.235352</ele>
<time>2012-05-01T14:39:54Z</time>
<desc>lat.=43.154396, lon.=19.122257, Alt.=1457.235352m. Speed=0.036000m/h.</desc>
<speed>0.010000</speed>
</trkpt>
<trkpt lat="43.154396" lon="19.122257">
<ele>1457.204102</ele>
<time>2012-05-01T14:39:59Z</time>
<desc>lat.=43.154396, lon.=19.122257, Alt.=1457.204102m. Speed=0.036000m/h.</desc>
<speed>0.010000</speed>
</trkpt>
<trkpt lat="43.154396" lon="19.122255">
<ele>1457.235352</ele>
<time>2012-05-01T14:40:04Z</time>
<desc>lat.=43.154396, lon.=19.122255, Alt.=1457.235352m. Speed=0.000000m/h.</desc>
<speed>0.000000</speed>
</trkpt>
<trkpt lat="43.154396" lon="19.122255">
<ele>1457.266602</ele>
<time>2012-05-01T14:40:09Z</time>
<desc>lat.=43.154396, lon.=19.122255, Alt.=1457.266602m. Speed=0.000000m/h.</desc>
<speed>0.000000</speed>
</trkpt>
<trkpt lat="43.154396" lon="19.122255">
<ele>1457.297852</ele>
<time>2012-05-01T14:40:14Z</time>
<desc>lat.=43.154396, lon.=19.122255, Alt.=1457.297852m. Speed=0.000000m/h.</desc>
<speed>0.000000</speed>
</trkpt>
<trkpt lat="43.154396" lon="19.122255">
<ele>1457.266602</ele>
<time>2012-05-01T14:40:19Z</time>
<desc>lat.=43.154396, lon.=19.122255, Alt.=1457.266602m. Speed=0.000000m/h.</desc>
<speed>0.000000</speed>
</trkpt>
<trkpt lat="43.154396" lon="19.122255">
<ele>1457.235352</ele>
<time>2012-05-01T14:40:24Z</time>
<desc>lat.=43.154396, lon.=19.122255, Alt.=1457.235352m. Speed=0.000000m/h.</desc>
<speed>0.000000</speed>
</trkpt>
<trkpt lat="43.154396" lon="19.122255">
<ele>1457.266602</ele>
<time>2012-05-01T14:40:29Z</time>
<desc>lat.=43.154396, lon.=19.122255, Alt.=1457.266602m. Speed=0.036000m/h.</desc>
<speed>0.010000</speed>
</trkpt>
<trkpt lat="43.154396" lon="19.122255">
<ele>1457.266602</ele>
<time>2012-05-01T14:40:34Z</time>
<desc>lat.=43.154396, lon.=19.122255, Alt.=1457.266602m. Speed=0.072000m/h.</desc>
<speed>0.020000</speed>
</trkpt>
<trkpt lat="43.154396" lon="19.122255">
<ele>1457.235352</ele>
<time>2012-05-01T14:40:39Z</time>
<desc>lat.=43.154396, lon.=19.122255, Alt.=1457.235352m. Speed=0.000000m/h.</desc>
<speed>0.000000</speed>
</trkpt>
<trkpt lat="43.154396" lon="19.122255">
<ele>1457.235352</ele>
<time>2012-05-01T14:40:44Z</time>
<desc>lat.=43.154396, lon.=19.122255, Alt.=1457.235352m. Speed=0.000000m/h.</desc>
<speed>0.000000</speed>
</trkpt>
<trkpt lat="43.154396" lon="19.122255">
<ele>1457.297852</ele>
<time>2012-05-01T14:40:49Z</time>
<desc>lat.=43.154396, lon.=19.122255, Alt.=1457.297852m. Speed=0.000000m/h.</desc>
<speed>0.000000</speed>
</trkpt>
<trkpt lat="43.154396" lon="19.122255">
<ele>1457.360352</ele>
<time>2012-05-01T14:40:54Z</time>
<desc>lat.=43.154396, lon.=19.122255, Alt.=1457.360352m. Speed=0.000000m/h.</desc>
<speed>0.000000</speed>
</trkpt>
<trkpt lat="43.154396" lon="19.122255">
<ele>1457.391602</ele>
<time>2012-05-01T14:40:59Z</time>
<desc>lat.=43.154396, lon.=19.122255, Alt.=1457.391602m. Speed=0.036000m/h.</desc>
<speed>0.010000</speed>
</trkpt>
<trkpt lat="43.154396" lon="19.122255">
<ele>1457.391602</ele>
<time>2012-05-01T14:41:04Z</time>
<desc>lat.=43.154396, lon.=19.122255, Alt.=1457.391602m. Speed=0.000000m/h.</desc>
<speed>0.000000</speed>
</trkpt>
<trkpt lat="43.154396" lon="19.122255">
<ele>1457.391602</ele>
<time>2012-05-01T14:41:09Z</time>
<desc>lat.=43.154396, lon.=19.122255, Alt.=1457.391602m. Speed=0.000000m/h.</desc>
<speed>0.000000</speed>
</trkpt>
<trkpt lat="43.154396" lon="19.122255">
<ele>1457.391602</ele>
<time>2012-05-01T14:41:14Z</time>
<desc>lat.=43.154396, lon.=19.122255, Alt.=1457.391602m. Speed=0.000000m/h.</desc>
<speed>0.000000</speed>
</trkpt>
<trkpt lat="43.154396" lon="19.122255">
<ele>1457.391602</ele>
<time>2012-05-01T14:41:19Z</time>
<desc>lat.=43.154396, lon.=19.122255, Alt.=1457.391602m. Speed=0.000000m/h.</desc>
<speed>0.000000</speed>
</trkpt>
<trkpt lat="43.154396" lon="19.122255">
<ele>1457.360352</ele>
<time>2012-05-01T14:41:24Z</time>
<desc>lat.=43.154396, lon.=19.122255, Alt.=1457.360352m. Speed=0.000000m/h.</desc>
<speed>0.000000</speed>
</trkpt>
<trkpt lat="43.154396" lon="19.122255">
<ele>1457.360352</ele>
<time>2012-05-01T14:41:29Z</time>
<desc>lat.=43.154396, lon.=19.122255, Alt.=1457.360352m. Speed=0.000000m/h.</desc>
<speed>0.000000</speed>
</trkpt>
<trkpt lat="43.154396" lon="19.122255">
<ele>1457.360352</ele>
<time>2012-05-01T14:41:34Z</time>
<desc>lat.=43.154396, lon.=19.122255, Alt.=1457.360352m. Speed=0.828000m/h.</desc>
<speed>0.230000</speed>
</trkpt>
<trkpt lat="43.154411" lon="19.122240">
<ele>1457.266602</ele>
<time>2012-05-01T14:41:39Z</time>
<desc>lat.=43.154411, lon.=19.122240, Alt.=1457.266602m. Speed=6.948000m/h.</desc>
<speed>1.930000</speed>
</trkpt>
<trkpt lat="43.154552" lon="19.122297">
<ele>1456.016602</ele>
<time>2012-05-01T14:41:44Z</time>
<desc>lat.=43.154552, lon.=19.122297, Alt.=1456.016602m. Speed=14.652000m/h.</desc>
<speed>4.070000</speed>
</trkpt>
<trkpt lat="43.154686" lon="19.122320">
<ele>1456.047852</ele>
<time>2012-05-01T14:41:49Z</time>
<desc>lat.=43.154686, lon.=19.122320, Alt.=1456.047852m. Speed=8.892000m/h.</desc>
<speed>2.470000</speed>
</trkpt>
<trkpt lat="43.154812" lon="19.122166">
<ele>1458.141602</ele>
<time>2012-05-01T14:41:54Z</time>
<desc>lat.=43.154812, lon.=19.122166, Alt.=1458.141602m. Speed=15.336000m/h.</desc>
<speed>4.260000</speed>
</trkpt>
<trkpt lat="43.154850" lon="19.121889">
<ele>1458.079102</ele>
<time>2012-05-01T14:41:59Z</time>
<desc>lat.=43.154850, lon.=19.121889, Alt.=1458.079102m. Speed=16.020000m/h.</desc>
<speed>4.450000</speed>
</trkpt>
<trkpt lat="43.154888" lon="19.121578">
<ele>1457.047852</ele>
<time>2012-05-01T14:42:04Z</time>
<desc>lat.=43.154888, lon.=19.121578, Alt.=1457.047852m. Speed=19.044001m/h.</desc>
<speed>5.290000</speed>
</trkpt>
<trkpt lat="43.154934" lon="19.121313">
<ele>1457.704102</ele>
<time>2012-05-01T14:42:09Z</time>
<desc>lat.=43.154934, lon.=19.121313, Alt.=1457.704102m. Speed=6.444000m/h.</desc>
<speed>1.790000</speed>
</trkpt>
<trkpt lat="43.154953" lon="19.121271">
<ele>1457.516602</ele>
<time>2012-05-01T14:42:14Z</time>
<desc>lat.=43.154953, lon.=19.121271, Alt.=1457.516602m. Speed=2.700000m/h.</desc>
<speed>0.750000</speed>
</trkpt>
<trkpt lat="43.154968" lon="19.121275">
<ele>1457.454102</ele>
<time>2012-05-01T14:42:19Z</time>
<desc>lat.=43.154968, lon.=19.121275, Alt.=1457.454102m. Speed=0.180000m/h.</desc>
<speed>0.050000</speed>
</trkpt>
<trkpt lat="43.154972" lon="19.121284">
<ele>1457.266602</ele>
<time>2012-05-01T14:42:24Z</time>
<desc>lat.=43.154972, lon.=19.121284, Alt.=1457.266602m. Speed=0.072000m/h.</desc>
<speed>0.020000</speed>
</trkpt>
<trkpt lat="43.154972" lon="19.121288">
<ele>1457.172852</ele>
<time>2012-05-01T14:42:29Z</time>
<desc>lat.=43.154972, lon.=19.121288, Alt.=1457.172852m. Speed=0.540000m/h.</desc>
<speed>0.150000</speed>
</trkpt>
<trkpt lat="43.154976" lon="19.121286">
<ele>1457.141602</ele>
<time>2012-05-01T14:42:34Z</time>
<desc>lat.=43.154976, lon.=19.121286, Alt.=1457.141602m. Speed=0.180000m/h.</desc>
<speed>0.050000</speed>
</trkpt>
<trkpt lat="43.154976" lon="19.121281">
<ele>1457.110352</ele>
<time>2012-05-01T14:42:39Z</time>
<desc>lat.=43.154976, lon.=19.121281, Alt.=1457.110352m. Speed=0.180000m/h.</desc>
<speed>0.050000</speed>
</trkpt>
<trkpt lat="43.154984" lon="19.121239">
<ele>1457.329102</ele>
<time>2012-05-01T14:42:44Z</time>
<desc>lat.=43.154984, lon.=19.121239, Alt.=1457.329102m. Speed=2.124000m/h.</desc>
<speed>0.590000</speed>
</trkpt>
<trkpt lat="43.155003" lon="19.121243">
<ele>1459.110352</ele>
<time>2012-05-01T14:42:49Z</time>
<desc>lat.=43.155003, lon.=19.121243, Alt.=1459.110352m. Speed=4.176000m/h.</desc>
<speed>1.160000</speed>
</trkpt>
<trkpt lat="43.155003" lon="19.121166">
<ele>1462.735352</ele>
<time>2012-05-01T14:42:54Z</time>
<desc>lat.=43.155003, lon.=19.121166, Alt.=1462.735352m. Speed=2.988000m/h.</desc>
<speed>0.830000</speed>
</trkpt>
<trkpt lat="43.155041" lon="19.121086">
<ele>1466.422852</ele>
<time>2012-05-01T14:42:59Z</time>
<desc>lat.=43.155041, lon.=19.121086, Alt.=1466.422852m. Speed=7.776000m/h.</desc>
<speed>2.160000</speed>
</trkpt>
<trkpt lat="43.155190" lon="19.121082">
<ele>1464.110352</ele>
<time>2012-05-01T14:43:04Z</time>
<desc>lat.=43.155190, lon.=19.121082, Alt.=1464.110352m. Speed=15.228000m/h.</desc>
<speed>4.230000</speed>
</trkpt>
<trkpt lat="43.155315" lon="19.121119">
<ele>1461.516602</ele>
<time>2012-05-01T14:43:09Z</time>
<desc>lat.=43.155315, lon.=19.121119, Alt.=1461.516602m. Speed=3.600000m/h.</desc>
<speed>1.000000</speed>
</trkpt>
<trkpt lat="43.155346" lon="19.121046">
<ele>1457.797852</ele>
<time>2012-05-01T14:43:14Z</time>
<desc>lat.=43.155346, lon.=19.121046, Alt.=1457.797852m. Speed=5.328000m/h.</desc>
<speed>1.480000</speed>
</trkpt>
<trkpt lat="43.155273" lon="19.120977">
<ele>1453.860352</ele>
<time>2012-05-01T14:43:19Z</time>
<desc>lat.=43.155273, lon.=19.120977, Alt.=1453.860352m. Speed=8.460000m/h.</desc>
<speed>2.350000</speed>
</trkpt>
<trkpt lat="43.155220" lon="19.120905">
<ele>1452.829102</ele>
<time>2012-05-01T14:43:24Z</time>
<desc>lat.=43.155220, lon.=19.120905, Alt.=1452.829102m. Speed=4.320000m/h.</desc>
<speed>1.200000</speed>
</trkpt>
<trkpt lat="43.155224" lon="19.120867">
<ele>1453.266602</ele>
<time>2012-05-01T14:43:29Z</time>
<desc>lat.=43.155224, lon.=19.120867, Alt.=1453.266602m. Speed=1.260000m/h.</desc>
<speed>0.350000</speed>
</trkpt>
<trkpt lat="43.155178" lon="19.120792">
<ele>1453.672852</ele>
<time>2012-05-01T14:43:34Z</time>
<desc>lat.=43.155178, lon.=19.120792, Alt.=1453.672852m. Speed=9.648000m/h.</desc>
<speed>2.680000</speed>
</trkpt>
<trkpt lat="43.155079" lon="19.120707">
<ele>1453.735352</ele>
<time>2012-05-01T14:43:39Z</time>
<desc>lat.=43.155079, lon.=19.120707, Alt.=1453.735352m. Speed=8.208000m/h.</desc>
<speed>2.280000</speed>
</trkpt>
<trkpt lat="43.155064" lon="19.120567">
<ele>1452.766602</ele>
<time>2012-05-01T14:43:44Z</time>
<desc>lat.=43.155064, lon.=19.120567, Alt.=1452.766602m. Speed=7.740000m/h.</desc>
<speed>2.150000</speed>
</trkpt>
<trkpt lat="43.155071" lon="19.120403">
<ele>1453.829102</ele>
<time>2012-05-01T14:43:49Z</time>
<desc>lat.=43.155071, lon.=19.120403, Alt.=1453.829102m. Speed=12.276000m/h.</desc>
<speed>3.410000</speed>
</trkpt>
<trkpt lat="43.155136" lon="19.120186">
<ele>1456.235352</ele>
<time>2012-05-01T14:43:54Z</time>
<desc>lat.=43.155136, lon.=19.120186, Alt.=1456.235352m. Speed=14.076000m/h.</desc>
<speed>3.910000</speed>
</trkpt>
<trkpt lat="43.155193" lon="19.119940">
<ele>1458.641602</ele>
<time>2012-05-01T14:43:59Z</time>
<desc>lat.=43.155193, lon.=19.119940, Alt.=1458.641602m. Speed=11.520000m/h.</desc>
<speed>3.200000</speed>
</trkpt>
<trkpt lat="43.155220" lon="19.119724">
<ele>1462.954102</ele>
<time>2012-05-01T14:44:04Z</time>
<desc>lat.=43.155220, lon.=19.119724, Alt.=1462.954102m. Speed=13.824000m/h.</desc>
<speed>3.840000</speed>
</trkpt>
<trkpt lat="43.155220" lon="19.119448">
<ele>1464.735352</ele>
<time>2012-05-01T14:44:09Z</time>
<desc>lat.=43.155220, lon.=19.119448, Alt.=1464.735352m. Speed=13.680000m/h.</desc>
<speed>3.800000</speed>
</trkpt>
<trkpt lat="43.155178" lon="19.119267">
<ele>1459.485352</ele>
<time>2012-05-01T14:44:14Z</time>
<desc>lat.=43.155178, lon.=19.119267, Alt.=1459.485352m. Speed=10.728000m/h.</desc>
<speed>2.980000</speed>
</trkpt>
<trkpt lat="43.155128" lon="19.119127">
<ele>1456.891602</ele>
<time>2012-05-01T14:44:19Z</time>
<desc>lat.=43.155128, lon.=19.119127, Alt.=1456.891602m. Speed=9.036000m/h.</desc>
<speed>2.510000</speed>
</trkpt>
<trkpt lat="43.155037" lon="19.119001">
<ele>1454.204102</ele>
<time>2012-05-01T14:44:24Z</time>
<desc>lat.=43.155037, lon.=19.119001, Alt.=1454.204102m. Speed=10.152000m/h.</desc>
<speed>2.820000</speed>
</trkpt>
<trkpt lat="43.154976" lon="19.118803">
<ele>1452.547852</ele>
<time>2012-05-01T14:44:29Z</time>
<desc>lat.=43.154976, lon.=19.118803, Alt.=1452.547852m. Speed=13.176000m/h.</desc>
<speed>3.660000</speed>
</trkpt>
<trkpt lat="43.154911" lon="19.118574">
<ele>1451.797852</ele>
<time>2012-05-01T14:44:34Z</time>
<desc>lat.=43.154911, lon.=19.118574, Alt.=1451.797852m. Speed=14.184000m/h.</desc>
<speed>3.940000</speed>
</trkpt>
<trkpt lat="43.154854" lon="19.118313">
<ele>1452.047852</ele>
<time>2012-05-01T14:44:39Z</time>
<desc>lat.=43.154854, lon.=19.118313, Alt.=1452.047852m. Speed=16.091999m/h.</desc>
<speed>4.470000</speed>
</trkpt>
<trkpt lat="43.154755" lon="19.118067">
<ele>1451.672852</ele>
<time>2012-05-01T14:44:44Z</time>
<desc>lat.=43.154755, lon.=19.118067, Alt.=1451.672852m. Speed=15.948000m/h.</desc>
<speed>4.430000</speed>
</trkpt>
<trkpt lat="43.154663" lon="19.117790">
<ele>1452.485352</ele>
<time>2012-05-01T14:44:49Z</time>
<desc>lat.=43.154663, lon.=19.117790, Alt.=1452.485352m. Speed=18.900000m/h.</desc>
<speed>5.250000</speed>
</trkpt>
<trkpt lat="43.154568" lon="19.117500">
<ele>1451.735352</ele>
<time>2012-05-01T14:44:54Z</time>
<desc>lat.=43.154568, lon.=19.117500, Alt.=1451.735352m. Speed=17.136000m/h.</desc>
<speed>4.760000</speed>
</trkpt>
<trkpt lat="43.154495" lon="19.117226">
<ele>1452.047852</ele>
<time>2012-05-01T14:44:59Z</time>
<desc>lat.=43.154495, lon.=19.117226, Alt.=1452.047852m. Speed=17.639999m/h.</desc>
<speed>4.900000</speed>
</trkpt>
<trkpt lat="43.154449" lon="19.116938">
<ele>1451.610352</ele>
<time>2012-05-01T14:45:04Z</time>
<desc>lat.=43.154449, lon.=19.116938, Alt.=1451.610352m. Speed=16.200001m/h.</desc>
<speed>4.500000</speed>
</trkpt>
<trkpt lat="43.154408" lon="19.116684">
<ele>1453.891602</ele>
<time>2012-05-01T14:45:09Z</time>
<desc>lat.=43.154408, lon.=19.116684, Alt.=1453.891602m. Speed=12.384000m/h.</desc>
<speed>3.440000</speed>
</trkpt>
<trkpt lat="43.154404" lon="19.116589">
<ele>1452.704102</ele>
<time>2012-05-01T14:45:14Z</time>
<desc>lat.=43.154404, lon.=19.116589, Alt.=1452.704102m. Speed=1.656000m/h.</desc>
<speed>0.460000</speed>
</trkpt>
<trkpt lat="43.154430" lon="19.116566">
<ele>1451.954102</ele>
<time>2012-05-01T14:45:19Z</time>
<desc>lat.=43.154430, lon.=19.116566, Alt.=1451.954102m. Speed=0.972000m/h.</desc>
<speed>0.270000</speed>
</trkpt>
<trkpt lat="43.154438" lon="19.116568">
<ele>1451.266602</ele>
<time>2012-05-01T14:45:24Z</time>
<desc>lat.=43.154438, lon.=19.116568, Alt.=1451.266602m. Speed=0.252000m/h.</desc>
<speed>0.070000</speed>
</trkpt>
<trkpt lat="43.154438" lon="19.116566">
<ele>1450.891602</ele>
<time>2012-05-01T14:45:29Z</time>
<desc>lat.=43.154438, lon.=19.116566, Alt.=1450.891602m. Speed=0.468000m/h.</desc>
<speed>0.130000</speed>
</trkpt>
<trkpt lat="43.154427" lon="19.116566">
<ele>1450.860352</ele>
<time>2012-05-01T14:45:34Z</time>
<desc>lat.=43.154427, lon.=19.116566, Alt.=1450.860352m. Speed=1.044000m/h.</desc>
<speed>0.290000</speed>
</trkpt>
<trkpt lat="43.154415" lon="19.116566">
<ele>1450.891602</ele>
<time>2012-05-01T14:45:39Z</time>
<desc>lat.=43.154415, lon.=19.116566, Alt.=1450.891602m. Speed=0.468000m/h.</desc>
<speed>0.130000</speed>
</trkpt>
<trkpt lat="43.154408" lon="19.116564">
<ele>1450.922852</ele>
<time>2012-05-01T14:45:44Z</time>
<desc>lat.=43.154408, lon.=19.116564, Alt.=1450.922852m. Speed=0.468000m/h.</desc>
<speed>0.130000</speed>
</trkpt>
<trkpt lat="43.154400" lon="19.116568">
<ele>1450.954102</ele>
<time>2012-05-01T14:45:49Z</time>
<desc>lat.=43.154400, lon.=19.116568, Alt.=1450.954102m. Speed=0.828000m/h.</desc>
<speed>0.230000</speed>
</trkpt>
<trkpt lat="43.154392" lon="19.116570">
<ele>1451.016602</ele>
<time>2012-05-01T14:45:54Z</time>
<desc>lat.=43.154392, lon.=19.116570, Alt.=1451.016602m. Speed=0.612000m/h.</desc>
<speed>0.170000</speed>
</trkpt>
<trkpt lat="43.154388" lon="19.116573">
<ele>1451.047852</ele>
<time>2012-05-01T14:45:59Z</time>
<desc>lat.=43.154388, lon.=19.116573, Alt.=1451.047852m. Speed=0.216000m/h.</desc>
<speed>0.060000</speed>
</trkpt>
<trkpt lat="43.154388" lon="19.116573">
<ele>1451.110352</ele>
<time>2012-05-01T14:46:04Z</time>
<desc>lat.=43.154388, lon.=19.116573, Alt.=1451.110352m. Speed=0.396000m/h.</desc>
<speed>0.110000</speed>
</trkpt>
<trkpt lat="43.154381" lon="19.116573">
<ele>1451.172852</ele>
<time>2012-05-01T14:46:09Z</time>
<desc>lat.=43.154381, lon.=19.116573, Alt.=1451.172852m. Speed=0.612000m/h.</desc>
<speed>0.170000</speed>
</trkpt>
<trkpt lat="43.154369" lon="19.116575">
<ele>1451.204102</ele>
<time>2012-05-01T14:46:14Z</time>
<desc>lat.=43.154369, lon.=19.116575, Alt.=1451.204102m. Speed=0.936000m/h.</desc>
<speed>0.260000</speed>
</trkpt>
<trkpt lat="43.154358" lon="19.116579">
<ele>1451.235352</ele>
<time>2012-05-01T14:46:19Z</time>
<desc>lat.=43.154358, lon.=19.116579, Alt.=1451.235352m. Speed=1.116000m/h.</desc>
<speed>0.310000</speed>
</trkpt>
<trkpt lat="43.154343" lon="19.116583">
<ele>1451.297852</ele>
<time>2012-05-01T14:46:24Z</time>
<desc>lat.=43.154343, lon.=19.116583, Alt.=1451.297852m. Speed=1.260000m/h.</desc>
<speed>0.350000</speed>
</trkpt>
<trkpt lat="43.154324" lon="19.116590">
<ele>1451.360352</ele>
<time>2012-05-01T14:46:29Z</time>
<desc>lat.=43.154324, lon.=19.116590, Alt.=1451.360352m. Speed=1.404000m/h.</desc>
<speed>0.390000</speed>
</trkpt>
<trkpt lat="43.154308" lon="19.116592">
<ele>1451.454102</ele>
<time>2012-05-01T14:46:34Z</time>
<desc>lat.=43.154308, lon.=19.116592, Alt.=1451.454102m. Speed=1.188000m/h.</desc>
<speed>0.330000</speed>
</trkpt>
<trkpt lat="43.154293" lon="19.116594">
<ele>1451.516602</ele>
<time>2012-05-01T14:46:39Z</time>
<desc>lat.=43.154293, lon.=19.116594, Alt.=1451.516602m. Speed=0.936000m/h.</desc>
<speed>0.260000</speed>
</trkpt>
<trkpt lat="43.154289" lon="19.116596">
<ele>1451.547852</ele>
<time>2012-05-01T14:46:44Z</time>
<desc>lat.=43.154289, lon.=19.116596, Alt.=1451.547852m. Speed=0.252000m/h.</desc>
<speed>0.070000</speed>
</trkpt>
<trkpt lat="43.154285" lon="19.116596">
<ele>1451.547852</ele>
<time>2012-05-01T14:46:49Z</time>
<desc>lat.=43.154285, lon.=19.116596, Alt.=1451.547852m. Speed=0.504000m/h.</desc>
<speed>0.140000</speed>
</trkpt>
<trkpt lat="43.154293" lon="19.116604">
<ele>1451.547852</ele>
<time>2012-05-01T14:46:54Z</time>
<desc>lat.=43.154293, lon.=19.116604, Alt.=1451.547852m. Speed=1.044000m/h.</desc>
<speed>0.290000</speed>
</trkpt>
<trkpt lat="43.154301" lon="19.116610">
<ele>1451.547852</ele>
<time>2012-05-01T14:46:59Z</time>
<desc>lat.=43.154301, lon.=19.116610, Alt.=1451.547852m. Speed=0.828000m/h.</desc>
<speed>0.230000</speed>
</trkpt>
<trkpt lat="43.154312" lon="19.116615">
<ele>1451.579102</ele>
<time>2012-05-01T14:47:04Z</time>
<desc>lat.=43.154312, lon.=19.116615, Alt.=1451.579102m. Speed=0.684000m/h.</desc>
<speed>0.190000</speed>
</trkpt>
<trkpt lat="43.154316" lon="19.116627">
<ele>1451.610352</ele>
<time>2012-05-01T14:47:09Z</time>
<desc>lat.=43.154316, lon.=19.116627, Alt.=1451.610352m. Speed=0.720000m/h.</desc>
<speed>0.200000</speed>
</trkpt>
<trkpt lat="43.154320" lon="19.116632">
<ele>1451.641602</ele>
<time>2012-05-01T14:47:14Z</time>
<desc>lat.=43.154320, lon.=19.116632, Alt.=1451.641602m. Speed=0.576000m/h.</desc>
<speed>0.160000</speed>
</trkpt>
<trkpt lat="43.154327" lon="19.116632">
<ele>1451.641602</ele>
<time>2012-05-01T14:47:19Z</time>
<desc>lat.=43.154327, lon.=19.116632, Alt.=1451.641602m. Speed=0.684000m/h.</desc>
<speed>0.190000</speed>
</trkpt>
<trkpt lat="43.154339" lon="19.116634">
<ele>1451.641602</ele>
<time>2012-05-01T14:47:24Z</time>
<desc>lat.=43.154339, lon.=19.116634, Alt.=1451.641602m. Speed=0.936000m/h.</desc>
<speed>0.260000</speed>
</trkpt>
<trkpt lat="43.154350" lon="19.116638">
<ele>1451.641602</ele>
<time>2012-05-01T14:47:29Z</time>
<desc>lat.=43.154350, lon.=19.116638, Alt.=1451.641602m. Speed=1.224000m/h.</desc>
<speed>0.340000</speed>
</trkpt>
<trkpt lat="43.154366" lon="19.116642">
<ele>1451.735352</ele>
<time>2012-05-01T14:47:34Z</time>
<desc>lat.=43.154366, lon.=19.116642, Alt.=1451.735352m. Speed=1.080000m/h.</desc>
<speed>0.300000</speed>
</trkpt>
<trkpt lat="43.154385" lon="19.116648">
<ele>1451.829102</ele>
<time>2012-05-01T14:47:39Z</time>
<desc>lat.=43.154385, lon.=19.116648, Alt.=1451.829102m. Speed=1.908000m/h.</desc>
<speed>0.530000</speed>
</trkpt>
<trkpt lat="43.154408" lon="19.116657">
<ele>1452.016602</ele>
<time>2012-05-01T14:47:44Z</time>
<desc>lat.=43.154408, lon.=19.116657, Alt.=1452.016602m. Speed=1.908000m/h.</desc>
<speed>0.530000</speed>
</trkpt>
<trkpt lat="43.154434" lon="19.116663">
<ele>1452.204102</ele>
<time>2012-05-01T14:47:49Z</time>
<desc>lat.=43.154434, lon.=19.116663, Alt.=1452.204102m. Speed=1.764000m/h.</desc>
<speed>0.490000</speed>
</trkpt>
<trkpt lat="43.154449" lon="19.116667">
<ele>1452.360352</ele>
<time>2012-05-01T14:47:54Z</time>
<desc>lat.=43.154449, lon.=19.116667, Alt.=1452.360352m. Speed=0.972000m/h.</desc>
<speed>0.270000</speed>
</trkpt>
<trkpt lat="43.154465" lon="19.116665">
<ele>1452.516602</ele>
<time>2012-05-01T14:47:59Z</time>
<desc>lat.=43.154465, lon.=19.116665, Alt.=1452.516602m. Speed=0.972000m/h.</desc>
<speed>0.270000</speed>
</trkpt>
<trkpt lat="43.154472" lon="19.116663">
<ele>1452.610352</ele>
<time>2012-05-01T14:48:04Z</time>
<desc>lat.=43.154472, lon.=19.116663, Alt.=1452.610352m. Speed=0.432000m/h.</desc>
<speed>0.120000</speed>
</trkpt>
<trkpt lat="43.154476" lon="19.116665">
<ele>1452.641602</ele>
<time>2012-05-01T14:48:09Z</time>
<desc>lat.=43.154476, lon.=19.116665, Alt.=1452.641602m. Speed=0.180000m/h.</desc>
<speed>0.050000</speed>
</trkpt>
<trkpt lat="43.154476" lon="19.116659">
<ele>1452.641602</ele>
<time>2012-05-01T14:48:14Z</time>
<desc>lat.=43.154476, lon.=19.116659, Alt.=1452.641602m. Speed=0.504000m/h.</desc>
<speed>0.140000</speed>
</trkpt>
<trkpt lat="43.154484" lon="19.116650">
<ele>1452.672852</ele>
<time>2012-05-01T14:48:19Z</time>
<desc>lat.=43.154484, lon.=19.116650, Alt.=1452.672852m. Speed=0.972000m/h.</desc>
<speed>0.270000</speed>
</trkpt>
<trkpt lat="43.154491" lon="19.116640">
<ele>1452.672852</ele>
<time>2012-05-01T14:48:24Z</time>
<desc>lat.=43.154491, lon.=19.116640, Alt.=1452.672852m. Speed=0.972000m/h.</desc>
<speed>0.270000</speed>
</trkpt>
<trkpt lat="43.154495" lon="19.116627">
<ele>1452.704102</ele>
<time>2012-05-01T14:48:29Z</time>
<desc>lat.=43.154495, lon.=19.116627, Alt.=1452.704102m. Speed=0.828000m/h.</desc>
<speed>0.230000</speed>
</trkpt>
<trkpt lat="43.154484" lon="19.116615">
<ele>1452.704102</ele>
<time>2012-05-01T14:48:34Z</time>
<desc>lat.=43.154484, lon.=19.116615, Alt.=1452.704102m. Speed=1.224000m/h.</desc>
<speed>0.340000</speed>
</trkpt>
<trkpt lat="43.154472" lon="19.116608">
<ele>1452.735352</ele>
<time>2012-05-01T14:48:39Z</time>
<desc>lat.=43.154472, lon.=19.116608, Alt.=1452.735352m. Speed=0.936000m/h.</desc>
<speed>0.260000</speed>
</trkpt>
<trkpt lat="43.154461" lon="19.116608">
<ele>1452.766602</ele>
<time>2012-05-01T14:48:44Z</time>
<desc>lat.=43.154461, lon.=19.116608, Alt.=1452.766602m. Speed=0.612000m/h.</desc>
<speed>0.170000</speed>
</trkpt>
<trkpt lat="43.154457" lon="19.116615">
<ele>1452.766602</ele>
<time>2012-05-01T14:48:49Z</time>
<desc>lat.=43.154457, lon.=19.116615, Alt.=1452.766602m. Speed=0.576000m/h.</desc>
<speed>0.160000</speed>
</trkpt>
<trkpt lat="43.154465" lon="19.116627">
<ele>1452.797852</ele>
<time>2012-05-01T14:48:54Z</time>
<desc>lat.=43.154465, lon.=19.116627, Alt.=1452.797852m. Speed=0.684000m/h.</desc>
<speed>0.190000</speed>
</trkpt>
<trkpt lat="43.154469" lon="19.116644">
<ele>1452.829102</ele>
<time>2012-05-01T14:48:59Z</time>
<desc>lat.=43.154469, lon.=19.116644, Alt.=1452.829102m. Speed=1.044000m/h.</desc>
<speed>0.290000</speed>
</trkpt>
<trkpt lat="43.154465" lon="19.116669">
<ele>1452.891602</ele>
<time>2012-05-01T14:49:04Z</time>
<desc>lat.=43.154465, lon.=19.116669, Alt.=1452.891602m. Speed=1.368000m/h.</desc>
<speed>0.380000</speed>
</trkpt>
<trkpt lat="43.154461" lon="19.116688">
<ele>1452.954102</ele>
<time>2012-05-01T14:49:09Z</time>
<desc>lat.=43.154461, lon.=19.116688, Alt.=1452.954102m. Speed=1.008000m/h.</desc>
<speed>0.280000</speed>
</trkpt>
<trkpt lat="43.154453" lon="19.116699">
<ele>1452.985352</ele>
<time>2012-05-01T14:49:14Z</time>
<desc>lat.=43.154453, lon.=19.116699, Alt.=1452.985352m. Speed=0.684000m/h.</desc>
<speed>0.190000</speed>
</trkpt>
<trkpt lat="43.154446" lon="19.116705">
<ele>1453.016602</ele>
<time>2012-05-01T14:49:19Z</time>
<desc>lat.=43.154446, lon.=19.116705, Alt.=1453.016602m. Speed=0.504000m/h.</desc>
<speed>0.140000</speed>
</trkpt>
<trkpt lat="43.154438" lon="19.116707">
<ele>1453.047852</ele>
<time>2012-05-01T14:49:24Z</time>
<desc>lat.=43.154438, lon.=19.116707, Alt.=1453.047852m. Speed=0.468000m/h.</desc>
<speed>0.130000</speed>
</trkpt>
<trkpt lat="43.154430" lon="19.116709">
<ele>1453.047852</ele>
<time>2012-05-01T14:49:29Z</time>
<desc>lat.=43.154430, lon.=19.116709, Alt.=1453.047852m. Speed=0.792000m/h.</desc>
<speed>0.220000</speed>
</trkpt>
<trkpt lat="43.154377" lon="19.116730">
<ele>1453.329102</ele>
<time>2012-05-01T14:49:34Z</time>
<desc>lat.=43.154377, lon.=19.116730, Alt.=1453.329102m. Speed=1.152000m/h.</desc>
<speed>0.320000</speed>
</trkpt>
<trkpt lat="43.154335" lon="19.116764">
<ele>1453.579102</ele>
<time>2012-05-01T14:49:39Z</time>
<desc>lat.=43.154335, lon.=19.116764, Alt.=1453.579102m. Speed=1.404000m/h.</desc>
<speed>0.390000</speed>
</trkpt>
<trkpt lat="43.154293" lon="19.116783">
<ele>1453.641602</ele>
<time>2012-05-01T14:49:44Z</time>
<desc>lat.=43.154293, lon.=19.116783, Alt.=1453.641602m. Speed=1.260000m/h.</desc>
<speed>0.350000</speed>
</trkpt>
<trkpt lat="43.154224" lon="19.116800">
<ele>1453.860352</ele>
<time>2012-05-01T14:49:49Z</time>
<desc>lat.=43.154224, lon.=19.116800, Alt.=1453.860352m. Speed=1.692000m/h.</desc>
<speed>0.470000</speed>
</trkpt>
<trkpt lat="43.154198" lon="19.116793">
<ele>1454.141602</ele>
<time>2012-05-01T14:49:54Z</time>
<desc>lat.=43.154198, lon.=19.116793, Alt.=1454.141602m. Speed=1.476000m/h.</desc>
<speed>0.410000</speed>
</trkpt>
<trkpt lat="43.154221" lon="19.116755">
<ele>1454.204102</ele>
<time>2012-05-01T14:49:59Z</time>
<desc>lat.=43.154221, lon.=19.116755, Alt.=1454.204102m. Speed=0.180000m/h.</desc>
<speed>0.050000</speed>
</trkpt>
<trkpt lat="43.154236" lon="19.116745">
<ele>1454.204102</ele>
<time>2012-05-01T14:50:04Z</time>
<desc>lat.=43.154236, lon.=19.116745, Alt.=1454.204102m. Speed=0.504000m/h.</desc>
<speed>0.140000</speed>
</trkpt>
<trkpt lat="43.154240" lon="19.116735">
<ele>1454.204102</ele>
<time>2012-05-01T14:50:09Z</time>
<desc>lat.=43.154240, lon.=19.116735, Alt.=1454.204102m. Speed=0.504000m/h.</desc>
<speed>0.140000</speed>
</trkpt>
<trkpt lat="43.154247" lon="19.116730">
<ele>1454.204102</ele>
<time>2012-05-01T14:50:14Z</time>
<desc>lat.=43.154247, lon.=19.116730, Alt.=1454.204102m. Speed=1.080000m/h.</desc>
<speed>0.300000</speed>
</trkpt>
<trkpt lat="43.154243" lon="19.116699">
<ele>1454.141602</ele>
<time>2012-05-01T14:50:19Z</time>
<desc>lat.=43.154243, lon.=19.116699, Alt.=1454.141602m. Speed=0.432000m/h.</desc>
<speed>0.120000</speed>
</trkpt>
<trkpt lat="43.154255" lon="19.116697">
<ele>1454.235352</ele>
<time>2012-05-01T14:50:24Z</time>
<desc>lat.=43.154255, lon.=19.116697, Alt.=1454.235352m. Speed=0.648000m/h.</desc>
<speed>0.180000</speed>
</trkpt>
<trkpt lat="43.154259" lon="19.116695">
<ele>1454.141602</ele>
<time>2012-05-01T14:50:29Z</time>
<desc>lat.=43.154259, lon.=19.116695, Alt.=1454.141602m. Speed=0.324000m/h.</desc>
<speed>0.090000</speed>
</trkpt>
<trkpt lat="43.154263" lon="19.116695">
<ele>1454.110352</ele>
<time>2012-05-01T14:50:34Z</time>
<desc>lat.=43.154263, lon.=19.116695, Alt.=1454.110352m. Speed=0.612000m/h.</desc>
<speed>0.170000</speed>
</trkpt>
<trkpt lat="43.154289" lon="19.116688">
<ele>1453.860352</ele>
<time>2012-05-01T14:50:39Z</time>
<desc>lat.=43.154289, lon.=19.116688, Alt.=1453.860352m. Speed=1.404000m/h.</desc>
<speed>0.390000</speed>
</trkpt>
<trkpt lat="43.154324" lon="19.116678">
<ele>1453.610352</ele>
<time>2012-05-01T14:50:44Z</time>
<desc>lat.=43.154324, lon.=19.116678, Alt.=1453.610352m. Speed=1.584000m/h.</desc>
<speed>0.440000</speed>
</trkpt>
<trkpt lat="43.154331" lon="19.116653">
<ele>1453.641602</ele>
<time>2012-05-01T14:50:49Z</time>
<desc>lat.=43.154331, lon.=19.116653, Alt.=1453.641602m. Speed=1.116000m/h.</desc>
<speed>0.310000</speed>
</trkpt>
<trkpt lat="43.154362" lon="19.116625">
<ele>1453.766602</ele>
<time>2012-05-01T14:50:54Z</time>
<desc>lat.=43.154362, lon.=19.116625, Alt.=1453.766602m. Speed=0.108000m/h.</desc>
<speed>0.030000</speed>
</trkpt>
<trkpt lat="43.154358" lon="19.116623">
<ele>1453.672852</ele>
<time>2012-05-01T14:50:59Z</time>
<desc>lat.=43.154358, lon.=19.116623, Alt.=1453.672852m. Speed=1.044000m/h.</desc>
<speed>0.290000</speed>
</trkpt>
<trkpt lat="43.154366" lon="19.116657">
<ele>1453.016602</ele>
<time>2012-05-01T14:51:04Z</time>
<desc>lat.=43.154366, lon.=19.116657, Alt.=1453.016602m. Speed=3.816000m/h.</desc>
<speed>1.060000</speed>
</trkpt>
<trkpt lat="43.154381" lon="19.116770">
<ele>1452.860352</ele>
<time>2012-05-01T14:51:09Z</time>
<desc>lat.=43.154381, lon.=19.116770, Alt.=1452.860352m. Speed=8.784000m/h.</desc>
<speed>2.440000</speed>
</trkpt>
<trkpt lat="43.154434" lon="19.116917">
<ele>1452.610352</ele>
<time>2012-05-01T14:51:14Z</time>
<desc>lat.=43.154434, lon.=19.116917, Alt.=1452.610352m. Speed=11.772000m/h.</desc>
<speed>3.270000</speed>
</trkpt>
<trkpt lat="43.154491" lon="19.117100">
<ele>1452.516602</ele>
<time>2012-05-01T14:51:19Z</time>
<desc>lat.=43.154491, lon.=19.117100, Alt.=1452.516602m. Speed=9.720000m/h.</desc>
<speed>2.700000</speed>
</trkpt>
<trkpt lat="43.154495" lon="19.117268">
<ele>1452.704102</ele>
<time>2012-05-01T14:51:24Z</time>
<desc>lat.=43.154495, lon.=19.117268, Alt.=1452.704102m. Speed=8.640000m/h.</desc>
<speed>2.400000</speed>
</trkpt>
<trkpt lat="43.154533" lon="19.117340">
<ele>1452.735352</ele>
<time>2012-05-01T14:51:29Z</time>
<desc>lat.=43.154533, lon.=19.117340, Alt.=1452.735352m. Speed=0.972000m/h.</desc>
<speed>0.270000</speed>
</trkpt>
<trkpt lat="43.154572" lon="19.117405">
<ele>1452.860352</ele>
<time>2012-05-01T14:51:34Z</time>
<desc>lat.=43.154572, lon.=19.117405, Alt.=1452.860352m. Speed=7.416000m/h.</desc>
<speed>2.060000</speed>
</trkpt>
<trkpt lat="43.154663" lon="19.117603">
<ele>1452.766602</ele>
<time>2012-05-01T14:51:39Z</time>
<desc>lat.=43.154663, lon.=19.117603, Alt.=1452.766602m. Speed=15.624000m/h.</desc>
<speed>4.340000</speed>
</trkpt>
<trkpt lat="43.154716" lon="19.117805">
<ele>1452.797852</ele>
<time>2012-05-01T14:51:44Z</time>
<desc>lat.=43.154716, lon.=19.117805, Alt.=1452.797852m. Speed=9.144000m/h.</desc>
<speed>2.540000</speed>
</trkpt>
<trkpt lat="43.154766" lon="19.118031">
<ele>1451.047852</ele>
<time>2012-05-01T14:51:49Z</time>
<desc>lat.=43.154766, lon.=19.118031, Alt.=1451.047852m. Speed=16.632000m/h.</desc>
<speed>4.620000</speed>
</trkpt>
<trkpt lat="43.154865" lon="19.118320">
<ele>1450.547852</ele>
<time>2012-05-01T14:51:54Z</time>
<desc>lat.=43.154865, lon.=19.118320, Alt.=1450.547852m. Speed=16.775999m/h.</desc>
<speed>4.660000</speed>
</trkpt>
<trkpt lat="43.154968" lon="19.118580">
<ele>1448.672852</ele>
<time>2012-05-01T14:51:59Z</time>
<desc>lat.=43.154968, lon.=19.118580, Alt.=1448.672852m. Speed=16.775999m/h.</desc>
<speed>4.660000</speed>
</trkpt>
<trkpt lat="43.155048" lon="19.118830">
<ele>1448.735352</ele>
<time>2012-05-01T14:52:04Z</time>
<desc>lat.=43.155048, lon.=19.118830, Alt.=1448.735352m. Speed=16.200001m/h.</desc>
<speed>4.500000</speed>
</trkpt>
<trkpt lat="43.155109" lon="19.119137">
<ele>1449.047852</ele>
<time>2012-05-01T14:52:09Z</time>
<desc>lat.=43.155109, lon.=19.119137, Alt.=1449.047852m. Speed=18.576000m/h.</desc>
<speed>5.160000</speed>
</trkpt>
<trkpt lat="43.155159" lon="19.119436">
<ele>1449.079102</ele>
<time>2012-05-01T14:52:14Z</time>
<desc>lat.=43.155159, lon.=19.119436, Alt.=1449.079102m. Speed=17.496000m/h.</desc>
<speed>4.860000</speed>
</trkpt>
<trkpt lat="43.155140" lon="19.119770">
<ele>1448.985352</ele>
<time>2012-05-01T14:52:19Z</time>
<desc>lat.=43.155140, lon.=19.119770, Alt.=1448.985352m. Speed=20.879999m/h.</desc>
<speed>5.800000</speed>
</trkpt>
<trkpt lat="43.155079" lon="19.120129">
<ele>1449.391602</ele>
<time>2012-05-01T14:52:24Z</time>
<desc>lat.=43.155079, lon.=19.120129, Alt.=1449.391602m. Speed=19.152000m/h.</desc>
<speed>5.320000</speed>
</trkpt>
<trkpt lat="43.154999" lon="19.120451">
<ele>1446.829102</ele>
<time>2012-05-01T14:52:29Z</time>
<desc>lat.=43.154999, lon.=19.120451, Alt.=1446.829102m. Speed=18.468000m/h.</desc>
<speed>5.130000</speed>
</trkpt>
<trkpt lat="43.154976" lon="19.120592">
<ele>1446.954102</ele>
<time>2012-05-01T14:52:34Z</time>
<desc>lat.=43.154976, lon.=19.120592, Alt.=1446.954102m. Speed=0.432000m/h.</desc>
<speed>0.120000</speed>
</trkpt>
<trkpt lat="43.154964" lon="19.120596">
<ele>1448.235352</ele>
<time>2012-05-01T14:52:39Z</time>
<desc>lat.=43.154964, lon.=19.120596, Alt.=1448.235352m. Speed=3.456000m/h.</desc>
<speed>0.960000</speed>
</trkpt>
<trkpt lat="43.154926" lon="19.120823">
<ele>1449.079102</ele>
<time>2012-05-01T14:52:44Z</time>
<desc>lat.=43.154926, lon.=19.120823, Alt.=1449.079102m. Speed=16.200001m/h.</desc>
<speed>4.500000</speed>
</trkpt>
<trkpt lat="43.154865" lon="19.121161">
<ele>1448.860352</ele>
<time>2012-05-01T14:52:49Z</time>
<desc>lat.=43.154865, lon.=19.121161, Alt.=1448.860352m. Speed=19.007999m/h.</desc>
<speed>5.280000</speed>
</trkpt>
<trkpt lat="43.154812" lon="19.121502">
<ele>1449.110352</ele>
<time>2012-05-01T14:52:54Z</time>
<desc>lat.=43.154812, lon.=19.121502, Alt.=1449.110352m. Speed=18.900000m/h.</desc>
<speed>5.250000</speed>
</trkpt>
<trkpt lat="43.154766" lon="19.121857">
<ele>1447.079102</ele>
<time>2012-05-01T14:52:59Z</time>
<desc>lat.=43.154766, lon.=19.121857, Alt.=1447.079102m. Speed=20.628000m/h.</desc>
<speed>5.730000</speed>
</trkpt>
<trkpt lat="43.154728" lon="19.122192">
<ele>1447.016602</ele>
<time>2012-05-01T14:53:04Z</time>
<desc>lat.=43.154728, lon.=19.122192, Alt.=1447.016602m. Speed=16.271999m/h.</desc>
<speed>4.520000</speed>
</trkpt>
<trkpt lat="43.154610" lon="19.122318">
<ele>1448.797852</ele>
<time>2012-05-01T14:53:09Z</time>
<desc>lat.=43.154610, lon.=19.122318, Alt.=1448.797852m. Speed=13.644000m/h.</desc>
<speed>3.790000</speed>
</trkpt>
<trkpt lat="43.154453" lon="19.122288">
<ele>1452.141602</ele>
<time>2012-05-01T14:53:14Z</time>
<desc>lat.=43.154453, lon.=19.122288, Alt.=1452.141602m. Speed=9.900000m/h.</desc>
<speed>2.750000</speed>
</trkpt>
<trkpt lat="43.154381" lon="19.122314">
<ele>1453.141602</ele>
<time>2012-05-01T14:53:19Z</time>
<desc>lat.=43.154381, lon.=19.122314, Alt.=1453.141602m. Speed=0.648000m/h.</desc>
<speed>0.180000</speed>
</trkpt>
<trkpt lat="43.154366" lon="19.122320">
<ele>1453.360352</ele>
<time>2012-05-01T14:53:24Z</time>
<desc>lat.=43.154366, lon.=19.122320, Alt.=1453.360352m. Speed=0.324000m/h.</desc>
<speed>0.090000</speed>
</trkpt>
<trkpt lat="43.154362" lon="19.122320">
<ele>1454.297852</ele>
<time>2012-05-01T14:53:29Z</time>
<desc>lat.=43.154362, lon.=19.122320, Alt.=1454.297852m. Speed=0.036000m/h.</desc>
<speed>0.010000</speed>
</trkpt>
<trkpt lat="43.154362" lon="19.122320">
<ele>1454.391602</ele>
<time>2012-05-01T14:53:34Z</time>
<desc>lat.=43.154362, lon.=19.122320, Alt.=1454.391602m. Speed=0.000000m/h.</desc>
<speed>0.000000</speed>
</trkpt>
<trkpt lat="43.154362" lon="19.122320">
<ele>1454.329102</ele>
<time>2012-05-01T14:53:39Z</time>
<desc>lat.=43.154362, lon.=19.122320, Alt.=1454.329102m. Speed=0.000000m/h.</desc>
<speed>0.000000</speed>
</trkpt>
<trkpt lat="43.154362" lon="19.122320">
<ele>1454.297852</ele>
<time>2012-05-01T14:53:44Z</time>
<desc>lat.=43.154362, lon.=19.122320, Alt.=1454.297852m. Speed=0.036000m/h.</desc>
<speed>0.010000</speed>
</trkpt>
<trkpt lat="43.154366" lon="19.122320">
<ele>1454.172852</ele>
<time>2012-05-01T14:53:49Z</time>
<desc>lat.=43.154366, lon.=19.122320, Alt.=1454.172852m. Speed=0.720000m/h.</desc>
<speed>0.200000</speed>
</trkpt>
<trkpt lat="43.154369" lon="19.122322">
<ele>1454.016602</ele>
<time>2012-05-01T14:53:54Z</time>
<desc>lat.=43.154369, lon.=19.122322, Alt.=1454.016602m. Speed=0.000000m/h.</desc>
<speed>0.000000</speed>
</trkpt>
<trkpt lat="43.154369" lon="19.122320">
<ele>1453.860352</ele>
<time>2012-05-01T14:53:59Z</time>
<desc>lat.=43.154369, lon.=19.122320, Alt.=1453.860352m. Speed=0.000000m/h.</desc>
<speed>0.000000</speed>
</trkpt>
<trkpt lat="43.154369" lon="19.122320">
<ele>1453.797852</ele>
<time>2012-05-01T14:54:04Z</time>
<desc>lat.=43.154369, lon.=19.122320, Alt.=1453.797852m. Speed=0.036000m/h.</desc>
<speed>0.010000</speed>
</trkpt>
<trkpt lat="43.154369" lon="19.122320">
<ele>1453.797852</ele>
<time>2012-05-01T14:54:09Z</time>
<desc>lat.=43.154369, lon.=19.122320, Alt.=1453.797852m. Speed=0.036000m/h.</desc>
<speed>0.010000</speed>
</trkpt>
<trkpt lat="43.154369" lon="19.122320">
<ele>1453.797852</ele>
<time>2012-05-01T14:54:14Z</time>
<desc>lat.=43.154369, lon.=19.122320, Alt.=1453.797852m. Speed=0.000000m/h.</desc>
<speed>0.000000</speed>
</trkpt>
<trkpt lat="43.154369" lon="19.122320">
<ele>1453.766602</ele>
<time>2012-05-01T14:54:19Z</time>
<desc>lat.=43.154369, lon.=19.122320, Alt.=1453.766602m. Speed=0.036000m/h.</desc>
<speed>0.010000</speed>
</trkpt>
<trkpt lat="43.154369" lon="19.122320">
<ele>1453.766602</ele>
<time>2012-05-01T14:54:24Z</time>
<desc>lat.=43.154369, lon.=19.122320, Alt.=1453.766602m. Speed=0.000000m/h.</desc>
<speed>0.000000</speed>
</trkpt>
<trkpt lat="43.154369" lon="19.122320">
<ele>1453.797852</ele>
<time>2012-05-01T14:54:29Z</time>
<desc>lat.=43.154369, lon.=19.122320, Alt.=1453.797852m. Speed=0.000000m/h.</desc>
<speed>0.000000</speed>
</trkpt>
<trkpt lat="43.154369" lon="19.122320">
<ele>1453.797852</ele>
<time>2012-05-01T14:54:34Z</time>
<desc>lat.=43.154369, lon.=19.122320, Alt.=1453.797852m. Speed=0.000000m/h.</desc>
<speed>0.000000</speed>
</trkpt>
<trkpt lat="43.154369" lon="19.122320">
<ele>1453.797852</ele>
<time>2012-05-01T14:54:39Z</time>
<desc>lat.=43.154369, lon.=19.122320, Alt.=1453.797852m. Speed=0.000000m/h.</desc>
<speed>0.000000</speed>
</trkpt>
<trkpt lat="43.154369" lon="19.122318">
<ele>1453.829102</ele>
<time>2012-05-01T14:54:44Z</time>
<desc>lat.=43.154369, lon.=19.122318, Alt.=1453.829102m. Speed=0.036000m/h.</desc>
<speed>0.010000</speed>
</trkpt>
<trkpt lat="43.154369" lon="19.122318">
<ele>1453.829102</ele>
<time>2012-05-01T14:54:49Z</time>
<desc>lat.=43.154369, lon.=19.122318, Alt.=1453.829102m. Speed=0.000000m/h.</desc>
<speed>0.000000</speed>
</trkpt>
<trkpt lat="43.154369" lon="19.122318">
<ele>1453.829102</ele>
<time>2012-05-01T14:54:54Z</time>
<desc>lat.=43.154369, lon.=19.122318, Alt.=1453.829102m. Speed=0.000000m/h.</desc>
<speed>0.000000</speed>
</trkpt>
<trkpt lat="43.154369" lon="19.122318">
<ele>1453.829102</ele>
<time>2012-05-01T14:54:59Z</time>
<desc>lat.=43.154369, lon.=19.122318, Alt.=1453.829102m. Speed=0.000000m/h.</desc>
<speed>0.000000</speed>
</trkpt>
<trkpt lat="43.154369" lon="19.122320">
<ele>1453.829102</ele>
<time>2012-05-01T14:55:04Z</time>
<desc>lat.=43.154369, lon.=19.122320, Alt.=1453.829102m. Speed=0.072000m/h.</desc>
<speed>0.020000</speed>
</trkpt>
<trkpt lat="43.154369" lon="19.122320">
<ele>1453.860352</ele>
<time>2012-05-01T14:55:09Z</time>
<desc>lat.=43.154369, lon.=19.122320, Alt.=1453.860352m. Speed=0.036000m/h.</desc>
<speed>0.010000</speed>
</trkpt>
<trkpt lat="43.154369" lon="19.122320">
<ele>1453.860352</ele>
<time>2012-05-01T14:55:14Z</time>
<desc>lat.=43.154369, lon.=19.122320, Alt.=1453.860352m. Speed=0.000000m/h.</desc>
<speed>0.000000</speed>
</trkpt>
<trkpt lat="43.154369" lon="19.122318">
<ele>1453.891602</ele>
<time>2012-05-01T14:55:19Z</time>
<desc>lat.=43.154369, lon.=19.122318, Alt.=1453.891602m. Speed=0.108000m/h.</desc>
<speed>0.030000</speed>
</trkpt>
<trkpt lat="43.154369" lon="19.122320">
<ele>1453.891602</ele>
<time>2012-05-01T14:55:24Z</time>
<desc>lat.=43.154369, lon.=19.122320, Alt.=1453.891602m. Speed=0.144000m/h.</desc>
<speed>0.040000</speed>
</trkpt>
<trkpt lat="43.154369" lon="19.122320">
<ele>1453.891602</ele>
<time>2012-05-01T14:55:29Z</time>
<desc>lat.=43.154369, lon.=19.122320, Alt.=1453.891602m. Speed=0.036000m/h.</desc>
<speed>0.010000</speed>
</trkpt>
<trkpt lat="43.154369" lon="19.122320">
<ele>1453.891602</ele>
<time>2012-05-01T14:55:34Z</time>
<desc>lat.=43.154369, lon.=19.122320, Alt.=1453.891602m. Speed=0.000000m/h.</desc>
<speed>0.000000</speed>
</trkpt>
<trkpt lat="43.154369" lon="19.122320">
<ele>1453.891602</ele>
<time>2012-05-01T14:55:39Z</time>
<desc>lat.=43.154369, lon.=19.122320, Alt.=1453.891602m. Speed=0.036000m/h.</desc>
<speed>0.010000</speed>
</trkpt>
<trkpt lat="43.154369" lon="19.122320">
<ele>1453.891602</ele>
<time>2012-05-01T14:55:44Z</time>
<desc>lat.=43.154369, lon.=19.122320, Alt.=1453.891602m. Speed=0.036000m/h.</desc>
<speed>0.010000</speed>
</trkpt>
<trkpt lat="43.154369" lon="19.122320">
<ele>1453.891602</ele>
<time>2012-05-01T14:55:49Z</time>
<desc>lat.=43.154369, lon.=19.122320, Alt.=1453.891602m. Speed=0.036000m/h.</desc>
<speed>0.010000</speed>
</trkpt>
<trkpt lat="43.154369" lon="19.122320">
<ele>1453.891602</ele>
<time>2012-05-01T14:55:54Z</time>
<desc>lat.=43.154369, lon.=19.122320, Alt.=1453.891602m. Speed=0.036000m/h.</desc>
<speed>0.010000</speed>
</trkpt>
<trkpt lat="43.154369" lon="19.122322">
<ele>1453.891602</ele>
<time>2012-05-01T14:55:59Z</time>
<desc>lat.=43.154369, lon.=19.122322, Alt.=1453.891602m. Speed=0.000000m/h.</desc>
<speed>0.000000</speed>
</trkpt>
<trkpt lat="43.154369" lon="19.122322">
<ele>1453.891602</ele>
<time>2012-05-01T14:56:04Z</time>
<desc>lat.=43.154369, lon.=19.122322, Alt.=1453.891602m. Speed=0.000000m/h.</desc>
<speed>0.000000</speed>
</trkpt>
<trkpt lat="43.154369" lon="19.122322">
<ele>1453.891602</ele>
<time>2012-05-01T14:56:09Z</time>
<desc>lat.=43.154369, lon.=19.122322, Alt.=1453.891602m. Speed=0.036000m/h.</desc>
<speed>0.010000</speed>
</trkpt>
<trkpt lat="43.154369" lon="19.122322">
<ele>1453.891602</ele>
<time>2012-05-01T14:56:14Z</time>
<desc>lat.=43.154369, lon.=19.122322, Alt.=1453.891602m. Speed=0.000000m/h.</desc>
<speed>0.000000</speed>
</trkpt>
<trkpt lat="43.154366" lon="19.122322">
<ele>1453.891602</ele>
<time>2012-05-01T14:56:19Z</time>
<desc>lat.=43.154366, lon.=19.122322, Alt.=1453.891602m. Speed=0.000000m/h.</desc>
<speed>0.000000</speed>
</trkpt>
<trkpt lat="43.154366" lon="19.122322">
<ele>1453.860352</ele>
<time>2012-05-01T14:56:24Z</time>
<desc>lat.=43.154366, lon.=19.122322, Alt.=1453.860352m. Speed=0.000000m/h.</desc>
<speed>0.000000</speed>
</trkpt>
<trkpt lat="43.154366" lon="19.122322">
<ele>1453.860352</ele>
<time>2012-05-01T14:56:29Z</time>
<desc>lat.=43.154366, lon.=19.122322, Alt.=1453.860352m. Speed=0.000000m/h.</desc>
<speed>0.000000</speed>
</trkpt>
<trkpt lat="43.154366" lon="19.122322">
<ele>1453.860352</ele>
<time>2012-05-01T14:56:34Z</time>
<desc>lat.=43.154366, lon.=19.122322, Alt.=1453.860352m. Speed=0.000000m/h.</desc>
<speed>0.000000</speed>
</trkpt>
<trkpt lat="43.154366" lon="19.122322">
<ele>1453.860352</ele>
<time>2012-05-01T14:56:39Z</time>
<desc>lat.=43.154366, lon.=19.122322, Alt.=1453.860352m. Speed=0.072000m/h.</desc>
<speed>0.020000</speed>
</trkpt>
<trkpt lat="43.154366" lon="19.122322">
<ele>1453.860352</ele>
<time>2012-05-01T14:56:44Z</time>
<desc>lat.=43.154366, lon.=19.122322, Alt.=1453.860352m. Speed=0.000000m/h.</desc>
<speed>0.000000</speed>
</trkpt>
<trkpt lat="43.154366" lon="19.122322">
<ele>1453.860352</ele>
<time>2012-05-01T14:56:49Z</time>
<desc>lat.=43.154366, lon.=19.122322, Alt.=1453.860352m. Speed=0.072000m/h.</desc>
<speed>0.020000</speed>
</trkpt>
<trkpt lat="43.154366" lon="19.122322">
<ele>1453.860352</ele>
<time>2012-05-01T14:56:54Z</time>
<desc>lat.=43.154366, lon.=19.122322, Alt.=1453.860352m. Speed=0.000000m/h.</desc>
<speed>0.000000</speed>
</trkpt>
<trkpt lat="43.154366" lon="19.122322">
<ele>1453.860352</ele>
<time>2012-05-01T14:56:59Z</time>
<desc>lat.=43.154366, lon.=19.122322, Alt.=1453.860352m. Speed=0.036000m/h.</desc>
<speed>0.010000</speed>
</trkpt>
<trkpt lat="43.154366" lon="19.122322">
<ele>1453.860352</ele>
<time>2012-05-01T14:57:04Z</time>
<desc>lat.=43.154366, lon.=19.122322, Alt.=1453.860352m. Speed=0.036000m/h.</desc>
<speed>0.010000</speed>
</trkpt>
<trkpt lat="43.154366" lon="19.122322">
<ele>1453.860352</ele>
<time>2012-05-01T14:57:09Z</time>
<desc>lat.=43.154366, lon.=19.122322, Alt.=1453.860352m. Speed=0.036000m/h.</desc>
<speed>0.010000</speed>
</trkpt>
<trkpt lat="43.154366" lon="19.122324">
<ele>1453.860352</ele>
<time>2012-05-01T14:57:14Z</time>
<desc>lat.=43.154366, lon.=19.122324, Alt.=1453.860352m. Speed=0.000000m/h.</desc>
<speed>0.000000</speed>
</trkpt>
<trkpt lat="43.154366" lon="19.122324">
<ele>1453.860352</ele>
<time>2012-05-01T14:57:19Z</time>
<desc>lat.=43.154366, lon.=19.122324, Alt.=1453.860352m. Speed=0.036000m/h.</desc>
<speed>0.010000</speed>
</trkpt>
<trkpt lat="43.154366" lon="19.122324">
<ele>1453.860352</ele>
<time>2012-05-01T14:57:24Z</time>
<desc>lat.=43.154366, lon.=19.122324, Alt.=1453.860352m. Speed=0.000000m/h.</desc>
<speed>0.000000</speed>
</trkpt>
<trkpt lat="43.154366" lon="19.122324">
<ele>1453.891602</ele>
<time>2012-05-01T14:57:29Z</time>
<desc>lat.=43.154366, lon.=19.122324, Alt.=1453.891602m. Speed=0.000000m/h.</desc>
<speed>0.000000</speed>
</trkpt>
<trkpt lat="43.154366" lon="19.122324">
<ele>1453.891602</ele>
<time>2012-05-01T14:57:34Z</time>
<desc>lat.=43.154366, lon.=19.122324, Alt.=1453.891602m. Speed=0.000000m/h.</desc>
<speed>0.000000</speed>
</trkpt>
<trkpt lat="43.154366" lon="19.122324">
<ele>1453.891602</ele>
<time>2012-05-01T14:57:39Z</time>
<desc>lat.=43.154366, lon.=19.122324, Alt.=1453.891602m. Speed=0.000000m/h.</desc>
<speed>0.000000</speed>
</trkpt>
<trkpt lat="43.154366" lon="19.122324">
<ele>1453.891602</ele>
<time>2012-05-01T14:57:44Z</time>
<desc>lat.=43.154366, lon.=19.122324, Alt.=1453.891602m. Speed=0.036000m/h.</desc>
<speed>0.010000</speed>
</trkpt>
<trkpt lat="43.154366" lon="19.122324">
<ele>1453.891602</ele>
<time>2012-05-01T14:57:49Z</time>
<desc>lat.=43.154366, lon.=19.122324, Alt.=1453.891602m. Speed=0.036000m/h.</desc>
<speed>0.010000</speed>
</trkpt>
<trkpt lat="43.154366" lon="19.122322">
<ele>1453.891602</ele>
<time>2012-05-01T14:57:54Z</time>
<desc>lat.=43.154366, lon.=19.122322, Alt.=1453.891602m. Speed=0.036000m/h.</desc>
<speed>0.010000</speed>
</trkpt>
<trkpt lat="43.154366" lon="19.122322">
<ele>1453.891602</ele>
<time>2012-05-01T14:57:59Z</time>
<desc>lat.=43.154366, lon.=19.122322, Alt.=1453.891602m. Speed=0.036000m/h.</desc>
<speed>0.010000</speed>
</trkpt>
<trkpt lat="43.154366" lon="19.122324">
<ele>1453.891602</ele>
<time>2012-05-01T14:58:04Z</time>
<desc>lat.=43.154366, lon.=19.122324, Alt.=1453.891602m. Speed=0.000000m/h.</desc>
<speed>0.000000</speed>
</trkpt>
<trkpt lat="43.154366" lon="19.122324">
<ele>1453.891602</ele>
<time>2012-05-01T14:58:09Z</time>
<desc>lat.=43.154366, lon.=19.122324, Alt.=1453.891602m. Speed=0.000000m/h.</desc>
<speed>0.000000</speed>
</trkpt>
<trkpt lat="43.154366" lon="19.122324">
<ele>1453.891602</ele>
<time>2012-05-01T14:58:14Z</time>
<desc>lat.=43.154366, lon.=19.122324, Alt.=1453.891602m. Speed=0.000000m/h.</desc>
<speed>0.000000</speed>
</trkpt>
<trkpt lat="43.154366" lon="19.122324">
<ele>1453.891602</ele>
<time>2012-05-01T14:58:19Z</time>
<desc>lat.=43.154366, lon.=19.122324, Alt.=1453.891602m. Speed=0.000000m/h.</desc>
<speed>0.000000</speed>
</trkpt>
<trkpt lat="43.154366" lon="19.122324">
<ele>1453.891602</ele>
<time>2012-05-01T14:58:24Z</time>
<desc>lat.=43.154366, lon.=19.122324, Alt.=1453.891602m. Speed=0.000000m/h.</desc>
<speed>0.000000</speed>
</trkpt>
<trkpt lat="43.154366" lon="19.122324">
<ele>1453.891602</ele>
<time>2012-05-01T14:58:29Z</time>
<desc>lat.=43.154366, lon.=19.122324, Alt.=1453.891602m. Speed=0.000000m/h.</desc>
<speed>0.000000</speed>
</trkpt>
<trkpt lat="43.154366" lon="19.122324">
<ele>1453.891602</ele>
<time>2012-05-01T14:58:34Z</time>
<desc>lat.=43.154366, lon.=19.122324, Alt.=1453.891602m. Speed=0.036000m/h.</desc>
<speed>0.010000</speed>
</trkpt>
<trkpt lat="43.154366" lon="19.122324">
<ele>1453.860352</ele>
<time>2012-05-01T14:58:39Z</time>
<desc>lat.=43.154366, lon.=19.122324, Alt.=1453.860352m. Speed=0.000000m/h.</desc>
<speed>0.000000</speed>
</trkpt>
<trkpt lat="43.154366" lon="19.122324">
<ele>1453.860352</ele>
<time>2012-05-01T14:58:44Z</time>
<desc>lat.=43.154366, lon.=19.122324, Alt.=1453.860352m. Speed=0.000000m/h.</desc>
<speed>0.000000</speed>
</trkpt>
<trkpt lat="43.154366" lon="19.122324">
<ele>1453.829102</ele>
<time>2012-05-01T14:58:49Z</time>
<desc>lat.=43.154366, lon.=19.122324, Alt.=1453.829102m. Speed=0.000000m/h.</desc>
<speed>0.000000</speed>
</trkpt>
<trkpt lat="43.154366" lon="19.122324">
<ele>1453.829102</ele>
<time>2012-05-01T14:58:54Z</time>
<desc>lat.=43.154366, lon.=19.122324, Alt.=1453.829102m. Speed=0.000000m/h.</desc>
<speed>0.000000</speed>
</trkpt>
<trkpt lat="43.154366" lon="19.122324">
<ele>1453.829102</ele>
<time>2012-05-01T14:58:59Z</time>
<desc>lat.=43.154366, lon.=19.122324, Alt.=1453.829102m. Speed=0.000000m/h.</desc>
<speed>0.000000</speed>
</trkpt>
<trkpt lat="43.154366" lon="19.122324">
<ele>1453.766602</ele>
<time>2012-05-01T14:59:04Z</time>
<desc>lat.=43.154366, lon.=19.122324, Alt.=1453.766602m. Speed=0.000000m/h.</desc>
<speed>0.000000</speed>
</trkpt>
<trkpt lat="43.154366" lon="19.122324">
<ele>1453.766602</ele>
<time>2012-05-01T14:59:09Z</time>
<desc>lat.=43.154366, lon.=19.122324, Alt.=1453.766602m. Speed=0.000000m/h.</desc>
<speed>0.000000</speed>
</trkpt>
<trkpt lat="43.154366" lon="19.122324">
<ele>1453.766602</ele>
<time>2012-05-01T14:59:14Z</time>
<desc>lat.=43.154366, lon.=19.122324, Alt.=1453.766602m. Speed=0.000000m/h.</desc>
<speed>0.000000</speed>
</trkpt>
<trkpt lat="43.154366" lon="19.122324">
<ele>1453.766602</ele>
<time>2012-05-01T14:59:19Z</time>
<desc>lat.=43.154366, lon.=19.122324, Alt.=1453.766602m. Speed=0.000000m/h.</desc>
<speed>0.000000</speed>
</trkpt>
<trkpt lat="43.154366" lon="19.122324">
<ele>1453.704102</ele>
<time>2012-05-01T14:59:24Z</time>
<desc>lat.=43.154366, lon.=19.122324, Alt.=1453.704102m. Speed=0.036000m/h.</desc>
<speed>0.010000</speed>
</trkpt>
<trkpt lat="43.154366" lon="19.122328">
<ele>1453.579102</ele>
<time>2012-05-01T14:59:29Z</time>
<desc>lat.=43.154366, lon.=19.122328, Alt.=1453.579102m. Speed=0.000000m/h.</desc>
<speed>0.000000</speed>
</trkpt>
<trkpt lat="43.154369" lon="19.122330">
<ele>1453.485352</ele>
<time>2012-05-01T14:59:34Z</time>
<desc>lat.=43.154369, lon.=19.122330, Alt.=1453.485352m. Speed=0.036000m/h.</desc>
<speed>0.010000</speed>
</trkpt>
<trkpt lat="43.154369" lon="19.122330">
<ele>1453.485352</ele>
<time>2012-05-01T14:59:39Z</time>
<desc>lat.=43.154369, lon.=19.122330, Alt.=1453.485352m. Speed=0.000000m/h.</desc>
<speed>0.000000</speed>
</trkpt>
<trkpt lat="43.154369" lon="19.122330">
<ele>1453.485352</ele>
<time>2012-05-01T14:59:44Z</time>
<desc>lat.=43.154369, lon.=19.122330, Alt.=1453.485352m. Speed=0.000000m/h.</desc>
<speed>0.000000</speed>
</trkpt>
<trkpt lat="43.154369" lon="19.122332">
<ele>1453.360352</ele>
<time>2012-05-01T14:59:49Z</time>
<desc>lat.=43.154369, lon.=19.122332, Alt.=1453.360352m. Speed=0.036000m/h.</desc>
<speed>0.010000</speed>
</trkpt>
<trkpt lat="43.154369" lon="19.122332">
<ele>1453.329102</ele>
<time>2012-05-01T14:59:54Z</time>
<desc>lat.=43.154369, lon.=19.122332, Alt.=1453.329102m. Speed=0.000000m/h.</desc>
<speed>0.000000</speed>
</trkpt>
<trkpt lat="43.154369" lon="19.122332">
<ele>1453.297852</ele>
<time>2012-05-01T14:59:59Z</time>
<desc>lat.=43.154369, lon.=19.122332, Alt.=1453.297852m. Speed=0.000000m/h.</desc>
<speed>0.000000</speed>
</trkpt>
<trkpt lat="43.154369" lon="19.122332">
<ele>1453.297852</ele>
<time>2012-05-01T15:00:04Z</time>
<desc>lat.=43.154369, lon.=19.122332, Alt.=1453.297852m. Speed=0.000000m/h.</desc>
<speed>0.000000</speed>
</trkpt>
<trkpt lat="43.154369" lon="19.122332">
<ele>1453.297852</ele>
<time>2012-05-01T15:00:09Z</time>
<desc>lat.=43.154369, lon.=19.122332, Alt.=1453.297852m. Speed=0.000000m/h.</desc>
<speed>0.000000</speed>
</trkpt>
<trkpt lat="43.154369" lon="19.122332">
<ele>1453.235352</ele>
<time>2012-05-01T15:00:14Z</time>
<desc>lat.=43.154369, lon.=19.122332, Alt.=1453.235352m. Speed=0.036000m/h.</desc>
<speed>0.010000</speed>
</trkpt>
<trkpt lat="43.154369" lon="19.122332">
<ele>1453.079102</ele>
<time>2012-05-01T15:00:19Z</time>
<desc>lat.=43.154369, lon.=19.122332, Alt.=1453.079102m. Speed=0.000000m/h.</desc>
<speed>0.000000</speed>
</trkpt>
<trkpt lat="43.154369" lon="19.122334">
<ele>1453.047852</ele>
<time>2012-05-01T15:00:24Z</time>
<desc>lat.=43.154369, lon.=19.122334, Alt.=1453.047852m. Speed=0.036000m/h.</desc>
<speed>0.010000</speed>
</trkpt>
<trkpt lat="43.154369" lon="19.122334">
<ele>1453.079102</ele>
<time>2012-05-01T15:00:29Z</time>
<desc>lat.=43.154369, lon.=19.122334, Alt.=1453.079102m. Speed=0.000000m/h.</desc>
<speed>0.000000</speed>
</trkpt>
<trkpt lat="43.154369" lon="19.122334">
<ele>1453.016602</ele>
<time>2012-05-01T15:00:34Z</time>
<desc>lat.=43.154369, lon.=19.122334, Alt.=1453.016602m. Speed=0.000000m/h.</desc>
<speed>0.000000</speed>
</trkpt>
<trkpt lat="43.154366" lon="19.122334">
<ele>1452.954102</ele>
<time>2012-05-01T15:00:39Z</time>
<desc>lat.=43.154366, lon.=19.122334, Alt.=1452.954102m. Speed=0.036000m/h.</desc>
<speed>0.010000</speed>
</trkpt>
<trkpt lat="43.154366" lon="19.122335">
<ele>1452.891602</ele>
<time>2012-05-01T15:00:44Z</time>
<desc>lat.=43.154366, lon.=19.122335, Alt.=1452.891602m. Speed=0.000000m/h.</desc>
<speed>0.000000</speed>
</trkpt>
<trkpt lat="43.154366" lon="19.122335">
<ele>1452.922852</ele>
<time>2012-05-01T15:00:49Z</time>
<desc>lat.=43.154366, lon.=19.122335, Alt.=1452.922852m. Speed=0.000000m/h.</desc>
<speed>0.000000</speed>
</trkpt>
<trkpt lat="43.154366" lon="19.122335">
<ele>1452.954102</ele>
<time>2012-05-01T15:00:54Z</time>
<desc>lat.=43.154366, lon.=19.122335, Alt.=1452.954102m. Speed=0.072000m/h.</desc>
<speed>0.020000</speed>
</trkpt>
<trkpt lat="43.154366" lon="19.122335">
<ele>1452.985352</ele>
<time>2012-05-01T15:00:59Z</time>
<desc>lat.=43.154366, lon.=19.122335, Alt.=1452.985352m. Speed=0.072000m/h.</desc>
<speed>0.020000</speed>
</trkpt>
<trkpt lat="43.154366" lon="19.122335">
<ele>1452.954102</ele>
<time>2012-05-01T15:01:04Z</time>
<desc>lat.=43.154366, lon.=19.122335, Alt.=1452.954102m. Speed=0.036000m/h.</desc>
<speed>0.010000</speed>
</trkpt>
<trkpt lat="43.154366" lon="19.122335">
<ele>1452.954102</ele>
<time>2012-05-01T15:01:09Z</time>
<desc>lat.=43.154366, lon.=19.122335, Alt.=1452.954102m. Speed=0.036000m/h.</desc>
<speed>0.010000</speed>
</trkpt>
<trkpt lat="43.154366" lon="19.122337">
<ele>1452.954102</ele>
<time>2012-05-01T15:01:14Z</time>
<desc>lat.=43.154366, lon.=19.122337, Alt.=1452.954102m. Speed=0.036000m/h.</desc>
<speed>0.010000</speed>
</trkpt>
<trkpt lat="43.154366" lon="19.122337">
<ele>1452.985352</ele>
<time>2012-05-01T15:01:19Z</time>
<desc>lat.=43.154366, lon.=19.122337, Alt.=1452.985352m. Speed=0.000000m/h.</desc>
<speed>0.000000</speed>
</trkpt>
<trkpt lat="43.154366" lon="19.122337">
<ele>1452.985352</ele>
<time>2012-05-01T15:01:24Z</time>
<desc>lat.=43.154366, lon.=19.122337, Alt.=1452.985352m. Speed=0.000000m/h.</desc>
<speed>0.000000</speed>
</trkpt>
<trkpt lat="43.154366" lon="19.122337">
<ele>1452.985352</ele>
<time>2012-05-01T15:01:29Z</time>
<desc>lat.=43.154366, lon.=19.122337, Alt.=1452.985352m. Speed=0.000000m/h.</desc>
<speed>0.000000</speed>
</trkpt>
<trkpt lat="43.154366" lon="19.122337">
<ele>1452.985352</ele>
<time>2012-05-01T15:01:34Z</time>
<desc>lat.=43.154366, lon.=19.122337, Alt.=1452.985352m. Speed=0.036000m/h.</desc>
<speed>0.010000</speed>
</trkpt>
<trkpt lat="43.154366" lon="19.122337">
<ele>1453.016602</ele>
<time>2012-05-01T15:01:39Z</time>
<desc>lat.=43.154366, lon.=19.122337, Alt.=1453.016602m. Speed=0.000000m/h.</desc>
<speed>0.000000</speed>
</trkpt>
<trkpt lat="43.154366" lon="19.122337">
<ele>1452.985352</ele>
<time>2012-05-01T15:01:44Z</time>
<desc>lat.=43.154366, lon.=19.122337, Alt.=1452.985352m. Speed=0.000000m/h.</desc>
<speed>0.000000</speed>
</trkpt>
<trkpt lat="43.154366" lon="19.122337">
<ele>1452.922852</ele>
<time>2012-05-01T15:01:49Z</time>
<desc>lat.=43.154366, lon.=19.122337, Alt.=1452.922852m. Speed=0.000000m/h.</desc>
<speed>0.000000</speed>
</trkpt>
<trkpt lat="43.154366" lon="19.122337">
<ele>1452.922852</ele>
<time>2012-05-01T15:01:54Z</time>
<desc>lat.=43.154366, lon.=19.122337, Alt.=1452.922852m. Speed=0.036000m/h.</desc>
<speed>0.010000</speed>
</trkpt>
<trkpt lat="43.154366" lon="19.122339">
<ele>1452.922852</ele>
<time>2012-05-01T15:01:59Z</time>
<desc>lat.=43.154366, lon.=19.122339, Alt.=1452.922852m. Speed=0.072000m/h.</desc>
<speed>0.020000</speed>
</trkpt>
<trkpt lat="43.154366" lon="19.122339">
<ele>1452.954102</ele>
<time>2012-05-01T15:02:04Z</time>
<desc>lat.=43.154366, lon.=19.122339, Alt.=1452.954102m. Speed=0.072000m/h.</desc>
<speed>0.020000</speed>
</trkpt>
<trkpt lat="43.154366" lon="19.122339">
<ele>1452.954102</ele>
<time>2012-05-01T15:02:09Z</time>
<desc>lat.=43.154366, lon.=19.122339, Alt.=1452.954102m. Speed=0.036000m/h.</desc>
<speed>0.010000</speed>
</trkpt>
<trkpt lat="43.154362" lon="19.122339">
<ele>1452.985352</ele>
<time>2012-05-01T15:02:14Z</time>
<desc>lat.=43.154362, lon.=19.122339, Alt.=1452.985352m. Speed=0.000000m/h.</desc>
<speed>0.000000</speed>
</trkpt>
<trkpt lat="43.154362" lon="19.122339">
<ele>1453.016602</ele>
<time>2012-05-01T15:02:19Z</time>
<desc>lat.=43.154362, lon.=19.122339, Alt.=1453.016602m. Speed=0.000000m/h.</desc>
<speed>0.000000</speed>
</trkpt>
<trkpt lat="43.154362" lon="19.122341">
<ele>1453.016602</ele>
<time>2012-05-01T15:02:24Z</time>
<desc>lat.=43.154362, lon.=19.122341, Alt.=1453.016602m. Speed=0.000000m/h.</desc>
<speed>0.000000</speed>
</trkpt>
<trkpt lat="43.154362" lon="19.122341">
<ele>1453.016602</ele>
<time>2012-05-01T15:02:29Z</time>
<desc>lat.=43.154362, lon.=19.122341, Alt.=1453.016602m. Speed=0.000000m/h.</desc>
<speed>0.000000</speed>
</trkpt>
<trkpt lat="43.154362" lon="19.122341">
<ele>1453.016602</ele>
<time>2012-05-01T15:02:34Z</time>
<desc>lat.=43.154362, lon.=19.122341, Alt.=1453.016602m. Speed=0.000000m/h.</desc>
<speed>0.000000</speed>
</trkpt>
<trkpt lat="43.154362" lon="19.122341">
<ele>1453.047852</ele>
<time>2012-05-01T15:02:39Z</time>
<desc>lat.=43.154362, lon.=19.122341, Alt.=1453.047852m. Speed=0.000000m/h.</desc>
<speed>0.000000</speed>
</trkpt>
<trkpt lat="43.154362" lon="19.122341">
<ele>1453.016602</ele>
<time>2012-05-01T15:02:44Z</time>
<desc>lat.=43.154362, lon.=19.122341, Alt.=1453.016602m. Speed=0.000000m/h.</desc>
<speed>0.000000</speed>
</trkpt>
<trkpt lat="43.154362" lon="19.122343">
<ele>1452.922852</ele>
<time>2012-05-01T15:02:49Z</time>
<desc>lat.=43.154362, lon.=19.122343, Alt.=1452.922852m. Speed=0.036000m/h.</desc>
<speed>0.010000</speed>
</trkpt>
<trkpt lat="43.154362" lon="19.122343">
<ele>1452.829102</ele>
<time>2012-05-01T15:02:54Z</time>
<desc>lat.=43.154362, lon.=19.122343, Alt.=1452.829102m. Speed=0.036000m/h.</desc>
<speed>0.010000</speed>
</trkpt>
<trkpt lat="43.154362" lon="19.122343">
<ele>1452.797852</ele>
<time>2012-05-01T15:02:59Z</time>
<desc>lat.=43.154362, lon.=19.122343, Alt.=1452.797852m. Speed=0.036000m/h.</desc>
<speed>0.010000</speed>
</trkpt>
<trkpt lat="43.154362" lon="19.122343">
<ele>1452.829102</ele>
<time>2012-05-01T15:03:04Z</time>
<desc>lat.=43.154362, lon.=19.122343, Alt.=1452.829102m. Speed=0.000000m/h.</desc>
<speed>0.000000</speed>
</trkpt>
<trkpt lat="43.154362" lon="19.122343">
<ele>1452.829102</ele>
<time>2012-05-01T15:03:09Z</time>
<desc>lat.=43.154362, lon.=19.122343, Alt.=1452.829102m. Speed=0.000000m/h.</desc>
<speed>0.000000</speed>
</trkpt>
<trkpt lat="43.154362" lon="19.122343">
<ele>1452.829102</ele>
<time>2012-05-01T15:03:14Z</time>
<desc>lat.=43.154362, lon.=19.122343, Alt.=1452.829102m. Speed=0.000000m/h.</desc>
<speed>0.000000</speed>
</trkpt>
<trkpt lat="43.154362" lon="19.122343">
<ele>1452.829102</ele>
<time>2012-05-01T15:03:19Z</time>
<desc>lat.=43.154362, lon.=19.122343, Alt.=1452.829102m. Speed=0.000000m/h.</desc>
<speed>0.000000</speed>
</trkpt>
<trkpt lat="43.154362" lon="19.122345">
<ele>1452.829102</ele>
<time>2012-05-01T15:03:24Z</time>
<desc>lat.=43.154362, lon.=19.122345, Alt.=1452.829102m. Speed=0.000000m/h.</desc>
<speed>0.000000</speed>
</trkpt>
<trkpt lat="43.154362" lon="19.122345">
<ele>1452.860352</ele>
<time>2012-05-01T15:03:29Z</time>
<desc>lat.=43.154362, lon.=19.122345, Alt.=1452.860352m. Speed=0.072000m/h.</desc>
<speed>0.020000</speed>
</trkpt>
<trkpt lat="43.154362" lon="19.122345">
<ele>1452.860352</ele>
<time>2012-05-01T15:03:34Z</time>
<desc>lat.=43.154362, lon.=19.122345, Alt.=1452.860352m. Speed=0.036000m/h.</desc>
<speed>0.010000</speed>
</trkpt>
<trkpt lat="43.154362" lon="19.122345">
<ele>1452.860352</ele>
<time>2012-05-01T15:03:39Z</time>
<desc>lat.=43.154362, lon.=19.122345, Alt.=1452.860352m. Speed=0.000000m/h.</desc>
<speed>0.000000</speed>
</trkpt>
<trkpt lat="43.154362" lon="19.122345">
<ele>1452.829102</ele>
<time>2012-05-01T15:03:44Z</time>
<desc>lat.=43.154362, lon.=19.122345, Alt.=1452.829102m. Speed=0.036000m/h.</desc>
<speed>0.010000</speed>
</trkpt>
<trkpt lat="43.154362" lon="19.122345">
<ele>1452.829102</ele>
<time>2012-05-01T15:03:49Z</time>
<desc>lat.=43.154362, lon.=19.122345, Alt.=1452.829102m. Speed=0.000000m/h.</desc>
<speed>0.000000</speed>
</trkpt>
<trkpt lat="43.154362" lon="19.122345">
<ele>1452.829102</ele>
<time>2012-05-01T15:03:54Z</time>
<desc>lat.=43.154362, lon.=19.122345, Alt.=1452.829102m. Speed=0.000000m/h.</desc>
<speed>0.000000</speed>
</trkpt>
<trkpt lat="43.154362" lon="19.122345">
<ele>1452.829102</ele>
<time>2012-05-01T15:03:59Z</time>
<desc>lat.=43.154362, lon.=19.122345, Alt.=1452.829102m. Speed=0.000000m/h.</desc>
<speed>0.000000</speed>
</trkpt>
<trkpt lat="43.154362" lon="19.122345">
<ele>1452.797852</ele>
<time>2012-05-01T15:04:04Z</time>
<desc>lat.=43.154362, lon.=19.122345, Alt.=1452.797852m. Speed=0.000000m/h.</desc>
<speed>0.000000</speed>
</trkpt>
<trkpt lat="43.154362" lon="19.122345">
<ele>1452.797852</ele>
<time>2012-05-01T15:04:09Z</time>
<desc>lat.=43.154362, lon.=19.122345, Alt.=1452.797852m. Speed=0.000000m/h.</desc>
<speed>0.000000</speed>
</trkpt>
<trkpt lat="43.154362" lon="19.122345">
<ele>1452.797852</ele>
<time>2012-05-01T15:04:14Z</time>
<desc>lat.=43.154362, lon.=19.122345, Alt.=1452.797852m. Speed=0.036000m/h.</desc>
<speed>0.010000</speed>
</trkpt>
<trkpt lat="43.154362" lon="19.122345">
<ele>1452.797852</ele>
<time>2012-05-01T15:04:19Z</time>
<desc>lat.=43.154362, lon.=19.122345, Alt.=1452.797852m. Speed=0.000000m/h.</desc>
<speed>0.000000</speed>
</trkpt>
<trkpt lat="43.154362" lon="19.122345">
<ele>1452.797852</ele>
<time>2012-05-01T15:04:24Z</time>
<desc>lat.=43.154362, lon.=19.122345, Alt.=1452.797852m. Speed=0.036000m/h.</desc>
<speed>0.010000</speed>
</trkpt>
<trkpt lat="43.154362" lon="19.122345">
<ele>1452.797852</ele>
<time>2012-05-01T15:04:29Z</time>
<desc>lat.=43.154362, lon.=19.122345, Alt.=1452.797852m. Speed=0.036000m/h.</desc>
<speed>0.010000</speed>
</trkpt>
<trkpt lat="43.154362" lon="19.122343">
<ele>1452.797852</ele>
<time>2012-05-01T15:04:34Z</time>
<desc>lat.=43.154362, lon.=19.122343, Alt.=1452.797852m. Speed=0.072000m/h.</desc>
<speed>0.020000</speed>
</trkpt>
<trkpt lat="43.154362" lon="19.122343">
<ele>1452.797852</ele>
<time>2012-05-01T15:04:39Z</time>
<desc>lat.=43.154362, lon.=19.122343, Alt.=1452.797852m. Speed=0.108000m/h.</desc>
<speed>0.030000</speed>
</trkpt>
<trkpt lat="43.154362" lon="19.122343">
<ele>1452.829102</ele>
<time>2012-05-01T15:04:44Z</time>
<desc>lat.=43.154362, lon.=19.122343, Alt.=1452.829102m. Speed=0.036000m/h.</desc>
<speed>0.010000</speed>
</trkpt>
<trkpt lat="43.154362" lon="19.122343">
<ele>1452.829102</ele>
<time>2012-05-01T15:04:49Z</time>
<desc>lat.=43.154362, lon.=19.122343, Alt.=1452.829102m. Speed=0.036000m/h.</desc>
<speed>0.010000</speed>
</trkpt>
<trkpt lat="43.154362" lon="19.122341">
<ele>1452.829102</ele>
<time>2012-05-01T15:04:54Z</time>
<desc>lat.=43.154362, lon.=19.122341, Alt.=1452.829102m. Speed=0.108000m/h.</desc>
<speed>0.030000</speed>
</trkpt>
<trkpt lat="43.154362" lon="19.122341">
<ele>1452.829102</ele>
<time>2012-05-01T15:04:59Z</time>
<desc>lat.=43.154362, lon.=19.122341, Alt.=1452.829102m. Speed=0.036000m/h.</desc>
<speed>0.010000</speed>
</trkpt>
<trkpt lat="43.154362" lon="19.122343">
<ele>1452.829102</ele>
<time>2012-05-01T15:05:04Z</time>
<desc>lat.=43.154362, lon.=19.122343, Alt.=1452.829102m. Speed=0.000000m/h.</desc>
<speed>0.000000</speed>
</trkpt>
<trkpt lat="43.154362" lon="19.122343">
<ele>1452.829102</ele>
<time>2012-05-01T15:05:09Z</time>
<desc>lat.=43.154362, lon.=19.122343, Alt.=1452.829102m. Speed=0.108000m/h.</desc>
<speed>0.030000</speed>
</trkpt>
<trkpt lat="43.154362" lon="19.122343">
<ele>1452.766602</ele>
<time>2012-05-01T15:05:14Z</time>
<desc>lat.=43.154362, lon.=19.122343, Alt.=1452.766602m. Speed=0.000000m/h.</desc>
<speed>0.000000</speed>
</trkpt>
<trkpt lat="43.154362" lon="19.122343">
<ele>1452.735352</ele>
<time>2012-05-01T15:05:19Z</time>
<desc>lat.=43.154362, lon.=19.122343, Alt.=1452.735352m. Speed=0.036000m/h.</desc>
<speed>0.010000</speed>
</trkpt>
<trkpt lat="43.154362" lon="19.122343">
<ele>1452.704102</ele>
<time>2012-05-01T15:05:24Z</time>
<desc>lat.=43.154362, lon.=19.122343, Alt.=1452.704102m. Speed=0.000000m/h.</desc>
<speed>0.000000</speed>
</trkpt>
<trkpt lat="43.154362" lon="19.122343">
<ele>1452.672852</ele>
<time>2012-05-01T15:05:29Z</time>
<desc>lat.=43.154362, lon.=19.122343, Alt.=1452.672852m. Speed=0.036000m/h.</desc>
<speed>0.010000</speed>
</trkpt>
<trkpt lat="43.154362" lon="19.122343">
<ele>1452.641602</ele>
<time>2012-05-01T15:05:34Z</time>
<desc>lat.=43.154362, lon.=19.122343, Alt.=1452.641602m. Speed=0.036000m/h.</desc>
<speed>0.010000</speed>
</trkpt>
<trkpt lat="43.154362" lon="19.122343">
<ele>1452.641602</ele>
<time>2012-05-01T15:05:39Z</time>
<desc>lat.=43.154362, lon.=19.122343, Alt.=1452.641602m. Speed=0.036000m/h.</desc>
<speed>0.010000</speed>
</trkpt>
<trkpt lat="43.154362" lon="19.122343">
<ele>1452.641602</ele>
<time>2012-05-01T15:05:44Z</time>
<desc>lat.=43.154362, lon.=19.122343, Alt.=1452.641602m. Speed=0.072000m/h.</desc>
<speed>0.020000</speed>
</trkpt>
<trkpt lat="43.154362" lon="19.122343">
<ele>1452.641602</ele>
<time>2012-05-01T15:05:49Z</time>
<desc>lat.=43.154362, lon.=19.122343, Alt.=1452.641602m. Speed=0.036000m/h.</desc>
<speed>0.010000</speed>
</trkpt>
<trkpt lat="43.154362" lon="19.122343">
<ele>1452.641602</ele>
<time>2012-05-01T15:05:54Z</time>
<desc>lat.=43.154362, lon.=19.122343, Alt.=1452.641602m. Speed=0.036000m/h.</desc>
<speed>0.010000</speed>
</trkpt>
<trkpt lat="43.154362" lon="19.122343">
<ele>1452.641602</ele>
<time>2012-05-01T15:05:59Z</time>
<desc>lat.=43.154362, lon.=19.122343, Alt.=1452.641602m. Speed=0.036000m/h.</desc>
<speed>0.010000</speed>
</trkpt>
<trkpt lat="43.154362" lon="19.122343">
<ele>1452.672852</ele>
<time>2012-05-01T15:06:04Z</time>
<desc>lat.=43.154362, lon.=19.122343, Alt.=1452.672852m. Speed=0.000000m/h.</desc>
<speed>0.000000</speed>
</trkpt>
<trkpt lat="43.154362" lon="19.122343">
<ele>1452.672852</ele>
<time>2012-05-01T15:06:09Z</time>
<desc>lat.=43.154362, lon.=19.122343, Alt.=1452.672852m. Speed=0.108000m/h.</desc>
<speed>0.030000</speed>
</trkpt>
<trkpt lat="43.154362" lon="19.122343">
<ele>1452.704102</ele>
<time>2012-05-01T15:06:14Z</time>
<desc>lat.=43.154362, lon.=19.122343, Alt.=1452.704102m. Speed=0.036000m/h.</desc>
<speed>0.010000</speed>
</trkpt>
<trkpt lat="43.154362" lon="19.122343">
<ele>1452.735352</ele>
<time>2012-05-01T15:06:19Z</time>
<desc>lat.=43.154362, lon.=19.122343, Alt.=1452.735352m. Speed=0.036000m/h.</desc>
<speed>0.010000</speed>
</trkpt>
<trkpt lat="43.154362" lon="19.122343">
<ele>1452.766602</ele>
<time>2012-05-01T15:06:24Z</time>
<desc>lat.=43.154362, lon.=19.122343, Alt.=1452.766602m. Speed=0.000000m/h.</desc>
<speed>0.000000</speed>
</trkpt>
<trkpt lat="43.154362" lon="19.122343">
<ele>1452.766602</ele>
<time>2012-05-01T15:06:29Z</time>
<desc>lat.=43.154362, lon.=19.122343, Alt.=1452.766602m. Speed=0.000000m/h.</desc>
<speed>0.000000</speed>
</trkpt>
<trkpt lat="43.154362" lon="19.122343">
<ele>1452.797852</ele>
<time>2012-05-01T15:06:34Z</time>
<desc>lat.=43.154362, lon.=19.122343, Alt.=1452.797852m. Speed=0.000000m/h.</desc>
<speed>0.000000</speed>
</trkpt>
<trkpt lat="43.154362" lon="19.122343">
<ele>1452.797852</ele>
<time>2012-05-01T15:06:39Z</time>
<desc>lat.=43.154362, lon.=19.122343, Alt.=1452.797852m. Speed=0.072000m/h.</desc>
<speed>0.020000</speed>
</trkpt>
<trkpt lat="43.154362" lon="19.122345">
<ele>1452.766602</ele>
<time>2012-05-01T15:06:44Z</time>
<desc>lat.=43.154362, lon.=19.122345, Alt.=1452.766602m. Speed=0.036000m/h.</desc>
<speed>0.010000</speed>
</trkpt>
<trkpt lat="43.154362" lon="19.122345">
<ele>1452.766602</ele>
<time>2012-05-01T15:06:49Z</time>
<desc>lat.=43.154362, lon.=19.122345, Alt.=1452.766602m. Speed=0.036000m/h.</desc>
<speed>0.010000</speed>
</trkpt>
<trkpt lat="43.154362" lon="19.122345">
<ele>1452.766602</ele>
<time>2012-05-01T15:06:54Z</time>
<desc>lat.=43.154362, lon.=19.122345, Alt.=1452.766602m. Speed=0.072000m/h.</desc>
<speed>0.020000</speed>
</trkpt>
<trkpt lat="43.154362" lon="19.122345">
<ele>1452.766602</ele>
<time>2012-05-01T15:06:59Z</time>
<desc>lat.=43.154362, lon.=19.122345, Alt.=1452.766602m. Speed=0.036000m/h.</desc>
<speed>0.010000</speed>
</trkpt>
<trkpt lat="43.154362" lon="19.122345">
<ele>1452.797852</ele>
<time>2012-05-01T15:07:04Z</time>
<desc>lat.=43.154362, lon.=19.122345, Alt.=1452.797852m. Speed=0.072000m/h.</desc>
<speed>0.020000</speed>
</trkpt>
<trkpt lat="43.154362" lon="19.122345">
<ele>1452.797852</ele>
<time>2012-05-01T15:07:09Z</time>
<desc>lat.=43.154362, lon.=19.122345, Alt.=1452.797852m. Speed=0.000000m/h.</desc>
<speed>0.000000</speed>
</trkpt>
<trkpt lat="43.154362" lon="19.122345">
<ele>1452.860352</ele>
<time>2012-05-01T15:07:14Z</time>
<desc>lat.=43.154362, lon.=19.122345, Alt.=1452.860352m. Speed=0.000000m/h.</desc>
<speed>0.000000</speed>
</trkpt>
<trkpt lat="43.154362" lon="19.122345">
<ele>1452.891602</ele>
<time>2012-05-01T15:07:19Z</time>
<desc>lat.=43.154362, lon.=19.122345, Alt.=1452.891602m. Speed=0.036000m/h.</desc>
<speed>0.010000</speed>
</trkpt>
<trkpt lat="43.154362" lon="19.122345">
<ele>1452.922852</ele>
<time>2012-05-01T15:07:24Z</time>
<desc>lat.=43.154362, lon.=19.122345, Alt.=1452.922852m. Speed=0.000000m/h.</desc>
<speed>0.000000</speed>
</trkpt>
<trkpt lat="43.154362" lon="19.122345">
<ele>1452.922852</ele>
<time>2012-05-01T15:07:29Z</time>
<desc>lat.=43.154362, lon.=19.122345, Alt.=1452.922852m. Speed=0.000000m/h.</desc>
<speed>0.000000</speed>
</trkpt>
<trkpt lat="43.154362" lon="19.122345">
<ele>1452.891602</ele>
<time>2012-05-01T15:07:34Z</time>
<desc>lat.=43.154362, lon.=19.122345, Alt.=1452.891602m. Speed=0.000000m/h.</desc>
<speed>0.000000</speed>
</trkpt>
<trkpt lat="43.154362" lon="19.122345">
<ele>1452.891602</ele>
<time>2012-05-01T15:07:39Z</time>
<desc>lat.=43.154362, lon.=19.122345, Alt.=1452.891602m. Speed=0.036000m/h.</desc>
<speed>0.010000</speed>
</trkpt>
<trkpt lat="43.154362" lon="19.122345">
<ele>1452.860352</ele>
<time>2012-05-01T15:07:44Z</time>
<desc>lat.=43.154362, lon.=19.122345, Alt.=1452.860352m. Speed=0.000000m/h.</desc>
<speed>0.000000</speed>
</trkpt>
<trkpt lat="43.154362" lon="19.122345">
<ele>1452.860352</ele>
<time>2012-05-01T15:07:49Z</time>
<desc>lat.=43.154362, lon.=19.122345, Alt.=1452.860352m. Speed=0.000000m/h.</desc>
<speed>0.000000</speed>
</trkpt>
<trkpt lat="43.154362" lon="19.122345">
<ele>1452.829102</ele>
<time>2012-05-01T15:07:54Z</time>
<desc>lat.=43.154362, lon.=19.122345, Alt.=1452.829102m. Speed=0.036000m/h.</desc>
<speed>0.010000</speed>
</trkpt>
<trkpt lat="43.154362" lon="19.122345">
<ele>1452.829102</ele>
<time>2012-05-01T15:07:59Z</time>
<desc>lat.=43.154362, lon.=19.122345, Alt.=1452.829102m. Speed=0.072000m/h.</desc>
<speed>0.020000</speed>
</trkpt>
<trkpt lat="43.154362" lon="19.122345">
<ele>1452.797852</ele>
<time>2012-05-01T15:08:04Z</time>
<desc>lat.=43.154362, lon.=19.122345, Alt.=1452.797852m. Speed=0.000000m/h.</desc>
<speed>0.000000</speed>
</trkpt>
<trkpt lat="43.154362" lon="19.122345">
<ele>1452.797852</ele>
<time>2012-05-01T15:08:09Z</time>
<desc>lat.=43.154362, lon.=19.122345, Alt.=1452.797852m. Speed=0.144000m/h.</desc>
<speed>0.040000</speed>
</trkpt>
<trkpt lat="43.154358" lon="19.122345">
<ele>1452.829102</ele>
<time>2012-05-01T15:08:14Z</time>
<desc>lat.=43.154358, lon.=19.122345, Alt.=1452.829102m. Speed=0.108000m/h.</desc>
<speed>0.030000</speed>
</trkpt>
<trkpt lat="43.154358" lon="19.122345">
<ele>1452.829102</ele>
<time>2012-05-01T15:08:19Z</time>
<desc>lat.=43.154358, lon.=19.122345, Alt.=1452.829102m. Speed=0.108000m/h.</desc>
<speed>0.030000</speed>
</trkpt>
<trkpt lat="43.154362" lon="19.122345">
<ele>1452.829102</ele>
<time>2012-05-01T15:08:24Z</time>
<desc>lat.=43.154362, lon.=19.122345, Alt.=1452.829102m. Speed=0.108000m/h.</desc>
<speed>0.030000</speed>
</trkpt>
<trkpt lat="43.154362" lon="19.122345">
<ele>1452.860352</ele>
<time>2012-05-01T15:08:29Z</time>
<desc>lat.=43.154362, lon.=19.122345, Alt.=1452.860352m. Speed=0.072000m/h.</desc>
<speed>0.020000</speed>
</trkpt>
<trkpt lat="43.154358" lon="19.122345">
<ele>1452.860352</ele>
<time>2012-05-01T15:08:34Z</time>
<desc>lat.=43.154358, lon.=19.122345, Alt.=1452.860352m. Speed=0.108000m/h.</desc>
<speed>0.030000</speed>
</trkpt>
<trkpt lat="43.154358" lon="19.122345">
<ele>1452.797852</ele>
<time>2012-05-01T15:08:39Z</time>
<desc>lat.=43.154358, lon.=19.122345, Alt.=1452.797852m. Speed=0.000000m/h.</desc>
<speed>0.000000</speed>
</trkpt>
<trkpt lat="43.154358" lon="19.122345">
<ele>1452.735352</ele>
<time>2012-05-01T15:08:44Z</time>
<desc>lat.=43.154358, lon.=19.122345, Alt.=1452.735352m. Speed=0.000000m/h.</desc>
<speed>0.000000</speed>
</trkpt>
<trkpt lat="43.154358" lon="19.122345">
<ele>1452.672852</ele>
<time>2012-05-01T15:08:49Z</time>
<desc>lat.=43.154358, lon.=19.122345, Alt.=1452.672852m. Speed=0.036000m/h.</desc>
<speed>0.010000</speed>
</trkpt>
<trkpt lat="43.154358" lon="19.122345">
<ele>1452.641602</ele>
<time>2012-05-01T15:08:54Z</time>
<desc>lat.=43.154358, lon.=19.122345, Alt.=1452.641602m. Speed=0.000000m/h.</desc>
<speed>0.000000</speed>
</trkpt>
<trkpt lat="43.154358" lon="19.122345">
<ele>1452.610352</ele>
<time>2012-05-01T15:08:59Z</time>
<desc>lat.=43.154358, lon.=19.122345, Alt.=1452.610352m. Speed=0.000000m/h.</desc>
<speed>0.000000</speed>
</trkpt>
<trkpt lat="43.154358" lon="19.122345">
<ele>1452.610352</ele>
<time>2012-05-01T15:09:04Z</time>
<desc>lat.=43.154358, lon.=19.122345, Alt.=1452.610352m. Speed=0.000000m/h.</desc>
<speed>0.000000</speed>
</trkpt>
<trkpt lat="43.154358" lon="19.122345">
<ele>1452.641602</ele>
<time>2012-05-01T15:09:09Z</time>
<desc>lat.=43.154358, lon.=19.122345, Alt.=1452.641602m. Speed=0.072000m/h.</desc>
<speed>0.020000</speed>
</trkpt>
<trkpt lat="43.154358" lon="19.122345">
<ele>1452.704102</ele>
<time>2012-05-01T15:09:14Z</time>
<desc>lat.=43.154358, lon.=19.122345, Alt.=1452.704102m. Speed=0.000000m/h.</desc>
<speed>0.000000</speed>
</trkpt>
<trkpt lat="43.154358" lon="19.122345">
<ele>1452.704102</ele>
<time>2012-05-01T15:09:19Z</time>
<desc>lat.=43.154358, lon.=19.122345, Alt.=1452.704102m. Speed=0.072000m/h.</desc>
<speed>0.020000</speed>
</trkpt>
<trkpt lat="43.154358" lon="19.122347">
<ele>1452.735352</ele>
<time>2012-05-01T15:09:24Z</time>
<desc>lat.=43.154358, lon.=19.122347, Alt.=1452.735352m. Speed=0.036000m/h.</desc>
<speed>0.010000</speed>
</trkpt>
<trkpt lat="43.154358" lon="19.122347">
<ele>1452.704102</ele>
<time>2012-05-01T15:09:29Z</time>
<desc>lat.=43.154358, lon.=19.122347, Alt.=1452.704102m. Speed=0.072000m/h.</desc>
<speed>0.020000</speed>
</trkpt>
<trkpt lat="43.154358" lon="19.122347">
<ele>1452.704102</ele>
<time>2012-05-01T15:09:34Z</time>
<desc>lat.=43.154358, lon.=19.122347, Alt.=1452.704102m. Speed=0.000000m/h.</desc>
<speed>0.000000</speed>
</trkpt>
<trkpt lat="43.154358" lon="19.122347">
<ele>1452.672852</ele>
<time>2012-05-01T15:09:39Z</time>
<desc>lat.=43.154358, lon.=19.122347, Alt.=1452.672852m. Speed=0.036000m/h.</desc>
<speed>0.010000</speed>
</trkpt>
<trkpt lat="43.154358" lon="19.122347">
<ele>1452.672852</ele>
<time>2012-05-01T15:09:44Z</time>
<desc>lat.=43.154358, lon.=19.122347, Alt.=1452.672852m. Speed=0.000000m/h.</desc>
<speed>0.000000</speed>
</trkpt>
<trkpt lat="43.154358" lon="19.122349">
<ele>1452.641602</ele>
<time>2012-05-01T15:09:49Z</time>
<desc>lat.=43.154358, lon.=19.122349, Alt.=1452.641602m. Speed=0.000000m/h.</desc>
<speed>0.000000</speed>
</trkpt>
<trkpt lat="43.154358" lon="19.122349">
<ele>1452.610352</ele>
<time>2012-05-01T15:09:54Z</time>
<desc>lat.=43.154358, lon.=19.122349, Alt.=1452.610352m. Speed=0.000000m/h.</desc>
<speed>0.000000</speed>
</trkpt>
<trkpt lat="43.154358" lon="19.122349">
<ele>1452.672852</ele>
<time>2012-05-01T15:09:59Z</time>
<desc>lat.=43.154358, lon.=19.122349, Alt.=1452.672852m. Speed=0.036000m/h.</desc>
<speed>0.010000</speed>
</trkpt>
<trkpt lat="43.154358" lon="19.122349">
<ele>1452.704102</ele>
<time>2012-05-01T15:10:04Z</time>
<desc>lat.=43.154358, lon.=19.122349, Alt.=1452.704102m. Speed=0.036000m/h.</desc>
<speed>0.010000</speed>
</trkpt>
<trkpt lat="43.154358" lon="19.122349">
<ele>1452.735352</ele>
<time>2012-05-01T15:10:09Z</time>
<desc>lat.=43.154358, lon.=19.122349, Alt.=1452.735352m. Speed=0.072000m/h.</desc>
<speed>0.020000</speed>
</trkpt>
<trkpt lat="43.154358" lon="19.122349">
<ele>1452.735352</ele>
<time>2012-05-01T15:10:14Z</time>
<desc>lat.=43.154358, lon.=19.122349, Alt.=1452.735352m. Speed=0.036000m/h.</desc>
<speed>0.010000</speed>
</trkpt>
<trkpt lat="43.154358" lon="19.122349">
<ele>1452.766602</ele>
<time>2012-05-01T15:10:19Z</time>
<desc>lat.=43.154358, lon.=19.122349, Alt.=1452.766602m. Speed=0.000000m/h.</desc>
<speed>0.000000</speed>
</trkpt>
<trkpt lat="43.154358" lon="19.122349">
<ele>1452.766602</ele>
<time>2012-05-01T15:10:24Z</time>
<desc>lat.=43.154358, lon.=19.122349, Alt.=1452.766602m. Speed=0.000000m/h.</desc>
<speed>0.000000</speed>
</trkpt>
<trkpt lat="43.154358" lon="19.122349">
<ele>1452.766602</ele>
<time>2012-05-01T15:10:29Z</time>
<desc>lat.=43.154358, lon.=19.122349, Alt.=1452.766602m. Speed=0.000000m/h.</desc>
<speed>0.000000</speed>
</trkpt>
<trkpt lat="43.154358" lon="19.122349">
<ele>1452.735352</ele>
<time>2012-05-01T15:10:34Z</time>
<desc>lat.=43.154358, lon.=19.122349, Alt.=1452.735352m. Speed=0.036000m/h.</desc>
<speed>0.010000</speed>
</trkpt>
<trkpt lat="43.154358" lon="19.122351">
<ele>1452.704102</ele>
<time>2012-05-01T15:10:39Z</time>
<desc>lat.=43.154358, lon.=19.122351, Alt.=1452.704102m. Speed=0.000000m/h.</desc>
<speed>0.000000</speed>
</trkpt>
<trkpt lat="43.154358" lon="19.122351">
<ele>1452.672852</ele>
<time>2012-05-01T15:10:44Z</time>
<desc>lat.=43.154358, lon.=19.122351, Alt.=1452.672852m. Speed=0.000000m/h.</desc>
<speed>0.000000</speed>
</trkpt>
<trkpt lat="43.154358" lon="19.122351">
<ele>1452.672852</ele>
<time>2012-05-01T15:10:49Z</time>
<desc>lat.=43.154358, lon.=19.122351, Alt.=1452.672852m. Speed=0.000000m/h.</desc>
<speed>0.000000</speed>
</trkpt>
<trkpt lat="43.154358" lon="19.122351">
<ele>1452.641602</ele>
<time>2012-05-01T15:10:54Z</time>
<desc>lat.=43.154358, lon.=19.122351, Alt.=1452.641602m. Speed=0.000000m/h.</desc>
<speed>0.000000</speed>
</trkpt>
<trkpt lat="43.154358" lon="19.122353">
<ele>1452.641602</ele>
<time>2012-05-01T15:10:59Z</time>
<desc>lat.=43.154358, lon.=19.122353, Alt.=1452.641602m. Speed=0.036000m/h.</desc>
<speed>0.010000</speed>
</trkpt>
<trkpt lat="43.154358" lon="19.122351">
<ele>1452.610352</ele>
<time>2012-05-01T15:11:04Z</time>
<desc>lat.=43.154358, lon.=19.122351, Alt.=1452.610352m. Speed=0.000000m/h.</desc>
<speed>0.000000</speed>
</trkpt>
<trkpt lat="43.154358" lon="19.122353">
<ele>1452.547852</ele>
<time>2012-05-01T15:11:09Z</time>
<desc>lat.=43.154358, lon.=19.122353, Alt.=1452.547852m. Speed=0.000000m/h.</desc>
<speed>0.000000</speed>
</trkpt>
<trkpt lat="43.154358" lon="19.122353">
<ele>1452.485352</ele>
<time>2012-05-01T15:11:14Z</time>
<desc>lat.=43.154358, lon.=19.122353, Alt.=1452.485352m. Speed=0.000000m/h.</desc>
<speed>0.000000</speed>
</trkpt>
<trkpt lat="43.154358" lon="19.122353">
<ele>1452.485352</ele>
<time>2012-05-01T15:11:19Z</time>
<desc>lat.=43.154358, lon.=19.122353, Alt.=1452.485352m. Speed=0.000000m/h.</desc>
<speed>0.000000</speed>
</trkpt>
<trkpt lat="43.154362" lon="19.122353">
<ele>1452.485352</ele>
<time>2012-05-01T15:11:24Z</time>
<desc>lat.=43.154362, lon.=19.122353, Alt.=1452.485352m. Speed=0.036000m/h.</desc>
<speed>0.010000</speed>
</trkpt>
<trkpt lat="43.154362" lon="19.122353">
<ele>1452.485352</ele>
<time>2012-05-01T15:11:29Z</time>
<desc>lat.=43.154362, lon.=19.122353, Alt.=1452.485352m. Speed=0.000000m/h.</desc>
<speed>0.000000</speed>
</trkpt>
<trkpt lat="43.154362" lon="19.122353">
<ele>1452.454102</ele>
<time>2012-05-01T15:11:34Z</time>
<desc>lat.=43.154362, lon.=19.122353, Alt.=1452.454102m. Speed=0.000000m/h.</desc>
<speed>0.000000</speed>
</trkpt>
<trkpt lat="43.154362" lon="19.122353">
<ele>1452.454102</ele>
<time>2012-05-01T15:11:39Z</time>
<desc>lat.=43.154362, lon.=19.122353, Alt.=1452.454102m. Speed=0.036000m/h.</desc>
<speed>0.010000</speed>
</trkpt>
<trkpt lat="43.154362" lon="19.122353">
<ele>1452.391602</ele>
<time>2012-05-01T15:11:44Z</time>
<desc>lat.=43.154362, lon.=19.122353, Alt.=1452.391602m. Speed=0.036000m/h.</desc>
<speed>0.010000</speed>
</trkpt>
<trkpt lat="43.154362" lon="19.122353">
<ele>1452.329102</ele>
<time>2012-05-01T15:11:49Z</time>
<desc>lat.=43.154362, lon.=19.122353, Alt.=1452.329102m. Speed=0.036000m/h.</desc>
<speed>0.010000</speed>
</trkpt>
<trkpt lat="43.154362" lon="19.122353">
<ele>1452.329102</ele>
<time>2012-05-01T15:11:54Z</time>
<desc>lat.=43.154362, lon.=19.122353, Alt.=1452.329102m. Speed=0.000000m/h.</desc>
<speed>0.000000</speed>
</trkpt>
<trkpt lat="43.154362" lon="19.122353">
<ele>1452.235352</ele>
<time>2012-05-01T15:11:59Z</time>
<desc>lat.=43.154362, lon.=19.122353, Alt.=1452.235352m. Speed=0.036000m/h.</desc>
<speed>0.010000</speed>
</trkpt>
<trkpt lat="43.154362" lon="19.122355">
<ele>1452.172852</ele>
<time>2012-05-01T15:12:04Z</time>
<desc>lat.=43.154362, lon.=19.122355, Alt.=1452.172852m. Speed=0.000000m/h.</desc>
<speed>0.000000</speed>
</trkpt>
<trkpt lat="43.154362" lon="19.122355">
<ele>1452.172852</ele>
<time>2012-05-01T15:12:09Z</time>
<desc>lat.=43.154362, lon.=19.122355, Alt.=1452.172852m. Speed=0.036000m/h.</desc>
<speed>0.010000</speed>
</trkpt>
<trkpt lat="43.154362" lon="19.122355">
<ele>1452.204102</ele>
<time>2012-05-01T15:12:14Z</time>
<desc>lat.=43.154362, lon.=19.122355, Alt.=1452.204102m. Speed=0.000000m/h.</desc>
<speed>0.000000</speed>
</trkpt>
<trkpt lat="43.154362" lon="19.122355">
<ele>1452.204102</ele>
<time>2012-05-01T15:12:19Z</time>
<desc>lat.=43.154362, lon.=19.122355, Alt.=1452.204102m. Speed=0.036000m/h.</desc>
<speed>0.010000</speed>
</trkpt>
<trkpt lat="43.154362" lon="19.122355">
<ele>1452.235352</ele>
<time>2012-05-01T15:12:24Z</time>
<desc>lat.=43.154362, lon.=19.122355, Alt.=1452.235352m. Speed=0.000000m/h.</desc>
<speed>0.000000</speed>
</trkpt>
<trkpt lat="43.154362" lon="19.122355">
<ele>1452.266602</ele>
<time>2012-05-01T15:12:29Z</time>
<desc>lat.=43.154362, lon.=19.122355, Alt.=1452.266602m. Speed=0.036000m/h.</desc>
<speed>0.010000</speed>
</trkpt>
<trkpt lat="43.154362" lon="19.122355">
<ele>1452.266602</ele>
<time>2012-05-01T15:12:34Z</time>
<desc>lat.=43.154362, lon.=19.122355, Alt.=1452.266602m. Speed=0.036000m/h.</desc>
<speed>0.010000</speed>
</trkpt>
<trkpt lat="43.154362" lon="19.122355">
<ele>1452.235352</ele>
<time>2012-05-01T15:12:39Z</time>
<desc>lat.=43.154362, lon.=19.122355, Alt.=1452.235352m. Speed=0.000000m/h.</desc>
<speed>0.000000</speed>
</trkpt>
<trkpt lat="43.154362" lon="19.122355">
<ele>1452.172852</ele>
<time>2012-05-01T15:12:44Z</time>
<desc>lat.=43.154362, lon.=19.122355, Alt.=1452.172852m. Speed=0.036000m/h.</desc>
<speed>0.010000</speed>
</trkpt>
<trkpt lat="43.154358" lon="19.122355">
<ele>1452.172852</ele>
<time>2012-05-01T15:12:49Z</time>
<desc>lat.=43.154358, lon.=19.122355, Alt.=1452.172852m. Speed=0.036000m/h.</desc>
<speed>0.010000</speed>
</trkpt>
<trkpt lat="43.154358" lon="19.122356">
<ele>1452.141602</ele>
<time>2012-05-01T15:12:54Z</time>
<desc>lat.=43.154358, lon.=19.122356, Alt.=1452.141602m. Speed=0.000000m/h.</desc>
<speed>0.000000</speed>
</trkpt>
<trkpt lat="43.154362" lon="19.122356">
<ele>1452.079102</ele>
<time>2012-05-01T15:12:59Z</time>
<desc>lat.=43.154362, lon.=19.122356, Alt.=1452.079102m. Speed=0.036000m/h.</desc>
<speed>0.010000</speed>
</trkpt>
<trkpt lat="43.154362" lon="19.122356">
<ele>1452.047852</ele>
<time>2012-05-01T15:13:04Z</time>
<desc>lat.=43.154362, lon.=19.122356, Alt.=1452.047852m. Speed=0.036000m/h.</desc>
<speed>0.010000</speed>
</trkpt>
<trkpt lat="43.154362" lon="19.122356">
<ele>1452.016602</ele>
<time>2012-05-01T15:13:09Z</time>
<desc>lat.=43.154362, lon.=19.122356, Alt.=1452.016602m. Speed=0.000000m/h.</desc>
<speed>0.000000</speed>
</trkpt>
<trkpt lat="43.154362" lon="19.122356">
<ele>1451.985352</ele>
<time>2012-05-01T15:13:14Z</time>
<desc>lat.=43.154362, lon.=19.122356, Alt.=1451.985352m. Speed=0.000000m/h.</desc>
<speed>0.000000</speed>
</trkpt>
<trkpt lat="43.154362" lon="19.122356">
<ele>1451.954102</ele>
<time>2012-05-01T15:13:19Z</time>
<desc>lat.=43.154362, lon.=19.122356, Alt.=1451.954102m. Speed=0.036000m/h.</desc>
<speed>0.010000</speed>
</trkpt>
<trkpt lat="43.154362" lon="19.122356">
<ele>1451.922852</ele>
<time>2012-05-01T15:13:24Z</time>
<desc>lat.=43.154362, lon.=19.122356, Alt.=1451.922852m. Speed=0.036000m/h.</desc>
<speed>0.010000</speed>
</trkpt>
<trkpt lat="43.154362" lon="19.122358">
<ele>1451.891602</ele>
<time>2012-05-01T15:13:29Z</time>
<desc>lat.=43.154362, lon.=19.122358, Alt.=1451.891602m. Speed=0.072000m/h.</desc>
<speed>0.020000</speed>
</trkpt>
<trkpt lat="43.154358" lon="19.122358">
<ele>1451.860352</ele>
<time>2012-05-01T15:13:34Z</time>
<desc>lat.=43.154358, lon.=19.122358, Alt.=1451.860352m. Speed=0.072000m/h.</desc>
<speed>0.020000</speed>
</trkpt>
<trkpt lat="43.154358" lon="19.122358">
<ele>1451.891602</ele>
<time>2012-05-01T15:13:39Z</time>
<desc>lat.=43.154358, lon.=19.122358, Alt.=1451.891602m. Speed=0.036000m/h.</desc>
<speed>0.010000</speed>
</trkpt>
<trkpt lat="43.154358" lon="19.122358">
<ele>1451.860352</ele>
<time>2012-05-01T15:13:44Z</time>
<desc>lat.=43.154358, lon.=19.122358, Alt.=1451.860352m. Speed=0.000000m/h.</desc>
<speed>0.000000</speed>
</trkpt>
<trkpt lat="43.154358" lon="19.122358">
<ele>1451.860352</ele>
<time>2012-05-01T15:13:49Z</time>
<desc>lat.=43.154358, lon.=19.122358, Alt.=1451.860352m. Speed=0.000000m/h.</desc>
<speed>0.000000</speed>
</trkpt>
<trkpt lat="43.154358" lon="19.122358">
<ele>1451.860352</ele>
<time>2012-05-01T15:13:54Z</time>
<desc>lat.=43.154358, lon.=19.122358, Alt.=1451.860352m. Speed=0.000000m/h.</desc>
<speed>0.000000</speed>
</trkpt>
<trkpt lat="43.154358" lon="19.122358">
<ele>1451.860352</ele>
<time>2012-05-01T15:13:59Z</time>
<desc>lat.=43.154358, lon.=19.122358, Alt.=1451.860352m. Speed=0.036000m/h.</desc>
<speed>0.010000</speed>
</trkpt>
<trkpt lat="43.154358" lon="19.122356">
<ele>1451.829102</ele>
<time>2012-05-01T15:14:04Z</time>
<desc>lat.=43.154358, lon.=19.122356, Alt.=1451.829102m. Speed=0.036000m/h.</desc>
<speed>0.010000</speed>
</trkpt>
<trkpt lat="43.154358" lon="19.122356">
<ele>1451.766602</ele>
<time>2012-05-01T15:14:09Z</time>
<desc>lat.=43.154358, lon.=19.122356, Alt.=1451.766602m. Speed=0.000000m/h.</desc>
<speed>0.000000</speed>
</trkpt>
<trkpt lat="43.154358" lon="19.122356">
<ele>1451.704102</ele>
<time>2012-05-01T15:14:14Z</time>
<desc>lat.=43.154358, lon.=19.122356, Alt.=1451.704102m. Speed=0.036000m/h.</desc>
<speed>0.010000</speed>
</trkpt>
<trkpt lat="43.154358" lon="19.122356">
<ele>1451.641602</ele>
<time>2012-05-01T15:14:19Z</time>
<desc>lat.=43.154358, lon.=19.122356, Alt.=1451.641602m. Speed=0.000000m/h.</desc>
<speed>0.000000</speed>
</trkpt>
<trkpt lat="43.154358" lon="19.122356">
<ele>1451.610352</ele>
<time>2012-05-01T15:14:24Z</time>
<desc>lat.=43.154358, lon.=19.122356, Alt.=1451.610352m. Speed=0.072000m/h.</desc>
<speed>0.020000</speed>
</trkpt>
<trkpt lat="43.154358" lon="19.122356">
<ele>1451.641602</ele>
<time>2012-05-01T15:14:29Z</time>
<desc>lat.=43.154358, lon.=19.122356, Alt.=1451.641602m. Speed=0.000000m/h.</desc>
<speed>0.000000</speed>
</trkpt>
<trkpt lat="43.154358" lon="19.122356">
<ele>1451.704102</ele>
<time>2012-05-01T15:14:34Z</time>
<desc>lat.=43.154358, lon.=19.122356, Alt.=1451.704102m. Speed=0.000000m/h.</desc>
<speed>0.000000</speed>
</trkpt>
<trkpt lat="43.154358" lon="19.122356">
<ele>1451.735352</ele>
<time>2012-05-01T15:14:39Z</time>
<desc>lat.=43.154358, lon.=19.122356, Alt.=1451.735352m. Speed=0.000000m/h.</desc>
<speed>0.000000</speed>
</trkpt>
<trkpt lat="43.154358" lon="19.122356">
<ele>1451.766602</ele>
<time>2012-05-01T15:14:44Z</time>
<desc>lat.=43.154358, lon.=19.122356, Alt.=1451.766602m. Speed=0.036000m/h.</desc>
<speed>0.010000</speed>
</trkpt>
<trkpt lat="43.154358" lon="19.122356">
<ele>1451.735352</ele>
<time>2012-05-01T15:14:49Z</time>
<desc>lat.=43.154358, lon.=19.122356, Alt.=1451.735352m. Speed=0.036000m/h.</desc>
<speed>0.010000</speed>
</trkpt>
<trkpt lat="43.154358" lon="19.122356">
<ele>1451.735352</ele>
<time>2012-05-01T15:14:54Z</time>
<desc>lat.=43.154358, lon.=19.122356, Alt.=1451.735352m. Speed=0.000000m/h.</desc>
<speed>0.000000</speed>
</trkpt>
<trkpt lat="43.154358" lon="19.122356">
<ele>1451.735352</ele>
<time>2012-05-01T15:14:59Z</time>
<desc>lat.=43.154358, lon.=19.122356, Alt.=1451.735352m. Speed=0.000000m/h.</desc>
<speed>0.000000</speed>
</trkpt>
<trkpt lat="43.154358" lon="19.122356">
<ele>1451.704102</ele>
<time>2012-05-01T15:15:04Z</time>
<desc>lat.=43.154358, lon.=19.122356, Alt.=1451.704102m. Speed=0.000000m/h.</desc>
<speed>0.000000</speed>
</trkpt>
<trkpt lat="43.154358" lon="19.122356">
<ele>1451.704102</ele>
<time>2012-05-01T15:15:09Z</time>
<desc>lat.=43.154358, lon.=19.122356, Alt.=1451.704102m. Speed=0.000000m/h.</desc>
<speed>0.000000</speed>
</trkpt>
<trkpt lat="43.154358" lon="19.122356">
<ele>1451.704102</ele>
<time>2012-05-01T15:15:14Z</time>
<desc>lat.=43.154358, lon.=19.122356, Alt.=1451.704102m. Speed=0.000000m/h.</desc>
<speed>0.000000</speed>
</trkpt>
<trkpt lat="43.154358" lon="19.122356">
<ele>1451.704102</ele>
<time>2012-05-01T15:15:19Z</time>
<desc>lat.=43.154358, lon.=19.122356, Alt.=1451.704102m. Speed=0.000000m/h.</desc>
<speed>0.000000</speed>
</trkpt>
<trkpt lat="43.154358" lon="19.122356">
<ele>1451.704102</ele>
<time>2012-05-01T15:15:24Z</time>
<desc>lat.=43.154358, lon.=19.122356, Alt.=1451.704102m. Speed=0.000000m/h.</desc>
<speed>0.000000</speed>
</trkpt>
<trkpt lat="43.154358" lon="19.122356">
<ele>1451.704102</ele>
<time>2012-05-01T15:15:29Z</time>
<desc>lat.=43.154358, lon.=19.122356, Alt.=1451.704102m. Speed=0.000000m/h.</desc>
<speed>0.000000</speed>
</trkpt>
<trkpt lat="43.154358" lon="19.122356">
<ele>1451.766602</ele>
<time>2012-05-01T15:15:34Z</time>
<desc>lat.=43.154358, lon.=19.122356, Alt.=1451.766602m. Speed=0.000000m/h.</desc>
<speed>0.000000</speed>
</trkpt>
<trkpt lat="43.154358" lon="19.122356">
<ele>1451.766602</ele>
<time>2012-05-01T15:15:39Z</time>
<desc>lat.=43.154358, lon.=19.122356, Alt.=1451.766602m. Speed=0.000000m/h.</desc>
<speed>0.000000</speed>
</trkpt>
<trkpt lat="43.154358" lon="19.122356">
<ele>1451.829102</ele>
<time>2012-05-01T15:15:44Z</time>
<desc>lat.=43.154358, lon.=19.122356, Alt.=1451.829102m. Speed=0.000000m/h.</desc>
<speed>0.000000</speed>
</trkpt>
<trkpt lat="43.154358" lon="19.122356">
<ele>1451.891602</ele>
<time>2012-05-01T15:15:49Z</time>
<desc>lat.=43.154358, lon.=19.122356, Alt.=1451.891602m. Speed=0.000000m/h.</desc>
<speed>0.000000</speed>
</trkpt>
<trkpt lat="43.154354" lon="19.122355">
<ele>1451.922852</ele>
<time>2012-05-01T15:15:54Z</time>
<desc>lat.=43.154354, lon.=19.122355, Alt.=1451.922852m. Speed=0.000000m/h.</desc>
<speed>0.000000</speed>
</trkpt>
<trkpt lat="43.154354" lon="19.122355">
<ele>1451.954102</ele>
<time>2012-05-01T15:15:59Z</time>
<desc>lat.=43.154354, lon.=19.122355, Alt.=1451.954102m. Speed=0.036000m/h.</desc>
<speed>0.010000</speed>
</trkpt>
<trkpt lat="43.154354" lon="19.122355">
<ele>1451.985352</ele>
<time>2012-05-01T15:16:04Z</time>
<desc>lat.=43.154354, lon.=19.122355, Alt.=1451.985352m. Speed=0.000000m/h.</desc>
<speed>0.000000</speed>
</trkpt>
<trkpt lat="43.154354" lon="19.122355">
<ele>1452.016602</ele>
<time>2012-05-01T15:16:09Z</time>
<desc>lat.=43.154354, lon.=19.122355, Alt.=1452.016602m. Speed=0.000000m/h.</desc>
<speed>0.000000</speed>
</trkpt>
<trkpt lat="43.154354" lon="19.122353">
<ele>1452.047852</ele>
<time>2012-05-01T15:16:14Z</time>
<desc>lat.=43.154354, lon.=19.122353, Alt.=1452.047852m. Speed=0.036000m/h.</desc>
<speed>0.010000</speed>
</trkpt>
<trkpt lat="43.154354" lon="19.122353">
<ele>1452.110352</ele>
<time>2012-05-01T15:16:19Z</time>
<desc>lat.=43.154354, lon.=19.122353, Alt.=1452.110352m. Speed=0.036000m/h.</desc>
<speed>0.010000</speed>
</trkpt>
<trkpt lat="43.154354" lon="19.122353">
<ele>1452.141602</ele>
<time>2012-05-01T15:16:24Z</time>
<desc>lat.=43.154354, lon.=19.122353, Alt.=1452.141602m. Speed=0.036000m/h.</desc>
<speed>0.010000</speed>
</trkpt>
<trkpt lat="43.154354" lon="19.122353">
<ele>1452.110352</ele>
<time>2012-05-01T15:16:29Z</time>
<desc>lat.=43.154354, lon.=19.122353, Alt.=1452.110352m. Speed=0.000000m/h.</desc>
<speed>0.000000</speed>
</trkpt>
<trkpt lat="43.154354" lon="19.122353">
<ele>1452.079102</ele>
<time>2012-05-01T15:16:34Z</time>
<desc>lat.=43.154354, lon.=19.122353, Alt.=1452.079102m. Speed=0.036000m/h.</desc>
<speed>0.010000</speed>
</trkpt>
<trkpt lat="43.154354" lon="19.122353">
<ele>1452.079102</ele>
<time>2012-05-01T15:16:39Z</time>
<desc>lat.=43.154354, lon.=19.122353, Alt.=1452.079102m. Speed=0.036000m/h.</desc>
<speed>0.010000</speed>
</trkpt>
<trkpt lat="43.154354" lon="19.122353">
<ele>1452.110352</ele>
<time>2012-05-01T15:16:44Z</time>
<desc>lat.=43.154354, lon.=19.122353, Alt.=1452.110352m. Speed=0.036000m/h.</desc>
<speed>0.010000</speed>
</trkpt>
<trkpt lat="43.154354" lon="19.122353">
<ele>1452.172852</ele>
<time>2012-05-01T15:16:49Z</time>
<desc>lat.=43.154354, lon.=19.122353, Alt.=1452.172852m. Speed=0.036000m/h.</desc>
<speed>0.010000</speed>
</trkpt>
<trkpt lat="43.154350" lon="19.122353">
<ele>1452.172852</ele>
<time>2012-05-01T15:16:54Z</time>
<desc>lat.=43.154350, lon.=19.122353, Alt.=1452.172852m. Speed=0.036000m/h.</desc>
<speed>0.010000</speed>
</trkpt>
<trkpt lat="43.154350" lon="19.122353">
<ele>1452.141602</ele>
<time>2012-05-01T15:16:59Z</time>
<desc>lat.=43.154350, lon.=19.122353, Alt.=1452.141602m. Speed=0.036000m/h.</desc>
<speed>0.010000</speed>
</trkpt>
<trkpt lat="43.154350" lon="19.122353">
<ele>1452.110352</ele>
<time>2012-05-01T15:17:04Z</time>
<desc>lat.=43.154350, lon.=19.122353, Alt.=1452.110352m. Speed=0.036000m/h.</desc>
<speed>0.010000</speed>
</trkpt>
<trkpt lat="43.154350" lon="19.122353">
<ele>1452.110352</ele>
<time>2012-05-01T15:17:09Z</time>
<desc>lat.=43.154350, lon.=19.122353, Alt.=1452.110352m. Speed=0.036000m/h.</desc>
<speed>0.010000</speed>
</trkpt>
<trkpt lat="43.154350" lon="19.122353">
<ele>1452.141602</ele>
<time>2012-05-01T15:17:14Z</time>
<desc>lat.=43.154350, lon.=19.122353, Alt.=1452.141602m. Speed=0.036000m/h.</desc>
<speed>0.010000</speed>
</trkpt>
<trkpt lat="43.154350" lon="19.122353">
<ele>1452.172852</ele>
<time>2012-05-01T15:17:19Z</time>
<desc>lat.=43.154350, lon.=19.122353, Alt.=1452.172852m. Speed=0.000000m/h.</desc>
<speed>0.000000</speed>
</trkpt>
<trkpt lat="43.154350" lon="19.122353">
<ele>1452.235352</ele>
<time>2012-05-01T15:17:24Z</time>
<desc>lat.=43.154350, lon.=19.122353, Alt.=1452.235352m. Speed=0.000000m/h.</desc>
<speed>0.000000</speed>
</trkpt>
<trkpt lat="43.154350" lon="19.122351">
<ele>1452.266602</ele>
<time>2012-05-01T15:17:29Z</time>
<desc>lat.=43.154350, lon.=19.122351, Alt.=1452.266602m. Speed=0.036000m/h.</desc>
<speed>0.010000</speed>
</trkpt>
<trkpt lat="43.154350" lon="19.122351">
<ele>1452.297852</ele>
<time>2012-05-01T15:17:34Z</time>
<desc>lat.=43.154350, lon.=19.122351, Alt.=1452.297852m. Speed=0.036000m/h.</desc>
<speed>0.010000</speed>
</trkpt>
<trkpt lat="43.154350" lon="19.122351">
<ele>1452.266602</ele>
<time>2012-05-01T15:17:39Z</time>
<desc>lat.=43.154350, lon.=19.122351, Alt.=1452.266602m. Speed=0.000000m/h.</desc>
<speed>0.000000</speed>
</trkpt>
<trkpt lat="43.154350" lon="19.122351">
<ele>1452.266602</ele>
<time>2012-05-01T15:17:44Z</time>
<desc>lat.=43.154350, lon.=19.122351, Alt.=1452.266602m. Speed=0.036000m/h.</desc>
<speed>0.010000</speed>
</trkpt>
<trkpt lat="43.154350" lon="19.122351">
<ele>1452.266602</ele>
<time>2012-05-01T15:17:49Z</time>
<desc>lat.=43.154350, lon.=19.122351, Alt.=1452.266602m. Speed=0.000000m/h.</desc>
<speed>0.000000</speed>
</trkpt>
<trkpt lat="43.154350" lon="19.122349">
<ele>1452.297852</ele>
<time>2012-05-01T15:17:54Z</time>
<desc>lat.=43.154350, lon.=19.122349, Alt.=1452.297852m. Speed=0.000000m/h.</desc>
<speed>0.000000</speed>
</trkpt>
<trkpt lat="43.154346" lon="19.122349">
<ele>1452.329102</ele>
<time>2012-05-01T15:17:59Z</time>
<desc>lat.=43.154346, lon.=19.122349, Alt.=1452.329102m. Speed=0.036000m/h.</desc>
<speed>0.010000</speed>
</trkpt>
<trkpt lat="43.154346" lon="19.122349">
<ele>1452.360352</ele>
<time>2012-05-01T15:18:04Z</time>
<desc>lat.=43.154346, lon.=19.122349, Alt.=1452.360352m. Speed=0.000000m/h.</desc>
<speed>0.000000</speed>
</trkpt>
<trkpt lat="43.154346" lon="19.122349">
<ele>1452.360352</ele>
<time>2012-05-01T15:18:09Z</time>
<desc>lat.=43.154346, lon.=19.122349, Alt.=1452.360352m. Speed=0.000000m/h.</desc>
<speed>0.000000</speed>
</trkpt>
<trkpt lat="43.154346" lon="19.122349">
<ele>1452.329102</ele>
<time>2012-05-01T15:18:14Z</time>
<desc>lat.=43.154346, lon.=19.122349, Alt.=1452.329102m. Speed=0.036000m/h.</desc>
<speed>0.010000</speed>
</trkpt>
<trkpt lat="43.154346" lon="19.122349">
<ele>1452.329102</ele>
<time>2012-05-01T15:18:19Z</time>
<desc>lat.=43.154346, lon.=19.122349, Alt.=1452.329102m. Speed=0.000000m/h.</desc>
<speed>0.000000</speed>
</trkpt>
<trkpt lat="43.154346" lon="19.122349">
<ele>1452.329102</ele>
<time>2012-05-01T15:18:24Z</time>
<desc>lat.=43.154346, lon.=19.122349, Alt.=1452.329102m. Speed=0.000000m/h.</desc>
<speed>0.000000</speed>
</trkpt>
<trkpt lat="43.154346" lon="19.122349">
<ele>1452.391602</ele>
<time>2012-05-01T15:18:29Z</time>
<desc>lat.=43.154346, lon.=19.122349, Alt.=1452.391602m. Speed=0.000000m/h.</desc>
<speed>0.000000</speed>
</trkpt>
<trkpt lat="43.154346" lon="19.122347">
<ele>1452.391602</ele>
<time>2012-05-01T15:18:34Z</time>
<desc>lat.=43.154346, lon.=19.122347, Alt.=1452.391602m. Speed=0.000000m/h.</desc>
<speed>0.000000</speed>
</trkpt>
<trkpt lat="43.154346" lon="19.122347">
<ele>1452.454102</ele>
<time>2012-05-01T15:18:39Z</time>
<desc>lat.=43.154346, lon.=19.122347, Alt.=1452.454102m. Speed=0.036000m/h.</desc>
<speed>0.010000</speed>
</trkpt>
<trkpt lat="43.154346" lon="19.122347">
<ele>1452.516602</ele>
<time>2012-05-01T15:18:44Z</time>
<desc>lat.=43.154346, lon.=19.122347, Alt.=1452.516602m. Speed=0.036000m/h.</desc>
<speed>0.010000</speed>
</trkpt>
<trkpt lat="43.154346" lon="19.122347">
<ele>1452.579102</ele>
<time>2012-05-01T15:18:49Z</time>
<desc>lat.=43.154346, lon.=19.122347, Alt.=1452.579102m. Speed=0.000000m/h.</desc>
<speed>0.000000</speed>
</trkpt>
<trkpt lat="43.154346" lon="19.122345">
<ele>1452.579102</ele>
<time>2012-05-01T15:18:54Z</time>
<desc>lat.=43.154346, lon.=19.122345, Alt.=1452.579102m. Speed=0.036000m/h.</desc>
<speed>0.010000</speed>
</trkpt>
<trkpt lat="43.154346" lon="19.122345">
<ele>1452.641602</ele>
<time>2012-05-01T15:18:59Z</time>
<desc>lat.=43.154346, lon.=19.122345, Alt.=1452.641602m. Speed=0.036000m/h.</desc>
<speed>0.010000</speed>
</trkpt>
<trkpt lat="43.154346" lon="19.122343">
<ele>1452.672852</ele>
<time>2012-05-01T15:19:04Z</time>
<desc>lat.=43.154346, lon.=19.122343, Alt.=1452.672852m. Speed=0.036000m/h.</desc>
<speed>0.010000</speed>
</trkpt>
<trkpt lat="43.154346" lon="19.122343">
<ele>1452.735352</ele>
<time>2012-05-01T15:19:09Z</time>
<desc>lat.=43.154346, lon.=19.122343, Alt.=1452.735352m. Speed=0.000000m/h.</desc>
<speed>0.000000</speed>
</trkpt>
<trkpt lat="43.154346" lon="19.122343">
<ele>1452.766602</ele>
<time>2012-05-01T15:19:14Z</time>
<desc>lat.=43.154346, lon.=19.122343, Alt.=1452.766602m. Speed=0.000000m/h.</desc>
<speed>0.000000</speed>
</trkpt>
<trkpt lat="43.154346" lon="19.122343">
<ele>1452.797852</ele>
<time>2012-05-01T15:19:19Z</time>
<desc>lat.=43.154346, lon.=19.122343, Alt.=1452.797852m. Speed=0.000000m/h.</desc>
<speed>0.000000</speed>
</trkpt>
<trkpt lat="43.154346" lon="19.122343">
<ele>1452.829102</ele>
<time>2012-05-01T15:19:24Z</time>
<desc>lat.=43.154346, lon.=19.122343, Alt.=1452.829102m. Speed=0.000000m/h.</desc>
<speed>0.000000</speed>
</trkpt>
<trkpt lat="43.154346" lon="19.122343">
<ele>1452.891602</ele>
<time>2012-05-01T15:19:29Z</time>
<desc>lat.=43.154346, lon.=19.122343, Alt.=1452.891602m. Speed=0.000000m/h.</desc>
<speed>0.000000</speed>
</trkpt>
<trkpt lat="43.154343" lon="19.122341">
<ele>1452.954102</ele>
<time>2012-05-01T15:19:34Z</time>
<desc>lat.=43.154343, lon.=19.122341, Alt.=1452.954102m. Speed=0.036000m/h.</desc>
<speed>0.010000</speed>
</trkpt>
<trkpt lat="43.154343" lon="19.122341">
<ele>1453.047852</ele>
<time>2012-05-01T15:19:39Z</time>
<desc>lat.=43.154343, lon.=19.122341, Alt.=1453.047852m. Speed=0.036000m/h.</desc>
<speed>0.010000</speed>
</trkpt>
<trkpt lat="43.154343" lon="19.122341">
<ele>1453.110352</ele>
<time>2012-05-01T15:19:44Z</time>
<desc>lat.=43.154343, lon.=19.122341, Alt.=1453.110352m. Speed=0.036000m/h.</desc>
<speed>0.010000</speed>
</trkpt>
<trkpt lat="43.154343" lon="19.122339">
<ele>1453.110352</ele>
<time>2012-05-01T15:19:49Z</time>
<desc>lat.=43.154343, lon.=19.122339, Alt.=1453.110352m. Speed=0.036000m/h.</desc>
<speed>0.010000</speed>
</trkpt>
<trkpt lat="43.154343" lon="19.122339">
<ele>1453.110352</ele>
<time>2012-05-01T15:19:54Z</time>
<desc>lat.=43.154343, lon.=19.122339, Alt.=1453.110352m. Speed=0.036000m/h.</desc>
<speed>0.010000</speed>
</trkpt>
<trkpt lat="43.154343" lon="19.122339">
<ele>1453.110352</ele>
<time>2012-05-01T15:19:59Z</time>
<desc>lat.=43.154343, lon.=19.122339, Alt.=1453.110352m. Speed=0.000000m/h.</desc>
<speed>0.000000</speed>
</trkpt>
<trkpt lat="43.154343" lon="19.122341">
<ele>1453.141602</ele>
<time>2012-05-01T15:20:04Z</time>
<desc>lat.=43.154343, lon.=19.122341, Alt.=1453.141602m. Speed=0.072000m/h.</desc>
<speed>0.020000</speed>
</trkpt>
<trkpt lat="43.154343" lon="19.122339">
<ele>1453.172852</ele>
<time>2012-05-01T15:20:09Z</time>
<desc>lat.=43.154343, lon.=19.122339, Alt.=1453.172852m. Speed=0.036000m/h.</desc>
<speed>0.010000</speed>
</trkpt>
<trkpt lat="43.154343" lon="19.122339">
<ele>1453.204102</ele>
<time>2012-05-01T15:20:14Z</time>
<desc>lat.=43.154343, lon.=19.122339, Alt.=1453.204102m. Speed=0.000000m/h.</desc>
<speed>0.000000</speed>
</trkpt>
<trkpt lat="43.154343" lon="19.122339">
<ele>1453.204102</ele>
<time>2012-05-01T15:20:19Z</time>
<desc>lat.=43.154343, lon.=19.122339, Alt.=1453.204102m. Speed=0.000000m/h.</desc>
<speed>0.000000</speed>
</trkpt>
<trkpt lat="43.154343" lon="19.122339">
<ele>1453.204102</ele>
<time>2012-05-01T15:20:24Z</time>
<desc>lat.=43.154343, lon.=19.122339, Alt.=1453.204102m. Speed=0.036000m/h.</desc>
<speed>0.010000</speed>
</trkpt>
<trkpt lat="43.154343" lon="19.122339">
<ele>1453.204102</ele>
<time>2012-05-01T15:20:29Z</time>
<desc>lat.=43.154343, lon.=19.122339, Alt.=1453.204102m. Speed=0.000000m/h.</desc>
<speed>0.000000</speed>
</trkpt>
<trkpt lat="43.154343" lon="19.122339">
<ele>1453.235352</ele>
<time>2012-05-01T15:20:34Z</time>
<desc>lat.=43.154343, lon.=19.122339, Alt.=1453.235352m. Speed=0.036000m/h.</desc>
<speed>0.010000</speed>
</trkpt>
<trkpt lat="43.154343" lon="19.122337">
<ele>1453.204102</ele>
<time>2012-05-01T15:20:39Z</time>
<desc>lat.=43.154343, lon.=19.122337, Alt.=1453.204102m. Speed=0.036000m/h.</desc>
<speed>0.010000</speed>
</trkpt>
<trkpt lat="43.154343" lon="19.122337">
<ele>1453.235352</ele>
<time>2012-05-01T15:20:44Z</time>
<desc>lat.=43.154343, lon.=19.122337, Alt.=1453.235352m. Speed=0.036000m/h.</desc>
<speed>0.010000</speed>
</trkpt>
<trkpt lat="43.154343" lon="19.122335">
<ele>1453.266602</ele>
<time>2012-05-01T15:20:49Z</time>
<desc>lat.=43.154343, lon.=19.122335, Alt.=1453.266602m. Speed=0.036000m/h.</desc>
<speed>0.010000</speed>
</trkpt>
<trkpt lat="43.154343" lon="19.122335">
<ele>1453.329102</ele>
<time>2012-05-01T15:20:54Z</time>
<desc>lat.=43.154343, lon.=19.122335, Alt.=1453.329102m. Speed=0.036000m/h.</desc>
<speed>0.010000</speed>
</trkpt>
<trkpt lat="43.154343" lon="19.122335">
<ele>1453.360352</ele>
<time>2012-05-01T15:20:59Z</time>
<desc>lat.=43.154343, lon.=19.122335, Alt.=1453.360352m. Speed=0.000000m/h.</desc>
<speed>0.000000</speed>
</trkpt>
<trkpt lat="43.154343" lon="19.122334">
<ele>1453.454102</ele>
<time>2012-05-01T15:21:04Z</time>
<desc>lat.=43.154343, lon.=19.122334, Alt.=1453.454102m. Speed=0.000000m/h.</desc>
<speed>0.000000</speed>
</trkpt>
<trkpt lat="43.154343" lon="19.122334">
<ele>1453.516602</ele>
<time>2012-05-01T15:21:09Z</time>
<desc>lat.=43.154343, lon.=19.122334, Alt.=1453.516602m. Speed=0.036000m/h.</desc>
<speed>0.010000</speed>
</trkpt>
<trkpt lat="43.154343" lon="19.122334">
<ele>1453.547852</ele>
<time>2012-05-01T15:21:14Z</time>
<desc>lat.=43.154343, lon.=19.122334, Alt.=1453.547852m. Speed=0.036000m/h.</desc>
<speed>0.010000</speed>
</trkpt>
<trkpt lat="43.154343" lon="19.122334">
<ele>1453.579102</ele>
<time>2012-05-01T15:21:19Z</time>
<desc>lat.=43.154343, lon.=19.122334, Alt.=1453.579102m. Speed=0.000000m/h.</desc>
<speed>0.000000</speed>
</trkpt>
<trkpt lat="43.154339" lon="19.122332">
<ele>1453.579102</ele>
<time>2012-05-01T15:21:24Z</time>
<desc>lat.=43.154339, lon.=19.122332, Alt.=1453.579102m. Speed=0.036000m/h.</desc>
<speed>0.010000</speed>
</trkpt>
<trkpt lat="43.154339" lon="19.122332">
<ele>1453.610352</ele>
<time>2012-05-01T15:21:29Z</time>
<desc>lat.=43.154339, lon.=19.122332, Alt.=1453.610352m. Speed=0.036000m/h.</desc>
<speed>0.010000</speed>
</trkpt>
<trkpt lat="43.154339" lon="19.122332">
<ele>1453.641602</ele>
<time>2012-05-01T15:21:34Z</time>
<desc>lat.=43.154339, lon.=19.122332, Alt.=1453.641602m. Speed=0.036000m/h.</desc>
<speed>0.010000</speed>
</trkpt>
<trkpt lat="43.154339" lon="19.122332">
<ele>1453.704102</ele>
<time>2012-05-01T15:21:39Z</time>
<desc>lat.=43.154339, lon.=19.122332, Alt.=1453.704102m. Speed=0.036000m/h.</desc>
<speed>0.010000</speed>
</trkpt>
<trkpt lat="43.154339" lon="19.122332">
<ele>1453.735352</ele>
<time>2012-05-01T15:21:44Z</time>
<desc>lat.=43.154339, lon.=19.122332, Alt.=1453.735352m. Speed=0.000000m/h.</desc>
<speed>0.000000</speed>
</trkpt>
<trkpt lat="43.154339" lon="19.122332">
<ele>1453.735352</ele>
<time>2012-05-01T15:21:49Z</time>
<desc>lat.=43.154339, lon.=19.122332, Alt.=1453.735352m. Speed=0.000000m/h.</desc>
<speed>0.000000</speed>
</trkpt>
<trkpt lat="43.154339" lon="19.122332">
<ele>1453.704102</ele>
<time>2012-05-01T15:21:54Z</time>
<desc>lat.=43.154339, lon.=19.122332, Alt.=1453.704102m. Speed=0.072000m/h.</desc>
<speed>0.020000</speed>
</trkpt>
<trkpt lat="43.154339" lon="19.122330">
<ele>1453.704102</ele>
<time>2012-05-01T15:21:59Z</time>
<desc>lat.=43.154339, lon.=19.122330, Alt.=1453.704102m. Speed=0.000000m/h.</desc>
<speed>0.000000</speed>
</trkpt>
<trkpt lat="43.154339" lon="19.122330">
<ele>1453.797852</ele>
<time>2012-05-01T15:22:04Z</time>
<desc>lat.=43.154339, lon.=19.122330, Alt.=1453.797852m. Speed=0.000000m/h.</desc>
<speed>0.000000</speed>
</trkpt>
<trkpt lat="43.154339" lon="19.122328">
<ele>1453.860352</ele>
<time>2012-05-01T15:22:09Z</time>
<desc>lat.=43.154339, lon.=19.122328, Alt.=1453.860352m. Speed=0.036000m/h.</desc>
<speed>0.010000</speed>
</trkpt>
<trkpt lat="43.154339" lon="19.122328">
<ele>1453.891602</ele>
<time>2012-05-01T15:22:14Z</time>
<desc>lat.=43.154339, lon.=19.122328, Alt.=1453.891602m. Speed=0.072000m/h.</desc>
<speed>0.020000</speed>
</trkpt>
<trkpt lat="43.154339" lon="19.122328">
<ele>1453.891602</ele>
<time>2012-05-01T15:22:19Z</time>
<desc>lat.=43.154339, lon.=19.122328, Alt.=1453.891602m. Speed=0.036000m/h.</desc>
<speed>0.010000</speed>
</trkpt>
<trkpt lat="43.154339" lon="19.122326">
<ele>1453.891602</ele>
<time>2012-05-01T15:22:24Z</time>
<desc>lat.=43.154339, lon.=19.122326, Alt.=1453.891602m. Speed=0.072000m/h.</desc>
<speed>0.020000</speed>
</trkpt>
<trkpt lat="43.154339" lon="19.122326">
<ele>1453.860352</ele>
<time>2012-05-01T15:22:29Z</time>
<desc>lat.=43.154339, lon.=19.122326, Alt.=1453.860352m. Speed=0.036000m/h.</desc>
<speed>0.010000</speed>
</trkpt>
<trkpt lat="43.154339" lon="19.122324">
<ele>1453.860352</ele>
<time>2012-05-01T15:22:34Z</time>
<desc>lat.=43.154339, lon.=19.122324, Alt.=1453.860352m. Speed=0.036000m/h.</desc>
<speed>0.010000</speed>
</trkpt>
<trkpt lat="43.154339" lon="19.122324">
<ele>1453.860352</ele>
<time>2012-05-01T15:22:39Z</time>
<desc>lat.=43.154339, lon.=19.122324, Alt.=1453.860352m. Speed=0.000000m/h.</desc>
<speed>0.000000</speed>
</trkpt>
<trkpt lat="43.154339" lon="19.122324">
<ele>1453.860352</ele>
<time>2012-05-01T15:22:44Z</time>
<desc>lat.=43.154339, lon.=19.122324, Alt.=1453.860352m. Speed=0.036000m/h.</desc>
<speed>0.010000</speed>
</trkpt>
<trkpt lat="43.154339" lon="19.122324">
<ele>1453.829102</ele>
<time>2012-05-01T15:22:49Z</time>
<desc>lat.=43.154339, lon.=19.122324, Alt.=1453.829102m. Speed=0.036000m/h.</desc>
<speed>0.010000</speed>
</trkpt>
<trkpt lat="43.154339" lon="19.122322">
<ele>1453.829102</ele>
<time>2012-05-01T15:22:54Z</time>
<desc>lat.=43.154339, lon.=19.122322, Alt.=1453.829102m. Speed=0.036000m/h.</desc>
<speed>0.010000</speed>
</trkpt>
<trkpt lat="43.154339" lon="19.122322">
<ele>1453.797852</ele>
<time>2012-05-01T15:22:59Z</time>
<desc>lat.=43.154339, lon.=19.122322, Alt.=1453.797852m. Speed=0.072000m/h.</desc>
<speed>0.020000</speed>
</trkpt>
<trkpt lat="43.154339" lon="19.122320">
<ele>1453.766602</ele>
<time>2012-05-01T15:23:04Z</time>
<desc>lat.=43.154339, lon.=19.122320, Alt.=1453.766602m. Speed=0.036000m/h.</desc>
<speed>0.010000</speed>
</trkpt>
<trkpt lat="43.154339" lon="19.122320">
<ele>1453.735352</ele>
<time>2012-05-01T15:23:09Z</time>
<desc>lat.=43.154339, lon.=19.122320, Alt.=1453.735352m. Speed=0.000000m/h.</desc>
<speed>0.000000</speed>
</trkpt>
<trkpt lat="43.154339" lon="19.122320">
<ele>1453.735352</ele>
<time>2012-05-01T15:23:14Z</time>
<desc>lat.=43.154339, lon.=19.122320, Alt.=1453.735352m. Speed=0.036000m/h.</desc>
<speed>0.010000</speed>
</trkpt>
<trkpt lat="43.154339" lon="19.122318">
<ele>1453.704102</ele>
<time>2012-05-01T15:23:19Z</time>
<desc>lat.=43.154339, lon.=19.122318, Alt.=1453.704102m. Speed=0.072000m/h.</desc>
<speed>0.020000</speed>
</trkpt>
<trkpt lat="43.154339" lon="19.122318">
<ele>1453.672852</ele>
<time>2012-05-01T15:23:24Z</time>
<desc>lat.=43.154339, lon.=19.122318, Alt.=1453.672852m. Speed=0.072000m/h.</desc>
<speed>0.020000</speed>
</trkpt>
<trkpt lat="43.154339" lon="19.122316">
<ele>1453.610352</ele>
<time>2012-05-01T15:23:29Z</time>
<desc>lat.=43.154339, lon.=19.122316, Alt.=1453.610352m. Speed=0.108000m/h.</desc>
<speed>0.030000</speed>
</trkpt>
<trkpt lat="43.154339" lon="19.122316">
<ele>1453.547852</ele>
<time>2012-05-01T15:23:34Z</time>
<desc>lat.=43.154339, lon.=19.122316, Alt.=1453.547852m. Speed=0.108000m/h.</desc>
<speed>0.030000</speed>
</trkpt>
<trkpt lat="43.154339" lon="19.122314">
<ele>1453.485352</ele>
<time>2012-05-01T15:23:39Z</time>
<desc>lat.=43.154339, lon.=19.122314, Alt.=1453.485352m. Speed=0.000000m/h.</desc>
<speed>0.000000</speed>
</trkpt>
<trkpt lat="43.154339" lon="19.122314">
<ele>1453.454102</ele>
<time>2012-05-01T15:23:44Z</time>
<desc>lat.=43.154339, lon.=19.122314, Alt.=1453.454102m. Speed=0.000000m/h.</desc>
<speed>0.000000</speed>
</trkpt>
<trkpt lat="43.154339" lon="19.122314">
<ele>1453.422852</ele>
<time>2012-05-01T15:23:49Z</time>
<desc>lat.=43.154339, lon.=19.122314, Alt.=1453.422852m. Speed=0.000000m/h.</desc>
<speed>0.000000</speed>
</trkpt>
<trkpt lat="43.154339" lon="19.122314">
<ele>1453.422852</ele>
<time>2012-05-01T15:23:54Z</time>
<desc>lat.=43.154339, lon.=19.122314, Alt.=1453.422852m. Speed=0.108000m/h.</desc>
<speed>0.030000</speed>
</trkpt>
<trkpt lat="43.154339" lon="19.122313">
<ele>1453.360352</ele>
<time>2012-05-01T15:23:59Z</time>
<desc>lat.=43.154339, lon.=19.122313, Alt.=1453.360352m. Speed=0.000000m/h.</desc>
<speed>0.000000</speed>
</trkpt>
<trkpt lat="43.154339" lon="19.122313">
<ele>1453.266602</ele>
<time>2012-05-01T15:24:04Z</time>
<desc>lat.=43.154339, lon.=19.122313, Alt.=1453.266602m. Speed=0.036000m/h.</desc>
<speed>0.010000</speed>
</trkpt>
<trkpt lat="43.154339" lon="19.122313">
<ele>1453.204102</ele>
<time>2012-05-01T15:24:09Z</time>
<desc>lat.=43.154339, lon.=19.122313, Alt.=1453.204102m. Speed=0.072000m/h.</desc>
<speed>0.020000</speed>
</trkpt>
<trkpt lat="43.154339" lon="19.122313">
<ele>1453.235352</ele>
<time>2012-05-01T15:24:14Z</time>
<desc>lat.=43.154339, lon.=19.122313, Alt.=1453.235352m. Speed=0.072000m/h.</desc>
<speed>0.020000</speed>
</trkpt>
<trkpt lat="43.154339" lon="19.122313">
<ele>1453.266602</ele>
<time>2012-05-01T15:24:19Z</time>
<desc>lat.=43.154339, lon.=19.122313, Alt.=1453.266602m. Speed=0.072000m/h.</desc>
<speed>0.020000</speed>
</trkpt>
<trkpt lat="43.154339" lon="19.122314">
<ele>1453.297852</ele>
<time>2012-05-01T15:24:24Z</time>
<desc>lat.=43.154339, lon.=19.122314, Alt.=1453.297852m. Speed=0.036000m/h.</desc>
<speed>0.010000</speed>
</trkpt>
<trkpt lat="43.154335" lon="19.122314">
<ele>1453.235352</ele>
<time>2012-05-01T15:24:29Z</time>
<desc>lat.=43.154335, lon.=19.122314, Alt.=1453.235352m. Speed=0.036000m/h.</desc>
<speed>0.010000</speed>
</trkpt>
<trkpt lat="43.154335" lon="19.122313">
<ele>1453.204102</ele>
<time>2012-05-01T15:24:34Z</time>
<desc>lat.=43.154335, lon.=19.122313, Alt.=1453.204102m. Speed=0.036000m/h.</desc>
<speed>0.010000</speed>
</trkpt>
<trkpt lat="43.154335" lon="19.122313">
<ele>1453.110352</ele>
<time>2012-05-01T15:24:39Z</time>
<desc>lat.=43.154335, lon.=19.122313, Alt.=1453.110352m. Speed=0.036000m/h.</desc>
<speed>0.010000</speed>
</trkpt>
<trkpt lat="43.154335" lon="19.122314">
<ele>1453.079102</ele>
<time>2012-05-01T15:24:44Z</time>
<desc>lat.=43.154335, lon.=19.122314, Alt.=1453.079102m. Speed=0.072000m/h.</desc>
<speed>0.020000</speed>
</trkpt>
<trkpt lat="43.154335" lon="19.122314">
<ele>1453.047852</ele>
<time>2012-05-01T15:24:49Z</time>
<desc>lat.=43.154335, lon.=19.122314, Alt.=1453.047852m. Speed=0.144000m/h.</desc>
<speed>0.040000</speed>
</trkpt>
<trkpt lat="43.154335" lon="19.122316">
<ele>1453.047852</ele>
<time>2012-05-01T15:24:54Z</time>
<desc>lat.=43.154335, lon.=19.122316, Alt.=1453.047852m. Speed=0.036000m/h.</desc>
<speed>0.010000</speed>
</trkpt>
<trkpt lat="43.154335" lon="19.122316">
<ele>1453.016602</ele>
<time>2012-05-01T15:24:59Z</time>
<desc>lat.=43.154335, lon.=19.122316, Alt.=1453.016602m. Speed=0.036000m/h.</desc>
<speed>0.010000</speed>
</trkpt>
<trkpt lat="43.154335" lon="19.122316">
<ele>1452.954102</ele>
<time>2012-05-01T15:25:04Z</time>
<desc>lat.=43.154335, lon.=19.122316, Alt.=1452.954102m. Speed=0.000000m/h.</desc>
<speed>0.000000</speed>
</trkpt>
<trkpt lat="43.154335" lon="19.122316">
<ele>1452.891602</ele>
<time>2012-05-01T15:25:09Z</time>
<desc>lat.=43.154335, lon.=19.122316, Alt.=1452.891602m. Speed=0.036000m/h.</desc>
<speed>0.010000</speed>
</trkpt>
<trkpt lat="43.154335" lon="19.122316">
<ele>1452.829102</ele>
<time>2012-05-01T15:25:14Z</time>
<desc>lat.=43.154335, lon.=19.122316, Alt.=1452.829102m. Speed=0.036000m/h.</desc>
<speed>0.010000</speed>
</trkpt>
<trkpt lat="43.154335" lon="19.122316">
<ele>1452.797852</ele>
<time>2012-05-01T15:25:19Z</time>
<desc>lat.=43.154335, lon.=19.122316, Alt.=1452.797852m. Speed=0.036000m/h.</desc>
<speed>0.010000</speed>
</trkpt>
<trkpt lat="43.154335" lon="19.122316">
<ele>1452.766602</ele>
<time>2012-05-01T15:25:24Z</time>
<desc>lat.=43.154335, lon.=19.122316, Alt.=1452.766602m. Speed=0.072000m/h.</desc>
<speed>0.020000</speed>
</trkpt>
<trkpt lat="43.154335" lon="19.122316">
<ele>1452.766602</ele>
<time>2012-05-01T15:25:29Z</time>
<desc>lat.=43.154335, lon.=19.122316, Alt.=1452.766602m. Speed=0.036000m/h.</desc>
<speed>0.010000</speed>
</trkpt>
<trkpt lat="43.154335" lon="19.122316">
<ele>1452.704102</ele>
<time>2012-05-01T15:25:34Z</time>
<desc>lat.=43.154335, lon.=19.122316, Alt.=1452.704102m. Speed=0.036000m/h.</desc>
<speed>0.010000</speed>
</trkpt>
<trkpt lat="43.154335" lon="19.122314">
<ele>1452.579102</ele>
<time>2012-05-01T15:25:39Z</time>
<desc>lat.=43.154335, lon.=19.122314, Alt.=1452.579102m. Speed=0.072000m/h.</desc>
<speed>0.020000</speed>
</trkpt>
<trkpt lat="43.154335" lon="19.122314">
<ele>1452.485352</ele>
<time>2012-05-01T15:25:44Z</time>
<desc>lat.=43.154335, lon.=19.122314, Alt.=1452.485352m. Speed=0.072000m/h.</desc>
<speed>0.020000</speed>
</trkpt>
<trkpt lat="43.154335" lon="19.122314">
<ele>1452.422852</ele>
<time>2012-05-01T15:25:49Z</time>
<desc>lat.=43.154335, lon.=19.122314, Alt.=1452.422852m. Speed=0.036000m/h.</desc>
<speed>0.010000</speed>
</trkpt>
<trkpt lat="43.154335" lon="19.122314">
<ele>1452.391602</ele>
<time>2012-05-01T15:25:54Z</time>
<desc>lat.=43.154335, lon.=19.122314, Alt.=1452.391602m. Speed=0.036000m/h.</desc>
<speed>0.010000</speed>
</trkpt>
<trkpt lat="43.154339" lon="19.122314">
<ele>1452.360352</ele>
<time>2012-05-01T15:25:59Z</time>
<desc>lat.=43.154339, lon.=19.122314, Alt.=1452.360352m. Speed=0.072000m/h.</desc>
<speed>0.020000</speed>
</trkpt>
<trkpt lat="43.154339" lon="19.122314">
<ele>1452.360352</ele>
<time>2012-05-01T15:26:04Z</time>
<desc>lat.=43.154339, lon.=19.122314, Alt.=1452.360352m. Speed=0.108000m/h.</desc>
<speed>0.030000</speed>
</trkpt>
<trkpt lat="43.154335" lon="19.122314">
<ele>1452.297852</ele>
<time>2012-05-01T15:26:09Z</time>
<desc>lat.=43.154335, lon.=19.122314, Alt.=1452.297852m. Speed=0.216000m/h.</desc>
<speed>0.060000</speed>
</trkpt>
<trkpt lat="43.154335" lon="19.122316">
<ele>1452.235352</ele>
<time>2012-05-01T15:26:14Z</time>
<desc>lat.=43.154335, lon.=19.122316, Alt.=1452.235352m. Speed=0.144000m/h.</desc>
<speed>0.040000</speed>
</trkpt>
<trkpt lat="43.154335" lon="19.122318">
<ele>1452.204102</ele>
<time>2012-05-01T15:26:19Z</time>
<desc>lat.=43.154335, lon.=19.122318, Alt.=1452.204102m. Speed=0.108000m/h.</desc>
<speed>0.030000</speed>
</trkpt>
<trkpt lat="43.154331" lon="19.122318">
<ele>1452.235352</ele>
<time>2012-05-01T15:26:24Z</time>
<desc>lat.=43.154331, lon.=19.122318, Alt.=1452.235352m. Speed=0.036000m/h.</desc>
<speed>0.010000</speed>
</trkpt>
<trkpt lat="43.154331" lon="19.122320">
<ele>1452.266602</ele>
<time>2012-05-01T15:26:29Z</time>
<desc>lat.=43.154331, lon.=19.122320, Alt.=1452.266602m. Speed=0.000000m/h.</desc>
<speed>0.000000</speed>
</trkpt>
<trkpt lat="43.154331" lon="19.122320">
<ele>1452.297852</ele>
<time>2012-05-01T15:26:34Z</time>
<desc>lat.=43.154331, lon.=19.122320, Alt.=1452.297852m. Speed=0.000000m/h.</desc>
<speed>0.000000</speed>
</trkpt>
<trkpt lat="43.154331" lon="19.122320">
<ele>1452.297852</ele>
<time>2012-05-01T15:26:39Z</time>
<desc>lat.=43.154331, lon.=19.122320, Alt.=1452.297852m. Speed=0.000000m/h.</desc>
<speed>0.000000</speed>
</trkpt>
<trkpt lat="43.154331" lon="19.122320">
<ele>1452.266602</ele>
<time>2012-05-01T15:26:44Z</time>
<desc>lat.=43.154331, lon.=19.122320, Alt.=1452.266602m. Speed=0.036000m/h.</desc>
<speed>0.010000</speed>
</trkpt>
<trkpt lat="43.154331" lon="19.122320">
<ele>1452.235352</ele>
<time>2012-05-01T15:26:49Z</time>
<desc>lat.=43.154331, lon.=19.122320, Alt.=1452.235352m. Speed=0.000000m/h.</desc>
<speed>0.000000</speed>
</trkpt>
<trkpt lat="43.154331" lon="19.122320">
<ele>1452.235352</ele>
<time>2012-05-01T15:26:54Z</time>
<desc>lat.=43.154331, lon.=19.122320, Alt.=1452.235352m. Speed=0.036000m/h.</desc>
<speed>0.010000</speed>
</trkpt>
<trkpt lat="43.154335" lon="19.122320">
<ele>1452.204102</ele>
<time>2012-05-01T15:26:59Z</time>
<desc>lat.=43.154335, lon.=19.122320, Alt.=1452.204102m. Speed=0.000000m/h.</desc>
<speed>0.000000</speed>
</trkpt>
<trkpt lat="43.154335" lon="19.122320">
<ele>1452.204102</ele>
<time>2012-05-01T15:27:04Z</time>
<desc>lat.=43.154335, lon.=19.122320, Alt.=1452.204102m. Speed=0.000000m/h.</desc>
<speed>0.000000</speed>
</trkpt>
<trkpt lat="43.154335" lon="19.122320">
<ele>1452.172852</ele>
<time>2012-05-01T15:27:09Z</time>
<desc>lat.=43.154335, lon.=19.122320, Alt.=1452.172852m. Speed=0.000000m/h.</desc>
<speed>0.000000</speed>
</trkpt>
<trkpt lat="43.154335" lon="19.122320">
<ele>1452.110352</ele>
<time>2012-05-01T15:27:14Z</time>
<desc>lat.=43.154335, lon.=19.122320, Alt.=1452.110352m. Speed=0.036000m/h.</desc>
<speed>0.010000</speed>
</trkpt>
<trkpt lat="43.154335" lon="19.122320">
<ele>1452.079102</ele>
<time>2012-05-01T15:27:19Z</time>
<desc>lat.=43.154335, lon.=19.122320, Alt.=1452.079102m. Speed=0.036000m/h.</desc>
<speed>0.010000</speed>
</trkpt>
<trkpt lat="43.154335" lon="19.122320">
<ele>1452.079102</ele>
<time>2012-05-01T15:27:24Z</time>
<desc>lat.=43.154335, lon.=19.122320, Alt.=1452.079102m. Speed=0.036000m/h.</desc>
<speed>0.010000</speed>
</trkpt>
<trkpt lat="43.154335" lon="19.122320">
<ele>1452.079102</ele>
<time>2012-05-01T15:27:29Z</time>
<desc>lat.=43.154335, lon.=19.122320, Alt.=1452.079102m. Speed=0.036000m/h.</desc>
<speed>0.010000</speed>
</trkpt>
<trkpt lat="43.154335" lon="19.122320">
<ele>1452.110352</ele>
<time>2012-05-01T15:27:34Z</time>
<desc>lat.=43.154335, lon.=19.122320, Alt.=1452.110352m. Speed=0.036000m/h.</desc>
<speed>0.010000</speed>
</trkpt>
<trkpt lat="43.154335" lon="19.122320">
<ele>1452.141602</ele>
<time>2012-05-01T15:27:39Z</time>
<desc>lat.=43.154335, lon.=19.122320, Alt.=1452.141602m. Speed=0.036000m/h.</desc>
<speed>0.010000</speed>
</trkpt>
<trkpt lat="43.154331" lon="19.122320">
<ele>1452.172852</ele>
<time>2012-05-01T15:27:44Z</time>
<desc>lat.=43.154331, lon.=19.122320, Alt.=1452.172852m. Speed=0.000000m/h.</desc>
<speed>0.000000</speed>
</trkpt>
<trkpt lat="43.154331" lon="19.122320">
<ele>1452.204102</ele>
<time>2012-05-01T15:27:49Z</time>
<desc>lat.=43.154331, lon.=19.122320, Alt.=1452.204102m. Speed=0.000000m/h.</desc>
<speed>0.000000</speed>
</trkpt>
<trkpt lat="43.154331" lon="19.122318">
<ele>1452.235352</ele>
<time>2012-05-01T15:27:54Z</time>
<desc>lat.=43.154331, lon.=19.122318, Alt.=1452.235352m. Speed=0.036000m/h.</desc>
<speed>0.010000</speed>
</trkpt>
<trkpt lat="43.154331" lon="19.122320">
<ele>1452.235352</ele>
<time>2012-05-01T15:27:59Z</time>
<desc>lat.=43.154331, lon.=19.122320, Alt.=1452.235352m. Speed=0.036000m/h.</desc>
<speed>0.010000</speed>
</trkpt>
<trkpt lat="43.154331" lon="19.122320">
<ele>1452.266602</ele>
<time>2012-05-01T15:28:04Z</time>
<desc>lat.=43.154331, lon.=19.122320, Alt.=1452.266602m. Speed=0.036000m/h.</desc>
<speed>0.010000</speed>
</trkpt>
<trkpt lat="43.154331" lon="19.122320">
<ele>1452.297852</ele>
<time>2012-05-01T15:28:09Z</time>
<desc>lat.=43.154331, lon.=19.122320, Alt.=1452.297852m. Speed=0.036000m/h.</desc>
<speed>0.010000</speed>
</trkpt>
<trkpt lat="43.154331" lon="19.122320">
<ele>1452.235352</ele>
<time>2012-05-01T15:28:14Z</time>
<desc>lat.=43.154331, lon.=19.122320, Alt.=1452.235352m. Speed=0.000000m/h.</desc>
<speed>0.000000</speed>
</trkpt>
<trkpt lat="43.154331" lon="19.122320">
<ele>1452.141602</ele>
<time>2012-05-01T15:28:19Z</time>
<desc>lat.=43.154331, lon.=19.122320, Alt.=1452.141602m. Speed=0.036000m/h.</desc>
<speed>0.010000</speed>
</trkpt>
<trkpt lat="43.154331" lon="19.122320">
<ele>1452.110352</ele>
<time>2012-05-01T15:28:24Z</time>
<desc>lat.=43.154331, lon.=19.122320, Alt.=1452.110352m. Speed=0.036000m/h.</desc>
<speed>0.010000</speed>
</trkpt>
<trkpt lat="43.154331" lon="19.122322">
<ele>1452.110352</ele>
<time>2012-05-01T15:28:29Z</time>
<desc>lat.=43.154331, lon.=19.122322, Alt.=1452.110352m. Speed=0.036000m/h.</desc>
<speed>0.010000</speed>
</trkpt>
<trkpt lat="43.154331" lon="19.122322">
<ele>1452.110352</ele>
<time>2012-05-01T15:28:34Z</time>
<desc>lat.=43.154331, lon.=19.122322, Alt.=1452.110352m. Speed=0.144000m/h.</desc>
<speed>0.040000</speed>
</trkpt>
<trkpt lat="43.154331" lon="19.122322">
<ele>1452.110352</ele>
<time>2012-05-01T15:28:39Z</time>
<desc>lat.=43.154331, lon.=19.122322, Alt.=1452.110352m. Speed=0.036000m/h.</desc>
<speed>0.010000</speed>
</trkpt>
<trkpt lat="43.154331" lon="19.122324">
<ele>1452.047852</ele>
<time>2012-05-01T15:28:44Z</time>
<desc>lat.=43.154331, lon.=19.122324, Alt.=1452.047852m. Speed=0.036000m/h.</desc>
<speed>0.010000</speed>
</trkpt>
<trkpt lat="43.154331" lon="19.122324">
<ele>1451.954102</ele>
<time>2012-05-01T15:28:49Z</time>
<desc>lat.=43.154331, lon.=19.122324, Alt.=1451.954102m. Speed=0.072000m/h.</desc>
<speed>0.020000</speed>
</trkpt>
<trkpt lat="43.154331" lon="19.122324">
<ele>1451.891602</ele>
<time>2012-05-01T15:28:54Z</time>
<desc>lat.=43.154331, lon.=19.122324, Alt.=1451.891602m. Speed=0.036000m/h.</desc>
<speed>0.010000</speed>
</trkpt>
<trkpt lat="43.154331" lon="19.122324">
<ele>1451.860352</ele>
<time>2012-05-01T15:28:59Z</time>
<desc>lat.=43.154331, lon.=19.122324, Alt.=1451.860352m. Speed=0.072000m/h.</desc>
<speed>0.020000</speed>
</trkpt>
<trkpt lat="43.154335" lon="19.122324">
<ele>1451.829102</ele>
<time>2012-05-01T15:29:04Z</time>
<desc>lat.=43.154335, lon.=19.122324, Alt.=1451.829102m. Speed=0.072000m/h.</desc>
<speed>0.020000</speed>
</trkpt>
<trkpt lat="43.154335" lon="19.122322">
<ele>1451.829102</ele>
<time>2012-05-01T15:29:09Z</time>
<desc>lat.=43.154335, lon.=19.122322, Alt.=1451.829102m. Speed=0.108000m/h.</desc>
<speed>0.030000</speed>
</trkpt>
<trkpt lat="43.154335" lon="19.122322">
<ele>1451.829102</ele>
<time>2012-05-01T15:29:14Z</time>
<desc>lat.=43.154335, lon.=19.122322, Alt.=1451.829102m. Speed=0.000000m/h.</desc>
<speed>0.000000</speed>
</trkpt>
<trkpt lat="43.154335" lon="19.122322">
<ele>1451.766602</ele>
<time>2012-05-01T15:29:19Z</time>
<desc>lat.=43.154335, lon.=19.122322, Alt.=1451.766602m. Speed=0.036000m/h.</desc>
<speed>0.010000</speed>
</trkpt>
<trkpt lat="43.154335" lon="19.122324">
<ele>1451.672852</ele>
<time>2012-05-01T15:29:24Z</time>
<desc>lat.=43.154335, lon.=19.122324, Alt.=1451.672852m. Speed=0.072000m/h.</desc>
<speed>0.020000</speed>
</trkpt>
<trkpt lat="43.154335" lon="19.122324">
<ele>1451.579102</ele>
<time>2012-05-01T15:29:29Z</time>
<desc>lat.=43.154335, lon.=19.122324, Alt.=1451.579102m. Speed=0.072000m/h.</desc>
<speed>0.020000</speed>
</trkpt>
<trkpt lat="43.154331" lon="19.122326">
<ele>1451.641602</ele>
<time>2012-05-01T15:29:34Z</time>
<desc>lat.=43.154331, lon.=19.122326, Alt.=1451.641602m. Speed=0.144000m/h.</desc>
<speed>0.040000</speed>
</trkpt>
<trkpt lat="43.154331" lon="19.122326">
<ele>1451.704102</ele>
<time>2012-05-01T15:29:39Z</time>
<desc>lat.=43.154331, lon.=19.122326, Alt.=1451.704102m. Speed=0.108000m/h.</desc>
<speed>0.030000</speed>
</trkpt>
<trkpt lat="43.154331" lon="19.122326">
<ele>1451.735352</ele>
<time>2012-05-01T15:29:44Z</time>
<desc>lat.=43.154331, lon.=19.122326, Alt.=1451.735352m. Speed=0.072000m/h.</desc>
<speed>0.020000</speed>
</trkpt>
<trkpt lat="43.154327" lon="19.122328">
<ele>1451.672852</ele>
<time>2012-05-01T15:29:49Z</time>
<desc>lat.=43.154327, lon.=19.122328, Alt.=1451.672852m. Speed=0.180000m/h.</desc>
<speed>0.050000</speed>
</trkpt>
<trkpt lat="43.154327" lon="19.122330">
<ele>1451.547852</ele>
<time>2012-05-01T15:29:54Z</time>
<desc>lat.=43.154327, lon.=19.122330, Alt.=1451.547852m. Speed=0.216000m/h.</desc>
<speed>0.060000</speed>
</trkpt>
<trkpt lat="43.154327" lon="19.122330">
<ele>1451.516602</ele>
<time>2012-05-01T15:29:59Z</time>
<desc>lat.=43.154327, lon.=19.122330, Alt.=1451.516602m. Speed=0.000000m/h.</desc>
<speed>0.000000</speed>
</trkpt>
<trkpt lat="43.154327" lon="19.122330">
<ele>1451.454102</ele>
<time>2012-05-01T15:30:04Z</time>
<desc>lat.=43.154327, lon.=19.122330, Alt.=1451.454102m. Speed=0.000000m/h.</desc>
<speed>0.000000</speed>
</trkpt>
<trkpt lat="43.154327" lon="19.122332">
<ele>1451.485352</ele>
<time>2012-05-01T15:30:09Z</time>
<desc>lat.=43.154327, lon.=19.122332, Alt.=1451.485352m. Speed=0.072000m/h.</desc>
<speed>0.020000</speed>
</trkpt>
<trkpt lat="43.154324" lon="19.122332">
<ele>1451.485352</ele>
<time>2012-05-01T15:30:14Z</time>
<desc>lat.=43.154324, lon.=19.122332, Alt.=1451.485352m. Speed=0.000000m/h.</desc>
<speed>0.000000</speed>
</trkpt>
<trkpt lat="43.154324" lon="19.122332">
<ele>1451.422852</ele>
<time>2012-05-01T15:30:19Z</time>
<desc>lat.=43.154324, lon.=19.122332, Alt.=1451.422852m. Speed=0.000000m/h.</desc>
<speed>0.000000</speed>
</trkpt>
<trkpt lat="43.154324" lon="19.122334">
<ele>1451.297852</ele>
<time>2012-05-01T15:30:24Z</time>
<desc>lat.=43.154324, lon.=19.122334, Alt.=1451.297852m. Speed=0.000000m/h.</desc>
<speed>0.000000</speed>
</trkpt>
<trkpt lat="43.154324" lon="19.122334">
<ele>1451.204102</ele>
<time>2012-05-01T15:30:29Z</time>
<desc>lat.=43.154324, lon.=19.122334, Alt.=1451.204102m. Speed=0.036000m/h.</desc>
<speed>0.010000</speed>
</trkpt>
<trkpt lat="43.154324" lon="19.122334">
<ele>1451.204102</ele>
<time>2012-05-01T15:30:34Z</time>
<desc>lat.=43.154324, lon.=19.122334, Alt.=1451.204102m. Speed=0.000000m/h.</desc>
<speed>0.000000</speed>
</trkpt>
<trkpt lat="43.154324" lon="19.122334">
<ele>1451.204102</ele>
<time>2012-05-01T15:30:39Z</time>
<desc>lat.=43.154324, lon.=19.122334, Alt.=1451.204102m. Speed=0.000000m/h.</desc>
<speed>0.000000</speed>
</trkpt>
<trkpt lat="43.154324" lon="19.122334">
<ele>1451.204102</ele>
<time>2012-05-01T15:30:44Z</time>
<desc>lat.=43.154324, lon.=19.122334, Alt.=1451.204102m. Speed=0.000000m/h.</desc>
<speed>0.000000</speed>
</trkpt>
<trkpt lat="43.154327" lon="19.122334">
<ele>1451.204102</ele>
<time>2012-05-01T15:30:49Z</time>
<desc>lat.=43.154327, lon.=19.122334, Alt.=1451.204102m. Speed=0.072000m/h.</desc>
<speed>0.020000</speed>
</trkpt>
<trkpt lat="43.154324" lon="19.122334">
<ele>1451.110352</ele>
<time>2012-05-01T15:30:54Z</time>
<desc>lat.=43.154324, lon.=19.122334, Alt.=1451.110352m. Speed=0.036000m/h.</desc>
<speed>0.010000</speed>
</trkpt>
<trkpt lat="43.154324" lon="19.122334">
<ele>1450.954102</ele>
<time>2012-05-01T15:30:59Z</time>
<desc>lat.=43.154324, lon.=19.122334, Alt.=1450.954102m. Speed=0.036000m/h.</desc>
<speed>0.010000</speed>
</trkpt>
<trkpt lat="43.154324" lon="19.122335">
<ele>1450.922852</ele>
<time>2012-05-01T15:31:04Z</time>
<desc>lat.=43.154324, lon.=19.122335, Alt.=1450.922852m. Speed=0.000000m/h.</desc>
<speed>0.000000</speed>
</trkpt>
<trkpt lat="43.154324" lon="19.122335">
<ele>1450.954102</ele>
<time>2012-05-01T15:31:09Z</time>
<desc>lat.=43.154324, lon.=19.122335, Alt.=1450.954102m. Speed=0.036000m/h.</desc>
<speed>0.010000</speed>
</trkpt>
<trkpt lat="43.154324" lon="19.122335">
<ele>1450.954102</ele>
<time>2012-05-01T15:31:14Z</time>
<desc>lat.=43.154324, lon.=19.122335, Alt.=1450.954102m. Speed=0.000000m/h.</desc>
<speed>0.000000</speed>
</trkpt>
<trkpt lat="43.154324" lon="19.122337">
<ele>1450.954102</ele>
<time>2012-05-01T15:31:19Z</time>
<desc>lat.=43.154324, lon.=19.122337, Alt.=1450.954102m. Speed=0.000000m/h.</desc>
<speed>0.000000</speed>
</trkpt>
<trkpt lat="43.154324" lon="19.122337">
<ele>1450.954102</ele>
<time>2012-05-01T15:31:24Z</time>
<desc>lat.=43.154324, lon.=19.122337, Alt.=1450.954102m. Speed=0.036000m/h.</desc>
<speed>0.010000</speed>
</trkpt>
<trkpt lat="43.154324" lon="19.122337">
<ele>1450.891602</ele>
<time>2012-05-01T15:31:29Z</time>
<desc>lat.=43.154324, lon.=19.122337, Alt.=1450.891602m. Speed=0.000000m/h.</desc>
<speed>0.000000</speed>
</trkpt>
<trkpt lat="43.154324" lon="19.122337">
<ele>1450.860352</ele>
<time>2012-05-01T15:31:34Z</time>
<desc>lat.=43.154324, lon.=19.122337, Alt.=1450.860352m. Speed=0.000000m/h.</desc>
<speed>0.000000</speed>
</trkpt>
<trkpt lat="43.154324" lon="19.122337">
<ele>1450.704102</ele>
<time>2012-05-01T15:31:39Z</time>
<desc>lat.=43.154324, lon.=19.122337, Alt.=1450.704102m. Speed=0.072000m/h.</desc>
<speed>0.020000</speed>
</trkpt>
<trkpt lat="43.154324" lon="19.122337">
<ele>1450.735352</ele>
<time>2012-05-01T15:31:44Z</time>
<desc>lat.=43.154324, lon.=19.122337, Alt.=1450.735352m. Speed=0.000000m/h.</desc>
<speed>0.000000</speed>
</trkpt>
<trkpt lat="43.154324" lon="19.122337">
<ele>1450.766602</ele>
<time>2012-05-01T15:31:49Z</time>
<desc>lat.=43.154324, lon.=19.122337, Alt.=1450.766602m. Speed=0.072000m/h.</desc>
<speed>0.020000</speed>
</trkpt>
<trkpt lat="43.154324" lon="19.122337">
<ele>1450.766602</ele>
<time>2012-05-01T15:31:54Z</time>
<desc>lat.=43.154324, lon.=19.122337, Alt.=1450.766602m. Speed=0.036000m/h.</desc>
<speed>0.010000</speed>
</trkpt>
<trkpt lat="43.154324" lon="19.122337">
<ele>1450.797852</ele>
<time>2012-05-01T15:31:59Z</time>
<desc>lat.=43.154324, lon.=19.122337, Alt.=1450.797852m. Speed=0.072000m/h.</desc>
<speed>0.020000</speed>
</trkpt>
<trkpt lat="43.154324" lon="19.122337">
<ele>1450.766602</ele>
<time>2012-05-01T15:32:04Z</time>
<desc>lat.=43.154324, lon.=19.122337, Alt.=1450.766602m. Speed=0.000000m/h.</desc>
<speed>0.000000</speed>
</trkpt>
<trkpt lat="43.154324" lon="19.122337">
<ele>1450.641602</ele>
<time>2012-05-01T15:32:09Z</time>
<desc>lat.=43.154324, lon.=19.122337, Alt.=1450.641602m. Speed=0.000000m/h.</desc>
<speed>0.000000</speed>
</trkpt>
<trkpt lat="43.154327" lon="19.122339">
<ele>1450.485352</ele>
<time>2012-05-01T15:32:14Z</time>
<desc>lat.=43.154327, lon.=19.122339, Alt.=1450.485352m. Speed=0.000000m/h.</desc>
<speed>0.000000</speed>
</trkpt>
<trkpt lat="43.154327" lon="19.122339">
<ele>1450.391602</ele>
<time>2012-05-01T15:32:19Z</time>
<desc>lat.=43.154327, lon.=19.122339, Alt.=1450.391602m. Speed=0.036000m/h.</desc>
<speed>0.010000</speed>
</trkpt>
<trkpt lat="43.154327" lon="19.122339">
<ele>1450.391602</ele>
<time>2012-05-01T15:32:24Z</time>
<desc>lat.=43.154327, lon.=19.122339, Alt.=1450.391602m. Speed=0.072000m/h.</desc>
<speed>0.020000</speed>
</trkpt>
<trkpt lat="43.154327" lon="19.122339">
<ele>1450.422852</ele>
<time>2012-05-01T15:32:29Z</time>
<desc>lat.=43.154327, lon.=19.122339, Alt.=1450.422852m. Speed=0.036000m/h.</desc>
<speed>0.010000</speed>
</trkpt>
<trkpt lat="43.154327" lon="19.122339">
<ele>1450.485352</ele>
<time>2012-05-01T15:32:34Z</time>
<desc>lat.=43.154327, lon.=19.122339, Alt.=1450.485352m. Speed=0.036000m/h.</desc>
<speed>0.010000</speed>
</trkpt>
<trkpt lat="43.154327" lon="19.122339">
<ele>1450.454102</ele>
<time>2012-05-01T15:32:39Z</time>
<desc>lat.=43.154327, lon.=19.122339, Alt.=1450.454102m. Speed=0.000000m/h.</desc>
<speed>0.000000</speed>
</trkpt>
<trkpt lat="43.154327" lon="19.122339">
<ele>1450.391602</ele>
<time>2012-05-01T15:32:44Z</time>
<desc>lat.=43.154327, lon.=19.122339, Alt.=1450.391602m. Speed=0.000000m/h.</desc>
<speed>0.000000</speed>
</trkpt>
<trkpt lat="43.154327" lon="19.122339">
<ele>1450.297852</ele>
<time>2012-05-01T15:32:49Z</time>
<desc>lat.=43.154327, lon.=19.122339, Alt.=1450.297852m. Speed=0.000000m/h.</desc>
<speed>0.000000</speed>
</trkpt>
<trkpt lat="43.154327" lon="19.122339">
<ele>1450.329102</ele>
<time>2012-05-01T15:32:54Z</time>
<desc>lat.=43.154327, lon.=19.122339, Alt.=1450.329102m. Speed=0.000000m/h.</desc>
<speed>0.000000</speed>
</trkpt>
<trkpt lat="43.154327" lon="19.122339">
<ele>1450.360352</ele>
<time>2012-05-01T15:32:59Z</time>
<desc>lat.=43.154327, lon.=19.122339, Alt.=1450.360352m. Speed=0.072000m/h.</desc>
<speed>0.020000</speed>
</trkpt>
<trkpt lat="43.154327" lon="19.122339">
<ele>1450.360352</ele>
<time>2012-05-01T15:33:04Z</time>
<desc>lat.=43.154327, lon.=19.122339, Alt.=1450.360352m. Speed=0.108000m/h.</desc>
<speed>0.030000</speed>
</trkpt>
<trkpt lat="43.154331" lon="19.122341">
<ele>1450.391602</ele>
<time>2012-05-01T15:33:09Z</time>
<desc>lat.=43.154331, lon.=19.122341, Alt.=1450.391602m. Speed=0.072000m/h.</desc>
<speed>0.020000</speed>
</trkpt>
<trkpt lat="43.154331" lon="19.122341">
<ele>1450.391602</ele>
<time>2012-05-01T15:33:14Z</time>
<desc>lat.=43.154331, lon.=19.122341, Alt.=1450.391602m. Speed=0.180000m/h.</desc>
<speed>0.050000</speed>
</trkpt>
<trkpt lat="43.154331" lon="19.122341">
<ele>1450.391602</ele>
<time>2012-05-01T15:33:19Z</time>
<desc>lat.=43.154331, lon.=19.122341, Alt.=1450.391602m. Speed=0.036000m/h.</desc>
<speed>0.010000</speed>
</trkpt>
<trkpt lat="43.154331" lon="19.122341">
<ele>1450.391602</ele>
<time>2012-05-01T15:33:24Z</time>
<desc>lat.=43.154331, lon.=19.122341, Alt.=1450.391602m. Speed=0.072000m/h.</desc>
<speed>0.020000</speed>
</trkpt>
<trkpt lat="43.154331" lon="19.122341">
<ele>1450.422852</ele>
<time>2012-05-01T15:33:29Z</time>
<desc>lat.=43.154331, lon.=19.122341, Alt.=1450.422852m. Speed=0.072000m/h.</desc>
<speed>0.020000</speed>
</trkpt>
<trkpt lat="43.154331" lon="19.122341">
<ele>1450.454102</ele>
<time>2012-05-01T15:33:34Z</time>
<desc>lat.=43.154331, lon.=19.122341, Alt.=1450.454102m. Speed=0.072000m/h.</desc>
<speed>0.020000</speed>
</trkpt>
<trkpt lat="43.154331" lon="19.122341">
<ele>1450.454102</ele>
<time>2012-05-01T15:33:39Z</time>
<desc>lat.=43.154331, lon.=19.122341, Alt.=1450.454102m. Speed=0.000000m/h.</desc>
<speed>0.000000</speed>
</trkpt>
<trkpt lat="43.154331" lon="19.122341">
<ele>1450.422852</ele>
<time>2012-05-01T15:33:44Z</time>
<desc>lat.=43.154331, lon.=19.122341, Alt.=1450.422852m. Speed=0.036000m/h.</desc>
<speed>0.010000</speed>
</trkpt>
<trkpt lat="43.154331" lon="19.122341">
<ele>1450.360352</ele>
<time>2012-05-01T15:33:49Z</time>
<desc>lat.=43.154331, lon.=19.122341, Alt.=1450.360352m. Speed=0.000000m/h.</desc>
<speed>0.000000</speed>
</trkpt>
<trkpt lat="43.154331" lon="19.122343">
<ele>1450.360352</ele>
<time>2012-05-01T15:33:54Z</time>
<desc>lat.=43.154331, lon.=19.122343, Alt.=1450.360352m. Speed=0.036000m/h.</desc>
<speed>0.010000</speed>
</trkpt>
<trkpt lat="43.154331" lon="19.122343">
<ele>1450.391602</ele>
<time>2012-05-01T15:33:59Z</time>
<desc>lat.=43.154331, lon.=19.122343, Alt.=1450.391602m. Speed=0.000000m/h.</desc>
<speed>0.000000</speed>
</trkpt>
<trkpt lat="43.154331" lon="19.122343">
<ele>1450.422852</ele>
<time>2012-05-01T15:34:04Z</time>
<desc>lat.=43.154331, lon.=19.122343, Alt.=1450.422852m. Speed=0.036000m/h.</desc>
<speed>0.010000</speed>
</trkpt>
<trkpt lat="43.154331" lon="19.122343">
<ele>1450.485352</ele>
<time>2012-05-01T15:34:09Z</time>
<desc>lat.=43.154331, lon.=19.122343, Alt.=1450.485352m. Speed=0.000000m/h.</desc>
<speed>0.000000</speed>
</trkpt>
<trkpt lat="43.154331" lon="19.122345">
<ele>1450.516602</ele>
<time>2012-05-01T15:34:14Z</time>
<desc>lat.=43.154331, lon.=19.122345, Alt.=1450.516602m. Speed=0.108000m/h.</desc>
<speed>0.030000</speed>
</trkpt>
<trkpt lat="43.154331" lon="19.122345">
<ele>1450.579102</ele>
<time>2012-05-01T15:34:19Z</time>
<desc>lat.=43.154331, lon.=19.122345, Alt.=1450.579102m. Speed=0.036000m/h.</desc>
<speed>0.010000</speed>
</trkpt>
<trkpt lat="43.154331" lon="19.122345">
<ele>1450.579102</ele>
<time>2012-05-01T15:34:24Z</time>
<desc>lat.=43.154331, lon.=19.122345, Alt.=1450.579102m. Speed=0.072000m/h.</desc>
<speed>0.020000</speed>
</trkpt>
<trkpt lat="43.154331" lon="19.122345">
<ele>1450.579102</ele>
<time>2012-05-01T15:34:29Z</time>
<desc>lat.=43.154331, lon.=19.122345, Alt.=1450.579102m. Speed=0.036000m/h.</desc>
<speed>0.010000</speed>
</trkpt>
<trkpt lat="43.154331" lon="19.122347">
<ele>1450.516602</ele>
<time>2012-05-01T15:34:34Z</time>
<desc>lat.=43.154331, lon.=19.122347, Alt.=1450.516602m. Speed=0.000000m/h.</desc>
<speed>0.000000</speed>
</trkpt>
<trkpt lat="43.154331" lon="19.122347">
<ele>1450.547852</ele>
<time>2012-05-01T15:34:39Z</time>
<desc>lat.=43.154331, lon.=19.122347, Alt.=1450.547852m. Speed=0.036000m/h.</desc>
<speed>0.010000</speed>
</trkpt>
<trkpt lat="43.154331" lon="19.122347">
<ele>1450.579102</ele>
<time>2012-05-01T15:34:44Z</time>
<desc>lat.=43.154331, lon.=19.122347, Alt.=1450.579102m. Speed=0.000000m/h.</desc>
<speed>0.000000</speed>
</trkpt>
<trkpt lat="43.154331" lon="19.122347">
<ele>1450.579102</ele>
<time>2012-05-01T15:34:49Z</time>
<desc>lat.=43.154331, lon.=19.122347, Alt.=1450.579102m. Speed=0.000000m/h.</desc>
<speed>0.000000</speed>
</trkpt>
<trkpt lat="43.154331" lon="19.122349">
<ele>1450.610352</ele>
<time>2012-05-01T15:34:54Z</time>
<desc>lat.=43.154331, lon.=19.122349, Alt.=1450.610352m. Speed=0.000000m/h.</desc>
<speed>0.000000</speed>
</trkpt>
<trkpt lat="43.154331" lon="19.122349">
<ele>1450.579102</ele>
<time>2012-05-01T15:34:59Z</time>
<desc>lat.=43.154331, lon.=19.122349, Alt.=1450.579102m. Speed=0.036000m/h.</desc>
<speed>0.010000</speed>
</trkpt>
<trkpt lat="43.154331" lon="19.122349">
<ele>1450.547852</ele>
<time>2012-05-01T15:35:04Z</time>
<desc>lat.=43.154331, lon.=19.122349, Alt.=1450.547852m. Speed=0.036000m/h.</desc>
<speed>0.010000</speed>
</trkpt>
<trkpt lat="43.154331" lon="19.122349">
<ele>1450.547852</ele>
<time>2012-05-01T15:35:09Z</time>
<desc>lat.=43.154331, lon.=19.122349, Alt.=1450.547852m. Speed=0.000000m/h.</desc>
<speed>0.000000</speed>
</trkpt>
<trkpt lat="43.154331" lon="19.122349">
<ele>1450.610352</ele>
<time>2012-05-01T15:35:14Z</time>
<desc>lat.=43.154331, lon.=19.122349, Alt.=1450.610352m. Speed=0.036000m/h.</desc>
<speed>0.010000</speed>
</trkpt>
<trkpt lat="43.154331" lon="19.122349">
<ele>1450.641602</ele>
<time>2012-05-01T15:35:19Z</time>
<desc>lat.=43.154331, lon.=19.122349, Alt.=1450.641602m. Speed=0.072000m/h.</desc>
<speed>0.020000</speed>
</trkpt>
<trkpt lat="43.154331" lon="19.122349">
<ele>1450.704102</ele>
<time>2012-05-01T15:35:24Z</time>
<desc>lat.=43.154331, lon.=19.122349, Alt.=1450.704102m. Speed=0.036000m/h.</desc>
<speed>0.010000</speed>
</trkpt>
<trkpt lat="43.154331" lon="19.122351">
<ele>1450.766602</ele>
<time>2012-05-01T15:35:29Z</time>
<desc>lat.=43.154331, lon.=19.122351, Alt.=1450.766602m. Speed=0.180000m/h.</desc>
<speed>0.050000</speed>
</trkpt>
<trkpt lat="43.154331" lon="19.122353">
<ele>1450.797852</ele>
<time>2012-05-01T15:35:34Z</time>
<desc>lat.=43.154331, lon.=19.122353, Alt.=1450.797852m. Speed=0.108000m/h.</desc>
<speed>0.030000</speed>
</trkpt>
<trkpt lat="43.154331" lon="19.122353">
<ele>1450.829102</ele>
<time>2012-05-01T15:35:39Z</time>
<desc>lat.=43.154331, lon.=19.122353, Alt.=1450.829102m. Speed=0.000000m/h.</desc>
<speed>0.000000</speed>
</trkpt>
<trkpt lat="43.154331" lon="19.122353">
<ele>1450.860352</ele>
<time>2012-05-01T15:35:44Z</time>
<desc>lat.=43.154331, lon.=19.122353, Alt.=1450.860352m. Speed=0.000000m/h.</desc>
<speed>0.000000</speed>
</trkpt>
<trkpt lat="43.154331" lon="19.122353">
<ele>1450.891602</ele>
<time>2012-05-01T15:35:49Z</time>
<desc>lat.=43.154331, lon.=19.122353, Alt.=1450.891602m. Speed=0.000000m/h.</desc>
<speed>0.000000</speed>
</trkpt>
<trkpt lat="43.154331" lon="19.122353">
<ele>1450.922852</ele>
<time>2012-05-01T15:35:54Z</time>
<desc>lat.=43.154331, lon.=19.122353, Alt.=1450.922852m. Speed=0.000000m/h.</desc>
<speed>0.000000</speed>
</trkpt>
<trkpt lat="43.154331" lon="19.122353">
<ele>1450.954102</ele>
<time>2012-05-01T15:35:59Z</time>
<desc>lat.=43.154331, lon.=19.122353, Alt.=1450.954102m. Speed=0.036000m/h.</desc>
<speed>0.010000</speed>
</trkpt>
<trkpt lat="43.154331" lon="19.122353">
<ele>1450.985352</ele>
<time>2012-05-01T15:36:04Z</time>
<desc>lat.=43.154331, lon.=19.122353, Alt.=1450.985352m. Speed=0.000000m/h.</desc>
<speed>0.000000</speed>
</trkpt>
<trkpt lat="43.154331" lon="19.122353">
<ele>1451.079102</ele>
<time>2012-05-01T15:36:09Z</time>
<desc>lat.=43.154331, lon.=19.122353, Alt.=1451.079102m. Speed=0.000000m/h.</desc>
<speed>0.000000</speed>
</trkpt>
<trkpt lat="43.154331" lon="19.122353">
<ele>1451.172852</ele>
<time>2012-05-01T15:36:14Z</time>
<desc>lat.=43.154331, lon.=19.122353, Alt.=1451.172852m. Speed=0.000000m/h.</desc>
<speed>0.000000</speed>
</trkpt>
<trkpt lat="43.154335" lon="19.122353">
<ele>1451.266602</ele>
<time>2012-05-01T15:36:19Z</time>
<desc>lat.=43.154335, lon.=19.122353, Alt.=1451.266602m. Speed=0.000000m/h.</desc>
<speed>0.000000</speed>
</trkpt>
<trkpt lat="43.154335" lon="19.122355">
<ele>1451.360352</ele>
<time>2012-05-01T15:36:24Z</time>
<desc>lat.=43.154335, lon.=19.122355, Alt.=1451.360352m. Speed=0.036000m/h.</desc>
<speed>0.010000</speed>
</trkpt>
<trkpt lat="43.154335" lon="19.122355">
<ele>1451.454102</ele>
<time>2012-05-01T15:36:29Z</time>
<desc>lat.=43.154335, lon.=19.122355, Alt.=1451.454102m. Speed=0.036000m/h.</desc>
<speed>0.010000</speed>
</trkpt>
<trkpt lat="43.154335" lon="19.122355">
<ele>1451.516602</ele>
<time>2012-05-01T15:36:34Z</time>
<desc>lat.=43.154335, lon.=19.122355, Alt.=1451.516602m. Speed=0.000000m/h.</desc>
<speed>0.000000</speed>
</trkpt>
<trkpt lat="43.154335" lon="19.122355">
<ele>1451.579102</ele>
<time>2012-05-01T15:36:39Z</time>
<desc>lat.=43.154335, lon.=19.122355, Alt.=1451.579102m. Speed=0.000000m/h.</desc>
<speed>0.000000</speed>
</trkpt>
<trkpt lat="43.154335" lon="19.122355">
<ele>1451.610352</ele>
<time>2012-05-01T15:36:44Z</time>
<desc>lat.=43.154335, lon.=19.122355, Alt.=1451.610352m. Speed=0.000000m/h.</desc>
<speed>0.000000</speed>
</trkpt>
<trkpt lat="43.154335" lon="19.122355">
<ele>1451.641602</ele>
<time>2012-05-01T15:36:49Z</time>
<desc>lat.=43.154335, lon.=19.122355, Alt.=1451.641602m. Speed=0.036000m/h.</desc>
<speed>0.010000</speed>
</trkpt>
<trkpt lat="43.154335" lon="19.122355">
<ele>1451.641602</ele>
<time>2012-05-01T15:36:54Z</time>
<desc>lat.=43.154335, lon.=19.122355, Alt.=1451.641602m. Speed=0.036000m/h.</desc>
<speed>0.010000</speed>
</trkpt>
<trkpt lat="43.154335" lon="19.122356">
<ele>1451.672852</ele>
<time>2012-05-01T15:36:59Z</time>
<desc>lat.=43.154335, lon.=19.122356, Alt.=1451.672852m. Speed=0.000000m/h.</desc>
<speed>0.000000</speed>
</trkpt>
<trkpt lat="43.154335" lon="19.122356">
<ele>1451.735352</ele>
<time>2012-05-01T15:37:04Z</time>
<desc>lat.=43.154335, lon.=19.122356, Alt.=1451.735352m. Speed=0.000000m/h.</desc>
<speed>0.000000</speed>
</trkpt>
<trkpt lat="43.154335" lon="19.122356">
<ele>1451.735352</ele>
<time>2012-05-01T15:37:09Z</time>
<desc>lat.=43.154335, lon.=19.122356, Alt.=1451.735352m. Speed=0.036000m/h.</desc>
<speed>0.010000</speed>
</trkpt>
<trkpt lat="43.154335" lon="19.122356">
<ele>1451.797852</ele>
<time>2012-05-01T15:37:14Z</time>
<desc>lat.=43.154335, lon.=19.122356, Alt.=1451.797852m. Speed=0.036000m/h.</desc>
<speed>0.010000</speed>
</trkpt>
<trkpt lat="43.154335" lon="19.122356">
<ele>1451.829102</ele>
<time>2012-05-01T15:37:19Z</time>
<desc>lat.=43.154335, lon.=19.122356, Alt.=1451.829102m. Speed=0.036000m/h.</desc>
<speed>0.010000</speed>
</trkpt>
<trkpt lat="43.154335" lon="19.122356">
<ele>1451.829102</ele>
<time>2012-05-01T15:37:24Z</time>
<desc>lat.=43.154335, lon.=19.122356, Alt.=1451.829102m. Speed=0.000000m/h.</desc>
<speed>0.000000</speed>
</trkpt>
<trkpt lat="43.154335" lon="19.122356">
<ele>1451.829102</ele>
<time>2012-05-01T15:37:29Z</time>
<desc>lat.=43.154335, lon.=19.122356, Alt.=1451.829102m. Speed=0.036000m/h.</desc>
<speed>0.010000</speed>
</trkpt>
<trkpt lat="43.154335" lon="19.122356">
<ele>1451.829102</ele>
<time>2012-05-01T15:37:34Z</time>
<desc>lat.=43.154335, lon.=19.122356, Alt.=1451.829102m. Speed=0.000000m/h.</desc>
<speed>0.000000</speed>
</trkpt>
<trkpt lat="43.154335" lon="19.122356">
<ele>1451.829102</ele>
<time>2012-05-01T15:37:39Z</time>
<desc>lat.=43.154335, lon.=19.122356, Alt.=1451.829102m. Speed=0.036000m/h.</desc>
<speed>0.010000</speed>
</trkpt>
<trkpt lat="43.154335" lon="19.122356">
<ele>1451.860352</ele>
<time>2012-05-01T15:37:44Z</time>
<desc>lat.=43.154335, lon.=19.122356, Alt.=1451.860352m. Speed=0.000000m/h.</desc>
<speed>0.000000</speed>
</trkpt>
<trkpt lat="43.154339" lon="19.122356">
<ele>1451.891602</ele>
<time>2012-05-01T15:37:49Z</time>
<desc>lat.=43.154339, lon.=19.122356, Alt.=1451.891602m. Speed=0.036000m/h.</desc>
<speed>0.010000</speed>
</trkpt>
<trkpt lat="43.154339" lon="19.122356">
<ele>1451.891602</ele>
<time>2012-05-01T15:37:54Z</time>
<desc>lat.=43.154339, lon.=19.122356, Alt.=1451.891602m. Speed=0.036000m/h.</desc>
<speed>0.010000</speed>
</trkpt>
<trkpt lat="43.154339" lon="19.122356">
<ele>1451.891602</ele>
<time>2012-05-01T15:37:59Z</time>
<desc>lat.=43.154339, lon.=19.122356, Alt.=1451.891602m. Speed=0.036000m/h.</desc>
<speed>0.010000</speed>
</trkpt>
<trkpt lat="43.154339" lon="19.122356">
<ele>1451.891602</ele>
<time>2012-05-01T15:38:04Z</time>
<desc>lat.=43.154339, lon.=19.122356, Alt.=1451.891602m. Speed=0.036000m/h.</desc>
<speed>0.010000</speed>
</trkpt>
<trkpt lat="43.154339" lon="19.122356">
<ele>1451.922852</ele>
<time>2012-05-01T15:38:09Z</time>
<desc>lat.=43.154339, lon.=19.122356, Alt.=1451.922852m. Speed=0.000000m/h.</desc>
<speed>0.000000</speed>
</trkpt>
<trkpt lat="43.154339" lon="19.122356">
<ele>1451.985352</ele>
<time>2012-05-01T15:38:14Z</time>
<desc>lat.=43.154339, lon.=19.122356, Alt.=1451.985352m. Speed=0.036000m/h.</desc>
<speed>0.010000</speed>
</trkpt>
<trkpt lat="43.154339" lon="19.122358">
<ele>1452.016602</ele>
<time>2012-05-01T15:38:19Z</time>
<desc>lat.=43.154339, lon.=19.122358, Alt.=1452.016602m. Speed=0.000000m/h.</desc>
<speed>0.000000</speed>
</trkpt>
<trkpt lat="43.154339" lon="19.122358">
<ele>1452.079102</ele>
<time>2012-05-01T15:38:24Z</time>
<desc>lat.=43.154339, lon.=19.122358, Alt.=1452.079102m. Speed=0.000000m/h.</desc>
<speed>0.000000</speed>
</trkpt>
<trkpt lat="43.154339" lon="19.122358">
<ele>1452.110352</ele>
<time>2012-05-01T15:38:29Z</time>
<desc>lat.=43.154339, lon.=19.122358, Alt.=1452.110352m. Speed=0.000000m/h.</desc>
<speed>0.000000</speed>
</trkpt>
<trkpt lat="43.154339" lon="19.122358">
<ele>1452.110352</ele>
<time>2012-05-01T15:38:34Z</time>
<desc>lat.=43.154339, lon.=19.122358, Alt.=1452.110352m. Speed=0.000000m/h.</desc>
<speed>0.000000</speed>
</trkpt>
<trkpt lat="43.154339" lon="19.122358">
<ele>1452.110352</ele>
<time>2012-05-01T15:38:39Z</time>
<desc>lat.=43.154339, lon.=19.122358, Alt.=1452.110352m. Speed=0.036000m/h.</desc>
<speed>0.010000</speed>
</trkpt>
<trkpt lat="43.154339" lon="19.122358">
<ele>1452.141602</ele>
<time>2012-05-01T15:38:44Z</time>
<desc>lat.=43.154339, lon.=19.122358, Alt.=1452.141602m. Speed=0.000000m/h.</desc>
<speed>0.000000</speed>
</trkpt>
<trkpt lat="43.154343" lon="19.122358">
<ele>1452.141602</ele>
<time>2012-05-01T15:38:49Z</time>
<desc>lat.=43.154343, lon.=19.122358, Alt.=1452.141602m. Speed=0.036000m/h.</desc>
<speed>0.010000</speed>
</trkpt>
<trkpt lat="43.154343" lon="19.122360">
<ele>1452.204102</ele>
<time>2012-05-01T15:38:54Z</time>
<desc>lat.=43.154343, lon.=19.122360, Alt.=1452.204102m. Speed=0.036000m/h.</desc>
<speed>0.010000</speed>
</trkpt>
<trkpt lat="43.154343" lon="19.122360">
<ele>1452.204102</ele>
<time>2012-05-01T15:38:59Z</time>
<desc>lat.=43.154343, lon.=19.122360, Alt.=1452.204102m. Speed=0.036000m/h.</desc>
<speed>0.010000</speed>
</trkpt>
<trkpt lat="43.154343" lon="19.122360">
<ele>1452.172852</ele>
<time>2012-05-01T15:39:04Z</time>
<desc>lat.=43.154343, lon.=19.122360, Alt.=1452.172852m. Speed=0.072000m/h.</desc>
<speed>0.020000</speed>
</trkpt>
<trkpt lat="43.154343" lon="19.122360">
<ele>1452.204102</ele>
<time>2012-05-01T15:39:09Z</time>
<desc>lat.=43.154343, lon.=19.122360, Alt.=1452.204102m. Speed=0.000000m/h.</desc>
<speed>0.000000</speed>
</trkpt>
<trkpt lat="43.154343" lon="19.122362">
<ele>1452.172852</ele>
<time>2012-05-01T15:39:14Z</time>
<desc>lat.=43.154343, lon.=19.122362, Alt.=1452.172852m. Speed=0.072000m/h.</desc>
<speed>0.020000</speed>
</trkpt>
<trkpt lat="43.154343" lon="19.122362">
<ele>1452.235352</ele>
<time>2012-05-01T15:39:19Z</time>
<desc>lat.=43.154343, lon.=19.122362, Alt.=1452.235352m. Speed=0.036000m/h.</desc>
<speed>0.010000</speed>
</trkpt>
<trkpt lat="43.154343" lon="19.122362">
<ele>1452.329102</ele>
<time>2012-05-01T15:39:24Z</time>
<desc>lat.=43.154343, lon.=19.122362, Alt.=1452.329102m. Speed=0.000000m/h.</desc>
<speed>0.000000</speed>
</trkpt>
<trkpt lat="43.154343" lon="19.122362">
<ele>1452.454102</ele>
<time>2012-05-01T15:39:29Z</time>
<desc>lat.=43.154343, lon.=19.122362, Alt.=1452.454102m. Speed=0.072000m/h.</desc>
<speed>0.020000</speed>
</trkpt>
<trkpt lat="43.154343" lon="19.122362">
<ele>1452.516602</ele>
<time>2012-05-01T15:39:34Z</time>
<desc>lat.=43.154343, lon.=19.122362, Alt.=1452.516602m. Speed=0.000000m/h.</desc>
<speed>0.000000</speed>
</trkpt>
<trkpt lat="43.154343" lon="19.122362">
<ele>1452.610352</ele>
<time>2012-05-01T15:39:39Z</time>
<desc>lat.=43.154343, lon.=19.122362, Alt.=1452.610352m. Speed=0.000000m/h.</desc>
<speed>0.000000</speed>
</trkpt>
<trkpt lat="43.154343" lon="19.122364">
<ele>1452.704102</ele>
<time>2012-05-01T15:39:44Z</time>
<desc>lat.=43.154343, lon.=19.122364, Alt.=1452.704102m. Speed=0.036000m/h.</desc>
<speed>0.010000</speed>
</trkpt>
<trkpt lat="43.154343" lon="19.122364">
<ele>1452.797852</ele>
<time>2012-05-01T15:39:49Z</time>
<desc>lat.=43.154343, lon.=19.122364, Alt.=1452.797852m. Speed=0.000000m/h.</desc>
<speed>0.000000</speed>
</trkpt>
<trkpt lat="43.154343" lon="19.122364">
<ele>1452.922852</ele>
<time>2012-05-01T15:39:54Z</time>
<desc>lat.=43.154343, lon.=19.122364, Alt.=1452.922852m. Speed=0.036000m/h.</desc>
<speed>0.010000</speed>
</trkpt>
<trkpt lat="43.154343" lon="19.122364">
<ele>1453.016602</ele>
<time>2012-05-01T15:39:59Z</time>
<desc>lat.=43.154343, lon.=19.122364, Alt.=1453.016602m. Speed=0.072000m/h.</desc>
<speed>0.020000</speed>
</trkpt>
<trkpt lat="43.154343" lon="19.122366">
<ele>1453.110352</ele>
<time>2012-05-01T15:40:04Z</time>
<desc>lat.=43.154343, lon.=19.122366, Alt.=1453.110352m. Speed=0.036000m/h.</desc>
<speed>0.010000</speed>
</trkpt>
<trkpt lat="43.154343" lon="19.122366">
<ele>1453.172852</ele>
<time>2012-05-01T15:40:09Z</time>
<desc>lat.=43.154343, lon.=19.122366, Alt.=1453.172852m. Speed=0.000000m/h.</desc>
<speed>0.000000</speed>
</trkpt>
<trkpt lat="43.154343" lon="19.122368">
<ele>1453.204102</ele>
<time>2012-05-01T15:40:14Z</time>
<desc>lat.=43.154343, lon.=19.122368, Alt.=1453.204102m. Speed=0.180000m/h.</desc>
<speed>0.050000</speed>
</trkpt>
<trkpt lat="43.154343" lon="19.122370">
<ele>1453.235352</ele>
<time>2012-05-01T15:40:19Z</time>
<desc>lat.=43.154343, lon.=19.122370, Alt.=1453.235352m. Speed=0.216000m/h.</desc>
<speed>0.060000</speed>
</trkpt>
<trkpt lat="43.154343" lon="19.122370">
<ele>1453.266602</ele>
<time>2012-05-01T15:40:24Z</time>
<desc>lat.=43.154343, lon.=19.122370, Alt.=1453.266602m. Speed=0.144000m/h.</desc>
<speed>0.040000</speed>
</trkpt>
<trkpt lat="43.154343" lon="19.122372">
<ele>1453.297852</ele>
<time>2012-05-01T15:40:29Z</time>
<desc>lat.=43.154343, lon.=19.122372, Alt.=1453.297852m. Speed=0.144000m/h.</desc>
<speed>0.040000</speed>
</trkpt>
<trkpt lat="43.154343" lon="19.122374">
<ele>1453.329102</ele>
<time>2012-05-01T15:40:34Z</time>
<desc>lat.=43.154343, lon.=19.122374, Alt.=1453.329102m. Speed=0.144000m/h.</desc>
<speed>0.040000</speed>
</trkpt>
<trkpt lat="43.154343" lon="19.122374">
<ele>1453.360352</ele>
<time>2012-05-01T15:40:39Z</time>
<desc>lat.=43.154343, lon.=19.122374, Alt.=1453.360352m. Speed=0.144000m/h.</desc>
<speed>0.040000</speed>
</trkpt>
<trkpt lat="43.154343" lon="19.122374">
<ele>1453.422852</ele>
<time>2012-05-01T15:40:44Z</time>
<desc>lat.=43.154343, lon.=19.122374, Alt.=1453.422852m. Speed=0.000000m/h.</desc>
<speed>0.000000</speed>
</trkpt>
<trkpt lat="43.154343" lon="19.122375">
<ele>1453.485352</ele>
<time>2012-05-01T15:40:49Z</time>
<desc>lat.=43.154343, lon.=19.122375, Alt.=1453.485352m. Speed=0.000000m/h.</desc>
<speed>0.000000</speed>
</trkpt>
<trkpt lat="43.154343" lon="19.122375">
<ele>1453.547852</ele>
<time>2012-05-01T15:40:54Z</time>
<desc>lat.=43.154343, lon.=19.122375, Alt.=1453.547852m. Speed=0.000000m/h.</desc>
<speed>0.000000</speed>
</trkpt>
<trkpt lat="43.154343" lon="19.122375">
<ele>1453.579102</ele>
<time>2012-05-01T15:40:59Z</time>
<desc>lat.=43.154343, lon.=19.122375, Alt.=1453.579102m. Speed=0.072000m/h.</desc>
<speed>0.020000</speed>
</trkpt>
<trkpt lat="43.154343" lon="19.122375">
<ele>1453.610352</ele>
<time>2012-05-01T15:41:04Z</time>
<desc>lat.=43.154343, lon.=19.122375, Alt.=1453.610352m. Speed=0.000000m/h.</desc>
<speed>0.000000</speed>
</trkpt>
<trkpt lat="43.154343" lon="19.122377">
<ele>1453.641602</ele>
<time>2012-05-01T15:41:09Z</time>
<desc>lat.=43.154343, lon.=19.122377, Alt.=1453.641602m. Speed=0.144000m/h.</desc>
<speed>0.040000</speed>
</trkpt>
<trkpt lat="43.154346" lon="19.122377">
<ele>1453.672852</ele>
<time>2012-05-01T15:41:14Z</time>
<desc>lat.=43.154346, lon.=19.122377, Alt.=1453.672852m. Speed=0.108000m/h.</desc>
<speed>0.030000</speed>
</trkpt>
<trkpt lat="43.154346" lon="19.122377">
<ele>1453.735352</ele>
<time>2012-05-01T15:41:19Z</time>
<desc>lat.=43.154346, lon.=19.122377, Alt.=1453.735352m. Speed=0.144000m/h.</desc>
<speed>0.040000</speed>
</trkpt>
<trkpt lat="43.154346" lon="19.122379">
<ele>1453.735352</ele>
<time>2012-05-01T15:41:24Z</time>
<desc>lat.=43.154346, lon.=19.122379, Alt.=1453.735352m. Speed=0.036000m/h.</desc>
<speed>0.010000</speed>
</trkpt>
<trkpt lat="43.154346" lon="19.122379">
<ele>1453.766602</ele>
<time>2012-05-01T15:41:29Z</time>
<desc>lat.=43.154346, lon.=19.122379, Alt.=1453.766602m. Speed=0.000000m/h.</desc>
<speed>0.000000</speed>
</trkpt>
<trkpt lat="43.154346" lon="19.122379">
<ele>1453.829102</ele>
<time>2012-05-01T15:41:34Z</time>
<desc>lat.=43.154346, lon.=19.122379, Alt.=1453.829102m. Speed=0.072000m/h.</desc>
<speed>0.020000</speed>
</trkpt>
<trkpt lat="43.154346" lon="19.122381">
<ele>1453.891602</ele>
<time>2012-05-01T15:41:39Z</time>
<desc>lat.=43.154346, lon.=19.122381, Alt.=1453.891602m. Speed=0.036000m/h.</desc>
<speed>0.010000</speed>
</trkpt>
<trkpt lat="43.154346" lon="19.122381">
<ele>1453.954102</ele>
<time>2012-05-01T15:41:44Z</time>
<desc>lat.=43.154346, lon.=19.122381, Alt.=1453.954102m. Speed=0.036000m/h.</desc>
<speed>0.010000</speed>
</trkpt>
<trkpt lat="43.154346" lon="19.122381">
<ele>1454.047852</ele>
<time>2012-05-01T15:41:49Z</time>
<desc>lat.=43.154346, lon.=19.122381, Alt.=1454.047852m. Speed=0.000000m/h.</desc>
<speed>0.000000</speed>
</trkpt>
<trkpt lat="43.154346" lon="19.122381">
<ele>1454.110352</ele>
<time>2012-05-01T15:41:54Z</time>
<desc>lat.=43.154346, lon.=19.122381, Alt.=1454.110352m. Speed=0.000000m/h.</desc>
<speed>0.000000</speed>
</trkpt>
<trkpt lat="43.154346" lon="19.122381">
<ele>1454.204102</ele>
<time>2012-05-01T15:41:59Z</time>
<desc>lat.=43.154346, lon.=19.122381, Alt.=1454.204102m. Speed=0.036000m/h.</desc>
<speed>0.010000</speed>
</trkpt>
<trkpt lat="43.154346" lon="19.122381">
<ele>1454.297852</ele>
<time>2012-05-01T15:42:04Z</time>
<desc>lat.=43.154346, lon.=19.122381, Alt.=1454.297852m. Speed=0.000000m/h.</desc>
<speed>0.000000</speed>
</trkpt>
<trkpt lat="43.154346" lon="19.122381">
<ele>1454.329102</ele>
<time>2012-05-01T15:42:09Z</time>
<desc>lat.=43.154346, lon.=19.122381, Alt.=1454.329102m. Speed=0.000000m/h.</desc>
<speed>0.000000</speed>
</trkpt>
<trkpt lat="43.154346" lon="19.122381">
<ele>1454.329102</ele>
<time>2012-05-01T15:42:14Z</time>
<desc>lat.=43.154346, lon.=19.122381, Alt.=1454.329102m. Speed=0.000000m/h.</desc>
<speed>0.000000</speed>
</trkpt>
<trkpt lat="43.154346" lon="19.122381">
<ele>1454.329102</ele>
<time>2012-05-01T15:42:19Z</time>
<desc>lat.=43.154346, lon.=19.122381, Alt.=1454.329102m. Speed=0.036000m/h.</desc>
<speed>0.010000</speed>
</trkpt>
<trkpt lat="43.154346" lon="19.122383">
<ele>1454.391602</ele>
<time>2012-05-01T15:42:24Z</time>
<desc>lat.=43.154346, lon.=19.122383, Alt.=1454.391602m. Speed=0.108000m/h.</desc>
<speed>0.030000</speed>
</trkpt>
<trkpt lat="43.154346" lon="19.122383">
<ele>1454.422852</ele>
<time>2012-05-01T15:42:29Z</time>
<desc>lat.=43.154346, lon.=19.122383, Alt.=1454.422852m. Speed=0.036000m/h.</desc>
<speed>0.010000</speed>
</trkpt>
<trkpt lat="43.154346" lon="19.122383">
<ele>1454.485352</ele>
<time>2012-05-01T15:42:34Z</time>
<desc>lat.=43.154346, lon.=19.122383, Alt.=1454.485352m. Speed=0.072000m/h.</desc>
<speed>0.020000</speed>
</trkpt>
<trkpt lat="43.154346" lon="19.122383">
<ele>1454.610352</ele>
<time>2012-05-01T15:42:39Z</time>
<desc>lat.=43.154346, lon.=19.122383, Alt.=1454.610352m. Speed=0.036000m/h.</desc>
<speed>0.010000</speed>
</trkpt>
<trkpt lat="43.154346" lon="19.122383">
<ele>1454.641602</ele>
<time>2012-05-01T15:42:44Z</time>
<desc>lat.=43.154346, lon.=19.122383, Alt.=1454.641602m. Speed=0.072000m/h.</desc>
<speed>0.020000</speed>
</trkpt>
<trkpt lat="43.154346" lon="19.122383">
<ele>1454.672852</ele>
<time>2012-05-01T15:42:49Z</time>
<desc>lat.=43.154346, lon.=19.122383, Alt.=1454.672852m. Speed=0.000000m/h.</desc>
<speed>0.000000</speed>
</trkpt>
<trkpt lat="43.154346" lon="19.122383">
<ele>1454.735352</ele>
<time>2012-05-01T15:42:54Z</time>
<desc>lat.=43.154346, lon.=19.122383, Alt.=1454.735352m. Speed=0.000000m/h.</desc>
<speed>0.000000</speed>
</trkpt>
<trkpt lat="43.154346" lon="19.122383">
<ele>1454.797852</ele>
<time>2012-05-01T15:42:59Z</time>
<desc>lat.=43.154346, lon.=19.122383, Alt.=1454.797852m. Speed=0.036000m/h.</desc>
<speed>0.010000</speed>
</trkpt>
<trkpt lat="43.154346" lon="19.122383">
<ele>1454.860352</ele>
<time>2012-05-01T15:43:04Z</time>
<desc>lat.=43.154346, lon.=19.122383, Alt.=1454.860352m. Speed=0.000000m/h.</desc>
<speed>0.000000</speed>
</trkpt>
<trkpt lat="43.154346" lon="19.122383">
<ele>1454.891602</ele>
<time>2012-05-01T15:43:09Z</time>
<desc>lat.=43.154346, lon.=19.122383, Alt.=1454.891602m. Speed=0.000000m/h.</desc>
<speed>0.000000</speed>
</trkpt>
<trkpt lat="43.154346" lon="19.122383">
<ele>1454.891602</ele>
<time>2012-05-01T15:43:14Z</time>
<desc>lat.=43.154346, lon.=19.122383, Alt.=1454.891602m. Speed=0.000000m/h.</desc>
<speed>0.000000</speed>
</trkpt>
<trkpt lat="43.154346" lon="19.122383">
<ele>1454.860352</ele>
<time>2012-05-01T15:43:19Z</time>
<desc>lat.=43.154346, lon.=19.122383, Alt.=1454.860352m. Speed=0.000000m/h.</desc>
<speed>0.000000</speed>
</trkpt>
<trkpt lat="43.154346" lon="19.122383">
<ele>1454.829102</ele>
<time>2012-05-01T15:43:24Z</time>
<desc>lat.=43.154346, lon.=19.122383, Alt.=1454.829102m. Speed=0.000000m/h.</desc>
<speed>0.000000</speed>
</trkpt>
<trkpt lat="43.154346" lon="19.122383">
<ele>1454.829102</ele>
<time>2012-05-01T15:43:29Z</time>
<desc>lat.=43.154346, lon.=19.122383, Alt.=1454.829102m. Speed=0.000000m/h.</desc>
<speed>0.000000</speed>
</trkpt>
<trkpt lat="43.154346" lon="19.122383">
<ele>1454.860352</ele>
<time>2012-05-01T15:43:34Z</time>
<desc>lat.=43.154346, lon.=19.122383, Alt.=1454.860352m. Speed=0.000000m/h.</desc>
<speed>0.000000</speed>
</trkpt>
<trkpt lat="43.154346" lon="19.122383">
<ele>1454.891602</ele>
<time>2012-05-01T15:43:39Z</time>
<desc>lat.=43.154346, lon.=19.122383, Alt.=1454.891602m. Speed=0.036000m/h.</desc>
<speed>0.010000</speed>
</trkpt>
<trkpt lat="43.154346" lon="19.122385">
<ele>1454.922852</ele>
<time>2012-05-01T15:43:44Z</time>
<desc>lat.=43.154346, lon.=19.122385, Alt.=1454.922852m. Speed=0.072000m/h.</desc>
<speed>0.020000</speed>
</trkpt>
<trkpt lat="43.154346" lon="19.122385">
<ele>1454.891602</ele>
<time>2012-05-01T15:43:49Z</time>
<desc>lat.=43.154346, lon.=19.122385, Alt.=1454.891602m. Speed=0.108000m/h.</desc>
<speed>0.030000</speed>
</trkpt>
<trkpt lat="43.154346" lon="19.122385">
<ele>1454.829102</ele>
<time>2012-05-01T15:43:54Z</time>
<desc>lat.=43.154346, lon.=19.122385, Alt.=1454.829102m. Speed=0.000000m/h.</desc>
<speed>0.000000</speed>
</trkpt>
<trkpt lat="43.154346" lon="19.122385">
<ele>1454.797852</ele>
<time>2012-05-01T15:43:59Z</time>
<desc>lat.=43.154346, lon.=19.122385, Alt.=1454.797852m. Speed=0.000000m/h.</desc>
<speed>0.000000</speed>
</trkpt>
<trkpt lat="43.154346" lon="19.122387">
<ele>1454.766602</ele>
<time>2012-05-01T15:44:04Z</time>
<desc>lat.=43.154346, lon.=19.122387, Alt.=1454.766602m. Speed=0.072000m/h.</desc>
<speed>0.020000</speed>
</trkpt>
<trkpt lat="43.154346" lon="19.122387">
<ele>1454.797852</ele>
<time>2012-05-01T15:44:09Z</time>
<desc>lat.=43.154346, lon.=19.122387, Alt.=1454.797852m. Speed=0.072000m/h.</desc>
<speed>0.020000</speed>
</trkpt>
<trkpt lat="43.154346" lon="19.122387">
<ele>1454.829102</ele>
<time>2012-05-01T15:44:14Z</time>
<desc>lat.=43.154346, lon.=19.122387, Alt.=1454.829102m. Speed=0.108000m/h.</desc>
<speed>0.030000</speed>
</trkpt>
<trkpt lat="43.154346" lon="19.122389">
<ele>1454.829102</ele>
<time>2012-05-01T15:44:19Z</time>
<desc>lat.=43.154346, lon.=19.122389, Alt.=1454.829102m. Speed=0.000000m/h.</desc>
<speed>0.000000</speed>
</trkpt>
<trkpt lat="43.154346" lon="19.122389">
<ele>1454.766602</ele>
<time>2012-05-01T15:44:24Z</time>
<desc>lat.=43.154346, lon.=19.122389, Alt.=1454.766602m. Speed=0.036000m/h.</desc>
<speed>0.010000</speed>
</trkpt>
<trkpt lat="43.154350" lon="19.122389">
<ele>1454.735352</ele>
<time>2012-05-01T15:44:29Z</time>
<desc>lat.=43.154350, lon.=19.122389, Alt.=1454.735352m. Speed=0.000000m/h.</desc>
<speed>0.000000</speed>
</trkpt>
<trkpt lat="43.154350" lon="19.122389">
<ele>1454.704102</ele>
<time>2012-05-01T15:44:34Z</time>
<desc>lat.=43.154350, lon.=19.122389, Alt.=1454.704102m. Speed=0.000000m/h.</desc>
<speed>0.000000</speed>
</trkpt>
<trkpt lat="43.154350" lon="19.122389">
<ele>1454.766602</ele>
<time>2012-05-01T15:44:39Z</time>
<desc>lat.=43.154350, lon.=19.122389, Alt.=1454.766602m. Speed=0.000000m/h.</desc>
<speed>0.000000</speed>
</trkpt>
<trkpt lat="43.154350" lon="19.122389">
<ele>1454.829102</ele>
<time>2012-05-01T15:44:44Z</time>
<desc>lat.=43.154350, lon.=19.122389, Alt.=1454.829102m. Speed=0.000000m/h.</desc>
<speed>0.000000</speed>
</trkpt>
<trkpt lat="43.154350" lon="19.122389">
<ele>1454.860352</ele>
<time>2012-05-01T15:44:49Z</time>
<desc>lat.=43.154350, lon.=19.122389, Alt.=1454.860352m. Speed=0.036000m/h.</desc>
<speed>0.010000</speed>
</trkpt>
<trkpt lat="43.154350" lon="19.122389">
<ele>1454.891602</ele>
<time>2012-05-01T15:44:54Z</time>
<desc>lat.=43.154350, lon.=19.122389, Alt.=1454.891602m. Speed=0.036000m/h.</desc>
<speed>0.010000</speed>
</trkpt>
<trkpt lat="43.154350" lon="19.122389">
<ele>1454.891602</ele>
<time>2012-05-01T15:44:59Z</time>
<desc>lat.=43.154350, lon.=19.122389, Alt.=1454.891602m. Speed=0.072000m/h.</desc>
<speed>0.020000</speed>
</trkpt>
<trkpt lat="43.154350" lon="19.122391">
<ele>1454.860352</ele>
<time>2012-05-01T15:45:04Z</time>
<desc>lat.=43.154350, lon.=19.122391, Alt.=1454.860352m. Speed=0.036000m/h.</desc>
<speed>0.010000</speed>
</trkpt>
<trkpt lat="43.154350" lon="19.122391">
<ele>1454.860352</ele>
<time>2012-05-01T15:45:09Z</time>
<desc>lat.=43.154350, lon.=19.122391, Alt.=1454.860352m. Speed=0.036000m/h.</desc>
<speed>0.010000</speed>
</trkpt>
<trkpt lat="43.154350" lon="19.122391">
<ele>1454.891602</ele>
<time>2012-05-01T15:45:14Z</time>
<desc>lat.=43.154350, lon.=19.122391, Alt.=1454.891602m. Speed=0.000000m/h.</desc>
<speed>0.000000</speed>
</trkpt>
<trkpt lat="43.154350" lon="19.122391">
<ele>1454.954102</ele>
<time>2012-05-01T15:45:19Z</time>
<desc>lat.=43.154350, lon.=19.122391, Alt.=1454.954102m. Speed=0.108000m/h.</desc>
<speed>0.030000</speed>
</trkpt>
<trkpt lat="43.154350" lon="19.122389">
<ele>1455.016602</ele>
<time>2012-05-01T15:45:24Z</time>
<desc>lat.=43.154350, lon.=19.122389, Alt.=1455.016602m. Speed=0.000000m/h.</desc>
<speed>0.000000</speed>
</trkpt>
<trkpt lat="43.154350" lon="19.122389">
<ele>1455.079102</ele>
<time>2012-05-01T15:45:29Z</time>
<desc>lat.=43.154350, lon.=19.122389, Alt.=1455.079102m. Speed=0.072000m/h.</desc>
<speed>0.020000</speed>
</trkpt>
<trkpt lat="43.154350" lon="19.122389">
<ele>1455.110352</ele>
<time>2012-05-01T15:45:34Z</time>
<desc>lat.=43.154350, lon.=19.122389, Alt.=1455.110352m. Speed=0.000000m/h.</desc>
<speed>0.000000</speed>
</trkpt>
<trkpt lat="43.154350" lon="19.122389">
<ele>1455.110352</ele>
<time>2012-05-01T15:45:39Z</time>
<desc>lat.=43.154350, lon.=19.122389, Alt.=1455.110352m. Speed=0.072000m/h.</desc>
<speed>0.020000</speed>
</trkpt>
<trkpt lat="43.154350" lon="19.122391">
<ele>1455.141602</ele>
<time>2012-05-01T15:45:44Z</time>
<desc>lat.=43.154350, lon.=19.122391, Alt.=1455.141602m. Speed=0.000000m/h.</desc>
<speed>0.000000</speed>
</trkpt>
<trkpt lat="43.154350" lon="19.122389">
<ele>1455.141602</ele>
<time>2012-05-01T15:45:49Z</time>
<desc>lat.=43.154350, lon.=19.122389, Alt.=1455.141602m. Speed=0.036000m/h.</desc>
<speed>0.010000</speed>
</trkpt>
<trkpt lat="43.154350" lon="19.122389">
<ele>1455.172852</ele>
<time>2012-05-01T15:45:54Z</time>
<desc>lat.=43.154350, lon.=19.122389, Alt.=1455.172852m. Speed=0.000000m/h.</desc>
<speed>0.000000</speed>
</trkpt>
<trkpt lat="43.154350" lon="19.122391">
<ele>1455.172852</ele>
<time>2012-05-01T15:45:59Z</time>
<desc>lat.=43.154350, lon.=19.122391, Alt.=1455.172852m. Speed=0.000000m/h.</desc>
<speed>0.000000</speed>
</trkpt>
<trkpt lat="43.154350" lon="19.122389">
<ele>1455.204102</ele>
<time>2012-05-01T15:46:04Z</time>
<desc>lat.=43.154350, lon.=19.122389, Alt.=1455.204102m. Speed=0.036000m/h.</desc>
<speed>0.010000</speed>
</trkpt>
<trkpt lat="43.154350" lon="19.122389">
<ele>1455.266602</ele>
<time>2012-05-01T15:46:09Z</time>
<desc>lat.=43.154350, lon.=19.122389, Alt.=1455.266602m. Speed=0.036000m/h.</desc>
<speed>0.010000</speed>
</trkpt>
<trkpt lat="43.154350" lon="19.122389">
<ele>1455.235352</ele>
<time>2012-05-01T15:46:14Z</time>
<desc>lat.=43.154350, lon.=19.122389, Alt.=1455.235352m. Speed=0.036000m/h.</desc>
<speed>0.010000</speed>
</trkpt>
<trkpt lat="43.154350" lon="19.122389">
<ele>1455.172852</ele>
<time>2012-05-01T15:46:19Z</time>
<desc>lat.=43.154350, lon.=19.122389, Alt.=1455.172852m. Speed=0.036000m/h.</desc>
<speed>0.010000</speed>
</trkpt>
<trkpt lat="43.154350" lon="19.122389">
<ele>1455.172852</ele>
<time>2012-05-01T15:46:24Z</time>
<desc>lat.=43.154350, lon.=19.122389, Alt.=1455.172852m. Speed=0.000000m/h.</desc>
<speed>0.000000</speed>
</trkpt>
<trkpt lat="43.154350" lon="19.122389">
<ele>1455.266602</ele>
<time>2012-05-01T15:46:29Z</time>
<desc>lat.=43.154350, lon.=19.122389, Alt.=1455.266602m. Speed=0.108000m/h.</desc>
<speed>0.030000</speed>
</trkpt>
<trkpt lat="43.154350" lon="19.122389">
<ele>1455.329102</ele>
<time>2012-05-01T15:46:34Z</time>
<desc>lat.=43.154350, lon.=19.122389, Alt.=1455.329102m. Speed=0.036000m/h.</desc>
<speed>0.010000</speed>
</trkpt>
<trkpt lat="43.154350" lon="19.122389">
<ele>1455.422852</ele>
<time>2012-05-01T15:46:39Z</time>
<desc>lat.=43.154350, lon.=19.122389, Alt.=1455.422852m. Speed=0.108000m/h.</desc>
<speed>0.030000</speed>
</trkpt>
<trkpt lat="43.154350" lon="19.122389">
<ele>1455.485352</ele>
<time>2012-05-01T15:46:44Z</time>
<desc>lat.=43.154350, lon.=19.122389, Alt.=1455.485352m. Speed=0.036000m/h.</desc>
<speed>0.010000</speed>
</trkpt>
<trkpt lat="43.154350" lon="19.122389">
<ele>1455.547852</ele>
<time>2012-05-01T15:46:49Z</time>
<desc>lat.=43.154350, lon.=19.122389, Alt.=1455.547852m. Speed=0.000000m/h.</desc>
<speed>0.000000</speed>
</trkpt>
<trkpt lat="43.154350" lon="19.122389">
<ele>1455.610352</ele>
<time>2012-05-01T15:46:54Z</time>
<desc>lat.=43.154350, lon.=19.122389, Alt.=1455.610352m. Speed=0.000000m/h.</desc>
<speed>0.000000</speed>
</trkpt>
<trkpt lat="43.154350" lon="19.122387">
<ele>1455.672852</ele>
<time>2012-05-01T15:46:59Z</time>
<desc>lat.=43.154350, lon.=19.122387, Alt.=1455.672852m. Speed=0.072000m/h.</desc>
<speed>0.020000</speed>
</trkpt>
<trkpt lat="43.154346" lon="19.122387">
<ele>1455.735352</ele>
<time>2012-05-01T15:47:04Z</time>
<desc>lat.=43.154346, lon.=19.122387, Alt.=1455.735352m. Speed=0.108000m/h.</desc>
<speed>0.030000</speed>
</trkpt>
<trkpt lat="43.154346" lon="19.122387">
<ele>1455.829102</ele>
<time>2012-05-01T15:47:09Z</time>
<desc>lat.=43.154346, lon.=19.122387, Alt.=1455.829102m. Speed=0.036000m/h.</desc>
<speed>0.010000</speed>
</trkpt>
<trkpt lat="43.154346" lon="19.122387">
<ele>1455.922852</ele>
<time>2012-05-01T15:47:14Z</time>
<desc>lat.=43.154346, lon.=19.122387, Alt.=1455.922852m. Speed=0.144000m/h.</desc>
<speed>0.040000</speed>
</trkpt>
<trkpt lat="43.154346" lon="19.122387">
<ele>1455.954102</ele>
<time>2012-05-01T15:47:19Z</time>
<desc>lat.=43.154346, lon.=19.122387, Alt.=1455.954102m. Speed=0.000000m/h.</desc>
<speed>0.000000</speed>
</trkpt>
<trkpt lat="43.154346" lon="19.122387">
<ele>1455.985352</ele>
<time>2012-05-01T15:47:24Z</time>
<desc>lat.=43.154346, lon.=19.122387, Alt.=1455.985352m. Speed=0.072000m/h.</desc>
<speed>0.020000</speed>
</trkpt>
<trkpt lat="43.154346" lon="19.122387">
<ele>1456.016602</ele>
<time>2012-05-01T15:47:29Z</time>
<desc>lat.=43.154346, lon.=19.122387, Alt.=1456.016602m. Speed=0.072000m/h.</desc>
<speed>0.020000</speed>
</trkpt>
<trkpt lat="43.154346" lon="19.122387">
<ele>1456.047852</ele>
<time>2012-05-01T15:47:34Z</time>
<desc>lat.=43.154346, lon.=19.122387, Alt.=1456.047852m. Speed=0.036000m/h.</desc>
<speed>0.010000</speed>
</trkpt>
<trkpt lat="43.154346" lon="19.122387">
<ele>1456.047852</ele>
<time>2012-05-01T15:47:39Z</time>
<desc>lat.=43.154346, lon.=19.122387, Alt.=1456.047852m. Speed=0.072000m/h.</desc>
<speed>0.020000</speed>
</trkpt>
<trkpt lat="43.154346" lon="19.122387">
<ele>1456.110352</ele>
<time>2012-05-01T15:47:44Z</time>
<desc>lat.=43.154346, lon.=19.122387, Alt.=1456.110352m. Speed=0.000000m/h.</desc>
<speed>0.000000</speed>
</trkpt>
<trkpt lat="43.154346" lon="19.122387">
<ele>1456.141602</ele>
<time>2012-05-01T15:47:49Z</time>
<desc>lat.=43.154346, lon.=19.122387, Alt.=1456.141602m. Speed=0.036000m/h.</desc>
<speed>0.010000</speed>
</trkpt>
<trkpt lat="43.154346" lon="19.122385">
<ele>1456.172852</ele>
<time>2012-05-01T15:47:54Z</time>
<desc>lat.=43.154346, lon.=19.122385, Alt.=1456.172852m. Speed=0.144000m/h.</desc>
<speed>0.040000</speed>
</trkpt>
<trkpt lat="43.154346" lon="19.122385">
<ele>1456.204102</ele>
<time>2012-05-01T15:47:59Z</time>
<desc>lat.=43.154346, lon.=19.122385, Alt.=1456.204102m. Speed=0.180000m/h.</desc>
<speed>0.050000</speed>
</trkpt>
<trkpt lat="43.154346" lon="19.122385">
<ele>1456.235352</ele>
<time>2012-05-01T15:48:04Z</time>
<desc>lat.=43.154346, lon.=19.122385, Alt.=1456.235352m. Speed=0.144000m/h.</desc>
<speed>0.040000</speed>
</trkpt>
<trkpt lat="43.154346" lon="19.122385">
<ele>1456.297852</ele>
<time>2012-05-01T15:48:09Z</time>
<desc>lat.=43.154346, lon.=19.122385, Alt.=1456.297852m. Speed=0.144000m/h.</desc>
<speed>0.040000</speed>
</trkpt>
<trkpt lat="43.154346" lon="19.122383">
<ele>1456.391602</ele>
<time>2012-05-01T15:48:14Z</time>
<desc>lat.=43.154346, lon.=19.122383, Alt.=1456.391602m. Speed=0.144000m/h.</desc>
<speed>0.040000</speed>
</trkpt>
<trkpt lat="43.154350" lon="19.122383">
<ele>1456.454102</ele>
<time>2012-05-01T15:48:19Z</time>
<desc>lat.=43.154350, lon.=19.122383, Alt.=1456.454102m. Speed=0.000000m/h.</desc>
<speed>0.000000</speed>
</trkpt>
<trkpt lat="43.154350" lon="19.122383">
<ele>1456.391602</ele>
<time>2012-05-01T15:48:24Z</time>
<desc>lat.=43.154350, lon.=19.122383, Alt.=1456.391602m. Speed=0.108000m/h.</desc>
<speed>0.030000</speed>
</trkpt>
<trkpt lat="43.154350" lon="19.122383">
<ele>1456.329102</ele>
<time>2012-05-01T15:48:29Z</time>
<desc>lat.=43.154350, lon.=19.122383, Alt.=1456.329102m. Speed=0.000000m/h.</desc>
<speed>0.000000</speed>
</trkpt>
<trkpt lat="43.154350" lon="19.122381">
<ele>1456.297852</ele>
<time>2012-05-01T15:48:34Z</time>
<desc>lat.=43.154350, lon.=19.122381, Alt.=1456.297852m. Speed=0.072000m/h.</desc>
<speed>0.020000</speed>
</trkpt>
<trkpt lat="43.154350" lon="19.122383">
<ele>1456.329102</ele>
<time>2012-05-01T15:48:39Z</time>
<desc>lat.=43.154350, lon.=19.122383, Alt.=1456.329102m. Speed=0.072000m/h.</desc>
<speed>0.020000</speed>
</trkpt>
<trkpt lat="43.154350" lon="19.122383">
<ele>1456.360352</ele>
<time>2012-05-01T15:48:44Z</time>
<desc>lat.=43.154350, lon.=19.122383, Alt.=1456.360352m. Speed=0.036000m/h.</desc>
<speed>0.010000</speed>
</trkpt>
<trkpt lat="43.154350" lon="19.122383">
<ele>1456.422852</ele>
<time>2012-05-01T15:48:49Z</time>
<desc>lat.=43.154350, lon.=19.122383, Alt.=1456.422852m. Speed=0.036000m/h.</desc>
<speed>0.010000</speed>
</trkpt>
<trkpt lat="43.154350" lon="19.122383">
<ele>1456.485352</ele>
<time>2012-05-01T15:48:54Z</time>
<desc>lat.=43.154350, lon.=19.122383, Alt.=1456.485352m. Speed=0.036000m/h.</desc>
<speed>0.010000</speed>
</trkpt>
<trkpt lat="43.154350" lon="19.122383">
<ele>1456.485352</ele>
<time>2012-05-01T15:48:59Z</time>
<desc>lat.=43.154350, lon.=19.122383, Alt.=1456.485352m. Speed=0.072000m/h.</desc>
<speed>0.020000</speed>
</trkpt>
<trkpt lat="43.154350" lon="19.122383">
<ele>1456.485352</ele>
<time>2012-05-01T15:49:04Z</time>
<desc>lat.=43.154350, lon.=19.122383, Alt.=1456.485352m. Speed=0.144000m/h.</desc>
<speed>0.040000</speed>
</trkpt>
<trkpt lat="43.154350" lon="19.122383">
<ele>1456.516602</ele>
<time>2012-05-01T15:49:09Z</time>
<desc>lat.=43.154350, lon.=19.122383, Alt.=1456.516602m. Speed=0.108000m/h.</desc>
<speed>0.030000</speed>
</trkpt>
<trkpt lat="43.154350" lon="19.122381">
<ele>1456.516602</ele>
<time>2012-05-01T15:49:14Z</time>
<desc>lat.=43.154350, lon.=19.122381, Alt.=1456.516602m. Speed=0.000000m/h.</desc>
<speed>0.000000</speed>
</trkpt>
<trkpt lat="43.154350" lon="19.122381">
<ele>1456.579102</ele>
<time>2012-05-01T15:49:19Z</time>
<desc>lat.=43.154350, lon.=19.122381, Alt.=1456.579102m. Speed=0.036000m/h.</desc>
<speed>0.010000</speed>
</trkpt>
<trkpt lat="43.154350" lon="19.122381">
<ele>1456.672852</ele>
<time>2012-05-01T15:49:24Z</time>
<desc>lat.=43.154350, lon.=19.122381, Alt.=1456.672852m. Speed=0.144000m/h.</desc>
<speed>0.040000</speed>
</trkpt>
<trkpt lat="43.154350" lon="19.122379">
<ele>1456.766602</ele>
<time>2012-05-01T15:49:29Z</time>
<desc>lat.=43.154350, lon.=19.122379, Alt.=1456.766602m. Speed=0.036000m/h.</desc>
<speed>0.010000</speed>
</trkpt>
<trkpt lat="43.154350" lon="19.122379">
<ele>1456.829102</ele>
<time>2012-05-01T15:49:34Z</time>
<desc>lat.=43.154350, lon.=19.122379, Alt.=1456.829102m. Speed=0.036000m/h.</desc>
<speed>0.010000</speed>
</trkpt>
<trkpt lat="43.154350" lon="19.122379">
<ele>1456.922852</ele>
<time>2012-05-01T15:49:39Z</time>
<desc>lat.=43.154350, lon.=19.122379, Alt.=1456.922852m. Speed=0.108000m/h.</desc>
<speed>0.030000</speed>
</trkpt>
<trkpt lat="43.154350" lon="19.122379">
<ele>1456.954102</ele>
<time>2012-05-01T15:49:44Z</time>
<desc>lat.=43.154350, lon.=19.122379, Alt.=1456.954102m. Speed=0.108000m/h.</desc>
<speed>0.030000</speed>
</trkpt>
<trkpt lat="43.154346" lon="19.122379">
<ele>1456.985352</ele>
<time>2012-05-01T15:49:49Z</time>
<desc>lat.=43.154346, lon.=19.122379, Alt.=1456.985352m. Speed=0.072000m/h.</desc>
<speed>0.020000</speed>
</trkpt>
<trkpt lat="43.154346" lon="19.122379">
<ele>1456.985352</ele>
<time>2012-05-01T15:49:54Z</time>
<desc>lat.=43.154346, lon.=19.122379, Alt.=1456.985352m. Speed=0.000000m/h.</desc>
<speed>0.000000</speed>
</trkpt>
<trkpt lat="43.154346" lon="19.122379">
<ele>1456.985352</ele>
<time>2012-05-01T15:49:59Z</time>
<desc>lat.=43.154346, lon.=19.122379, Alt.=1456.985352m. Speed=0.108000m/h.</desc>
<speed>0.030000</speed>
</trkpt>
<trkpt lat="43.154350" lon="19.122379">
<ele>1457.047852</ele>
<time>2012-05-01T15:50:04Z</time>
<desc>lat.=43.154350, lon.=19.122379, Alt.=1457.047852m. Speed=0.108000m/h.</desc>
<speed>0.030000</speed>
</trkpt>
<trkpt lat="43.154350" lon="19.122379">
<ele>1457.079102</ele>
<time>2012-05-01T15:50:09Z</time>
<desc>lat.=43.154350, lon.=19.122379, Alt.=1457.079102m. Speed=0.108000m/h.</desc>
<speed>0.030000</speed>
</trkpt>
<trkpt lat="43.154350" lon="19.122379">
<ele>1457.141602</ele>
<time>2012-05-01T15:50:14Z</time>
<desc>lat.=43.154350, lon.=19.122379, Alt.=1457.141602m. Speed=0.036000m/h.</desc>
<speed>0.010000</speed>
</trkpt>
<trkpt lat="43.154350" lon="19.122379">
<ele>1457.172852</ele>
<time>2012-05-01T15:50:19Z</time>
<desc>lat.=43.154350, lon.=19.122379, Alt.=1457.172852m. Speed=0.072000m/h.</desc>
<speed>0.020000</speed>
</trkpt>
<trkpt lat="43.154350" lon="19.122379">
<ele>1457.235352</ele>
<time>2012-05-01T15:50:24Z</time>
<desc>lat.=43.154350, lon.=19.122379, Alt.=1457.235352m. Speed=0.036000m/h.</desc>
<speed>0.010000</speed>
</trkpt>
<trkpt lat="43.154350" lon="19.122379">
<ele>1457.266602</ele>
<time>2012-05-01T15:50:29Z</time>
<desc>lat.=43.154350, lon.=19.122379, Alt.=1457.266602m. Speed=0.108000m/h.</desc>
<speed>0.030000</speed>
</trkpt>
<trkpt lat="43.154350" lon="19.122379">
<ele>1457.297852</ele>
<time>2012-05-01T15:50:34Z</time>
<desc>lat.=43.154350, lon.=19.122379, Alt.=1457.297852m. Speed=0.072000m/h.</desc>
<speed>0.020000</speed>
</trkpt>
<trkpt lat="43.154350" lon="19.122379">
<ele>1457.297852</ele>
<time>2012-05-01T15:50:39Z</time>
<desc>lat.=43.154350, lon.=19.122379, Alt.=1457.297852m. Speed=0.000000m/h.</desc>
<speed>0.000000</speed>
</trkpt>
<trkpt lat="43.154350" lon="19.122379">
<ele>1457.297852</ele>
<time>2012-05-01T15:50:44Z</time>
<desc>lat.=43.154350, lon.=19.122379, Alt.=1457.297852m. Speed=0.036000m/h.</desc>
<speed>0.010000</speed>
</trkpt>
<trkpt lat="43.154350" lon="19.122379">
<ele>1457.297852</ele>
<time>2012-05-01T15:50:49Z</time>
<desc>lat.=43.154350, lon.=19.122379, Alt.=1457.297852m. Speed=0.036000m/h.</desc>
<speed>0.010000</speed>
</trkpt>
<trkpt lat="43.154350" lon="19.122379">
<ele>1457.360352</ele>
<time>2012-05-01T15:50:54Z</time>
<desc>lat.=43.154350, lon.=19.122379, Alt.=1457.360352m. Speed=0.036000m/h.</desc>
<speed>0.010000</speed>
</trkpt>
<trkpt lat="43.154350" lon="19.122379">
<ele>1457.422852</ele>
<time>2012-05-01T15:50:59Z</time>
<desc>lat.=43.154350, lon.=19.122379, Alt.=1457.422852m. Speed=0.036000m/h.</desc>
<speed>0.010000</speed>
</trkpt>
<trkpt lat="43.154350" lon="19.122379">
<ele>1457.454102</ele>
<time>2012-05-01T15:51:04Z</time>
<desc>lat.=43.154350, lon.=19.122379, Alt.=1457.454102m. Speed=0.036000m/h.</desc>
<speed>0.010000</speed>
</trkpt>
<trkpt lat="43.154350" lon="19.122377">
<ele>1457.547852</ele>
<time>2012-05-01T15:51:09Z</time>
<desc>lat.=43.154350, lon.=19.122377, Alt.=1457.547852m. Speed=0.000000m/h.</desc>
<speed>0.000000</speed>
</trkpt>
<trkpt lat="43.154350" lon="19.122377">
<ele>1457.610352</ele>
<time>2012-05-01T15:51:14Z</time>
<desc>lat.=43.154350, lon.=19.122377, Alt.=1457.610352m. Speed=0.072000m/h.</desc>
<speed>0.020000</speed>
</trkpt>
<trkpt lat="43.154350" lon="19.122377">
<ele>1457.704102</ele>
<time>2012-05-01T15:51:19Z</time>
<desc>lat.=43.154350, lon.=19.122377, Alt.=1457.704102m. Speed=0.144000m/h.</desc>
<speed>0.040000</speed>
</trkpt>
<trkpt lat="43.154350" lon="19.122375">
<ele>1457.766602</ele>
<time>2012-05-01T15:51:24Z</time>
<desc>lat.=43.154350, lon.=19.122375, Alt.=1457.766602m. Speed=0.036000m/h.</desc>
<speed>0.010000</speed>
</trkpt>
<trkpt lat="43.154350" lon="19.122375">
<ele>1457.829102</ele>
<time>2012-05-01T15:51:29Z</time>
<desc>lat.=43.154350, lon.=19.122375, Alt.=1457.829102m. Speed=0.072000m/h.</desc>
<speed>0.020000</speed>
</trkpt>
<trkpt lat="43.154350" lon="19.122375">
<ele>1457.860352</ele>
<time>2012-05-01T15:51:34Z</time>
<desc>lat.=43.154350, lon.=19.122375, Alt.=1457.860352m. Speed=0.036000m/h.</desc>
<speed>0.010000</speed>
</trkpt>
<trkpt lat="43.154350" lon="19.122375">
<ele>1457.891602</ele>
<time>2012-05-01T15:51:39Z</time>
<desc>lat.=43.154350, lon.=19.122375, Alt.=1457.891602m. Speed=0.144000m/h.</desc>
<speed>0.040000</speed>
</trkpt>
<trkpt lat="43.154350" lon="19.122374">
<ele>1457.922852</ele>
<time>2012-05-01T15:51:44Z</time>
<desc>lat.=43.154350, lon.=19.122374, Alt.=1457.922852m. Speed=0.036000m/h.</desc>
<speed>0.010000</speed>
</trkpt>
<trkpt lat="43.154350" lon="19.122375">
<ele>1457.954102</ele>
<time>2012-05-01T15:51:49Z</time>
<desc>lat.=43.154350, lon.=19.122375, Alt.=1457.954102m. Speed=0.180000m/h.</desc>
<speed>0.050000</speed>
</trkpt>
<trkpt lat="43.154346" lon="19.122375">
<ele>1458.047852</ele>
<time>2012-05-01T15:51:54Z</time>
<desc>lat.=43.154346, lon.=19.122375, Alt.=1458.047852m. Speed=0.000000m/h.</desc>
<speed>0.000000</speed>
</trkpt>
<trkpt lat="43.154346" lon="19.122375">
<ele>1458.047852</ele>
<time>2012-05-01T15:51:59Z</time>
<desc>lat.=43.154346, lon.=19.122375, Alt.=1458.047852m. Speed=0.180000m/h.</desc>
<speed>0.050000</speed>
</trkpt>
<trkpt lat="43.154346" lon="19.122375">
<ele>1458.110352</ele>
<time>2012-05-01T15:52:04Z</time>
<desc>lat.=43.154346, lon.=19.122375, Alt.=1458.110352m. Speed=0.072000m/h.</desc>
<speed>0.020000</speed>
</trkpt>
<trkpt lat="43.154346" lon="19.122375">
<ele>1458.141602</ele>
<time>2012-05-01T15:52:09Z</time>
<desc>lat.=43.154346, lon.=19.122375, Alt.=1458.141602m. Speed=0.036000m/h.</desc>
<speed>0.010000</speed>
</trkpt>
<trkpt lat="43.154346" lon="19.122374">
<ele>1458.172852</ele>
<time>2012-05-01T15:52:14Z</time>
<desc>lat.=43.154346, lon.=19.122374, Alt.=1458.172852m. Speed=0.072000m/h.</desc>
<speed>0.020000</speed>
</trkpt>
<trkpt lat="43.154346" lon="19.122374">
<ele>1458.141602</ele>
<time>2012-05-01T15:52:19Z</time>
<desc>lat.=43.154346, lon.=19.122374, Alt.=1458.141602m. Speed=0.072000m/h.</desc>
<speed>0.020000</speed>
</trkpt>
<trkpt lat="43.154346" lon="19.122372">
<ele>1458.110352</ele>
<time>2012-05-01T15:52:24Z</time>
<desc>lat.=43.154346, lon.=19.122372, Alt.=1458.110352m. Speed=0.072000m/h.</desc>
<speed>0.020000</speed>
</trkpt>
<trkpt lat="43.154346" lon="19.122372">
<ele>1458.141602</ele>
<time>2012-05-01T15:52:29Z</time>
<desc>lat.=43.154346, lon.=19.122372, Alt.=1458.141602m. Speed=0.072000m/h.</desc>
<speed>0.020000</speed>
</trkpt>
<trkpt lat="43.154346" lon="19.122370">
<ele>1458.141602</ele>
<time>2012-05-01T15:52:34Z</time>
<desc>lat.=43.154346, lon.=19.122370, Alt.=1458.141602m. Speed=0.000000m/h.</desc>
<speed>0.000000</speed>
</trkpt>
<trkpt lat="43.154346" lon="19.122370">
<ele>1458.172852</ele>
<time>2012-05-01T15:52:39Z</time>
<desc>lat.=43.154346, lon.=19.122370, Alt.=1458.172852m. Speed=0.036000m/h.</desc>
<speed>0.010000</speed>
</trkpt>
<trkpt lat="43.154346" lon="19.122368">
<ele>1458.172852</ele>
<time>2012-05-01T15:52:44Z</time>
<desc>lat.=43.154346, lon.=19.122368, Alt.=1458.172852m. Speed=0.000000m/h.</desc>
<speed>0.000000</speed>
</trkpt>
<trkpt lat="43.154346" lon="19.122368">
<ele>1458.172852</ele>
<time>2012-05-01T15:52:49Z</time>
<desc>lat.=43.154346, lon.=19.122368, Alt.=1458.172852m. Speed=0.036000m/h.</desc>
<speed>0.010000</speed>
</trkpt>
<trkpt lat="43.154346" lon="19.122368">
<ele>1458.172852</ele>
<time>2012-05-01T15:52:54Z</time>
<desc>lat.=43.154346, lon.=19.122368, Alt.=1458.172852m. Speed=0.072000m/h.</desc>
<speed>0.020000</speed>
</trkpt>
<trkpt lat="43.154346" lon="19.122366">
<ele>1458.235352</ele>
<time>2012-05-01T15:52:59Z</time>
<desc>lat.=43.154346, lon.=19.122366, Alt.=1458.235352m. Speed=0.144000m/h.</desc>
<speed>0.040000</speed>
</trkpt>
<trkpt lat="43.154343" lon="19.122366">
<ele>1458.297852</ele>
<time>2012-05-01T15:53:04Z</time>
<desc>lat.=43.154343, lon.=19.122366, Alt.=1458.297852m. Speed=0.180000m/h.</desc>
<speed>0.050000</speed>
</trkpt>
<trkpt lat="43.154343" lon="19.122364">
<ele>1458.329102</ele>
<time>2012-05-01T15:53:09Z</time>
<desc>lat.=43.154343, lon.=19.122364, Alt.=1458.329102m. Speed=0.072000m/h.</desc>
<speed>0.020000</speed>
</trkpt>
<trkpt lat="43.154343" lon="19.122364">
<ele>1458.329102</ele>
<time>2012-05-01T15:53:14Z</time>
<desc>lat.=43.154343, lon.=19.122364, Alt.=1458.329102m. Speed=0.144000m/h.</desc>
<speed>0.040000</speed>
</trkpt>
<trkpt lat="43.154339" lon="19.122364">
<ele>1458.329102</ele>
<time>2012-05-01T15:53:19Z</time>
<desc>lat.=43.154339, lon.=19.122364, Alt.=1458.329102m. Speed=0.108000m/h.</desc>
<speed>0.030000</speed>
</trkpt>
<trkpt lat="43.154339" lon="19.122364">
<ele>1458.329102</ele>
<time>2012-05-01T15:53:24Z</time>
<desc>lat.=43.154339, lon.=19.122364, Alt.=1458.329102m. Speed=0.144000m/h.</desc>
<speed>0.040000</speed>
</trkpt>
<trkpt lat="43.154339" lon="19.122364">
<ele>1458.360352</ele>
<time>2012-05-01T15:53:29Z</time>
<desc>lat.=43.154339, lon.=19.122364, Alt.=1458.360352m. Speed=0.144000m/h.</desc>
<speed>0.040000</speed>
</trkpt>
<trkpt lat="43.154339" lon="19.122362">
<ele>1458.329102</ele>
<time>2012-05-01T15:53:34Z</time>
<desc>lat.=43.154339, lon.=19.122362, Alt.=1458.329102m. Speed=0.180000m/h.</desc>
<speed>0.050000</speed>
</trkpt>
<trkpt lat="43.154339" lon="19.122360">
<ele>1458.391602</ele>
<time>2012-05-01T15:53:39Z</time>
<desc>lat.=43.154339, lon.=19.122360, Alt.=1458.391602m. Speed=0.144000m/h.</desc>
<speed>0.040000</speed>
</trkpt>
<trkpt lat="43.154339" lon="19.122360">
<ele>1458.454102</ele>
<time>2012-05-01T15:53:44Z</time>
<desc>lat.=43.154339, lon.=19.122360, Alt.=1458.454102m. Speed=0.180000m/h.</desc>
<speed>0.050000</speed>
</trkpt>
<trkpt lat="43.154335" lon="19.122358">
<ele>1458.391602</ele>
<time>2012-05-01T15:53:49Z</time>
<desc>lat.=43.154335, lon.=19.122358, Alt.=1458.391602m. Speed=0.108000m/h.</desc>
<speed>0.030000</speed>
</trkpt>
<trkpt lat="43.154335" lon="19.122358">
<ele>1458.422852</ele>
<time>2012-05-01T15:53:54Z</time>
<desc>lat.=43.154335, lon.=19.122358, Alt.=1458.422852m. Speed=0.036000m/h.</desc>
<speed>0.010000</speed>
</trkpt>
<trkpt lat="43.154335" lon="19.122356">
<ele>1458.485352</ele>
<time>2012-05-01T15:53:59Z</time>
<desc>lat.=43.154335, lon.=19.122356, Alt.=1458.485352m. Speed=0.108000m/h.</desc>
<speed>0.030000</speed>
</trkpt>
<trkpt lat="43.154335" lon="19.122356">
<ele>1458.516602</ele>
<time>2012-05-01T15:54:04Z</time>
<desc>lat.=43.154335, lon.=19.122356, Alt.=1458.516602m. Speed=0.180000m/h.</desc>
<speed>0.050000</speed>
</trkpt>
<trkpt lat="43.154335" lon="19.122355">
<ele>1458.547852</ele>
<time>2012-05-01T15:54:09Z</time>
<desc>lat.=43.154335, lon.=19.122355, Alt.=1458.547852m. Speed=0.108000m/h.</desc>
<speed>0.030000</speed>
</trkpt>
<trkpt lat="43.154335" lon="19.122355">
<ele>1458.547852</ele>
<time>2012-05-01T15:54:14Z</time>
<desc>lat.=43.154335, lon.=19.122355, Alt.=1458.547852m. Speed=0.144000m/h.</desc>
<speed>0.040000</speed>
</trkpt>
<trkpt lat="43.154335" lon="19.122355">
<ele>1458.485352</ele>
<time>2012-05-01T15:54:19Z</time>
<desc>lat.=43.154335, lon.=19.122355, Alt.=1458.485352m. Speed=0.036000m/h.</desc>
<speed>0.010000</speed>
</trkpt>
<trkpt lat="43.154335" lon="19.122353">
<ele>1458.485352</ele>
<time>2012-05-01T15:54:24Z</time>
<desc>lat.=43.154335, lon.=19.122353, Alt.=1458.485352m. Speed=0.036000m/h.</desc>
<speed>0.010000</speed>
</trkpt>
<trkpt lat="43.154335" lon="19.122353">
<ele>1458.485352</ele>
<time>2012-05-01T15:54:29Z</time>
<desc>lat.=43.154335, lon.=19.122353, Alt.=1458.485352m. Speed=0.000000m/h.</desc>
<speed>0.000000</speed>
</trkpt>
<trkpt lat="43.154335" lon="19.122353">
<ele>1458.454102</ele>
<time>2012-05-01T15:54:34Z</time>
<desc>lat.=43.154335, lon.=19.122353, Alt.=1458.454102m. Speed=0.072000m/h.</desc>
<speed>0.020000</speed>
</trkpt>
<trkpt lat="43.154335" lon="19.122353">
<ele>1458.454102</ele>
<time>2012-05-01T15:54:39Z</time>
<desc>lat.=43.154335, lon.=19.122353, Alt.=1458.454102m. Speed=0.072000m/h.</desc>
<speed>0.020000</speed>
</trkpt>
<trkpt lat="43.154335" lon="19.122353">
<ele>1458.579102</ele>
<time>2012-05-01T15:54:44Z</time>
<desc>lat.=43.154335, lon.=19.122353, Alt.=1458.579102m. Speed=0.036000m/h.</desc>
<speed>0.010000</speed>
</trkpt>
<trkpt lat="43.154335" lon="19.122353">
<ele>1458.672852</ele>
<time>2012-05-01T15:54:49Z</time>
<desc>lat.=43.154335, lon.=19.122353, Alt.=1458.672852m. Speed=0.072000m/h.</desc>
<speed>0.020000</speed>
</trkpt>
<trkpt lat="43.154335" lon="19.122353">
<ele>1458.735352</ele>
<time>2012-05-01T15:54:54Z</time>
<desc>lat.=43.154335, lon.=19.122353, Alt.=1458.735352m. Speed=0.072000m/h.</desc>
<speed>0.020000</speed>
</trkpt>
<trkpt lat="43.154335" lon="19.122353">
<ele>1458.672852</ele>
<time>2012-05-01T15:54:59Z</time>
<desc>lat.=43.154335, lon.=19.122353, Alt.=1458.672852m. Speed=0.036000m/h.</desc>
<speed>0.010000</speed>
</trkpt>
<trkpt lat="43.154335" lon="19.122353">
<ele>1458.641602</ele>
<time>2012-05-01T15:55:04Z</time>
<desc>lat.=43.154335, lon.=19.122353, Alt.=1458.641602m. Speed=0.000000m/h.</desc>
<speed>0.000000</speed>
</trkpt>
<trkpt lat="43.154335" lon="19.122353">
<ele>1458.641602</ele>
<time>2012-05-01T15:55:09Z</time>
<desc>lat.=43.154335, lon.=19.122353, Alt.=1458.641602m. Speed=0.036000m/h.</desc>
<speed>0.010000</speed>
</trkpt>
<trkpt lat="43.154335" lon="19.122353">
<ele>1458.641602</ele>
<time>2012-05-01T15:55:14Z</time>
<desc>lat.=43.154335, lon.=19.122353, Alt.=1458.641602m. Speed=0.036000m/h.</desc>
<speed>0.010000</speed>
</trkpt>
<trkpt lat="43.154335" lon="19.122353">
<ele>1458.610352</ele>
<time>2012-05-01T15:55:19Z</time>
<desc>lat.=43.154335, lon.=19.122353, Alt.=1458.610352m. Speed=0.036000m/h.</desc>
<speed>0.010000</speed>
</trkpt>
<trkpt lat="43.154335" lon="19.122353">
<ele>1458.547852</ele>
<time>2012-05-01T15:55:24Z</time>
<desc>lat.=43.154335, lon.=19.122353, Alt.=1458.547852m. Speed=0.036000m/h.</desc>
<speed>0.010000</speed>
</trkpt>
<trkpt lat="43.154335" lon="19.122353">
<ele>1458.485352</ele>
<time>2012-05-01T15:55:29Z</time>
<desc>lat.=43.154335, lon.=19.122353, Alt.=1458.485352m. Speed=0.036000m/h.</desc>
<speed>0.010000</speed>
</trkpt>
<trkpt lat="43.154335" lon="19.122353">
<ele>1458.454102</ele>
<time>2012-05-01T15:55:34Z</time>
<desc>lat.=43.154335, lon.=19.122353, Alt.=1458.454102m. Speed=0.036000m/h.</desc>
<speed>0.010000</speed>
</trkpt>
<trkpt lat="43.154335" lon="19.122353">
<ele>1458.485352</ele>
<time>2012-05-01T15:55:39Z</time>
<desc>lat.=43.154335, lon.=19.122353, Alt.=1458.485352m. Speed=0.036000m/h.</desc>
<speed>0.010000</speed>
</trkpt>
<trkpt lat="43.154335" lon="19.122353">
<ele>1458.485352</ele>
<time>2012-05-01T15:55:44Z</time>
<desc>lat.=43.154335, lon.=19.122353, Alt.=1458.485352m. Speed=0.000000m/h.</desc>
<speed>0.000000</speed>
</trkpt>
<trkpt lat="43.154335" lon="19.122353">
<ele>1458.547852</ele>
<time>2012-05-01T15:55:49Z</time>
<desc>lat.=43.154335, lon.=19.122353, Alt.=1458.547852m. Speed=0.000000m/h.</desc>
<speed>0.000000</speed>
</trkpt>
<trkpt lat="43.154335" lon="19.122353">
<ele>1458.579102</ele>
<time>2012-05-01T15:55:54Z</time>
<desc>lat.=43.154335, lon.=19.122353, Alt.=1458.579102m. Speed=0.036000m/h.</desc>
<speed>0.010000</speed>
</trkpt>
<trkpt lat="43.154335" lon="19.122353">
<ele>1458.641602</ele>
<time>2012-05-01T15:55:59Z</time>
<desc>lat.=43.154335, lon.=19.122353, Alt.=1458.641602m. Speed=0.036000m/h.</desc>
<speed>0.010000</speed>
</trkpt>
<trkpt lat="43.154335" lon="19.122353">
<ele>1458.641602</ele>
<time>2012-05-01T15:56:04Z</time>
<desc>lat.=43.154335, lon.=19.122353, Alt.=1458.641602m. Speed=0.036000m/h.</desc>
<speed>0.010000</speed>
</trkpt>
<trkpt lat="43.154335" lon="19.122353">
<ele>1458.641602</ele>
<time>2012-05-01T15:56:09Z</time>
<desc>lat.=43.154335, lon.=19.122353, Alt.=1458.641602m. Speed=0.000000m/h.</desc>
<speed>0.000000</speed>
</trkpt>
<trkpt lat="43.154335" lon="19.122353">
<ele>1458.672852</ele>
<time>2012-05-01T15:56:14Z</time>
<desc>lat.=43.154335, lon.=19.122353, Alt.=1458.672852m. Speed=0.000000m/h.</desc>
<speed>0.000000</speed>
</trkpt>
<trkpt lat="43.154335" lon="19.122353">
<ele>1458.704102</ele>
<time>2012-05-01T15:56:19Z</time>
<desc>lat.=43.154335, lon.=19.122353, Alt.=1458.704102m. Speed=0.000000m/h.</desc>
<speed>0.000000</speed>
</trkpt>
<trkpt lat="43.154331" lon="19.122353">
<ele>1458.704102</ele>
<time>2012-05-01T15:56:24Z</time>
<desc>lat.=43.154331, lon.=19.122353, Alt.=1458.704102m. Speed=0.108000m/h.</desc>
<speed>0.030000</speed>
</trkpt>
<trkpt lat="43.154331" lon="19.122355">
<ele>1458.704102</ele>
<time>2012-05-01T15:56:29Z</time>
<desc>lat.=43.154331, lon.=19.122355, Alt.=1458.704102m. Speed=0.036000m/h.</desc>
<speed>0.010000</speed>
</trkpt>
<trkpt lat="43.154331" lon="19.122355">
<ele>1458.704102</ele>
<time>2012-05-01T15:56:34Z</time>
<desc>lat.=43.154331, lon.=19.122355, Alt.=1458.704102m. Speed=0.108000m/h.</desc>
<speed>0.030000</speed>
</trkpt>
<trkpt lat="43.154331" lon="19.122355">
<ele>1458.672852</ele>
<time>2012-05-01T15:56:39Z</time>
<desc>lat.=43.154331, lon.=19.122355, Alt.=1458.672852m. Speed=0.108000m/h.</desc>
<speed>0.030000</speed>
</trkpt>
<trkpt lat="43.154331" lon="19.122355">
<ele>1458.610352</ele>
<time>2012-05-01T15:56:44Z</time>
<desc>lat.=43.154331, lon.=19.122355, Alt.=1458.610352m. Speed=0.036000m/h.</desc>
<speed>0.010000</speed>
</trkpt>
<trkpt lat="43.154331" lon="19.122355">
<ele>1458.641602</ele>
<time>2012-05-01T15:56:49Z</time>
<desc>lat.=43.154331, lon.=19.122355, Alt.=1458.641602m. Speed=0.072000m/h.</desc>
<speed>0.020000</speed>
</trkpt>
<trkpt lat="43.154331" lon="19.122355">
<ele>1458.641602</ele>
<time>2012-05-01T15:56:54Z</time>
<desc>lat.=43.154331, lon.=19.122355, Alt.=1458.641602m. Speed=0.072000m/h.</desc>
<speed>0.020000</speed>
</trkpt>
<trkpt lat="43.154331" lon="19.122355">
<ele>1458.610352</ele>
<time>2012-05-01T15:56:59Z</time>
<desc>lat.=43.154331, lon.=19.122355, Alt.=1458.610352m. Speed=0.108000m/h.</desc>
<speed>0.030000</speed>
</trkpt>
<trkpt lat="43.154327" lon="19.122355">
<ele>1458.610352</ele>
<time>2012-05-01T15:57:04Z</time>
<desc>lat.=43.154327, lon.=19.122355, Alt.=1458.610352m. Speed=0.036000m/h.</desc>
<speed>0.010000</speed>
</trkpt>
<trkpt lat="43.154327" lon="19.122355">
<ele>1458.641602</ele>
<time>2012-05-01T15:57:09Z</time>
<desc>lat.=43.154327, lon.=19.122355, Alt.=1458.641602m. Speed=0.000000m/h.</desc>
<speed>0.000000</speed>
</trkpt>
<trkpt lat="43.154327" lon="19.122355">
<ele>1458.704102</ele>
<time>2012-05-01T15:57:14Z</time>
<desc>lat.=43.154327, lon.=19.122355, Alt.=1458.704102m. Speed=0.036000m/h.</desc>
<speed>0.010000</speed>
</trkpt>
<trkpt lat="43.154327" lon="19.122356">
<ele>1458.735352</ele>
<time>2012-05-01T15:57:19Z</time>
<desc>lat.=43.154327, lon.=19.122356, Alt.=1458.735352m. Speed=0.036000m/h.</desc>
<speed>0.010000</speed>
</trkpt>
<trkpt lat="43.154327" lon="19.122356">
<ele>1458.766602</ele>
<time>2012-05-01T15:57:24Z</time>
<desc>lat.=43.154327, lon.=19.122356, Alt.=1458.766602m. Speed=0.072000m/h.</desc>
<speed>0.020000</speed>
</trkpt>
<trkpt lat="43.154327" lon="19.122355">
<ele>1458.766602</ele>
<time>2012-05-01T15:57:29Z</time>
<desc>lat.=43.154327, lon.=19.122355, Alt.=1458.766602m. Speed=0.036000m/h.</desc>
<speed>0.010000</speed>
</trkpt>
<trkpt lat="43.154331" lon="19.122355">
<ele>1458.797852</ele>
<time>2012-05-01T15:57:34Z</time>
<desc>lat.=43.154331, lon.=19.122355, Alt.=1458.797852m. Speed=0.000000m/h.</desc>
<speed>0.000000</speed>
</trkpt>
<trkpt lat="43.154331" lon="19.122355">
<ele>1458.829102</ele>
<time>2012-05-01T15:57:39Z</time>
<desc>lat.=43.154331, lon.=19.122355, Alt.=1458.829102m. Speed=0.000000m/h.</desc>
<speed>0.000000</speed>
</trkpt>
<trkpt lat="43.154327" lon="19.122355">
<ele>1458.891602</ele>
<time>2012-05-01T15:57:44Z</time>
<desc>lat.=43.154327, lon.=19.122355, Alt.=1458.891602m. Speed=0.000000m/h.</desc>
<speed>0.000000</speed>
</trkpt>
<trkpt lat="43.154327" lon="19.122355">
<ele>1458.985352</ele>
<time>2012-05-01T15:57:49Z</time>
<desc>lat.=43.154327, lon.=19.122355, Alt.=1458.985352m. Speed=0.108000m/h.</desc>
<speed>0.030000</speed>
</trkpt>
<trkpt lat="43.154327" lon="19.122355">
<ele>1459.016602</ele>
<time>2012-05-01T15:57:54Z</time>
<desc>lat.=43.154327, lon.=19.122355, Alt.=1459.016602m. Speed=0.072000m/h.</desc>
<speed>0.020000</speed>
</trkpt>
<trkpt lat="43.154331" lon="19.122355">
<ele>1459.016602</ele>
<time>2012-05-01T15:57:59Z</time>
<desc>lat.=43.154331, lon.=19.122355, Alt.=1459.016602m. Speed=0.036000m/h.</desc>
<speed>0.010000</speed>
</trkpt>
<trkpt lat="43.154331" lon="19.122355">
<ele>1459.079102</ele>
<time>2012-05-01T15:58:04Z</time>
<desc>lat.=43.154331, lon.=19.122355, Alt.=1459.079102m. Speed=0.108000m/h.</desc>
<speed>0.030000</speed>
</trkpt>
<trkpt lat="43.154331" lon="19.122355">
<ele>1459.172852</ele>
<time>2012-05-01T15:58:09Z</time>
<desc>lat.=43.154331, lon.=19.122355, Alt.=1459.172852m. Speed=0.108000m/h.</desc>
<speed>0.030000</speed>
</trkpt>
<trkpt lat="43.154331" lon="19.122353">
<ele>1459.235352</ele>
<time>2012-05-01T15:58:14Z</time>
<desc>lat.=43.154331, lon.=19.122353, Alt.=1459.235352m. Speed=0.072000m/h.</desc>
<speed>0.020000</speed>
</trkpt>
<trkpt lat="43.154331" lon="19.122353">
<ele>1459.297852</ele>
<time>2012-05-01T15:58:19Z</time>
<desc>lat.=43.154331, lon.=19.122353, Alt.=1459.297852m. Speed=0.072000m/h.</desc>
<speed>0.020000</speed>
</trkpt>
<trkpt lat="43.154331" lon="19.122355">
<ele>1459.297852</ele>
<time>2012-05-01T15:58:24Z</time>
<desc>lat.=43.154331, lon.=19.122355, Alt.=1459.297852m. Speed=0.036000m/h.</desc>
<speed>0.010000</speed>
</trkpt>
<trkpt lat="43.154331" lon="19.122355">
<ele>1459.329102</ele>
<time>2012-05-01T15:58:29Z</time>
<desc>lat.=43.154331, lon.=19.122355, Alt.=1459.329102m. Speed=0.036000m/h.</desc>
<speed>0.010000</speed>
</trkpt>
<trkpt lat="43.154331" lon="19.122355">
<ele>1459.360352</ele>
<time>2012-05-01T15:58:34Z</time>
<desc>lat.=43.154331, lon.=19.122355, Alt.=1459.360352m. Speed=0.072000m/h.</desc>
<speed>0.020000</speed>
</trkpt>
<trkpt lat="43.154327" lon="19.122353">
<ele>1459.360352</ele>
<time>2012-05-01T15:58:39Z</time>
<desc>lat.=43.154327, lon.=19.122353, Alt.=1459.360352m. Speed=0.360000m/h.</desc>
<speed>0.100000</speed>
</trkpt>
<trkpt lat="43.154327" lon="19.122353">
<ele>1459.391602</ele>
<time>2012-05-01T15:58:44Z</time>
<desc>lat.=43.154327, lon.=19.122353, Alt.=1459.391602m. Speed=0.072000m/h.</desc>
<speed>0.020000</speed>
</trkpt>
<trkpt lat="43.154327" lon="19.122351">
<ele>1459.422852</ele>
<time>2012-05-01T15:58:49Z</time>
<desc>lat.=43.154327, lon.=19.122351, Alt.=1459.422852m. Speed=0.036000m/h.</desc>
<speed>0.010000</speed>
</trkpt>
<trkpt lat="43.154327" lon="19.122353">
<ele>1459.454102</ele>
<time>2012-05-01T15:58:54Z</time>
<desc>lat.=43.154327, lon.=19.122353, Alt.=1459.454102m. Speed=0.000000m/h.</desc>
<speed>0.000000</speed>
</trkpt>
<trkpt lat="43.154327" lon="19.122353">
<ele>1459.485352</ele>
<time>2012-05-01T15:58:59Z</time>
<desc>lat.=43.154327, lon.=19.122353, Alt.=1459.485352m. Speed=0.036000m/h.</desc>
<speed>0.010000</speed>
</trkpt>
<trkpt lat="43.154327" lon="19.122353">
<ele>1459.516602</ele>
<time>2012-05-01T15:59:04Z</time>
<desc>lat.=43.154327, lon.=19.122353, Alt.=1459.516602m. Speed=0.000000m/h.</desc>
<speed>0.000000</speed>
</trkpt>
<trkpt lat="43.154327" lon="19.122353">
<ele>1459.547852</ele>
<time>2012-05-01T15:59:09Z</time>
<desc>lat.=43.154327, lon.=19.122353, Alt.=1459.547852m. Speed=0.036000m/h.</desc>
<speed>0.010000</speed>
</trkpt>
<trkpt lat="43.154327" lon="19.122351">
<ele>1459.610352</ele>
<time>2012-05-01T15:59:14Z</time>
<desc>lat.=43.154327, lon.=19.122351, Alt.=1459.610352m. Speed=0.108000m/h.</desc>
<speed>0.030000</speed>
</trkpt>
<trkpt lat="43.154327" lon="19.122351">
<ele>1459.672852</ele>
<time>2012-05-01T15:59:19Z</time>
<desc>lat.=43.154327, lon.=19.122351, Alt.=1459.672852m. Speed=0.144000m/h.</desc>
<speed>0.040000</speed>
</trkpt>
<trkpt lat="43.154324" lon="19.122351">
<ele>1459.672852</ele>
<time>2012-05-01T15:59:24Z</time>
<desc>lat.=43.154324, lon.=19.122351, Alt.=1459.672852m. Speed=0.072000m/h.</desc>
<speed>0.020000</speed>
</trkpt>
<trkpt lat="43.154324" lon="19.122351">
<ele>1459.735352</ele>
<time>2012-05-01T15:59:29Z</time>
<desc>lat.=43.154324, lon.=19.122351, Alt.=1459.735352m. Speed=0.072000m/h.</desc>
<speed>0.020000</speed>
</trkpt>
<trkpt lat="43.154324" lon="19.122351">
<ele>1459.797852</ele>
<time>2012-05-01T15:59:34Z</time>
<desc>lat.=43.154324, lon.=19.122351, Alt.=1459.797852m. Speed=0.072000m/h.</desc>
<speed>0.020000</speed>
</trkpt>
<trkpt lat="43.154320" lon="19.122349">
<ele>1459.860352</ele>
<time>2012-05-01T15:59:39Z</time>
<desc>lat.=43.154320, lon.=19.122349, Alt.=1459.860352m. Speed=0.180000m/h.</desc>
<speed>0.050000</speed>
</trkpt>
<trkpt lat="43.154320" lon="19.122349">
<ele>1459.922852</ele>
<time>2012-05-01T15:59:44Z</time>
<desc>lat.=43.154320, lon.=19.122349, Alt.=1459.922852m. Speed=0.072000m/h.</desc>
<speed>0.020000</speed>
</trkpt>
<trkpt lat="43.154320" lon="19.122349">
<ele>1459.985352</ele>
<time>2012-05-01T15:59:49Z</time>
<desc>lat.=43.154320, lon.=19.122349, Alt.=1459.985352m. Speed=0.036000m/h.</desc>
<speed>0.010000</speed>
</trkpt>
<trkpt lat="43.154320" lon="19.122347">
<ele>1460.047852</ele>
<time>2012-05-01T15:59:54Z</time>
<desc>lat.=43.154320, lon.=19.122347, Alt.=1460.047852m. Speed=0.000000m/h.</desc>
<speed>0.000000</speed>
</trkpt>
<trkpt lat="43.154320" lon="19.122347">
<ele>1460.079102</ele>
<time>2012-05-01T15:59:59Z</time>
<desc>lat.=43.154320, lon.=19.122347, Alt.=1460.079102m. Speed=0.072000m/h.</desc>
<speed>0.020000</speed>
</trkpt>
<trkpt lat="43.154320" lon="19.122347">
<ele>1460.079102</ele>
<time>2012-05-01T16:00:04Z</time>
<desc>lat.=43.154320, lon.=19.122347, Alt.=1460.079102m. Speed=0.000000m/h.</desc>
<speed>0.000000</speed>
</trkpt>
<trkpt lat="43.154320" lon="19.122347">
<ele>1460.110352</ele>
<time>2012-05-01T16:00:09Z</time>
<desc>lat.=43.154320, lon.=19.122347, Alt.=1460.110352m. Speed=0.108000m/h.</desc>
<speed>0.030000</speed>
</trkpt>
<trkpt lat="43.154320" lon="19.122345">
<ele>1460.141602</ele>
<time>2012-05-01T16:00:14Z</time>
<desc>lat.=43.154320, lon.=19.122345, Alt.=1460.141602m. Speed=0.180000m/h.</desc>
<speed>0.050000</speed>
</trkpt>
<trkpt lat="43.154320" lon="19.122345">
<ele>1460.141602</ele>
<time>2012-05-01T16:00:19Z</time>
<desc>lat.=43.154320, lon.=19.122345, Alt.=1460.141602m. Speed=0.072000m/h.</desc>
<speed>0.020000</speed>
</trkpt>
<trkpt lat="43.154320" lon="19.122343">
<ele>1460.141602</ele>
<time>2012-05-01T16:00:24Z</time>
<desc>lat.=43.154320, lon.=19.122343, Alt.=1460.141602m. Speed=0.108000m/h.</desc>
<speed>0.030000</speed>
</trkpt>
<trkpt lat="43.154320" lon="19.122343">
<ele>1460.141602</ele>
<time>2012-05-01T16:00:29Z</time>
<desc>lat.=43.154320, lon.=19.122343, Alt.=1460.141602m. Speed=0.036000m/h.</desc>
<speed>0.010000</speed>
</trkpt>
<trkpt lat="43.154320" lon="19.122341">
<ele>1460.141602</ele>
<time>2012-05-01T16:00:34Z</time>
<desc>lat.=43.154320, lon.=19.122341, Alt.=1460.141602m. Speed=0.216000m/h.</desc>
<speed>0.060000</speed>
</trkpt>
<trkpt lat="43.154320" lon="19.122339">
<ele>1460.172852</ele>
<time>2012-05-01T16:00:39Z</time>
<desc>lat.=43.154320, lon.=19.122339, Alt.=1460.172852m. Speed=0.108000m/h.</desc>
<speed>0.030000</speed>
</trkpt>
<trkpt lat="43.154320" lon="19.122339">
<ele>1460.204102</ele>
<time>2012-05-01T16:00:44Z</time>
<desc>lat.=43.154320, lon.=19.122339, Alt.=1460.204102m. Speed=0.180000m/h.</desc>
<speed>0.050000</speed>
</trkpt>
<trkpt lat="43.154320" lon="19.122339">
<ele>1460.204102</ele>
<time>2012-05-01T16:00:49Z</time>
<desc>lat.=43.154320, lon.=19.122339, Alt.=1460.204102m. Speed=0.036000m/h.</desc>
<speed>0.010000</speed>
</trkpt>
<trkpt lat="43.154320" lon="19.122337">
<ele>1460.235352</ele>
<time>2012-05-01T16:00:54Z</time>
<desc>lat.=43.154320, lon.=19.122337, Alt.=1460.235352m. Speed=0.180000m/h.</desc>
<speed>0.050000</speed>
</trkpt>
<trkpt lat="43.154320" lon="19.122337">
<ele>1460.266602</ele>
<time>2012-05-01T16:00:59Z</time>
<desc>lat.=43.154320, lon.=19.122337, Alt.=1460.266602m. Speed=0.144000m/h.</desc>
<speed>0.040000</speed>
</trkpt>
<trkpt lat="43.154320" lon="19.122335">
<ele>1460.329102</ele>
<time>2012-05-01T16:01:04Z</time>
<desc>lat.=43.154320, lon.=19.122335, Alt.=1460.329102m. Speed=0.216000m/h.</desc>
<speed>0.060000</speed>
</trkpt>
<trkpt lat="43.154320" lon="19.122335">
<ele>1460.329102</ele>
<time>2012-05-01T16:01:09Z</time>
<desc>lat.=43.154320, lon.=19.122335, Alt.=1460.329102m. Speed=0.000000m/h.</desc>
<speed>0.000000</speed>
</trkpt>
<trkpt lat="43.154320" lon="19.122334">
<ele>1460.422852</ele>
<time>2012-05-01T16:01:14Z</time>
<desc>lat.=43.154320, lon.=19.122334, Alt.=1460.422852m. Speed=0.000000m/h.</desc>
<speed>0.000000</speed>
</trkpt>
<trkpt lat="43.154316" lon="19.122334">
<ele>1460.485352</ele>
<time>2012-05-01T16:01:19Z</time>
<desc>lat.=43.154316, lon.=19.122334, Alt.=1460.485352m. Speed=0.072000m/h.</desc>
<speed>0.020000</speed>
</trkpt>
<trkpt lat="43.154316" lon="19.122334">
<ele>1460.516602</ele>
<time>2012-05-01T16:01:24Z</time>
<desc>lat.=43.154316, lon.=19.122334, Alt.=1460.516602m. Speed=0.036000m/h.</desc>
<speed>0.010000</speed>
</trkpt>
<trkpt lat="43.154316" lon="19.122334">
<ele>1460.485352</ele>
<time>2012-05-01T16:01:29Z</time>
<desc>lat.=43.154316, lon.=19.122334, Alt.=1460.485352m. Speed=0.216000m/h.</desc>
<speed>0.060000</speed>
</trkpt>
<trkpt lat="43.154316" lon="19.122332">
<ele>1460.485352</ele>
<time>2012-05-01T16:01:34Z</time>
<desc>lat.=43.154316, lon.=19.122332, Alt.=1460.485352m. Speed=0.108000m/h.</desc>
<speed>0.030000</speed>
</trkpt>
<trkpt lat="43.154316" lon="19.122332">
<ele>1460.485352</ele>
<time>2012-05-01T16:01:39Z</time>
<desc>lat.=43.154316, lon.=19.122332, Alt.=1460.485352m. Speed=0.072000m/h.</desc>
<speed>0.020000</speed>
</trkpt>
<trkpt lat="43.154312" lon="19.122332">
<ele>1460.454102</ele>
<time>2012-05-01T16:01:44Z</time>
<desc>lat.=43.154312, lon.=19.122332, Alt.=1460.454102m. Speed=0.072000m/h.</desc>
<speed>0.020000</speed>
</trkpt>
<trkpt lat="43.154312" lon="19.122332">
<ele>1460.454102</ele>
<time>2012-05-01T16:01:49Z</time>
<desc>lat.=43.154312, lon.=19.122332, Alt.=1460.454102m. Speed=0.000000m/h.</desc>
<speed>0.000000</speed>
</trkpt>
<trkpt lat="43.154312" lon="19.122332">
<ele>1460.422852</ele>
<time>2012-05-01T16:01:54Z</time>
<desc>lat.=43.154312, lon.=19.122332, Alt.=1460.422852m. Speed=0.000000m/h.</desc>
<speed>0.000000</speed>
</trkpt>
<trkpt lat="43.154312" lon="19.122332">
<ele>1460.422852</ele>
<time>2012-05-01T16:01:59Z</time>
<desc>lat.=43.154312, lon.=19.122332, Alt.=1460.422852m. Speed=0.000000m/h.</desc>
<speed>0.000000</speed>
</trkpt>
<trkpt lat="43.154312" lon="19.122332">
<ele>1460.391602</ele>
<time>2012-05-01T16:02:04Z</time>
<desc>lat.=43.154312, lon.=19.122332, Alt.=1460.391602m. Speed=0.036000m/h.</desc>
<speed>0.010000</speed>
</trkpt>
<trkpt lat="43.154312" lon="19.122330">
<ele>1460.454102</ele>
<time>2012-05-01T16:02:09Z</time>
<desc>lat.=43.154312, lon.=19.122330, Alt.=1460.454102m. Speed=0.180000m/h.</desc>
<speed>0.050000</speed>
</trkpt>
<trkpt lat="43.154308" lon="19.122330">
<ele>1460.422852</ele>
<time>2012-05-01T16:02:14Z</time>
<desc>lat.=43.154308, lon.=19.122330, Alt.=1460.422852m. Speed=0.036000m/h.</desc>
<speed>0.010000</speed>
</trkpt>
<trkpt lat="43.154308" lon="19.122330">
<ele>1460.360352</ele>
<time>2012-05-01T16:02:19Z</time>
<desc>lat.=43.154308, lon.=19.122330, Alt.=1460.360352m. Speed=0.000000m/h.</desc>
<speed>0.000000</speed>
</trkpt>
<trkpt lat="43.154308" lon="19.122330">
<ele>1460.297852</ele>
<time>2012-05-01T16:02:24Z</time>
<desc>lat.=43.154308, lon.=19.122330, Alt.=1460.297852m. Speed=0.000000m/h.</desc>
<speed>0.000000</speed>
</trkpt>
<trkpt lat="43.154308" lon="19.122330">
<ele>1460.235352</ele>
<time>2012-05-01T16:02:29Z</time>
<desc>lat.=43.154308, lon.=19.122330, Alt.=1460.235352m. Speed=0.144000m/h.</desc>
<speed>0.040000</speed>
</trkpt>
<trkpt lat="43.154308" lon="19.122330">
<ele>1460.204102</ele>
<time>2012-05-01T16:02:34Z</time>
<desc>lat.=43.154308, lon.=19.122330, Alt.=1460.204102m. Speed=0.072000m/h.</desc>
<speed>0.020000</speed>
</trkpt>
<trkpt lat="43.154308" lon="19.122330">
<ele>1460.266602</ele>
<time>2012-05-01T16:02:39Z</time>
<desc>lat.=43.154308, lon.=19.122330, Alt.=1460.266602m. Speed=0.324000m/h.</desc>
<speed>0.090000</speed>
</trkpt>
<trkpt lat="43.154396" lon="19.122339">
<ele>1460.954102</ele>
<time>2012-05-01T16:02:44Z</time>
<desc>lat.=43.154396, lon.=19.122339, Alt.=1460.954102m. Speed=11.160000m/h.</desc>
<speed>3.100000</speed>
</trkpt>
<trkpt lat="43.154549" lon="19.122362">
<ele>1463.547852</ele>
<time>2012-05-01T16:02:49Z</time>
<desc>lat.=43.154549, lon.=19.122362, Alt.=1463.547852m. Speed=9.108000m/h.</desc>
<speed>2.530000</speed>
</trkpt>
<trkpt lat="43.154678" lon="19.122231">
<ele>1470.954102</ele>
<time>2012-05-01T16:02:54Z</time>
<desc>lat.=43.154678, lon.=19.122231, Alt.=1470.954102m. Speed=12.420000m/h.</desc>
<speed>3.450000</speed>
</trkpt>
<trkpt lat="43.154739" lon="19.122057">
<ele>1476.235352</ele>
<time>2012-05-01T16:02:59Z</time>
<desc>lat.=43.154739, lon.=19.122057, Alt.=1476.235352m. Speed=11.448000m/h.</desc>
<speed>3.180000</speed>
</trkpt>
<trkpt lat="43.154789" lon="19.121864">
<ele>1481.766602</ele>
<time>2012-05-01T16:03:04Z</time>
<desc>lat.=43.154789, lon.=19.121864, Alt.=1481.766602m. Speed=13.932000m/h.</desc>
<speed>3.870000</speed>
</trkpt>
<trkpt lat="43.154861" lon="19.121643">
<ele>1489.110352</ele>
<time>2012-05-01T16:03:09Z</time>
<desc>lat.=43.154861, lon.=19.121643, Alt.=1489.110352m. Speed=14.148000m/h.</desc>
<speed>3.930000</speed>
</trkpt>
<trkpt lat="43.154976" lon="19.121475">
<ele>1494.391602</ele>
<time>2012-05-01T16:03:14Z</time>
<desc>lat.=43.154976, lon.=19.121475, Alt.=1494.391602m. Speed=13.608000m/h.</desc>
<speed>3.780000</speed>
</trkpt>
<trkpt lat="43.155228" lon="19.121498">
<ele>1496.704102</ele>
<time>2012-05-01T16:03:19Z</time>
<desc>lat.=43.155228, lon.=19.121498, Alt.=1496.704102m. Speed=18.719999m/h.</desc>
<speed>5.200000</speed>
</trkpt>
<trkpt lat="43.155365" lon="19.121569">
<ele>1504.547852</ele>
<time>2012-05-01T16:03:24Z</time>
<desc>lat.=43.155365, lon.=19.121569, Alt.=1504.547852m. Speed=21.492001m/h.</desc>
<speed>5.970000</speed>
</trkpt>
<trkpt lat="43.155598" lon="19.121658">
<ele>1510.797852</ele>
<time>2012-05-01T16:03:29Z</time>
<desc>lat.=43.155598, lon.=19.121658, Alt.=1510.797852m. Speed=23.184000m/h.</desc>
<speed>6.440000</speed>
</trkpt>
<trkpt lat="43.155884" lon="19.121773">
<ele>1514.266602</ele>
<time>2012-05-01T16:03:34Z</time>
<desc>lat.=43.155884, lon.=19.121773, Alt.=1514.266602m. Speed=24.191999m/h.</desc>
<speed>6.720000</speed>
</trkpt>
<trkpt lat="43.156204" lon="19.121876">
<ele>1517.266602</ele>
<time>2012-05-01T16:03:39Z</time>
<desc>lat.=43.156204, lon.=19.121876, Alt.=1517.266602m. Speed=25.955999m/h.</desc>
<speed>7.210000</speed>
</trkpt>
<trkpt lat="43.156521" lon="19.121984">
<ele>1520.016602</ele>
<time>2012-05-01T16:03:44Z</time>
<desc>lat.=43.156521, lon.=19.121984, Alt.=1520.016602m. Speed=25.524000m/h.</desc>
<speed>7.090000</speed>
</trkpt>
<trkpt lat="43.156830" lon="19.122154">
<ele>1523.360352</ele>
<time>2012-05-01T16:03:49Z</time>
<desc>lat.=43.156830, lon.=19.122154, Alt.=1523.360352m. Speed=29.195999m/h.</desc>
<speed>8.110000</speed>
</trkpt>
<trkpt lat="43.157131" lon="19.122437">
<ele>1527.516602</ele>
<time>2012-05-01T16:03:54Z</time>
<desc>lat.=43.157131, lon.=19.122437, Alt.=1527.516602m. Speed=29.087999m/h.</desc>
<speed>8.080000</speed>
</trkpt>
<trkpt lat="43.157314" lon="19.122849">
<ele>1529.016602</ele>
<time>2012-05-01T16:03:59Z</time>
<desc>lat.=43.157314, lon.=19.122849, Alt.=1529.016602m. Speed=26.136000m/h.</desc>
<speed>7.260000</speed>
</trkpt>
<trkpt lat="43.157475" lon="19.123249">
<ele>1528.360352</ele>
<time>2012-05-01T16:04:04Z</time>
<desc>lat.=43.157475, lon.=19.123249, Alt.=1528.360352m. Speed=28.115999m/h.</desc>
<speed>7.810000</speed>
</trkpt>
<trkpt lat="43.157696" lon="19.123581">
<ele>1525.797852</ele>
<time>2012-05-01T16:04:09Z</time>
<desc>lat.=43.157696, lon.=19.123581, Alt.=1525.797852m. Speed=19.656000m/h.</desc>
<speed>5.460000</speed>
</trkpt>
<trkpt lat="43.157921" lon="19.123831">
<ele>1521.985352</ele>
<time>2012-05-01T16:04:14Z</time>
<desc>lat.=43.157921, lon.=19.123831, Alt.=1521.985352m. Speed=22.500000m/h.</desc>
<speed>6.250000</speed>
</trkpt>
<trkpt lat="43.158054" lon="19.124105">
<ele>1521.110352</ele>
<time>2012-05-01T16:04:19Z</time>
<desc>lat.=43.158054, lon.=19.124105, Alt.=1521.110352m. Speed=21.455999m/h.</desc>
<speed>5.960000</speed>
</trkpt>
<trkpt lat="43.158173" lon="19.124418">
<ele>1520.985352</ele>
<time>2012-05-01T16:04:24Z</time>
<desc>lat.=43.158173, lon.=19.124418, Alt.=1520.985352m. Speed=19.728001m/h.</desc>
<speed>5.480000</speed>
</trkpt>
<trkpt lat="43.158268" lon="19.124615">
<ele>1521.204102</ele>
<time>2012-05-01T16:04:29Z</time>
<desc>lat.=43.158268, lon.=19.124615, Alt.=1521.204102m. Speed=9.288000m/h.</desc>
<speed>2.580000</speed>
</trkpt>
<trkpt lat="43.158302" lon="19.124641">
<ele>1521.860352</ele>
<time>2012-05-01T16:04:34Z</time>
<desc>lat.=43.158302, lon.=19.124641, Alt.=1521.860352m. Speed=2.160000m/h.</desc>
<speed>0.600000</speed>
</trkpt>
<trkpt lat="43.158314" lon="19.124683">
<ele>1522.610352</ele>
<time>2012-05-01T16:04:39Z</time>
<desc>lat.=43.158314, lon.=19.124683, Alt.=1522.610352m. Speed=3.312000m/h.</desc>
<speed>0.920000</speed>
</trkpt>
<trkpt lat="43.158306" lon="19.124699">
<ele>1523.297852</ele>
<time>2012-05-01T16:04:44Z</time>
<desc>lat.=43.158306, lon.=19.124699, Alt.=1523.297852m. Speed=1.188000m/h.</desc>
<speed>0.330000</speed>
</trkpt>
<trkpt lat="43.158298" lon="19.124691">
<ele>1523.735352</ele>
<time>2012-05-01T16:04:49Z</time>
<desc>lat.=43.158298, lon.=19.124691, Alt.=1523.735352m. Speed=0.576000m/h.</desc>
<speed>0.160000</speed>
</trkpt>
<trkpt lat="43.158298" lon="19.124691">
<ele>1523.891602</ele>
<time>2012-05-01T16:04:54Z</time>
<desc>lat.=43.158298, lon.=19.124691, Alt.=1523.891602m. Speed=0.144000m/h.</desc>
<speed>0.040000</speed>
</trkpt>
<trkpt lat="43.158298" lon="19.124691">
<ele>1523.985352</ele>
<time>2012-05-01T16:04:59Z</time>
<desc>lat.=43.158298, lon.=19.124691, Alt.=1523.985352m. Speed=0.036000m/h.</desc>
<speed>0.010000</speed>
</trkpt>
<trkpt lat="43.158287" lon="19.124680">
<ele>1523.766602</ele>
<time>2012-05-01T16:05:04Z</time>
<desc>lat.=43.158287, lon.=19.124680, Alt.=1523.766602m. Speed=0.864000m/h.</desc>
<speed>0.240000</speed>
</trkpt>
<trkpt lat="43.158283" lon="19.124672">
<ele>1523.672852</ele>
<time>2012-05-01T16:05:09Z</time>
<desc>lat.=43.158283, lon.=19.124672, Alt.=1523.672852m. Speed=0.108000m/h.</desc>
<speed>0.030000</speed>
</trkpt>
<trkpt lat="43.158287" lon="19.124668">
<ele>1523.704102</ele>
<time>2012-05-01T16:05:14Z</time>
<desc>lat.=43.158287, lon.=19.124668, Alt.=1523.704102m. Speed=0.396000m/h.</desc>
<speed>0.110000</speed>
</trkpt>
<trkpt lat="43.158287" lon="19.124662">
<ele>1523.735352</ele>
<time>2012-05-01T16:05:19Z</time>
<desc>lat.=43.158287, lon.=19.124662, Alt.=1523.735352m. Speed=0.972000m/h.</desc>
<speed>0.270000</speed>
</trkpt>
<trkpt lat="43.158287" lon="19.124664">
<ele>1523.704102</ele>
<time>2012-05-01T16:05:24Z</time>
<desc>lat.=43.158287, lon.=19.124664, Alt.=1523.704102m. Speed=0.000000m/h.</desc>
<speed>0.000000</speed>
</trkpt>
<trkpt lat="43.158287" lon="19.124664">
<ele>1523.704102</ele>
<time>2012-05-01T16:05:29Z</time>
<desc>lat.=43.158287, lon.=19.124664, Alt.=1523.704102m. Speed=0.000000m/h.</desc>
<speed>0.000000</speed>
</trkpt>
<trkpt lat="43.158287" lon="19.124664">
<ele>1523.735352</ele>
<time>2012-05-01T16:05:34Z</time>
<desc>lat.=43.158287, lon.=19.124664, Alt.=1523.735352m. Speed=0.432000m/h.</desc>
<speed>0.120000</speed>
</trkpt>
<trkpt lat="43.158287" lon="19.124664">
<ele>1523.735352</ele>
<time>2012-05-01T16:05:39Z</time>
<desc>lat.=43.158287, lon.=19.124664, Alt.=1523.735352m. Speed=0.000000m/h.</desc>
<speed>0.000000</speed>
</trkpt>
<trkpt lat="43.158287" lon="19.124664">
<ele>1523.704102</ele>
<time>2012-05-01T16:05:44Z</time>
<desc>lat.=43.158287, lon.=19.124664, Alt.=1523.704102m. Speed=0.036000m/h.</desc>
<speed>0.010000</speed>
</trkpt>
<trkpt lat="43.158287" lon="19.124662">
<ele>1523.735352</ele>
<time>2012-05-01T16:05:49Z</time>
<desc>lat.=43.158287, lon.=19.124662, Alt.=1523.735352m. Speed=0.036000m/h.</desc>
<speed>0.010000</speed>
</trkpt>
<trkpt lat="43.158295" lon="19.124699">
<ele>1523.579102</ele>
<time>2012-05-01T16:05:54Z</time>
<desc>lat.=43.158295, lon.=19.124699, Alt.=1523.579102m. Speed=11.376000m/h.</desc>
<speed>3.160000</speed>
</trkpt>
<trkpt lat="43.158333" lon="19.124866">
<ele>1523.547852</ele>
<time>2012-05-01T16:05:59Z</time>
<desc>lat.=43.158333, lon.=19.124866, Alt.=1523.547852m. Speed=12.492000m/h.</desc>
<speed>3.470000</speed>
</trkpt>
<trkpt lat="43.158367" lon="19.125116">
<ele>1524.704102</ele>
<time>2012-05-01T16:06:04Z</time>
<desc>lat.=43.158367, lon.=19.125116, Alt.=1524.704102m. Speed=21.924000m/h.</desc>
<speed>6.090000</speed>
</trkpt>
<trkpt lat="43.158264" lon="19.125540">
<ele>1525.422852</ele>
<time>2012-05-01T16:06:09Z</time>
<desc>lat.=43.158264, lon.=19.125540, Alt.=1525.422852m. Speed=29.087999m/h.</desc>
<speed>8.080000</speed>
</trkpt>
<trkpt lat="43.158188" lon="19.126053">
<ele>1526.110352</ele>
<time>2012-05-01T16:06:14Z</time>
<desc>lat.=43.158188, lon.=19.126053, Alt.=1526.110352m. Speed=32.400002m/h.</desc>
<speed>9.000000</speed>
</trkpt>
<trkpt lat="43.158287" lon="19.126560">
<ele>1526.641602</ele>
<time>2012-05-01T16:06:19Z</time>
<desc>lat.=43.158287, lon.=19.126560, Alt.=1526.641602m. Speed=29.988001m/h.</desc>
<speed>8.330000</speed>
</trkpt>
<trkpt lat="43.158443" lon="19.126991">
<ele>1528.704102</ele>
<time>2012-05-01T16:06:24Z</time>
<desc>lat.=43.158443, lon.=19.126991, Alt.=1528.704102m. Speed=20.844000m/h.</desc>
<speed>5.790000</speed>
</trkpt>
<trkpt lat="43.158527" lon="19.127077">
<ele>1530.672852</ele>
<time>2012-05-01T16:06:29Z</time>
<desc>lat.=43.158527, lon.=19.127077, Alt.=1530.672852m. Speed=3.636000m/h.</desc>
<speed>1.010000</speed>
</trkpt>
<trkpt lat="43.158554" lon="19.127077">
<ele>1531.829102</ele>
<time>2012-05-01T16:06:34Z</time>
<desc>lat.=43.158554, lon.=19.127077, Alt.=1531.829102m. Speed=1.656000m/h.</desc>
<speed>0.460000</speed>
</trkpt>
<trkpt lat="43.158554" lon="19.127050">
<ele>1534.172852</ele>
<time>2012-05-01T16:06:39Z</time>
<desc>lat.=43.158554, lon.=19.127050, Alt.=1534.172852m. Speed=1.728000m/h.</desc>
<speed>0.480000</speed>
</trkpt>
<trkpt lat="43.158558" lon="19.127026">
<ele>1535.891602</ele>
<time>2012-05-01T16:06:44Z</time>
<desc>lat.=43.158558, lon.=19.127026, Alt.=1535.891602m. Speed=0.828000m/h.</desc>
<speed>0.230000</speed>
</trkpt>
<trkpt lat="43.158569" lon="19.127007">
<ele>1536.922852</ele>
<time>2012-05-01T16:06:49Z</time>
<desc>lat.=43.158569, lon.=19.127007, Alt.=1536.922852m. Speed=1.836000m/h.</desc>
<speed>0.510000</speed>
</trkpt>
<trkpt lat="43.158588" lon="19.127012">
<ele>1537.797852</ele>
<time>2012-05-01T16:06:54Z</time>
<desc>lat.=43.158588, lon.=19.127012, Alt.=1537.797852m. Speed=5.616000m/h.</desc>
<speed>1.560000</speed>
</trkpt>
<trkpt lat="43.158798" lon="19.127140">
<ele>1537.547852</ele>
<time>2012-05-01T16:06:59Z</time>
<desc>lat.=43.158798, lon.=19.127140, Alt.=1537.547852m. Speed=16.416000m/h.</desc>
<speed>4.560000</speed>
</trkpt>
<trkpt lat="43.158932" lon="19.127344">
<ele>1536.735352</ele>
<time>2012-05-01T16:07:04Z</time>
<desc>lat.=43.158932, lon.=19.127344, Alt.=1536.735352m. Speed=22.068001m/h.</desc>
<speed>6.130000</speed>
</trkpt>
<trkpt lat="43.159130" lon="19.127684">
<ele>1535.266602</ele>
<time>2012-05-01T16:07:09Z</time>
<desc>lat.=43.159130, lon.=19.127684, Alt.=1535.266602m. Speed=28.224001m/h.</desc>
<speed>7.840000</speed>
</trkpt>
<trkpt lat="43.159374" lon="19.128124">
<ele>1533.110352</ele>
<time>2012-05-01T16:07:14Z</time>
<desc>lat.=43.159374, lon.=19.128124, Alt.=1533.110352m. Speed=34.848000m/h.</desc>
<speed>9.680000</speed>
</trkpt>
<trkpt lat="43.159500" lon="19.128702">
<ele>1530.672852</ele>
<time>2012-05-01T16:07:19Z</time>
<desc>lat.=43.159500, lon.=19.128702, Alt.=1530.672852m. Speed=38.736000m/h.</desc>
<speed>10.760000</speed>
</trkpt>
<trkpt lat="43.159409" lon="19.129522">
<ele>1522.641602</ele>
<time>2012-05-01T16:07:24Z</time>
<desc>lat.=43.159409, lon.=19.129522, Alt.=1522.641602m. Speed=44.243999m/h.</desc>
<speed>12.290000</speed>
</trkpt>
<trkpt lat="43.159271" lon="19.130388">
<ele>1517.954102</ele>
<time>2012-05-01T16:07:29Z</time>
<desc>lat.=43.159271, lon.=19.130388, Alt.=1517.954102m. Speed=47.952000m/h.</desc>
<speed>13.320000</speed>
</trkpt>
<trkpt lat="43.159275" lon="19.131289">
<ele>1516.579102</ele>
<time>2012-05-01T16:07:34Z</time>
<desc>lat.=43.159275, lon.=19.131289, Alt.=1516.579102m. Speed=50.112000m/h.</desc>
<speed>13.920000</speed>
</trkpt>
<trkpt lat="43.159462" lon="19.132082">
<ele>1514.610352</ele>
<time>2012-05-01T16:07:39Z</time>
<desc>lat.=43.159462, lon.=19.132082, Alt.=1514.610352m. Speed=50.652000m/h.</desc>
<speed>14.070000</speed>
</trkpt>
<trkpt lat="43.159725" lon="19.132723">
<ele>1508.954102</ele>
<time>2012-05-01T16:07:44Z</time>
<desc>lat.=43.159725, lon.=19.132723, Alt.=1508.954102m. Speed=44.639999m/h.</desc>
<speed>12.400000</speed>
</trkpt>
<trkpt lat="43.160000" lon="19.133352">
<ele>1505.235352</ele>
<time>2012-05-01T16:07:49Z</time>
<desc>lat.=43.160000, lon.=19.133352, Alt.=1505.235352m. Speed=41.759998m/h.</desc>
<speed>11.600000</speed>
</trkpt>
<trkpt lat="43.160263" lon="19.134010">
<ele>1500.985352</ele>
<time>2012-05-01T16:07:54Z</time>
<desc>lat.=43.160263, lon.=19.134010, Alt.=1500.985352m. Speed=40.931999m/h.</desc>
<speed>11.370000</speed>
</trkpt>
<trkpt lat="43.160477" lon="19.134628">
<ele>1499.985352</ele>
<time>2012-05-01T16:07:59Z</time>
<desc>lat.=43.160477, lon.=19.134628, Alt.=1499.985352m. Speed=39.779999m/h.</desc>
<speed>11.050000</speed>
</trkpt>
<trkpt lat="43.160717" lon="19.135246">
<ele>1497.735352</ele>
<time>2012-05-01T16:08:04Z</time>
<desc>lat.=43.160717, lon.=19.135246, Alt.=1497.735352m. Speed=38.304001m/h.</desc>
<speed>10.640000</speed>
</trkpt>
<trkpt lat="43.160995" lon="19.135759">
<ele>1495.360352</ele>
<time>2012-05-01T16:08:09Z</time>
<desc>lat.=43.160995, lon.=19.135759, Alt.=1495.360352m. Speed=35.675999m/h.</desc>
<speed>9.910000</speed>
</trkpt>
<trkpt lat="43.161278" lon="19.136137">
<ele>1495.204102</ele>
<time>2012-05-01T16:08:14Z</time>
<desc>lat.=43.161278, lon.=19.136137, Alt.=1495.204102m. Speed=29.916000m/h.</desc>
<speed>8.310000</speed>
</trkpt>
<trkpt lat="43.161560" lon="19.136448">
<ele>1494.954102</ele>
<time>2012-05-01T16:08:19Z</time>
<desc>lat.=43.161560, lon.=19.136448, Alt.=1494.954102m. Speed=27.323999m/h.</desc>
<speed>7.590000</speed>
</trkpt>
<trkpt lat="43.161709" lon="19.137922">
<ele>1494.485352</ele>
<time>2012-05-01T16:08:24Z</time>
<desc>lat.=43.161709, lon.=19.137922, Alt.=1494.485352m. Speed=27.035999m/h.</desc>
<speed>7.510000</speed>
</trkpt>
<trkpt lat="43.161953" lon="19.138327">
<ele>1493.141602</ele>
<time>2012-05-01T16:08:29Z</time>
<desc>lat.=43.161953, lon.=19.138327, Alt.=1493.141602m. Speed=28.799999m/h.</desc>
<speed>8.000000</speed>
</trkpt>
<trkpt lat="43.162182" lon="19.138729">
<ele>1489.641602</ele>
<time>2012-05-01T16:08:34Z</time>
<desc>lat.=43.162182, lon.=19.138729, Alt.=1489.641602m. Speed=30.672001m/h.</desc>
<speed>8.520000</speed>
</trkpt>
<trkpt lat="43.162430" lon="19.139135">
<ele>1488.704102</ele>
<time>2012-05-01T16:08:39Z</time>
<desc>lat.=43.162430, lon.=19.139135, Alt.=1488.704102m. Speed=30.851999m/h.</desc>
<speed>8.570000</speed>
</trkpt>
<trkpt lat="43.162609" lon="19.139465">
<ele>1489.016602</ele>
<time>2012-05-01T16:08:44Z</time>
<desc>lat.=43.162609, lon.=19.139465, Alt.=1489.016602m. Speed=18.719999m/h.</desc>
<speed>5.200000</speed>
</trkpt>
<trkpt lat="43.162781" lon="19.139715">
<ele>1488.454102</ele>
<time>2012-05-01T16:08:49Z</time>
<desc>lat.=43.162781, lon.=19.139715, Alt.=1488.454102m. Speed=24.624001m/h.</desc>
<speed>6.840000</speed>
</trkpt>
<trkpt lat="43.162888" lon="19.140091">
<ele>1487.360352</ele>
<time>2012-05-01T16:08:54Z</time>
<desc>lat.=43.162888, lon.=19.140091, Alt.=1487.360352m. Speed=28.584000m/h.</desc>
<speed>7.940000</speed>
</trkpt>
<trkpt lat="43.162975" lon="19.140646">
<ele>1484.766602</ele>
<time>2012-05-01T16:08:59Z</time>
<desc>lat.=43.162975, lon.=19.140646, Alt.=1484.766602m. Speed=37.439999m/h.</desc>
<speed>10.400000</speed>
</trkpt>
<trkpt lat="43.162952" lon="19.141369">
<ele>1475.329102</ele>
<time>2012-05-01T16:09:04Z</time>
<desc>lat.=43.162952, lon.=19.141369, Alt.=1475.329102m. Speed=44.208000m/h.</desc>
<speed>12.280000</speed>
</trkpt>
<trkpt lat="43.162933" lon="19.142143">
<ele>1469.891602</ele>
<time>2012-05-01T16:09:09Z</time>
<desc>lat.=43.162933, lon.=19.142143, Alt.=1469.891602m. Speed=47.304001m/h.</desc>
<speed>13.140000</speed>
</trkpt>
<trkpt lat="43.162910" lon="19.143038">
<ele>1463.079102</ele>
<time>2012-05-01T16:09:14Z</time>
<desc>lat.=43.162910, lon.=19.143038, Alt.=1463.079102m. Speed=53.532001m/h.</desc>
<speed>14.870000</speed>
</trkpt>
<trkpt lat="43.162975" lon="19.144030">
<ele>1453.641602</ele>
<time>2012-05-01T16:09:19Z</time>
<desc>lat.=43.162975, lon.=19.144030, Alt.=1453.641602m. Speed=59.040001m/h.</desc>
<speed>16.400000</speed>
</trkpt>
<trkpt lat="43.163101" lon="19.145069">
<ele>1446.016602</ele>
<time>2012-05-01T16:09:24Z</time>
<desc>lat.=43.163101, lon.=19.145069, Alt.=1446.016602m. Speed=62.172001m/h.</desc>
<speed>17.270000</speed>
</trkpt>
<trkpt lat="43.163261" lon="19.146065">
<ele>1439.047852</ele>
<time>2012-05-01T16:09:29Z</time>
<desc>lat.=43.163261, lon.=19.146065, Alt.=1439.047852m. Speed=55.872002m/h.</desc>
<speed>15.520000</speed>
</trkpt>
<trkpt lat="43.163406" lon="19.146990">
<ele>1430.891602</ele>
<time>2012-05-01T16:09:34Z</time>
<desc>lat.=43.163406, lon.=19.146990, Alt.=1430.891602m. Speed=52.307999m/h.</desc>
<speed>14.530000</speed>
</trkpt>
<trkpt lat="43.163551" lon="19.147848">
<ele>1422.329102</ele>
<time>2012-05-01T16:09:39Z</time>
<desc>lat.=43.163551, lon.=19.147848, Alt.=1422.329102m. Speed=51.551998m/h.</desc>
<speed>14.319999</speed>
</trkpt>
<trkpt lat="43.163712" lon="19.148661">
<ele>1414.172852</ele>
<time>2012-05-01T16:09:44Z</time>
<desc>lat.=43.163712, lon.=19.148661, Alt.=1414.172852m. Speed=47.807999m/h.</desc>
<speed>13.280000</speed>
</trkpt>
<trkpt lat="43.163818" lon="19.149454">
<ele>1407.329102</ele>
<time>2012-05-01T16:09:49Z</time>
<desc>lat.=43.163818, lon.=19.149454, Alt.=1407.329102m. Speed=46.223999m/h.</desc>
<speed>12.840000</speed>
</trkpt>
<trkpt lat="43.163876" lon="19.150175">
<ele>1398.641602</ele>
<time>2012-05-01T16:09:54Z</time>
<desc>lat.=43.163876, lon.=19.150175, Alt.=1398.641602m. Speed=41.652000m/h.</desc>
<speed>11.570000</speed>
</trkpt>
<trkpt lat="43.163906" lon="19.150805">
<ele>1392.079102</ele>
<time>2012-05-01T16:09:59Z</time>
<desc>lat.=43.163906, lon.=19.150805, Alt.=1392.079102m. Speed=39.348000m/h.</desc>
<speed>10.930000</speed>
</trkpt>
<trkpt lat="43.163914" lon="19.151394">
<ele>1379.704102</ele>
<time>2012-05-01T16:10:04Z</time>
<desc>lat.=43.163914, lon.=19.151394, Alt.=1379.704102m. Speed=40.464001m/h.</desc>
<speed>11.240000</speed>
</trkpt>
<trkpt lat="43.163876" lon="19.152090">
<ele>1372.485352</ele>
<time>2012-05-01T16:10:09Z</time>
<desc>lat.=43.163876, lon.=19.152090, Alt.=1372.485352m. Speed=43.523998m/h.</desc>
<speed>12.090000</speed>
</trkpt>
<trkpt lat="43.163837" lon="19.152817">
<ele>1367.610352</ele>
<time>2012-05-01T16:10:14Z</time>
<desc>lat.=43.163837, lon.=19.152817, Alt.=1367.610352m. Speed=42.408001m/h.</desc>
<speed>11.780000</speed>
</trkpt>
<trkpt lat="43.163811" lon="19.153521">
<ele>1362.829102</ele>
<time>2012-05-01T16:10:19Z</time>
<desc>lat.=43.163811, lon.=19.153521, Alt.=1362.829102m. Speed=41.580002m/h.</desc>
<speed>11.550001</speed>
</trkpt>
<trkpt lat="43.163788" lon="19.154236">
<ele>1359.454102</ele>
<time>2012-05-01T16:10:24Z</time>
<desc>lat.=43.163788, lon.=19.154236, Alt.=1359.454102m. Speed=42.624001m/h.</desc>
<speed>11.840000</speed>
</trkpt>
<trkpt lat="43.163765" lon="19.154949">
<ele>1357.829102</ele>
<time>2012-05-01T16:10:29Z</time>
<desc>lat.=43.163765, lon.=19.154949, Alt.=1357.829102m. Speed=41.616001m/h.</desc>
<speed>11.560000</speed>
</trkpt>
<trkpt lat="43.163780" lon="19.155655">
<ele>1355.672852</ele>
<time>2012-05-01T16:10:34Z</time>
<desc>lat.=43.163780, lon.=19.155655, Alt.=1355.672852m. Speed=43.703999m/h.</desc>
<speed>12.140000</speed>
</trkpt>
<trkpt lat="43.163929" lon="19.156401">
<ele>1351.985352</ele>
<time>2012-05-01T16:10:39Z</time>
<desc>lat.=43.163929, lon.=19.156401, Alt.=1351.985352m. Speed=46.080002m/h.</desc>
<speed>12.800001</speed>
</trkpt>
<trkpt lat="43.164066" lon="19.157185">
<ele>1350.079102</ele>
<time>2012-05-01T16:10:44Z</time>
<desc>lat.=43.164066, lon.=19.157185, Alt.=1350.079102m. Speed=47.987999m/h.</desc>
<speed>13.330000</speed>
</trkpt>
<trkpt lat="43.164223" lon="19.157980">
<ele>1346.735352</ele>
<time>2012-05-01T16:10:49Z</time>
<desc>lat.=43.164223, lon.=19.157980, Alt.=1346.735352m. Speed=46.655998m/h.</desc>
<speed>12.960000</speed>
</trkpt>
<trkpt lat="43.164356" lon="19.158712">
<ele>1344.985352</ele>
<time>2012-05-01T16:10:54Z</time>
<desc>lat.=43.164356, lon.=19.158712, Alt.=1344.985352m. Speed=42.731998m/h.</desc>
<speed>11.870000</speed>
</trkpt>
<trkpt lat="43.164463" lon="19.159407">
<ele>1345.891602</ele>
<time>2012-05-01T16:10:59Z</time>
<desc>lat.=43.164463, lon.=19.159407, Alt.=1345.891602m. Speed=39.636002m/h.</desc>
<speed>11.010000</speed>
</trkpt>
<trkpt lat="43.164509" lon="19.160097">
<ele>1346.047852</ele>
<time>2012-05-01T16:11:04Z</time>
<desc>lat.=43.164509, lon.=19.160097, Alt.=1346.047852m. Speed=41.472000m/h.</desc>
<speed>11.520000</speed>
</trkpt>
<trkpt lat="43.164566" lon="19.160795">
<ele>1345.360352</ele>
<time>2012-05-01T16:11:09Z</time>
<desc>lat.=43.164566, lon.=19.160795, Alt.=1345.360352m. Speed=40.464001m/h.</desc>
<speed>11.240000</speed>
</trkpt>
<trkpt lat="43.164604" lon="19.161459">
<ele>1344.735352</ele>
<time>2012-05-01T16:11:14Z</time>
<desc>lat.=43.164604, lon.=19.161459, Alt.=1344.735352m. Speed=37.872002m/h.</desc>
<speed>10.520000</speed>
</trkpt>
<trkpt lat="43.164646" lon="19.162096">
<ele>1344.016602</ele>
<time>2012-05-01T16:11:19Z</time>
<desc>lat.=43.164646, lon.=19.162096, Alt.=1344.016602m. Speed=36.720001m/h.</desc>
<speed>10.200000</speed>
</trkpt>
<trkpt lat="43.164684" lon="19.162735">
<ele>1342.891602</ele>
<time>2012-05-01T16:11:24Z</time>
<desc>lat.=43.164684, lon.=19.162735, Alt.=1342.891602m. Speed=38.268002m/h.</desc>
<speed>10.630000</speed>
</trkpt>
<trkpt lat="43.164715" lon="19.163372">
<ele>1342.079102</ele>
<time>2012-05-01T16:11:29Z</time>
<desc>lat.=43.164715, lon.=19.163372, Alt.=1342.079102m. Speed=36.612000m/h.</desc>
<speed>10.170000</speed>
</trkpt>
<trkpt lat="43.164772" lon="19.163994">
<ele>1340.766602</ele>
<time>2012-05-01T16:11:34Z</time>
<desc>lat.=43.164772, lon.=19.163994, Alt.=1340.766602m. Speed=36.576000m/h.</desc>
<speed>10.160000</speed>
</trkpt>
<trkpt lat="43.164845" lon="19.164637">
<ele>1339.360352</ele>
<time>2012-05-01T16:11:39Z</time>
<desc>lat.=43.164845, lon.=19.164637, Alt.=1339.360352m. Speed=38.088001m/h.</desc>
<speed>10.580000</speed>
</trkpt>
<trkpt lat="43.164940" lon="19.165260">
<ele>1340.235352</ele>
<time>2012-05-01T16:11:44Z</time>
<desc>lat.=43.164940, lon.=19.165260, Alt.=1340.235352m. Speed=35.855999m/h.</desc>
<speed>9.960000</speed>
</trkpt>
<trkpt lat="43.165012" lon="19.165838">
<ele>1336.610352</ele>
<time>2012-05-01T16:11:49Z</time>
<desc>lat.=43.165012, lon.=19.165838, Alt.=1336.610352m. Speed=32.868000m/h.</desc>
<speed>9.130000</speed>
</trkpt>
<trkpt lat="43.165085" lon="19.166384">
<ele>1334.860352</ele>
<time>2012-05-01T16:11:54Z</time>
<desc>lat.=43.165085, lon.=19.166384, Alt.=1334.860352m. Speed=31.860001m/h.</desc>
<speed>8.850000</speed>
</trkpt>
<trkpt lat="43.165154" lon="19.166910">
<ele>1335.985352</ele>
<time>2012-05-01T16:11:59Z</time>
<desc>lat.=43.165154, lon.=19.166910, Alt.=1335.985352m. Speed=31.788000m/h.</desc>
<speed>8.830000</speed>
</trkpt>
<trkpt lat="43.165188" lon="19.167456">
<ele>1337.860352</ele>
<time>2012-05-01T16:12:04Z</time>
<desc>lat.=43.165188, lon.=19.167456, Alt.=1337.860352m. Speed=32.616001m/h.</desc>
<speed>9.060000</speed>
</trkpt>
<trkpt lat="43.165173" lon="19.168037">
<ele>1336.391602</ele>
<time>2012-05-01T16:12:09Z</time>
<desc>lat.=43.165173, lon.=19.168037, Alt.=1336.391602m. Speed=36.035999m/h.</desc>
<speed>10.010000</speed>
</trkpt>
<trkpt lat="43.165134" lon="19.168678">
<ele>1333.204102</ele>
<time>2012-05-01T16:12:14Z</time>
<desc>lat.=43.165134, lon.=19.168678, Alt.=1333.204102m. Speed=39.528000m/h.</desc>
<speed>10.980000</speed>
</trkpt>
<trkpt lat="43.165081" lon="19.169363">
<ele>1332.235352</ele>
<time>2012-05-01T16:12:19Z</time>
<desc>lat.=43.165081, lon.=19.169363, Alt.=1332.235352m. Speed=39.203999m/h.</desc>
<speed>10.890000</speed>
</trkpt>
<trkpt lat="43.165047" lon="19.169992">
<ele>1334.766602</ele>
<time>2012-05-01T16:12:24Z</time>
<desc>lat.=43.165047, lon.=19.169992, Alt.=1334.766602m. Speed=34.703999m/h.</desc>
<speed>9.640000</speed>
</trkpt>
<trkpt lat="43.165009" lon="19.170557">
<ele>1334.454102</ele>
<time>2012-05-01T16:12:29Z</time>
<desc>lat.=43.165009, lon.=19.170557, Alt.=1334.454102m. Speed=32.688000m/h.</desc>
<speed>9.080000</speed>
</trkpt>
<trkpt lat="43.164955" lon="19.171118">
<ele>1332.985352</ele>
<time>2012-05-01T16:12:34Z</time>
<desc>lat.=43.164955, lon.=19.171118, Alt.=1332.985352m. Speed=34.740002m/h.</desc>
<speed>9.650000</speed>
</trkpt>
<trkpt lat="43.164890" lon="19.171722">
<ele>1331.641602</ele>
<time>2012-05-01T16:12:39Z</time>
<desc>lat.=43.164890, lon.=19.171722, Alt.=1331.641602m. Speed=36.396000m/h.</desc>
<speed>10.110000</speed>
</trkpt>
<trkpt lat="43.164841" lon="19.172356">
<ele>1328.579102</ele>
<time>2012-05-01T16:12:44Z</time>
<desc>lat.=43.164841, lon.=19.172356, Alt.=1328.579102m. Speed=38.340000m/h.</desc>
<speed>10.650000</speed>
</trkpt>
<trkpt lat="43.164772" lon="19.173016">
<ele>1325.172852</ele>
<time>2012-05-01T16:12:49Z</time>
<desc>lat.=43.164772, lon.=19.173016, Alt.=1325.172852m. Speed=39.276001m/h.</desc>
<speed>10.910000</speed>
</trkpt>
<trkpt lat="43.164703" lon="19.173683">
<ele>1322.110352</ele>
<time>2012-05-01T16:12:54Z</time>
<desc>lat.=43.164703, lon.=19.173683, Alt.=1322.110352m. Speed=39.276001m/h.</desc>
<speed>10.910000</speed>
</trkpt>
<trkpt lat="43.164661" lon="19.174309">
<ele>1321.454102</ele>
<time>2012-05-01T16:12:59Z</time>
<desc>lat.=43.164661, lon.=19.174309, Alt.=1321.454102m. Speed=33.768002m/h.</desc>
<speed>9.380000</speed>
</trkpt>
<trkpt lat="43.164661" lon="19.174837">
<ele>1321.766602</ele>
<time>2012-05-01T16:13:04Z</time>
<desc>lat.=43.164661, lon.=19.174837, Alt.=1321.766602m. Speed=30.096001m/h.</desc>
<speed>8.360000</speed>
</trkpt>
<trkpt lat="43.164677" lon="19.175337">
<ele>1323.110352</ele>
<time>2012-05-01T16:13:09Z</time>
<desc>lat.=43.164677, lon.=19.175337, Alt.=1323.110352m. Speed=29.591999m/h.</desc>
<speed>8.220000</speed>
</trkpt>
<trkpt lat="43.164700" lon="19.175863">
<ele>1322.329102</ele>
<time>2012-05-01T16:13:14Z</time>
<desc>lat.=43.164700, lon.=19.175863, Alt.=1322.329102m. Speed=32.147999m/h.</desc>
<speed>8.930000</speed>
</trkpt>
<trkpt lat="43.164749" lon="19.176437">
<ele>1320.891602</ele>
<time>2012-05-01T16:13:19Z</time>
<desc>lat.=43.164749, lon.=19.176437, Alt.=1320.891602m. Speed=35.316002m/h.</desc>
<speed>9.810001</speed>
</trkpt>
<trkpt lat="43.164841" lon="19.177034">
<ele>1323.704102</ele>
<time>2012-05-01T16:13:24Z</time>
<desc>lat.=43.164841, lon.=19.177034, Alt.=1323.704102m. Speed=35.172001m/h.</desc>
<speed>9.770000</speed>
</trkpt>
<trkpt lat="43.164932" lon="19.177639">
<ele>1323.641602</ele>
<time>2012-05-01T16:13:29Z</time>
<desc>lat.=43.164932, lon.=19.177639, Alt.=1323.641602m. Speed=36.936001m/h.</desc>
<speed>10.260000</speed>
</trkpt>
<trkpt lat="43.164993" lon="19.178282">
<ele>1321.110352</ele>
<time>2012-05-01T16:13:34Z</time>
<desc>lat.=43.164993, lon.=19.178282, Alt.=1321.110352m. Speed=39.456001m/h.</desc>
<speed>10.960000</speed>
</trkpt>
<trkpt lat="43.165058" lon="19.178959">
<ele>1318.547852</ele>
<time>2012-05-01T16:13:39Z</time>
<desc>lat.=43.165058, lon.=19.178959, Alt.=1318.547852m. Speed=39.672001m/h.</desc>
<speed>11.020000</speed>
</trkpt>
<trkpt lat="43.165138" lon="19.179634">
<ele>1315.829102</ele>
<time>2012-05-01T16:13:44Z</time>
<desc>lat.=43.165138, lon.=19.179634, Alt.=1315.829102m. Speed=38.375999m/h.</desc>
<speed>10.660000</speed>
</trkpt>
<trkpt lat="43.165176" lon="19.180279">
<ele>1310.485352</ele>
<time>2012-05-01T16:13:49Z</time>
<desc>lat.=43.165176, lon.=19.180279, Alt.=1310.485352m. Speed=35.891998m/h.</desc>
<speed>9.970000</speed>
</trkpt>
<trkpt lat="43.165302" lon="19.180882">
<ele>1311.954102</ele>
<time>2012-05-01T16:13:54Z</time>
<desc>lat.=43.165302, lon.=19.180882, Alt.=1311.954102m. Speed=36.035999m/h.</desc>
<speed>10.010000</speed>
</trkpt>
<trkpt lat="43.165447" lon="19.181484">
<ele>1315.579102</ele>
<time>2012-05-01T16:13:59Z</time>
<desc>lat.=43.165447, lon.=19.181484, Alt.=1315.579102m. Speed=36.144001m/h.</desc>
<speed>10.040000</speed>
</trkpt>
<trkpt lat="43.165585" lon="19.182083">
<ele>1318.297852</ele>
<time>2012-05-01T16:14:04Z</time>
<desc>lat.=43.165585, lon.=19.182083, Alt.=1318.297852m. Speed=37.332001m/h.</desc>
<speed>10.370000</speed>
</trkpt>
<trkpt lat="43.165642" lon="19.182732">
<ele>1318.922852</ele>
<time>2012-05-01T16:14:09Z</time>
<desc>lat.=43.165642, lon.=19.182732, Alt.=1318.922852m. Speed=39.708000m/h.</desc>
<speed>11.030000</speed>
</trkpt>
<trkpt lat="43.165524" lon="19.183361">
<ele>1318.579102</ele>
<time>2012-05-01T16:14:14Z</time>
<desc>lat.=43.165524, lon.=19.183361, Alt.=1318.579102m. Speed=37.512001m/h.</desc>
<speed>10.420000</speed>
</trkpt>
<trkpt lat="43.165291" lon="19.183889">
<ele>1318.422852</ele>
<time>2012-05-01T16:14:19Z</time>
<desc>lat.=43.165291, lon.=19.183889, Alt.=1318.422852m. Speed=33.875999m/h.</desc>
<speed>9.410000</speed>
</trkpt>
<trkpt lat="43.165134" lon="19.184381">
<ele>1318.516602</ele>
<time>2012-05-01T16:14:24Z</time>
<desc>lat.=43.165134, lon.=19.184381, Alt.=1318.516602m. Speed=31.212000m/h.</desc>
<speed>8.670000</speed>
</trkpt>
<trkpt lat="43.165031" lon="19.184826">
<ele>1317.297852</ele>
<time>2012-05-01T16:14:29Z</time>
<desc>lat.=43.165031, lon.=19.184826, Alt.=1317.297852m. Speed=23.868000m/h.</desc>
<speed>6.630000</speed>
</trkpt>
<trkpt lat="43.164944" lon="19.185221">
<ele>1315.422852</ele>
<time>2012-05-01T16:14:34Z</time>
<desc>lat.=43.164944, lon.=19.185221, Alt.=1315.422852m. Speed=25.992001m/h.</desc>
<speed>7.220000</speed>
</trkpt>
<trkpt lat="43.164864" lon="19.185671">
<ele>1314.547852</ele>
<time>2012-05-01T16:14:39Z</time>
<desc>lat.=43.164864, lon.=19.185671, Alt.=1314.547852m. Speed=28.044001m/h.</desc>
<speed>7.790000</speed>
</trkpt>
<trkpt lat="43.164787" lon="19.186073">
<ele>1312.516602</ele>
<time>2012-05-01T16:14:44Z</time>
<desc>lat.=43.164787, lon.=19.186073, Alt.=1312.516602m. Speed=24.048000m/h.</desc>
<speed>6.680000</speed>
</trkpt>
<trkpt lat="43.164696" lon="19.186522">
<ele>1313.641602</ele>
<time>2012-05-01T16:14:49Z</time>
<desc>lat.=43.164696, lon.=19.186522, Alt.=1313.641602m. Speed=25.164000m/h.</desc>
<speed>6.990000</speed>
</trkpt>
<trkpt lat="43.164608" lon="19.186905">
<ele>1312.047852</ele>
<time>2012-05-01T16:14:54Z</time>
<desc>lat.=43.164608, lon.=19.186905, Alt.=1312.047852m. Speed=20.844000m/h.</desc>
<speed>5.790000</speed>
</trkpt>
<trkpt lat="43.164516" lon="19.187246">
<ele>1310.704102</ele>
<time>2012-05-01T16:14:59Z</time>
<desc>lat.=43.164516, lon.=19.187246, Alt.=1310.704102m. Speed=20.916000m/h.</desc>
<speed>5.810000</speed>
</trkpt>
<trkpt lat="43.164352" lon="19.187569">
<ele>1309.860352</ele>
<time>2012-05-01T16:15:04Z</time>
<desc>lat.=43.164352, lon.=19.187569, Alt.=1309.860352m. Speed=19.440001m/h.</desc>
<speed>5.400000</speed>
</trkpt>
<trkpt lat="43.164227" lon="19.187862">
<ele>1307.954102</ele>
<time>2012-05-01T16:15:09Z</time>
<desc>lat.=43.164227, lon.=19.187862, Alt.=1307.954102m. Speed=17.927999m/h.</desc>
<speed>4.980000</speed>
</trkpt>
<trkpt lat="43.164135" lon="19.188208">
<ele>1305.860352</ele>
<time>2012-05-01T16:15:14Z</time>
<desc>lat.=43.164135, lon.=19.188208, Alt.=1305.860352m. Speed=21.204000m/h.</desc>
<speed>5.890000</speed>
</trkpt>
<trkpt lat="43.164112" lon="19.188560">
<ele>1302.579102</ele>
<time>2012-05-01T16:15:19Z</time>
<desc>lat.=43.164112, lon.=19.188560, Alt.=1302.579102m. Speed=20.160000m/h.</desc>
<speed>5.600000</speed>
</trkpt>
<trkpt lat="43.164093" lon="19.188745">
<ele>1298.329102</ele>
<time>2012-05-01T16:15:24Z</time>
<desc>lat.=43.164093, lon.=19.188745, Alt.=1298.329102m. Speed=6.228000m/h.</desc>
<speed>1.730000</speed>
</trkpt>
<trkpt lat="43.164078" lon="19.188757">
<ele>1297.610352</ele>
<time>2012-05-01T16:15:29Z</time>
<desc>lat.=43.164078, lon.=19.188757, Alt.=1297.610352m. Speed=1.044000m/h.</desc>
<speed>0.290000</speed>
</trkpt>
<trkpt lat="43.164066" lon="19.188765">
<ele>1296.329102</ele>
<time>2012-05-01T16:15:34Z</time>
<desc>lat.=43.164066, lon.=19.188765, Alt.=1296.329102m. Speed=0.900000m/h.</desc>
<speed>0.250000</speed>
</trkpt>
<trkpt lat="43.164059" lon="19.188774">
<ele>1295.735352</ele>
<time>2012-05-01T16:15:39Z</time>
<desc>lat.=43.164059, lon.=19.188774, Alt.=1295.735352m. Speed=0.864000m/h.</desc>
<speed>0.240000</speed>
</trkpt>
<trkpt lat="43.164047" lon="19.188774">
<ele>1295.172852</ele>
<time>2012-05-01T16:15:44Z</time>
<desc>lat.=43.164047, lon.=19.188774, Alt.=1295.172852m. Speed=0.720000m/h.</desc>
<speed>0.200000</speed>
</trkpt>
<trkpt lat="43.164040" lon="19.188774">
<ele>1294.672852</ele>
<time>2012-05-01T16:15:49Z</time>
<desc>lat.=43.164040, lon.=19.188774, Alt.=1294.672852m. Speed=0.648000m/h.</desc>
<speed>0.180000</speed>
</trkpt>
<trkpt lat="43.164032" lon="19.188772">
<ele>1294.172852</ele>
<time>2012-05-01T16:15:54Z</time>
<desc>lat.=43.164032, lon.=19.188772, Alt.=1294.172852m. Speed=0.720000m/h.</desc>
<speed>0.200000</speed>
</trkpt>
<trkpt lat="43.164021" lon="19.188778">
<ele>1293.735352</ele>
<time>2012-05-01T16:15:59Z</time>
<desc>lat.=43.164021, lon.=19.188778, Alt.=1293.735352m. Speed=0.936000m/h.</desc>
<speed>0.260000</speed>
</trkpt>
<trkpt lat="43.164013" lon="19.188778">
<ele>1293.391602</ele>
<time>2012-05-01T16:16:04Z</time>
<desc>lat.=43.164013, lon.=19.188778, Alt.=1293.391602m. Speed=0.288000m/h.</desc>
<speed>0.080000</speed>
</trkpt>
<trkpt lat="43.164009" lon="19.188774">
<ele>1293.079102</ele>
<time>2012-05-01T16:16:09Z</time>
<desc>lat.=43.164009, lon.=19.188774, Alt.=1293.079102m. Speed=0.180000m/h.</desc>
<speed>0.050000</speed>
</trkpt>
<trkpt lat="43.164005" lon="19.188774">
<ele>1292.797852</ele>
<time>2012-05-01T16:16:14Z</time>
<desc>lat.=43.164005, lon.=19.188774, Alt.=1292.797852m. Speed=0.180000m/h.</desc>
<speed>0.050000</speed>
</trkpt>
<trkpt lat="43.164005" lon="19.188776">
<ele>1292.547852</ele>
<time>2012-05-01T16:16:19Z</time>
<desc>lat.=43.164005, lon.=19.188776, Alt.=1292.547852m. Speed=0.360000m/h.</desc>
<speed>0.100000</speed>
</trkpt>
<trkpt lat="43.164001" lon="19.188782">
<ele>1292.360352</ele>
<time>2012-05-01T16:16:24Z</time>
<desc>lat.=43.164001, lon.=19.188782, Alt.=1292.360352m. Speed=0.468000m/h.</desc>
<speed>0.130000</speed>
</trkpt>
<trkpt lat="43.164001" lon="19.188787">
<ele>1292.235352</ele>
<time>2012-05-01T16:16:29Z</time>
<desc>lat.=43.164001, lon.=19.188787, Alt.=1292.235352m. Speed=0.288000m/h.</desc>
<speed>0.080000</speed>
</trkpt>
<trkpt lat="43.164005" lon="19.188791">
<ele>1292.110352</ele>
<time>2012-05-01T16:16:34Z</time>
<desc>lat.=43.164005, lon.=19.188791, Alt.=1292.110352m. Speed=0.396000m/h.</desc>
<speed>0.110000</speed>
</trkpt>
<trkpt lat="43.164013" lon="19.188789">
<ele>1292.079102</ele>
<time>2012-05-01T16:16:39Z</time>
<desc>lat.=43.164013, lon.=19.188789, Alt.=1292.079102m. Speed=0.756000m/h.</desc>
<speed>0.210000</speed>
</trkpt>
<trkpt lat="43.164021" lon="19.188784">
<ele>1292.172852</ele>
<time>2012-05-01T16:16:44Z</time>
<desc>lat.=43.164021, lon.=19.188784, Alt.=1292.172852m. Speed=0.720000m/h.</desc>
<speed>0.200000</speed>
</trkpt>
<trkpt lat="43.164028" lon="19.188776">
<ele>1292.454102</ele>
<time>2012-05-01T16:16:49Z</time>
<desc>lat.=43.164028, lon.=19.188776, Alt.=1292.454102m. Speed=0.756000m/h.</desc>
<speed>0.210000</speed>
</trkpt>
<trkpt lat="43.164036" lon="19.188765">
<ele>1292.891602</ele>
<time>2012-05-01T16:16:54Z</time>
<desc>lat.=43.164036, lon.=19.188765, Alt.=1292.891602m. Speed=0.936000m/h.</desc>
<speed>0.260000</speed>
</trkpt>
<trkpt lat="43.164036" lon="19.188751">
<ele>1293.454102</ele>
<time>2012-05-01T16:16:59Z</time>
<desc>lat.=43.164036, lon.=19.188751, Alt.=1293.454102m. Speed=0.576000m/h.</desc>
<speed>0.160000</speed>
</trkpt>
<trkpt lat="43.164043" lon="19.188745">
<ele>1294.047852</ele>
<time>2012-05-01T16:17:04Z</time>
<desc>lat.=43.164043, lon.=19.188745, Alt.=1294.047852m. Speed=0.432000m/h.</desc>
<speed>0.120000</speed>
</trkpt>
<trkpt lat="43.164051" lon="19.188747">
<ele>1294.641602</ele>
<time>2012-05-01T16:17:09Z</time>
<desc>lat.=43.164051, lon.=19.188747, Alt.=1294.641602m. Speed=0.828000m/h.</desc>
<speed>0.230000</speed>
</trkpt>
<trkpt lat="43.164063" lon="19.188749">
<ele>1295.204102</ele>
<time>2012-05-01T16:17:14Z</time>
<desc>lat.=43.164063, lon.=19.188749, Alt.=1295.204102m. Speed=1.008000m/h.</desc>
<speed>0.280000</speed>
</trkpt>
<trkpt lat="43.164074" lon="19.188749">
<ele>1295.704102</ele>
<time>2012-05-01T16:17:19Z</time>
<desc>lat.=43.164074, lon.=19.188749, Alt.=1295.704102m. Speed=0.684000m/h.</desc>
<speed>0.190000</speed>
</trkpt>
<trkpt lat="43.164082" lon="19.188744">
<ele>1296.172852</ele>
<time>2012-05-01T16:17:24Z</time>
<desc>lat.=43.164082, lon.=19.188744, Alt.=1296.172852m. Speed=0.540000m/h.</desc>
<speed>0.150000</speed>
</trkpt>
<trkpt lat="43.164085" lon="19.188744">
<ele>1296.672852</ele>
<time>2012-05-01T16:17:29Z</time>
<desc>lat.=43.164085, lon.=19.188744, Alt.=1296.672852m. Speed=0.108000m/h.</desc>
<speed>0.030000</speed>
</trkpt>
<trkpt lat="43.164078" lon="19.188753">
<ele>1297.110352</ele>
<time>2012-05-01T16:17:34Z</time>
<desc>lat.=43.164078, lon.=19.188753, Alt.=1297.110352m. Speed=1.440000m/h.</desc>
<speed>0.400000</speed>
</trkpt>
<trkpt lat="43.164066" lon="19.188782">
<ele>1297.547852</ele>
<time>2012-05-01T16:17:39Z</time>
<desc>lat.=43.164066, lon.=19.188782, Alt.=1297.547852m. Speed=1.800000m/h.</desc>
<speed>0.500000</speed>
</trkpt>
<trkpt lat="43.164066" lon="19.188795">
<ele>1298.047852</ele>
<time>2012-05-01T16:17:44Z</time>
<desc>lat.=43.164066, lon.=19.188795, Alt.=1298.047852m. Speed=0.036000m/h.</desc>
<speed>0.010000</speed>
</trkpt>
<trkpt lat="43.164066" lon="19.188791">
<ele>1298.641602</ele>
<time>2012-05-01T16:17:49Z</time>
<desc>lat.=43.164066, lon.=19.188791, Alt.=1298.641602m. Speed=0.360000m/h.</desc>
<speed>0.100000</speed>
</trkpt>
<trkpt lat="43.164070" lon="19.188782">
<ele>1299.329102</ele>
<time>2012-05-01T16:17:54Z</time>
<desc>lat.=43.164070, lon.=19.188782, Alt.=1299.329102m. Speed=0.576000m/h.</desc>
<speed>0.160000</speed>
</trkpt>
<trkpt lat="43.164070" lon="19.188778">
<ele>1300.079102</ele>
<time>2012-05-01T16:17:59Z</time>
<desc>lat.=43.164070, lon.=19.188778, Alt.=1300.079102m. Speed=0.288000m/h.</desc>
<speed>0.080000</speed>
</trkpt>
<trkpt lat="43.164066" lon="19.188774">
<ele>1300.829102</ele>
<time>2012-05-01T16:18:04Z</time>
<desc>lat.=43.164066, lon.=19.188774, Alt.=1300.829102m. Speed=0.144000m/h.</desc>
<speed>0.040000</speed>
</trkpt>
<trkpt lat="43.164066" lon="19.188776">
<ele>1301.422852</ele>
<time>2012-05-01T16:18:09Z</time>
<desc>lat.=43.164066, lon.=19.188776, Alt.=1301.422852m. Speed=0.252000m/h.</desc>
<speed>0.070000</speed>
</trkpt>
<trkpt lat="43.164066" lon="19.188780">
<ele>1301.860352</ele>
<time>2012-05-01T16:18:14Z</time>
<desc>lat.=43.164066, lon.=19.188780, Alt.=1301.860352m. Speed=0.072000m/h.</desc>
<speed>0.020000</speed>
</trkpt>
<trkpt lat="43.164066" lon="19.188782">
<ele>1302.235352</ele>
<time>2012-05-01T16:18:19Z</time>
<desc>lat.=43.164066, lon.=19.188782, Alt.=1302.235352m. Speed=0.108000m/h.</desc>
<speed>0.030000</speed>
</trkpt>
<trkpt lat="43.164066" lon="19.188780">
<ele>1302.672852</ele>
<time>2012-05-01T16:18:24Z</time>
<desc>lat.=43.164066, lon.=19.188780, Alt.=1302.672852m. Speed=0.180000m/h.</desc>
<speed>0.050000</speed>
</trkpt>
<trkpt lat="43.164063" lon="19.188774">
<ele>1303.360352</ele>
<time>2012-05-01T16:18:29Z</time>
<desc>lat.=43.164063, lon.=19.188774, Alt.=1303.360352m. Speed=0.396000m/h.</desc>
<speed>0.110000</speed>
</trkpt>
<trkpt lat="43.164063" lon="19.188770">
<ele>1304.297852</ele>
<time>2012-05-01T16:18:34Z</time>
<desc>lat.=43.164063, lon.=19.188770, Alt.=1304.297852m. Speed=0.216000m/h.</desc>
<speed>0.060000</speed>
</trkpt>
<trkpt lat="43.164066" lon="19.188814">
<ele>1305.204102</ele>
<time>2012-05-01T16:18:39Z</time>
<desc>lat.=43.164066, lon.=19.188814, Alt.=1305.204102m. Speed=6.012000m/h.</desc>
<speed>1.670000</speed>
</trkpt>
<trkpt lat="43.164066" lon="19.188990">
<ele>1306.860352</ele>
<time>2012-05-01T16:18:44Z</time>
<desc>lat.=43.164066, lon.=19.188990, Alt.=1306.860352m. Speed=9.396000m/h.</desc>
<speed>2.610000</speed>
</trkpt>
<trkpt lat="43.164063" lon="19.189253">
<ele>1306.641602</ele>
<time>2012-05-01T16:18:49Z</time>
<desc>lat.=43.164063, lon.=19.189253, Alt.=1306.641602m. Speed=17.100000m/h.</desc>
<speed>4.750000</speed>
</trkpt>
<trkpt lat="43.164024" lon="19.189608">
<ele>1306.329102</ele>
<time>2012-05-01T16:18:54Z</time>
<desc>lat.=43.164024, lon.=19.189608, Alt.=1306.329102m. Speed=20.052000m/h.</desc>
<speed>5.570000</speed>
</trkpt>
<trkpt lat="43.163952" lon="19.189955">
<ele>1305.954102</ele>
<time>2012-05-01T16:18:59Z</time>
<desc>lat.=43.163952, lon.=19.189955, Alt.=1305.954102m. Speed=18.792000m/h.</desc>
<speed>5.220000</speed>
</trkpt>
<trkpt lat="43.163849" lon="19.190203">
<ele>1305.579102</ele>
<time>2012-05-01T16:19:04Z</time>
<desc>lat.=43.163849, lon.=19.190203, Alt.=1305.579102m. Speed=13.932000m/h.</desc>
<speed>3.870000</speed>
</trkpt>
<trkpt lat="43.163826" lon="19.190380">
<ele>1306.797852</ele>
<time>2012-05-01T16:19:09Z</time>
<desc>lat.=43.163826, lon.=19.190380, Alt.=1306.797852m. Speed=13.032000m/h.</desc>
<speed>3.620000</speed>
</trkpt>
<trkpt lat="43.163795" lon="19.190622">
<ele>1305.360352</ele>
<time>2012-05-01T16:19:14Z</time>
<desc>lat.=43.163795, lon.=19.190622, Alt.=1305.360352m. Speed=14.832000m/h.</desc>
<speed>4.120000</speed>
</trkpt>
<trkpt lat="43.163692" lon="19.190990">
<ele>1303.391602</ele>
<time>2012-05-01T16:19:19Z</time>
<desc>lat.=43.163692, lon.=19.190990, Alt.=1303.391602m. Speed=22.032000m/h.</desc>
<speed>6.120000</speed>
</trkpt>
<trkpt lat="43.163639" lon="19.191429">
<ele>1301.047852</ele>
<time>2012-05-01T16:19:24Z</time>
<desc>lat.=43.163639, lon.=19.191429, Alt.=1301.047852m. Speed=31.139999m/h.</desc>
<speed>8.650000</speed>
</trkpt>
<trkpt lat="43.163548" lon="19.192068">
<ele>1298.110352</ele>
<time>2012-05-01T16:19:29Z</time>
<desc>lat.=43.163548, lon.=19.192068, Alt.=1298.110352m. Speed=36.251999m/h.</desc>
<speed>10.070000</speed>
</trkpt>
<trkpt lat="43.163437" lon="19.192690">
<ele>1295.641602</ele>
<time>2012-05-01T16:19:34Z</time>
<desc>lat.=43.163437, lon.=19.192690, Alt.=1295.641602m. Speed=37.007999m/h.</desc>
<speed>10.280000</speed>
</trkpt>
<trkpt lat="43.163319" lon="19.193388">
<ele>1292.297852</ele>
<time>2012-05-01T16:19:39Z</time>
<desc>lat.=43.163319, lon.=19.193388, Alt.=1292.297852m. Speed=38.952000m/h.</desc>
<speed>10.820000</speed>
</trkpt>
<trkpt lat="43.163250" lon="19.194180">
<ele>1289.454102</ele>
<time>2012-05-01T16:19:44Z</time>
<desc>lat.=43.163250, lon.=19.194180, Alt.=1289.454102m. Speed=43.848000m/h.</desc>
<speed>12.180000</speed>
</trkpt>
<trkpt lat="43.163120" lon="19.194929">
<ele>1286.735352</ele>
<time>2012-05-01T16:19:49Z</time>
<desc>lat.=43.163120, lon.=19.194929, Alt.=1286.735352m. Speed=45.108002m/h.</desc>
<speed>12.530000</speed>
</trkpt>
<trkpt lat="43.162991" lon="19.195683">
<ele>1284.079102</ele>
<time>2012-05-01T16:19:54Z</time>
<desc>lat.=43.162991, lon.=19.195683, Alt.=1284.079102m. Speed=43.596001m/h.</desc>
<speed>12.110000</speed>
</trkpt>
<trkpt lat="43.162907" lon="19.196381">
<ele>1282.672852</ele>
<time>2012-05-01T16:19:59Z</time>
<desc>lat.=43.162907, lon.=19.196381, Alt.=1282.672852m. Speed=39.492001m/h.</desc>
<speed>10.970000</speed>
</trkpt>
<trkpt lat="43.162827" lon="19.196983">
<ele>1281.641602</ele>
<time>2012-05-01T16:20:04Z</time>
<desc>lat.=43.162827, lon.=19.196983, Alt.=1281.641602m. Speed=34.452000m/h.</desc>
<speed>9.570000</speed>
</trkpt>
<trkpt lat="43.162735" lon="19.197527">
<ele>1280.266602</ele>
<time>2012-05-01T16:20:09Z</time>
<desc>lat.=43.162735, lon.=19.197527, Alt.=1280.266602m. Speed=29.664000m/h.</desc>
<speed>8.240000</speed>
</trkpt>
<trkpt lat="43.162640" lon="19.198027">
<ele>1278.016602</ele>
<time>2012-05-01T16:20:14Z</time>
<desc>lat.=43.162640, lon.=19.198027, Alt.=1278.016602m. Speed=28.224001m/h.</desc>
<speed>7.840000</speed>
</trkpt>
<trkpt lat="43.162533" lon="19.198492">
<ele>1276.047852</ele>
<time>2012-05-01T16:20:19Z</time>
<desc>lat.=43.162533, lon.=19.198492, Alt.=1276.047852m. Speed=26.856001m/h.</desc>
<speed>7.460000</speed>
</trkpt>
<trkpt lat="43.162491" lon="19.198936">
<ele>1274.110352</ele>
<time>2012-05-01T16:20:24Z</time>
<desc>lat.=43.162491, lon.=19.198936, Alt.=1274.110352m. Speed=25.992001m/h.</desc>
<speed>7.220000</speed>
</trkpt>
<trkpt lat="43.162388" lon="19.199337">
<ele>1271.985352</ele>
<time>2012-05-01T16:20:29Z</time>
<desc>lat.=43.162388, lon.=19.199337, Alt.=1271.985352m. Speed=24.444000m/h.</desc>
<speed>6.790000</speed>
</trkpt>
<trkpt lat="43.162270" lon="19.199734">
<ele>1269.141602</ele>
<time>2012-05-01T16:20:34Z</time>
<desc>lat.=43.162270, lon.=19.199734, Alt.=1269.141602m. Speed=26.351999m/h.</desc>
<speed>7.320000</speed>
</trkpt>
<trkpt lat="43.162136" lon="19.200222">
<ele>1268.016602</ele>
<time>2012-05-01T16:20:39Z</time>
<desc>lat.=43.162136, lon.=19.200222, Alt.=1268.016602m. Speed=29.232000m/h.</desc>
<speed>8.120000</speed>
</trkpt>
<trkpt lat="43.161999" lon="19.200724">
<ele>1273.141602</ele>
<time>2012-05-01T16:20:44Z</time>
<desc>lat.=43.161999, lon.=19.200724, Alt.=1273.141602m. Speed=30.600000m/h.</desc>
<speed>8.500000</speed>
</trkpt>
<trkpt lat="43.161869" lon="19.201267">
<ele>1278.610352</ele>
<time>2012-05-01T16:20:49Z</time>
<desc>lat.=43.161869, lon.=19.201267, Alt.=1278.610352m. Speed=33.480000m/h.</desc>
<speed>9.300000</speed>
</trkpt>
<trkpt lat="43.161739" lon="19.201828">
<ele>1281.235352</ele>
<time>2012-05-01T16:20:54Z</time>
<desc>lat.=43.161739, lon.=19.201828, Alt.=1281.235352m. Speed=33.012001m/h.</desc>
<speed>9.170000</speed>
</trkpt>
<trkpt lat="43.161610" lon="19.202356">
<ele>1284.485352</ele>
<time>2012-05-01T16:20:59Z</time>
<desc>lat.=43.161610, lon.=19.202356, Alt.=1284.485352m. Speed=31.680000m/h.</desc>
<speed>8.800000</speed>
</trkpt>
<trkpt lat="43.161453" lon="19.202839">
<ele>1284.547852</ele>
<time>2012-05-01T16:21:04Z</time>
<desc>lat.=43.161453, lon.=19.202839, Alt.=1284.547852m. Speed=29.736000m/h.</desc>
<speed>8.260000</speed>
</trkpt>
<trkpt lat="43.161255" lon="19.203300">
<ele>1285.610352</ele>
<time>2012-05-01T16:21:09Z</time>
<desc>lat.=43.161255, lon.=19.203300, Alt.=1285.610352m. Speed=32.436001m/h.</desc>
<speed>9.010000</speed>
</trkpt>
<trkpt lat="43.161026" lon="19.203726">
<ele>1288.047852</ele>
<time>2012-05-01T16:21:14Z</time>
<desc>lat.=43.161026, lon.=19.203726, Alt.=1288.047852m. Speed=27.900000m/h.</desc>
<speed>7.750000</speed>
</trkpt>
<trkpt lat="43.160877" lon="19.204142">
<ele>1288.204102</ele>
<time>2012-05-01T16:21:19Z</time>
<desc>lat.=43.160877, lon.=19.204142, Alt.=1288.204102m. Speed=29.448000m/h.</desc>
<speed>8.180000</speed>
</trkpt>
<trkpt lat="43.160706" lon="19.204561">
<ele>1287.579102</ele>
<time>2012-05-01T16:21:24Z</time>
<desc>lat.=43.160706, lon.=19.204561, Alt.=1287.579102m. Speed=25.488001m/h.</desc>
<speed>7.080000</speed>
</trkpt>
<trkpt lat="43.160526" lon="19.204966">
<ele>1287.235352</ele>
<time>2012-05-01T16:21:29Z</time>
<desc>lat.=43.160526, lon.=19.204966, Alt.=1287.235352m. Speed=27.576000m/h.</desc>
<speed>7.660000</speed>
</trkpt>
<trkpt lat="43.160381" lon="19.205364">
<ele>1286.204102</ele>
<time>2012-05-01T16:21:34Z</time>
<desc>lat.=43.160381, lon.=19.205364, Alt.=1286.204102m. Speed=27.252001m/h.</desc>
<speed>7.570000</speed>
</trkpt>
<trkpt lat="43.160244" lon="19.205780">
<ele>1285.079102</ele>
<time>2012-05-01T16:21:39Z</time>
<desc>lat.=43.160244, lon.=19.205780, Alt.=1285.079102m. Speed=27.180000m/h.</desc>
<speed>7.550000</speed>
</trkpt>
<trkpt lat="43.160110" lon="19.206232">
<ele>1283.610352</ele>
<time>2012-05-01T16:21:44Z</time>
<desc>lat.=43.160110, lon.=19.206232, Alt.=1283.610352m. Speed=29.340000m/h.</desc>
<speed>8.150000</speed>
</trkpt>
<trkpt lat="43.159908" lon="19.206705">
<ele>1281.360352</ele>
<time>2012-05-01T16:21:49Z</time>
<desc>lat.=43.159908, lon.=19.206705, Alt.=1281.360352m. Speed=30.455999m/h.</desc>
<speed>8.460000</speed>
</trkpt>
<trkpt lat="43.159611" lon="19.207121">
<ele>1279.704102</ele>
<time>2012-05-01T16:21:54Z</time>
<desc>lat.=43.159611, lon.=19.207121, Alt.=1279.704102m. Speed=30.636000m/h.</desc>
<speed>8.510000</speed>
</trkpt>
<trkpt lat="43.159340" lon="19.207529">
<ele>1279.110352</ele>
<time>2012-05-01T16:21:59Z</time>
<desc>lat.=43.159340, lon.=19.207529, Alt.=1279.110352m. Speed=27.396000m/h.</desc>
<speed>7.610000</speed>
</trkpt>
<trkpt lat="43.159214" lon="19.207920">
<ele>1276.391602</ele>
<time>2012-05-01T16:22:04Z</time>
<desc>lat.=43.159214, lon.=19.207920, Alt.=1276.391602m. Speed=25.056000m/h.</desc>
<speed>6.960000</speed>
</trkpt>
<trkpt lat="43.159096" lon="19.208385">
<ele>1272.985352</ele>
<time>2012-05-01T16:22:09Z</time>
<desc>lat.=43.159096, lon.=19.208385, Alt.=1272.985352m. Speed=29.304001m/h.</desc>
<speed>8.140000</speed>
</trkpt>
<trkpt lat="43.158993" lon="19.208897">
<ele>1271.110352</ele>
<time>2012-05-01T16:22:14Z</time>
<desc>lat.=43.158993, lon.=19.208897, Alt.=1271.110352m. Speed=29.736000m/h.</desc>
<speed>8.260000</speed>
</trkpt>
<trkpt lat="43.158878" lon="19.209373">
<ele>1270.641602</ele>
<time>2012-05-01T16:22:19Z</time>
<desc>lat.=43.158878, lon.=19.209373, Alt.=1270.641602m. Speed=28.620001m/h.</desc>
<speed>7.950000</speed>
</trkpt>
<trkpt lat="43.158730" lon="19.209810">
<ele>1270.235352</ele>
<time>2012-05-01T16:22:24Z</time>
<desc>lat.=43.158730, lon.=19.209810, Alt.=1270.235352m. Speed=30.384001m/h.</desc>
<speed>8.440000</speed>
</trkpt>
<trkpt lat="43.158474" lon="19.210236">
<ele>1268.047852</ele>
<time>2012-05-01T16:22:29Z</time>
<desc>lat.=43.158474, lon.=19.210236, Alt.=1268.047852m. Speed=34.919998m/h.</desc>
<speed>9.699999</speed>
</trkpt>
<trkpt lat="43.158218" lon="19.210735">
<ele>1266.172852</ele>
<time>2012-05-01T16:22:34Z</time>
<desc>lat.=43.158218, lon.=19.210735, Alt.=1266.172852m. Speed=35.604000m/h.</desc>
<speed>9.890000</speed>
</trkpt>
<trkpt lat="43.157944" lon="19.211164">
<ele>1263.954102</ele>
<time>2012-05-01T16:22:39Z</time>
<desc>lat.=43.157944, lon.=19.211164, Alt.=1263.954102m. Speed=33.768002m/h.</desc>
<speed>9.380000</speed>
</trkpt>
<trkpt lat="43.157639" lon="19.211494">
<ele>1261.235352</ele>
<time>2012-05-01T16:22:44Z</time>
<desc>lat.=43.157639, lon.=19.211494, Alt.=1261.235352m. Speed=31.680000m/h.</desc>
<speed>8.800000</speed>
</trkpt>
<trkpt lat="43.157284" lon="19.211706">
<ele>1259.016602</ele>
<time>2012-05-01T16:22:49Z</time>
<desc>lat.=43.157284, lon.=19.211706, Alt.=1259.016602m. Speed=26.568001m/h.</desc>
<speed>7.380000</speed>
</trkpt>
<trkpt lat="43.157009" lon="19.211752">
<ele>1257.047852</ele>
<time>2012-05-01T16:22:54Z</time>
<desc>lat.=43.157009, lon.=19.211752, Alt.=1257.047852m. Speed=19.691999m/h.</desc>
<speed>5.470000</speed>
</trkpt>
<trkpt lat="43.156796" lon="19.211786">
<ele>1255.610352</ele>
<time>2012-05-01T16:22:59Z</time>
<desc>lat.=43.156796, lon.=19.211786, Alt.=1255.610352m. Speed=15.084000m/h.</desc>
<speed>4.190000</speed>
</trkpt>
<trkpt lat="43.156643" lon="19.211691">
<ele>1255.047852</ele>
<time>2012-05-01T16:23:04Z</time>
<desc>lat.=43.156643, lon.=19.211691, Alt.=1255.047852m. Speed=12.204000m/h.</desc>
<speed>3.390000</speed>
</trkpt>
<trkpt lat="43.156521" lon="19.211740">
<ele>1254.735352</ele>
<time>2012-05-01T16:23:09Z</time>
<desc>lat.=43.156521, lon.=19.211740, Alt.=1254.735352m. Speed=9.180000m/h.</desc>
<speed>2.550000</speed>
</trkpt>
<trkpt lat="43.156448" lon="19.211792">
<ele>1254.610352</ele>
<time>2012-05-01T16:23:14Z</time>
<desc>lat.=43.156448, lon.=19.211792, Alt.=1254.610352m. Speed=5.832000m/h.</desc>
<speed>1.620000</speed>
</trkpt>
<trkpt lat="43.156380" lon="19.211857">
<ele>1254.704102</ele>
<time>2012-05-01T16:23:19Z</time>
<desc>lat.=43.156380, lon.=19.211857, Alt.=1254.704102m. Speed=4.356000m/h.</desc>
<speed>1.210000</speed>
</trkpt>
<trkpt lat="43.156319" lon="19.211910">
<ele>1257.797852</ele>
<time>2012-05-01T16:23:24Z</time>
<desc>lat.=43.156319, lon.=19.211910, Alt.=1257.797852m. Speed=5.832000m/h.</desc>
<speed>1.620000</speed>
</trkpt>
<trkpt lat="43.156235" lon="19.212004">
<ele>1261.985352</ele>
<time>2012-05-01T16:23:29Z</time>
<desc>lat.=43.156235, lon.=19.212004, Alt.=1261.985352m. Speed=3.096000m/h.</desc>
<speed>0.860000</speed>
</trkpt>
<trkpt lat="43.156216" lon="19.212044">
<ele>1266.360352</ele>
<time>2012-05-01T16:23:34Z</time>
<desc>lat.=43.156216, lon.=19.212044, Alt.=1266.360352m. Speed=5.256000m/h.</desc>
<speed>1.460000</speed>
</trkpt>
<trkpt lat="43.156052" lon="19.212034">
<ele>1270.797852</ele>
<time>2012-05-01T16:23:39Z</time>
<desc>lat.=43.156052, lon.=19.212034, Alt.=1270.797852m. Speed=10.728000m/h.</desc>
<speed>2.980000</speed>
</trkpt>
<trkpt lat="43.155888" lon="19.211992">
<ele>1275.641602</ele>
<time>2012-05-01T16:23:44Z</time>
<desc>lat.=43.155888, lon.=19.211992, Alt.=1275.641602m. Speed=12.996000m/h.</desc>
<speed>3.610000</speed>
</trkpt>
<trkpt lat="43.155750" lon="19.211983">
<ele>1281.079102</ele>
<time>2012-05-01T16:23:49Z</time>
<desc>lat.=43.155750, lon.=19.211983, Alt.=1281.079102m. Speed=9.036000m/h.</desc>
<speed>2.510000</speed>
</trkpt>
<trkpt lat="43.155628" lon="19.212017">
<ele>1286.860352</ele>
<time>2012-05-01T16:23:54Z</time>
<desc>lat.=43.155628, lon.=19.212017, Alt.=1286.860352m. Speed=9.900000m/h.</desc>
<speed>2.750000</speed>
</trkpt>
<trkpt lat="43.155483" lon="19.212082">
<ele>1293.266602</ele>
<time>2012-05-01T16:23:59Z</time>
<desc>lat.=43.155483, lon.=19.212082, Alt.=1293.266602m. Speed=9.936000m/h.</desc>
<speed>2.760000</speed>
</trkpt>
<trkpt lat="43.155338" lon="19.212111">
<ele>1299.391602</ele>
<time>2012-05-01T16:24:04Z</time>
<desc>lat.=43.155338, lon.=19.212111, Alt.=1299.391602m. Speed=9.756000m/h.</desc>
<speed>2.710000</speed>
</trkpt>
<trkpt lat="43.155216" lon="19.212175">
<ele>1305.704102</ele>
<time>2012-05-01T16:24:09Z</time>
<desc>lat.=43.155216, lon.=19.212175, Alt.=1305.704102m. Speed=9.360000m/h.</desc>
<speed>2.600000</speed>
</trkpt>
<trkpt lat="43.155109" lon="19.212200">
<ele>1311.516602</ele>
<time>2012-05-01T16:24:14Z</time>
<desc>lat.=43.155109, lon.=19.212200, Alt.=1311.516602m. Speed=10.260000m/h.</desc>
<speed>2.850000</speed>
</trkpt>
<trkpt lat="43.154869" lon="19.212273">
<ele>1315.985352</ele>
<time>2012-05-01T16:24:19Z</time>
<desc>lat.=43.154869, lon.=19.212273, Alt.=1315.985352m. Speed=11.160000m/h.</desc>
<speed>3.100000</speed>
</trkpt>
<trkpt lat="43.154633" lon="19.212303">
<ele>1319.579102</ele>
<time>2012-05-01T16:24:24Z</time>
<desc>lat.=43.154633, lon.=19.212303, Alt.=1319.579102m. Speed=17.172001m/h.</desc>
<speed>4.770000</speed>
</trkpt>
<trkpt lat="43.154465" lon="19.212332">
<ele>1324.235352</ele>
<time>2012-05-01T16:24:29Z</time>
<desc>lat.=43.154465, lon.=19.212332, Alt.=1324.235352m. Speed=10.080000m/h.</desc>
<speed>2.800000</speed>
</trkpt>
<trkpt lat="43.154297" lon="19.212385">
<ele>1327.610352</ele>
<time>2012-05-01T16:24:34Z</time>
<desc>lat.=43.154297, lon.=19.212385, Alt.=1327.610352m. Speed=13.032000m/h.</desc>
<speed>3.620000</speed>
</trkpt>
<trkpt lat="43.154152" lon="19.212460">
<ele>1331.454102</ele>
<time>2012-05-01T16:24:39Z</time>
<desc>lat.=43.154152, lon.=19.212460, Alt.=1331.454102m. Speed=12.312000m/h.</desc>
<speed>3.420000</speed>
</trkpt>
<trkpt lat="43.154011" lon="19.212585">
<ele>1335.329102</ele>
<time>2012-05-01T16:24:44Z</time>
<desc>lat.=43.154011, lon.=19.212585, Alt.=1335.329102m. Speed=11.916000m/h.</desc>
<speed>3.310000</speed>
</trkpt>
<trkpt lat="43.153881" lon="19.212839">
<ele>1340.141602</ele>
<time>2012-05-01T16:24:49Z</time>
<desc>lat.=43.153881, lon.=19.212839, Alt.=1340.141602m. Speed=15.048000m/h.</desc>
<speed>4.180000</speed>
</trkpt>
<trkpt lat="43.153767" lon="19.213112">
<ele>1346.391602</ele>
<time>2012-05-01T16:24:54Z</time>
<desc>lat.=43.153767, lon.=19.213112, Alt.=1346.391602m. Speed=18.143999m/h.</desc>
<speed>5.040000</speed>
</trkpt>
<trkpt lat="43.153648" lon="19.213461">
<ele>1354.079102</ele>
<time>2012-05-01T16:24:59Z</time>
<desc>lat.=43.153648, lon.=19.213461, Alt.=1354.079102m. Speed=24.624001m/h.</desc>
<speed>6.840000</speed>
</trkpt>
<trkpt lat="43.153492" lon="19.213877">
<ele>1359.079102</ele>
<time>2012-05-01T16:25:04Z</time>
<desc>lat.=43.153492, lon.=19.213877, Alt.=1359.079102m. Speed=27.864000m/h.</desc>
<speed>7.740000</speed>
</trkpt>
<trkpt lat="43.153290" lon="19.214342">
<ele>1362.579102</ele>
<time>2012-05-01T16:25:09Z</time>
<desc>lat.=43.153290, lon.=19.214342, Alt.=1362.579102m. Speed=30.743999m/h.</desc>
<speed>8.540000</speed>
</trkpt>
<trkpt lat="43.153027" lon="19.214750">
<ele>1364.985352</ele>
<time>2012-05-01T16:25:14Z</time>
<desc>lat.=43.153027, lon.=19.214750, Alt.=1364.985352m. Speed=31.823999m/h.</desc>
<speed>8.840000</speed>
</trkpt>
<trkpt lat="43.152699" lon="19.215126">
<ele>1366.547852</ele>
<time>2012-05-01T16:25:19Z</time>
<desc>lat.=43.152699, lon.=19.215126, Alt.=1366.547852m. Speed=32.040001m/h.</desc>
<speed>8.900000</speed>
</trkpt>
<trkpt lat="43.152340" lon="19.215414">
<ele>1367.204102</ele>
<time>2012-05-01T16:25:24Z</time>
<desc>lat.=43.152340, lon.=19.215414, Alt.=1367.204102m. Speed=30.636000m/h.</desc>
<speed>8.510000</speed>
</trkpt>
<trkpt lat="43.151978" lon="19.215677">
<ele>1365.922852</ele>
<time>2012-05-01T16:25:29Z</time>
<desc>lat.=43.151978, lon.=19.215677, Alt.=1365.922852m. Speed=29.448000m/h.</desc>
<speed>8.180000</speed>
</trkpt>
<trkpt lat="43.151649" lon="19.215931">
<ele>1366.672852</ele>
<time>2012-05-01T16:25:34Z</time>
<desc>lat.=43.151649, lon.=19.215931, Alt.=1366.672852m. Speed=29.052000m/h.</desc>
<speed>8.070000</speed>
</trkpt>
<trkpt lat="43.151314" lon="19.216169">
<ele>1366.766602</ele>
<time>2012-05-01T16:25:39Z</time>
<desc>lat.=43.151314, lon.=19.216169, Alt.=1366.766602m. Speed=30.563999m/h.</desc>
<speed>8.490000</speed>
</trkpt>
<trkpt lat="43.150940" lon="19.216461">
<ele>1367.329102</ele>
<time>2012-05-01T16:25:44Z</time>
<desc>lat.=43.150940, lon.=19.216461, Alt.=1367.329102m. Speed=35.063999m/h.</desc>
<speed>9.740000</speed>
</trkpt>
<trkpt lat="43.150597" lon="19.216873">
<ele>1366.735352</ele>
<time>2012-05-01T16:25:49Z</time>
<desc>lat.=43.150597, lon.=19.216873, Alt.=1366.735352m. Speed=36.936001m/h.</desc>
<speed>10.260000</speed>
</trkpt>
<trkpt lat="43.150269" lon="19.217445">
<ele>1366.110352</ele>
<time>2012-05-01T16:25:54Z</time>
<desc>lat.=43.150269, lon.=19.217445, Alt.=1366.110352m. Speed=38.627998m/h.</desc>
<speed>10.730000</speed>
</trkpt>
<trkpt lat="43.149933" lon="19.218126">
<ele>1364.297852</ele>
<time>2012-05-01T16:25:59Z</time>
<desc>lat.=43.149933, lon.=19.218126, Alt.=1364.297852m. Speed=36.396000m/h.</desc>
<speed>10.110000</speed>
</trkpt>
<trkpt lat="43.149654" lon="19.218693">
<ele>1362.391602</ele>
<time>2012-05-01T16:26:04Z</time>
<desc>lat.=43.149654, lon.=19.218693, Alt.=1362.391602m. Speed=35.891998m/h.</desc>
<speed>9.970000</speed>
</trkpt>
<trkpt lat="43.149345" lon="19.219166">
<ele>1357.860352</ele>
<time>2012-05-01T16:26:09Z</time>
<desc>lat.=43.149345, lon.=19.219166, Alt.=1357.860352m. Speed=35.712002m/h.</desc>
<speed>9.920001</speed>
</trkpt>
<trkpt lat="43.148975" lon="19.219543">
<ele>1354.266602</ele>
<time>2012-05-01T16:26:14Z</time>
<desc>lat.=43.148975, lon.=19.219543, Alt.=1354.266602m. Speed=32.112000m/h.</desc>
<speed>8.920000</speed>
</trkpt>
<trkpt lat="43.148643" lon="19.219769">
<ele>1349.454102</ele>
<time>2012-05-01T16:26:19Z</time>
<desc>lat.=43.148643, lon.=19.219769, Alt.=1349.454102m. Speed=26.100000m/h.</desc>
<speed>7.250000</speed>
</trkpt>
<trkpt lat="43.148354" lon="19.219929">
<ele>1345.797852</ele>
<time>2012-05-01T16:26:24Z</time>
<desc>lat.=43.148354, lon.=19.219929, Alt.=1345.797852m. Speed=25.164000m/h.</desc>
<speed>6.990000</speed>
</trkpt>
<trkpt lat="43.148056" lon="19.220110">
<ele>1341.954102</ele>
<time>2012-05-01T16:26:29Z</time>
<desc>lat.=43.148056, lon.=19.220110, Alt.=1341.954102m. Speed=23.112000m/h.</desc>
<speed>6.420000</speed>
</trkpt>
<trkpt lat="43.147827" lon="19.220264">
<ele>1339.829102</ele>
<time>2012-05-01T16:26:34Z</time>
<desc>lat.=43.147827, lon.=19.220264, Alt.=1339.829102m. Speed=19.980000m/h.</desc>
<speed>5.550000</speed>
</trkpt>
<trkpt lat="43.147610" lon="19.220467">
<ele>1338.704102</ele>
<time>2012-05-01T16:26:39Z</time>
<desc>lat.=43.147610, lon.=19.220467, Alt.=1338.704102m. Speed=23.219999m/h.</desc>
<speed>6.450000</speed>
</trkpt>
<trkpt lat="43.147434" lon="19.220722">
<ele>1338.172852</ele>
<time>2012-05-01T16:26:44Z</time>
<desc>lat.=43.147434, lon.=19.220722, Alt.=1338.172852m. Speed=22.176001m/h.</desc>
<speed>6.160000</speed>
</trkpt>
<trkpt lat="43.147297" lon="19.221081">
<ele>1337.235352</ele>
<time>2012-05-01T16:26:49Z</time>
<desc>lat.=43.147297, lon.=19.221081, Alt.=1337.235352m. Speed=26.280001m/h.</desc>
<speed>7.300000</speed>
</trkpt>
<trkpt lat="43.147110" lon="19.221640">
<ele>1334.391602</ele>
<time>2012-05-01T16:26:54Z</time>
<desc>lat.=43.147110, lon.=19.221640, Alt.=1334.391602m. Speed=26.459999m/h.</desc>
<speed>7.350000</speed>
</trkpt>
<trkpt lat="43.146942" lon="19.222122">
<ele>1330.141602</ele>
<time>2012-05-01T16:26:59Z</time>
<desc>lat.=43.146942, lon.=19.222122, Alt.=1330.141602m. Speed=22.068001m/h.</desc>
<speed>6.130000</speed>
</trkpt>
<trkpt lat="43.146751" lon="19.222433">
<ele>1326.016602</ele>
<time>2012-05-01T16:27:04Z</time>
<desc>lat.=43.146751, lon.=19.222433, Alt.=1326.016602m. Speed=20.988001m/h.</desc>
<speed>5.830000</speed>
</trkpt>
<trkpt lat="43.146557" lon="19.222597">
<ele>1322.735352</ele>
<time>2012-05-01T16:27:09Z</time>
<desc>lat.=43.146557, lon.=19.222597, Alt.=1322.735352m. Speed=16.955999m/h.</desc>
<speed>4.710000</speed>
</trkpt>
<trkpt lat="43.146385" lon="19.222692">
<ele>1324.079102</ele>
<time>2012-05-01T16:27:14Z</time>
<desc>lat.=43.146385, lon.=19.222692, Alt.=1324.079102m. Speed=15.264000m/h.</desc>
<speed>4.240000</speed>
</trkpt>
<trkpt lat="43.146179" lon="19.222795">
<ele>1323.079102</ele>
<time>2012-05-01T16:27:19Z</time>
<desc>lat.=43.146179, lon.=19.222795, Alt.=1323.079102m. Speed=14.580000m/h.</desc>
<speed>4.050000</speed>
</trkpt>
<trkpt lat="43.146011" lon="19.222864">
<ele>1324.579102</ele>
<time>2012-05-01T16:27:24Z</time>
<desc>lat.=43.146011, lon.=19.222864, Alt.=1324.579102m. Speed=13.536000m/h.</desc>
<speed>3.760000</speed>
</trkpt>
<trkpt lat="43.145851" lon="19.222973">
<ele>1326.610352</ele>
<time>2012-05-01T16:27:29Z</time>
<desc>lat.=43.145851, lon.=19.222973, Alt.=1326.610352m. Speed=14.220000m/h.</desc>
<speed>3.950000</speed>
</trkpt>
<trkpt lat="43.145679" lon="19.223068">
<ele>1329.266602</ele>
<time>2012-05-01T16:27:34Z</time>
<desc>lat.=43.145679, lon.=19.223068, Alt.=1329.266602m. Speed=16.452000m/h.</desc>
<speed>4.570000</speed>
</trkpt>
<trkpt lat="43.145508" lon="19.223225">
<ele>1334.922852</ele>
<time>2012-05-01T16:27:39Z</time>
<desc>lat.=43.145508, lon.=19.223225, Alt.=1334.922852m. Speed=14.724000m/h.</desc>
<speed>4.090000</speed>
</trkpt>
<trkpt lat="43.145344" lon="19.223438">
<ele>1336.454102</ele>
<time>2012-05-01T16:27:44Z</time>
<desc>lat.=43.145344, lon.=19.223438, Alt.=1336.454102m. Speed=15.444000m/h.</desc>
<speed>4.290000</speed>
</trkpt>
<trkpt lat="43.145168" lon="19.223713">
<ele>1329.047852</ele>
<time>2012-05-01T16:27:49Z</time>
<desc>lat.=43.145168, lon.=19.223713, Alt.=1329.047852m. Speed=19.332001m/h.</desc>
<speed>5.370000</speed>
</trkpt>
<trkpt lat="43.144955" lon="19.224014">
<ele>1325.766602</ele>
<time>2012-05-01T16:27:54Z</time>
<desc>lat.=43.144955, lon.=19.224014, Alt.=1325.766602m. Speed=23.292000m/h.</desc>
<speed>6.470000</speed>
</trkpt>
<trkpt lat="43.144733" lon="19.224360">
<ele>1324.641602</ele>
<time>2012-05-01T16:27:59Z</time>
<desc>lat.=43.144733, lon.=19.224360, Alt.=1324.641602m. Speed=26.028000m/h.</desc>
<speed>7.230000</speed>
</trkpt>
<trkpt lat="43.144489" lon="19.224707">
<ele>1324.422852</ele>
<time>2012-05-01T16:28:04Z</time>
<desc>lat.=43.144489, lon.=19.224707, Alt.=1324.422852m. Speed=28.691999m/h.</desc>
<speed>7.970000</speed>
</trkpt>
<trkpt lat="43.144222" lon="19.225044">
<ele>1321.860352</ele>
<time>2012-05-01T16:28:09Z</time>
<desc>lat.=43.144222, lon.=19.225044, Alt.=1321.860352m. Speed=29.771999m/h.</desc>
<speed>8.270000</speed>
</trkpt>
<trkpt lat="43.143948" lon="19.225386">
<ele>1316.766602</ele>
<time>2012-05-01T16:28:14Z</time>
<desc>lat.=43.143948, lon.=19.225386, Alt.=1316.766602m. Speed=29.195999m/h.</desc>
<speed>8.110000</speed>
</trkpt>
<trkpt lat="43.143703" lon="19.225779">
<ele>1313.766602</ele>
<time>2012-05-01T16:28:19Z</time>
<desc>lat.=43.143703, lon.=19.225779, Alt.=1313.766602m. Speed=29.232000m/h.</desc>
<speed>8.120000</speed>
</trkpt>
<trkpt lat="43.143520" lon="19.226192">
<ele>1312.610352</ele>
<time>2012-05-01T16:28:24Z</time>
<desc>lat.=43.143520, lon.=19.226192, Alt.=1312.610352m. Speed=28.188000m/h.</desc>
<speed>7.830000</speed>
</trkpt>
<trkpt lat="43.143379" lon="19.226679">
<ele>1313.641602</ele>
<time>2012-05-01T16:28:29Z</time>
<desc>lat.=43.143379, lon.=19.226679, Alt.=1313.641602m. Speed=32.363998m/h.</desc>
<speed>8.990000</speed>
</trkpt>
<trkpt lat="43.143288" lon="19.227247">
<ele>1314.454102</ele>
<time>2012-05-01T16:28:34Z</time>
<desc>lat.=43.143288, lon.=19.227247, Alt.=1314.454102m. Speed=34.127998m/h.</desc>
<speed>9.480000</speed>
</trkpt>
<trkpt lat="43.143257" lon="19.227793">
<ele>1314.985352</ele>
<time>2012-05-01T16:28:39Z</time>
<desc>lat.=43.143257, lon.=19.227793, Alt.=1314.985352m. Speed=29.160000m/h.</desc>
<speed>8.100000</speed>
</trkpt>
<trkpt lat="43.143284" lon="19.228266">
<ele>1315.516602</ele>
<time>2012-05-01T16:28:44Z</time>
<desc>lat.=43.143284, lon.=19.228266, Alt.=1315.516602m. Speed=26.927999m/h.</desc>
<speed>7.480000</speed>
</trkpt>
<trkpt lat="43.143337" lon="19.228704">
<ele>1316.766602</ele>
<time>2012-05-01T16:28:49Z</time>
<desc>lat.=43.143337, lon.=19.228704, Alt.=1316.766602m. Speed=28.584000m/h.</desc>
<speed>7.940000</speed>
</trkpt>
<trkpt lat="43.143448" lon="19.229193">
<ele>1315.516602</ele>
<time>2012-05-01T16:28:54Z</time>
<desc>lat.=43.143448, lon.=19.229193, Alt.=1315.516602m. Speed=30.816000m/h.</desc>
<speed>8.560000</speed>
</trkpt>
<trkpt lat="43.143570" lon="19.229681">
<ele>1316.704102</ele>
<time>2012-05-01T16:28:59Z</time>
<desc>lat.=43.143570, lon.=19.229681, Alt.=1316.704102m. Speed=29.124001m/h.</desc>
<speed>8.090000</speed>
</trkpt>
<trkpt lat="43.143684" lon="19.230106">
<ele>1315.704102</ele>
<time>2012-05-01T16:29:04Z</time>
<desc>lat.=43.143684, lon.=19.230106, Alt.=1315.704102m. Speed=24.516001m/h.</desc>
<speed>6.810000</speed>
</trkpt>
<trkpt lat="43.143776" lon="19.230530">
<ele>1314.735352</ele>
<time>2012-05-01T16:29:09Z</time>
<desc>lat.=43.143776, lon.=19.230530, Alt.=1314.735352m. Speed=27.936001m/h.</desc>
<speed>7.760000</speed>
</trkpt>
<trkpt lat="43.143898" lon="19.230953">
<ele>1313.266602</ele>
<time>2012-05-01T16:29:14Z</time>
<desc>lat.=43.143898, lon.=19.230953, Alt.=1313.266602m. Speed=24.875999m/h.</desc>
<speed>6.910000</speed>
</trkpt>
<trkpt lat="43.144024" lon="19.231321">
<ele>1312.454102</ele>
<time>2012-05-01T16:29:19Z</time>
<desc>lat.=43.144024, lon.=19.231321, Alt.=1312.454102m. Speed=22.427999m/h.</desc>
<speed>6.230000</speed>
</trkpt>
<trkpt lat="43.144108" lon="19.231674">
<ele>1311.266602</ele>
<time>2012-05-01T16:29:24Z</time>
<desc>lat.=43.144108, lon.=19.231674, Alt.=1311.266602m. Speed=22.068001m/h.</desc>
<speed>6.130000</speed>
</trkpt>
<trkpt lat="43.144188" lon="19.232018">
<ele>1310.297852</ele>
<time>2012-05-01T16:29:29Z</time>
<desc>lat.=43.144188, lon.=19.232018, Alt.=1310.297852m. Speed=21.959999m/h.</desc>
<speed>6.100000</speed>
</trkpt>
<trkpt lat="43.144268" lon="19.232353">
<ele>1309.360352</ele>
<time>2012-05-01T16:29:34Z</time>
<desc>lat.=43.144268, lon.=19.232353, Alt.=1309.360352m. Speed=17.063999m/h.</desc>
<speed>4.740000</speed>
</trkpt>
<trkpt lat="43.144341" lon="19.232660">
<ele>1309.047852</ele>
<time>2012-05-01T16:29:39Z</time>
<desc>lat.=43.144341, lon.=19.232660, Alt.=1309.047852m. Speed=19.980000m/h.</desc>
<speed>5.550000</speed>
</trkpt>
<trkpt lat="43.144466" lon="19.232981">
<ele>1310.141602</ele>
<time>2012-05-01T16:29:44Z</time>
<desc>lat.=43.144466, lon.=19.232981, Alt.=1310.141602m. Speed=21.348000m/h.</desc>
<speed>5.930000</speed>
</trkpt>
<trkpt lat="43.144608" lon="19.233307">
<ele>1310.516602</ele>
<time>2012-05-01T16:29:49Z</time>
<desc>lat.=43.144608, lon.=19.233307, Alt.=1310.516602m. Speed=19.656000m/h.</desc>
<speed>5.460000</speed>
</trkpt>
<trkpt lat="43.144726" lon="19.233524">
<ele>1311.485352</ele>
<time>2012-05-01T16:29:54Z</time>
<desc>lat.=43.144726, lon.=19.233524, Alt.=1311.485352m. Speed=11.196000m/h.</desc>
<speed>3.110000</speed>
</trkpt>
<trkpt lat="43.144829" lon="19.233665">
<ele>1312.985352</ele>
<time>2012-05-01T16:29:59Z</time>
<desc>lat.=43.144829, lon.=19.233665, Alt.=1312.985352m. Speed=12.132000m/h.</desc>
<speed>3.370000</speed>
</trkpt>
<trkpt lat="43.144924" lon="19.233776">
<ele>1313.329102</ele>
<time>2012-05-01T16:30:04Z</time>
<desc>lat.=43.144924, lon.=19.233776, Alt.=1313.329102m. Speed=9.792000m/h.</desc>
<speed>2.720000</speed>
</trkpt>
<trkpt lat="43.145027" lon="19.233894">
<ele>1313.485352</ele>
<time>2012-05-01T16:30:09Z</time>
<desc>lat.=43.145027, lon.=19.233894, Alt.=1313.485352m. Speed=15.624000m/h.</desc>
<speed>4.340000</speed>
</trkpt>
<trkpt lat="43.145199" lon="19.234093">
<ele>1315.891602</ele>
<time>2012-05-01T16:30:14Z</time>
<desc>lat.=43.145199, lon.=19.234093, Alt.=1315.891602m. Speed=14.832000m/h.</desc>
<speed>4.120000</speed>
</trkpt>
<trkpt lat="43.145348" lon="19.234213">
<ele>1319.485352</ele>
<time>2012-05-01T16:30:19Z</time>
<desc>lat.=43.145348, lon.=19.234213, Alt.=1319.485352m. Speed=13.680000m/h.</desc>
<speed>3.800000</speed>
</trkpt>
<trkpt lat="43.145512" lon="19.234301">
<ele>1319.610352</ele>
<time>2012-05-01T16:30:24Z</time>
<desc>lat.=43.145512, lon.=19.234301, Alt.=1319.610352m. Speed=13.968000m/h.</desc>
<speed>3.880000</speed>
</trkpt>
<trkpt lat="43.145679" lon="19.234400">
<ele>1322.266602</ele>
<time>2012-05-01T16:30:29Z</time>
<desc>lat.=43.145679, lon.=19.234400, Alt.=1322.266602m. Speed=12.636000m/h.</desc>
<speed>3.510000</speed>
</trkpt>
<trkpt lat="43.145817" lon="19.234476">
<ele>1323.235352</ele>
<time>2012-05-01T16:30:34Z</time>
<desc>lat.=43.145817, lon.=19.234476, Alt.=1323.235352m. Speed=11.376000m/h.</desc>
<speed>3.160000</speed>
</trkpt>
<trkpt lat="43.145939" lon="19.234529">
<ele>1324.797852</ele>
<time>2012-05-01T16:30:39Z</time>
<desc>lat.=43.145939, lon.=19.234529, Alt.=1324.797852m. Speed=9.036000m/h.</desc>
<speed>2.510000</speed>
</trkpt>
<trkpt lat="43.146049" lon="19.234583">
<ele>1324.704102</ele>
<time>2012-05-01T16:30:44Z</time>
<desc>lat.=43.146049, lon.=19.234583, Alt.=1324.704102m. Speed=9.468000m/h.</desc>
<speed>2.630000</speed>
</trkpt>
<trkpt lat="43.146149" lon="19.234610">
<ele>1323.797852</ele>
<time>2012-05-01T16:30:49Z</time>
<desc>lat.=43.146149, lon.=19.234610, Alt.=1323.797852m. Speed=6.336000m/h.</desc>
<speed>1.760000</speed>
</trkpt>
<trkpt lat="43.146221" lon="19.234653">
<ele>1324.891602</ele>
<time>2012-05-01T16:30:54Z</time>
<desc>lat.=43.146221, lon.=19.234653, Alt.=1324.891602m. Speed=6.912000m/h.</desc>
<speed>1.920000</speed>
</trkpt>
<trkpt lat="43.146297" lon="19.234705">
<ele>1327.204102</ele>
<time>2012-05-01T16:30:59Z</time>
<desc>lat.=43.146297, lon.=19.234705, Alt.=1327.204102m. Speed=6.372000m/h.</desc>
<speed>1.770000</speed>
</trkpt>
<trkpt lat="43.146378" lon="19.234756">
<ele>1327.985352</ele>
<time>2012-05-01T16:31:04Z</time>
<desc>lat.=43.146378, lon.=19.234756, Alt.=1327.985352m. Speed=7.452000m/h.</desc>
<speed>2.070000</speed>
</trkpt>
<trkpt lat="43.146465" lon="19.234816">
<ele>1329.485352</ele>
<time>2012-05-01T16:31:09Z</time>
<desc>lat.=43.146465, lon.=19.234816, Alt.=1329.485352m. Speed=8.388000m/h.</desc>
<speed>2.330000</speed>
</trkpt>
<trkpt lat="43.146561" lon="19.234861">
<ele>1328.954102</ele>
<time>2012-05-01T16:31:14Z</time>
<desc>lat.=43.146561, lon.=19.234861, Alt.=1328.954102m. Speed=7.920000m/h.</desc>
<speed>2.200000</speed>
</trkpt>
<trkpt lat="43.146648" lon="19.234911">
<ele>1330.454102</ele>
<time>2012-05-01T16:31:19Z</time>
<desc>lat.=43.146648, lon.=19.234911, Alt.=1330.454102m. Speed=7.056000m/h.</desc>
<speed>1.960000</speed>
</trkpt>
<trkpt lat="43.146744" lon="19.234974">
<ele>1331.360352</ele>
<time>2012-05-01T16:31:24Z</time>
<desc>lat.=43.146744, lon.=19.234974, Alt.=1331.360352m. Speed=8.208000m/h.</desc>
<speed>2.280000</speed>
</trkpt>
<trkpt lat="43.146828" lon="19.235035">
<ele>1332.391602</ele>
<time>2012-05-01T16:31:29Z</time>
<desc>lat.=43.146828, lon.=19.235035, Alt.=1332.391602m. Speed=7.344000m/h.</desc>
<speed>2.040000</speed>
</trkpt>
<trkpt lat="43.146923" lon="19.235073">
<ele>1332.235352</ele>
<time>2012-05-01T16:31:34Z</time>
<desc>lat.=43.146923, lon.=19.235073, Alt.=1332.235352m. Speed=8.316000m/h.</desc>
<speed>2.310000</speed>
</trkpt>
<trkpt lat="43.147049" lon="19.235142">
<ele>1335.641602</ele>
<time>2012-05-01T16:31:39Z</time>
<desc>lat.=43.147049, lon.=19.235142, Alt.=1335.641602m. Speed=8.784000m/h.</desc>
<speed>2.440000</speed>
</trkpt>
<trkpt lat="43.147152" lon="19.235167">
<ele>1334.860352</ele>
<time>2012-05-01T16:31:44Z</time>
<desc>lat.=43.147152, lon.=19.235167, Alt.=1334.860352m. Speed=7.488000m/h.</desc>
<speed>2.080000</speed>
</trkpt>
<trkpt lat="43.147263" lon="19.235243">
<ele>1335.547852</ele>
<time>2012-05-01T16:31:49Z</time>
<desc>lat.=43.147263, lon.=19.235243, Alt.=1335.547852m. Speed=9.360000m/h.</desc>
<speed>2.600000</speed>
</trkpt>
<trkpt lat="43.147385" lon="19.235292">
<ele>1334.954102</ele>
<time>2012-05-01T16:31:54Z</time>
<desc>lat.=43.147385, lon.=19.235292, Alt.=1334.954102m. Speed=9.576000m/h.</desc>
<speed>2.660000</speed>
</trkpt>
<trkpt lat="43.147499" lon="19.235365">
<ele>1335.454102</ele>
<time>2012-05-01T16:31:59Z</time>
<desc>lat.=43.147499, lon.=19.235365, Alt.=1335.454102m. Speed=9.828000m/h.</desc>
<speed>2.730000</speed>
</trkpt>
<trkpt lat="43.147602" lon="19.235445">
<ele>1338.454102</ele>
<time>2012-05-01T16:32:04Z</time>
<desc>lat.=43.147602, lon.=19.235445, Alt.=1338.454102m. Speed=9.756000m/h.</desc>
<speed>2.710000</speed>
</trkpt>
<trkpt lat="43.147717" lon="19.235527">
<ele>1339.829102</ele>
<time>2012-05-01T16:32:09Z</time>
<desc>lat.=43.147717, lon.=19.235527, Alt.=1339.829102m. Speed=10.152000m/h.</desc>
<speed>2.820000</speed>
</trkpt>
<trkpt lat="43.147827" lon="19.235624">
<ele>1340.454102</ele>
<time>2012-05-01T16:32:14Z</time>
<desc>lat.=43.147827, lon.=19.235624, Alt.=1340.454102m. Speed=10.440000m/h.</desc>
<speed>2.900000</speed>
</trkpt>
<trkpt lat="43.147926" lon="19.235733">
<ele>1340.985352</ele>
<time>2012-05-01T16:32:19Z</time>
<desc>lat.=43.147926, lon.=19.235733, Alt.=1340.985352m. Speed=10.188000m/h.</desc>
<speed>2.830000</speed>
</trkpt>
<trkpt lat="43.148022" lon="19.235859">
<ele>1340.141602</ele>
<time>2012-05-01T16:32:24Z</time>
<desc>lat.=43.148022, lon.=19.235859, Alt.=1340.141602m. Speed=11.412000m/h.</desc>
<speed>3.170000</speed>
</trkpt>
<trkpt lat="43.148109" lon="19.236013">
<ele>1340.704102</ele>
<time>2012-05-01T16:32:29Z</time>
<desc>lat.=43.148109, lon.=19.236013, Alt.=1340.704102m. Speed=12.024000m/h.</desc>
<speed>3.340000</speed>
</trkpt>
<trkpt lat="43.148205" lon="19.236193">
<ele>1339.922852</ele>
<time>2012-05-01T16:32:34Z</time>
<desc>lat.=43.148205, lon.=19.236193, Alt.=1339.922852m. Speed=12.132000m/h.</desc>
<speed>3.370000</speed>
</trkpt>
<trkpt lat="43.148273" lon="19.236380">
<ele>1340.079102</ele>
<time>2012-05-01T16:32:39Z</time>
<desc>lat.=43.148273, lon.=19.236380, Alt.=1340.079102m. Speed=12.780000m/h.</desc>
<speed>3.550000</speed>
</trkpt>
<trkpt lat="43.148323" lon="19.236597">
<ele>1340.610352</ele>
<time>2012-05-01T16:32:44Z</time>
<desc>lat.=43.148323, lon.=19.236597, Alt.=1340.610352m. Speed=13.932000m/h.</desc>
<speed>3.870000</speed>
</trkpt>
<trkpt lat="43.148357" lon="19.236849">
<ele>1340.922852</ele>
<time>2012-05-01T16:32:49Z</time>
<desc>lat.=43.148357, lon.=19.236849, Alt.=1340.922852m. Speed=16.056000m/h.</desc>
<speed>4.460000</speed>
</trkpt>
<trkpt lat="43.148380" lon="19.237152">
<ele>1340.547852</ele>
<time>2012-05-01T16:32:54Z</time>
<desc>lat.=43.148380, lon.=19.237152, Alt.=1340.547852m. Speed=19.044001m/h.</desc>
<speed>5.290000</speed>
</trkpt>
<trkpt lat="43.148354" lon="19.237497">
<ele>1340.797852</ele>
<time>2012-05-01T16:32:59Z</time>
<desc>lat.=43.148354, lon.=19.237497, Alt.=1340.797852m. Speed=18.972000m/h.</desc>
<speed>5.270000</speed>
</trkpt>
<trkpt lat="43.148308" lon="19.237803">
<ele>1340.766602</ele>
<time>2012-05-01T16:33:04Z</time>
<desc>lat.=43.148308, lon.=19.237803, Alt.=1340.766602m. Speed=19.511999m/h.</desc>
<speed>5.420000</speed>
</trkpt>
<trkpt lat="43.148235" lon="19.238131">
<ele>1341.329102</ele>
<time>2012-05-01T16:33:09Z</time>
<desc>lat.=43.148235, lon.=19.238131, Alt.=1341.329102m. Speed=21.420000m/h.</desc>
<speed>5.950000</speed>
</trkpt>
<trkpt lat="43.148129" lon="19.238462">
<ele>1341.204102</ele>
<time>2012-05-01T16:33:14Z</time>
<desc>lat.=43.148129, lon.=19.238462, Alt.=1341.204102m. Speed=20.124001m/h.</desc>
<speed>5.590000</speed>
</trkpt>
<trkpt lat="43.148029" lon="19.238785">
<ele>1341.079102</ele>
<time>2012-05-01T16:33:19Z</time>
<desc>lat.=43.148029, lon.=19.238785, Alt.=1341.079102m. Speed=17.424000m/h.</desc>
<speed>4.840000</speed>
</trkpt>
<trkpt lat="43.147942" lon="19.239109">
<ele>1341.110352</ele>
<time>2012-05-01T16:33:24Z</time>
<desc>lat.=43.147942, lon.=19.239109, Alt.=1341.110352m. Speed=18.864000m/h.</desc>
<speed>5.240000</speed>
</trkpt>
<trkpt lat="43.147930" lon="19.239384">
<ele>1341.266602</ele>
<time>2012-05-01T16:33:29Z</time>
<desc>lat.=43.147930, lon.=19.239384, Alt.=1341.266602m. Speed=14.760000m/h.</desc>
<speed>4.100000</speed>
</trkpt>
<trkpt lat="43.147915" lon="19.239632">
<ele>1342.610352</ele>
<time>2012-05-01T16:33:34Z</time>
<desc>lat.=43.147915, lon.=19.239632, Alt.=1342.610352m. Speed=15.624000m/h.</desc>
<speed>4.340000</speed>
</trkpt>
<trkpt lat="43.147972" lon="19.239815">
<ele>1345.672852</ele>
<time>2012-05-01T16:33:39Z</time>
<desc>lat.=43.147972, lon.=19.239815, Alt.=1345.672852m. Speed=9.936000m/h.</desc>
<speed>2.760000</speed>
</trkpt>
<trkpt lat="43.148037" lon="19.240061">
<ele>1348.672852</ele>
<time>2012-05-01T16:33:44Z</time>
<desc>lat.=43.148037, lon.=19.240061, Alt.=1348.672852m. Speed=14.364000m/h.</desc>
<speed>3.990000</speed>
</trkpt>
<trkpt lat="43.148026" lon="19.240387">
<ele>1351.110352</ele>
<time>2012-05-01T16:33:49Z</time>
<desc>lat.=43.148026, lon.=19.240387, Alt.=1351.110352m. Speed=13.212000m/h.</desc>
<speed>3.670000</speed>
</trkpt>
<trkpt lat="43.148071" lon="19.240702">
<ele>1352.860352</ele>
<time>2012-05-01T16:33:54Z</time>
<desc>lat.=43.148071, lon.=19.240702, Alt.=1352.860352m. Speed=14.796000m/h.</desc>
<speed>4.110000</speed>
</trkpt>
<trkpt lat="43.148132" lon="19.240974">
<ele>1355.016602</ele>
<time>2012-05-01T16:33:59Z</time>
<desc>lat.=43.148132, lon.=19.240974, Alt.=1355.016602m. Speed=12.996000m/h.</desc>
<speed>3.610000</speed>
</trkpt>
<trkpt lat="43.148239" lon="19.241194">
<ele>1357.985352</ele>
<time>2012-05-01T16:34:04Z</time>
<desc>lat.=43.148239, lon.=19.241194, Alt.=1357.985352m. Speed=8.460000m/h.</desc>
<speed>2.350000</speed>
</trkpt>
<trkpt lat="43.148357" lon="19.241335">
<ele>1361.391602</ele>
<time>2012-05-01T16:34:09Z</time>
<desc>lat.=43.148357, lon.=19.241335, Alt.=1361.391602m. Speed=3.672000m/h.</desc>
<speed>1.020000</speed>
</trkpt>
<trkpt lat="43.148445" lon="19.241467">
<ele>1365.954102</ele>
<time>2012-05-01T16:34:14Z</time>
<desc>lat.=43.148445, lon.=19.241467, Alt.=1365.954102m. Speed=6.804000m/h.</desc>
<speed>1.890000</speed>
</trkpt>
<trkpt lat="43.148487" lon="19.241613">
<ele>1370.579102</ele>
<time>2012-05-01T16:34:19Z</time>
<desc>lat.=43.148487, lon.=19.241613, Alt.=1370.579102m. Speed=6.876000m/h.</desc>
<speed>1.910000</speed>
</trkpt>
<trkpt lat="43.148552" lon="19.241781">
<ele>1375.766602</ele>
<time>2012-05-01T16:34:24Z</time>
<desc>lat.=43.148552, lon.=19.241781, Alt.=1375.766602m. Speed=7.200000m/h.</desc>
<speed>2.000000</speed>
</trkpt>
<trkpt lat="43.148628" lon="19.242079">
<ele>1379.829102</ele>
<time>2012-05-01T16:34:29Z</time>
<desc>lat.=43.148628, lon.=19.242079, Alt.=1379.829102m. Speed=12.600000m/h.</desc>
<speed>3.500000</speed>
</trkpt>
<trkpt lat="43.148502" lon="19.242359">
<ele>1383.704102</ele>
<time>2012-05-01T16:34:34Z</time>
<desc>lat.=43.148502, lon.=19.242359, Alt.=1383.704102m. Speed=12.564000m/h.</desc>
<speed>3.490000</speed>
</trkpt>
<trkpt lat="43.148426" lon="19.242716">
<ele>1387.766602</ele>
<time>2012-05-01T16:34:39Z</time>
<desc>lat.=43.148426, lon.=19.242716, Alt.=1387.766602m. Speed=7.848000m/h.</desc>
<speed>2.180000</speed>
</trkpt>
<trkpt lat="43.148388" lon="19.243029">
<ele>1392.235352</ele>
<time>2012-05-01T16:34:44Z</time>
<desc>lat.=43.148388, lon.=19.243029, Alt.=1392.235352m. Speed=3.636000m/h.</desc>
<speed>1.010000</speed>
</trkpt>
<trkpt lat="43.148273" lon="19.243517">
<ele>1396.735352</ele>
<time>2012-05-01T16:34:49Z</time>
<desc>lat.=43.148273, lon.=19.243517, Alt.=1396.735352m. Speed=8.820000m/h.</desc>
<speed>2.450000</speed>
</trkpt>
<trkpt lat="43.148209" lon="19.243805">
<ele>1401.735352</ele>
<time>2012-05-01T16:34:54Z</time>
<desc>lat.=43.148209, lon.=19.243805, Alt.=1401.735352m. Speed=3.924000m/h.</desc>
<speed>1.090000</speed>
</trkpt>
<trkpt lat="43.148209" lon="19.244051">
<ele>1407.610352</ele>
<time>2012-05-01T16:34:59Z</time>
<desc>lat.=43.148209, lon.=19.244051, Alt.=1407.610352m. Speed=4.248000m/h.</desc>
<speed>1.180000</speed>
</trkpt>
<trkpt lat="43.148201" lon="19.244421">
<ele>1412.516602</ele>
<time>2012-05-01T16:35:04Z</time>
<desc>lat.=43.148201, lon.=19.244421, Alt.=1412.516602m. Speed=14.760000m/h.</desc>
<speed>4.100000</speed>
</trkpt>
<trkpt lat="43.148201" lon="19.244873">
<ele>1417.172852</ele>
<time>2012-05-01T16:35:09Z</time>
<desc>lat.=43.148201, lon.=19.244873, Alt.=1417.172852m. Speed=20.340000m/h.</desc>
<speed>5.650000</speed>
</trkpt>
<trkpt lat="43.148254" lon="19.245371">
<ele>1421.516602</ele>
<time>2012-05-01T16:35:14Z</time>
<desc>lat.=43.148254, lon.=19.245371, Alt.=1421.516602m. Speed=23.760000m/h.</desc>
<speed>6.600000</speed>
</trkpt>
<trkpt lat="43.148239" lon="19.245874">
<ele>1425.297852</ele>
<time>2012-05-01T16:35:19Z</time>
<desc>lat.=43.148239, lon.=19.245874, Alt.=1425.297852m. Speed=19.332001m/h.</desc>
<speed>5.370000</speed>
</trkpt>
<trkpt lat="43.148342" lon="19.246202">
<ele>1429.141602</ele>
<time>2012-05-01T16:35:24Z</time>
<desc>lat.=43.148342, lon.=19.246202, Alt.=1429.141602m. Speed=15.372000m/h.</desc>
<speed>4.270000</speed>
</trkpt>
<trkpt lat="43.148438" lon="19.246468">
<ele>1432.641602</ele>
<time>2012-05-01T16:35:29Z</time>
<desc>lat.=43.148438, lon.=19.246468, Alt.=1432.641602m. Speed=15.300000m/h.</desc>
<speed>4.250000</speed>
</trkpt>
<trkpt lat="43.148582" lon="19.246748">
<ele>1436.672852</ele>
<time>2012-05-01T16:35:34Z</time>
<desc>lat.=43.148582, lon.=19.246748, Alt.=1436.672852m. Speed=19.332001m/h.</desc>
<speed>5.370000</speed>
</trkpt>
<trkpt lat="43.148792" lon="19.247154">
<ele>1440.204102</ele>
<time>2012-05-01T16:35:39Z</time>
<desc>lat.=43.148792, lon.=19.247154, Alt.=1440.204102m. Speed=25.452000m/h.</desc>
<speed>7.070000</speed>
</trkpt>
<trkpt lat="43.148972" lon="19.247522">
<ele>1443.329102</ele>
<time>2012-05-01T16:35:44Z</time>
<desc>lat.=43.148972, lon.=19.247522, Alt.=1443.329102m. Speed=20.879999m/h.</desc>
<speed>5.800000</speed>
</trkpt>
<trkpt lat="43.149143" lon="19.247791">
<ele>1447.297852</ele>
<time>2012-05-01T16:35:49Z</time>
<desc>lat.=43.149143, lon.=19.247791, Alt.=1447.297852m. Speed=20.124001m/h.</desc>
<speed>5.590000</speed>
</trkpt>
<trkpt lat="43.148628" lon="19.249487">
<ele>1474.766602</ele>
<time>2012-05-01T16:35:54Z</time>
<desc>lat.=43.148628, lon.=19.249487, Alt.=1474.766602m. Speed=22.788000m/h.</desc>
<speed>6.330000</speed>
</trkpt>
<trkpt lat="43.148891" lon="19.249662">
<ele>1470.422852</ele>
<time>2012-05-01T16:35:59Z</time>
<desc>lat.=43.148891, lon.=19.249662, Alt.=1470.422852m. Speed=23.436001m/h.</desc>
<speed>6.510000</speed>
</trkpt>
<trkpt lat="43.149166" lon="19.249796">
<ele>1469.047852</ele>
<time>2012-05-01T16:36:04Z</time>
<desc>lat.=43.149166, lon.=19.249796, Alt.=1469.047852m. Speed=22.104000m/h.</desc>
<speed>6.140000</speed>
</trkpt>
<trkpt lat="43.149422" lon="19.249990">
<ele>1467.641602</ele>
<time>2012-05-01T16:36:09Z</time>
<desc>lat.=43.149422, lon.=19.249990, Alt.=1467.641602m. Speed=23.976000m/h.</desc>
<speed>6.660000</speed>
</trkpt>
<trkpt lat="43.149635" lon="19.250172">
<ele>1456.391602</ele>
<time>2012-05-01T16:36:14Z</time>
<desc>lat.=43.149635, lon.=19.250172, Alt.=1456.391602m. Speed=19.260000m/h.</desc>
<speed>5.350000</speed>
</trkpt>
<trkpt lat="43.149811" lon="19.250319">
<ele>1444.266602</ele>
<time>2012-05-01T16:36:19Z</time>
<desc>lat.=43.149811, lon.=19.250319, Alt.=1444.266602m. Speed=15.948000m/h.</desc>
<speed>4.430000</speed>
</trkpt>
<trkpt lat="43.149925" lon="19.250532">
<ele>1441.297852</ele>
<time>2012-05-01T16:36:24Z</time>
<desc>lat.=43.149925, lon.=19.250532, Alt.=1441.297852m. Speed=17.568001m/h.</desc>
<speed>4.880000</speed>
</trkpt>
<trkpt lat="43.150013" lon="19.250834">
<ele>1437.797852</ele>
<time>2012-05-01T16:36:29Z</time>
<desc>lat.=43.150013, lon.=19.250834, Alt.=1437.797852m. Speed=21.384001m/h.</desc>
<speed>5.940000</speed>
</trkpt>
<trkpt lat="43.150078" lon="19.251245">
<ele>1431.954102</ele>
<time>2012-05-01T16:36:34Z</time>
<desc>lat.=43.150078, lon.=19.251245, Alt.=1431.954102m. Speed=26.063999m/h.</desc>
<speed>7.240000</speed>
</trkpt>
<trkpt lat="43.150093" lon="19.251619">
<ele>1425.016602</ele>
<time>2012-05-01T16:36:39Z</time>
<desc>lat.=43.150093, lon.=19.251619, Alt.=1425.016602m. Speed=22.176001m/h.</desc>
<speed>6.160000</speed>
</trkpt>
<trkpt lat="43.150070" lon="19.251917">
<ele>1419.579102</ele>
<time>2012-05-01T16:36:44Z</time>
<desc>lat.=43.150070, lon.=19.251917, Alt.=1419.579102m. Speed=20.016001m/h.</desc>
<speed>5.560000</speed>
</trkpt>
<trkpt lat="43.150024" lon="19.252180">
<ele>1414.891602</ele>
<time>2012-05-01T16:36:49Z</time>
<desc>lat.=43.150024, lon.=19.252180, Alt.=1414.891602m. Speed=18.827999m/h.</desc>
<speed>5.230000</speed>
</trkpt>
<trkpt lat="43.149960" lon="19.252476">
<ele>1412.422852</ele>
<time>2012-05-01T16:36:54Z</time>
<desc>lat.=43.149960, lon.=19.252476, Alt.=1412.422852m. Speed=21.636000m/h.</desc>
<speed>6.010000</speed>
</trkpt>
<trkpt lat="43.150005" lon="19.252802">
<ele>1403.141602</ele>
<time>2012-05-01T16:36:59Z</time>
<desc>lat.=43.150005, lon.=19.252802, Alt.=1403.141602m. Speed=12.888000m/h.</desc>
<speed>3.580000</speed>
</trkpt>
<trkpt lat="43.150063" lon="19.252857">
<ele>1399.360352</ele>
<time>2012-05-01T16:37:04Z</time>
<desc>lat.=43.150063, lon.=19.252857, Alt.=1399.360352m. Speed=6.480000m/h.</desc>
<speed>1.800000</speed>
</trkpt>
<trkpt lat="43.150143" lon="19.252817">
<ele>1391.891602</ele>
<time>2012-05-01T16:37:09Z</time>
<desc>lat.=43.150143, lon.=19.252817, Alt.=1391.891602m. Speed=0.468000m/h.</desc>
<speed>0.130000</speed>
</trkpt>
<trkpt lat="43.150173" lon="19.252840">
<ele>1388.891602</ele>
<time>2012-05-01T16:37:14Z</time>
<desc>lat.=43.150173, lon.=19.252840, Alt.=1388.891602m. Speed=0.576000m/h.</desc>
<speed>0.160000</speed>
</trkpt>
<trkpt lat="43.150169" lon="19.252829">
<ele>1388.735352</ele>
<time>2012-05-01T16:37:19Z</time>
<desc>lat.=43.150169, lon.=19.252829, Alt.=1388.735352m. Speed=1.404000m/h.</desc>
<speed>0.390000</speed>
</trkpt>
<trkpt lat="43.150146" lon="19.252941">
<ele>1386.579102</ele>
<time>2012-05-01T16:37:24Z</time>
<desc>lat.=43.150146, lon.=19.252941, Alt.=1386.579102m. Speed=8.280000m/h.</desc>
<speed>2.300000</speed>
</trkpt>
<trkpt lat="43.150131" lon="19.253067">
<ele>1382.422852</ele>
<time>2012-05-01T16:37:29Z</time>
<desc>lat.=43.150131, lon.=19.253067, Alt.=1382.422852m. Speed=6.228000m/h.</desc>
<speed>1.730000</speed>
</trkpt>
<trkpt lat="43.150112" lon="19.253130">
<ele>1377.485352</ele>
<time>2012-05-01T16:37:34Z</time>
<desc>lat.=43.150112, lon.=19.253130, Alt.=1377.485352m. Speed=1.584000m/h.</desc>
<speed>0.440000</speed>
</trkpt>
<trkpt lat="43.150070" lon="19.253115">
<ele>1371.672852</ele>
<time>2012-05-01T16:37:39Z</time>
<desc>lat.=43.150070, lon.=19.253115, Alt.=1371.672852m. Speed=1.008000m/h.</desc>
<speed>0.280000</speed>
</trkpt>
<trkpt lat="43.150040" lon="19.253107">
<ele>1365.860352</ele>
<time>2012-05-01T16:37:44Z</time>
<desc>lat.=43.150040, lon.=19.253107, Alt.=1365.860352m. Speed=0.828000m/h.</desc>
<speed>0.230000</speed>
</trkpt>
<trkpt lat="43.150032" lon="19.253103">
<ele>1365.579102</ele>
<time>2012-05-01T16:37:49Z</time>
<desc>lat.=43.150032, lon.=19.253103, Alt.=1365.579102m. Speed=0.576000m/h.</desc>
<speed>0.160000</speed>
</trkpt>
<trkpt lat="43.150021" lon="19.253099">
<ele>1365.391602</ele>
<time>2012-05-01T16:37:54Z</time>
<desc>lat.=43.150021, lon.=19.253099, Alt.=1365.391602m. Speed=0.540000m/h.</desc>
<speed>0.150000</speed>
</trkpt>
<trkpt lat="43.150017" lon="19.253099">
<ele>1365.266602</ele>
<time>2012-05-01T16:37:59Z</time>
<desc>lat.=43.150017, lon.=19.253099, Alt.=1365.266602m. Speed=0.396000m/h.</desc>
<speed>0.110000</speed>
</trkpt>
<trkpt lat="43.150013" lon="19.253107">
<ele>1365.204102</ele>
<time>2012-05-01T16:38:04Z</time>
<desc>lat.=43.150013, lon.=19.253107, Alt.=1365.204102m. Speed=0.468000m/h.</desc>
<speed>0.130000</speed>
</trkpt>
<trkpt lat="43.150013" lon="19.253115">
<ele>1365.110352</ele>
<time>2012-05-01T16:38:09Z</time>
<desc>lat.=43.150013, lon.=19.253115, Alt.=1365.110352m. Speed=0.324000m/h.</desc>
<speed>0.090000</speed>
</trkpt>
<trkpt lat="43.150009" lon="19.253119">
<ele>1365.016602</ele>
<time>2012-05-01T16:38:14Z</time>
<desc>lat.=43.150009, lon.=19.253119, Alt.=1365.016602m. Speed=0.108000m/h.</desc>
<speed>0.030000</speed>
</trkpt>
<trkpt lat="43.150013" lon="19.253120">
<ele>1364.891602</ele>
<time>2012-05-01T16:38:19Z</time>
<desc>lat.=43.150013, lon.=19.253120, Alt.=1364.891602m. Speed=1.872000m/h.</desc>
<speed>0.520000</speed>
</trkpt>
<trkpt lat="43.150059" lon="19.253254">
<ele>1362.547852</ele>
<time>2012-05-01T16:38:24Z</time>
<desc>lat.=43.150059, lon.=19.253254, Alt.=1362.547852m. Speed=9.180000m/h.</desc>
<speed>2.550000</speed>
</trkpt>
<trkpt lat="43.150120" lon="19.253447">
<ele>1359.954102</ele>
<time>2012-05-01T16:38:29Z</time>
<desc>lat.=43.150120, lon.=19.253447, Alt.=1359.954102m. Speed=6.732000m/h.</desc>
<speed>1.870000</speed>
</trkpt>
<trkpt lat="43.150238" lon="19.253572">
<ele>1357.047852</ele>
<time>2012-05-01T16:38:34Z</time>
<desc>lat.=43.150238, lon.=19.253572, Alt.=1357.047852m. Speed=12.636000m/h.</desc>
<speed>3.510000</speed>
</trkpt>
<trkpt lat="43.150375" lon="19.253742">
<ele>1353.329102</ele>
<time>2012-05-01T16:38:39Z</time>
<desc>lat.=43.150375, lon.=19.253742, Alt.=1353.329102m. Speed=14.040000m/h.</desc>
<speed>3.900000</speed>
</trkpt>
<trkpt lat="43.150524" lon="19.253931">
<ele>1349.735352</ele>
<time>2012-05-01T16:38:44Z</time>
<desc>lat.=43.150524, lon.=19.253931, Alt.=1349.735352m. Speed=13.932000m/h.</desc>
<speed>3.870000</speed>
</trkpt>
<trkpt lat="43.150627" lon="19.254194">
<ele>1347.391602</ele>
<time>2012-05-01T16:38:49Z</time>
<desc>lat.=43.150627, lon.=19.254194, Alt.=1347.391602m. Speed=21.600000m/h.</desc>
<speed>6.000000</speed>
</trkpt>
<trkpt lat="43.150730" lon="19.254587">
<ele>1342.485352</ele>
<time>2012-05-01T16:38:54Z</time>
<desc>lat.=43.150730, lon.=19.254587, Alt.=1342.485352m. Speed=29.556000m/h.</desc>
<speed>8.210000</speed>
</trkpt>
<trkpt lat="43.150745" lon="19.255087">
<ele>1337.985352</ele>
<time>2012-05-01T16:38:59Z</time>
<desc>lat.=43.150745, lon.=19.255087, Alt.=1337.985352m. Speed=32.796001m/h.</desc>
<speed>9.110000</speed>
</trkpt>
<trkpt lat="43.150764" lon="19.255718">
<ele>1334.735352</ele>
<time>2012-05-01T16:39:04Z</time>
<desc>lat.=43.150764, lon.=19.255718, Alt.=1334.735352m. Speed=40.284000m/h.</desc>
<speed>11.190000</speed>
</trkpt>
<trkpt lat="43.151051" lon="19.256346">
<ele>1331.454102</ele>
<time>2012-05-01T16:39:09Z</time>
<desc>lat.=43.151051, lon.=19.256346, Alt.=1331.454102m. Speed=44.820000m/h.</desc>
<speed>12.450000</speed>
</trkpt>
<trkpt lat="43.151550" lon="19.256771">
<ele>1328.954102</ele>
<time>2012-05-01T16:39:14Z</time>
<desc>lat.=43.151550, lon.=19.256771, Alt.=1328.954102m. Speed=46.835999m/h.</desc>
<speed>13.010000</speed>
</trkpt>
<trkpt lat="43.151985" lon="19.257456">
<ele>1325.860352</ele>
<time>2012-05-01T16:39:19Z</time>
<desc>lat.=43.151985, lon.=19.257456, Alt.=1325.860352m. Speed=51.119999m/h.</desc>
<speed>14.200000</speed>
</trkpt>
<trkpt lat="43.152248" lon="19.258173">
<ele>1321.797852</ele>
<time>2012-05-01T16:39:24Z</time>
<desc>lat.=43.152248, lon.=19.258173, Alt.=1321.797852m. Speed=46.188000m/h.</desc>
<speed>12.830000</speed>
</trkpt>
<trkpt lat="43.152645" lon="19.258547">
<ele>1317.516602</ele>
<time>2012-05-01T16:39:29Z</time>
<desc>lat.=43.152645, lon.=19.258547, Alt.=1317.516602m. Speed=31.608000m/h.</desc>
<speed>8.780000</speed>
</trkpt>
<trkpt lat="43.152798" lon="19.258837">
<ele>1313.422852</ele>
<time>2012-05-01T16:39:34Z</time>
<desc>lat.=43.152798, lon.=19.258837, Alt.=1313.422852m. Speed=19.836000m/h.</desc>
<speed>5.510000</speed>
</trkpt>
<trkpt lat="43.152588" lon="19.258837">
<ele>1309.391602</ele>
<time>2012-05-01T16:39:39Z</time>
<desc>lat.=43.152588, lon.=19.258837, Alt.=1309.391602m. Speed=20.087999m/h.</desc>
<speed>5.580000</speed>
</trkpt>
<trkpt lat="43.152309" lon="19.258736">
<ele>1305.766602</ele>
<time>2012-05-01T16:39:44Z</time>
<desc>lat.=43.152309, lon.=19.258736, Alt.=1305.766602m. Speed=27.719999m/h.</desc>
<speed>7.700000</speed>
</trkpt>
<trkpt lat="43.152027" lon="19.258369">
<ele>1302.266602</ele>
<time>2012-05-01T16:39:49Z</time>
<desc>lat.=43.152027, lon.=19.258369, Alt.=1302.266602m. Speed=34.523998m/h.</desc>
<speed>9.590000</speed>
</trkpt>
<trkpt lat="43.151726" lon="19.257896">
<ele>1298.735352</ele>
<time>2012-05-01T16:39:54Z</time>
<desc>lat.=43.151726, lon.=19.257896, Alt.=1298.735352m. Speed=38.520000m/h.</desc>
<speed>10.700000</speed>
</trkpt>
<trkpt lat="43.151299" lon="19.257418">
<ele>1295.079102</ele>
<time>2012-05-01T16:39:59Z</time>
<desc>lat.=43.151299, lon.=19.257418, Alt.=1295.079102m. Speed=43.236000m/h.</desc>
<speed>12.010000</speed>
</trkpt>
<trkpt lat="43.150822" lon="19.256968">
<ele>1291.579102</ele>
<time>2012-05-01T16:40:04Z</time>
<desc>lat.=43.150822, lon.=19.256968, Alt.=1291.579102m. Speed=48.167999m/h.</desc>
<speed>13.380000</speed>
</trkpt>
<trkpt lat="43.150455" lon="19.256437">
<ele>1288.266602</ele>
<time>2012-05-01T16:40:09Z</time>
<desc>lat.=43.150455, lon.=19.256437, Alt.=1288.266602m. Speed=35.928001m/h.</desc>
<speed>9.980000</speed>
</trkpt>
<trkpt lat="43.150280" lon="19.256380">
<ele>1285.172852</ele>
<time>2012-05-01T16:40:14Z</time>
<desc>lat.=43.150280, lon.=19.256380, Alt.=1285.172852m. Speed=3.780000m/h.</desc>
<speed>1.050000</speed>
</trkpt>
<trkpt lat="43.150219" lon="19.256540">
<ele>1282.766602</ele>
<time>2012-05-01T16:40:19Z</time>
<desc>lat.=43.150219, lon.=19.256540, Alt.=1282.766602m. Speed=7.704000m/h.</desc>
<speed>2.140000</speed>
</trkpt>
<trkpt lat="43.150337" lon="19.256792">
<ele>1280.297852</ele>
<time>2012-05-01T16:40:24Z</time>
<desc>lat.=43.150337, lon.=19.256792, Alt.=1280.297852m. Speed=18.108000m/h.</desc>
<speed>5.030000</speed>
</trkpt>
<trkpt lat="43.150372" lon="19.257090">
<ele>1278.204102</ele>
<time>2012-05-01T16:40:29Z</time>
<desc>lat.=43.150372, lon.=19.257090, Alt.=1278.204102m. Speed=20.736000m/h.</desc>
<speed>5.760000</speed>
</trkpt>
<trkpt lat="43.150547" lon="19.257463">
<ele>1276.204102</ele>
<time>2012-05-01T16:40:34Z</time>
<desc>lat.=43.150547, lon.=19.257463, Alt.=1276.204102m. Speed=27.972000m/h.</desc>
<speed>7.770000</speed>
</trkpt>
<trkpt lat="43.150803" lon="19.257912">
<ele>1274.360352</ele>
<time>2012-05-01T16:40:39Z</time>
<desc>lat.=43.150803, lon.=19.257912, Alt.=1274.360352m. Speed=32.759998m/h.</desc>
<speed>9.100000</speed>
</trkpt>
<trkpt lat="43.151108" lon="19.258459">
<ele>1272.422852</ele>
<time>2012-05-01T16:40:44Z</time>
<desc>lat.=43.151108, lon.=19.258459, Alt.=1272.422852m. Speed=39.924000m/h.</desc>
<speed>11.090000</speed>
</trkpt>
<trkpt lat="43.151299" lon="19.259245">
<ele>1269.797852</ele>
<time>2012-05-01T16:40:49Z</time>
<desc>lat.=43.151299, lon.=19.259245, Alt.=1269.797852m. Speed=41.363998m/h.</desc>
<speed>11.490000</speed>
</trkpt>
<trkpt lat="43.151539" lon="19.259924">
<ele>1266.079102</ele>
<time>2012-05-01T16:40:54Z</time>
<desc>lat.=43.151539, lon.=19.259924, Alt.=1266.079102m. Speed=42.840000m/h.</desc>
<speed>11.900000</speed>
</trkpt>
<trkpt lat="43.151886" lon="19.260565">
<ele>1262.954102</ele>
<time>2012-05-01T16:40:59Z</time>
<desc>lat.=43.151886, lon.=19.260565, Alt.=1262.954102m. Speed=47.987999m/h.</desc>
<speed>13.330000</speed>
</trkpt>
<trkpt lat="43.152409" lon="19.261179">
<ele>1260.110352</ele>
<time>2012-05-01T16:41:04Z</time>
<desc>lat.=43.152409, lon.=19.261179, Alt.=1260.110352m. Speed=49.608002m/h.</desc>
<speed>13.780000</speed>
</trkpt>
<trkpt lat="43.152924" lon="19.261587">
<ele>1258.141602</ele>
<time>2012-05-01T16:41:09Z</time>
<desc>lat.=43.152924, lon.=19.261587, Alt.=1258.141602m. Speed=43.344002m/h.</desc>
<speed>12.040000</speed>
</trkpt>
<trkpt lat="43.153465" lon="19.261921">
<ele>1256.454102</ele>
<time>2012-05-01T16:41:14Z</time>
<desc>lat.=43.153465, lon.=19.261921, Alt.=1256.454102m. Speed=44.495998m/h.</desc>
<speed>12.360000</speed>
</trkpt>
<trkpt lat="43.153584" lon="19.262522">
<ele>1254.829102</ele>
<time>2012-05-01T16:41:19Z</time>
<desc>lat.=43.153584, lon.=19.262522, Alt.=1254.829102m. Speed=38.771999m/h.</desc>
<speed>10.770000</speed>
</trkpt>
<trkpt lat="43.153412" lon="19.263111">
<ele>1254.047852</ele>
<time>2012-05-01T16:41:24Z</time>
<desc>lat.=43.153412, lon.=19.263111, Alt.=1254.047852m. Speed=38.304001m/h.</desc>
<speed>10.640000</speed>
</trkpt>
<trkpt lat="43.152977" lon="19.263046">
<ele>1254.047852</ele>
<time>2012-05-01T16:41:29Z</time>
<desc>lat.=43.152977, lon.=19.263046, Alt.=1254.047852m. Speed=23.364000m/h.</desc>
<speed>6.490000</speed>
</trkpt>
<trkpt lat="43.152576" lon="19.263199">
<ele>1253.579102</ele>
<time>2012-05-01T16:41:34Z</time>
<desc>lat.=43.152576, lon.=19.263199, Alt.=1253.579102m. Speed=28.332001m/h.</desc>
<speed>7.870000</speed>
</trkpt>
<trkpt lat="43.152119" lon="19.263435">
<ele>1254.110352</ele>
<time>2012-05-01T16:41:39Z</time>
<desc>lat.=43.152119, lon.=19.263435, Alt.=1254.110352m. Speed=37.403999m/h.</desc>
<speed>10.390000</speed>
</trkpt>
<trkpt lat="43.151421" lon="19.263702">
<ele>1256.016602</ele>
<time>2012-05-01T16:41:44Z</time>
<desc>lat.=43.151421, lon.=19.263702, Alt.=1256.016602m. Speed=44.063999m/h.</desc>
<speed>12.240000</speed>
</trkpt>
<trkpt lat="43.150204" lon="19.264114">
<ele>1261.547852</ele>
<time>2012-05-01T16:41:49Z</time>
<desc>lat.=43.150204, lon.=19.264114, Alt.=1261.547852m. Speed=49.212002m/h.</desc>
<speed>13.670001</speed>
</trkpt>
<trkpt lat="43.149536" lon="19.264277">
<ele>1262.204102</ele>
<time>2012-05-01T16:41:54Z</time>
<desc>lat.=43.149536, lon.=19.264277, Alt.=1262.204102m. Speed=57.528000m/h.</desc>
<speed>15.980000</speed>
</trkpt>
<trkpt lat="43.149708" lon="19.265074">
<ele>1282.422852</ele>
<time>2012-05-01T16:41:59Z</time>
<desc>lat.=43.149708, lon.=19.265074, Alt.=1282.422852m. Speed=54.576000m/h.</desc>
<speed>15.160000</speed>
</trkpt>
<trkpt lat="43.149605" lon="19.265898">
<ele>1285.954102</ele>
<time>2012-05-01T16:42:04Z</time>
<desc>lat.=43.149605, lon.=19.265898, Alt.=1285.954102m. Speed=54.467999m/h.</desc>
<speed>15.130000</speed>
</trkpt>
<trkpt lat="43.149403" lon="19.266741">
<ele>1283.891602</ele>
<time>2012-05-01T16:42:09Z</time>
<desc>lat.=43.149403, lon.=19.266741, Alt.=1283.891602m. Speed=61.416000m/h.</desc>
<speed>17.060000</speed>
</trkpt>
<trkpt lat="43.149269" lon="19.267714">
<ele>1279.516602</ele>
<time>2012-05-01T16:42:14Z</time>
<desc>lat.=43.149269, lon.=19.267714, Alt.=1279.516602m. Speed=56.844002m/h.</desc>
<speed>15.790000</speed>
</trkpt>
<trkpt lat="43.149075" lon="19.268538">
<ele>1278.766602</ele>
<time>2012-05-01T16:42:19Z</time>
<desc>lat.=43.149075, lon.=19.268538, Alt.=1278.766602m. Speed=62.675999m/h.</desc>
<speed>17.410000</speed>
</trkpt>
<trkpt lat="43.148621" lon="19.269087">
<ele>1276.547852</ele>
<time>2012-05-01T16:42:24Z</time>
<desc>lat.=43.148621, lon.=19.269087, Alt.=1276.547852m. Speed=54.360001m/h.</desc>
<speed>15.100000</speed>
</trkpt>
<trkpt lat="43.148060" lon="19.269150">
<ele>1260.329102</ele>
<time>2012-05-01T16:42:29Z</time>
<desc>lat.=43.148060, lon.=19.269150, Alt.=1260.329102m. Speed=50.580002m/h.</desc>
<speed>14.050001</speed>
</trkpt>
<trkpt lat="43.147758" lon="19.268492">
<ele>1250.610352</ele>
<time>2012-05-01T16:42:34Z</time>
<desc>lat.=43.147758, lon.=19.268492, Alt.=1250.610352m. Speed=36.792000m/h.</desc>
<speed>10.220000</speed>
</trkpt>
<trkpt lat="43.147579" lon="19.268269">
<ele>1245.329102</ele>
<time>2012-05-01T16:42:39Z</time>
<desc>lat.=43.147579, lon.=19.268269, Alt.=1245.329102m. Speed=25.632000m/h.</desc>
<speed>7.120000</speed>
</trkpt>
<trkpt lat="43.147648" lon="19.268654">
<ele>1226.829102</ele>
<time>2012-05-01T16:42:44Z</time>
<desc>lat.=43.147648, lon.=19.268654, Alt.=1226.829102m. Speed=26.172001m/h.</desc>
<speed>7.270000</speed>
</trkpt>
<trkpt lat="43.147945" lon="19.269032">
<ele>1217.391602</ele>
<time>2012-05-01T16:42:49Z</time>
<desc>lat.=43.147945, lon.=19.269032, Alt.=1217.391602m. Speed=33.264000m/h.</desc>
<speed>9.240000</speed>
</trkpt>
<trkpt lat="43.148281" lon="19.269403">
<ele>1207.047852</ele>
<time>2012-05-01T16:42:54Z</time>
<desc>lat.=43.148281, lon.=19.269403, Alt.=1207.047852m. Speed=36.647999m/h.</desc>
<speed>10.180000</speed>
</trkpt>
<trkpt lat="43.148781" lon="19.269489">
<ele>1194.360352</ele>
<time>2012-05-01T16:42:59Z</time>
<desc>lat.=43.148781, lon.=19.269489, Alt.=1194.360352m. Speed=42.695999m/h.</desc>
<speed>11.860000</speed>
</trkpt>
<trkpt lat="43.149300" lon="19.269264">
<ele>1188.204102</ele>
<time>2012-05-01T16:43:04Z</time>
<desc>lat.=43.149300, lon.=19.269264, Alt.=1188.204102m. Speed=40.967999m/h.</desc>
<speed>11.380000</speed>
</trkpt>
<trkpt lat="43.149796" lon="19.268885">
<ele>1182.516602</ele>
<time>2012-05-01T16:43:09Z</time>
<desc>lat.=43.149796, lon.=19.268885, Alt.=1182.516602m. Speed=39.888000m/h.</desc>
<speed>11.080000</speed>
</trkpt>
<trkpt lat="43.150169" lon="19.268295">
<ele>1167.079102</ele>
<time>2012-05-01T16:43:14Z</time>
<desc>lat.=43.150169, lon.=19.268295, Alt.=1167.079102m. Speed=30.816000m/h.</desc>
<speed>8.560000</speed>
</trkpt>
<trkpt lat="43.150364" lon="19.267921">
<ele>1156.891602</ele>
<time>2012-05-01T16:43:19Z</time>
<desc>lat.=43.150364, lon.=19.267921, Alt.=1156.891602m. Speed=15.588000m/h.</desc>
<speed>4.330000</speed>
</trkpt>
<trkpt lat="43.150463" lon="19.267820">
<ele>1151.860352</ele>
<time>2012-05-01T16:43:24Z</time>
<desc>lat.=43.150463, lon.=19.267820, Alt.=1151.860352m. Speed=0.792000m/h.</desc>
<speed>0.220000</speed>
</trkpt>
<trkpt lat="43.150463" lon="19.267813">
<ele>1152.204102</ele>
<time>2012-05-01T16:43:29Z</time>
<desc>lat.=43.150463, lon.=19.267813, Alt.=1152.204102m. Speed=0.324000m/h.</desc>
<speed>0.090000</speed>
</trkpt>
<trkpt lat="43.150467" lon="19.267811">
<ele>1151.954102</ele>
<time>2012-05-01T16:43:34Z</time>
<desc>lat.=43.150467, lon.=19.267811, Alt.=1151.954102m. Speed=0.288000m/h.</desc>
<speed>0.080000</speed>
</trkpt>
<trkpt lat="43.150463" lon="19.267805">
<ele>1151.860352</ele>
<time>2012-05-01T16:43:39Z</time>
<desc>lat.=43.150463, lon.=19.267805, Alt.=1151.860352m. Speed=0.144000m/h.</desc>
<speed>0.040000</speed>
</trkpt>
<trkpt lat="43.150463" lon="19.267803">
<ele>1151.860352</ele>
<time>2012-05-01T16:43:44Z</time>
<desc>lat.=43.150463, lon.=19.267803, Alt.=1151.860352m. Speed=0.036000m/h.</desc>
<speed>0.010000</speed>
</trkpt>
<trkpt lat="43.150467" lon="19.267805">
<ele>1151.860352</ele>
<time>2012-05-01T16:43:49Z</time>
<desc>lat.=43.150467, lon.=19.267805, Alt.=1151.860352m. Speed=0.072000m/h.</desc>
<speed>0.020000</speed>
</trkpt>
<trkpt lat="43.150463" lon="19.267803">
<ele>1151.860352</ele>
<time>2012-05-01T16:43:54Z</time>
<desc>lat.=43.150463, lon.=19.267803, Alt.=1151.860352m. Speed=0.360000m/h.</desc>
<speed>0.100000</speed>
</trkpt>
<trkpt lat="43.150467" lon="19.267801">
<ele>1151.891602</ele>
<time>2012-05-01T16:43:59Z</time>
<desc>lat.=43.150467, lon.=19.267801, Alt.=1151.891602m. Speed=0.108000m/h.</desc>
<speed>0.030000</speed>
</trkpt>
<trkpt lat="43.150467" lon="19.267801">
<ele>1151.891602</ele>
<time>2012-05-01T16:44:04Z</time>
<desc>lat.=43.150467, lon.=19.267801, Alt.=1151.891602m. Speed=0.180000m/h.</desc>
<speed>0.050000</speed>
</trkpt>
<trkpt lat="43.150467" lon="19.267801">
<ele>1151.922852</ele>
<time>2012-05-01T16:44:09Z</time>
<desc>lat.=43.150467, lon.=19.267801, Alt.=1151.922852m. Speed=0.792000m/h.</desc>
<speed>0.220000</speed>
</trkpt>
<trkpt lat="43.150471" lon="19.267979">
<ele>1153.641602</ele>
<time>2012-05-01T16:44:14Z</time>
<desc>lat.=43.150471, lon.=19.267979, Alt.=1153.641602m. Speed=23.076000m/h.</desc>
<speed>6.410000</speed>
</trkpt>
<trkpt lat="43.150433" lon="19.268387">
<ele>1150.297852</ele>
<time>2012-05-01T16:44:19Z</time>
<desc>lat.=43.150433, lon.=19.268387, Alt.=1150.297852m. Speed=27.396000m/h.</desc>
<speed>7.610000</speed>
</trkpt>
<trkpt lat="43.150410" lon="19.268833">
<ele>1147.422852</ele>
<time>2012-05-01T16:44:24Z</time>
<desc>lat.=43.150410, lon.=19.268833, Alt.=1147.422852m. Speed=28.728001m/h.</desc>
<speed>7.980000</speed>
</trkpt>
<trkpt lat="43.150364" lon="19.269346">
<ele>1142.141602</ele>
<time>2012-05-01T16:44:29Z</time>
<desc>lat.=43.150364, lon.=19.269346, Alt.=1142.141602m. Speed=22.680000m/h.</desc>
<speed>6.300000</speed>
</trkpt>
<trkpt lat="43.150303" lon="19.269627">
<ele>1136.610352</ele>
<time>2012-05-01T16:44:34Z</time>
<desc>lat.=43.150303, lon.=19.269627, Alt.=1136.610352m. Speed=21.636000m/h.</desc>
<speed>6.010000</speed>
</trkpt>
<trkpt lat="43.150097" lon="19.269848">
<ele>1132.047852</ele>
<time>2012-05-01T16:44:39Z</time>
<desc>lat.=43.150097, lon.=19.269848, Alt.=1132.047852m. Speed=22.572001m/h.</desc>
<speed>6.270000</speed>
</trkpt>
<trkpt lat="43.149849" lon="19.270075">
<ele>1126.579102</ele>
<time>2012-05-01T16:44:44Z</time>
<desc>lat.=43.149849, lon.=19.270075, Alt.=1126.579102m. Speed=19.511999m/h.</desc>
<speed>5.420000</speed>
</trkpt>
<trkpt lat="43.149811" lon="19.270226">
<ele>1123.204102</ele>
<time>2012-05-01T16:44:49Z</time>
<desc>lat.=43.149811, lon.=19.270226, Alt.=1123.204102m. Speed=0.756000m/h.</desc>
<speed>0.210000</speed>
</trkpt>
<trkpt lat="43.149815" lon="19.270245">
<ele>1122.860352</ele>
<time>2012-05-01T16:44:54Z</time>
<desc>lat.=43.149815, lon.=19.270245, Alt.=1122.860352m. Speed=0.252000m/h.</desc>
<speed>0.070000</speed>
</trkpt>
<trkpt lat="43.149803" lon="19.270298">
<ele>1121.954102</ele>
<time>2012-05-01T16:44:59Z</time>
<desc>lat.=43.149803, lon.=19.270298, Alt.=1121.954102m. Speed=7.056000m/h.</desc>
<speed>1.960000</speed>
</trkpt>
<trkpt lat="43.149906" lon="19.270510">
<ele>1119.516602</ele>
<time>2012-05-01T16:45:04Z</time>
<desc>lat.=43.149906, lon.=19.270510, Alt.=1119.516602m. Speed=19.620001m/h.</desc>
<speed>5.450000</speed>
</trkpt>
<trkpt lat="43.150036" lon="19.270866">
<ele>1117.766602</ele>
<time>2012-05-01T16:45:09Z</time>
<desc>lat.=43.150036, lon.=19.270866, Alt.=1117.766602m. Speed=22.212000m/h.</desc>
<speed>6.170000</speed>
</trkpt>
<trkpt lat="43.150154" lon="19.271250">
<ele>1110.610352</ele>
<time>2012-05-01T16:45:14Z</time>
<desc>lat.=43.150154, lon.=19.271250, Alt.=1110.610352m. Speed=25.596001m/h.</desc>
<speed>7.110000</speed>
</trkpt>
<trkpt lat="43.150249" lon="19.271648">
<ele>1101.954102</ele>
<time>2012-05-01T16:45:19Z</time>
<desc>lat.=43.150249, lon.=19.271648, Alt.=1101.954102m. Speed=23.364000m/h.</desc>
<speed>6.490000</speed>
</trkpt>
<trkpt lat="43.150265" lon="19.272020">
<ele>1095.204102</ele>
<time>2012-05-01T16:45:24Z</time>
<desc>lat.=43.150265, lon.=19.272020, Alt.=1095.204102m. Speed=22.247999m/h.</desc>
<speed>6.180000</speed>
</trkpt>
<trkpt lat="43.150352" lon="19.272409">
<ele>1088.547852</ele>
<time>2012-05-01T16:45:29Z</time>
<desc>lat.=43.150352, lon.=19.272409, Alt.=1088.547852m. Speed=17.459999m/h.</desc>
<speed>4.850000</speed>
</trkpt>
<trkpt lat="43.150318" lon="19.272615">
<ele>1084.829102</ele>
<time>2012-05-01T16:45:34Z</time>
<desc>lat.=43.150318, lon.=19.272615, Alt.=1084.829102m. Speed=15.300000m/h.</desc>
<speed>4.250000</speed>
</trkpt>
<trkpt lat="43.150124" lon="19.272705">
<ele>1081.360352</ele>
<time>2012-05-01T16:45:39Z</time>
<desc>lat.=43.150124, lon.=19.272705, Alt.=1081.360352m. Speed=19.044001m/h.</desc>
<speed>5.290000</speed>
</trkpt>
<trkpt lat="43.149864" lon="19.272722">
<ele>1076.360352</ele>
<time>2012-05-01T16:45:44Z</time>
<desc>lat.=43.149864, lon.=19.272722, Alt.=1076.360352m. Speed=25.379999m/h.</desc>
<speed>7.050000</speed>
</trkpt>
<trkpt lat="43.149574" lon="19.272821">
<ele>1066.047852</ele>
<time>2012-05-01T16:45:49Z</time>
<desc>lat.=43.149574, lon.=19.272821, Alt.=1066.047852m. Speed=24.552000m/h.</desc>
<speed>6.820000</speed>
</trkpt>
<trkpt lat="43.149338" lon="19.273064">
<ele>1060.641602</ele>
<time>2012-05-01T16:45:54Z</time>
<desc>lat.=43.149338, lon.=19.273064, Alt.=1060.641602m. Speed=23.292000m/h.</desc>
<speed>6.470000</speed>
</trkpt>
<trkpt lat="43.149090" lon="19.273262">
<ele>1056.985352</ele>
<time>2012-05-01T16:45:59Z</time>
<desc>lat.=43.149090, lon.=19.273262, Alt.=1056.985352m. Speed=21.096001m/h.</desc>
<speed>5.860000</speed>
</trkpt>
<trkpt lat="43.148815" lon="19.273571">
<ele>1052.766602</ele>
<time>2012-05-01T16:46:04Z</time>
<desc>lat.=43.148815, lon.=19.273571, Alt.=1052.766602m. Speed=33.335999m/h.</desc>
<speed>9.260000</speed>
</trkpt>
<trkpt lat="43.148525" lon="19.273932">
<ele>1052.485352</ele>
<time>2012-05-01T16:46:09Z</time>
<desc>lat.=43.148525, lon.=19.273932, Alt.=1052.485352m. Speed=29.232000m/h.</desc>
<speed>8.120000</speed>
</trkpt>
<trkpt lat="43.148285" lon="19.274250">
<ele>1051.641602</ele>
<time>2012-05-01T16:46:14Z</time>
<desc>lat.=43.148285, lon.=19.274250, Alt.=1051.641602m. Speed=24.768000m/h.</desc>
<speed>6.880000</speed>
</trkpt>
<trkpt lat="43.148174" lon="19.274580">
<ele>1050.860352</ele>
<time>2012-05-01T16:46:19Z</time>
<desc>lat.=43.148174, lon.=19.274580, Alt.=1050.860352m. Speed=22.572001m/h.</desc>
<speed>6.270000</speed>
</trkpt>
<trkpt lat="43.148109" lon="19.275013">
<ele>1049.110352</ele>
<time>2012-05-01T16:46:24Z</time>
<desc>lat.=43.148109, lon.=19.275013, Alt.=1049.110352m. Speed=26.459999m/h.</desc>
<speed>7.350000</speed>
</trkpt>
<trkpt lat="43.147923" lon="19.275343">
<ele>1048.329102</ele>
<time>2012-05-01T16:46:29Z</time>
<desc>lat.=43.147923, lon.=19.275343, Alt.=1048.329102m. Speed=23.148001m/h.</desc>
<speed>6.430000</speed>
</trkpt>
<trkpt lat="43.147728" lon="19.275583">
<ele>1048.735352</ele>
<time>2012-05-01T16:46:34Z</time>
<desc>lat.=43.147728, lon.=19.275583, Alt.=1048.735352m. Speed=17.820000m/h.</desc>
<speed>4.950000</speed>
</trkpt>
<trkpt lat="43.147682" lon="19.275801">
<ele>1050.329102</ele>
<time>2012-05-01T16:46:39Z</time>
<desc>lat.=43.147682, lon.=19.275801, Alt.=1050.329102m. Speed=12.528000m/h.</desc>
<speed>3.480000</speed>
</trkpt>
<trkpt lat="43.147640" lon="19.276056">
<ele>1050.454102</ele>
<time>2012-05-01T16:46:44Z</time>
<desc>lat.=43.147640, lon.=19.276056, Alt.=1050.454102m. Speed=19.691999m/h.</desc>
<speed>5.470000</speed>
</trkpt>
<trkpt lat="43.147602" lon="19.276331">
<ele>1048.797852</ele>
<time>2012-05-01T16:46:49Z</time>
<desc>lat.=43.147602, lon.=19.276331, Alt.=1048.797852m. Speed=15.336000m/h.</desc>
<speed>4.260000</speed>
</trkpt>
<trkpt lat="43.147663" lon="19.276606">
<ele>1045.797852</ele>
<time>2012-05-01T16:46:54Z</time>
<desc>lat.=43.147663, lon.=19.276606, Alt.=1045.797852m. Speed=17.820000m/h.</desc>
<speed>4.950000</speed>
</trkpt>
<trkpt lat="43.147839" lon="19.276838">
<ele>1043.454102</ele>
<time>2012-05-01T16:46:59Z</time>
<desc>lat.=43.147839, lon.=19.276838, Alt.=1043.454102m. Speed=20.952000m/h.</desc>
<speed>5.820000</speed>
</trkpt>
<trkpt lat="43.148094" lon="19.276810">
<ele>1037.391602</ele>
<time>2012-05-01T16:47:04Z</time>
<desc>lat.=43.148094, lon.=19.276810, Alt.=1037.391602m. Speed=19.115999m/h.</desc>
<speed>5.310000</speed>
</trkpt>
<trkpt lat="43.148304" lon="19.277069">
<ele>1030.860352</ele>
<time>2012-05-01T16:47:09Z</time>
<desc>lat.=43.148304, lon.=19.277069, Alt.=1030.860352m. Speed=18.936001m/h.</desc>
<speed>5.260000</speed>
</trkpt>
<trkpt lat="43.148384" lon="19.277143">
<ele>1028.516602</ele>
<time>2012-05-01T16:47:14Z</time>
<desc>lat.=43.148384, lon.=19.277143, Alt.=1028.516602m. Speed=9.648000m/h.</desc>
<speed>2.680000</speed>
</trkpt>
<trkpt lat="43.148502" lon="19.276939">
<ele>1024.547852</ele>
<time>2012-05-01T16:47:19Z</time>
<desc>lat.=43.148502, lon.=19.276939, Alt.=1024.547852m. Speed=16.164000m/h.</desc>
<speed>4.490000</speed>
</trkpt>
<trkpt lat="43.148499" lon="19.276608">
<ele>1020.227051</ele>
<time>2012-05-01T16:47:24Z</time>
<desc>lat.=43.148499, lon.=19.276608, Alt.=1020.227051m. Speed=22.752001m/h.</desc>
<speed>6.320000</speed>
</trkpt>
<trkpt lat="43.148449" lon="19.276228">
<ele>1015.289551</ele>
<time>2012-05-01T16:47:29Z</time>
<desc>lat.=43.148449, lon.=19.276228, Alt.=1015.289551m. Speed=23.004000m/h.</desc>
<speed>6.390000</speed>
</trkpt>
<trkpt lat="43.148571" lon="19.275841">
<ele>1012.508301</ele>
<time>2012-05-01T16:47:34Z</time>
<desc>lat.=43.148571, lon.=19.275841, Alt.=1012.508301m. Speed=24.983999m/h.</desc>
<speed>6.940000</speed>
</trkpt>
<trkpt lat="43.148895" lon="19.275663">
<ele>1010.727051</ele>
<time>2012-05-01T16:47:39Z</time>
<desc>lat.=43.148895, lon.=19.275663, Alt.=1010.727051m. Speed=26.532000m/h.</desc>
<speed>7.370000</speed>
</trkpt>
<trkpt lat="43.149117" lon="19.275448">
<ele>1012.227051</ele>
<time>2012-05-01T16:47:44Z</time>
<desc>lat.=43.149117, lon.=19.275448, Alt.=1012.227051m. Speed=18.936001m/h.</desc>
<speed>5.260000</speed>
</trkpt>
<trkpt lat="43.149368" lon="19.275311">
<ele>1010.602051</ele>
<time>2012-05-01T16:47:49Z</time>
<desc>lat.=43.149368, lon.=19.275311, Alt.=1010.602051m. Speed=24.191999m/h.</desc>
<speed>6.720000</speed>
</trkpt>
<trkpt lat="43.149685" lon="19.275290">
<ele>1010.180176</ele>
<time>2012-05-01T16:47:54Z</time>
<desc>lat.=43.149685, lon.=19.275290, Alt.=1010.180176m. Speed=19.260000m/h.</desc>
<speed>5.350000</speed>
</trkpt>
<trkpt lat="43.149776" lon="19.275377">
<ele>1009.180176</ele>
<time>2012-05-01T16:47:59Z</time>
<desc>lat.=43.149776, lon.=19.275377, Alt.=1009.180176m. Speed=0.612000m/h.</desc>
<speed>0.170000</speed>
</trkpt>
<trkpt lat="43.149769" lon="19.275385">
<ele>1008.492676</ele>
<time>2012-05-01T16:48:04Z</time>
<desc>lat.=43.149769, lon.=19.275385, Alt.=1008.492676m. Speed=0.072000m/h.</desc>
<speed>0.020000</speed>
</trkpt>
<trkpt lat="43.149769" lon="19.275385">
<ele>1008.477051</ele>
<time>2012-05-01T16:48:09Z</time>
<desc>lat.=43.149769, lon.=19.275385, Alt.=1008.477051m. Speed=0.000000m/h.</desc>
<speed>0.000000</speed>
</trkpt>
<trkpt lat="43.149769" lon="19.275383">
<ele>1008.430176</ele>
<time>2012-05-01T16:48:14Z</time>
<desc>lat.=43.149769, lon.=19.275383, Alt.=1008.430176m. Speed=0.144000m/h.</desc>
<speed>0.040000</speed>
</trkpt>
<trkpt lat="43.149765" lon="19.275383">
<ele>1008.305176</ele>
<time>2012-05-01T16:48:19Z</time>
<desc>lat.=43.149765, lon.=19.275383, Alt.=1008.305176m. Speed=0.180000m/h.</desc>
<speed>0.050000</speed>
</trkpt>
<trkpt lat="43.149765" lon="19.275381">
<ele>1008.273926</ele>
<time>2012-05-01T16:48:24Z</time>
<desc>lat.=43.149765, lon.=19.275381, Alt.=1008.273926m. Speed=0.072000m/h.</desc>
<speed>0.020000</speed>
</trkpt>
<trkpt lat="43.149765" lon="19.275381">
<ele>1008.180176</ele>
<time>2012-05-01T16:48:29Z</time>
<desc>lat.=43.149765, lon.=19.275381, Alt.=1008.180176m. Speed=0.072000m/h.</desc>
<speed>0.020000</speed>
</trkpt>
<trkpt lat="43.149765" lon="19.275381">
<ele>1008.148926</ele>
<time>2012-05-01T16:48:34Z</time>
<desc>lat.=43.149765, lon.=19.275381, Alt.=1008.148926m. Speed=0.036000m/h.</desc>
<speed>0.010000</speed>
</trkpt>
<trkpt lat="43.149765" lon="19.275381">
<ele>1008.148926</ele>
<time>2012-05-01T16:48:39Z</time>
<desc>lat.=43.149765, lon.=19.275381, Alt.=1008.148926m. Speed=0.072000m/h.</desc>
<speed>0.020000</speed>
</trkpt>
<trkpt lat="43.149765" lon="19.275381">
<ele>1008.133301</ele>
<time>2012-05-01T16:48:44Z</time>
<desc>lat.=43.149765, lon.=19.275381, Alt.=1008.133301m. Speed=0.000000m/h.</desc>
<speed>0.000000</speed>
</trkpt>
<trkpt lat="43.149765" lon="19.275381">
<ele>1008.117676</ele>
<time>2012-05-01T16:48:49Z</time>
<desc>lat.=43.149765, lon.=19.275381, Alt.=1008.117676m. Speed=0.072000m/h.</desc>
<speed>0.020000</speed>
</trkpt>
<trkpt lat="43.149761" lon="19.275383">
<ele>1008.117676</ele>
<time>2012-05-01T16:48:54Z</time>
<desc>lat.=43.149761, lon.=19.275383, Alt.=1008.117676m. Speed=0.000000m/h.</desc>
<speed>0.000000</speed>
</trkpt>
<trkpt lat="43.149761" lon="19.275383">
<ele>1008.117676</ele>
<time>2012-05-01T16:48:59Z</time>
<desc>lat.=43.149761, lon.=19.275383, Alt.=1008.117676m. Speed=0.000000m/h.</desc>
<speed>0.000000</speed>
</trkpt>
<trkpt lat="43.149761" lon="19.275383">
<ele>1008.117676</ele>
<time>2012-05-01T16:49:04Z</time>
<desc>lat.=43.149761, lon.=19.275383, Alt.=1008.117676m. Speed=0.000000m/h.</desc>
<speed>0.000000</speed>
</trkpt>
<trkpt lat="43.149761" lon="19.275381">
<ele>1008.117676</ele>
<time>2012-05-01T16:49:09Z</time>
<desc>lat.=43.149761, lon.=19.275381, Alt.=1008.117676m. Speed=0.396000m/h.</desc>
<speed>0.110000</speed>
</trkpt>
<trkpt lat="43.149860" lon="19.275370">
<ele>1007.336426</ele>
<time>2012-05-01T16:49:14Z</time>
<desc>lat.=43.149860, lon.=19.275370, Alt.=1007.336426m. Speed=11.268000m/h.</desc>
<speed>3.130000</speed>
</trkpt>
<trkpt lat="43.149963" lon="19.275522">
<ele>1005.102051</ele>
<time>2012-05-01T16:49:19Z</time>
<desc>lat.=43.149963, lon.=19.275522, Alt.=1005.102051m. Speed=9.720000m/h.</desc>
<speed>2.700000</speed>
</trkpt>
<trkpt lat="43.150032" lon="19.275642">
<ele>1007.070801</ele>
<time>2012-05-01T16:49:24Z</time>
<desc>lat.=43.150032, lon.=19.275642, Alt.=1007.070801m. Speed=9.324000m/h.</desc>
<speed>2.590000</speed>
</trkpt>
<trkpt lat="43.150059" lon="19.275829">
<ele>1005.742676</ele>
<time>2012-05-01T16:49:29Z</time>
<desc>lat.=43.150059, lon.=19.275829, Alt.=1005.742676m. Speed=17.063999m/h.</desc>
<speed>4.740000</speed>
</trkpt>
<trkpt lat="43.149944" lon="19.276152">
<ele>1002.898926</ele>
<time>2012-05-01T16:49:34Z</time>
<desc>lat.=43.149944, lon.=19.276152, Alt.=1002.898926m. Speed=22.643999m/h.</desc>
<speed>6.290000</speed>
</trkpt>
<trkpt lat="43.149815" lon="19.276457">
<ele>999.773926</ele>
<time>2012-05-01T16:49:39Z</time>
<desc>lat.=43.149815, lon.=19.276457, Alt.=999.773926m. Speed=18.108000m/h.</desc>
<speed>5.030000</speed>
</trkpt>
<trkpt lat="43.149837" lon="19.276697">
<ele>996.398926</ele>
<time>2012-05-01T16:49:44Z</time>
<desc>lat.=43.149837, lon.=19.276697, Alt.=996.398926m. Speed=16.200001m/h.</desc>
<speed>4.500000</speed>
</trkpt>
<trkpt lat="43.149940" lon="19.276955">
<ele>992.898926</ele>
<time>2012-05-01T16:49:49Z</time>
<desc>lat.=43.149940, lon.=19.276955, Alt.=992.898926m. Speed=20.232000m/h.</desc>
<speed>5.620000</speed>
</trkpt>
<trkpt lat="43.149933" lon="19.277372">
<ele>987.914551</ele>
<time>2012-05-01T16:49:54Z</time>
<desc>lat.=43.149933, lon.=19.277372, Alt.=987.914551m. Speed=26.172001m/h.</desc>
<speed>7.270000</speed>
</trkpt>
<trkpt lat="43.149940" lon="19.277767">
<ele>983.289551</ele>
<time>2012-05-01T16:49:59Z</time>
<desc>lat.=43.149940, lon.=19.277767, Alt.=983.289551m. Speed=19.224001m/h.</desc>
<speed>5.340000</speed>
</trkpt>
<trkpt lat="43.149967" lon="19.278095">
<ele>979.477051</ele>
<time>2012-05-01T16:50:04Z</time>
<desc>lat.=43.149967, lon.=19.278095, Alt.=979.477051m. Speed=17.964001m/h.</desc>
<speed>4.990000</speed>
</trkpt>
<trkpt lat="43.150028" lon="19.278336">
<ele>978.695801</ele>
<time>2012-05-01T16:50:09Z</time>
<desc>lat.=43.150028, lon.=19.278336, Alt.=978.695801m. Speed=14.940000m/h.</desc>
<speed>4.150000</speed>
</trkpt>
<trkpt lat="43.150120" lon="19.278507">
<ele>980.289551</ele>
<time>2012-05-01T16:50:14Z</time>
<desc>lat.=43.150120, lon.=19.278507, Alt.=980.289551m. Speed=15.840000m/h.</desc>
<speed>4.400000</speed>
</trkpt>
<trkpt lat="43.150131" lon="19.278862">
<ele>980.852051</ele>
<time>2012-05-01T16:50:19Z</time>
<desc>lat.=43.150131, lon.=19.278862, Alt.=980.852051m. Speed=24.480000m/h.</desc>
<speed>6.800000</speed>
</trkpt>
<trkpt lat="43.150131" lon="19.279364">
<ele>977.102051</ele>
<time>2012-05-01T16:50:24Z</time>
<desc>lat.=43.150131, lon.=19.279364, Alt.=977.102051m. Speed=31.680000m/h.</desc>
<speed>8.800000</speed>
</trkpt>
<trkpt lat="43.150219" lon="19.279945">
<ele>974.602051</ele>
<time>2012-05-01T16:50:29Z</time>
<desc>lat.=43.150219, lon.=19.279945, Alt.=974.602051m. Speed=36.071999m/h.</desc>
<speed>10.020000</speed>
</trkpt>
<trkpt lat="43.150372" lon="19.280582">
<ele>972.008301</ele>
<time>2012-05-01T16:50:34Z</time>
<desc>lat.=43.150372, lon.=19.280582, Alt.=972.008301m. Speed=40.284000m/h.</desc>
<speed>11.190000</speed>
</trkpt>
<trkpt lat="43.150539" lon="19.281313">
<ele>966.836426</ele>
<time>2012-05-01T16:50:39Z</time>
<desc>lat.=43.150539, lon.=19.281313, Alt.=966.836426m. Speed=46.908001m/h.</desc>
<speed>13.030000</speed>
</trkpt>
<trkpt lat="43.150558" lon="19.282143">
<ele>963.117676</ele>
<time>2012-05-01T16:50:44Z</time>
<desc>lat.=43.150558, lon.=19.282143, Alt.=963.117676m. Speed=48.672001m/h.</desc>
<speed>13.520000</speed>
</trkpt>
<trkpt lat="43.150402" lon="19.283014">
<ele>958.367676</ele>
<time>2012-05-01T16:50:49Z</time>
<desc>lat.=43.150402, lon.=19.283014, Alt.=958.367676m. Speed=54.035999m/h.</desc>
<speed>15.010000</speed>
</trkpt>
<trkpt lat="43.150265" lon="19.283970">
<ele>952.648926</ele>
<time>2012-05-01T16:50:54Z</time>
<desc>lat.=43.150265, lon.=19.283970, Alt.=952.648926m. Speed=56.591999m/h.</desc>
<speed>15.720000</speed>
</trkpt>
<trkpt lat="43.150364" lon="19.284983">
<ele>947.773926</ele>
<time>2012-05-01T16:50:59Z</time>
<desc>lat.=43.150364, lon.=19.284983, Alt.=947.773926m. Speed=61.560001m/h.</desc>
<speed>17.100000</speed>
</trkpt>
<trkpt lat="43.150436" lon="19.286003">
<ele>942.805176</ele>
<time>2012-05-01T16:51:04Z</time>
<desc>lat.=43.150436, lon.=19.286003, Alt.=942.805176m. Speed=55.476002m/h.</desc>
<speed>15.410000</speed>
</trkpt>
<trkpt lat="43.150589" lon="19.286785">
<ele>938.508301</ele>
<time>2012-05-01T16:51:09Z</time>
<desc>lat.=43.150589, lon.=19.286785, Alt.=938.508301m. Speed=40.680000m/h.</desc>
<speed>11.300000</speed>
</trkpt>
<trkpt lat="43.150723" lon="19.287344">
<ele>936.602051</ele>
<time>2012-05-01T16:51:14Z</time>
<desc>lat.=43.150723, lon.=19.287344, Alt.=936.602051m. Speed=32.580002m/h.</desc>
<speed>9.050001</speed>
</trkpt>
<trkpt lat="43.150906" lon="19.287127">
<ele>935.289551</ele>
<time>2012-05-01T16:51:19Z</time>
<desc>lat.=43.150906, lon.=19.287127, Alt.=935.289551m. Speed=29.448000m/h.</desc>
<speed>8.180000</speed>
</trkpt>
<trkpt lat="43.150726" lon="19.286680">
<ele>930.758301</ele>
<time>2012-05-01T16:51:24Z</time>
<desc>lat.=43.150726, lon.=19.286680, Alt.=930.758301m. Speed=34.632000m/h.</desc>
<speed>9.620000</speed>
</trkpt>
<trkpt lat="43.150650" lon="19.286097">
<ele>927.023926</ele>
<time>2012-05-01T16:51:29Z</time>
<desc>lat.=43.150650, lon.=19.286097, Alt.=927.023926m. Speed=38.015999m/h.</desc>
<speed>10.560000</speed>
</trkpt>
<trkpt lat="43.150623" lon="19.285425">
<ele>922.461426</ele>
<time>2012-05-01T16:51:34Z</time>
<desc>lat.=43.150623, lon.=19.285425, Alt.=922.461426m. Speed=41.040001m/h.</desc>
<speed>11.400000</speed>
</trkpt>
<trkpt lat="43.150669" lon="19.284687">
<ele>918.164551</ele>
<time>2012-05-01T16:51:39Z</time>
<desc>lat.=43.150669, lon.=19.284687, Alt.=918.164551m. Speed=44.891998m/h.</desc>
<speed>12.470000</speed>
</trkpt>
<trkpt lat="43.150787" lon="19.283901">
<ele>912.852051</ele>
<time>2012-05-01T16:51:44Z</time>
<desc>lat.=43.150787, lon.=19.283901, Alt.=912.852051m. Speed=50.220001m/h.</desc>
<speed>13.950000</speed>
</trkpt>
<trkpt lat="43.151070" lon="19.283146">
<ele>907.820801</ele>
<time>2012-05-01T16:51:49Z</time>
<desc>lat.=43.151070, lon.=19.283146, Alt.=907.820801m. Speed=49.860001m/h.</desc>
<speed>13.850000</speed>
</trkpt>
<trkpt lat="43.151360" lon="19.282475">
<ele>904.508301</ele>
<time>2012-05-01T16:51:54Z</time>
<desc>lat.=43.151360, lon.=19.282475, Alt.=904.508301m. Speed=45.144001m/h.</desc>
<speed>12.540000</speed>
</trkpt>
<trkpt lat="43.151340" lon="19.281694">
<ele>901.148926</ele>
<time>2012-05-01T16:51:59Z</time>
<desc>lat.=43.151340, lon.=19.281694, Alt.=901.148926m. Speed=46.584000m/h.</desc>
<speed>12.940000</speed>
</trkpt>
<trkpt lat="43.151283" lon="19.280859">
<ele>896.117676</ele>
<time>2012-05-01T16:52:04Z</time>
<desc>lat.=43.151283, lon.=19.280859, Alt.=896.117676m. Speed=48.348000m/h.</desc>
<speed>13.430000</speed>
</trkpt>
<trkpt lat="43.151367" lon="19.280024">
<ele>890.070801</ele>
<time>2012-05-01T16:52:09Z</time>
<desc>lat.=43.151367, lon.=19.280024, Alt.=890.070801m. Speed=48.456001m/h.</desc>
<speed>13.460000</speed>
</trkpt>
<trkpt lat="43.151466" lon="19.279179">
<ele>883.523926</ele>
<time>2012-05-01T16:52:14Z</time>
<desc>lat.=43.151466, lon.=19.279179, Alt.=883.523926m. Speed=48.852001m/h.</desc>
<speed>13.570000</speed>
</trkpt>
<trkpt lat="43.151600" lon="19.278370">
<ele>878.695801</ele>
<time>2012-05-01T16:52:19Z</time>
<desc>lat.=43.151600, lon.=19.278370, Alt.=878.695801m. Speed=47.807999m/h.</desc>
<speed>13.280000</speed>
</trkpt>
<trkpt lat="43.151821" lon="19.277668">
<ele>876.461426</ele>
<time>2012-05-01T16:52:24Z</time>
<desc>lat.=43.151821, lon.=19.277668, Alt.=876.461426m. Speed=41.400002m/h.</desc>
<speed>11.500000</speed>
</trkpt>
<trkpt lat="43.152107" lon="19.277287">
<ele>873.367676</ele>
<time>2012-05-01T16:52:29Z</time>
<desc>lat.=43.152107, lon.=19.277287, Alt.=873.367676m. Speed=25.164000m/h.</desc>
<speed>6.990000</speed>
</trkpt>
<trkpt lat="43.152222" lon="19.277466">
<ele>871.273926</ele>
<time>2012-05-01T16:52:34Z</time>
<desc>lat.=43.152222, lon.=19.277466, Alt.=871.273926m. Speed=23.976000m/h.</desc>
<speed>6.660000</speed>
</trkpt>
<trkpt lat="43.151989" lon="19.277714">
<ele>870.242676</ele>
<time>2012-05-01T16:52:39Z</time>
<desc>lat.=43.151989, lon.=19.277714, Alt.=870.242676m. Speed=25.236000m/h.</desc>
<speed>7.010000</speed>
</trkpt>
<trkpt lat="43.151814" lon="19.278074">
<ele>869.836426</ele>
<time>2012-05-01T16:52:44Z</time>
<desc>lat.=43.151814, lon.=19.278074, Alt.=869.836426m. Speed=26.351999m/h.</desc>
<speed>7.320000</speed>
</trkpt>
<trkpt lat="43.151711" lon="19.278519">
<ele>867.680176</ele>
<time>2012-05-01T16:52:49Z</time>
<desc>lat.=43.151711, lon.=19.278519, Alt.=867.680176m. Speed=30.384001m/h.</desc>
<speed>8.440000</speed>
</trkpt>
<trkpt lat="43.151653" lon="19.279051">
<ele>864.461426</ele>
<time>2012-05-01T16:52:54Z</time>
<desc>lat.=43.151653, lon.=19.279051, Alt.=864.461426m. Speed=34.380001m/h.</desc>
<speed>9.550000</speed>
</trkpt>
<trkpt lat="43.151627" lon="19.279631">
<ele>861.648926</ele>
<time>2012-05-01T16:52:59Z</time>
<desc>lat.=43.151627, lon.=19.279631, Alt.=861.648926m. Speed=34.812000m/h.</desc>
<speed>9.670000</speed>
</trkpt>
<trkpt lat="43.151577" lon="19.280210">
<ele>859.930176</ele>
<time>2012-05-01T16:53:04Z</time>
<desc>lat.=43.151577, lon.=19.280210, Alt.=859.930176m. Speed=33.875999m/h.</desc>
<speed>9.410000</speed>
</trkpt>
<trkpt lat="43.151546" lon="19.280764">
<ele>860.180176</ele>
<time>2012-05-01T16:53:09Z</time>
<desc>lat.=43.151546, lon.=19.280764, Alt.=860.180176m. Speed=32.472000m/h.</desc>
<speed>9.020000</speed>
</trkpt>
<trkpt lat="43.151600" lon="19.281290">
<ele>862.258301</ele>
<time>2012-05-01T16:53:14Z</time>
<desc>lat.=43.151600, lon.=19.281290, Alt.=862.258301m. Speed=31.212000m/h.</desc>
<speed>8.670000</speed>
</trkpt>
<trkpt lat="43.151733" lon="19.281807">
<ele>861.836426</ele>
<time>2012-05-01T16:53:19Z</time>
<desc>lat.=43.151733, lon.=19.281807, Alt.=861.836426m. Speed=32.543999m/h.</desc>
<speed>9.040000</speed>
</trkpt>
<trkpt lat="43.151852" lon="19.282373">
<ele>859.117676</ele>
<time>2012-05-01T16:53:24Z</time>
<desc>lat.=43.151852, lon.=19.282373, Alt.=859.117676m. Speed=33.768002m/h.</desc>
<speed>9.380000</speed>
</trkpt>
<trkpt lat="43.151760" lon="19.282967">
<ele>854.836426</ele>
<time>2012-05-01T16:53:29Z</time>
<desc>lat.=43.151760, lon.=19.282967, Alt.=854.836426m. Speed=34.127998m/h.</desc>
<speed>9.480000</speed>
</trkpt>
<trkpt lat="43.151623" lon="19.283503">
<ele>852.898926</ele>
<time>2012-05-01T16:53:34Z</time>
<desc>lat.=43.151623, lon.=19.283503, Alt.=852.898926m. Speed=31.247999m/h.</desc>
<speed>8.680000</speed>
</trkpt>
<trkpt lat="43.151688" lon="19.284103">
<ele>851.461426</ele>
<time>2012-05-01T16:53:39Z</time>
<desc>lat.=43.151688, lon.=19.284103, Alt.=851.461426m. Speed=36.612000m/h.</desc>
<speed>10.170000</speed>
</trkpt>
<trkpt lat="43.151604" lon="19.284765">
<ele>847.664551</ele>
<time>2012-05-01T16:53:44Z</time>
<desc>lat.=43.151604, lon.=19.284765, Alt.=847.664551m. Speed=39.276001m/h.</desc>
<speed>10.910000</speed>
</trkpt>
<trkpt lat="43.151470" lon="19.285374">
<ele>844.602051</ele>
<time>2012-05-01T16:53:49Z</time>
<desc>lat.=43.151470, lon.=19.285374, Alt.=844.602051m. Speed=37.296001m/h.</desc>
<speed>10.360000</speed>
</trkpt>
<trkpt lat="43.151550" lon="19.286013">
<ele>842.758301</ele>
<time>2012-05-01T16:53:54Z</time>
<desc>lat.=43.151550, lon.=19.286013, Alt.=842.758301m. Speed=37.476002m/h.</desc>
<speed>10.410000</speed>
</trkpt>
<trkpt lat="43.151691" lon="19.286562">
<ele>840.586426</ele>
<time>2012-05-01T16:53:59Z</time>
<desc>lat.=43.151691, lon.=19.286562, Alt.=840.586426m. Speed=34.416000m/h.</desc>
<speed>9.560000</speed>
</trkpt>
<trkpt lat="43.151947" lon="19.287106">
<ele>836.461426</ele>
<time>2012-05-01T16:54:04Z</time>
<desc>lat.=43.151947, lon.=19.287106, Alt.=836.461426m. Speed=39.132000m/h.</desc>
<speed>10.870000</speed>
</trkpt>
<trkpt lat="43.152081" lon="19.287775">
<ele>831.836426</ele>
<time>2012-05-01T16:54:09Z</time>
<desc>lat.=43.152081, lon.=19.287775, Alt.=831.836426m. Speed=39.383999m/h.</desc>
<speed>10.940000</speed>
</trkpt>
<trkpt lat="43.151844" lon="19.288363">
<ele>827.836426</ele>
<time>2012-05-01T16:54:14Z</time>
<desc>lat.=43.151844, lon.=19.288363, Alt.=827.836426m. Speed=38.195999m/h.</desc>
<speed>10.610000</speed>
</trkpt>
<trkpt lat="43.151531" lon="19.288881">
<ele>824.539551</ele>
<time>2012-05-01T16:54:19Z</time>
<desc>lat.=43.151531, lon.=19.288881, Alt.=824.539551m. Speed=39.492001m/h.</desc>
<speed>10.970000</speed>
</trkpt>
<trkpt lat="43.151237" lon="19.289375">
<ele>821.117676</ele>
<time>2012-05-01T16:54:24Z</time>
<desc>lat.=43.151237, lon.=19.289375, Alt.=821.117676m. Speed=37.619999m/h.</desc>
<speed>10.450000</speed>
</trkpt>
<trkpt lat="43.150780" lon="19.289640">
<ele>818.555176</ele>
<time>2012-05-01T16:54:29Z</time>
<desc>lat.=43.150780, lon.=19.289640, Alt.=818.555176m. Speed=42.840000m/h.</desc>
<speed>11.900000</speed>
</trkpt>
<trkpt lat="43.150272" lon="19.289604">
<ele>814.086426</ele>
<time>2012-05-01T16:54:34Z</time>
<desc>lat.=43.150272, lon.=19.289604, Alt.=814.086426m. Speed=38.484001m/h.</desc>
<speed>10.690000</speed>
</trkpt>
<trkpt lat="43.149803" lon="19.289499">
<ele>810.211426</ele>
<time>2012-05-01T16:54:39Z</time>
<desc>lat.=43.149803, lon.=19.289499, Alt.=810.211426m. Speed=38.880001m/h.</desc>
<speed>10.800000</speed>
</trkpt>
<trkpt lat="43.149300" lon="19.289495">
<ele>805.758301</ele>
<time>2012-05-01T16:54:44Z</time>
<desc>lat.=43.149300, lon.=19.289495, Alt.=805.758301m. Speed=45.360001m/h.</desc>
<speed>12.600000</speed>
</trkpt>
<trkpt lat="43.148914" lon="19.289946">
<ele>799.992676</ele>
<time>2012-05-01T16:54:49Z</time>
<desc>lat.=43.148914, lon.=19.289946, Alt.=799.992676m. Speed=38.268002m/h.</desc>
<speed>10.630000</speed>
</trkpt>
<trkpt lat="43.148777" lon="19.290545">
<ele>796.383301</ele>
<time>2012-05-01T16:54:54Z</time>
<desc>lat.=43.148777, lon.=19.290545, Alt.=796.383301m. Speed=38.771999m/h.</desc>
<speed>10.770000</speed>
</trkpt>
<trkpt lat="43.148659" lon="19.291159">
<ele>793.398926</ele>
<time>2012-05-01T16:54:59Z</time>
<desc>lat.=43.148659, lon.=19.291159, Alt.=793.398926m. Speed=36.251999m/h.</desc>
<speed>10.070000</speed>
</trkpt>
<trkpt lat="43.148563" lon="19.291664">
<ele>790.805176</ele>
<time>2012-05-01T16:55:04Z</time>
<desc>lat.=43.148563, lon.=19.291664, Alt.=790.805176m. Speed=26.604000m/h.</desc>
<speed>7.390000</speed>
</trkpt>
<trkpt lat="43.148506" lon="19.292002">
<ele>789.695801</ele>
<time>2012-05-01T16:55:09Z</time>
<desc>lat.=43.148506, lon.=19.292002, Alt.=789.695801m. Speed=16.308001m/h.</desc>
<speed>4.530000</speed>
</trkpt>
<trkpt lat="43.148357" lon="19.292170">
<ele>787.211426</ele>
<time>2012-05-01T16:55:14Z</time>
<desc>lat.=43.148357, lon.=19.292170, Alt.=787.211426m. Speed=12.708000m/h.</desc>
<speed>3.530000</speed>
</trkpt>
<trkpt lat="43.148270" lon="19.292231">
<ele>785.914551</ele>
<time>2012-05-01T16:55:19Z</time>
<desc>lat.=43.148270, lon.=19.292231, Alt.=785.914551m. Speed=5.832000m/h.</desc>
<speed>1.620000</speed>
</trkpt>
<trkpt lat="43.148273" lon="19.292181">
<ele>785.430176</ele>
<time>2012-05-01T16:55:24Z</time>
<desc>lat.=43.148273, lon.=19.292181, Alt.=785.430176m. Speed=6.840000m/h.</desc>
<speed>1.900000</speed>
</trkpt>
<trkpt lat="43.148338" lon="19.292236">
<ele>785.664551</ele>
<time>2012-05-01T16:55:29Z</time>
<desc>lat.=43.148338, lon.=19.292236, Alt.=785.664551m. Speed=6.120000m/h.</desc>
<speed>1.700000</speed>
</trkpt>
<trkpt lat="43.148380" lon="19.292234">
<ele>785.617676</ele>
<time>2012-05-01T16:55:34Z</time>
<desc>lat.=43.148380, lon.=19.292234, Alt.=785.617676m. Speed=0.108000m/h.</desc>
<speed>0.030000</speed>
</trkpt>
<trkpt lat="43.148380" lon="19.292250">
<ele>784.430176</ele>
<time>2012-05-01T16:55:39Z</time>
<desc>lat.=43.148380, lon.=19.292250, Alt.=784.430176m. Speed=0.432000m/h.</desc>
<speed>0.120000</speed>
</trkpt>
<trkpt lat="43.148338" lon="19.292234">
<ele>784.914551</ele>
<time>2012-05-01T16:55:44Z</time>
<desc>lat.=43.148338, lon.=19.292234, Alt.=784.914551m. Speed=6.120000m/h.</desc>
<speed>1.700000</speed>
</trkpt>
<trkpt lat="43.148315" lon="19.292242">
<ele>785.664551</ele>
<time>2012-05-01T16:55:49Z</time>
<desc>lat.=43.148315, lon.=19.292242, Alt.=785.664551m. Speed=1.008000m/h.</desc>
<speed>0.280000</speed>
</trkpt>
<trkpt lat="43.148300" lon="19.292231">
<ele>786.039551</ele>
<time>2012-05-01T16:55:54Z</time>
<desc>lat.=43.148300, lon.=19.292231, Alt.=786.039551m. Speed=1.692000m/h.</desc>
<speed>0.470000</speed>
</trkpt>
<trkpt lat="43.148319" lon="19.292238">
<ele>785.914551</ele>
<time>2012-05-01T16:55:59Z</time>
<desc>lat.=43.148319, lon.=19.292238, Alt.=785.914551m. Speed=3.708000m/h.</desc>
<speed>1.030000</speed>
</trkpt>
<trkpt lat="43.148312" lon="19.292248">
<ele>785.398926</ele>
<time>2012-05-01T16:56:04Z</time>
<desc>lat.=43.148312, lon.=19.292248, Alt.=785.398926m. Speed=0.180000m/h.</desc>
<speed>0.050000</speed>
</trkpt>
<trkpt lat="43.148315" lon="19.292253">
<ele>785.414551</ele>
<time>2012-05-01T16:56:09Z</time>
<desc>lat.=43.148315, lon.=19.292253, Alt.=785.414551m. Speed=1.224000m/h.</desc>
<speed>0.340000</speed>
</trkpt>
<trkpt lat="43.148319" lon="19.292261">
<ele>785.492676</ele>
<time>2012-05-01T16:56:14Z</time>
<desc>lat.=43.148319, lon.=19.292261, Alt.=785.492676m. Speed=0.072000m/h.</desc>
<speed>0.020000</speed>
</trkpt>
<trkpt lat="43.148319" lon="19.292259">
<ele>785.523926</ele>
<time>2012-05-01T16:56:19Z</time>
<desc>lat.=43.148319, lon.=19.292259, Alt.=785.523926m. Speed=0.108000m/h.</desc>
<speed>0.030000</speed>
</trkpt>
<trkpt lat="43.148319" lon="19.292257">
<ele>785.570801</ele>
<time>2012-05-01T16:56:24Z</time>
<desc>lat.=43.148319, lon.=19.292257, Alt.=785.570801m. Speed=0.720000m/h.</desc>
<speed>0.200000</speed>
</trkpt>
<trkpt lat="43.148304" lon="19.292259">
<ele>786.133301</ele>
<time>2012-05-01T16:56:29Z</time>
<desc>lat.=43.148304, lon.=19.292259, Alt.=786.133301m. Speed=3.528000m/h.</desc>
<speed>0.980000</speed>
</trkpt>
<trkpt lat="43.148277" lon="19.292248">
<ele>786.070801</ele>
<time>2012-05-01T16:56:34Z</time>
<desc>lat.=43.148277, lon.=19.292248, Alt.=786.070801m. Speed=0.396000m/h.</desc>
<speed>0.110000</speed>
</trkpt>
<trkpt lat="43.148224" lon="19.292238">
<ele>785.914551</ele>
<time>2012-05-01T16:56:39Z</time>
<desc>lat.=43.148224, lon.=19.292238, Alt.=785.914551m. Speed=6.156000m/h.</desc>
<speed>1.710000</speed>
</trkpt>
<trkpt lat="43.148205" lon="19.292238">
<ele>785.523926</ele>
<time>2012-05-01T16:56:44Z</time>
<desc>lat.=43.148205, lon.=19.292238, Alt.=785.523926m. Speed=0.180000m/h.</desc>
<speed>0.050000</speed>
</trkpt>
<trkpt lat="43.148205" lon="19.292238">
<ele>785.852051</ele>
<time>2012-05-01T16:56:49Z</time>
<desc>lat.=43.148205, lon.=19.292238, Alt.=785.852051m. Speed=3.384000m/h.</desc>
<speed>0.940000</speed>
</trkpt>
<trkpt lat="43.148193" lon="19.292194">
<ele>785.055176</ele>
<time>2012-05-01T16:56:54Z</time>
<desc>lat.=43.148193, lon.=19.292194, Alt.=785.055176m. Speed=5.400000m/h.</desc>
<speed>1.500000</speed>
</trkpt>
<trkpt lat="43.148273" lon="19.292223">
<ele>785.477051</ele>
<time>2012-05-01T16:56:59Z</time>
<desc>lat.=43.148273, lon.=19.292223, Alt.=785.477051m. Speed=6.984000m/h.</desc>
<speed>1.940000</speed>
</trkpt>
<trkpt lat="43.148296" lon="19.292240">
<ele>785.492676</ele>
<time>2012-05-01T16:57:04Z</time>
<desc>lat.=43.148296, lon.=19.292240, Alt.=785.492676m. Speed=0.000000m/h.</desc>
<speed>0.000000</speed>
</trkpt>
<trkpt lat="43.148293" lon="19.292240">
<ele>785.430176</ele>
<time>2012-05-01T16:57:09Z</time>
<desc>lat.=43.148293, lon.=19.292240, Alt.=785.430176m. Speed=0.036000m/h.</desc>
<speed>0.010000</speed>
</trkpt>
<trkpt lat="43.148293" lon="19.292242">
<ele>785.383301</ele>
<time>2012-05-01T16:57:14Z</time>
<desc>lat.=43.148293, lon.=19.292242, Alt.=785.383301m. Speed=0.108000m/h.</desc>
<speed>0.030000</speed>
</trkpt>
<trkpt lat="43.148300" lon="19.292244">
<ele>785.445801</ele>
<time>2012-05-01T16:57:19Z</time>
<desc>lat.=43.148300, lon.=19.292244, Alt.=785.445801m. Speed=1.152000m/h.</desc>
<speed>0.320000</speed>
</trkpt>
<trkpt lat="43.148304" lon="19.292252">
<ele>785.820801</ele>
<time>2012-05-01T16:57:24Z</time>
<desc>lat.=43.148304, lon.=19.292252, Alt.=785.820801m. Speed=1.224000m/h.</desc>
<speed>0.340000</speed>
</trkpt>
<trkpt lat="43.148304" lon="19.292253">
<ele>786.039551</ele>
<time>2012-05-01T16:57:29Z</time>
<desc>lat.=43.148304, lon.=19.292253, Alt.=786.039551m. Speed=0.036000m/h.</desc>
<speed>0.010000</speed>
</trkpt>
<trkpt lat="43.148304" lon="19.292253">
<ele>786.023926</ele>
<time>2012-05-01T16:57:34Z</time>
<desc>lat.=43.148304, lon.=19.292253, Alt.=786.023926m. Speed=0.468000m/h.</desc>
<speed>0.130000</speed>
</trkpt>
<trkpt lat="43.148369" lon="19.292259">
<ele>782.039551</ele>
<time>2012-05-01T16:57:39Z</time>
<desc>lat.=43.148369, lon.=19.292259, Alt.=782.039551m. Speed=5.652000m/h.</desc>
<speed>1.570000</speed>
</trkpt>
<trkpt lat="43.148426" lon="19.292238">
<ele>782.836426</ele>
<time>2012-05-01T16:57:44Z</time>
<desc>lat.=43.148426, lon.=19.292238, Alt.=782.836426m. Speed=3.996000m/h.</desc>
<speed>1.110000</speed>
</trkpt>
<trkpt lat="43.148483" lon="19.292210">
<ele>783.336426</ele>
<time>2012-05-01T16:57:49Z</time>
<desc>lat.=43.148483, lon.=19.292210, Alt.=783.336426m. Speed=5.328000m/h.</desc>
<speed>1.480000</speed>
</trkpt>
<trkpt lat="43.148533" lon="19.292196">
<ele>784.148926</ele>
<time>2012-05-01T16:57:54Z</time>
<desc>lat.=43.148533, lon.=19.292196, Alt.=784.148926m. Speed=2.880000m/h.</desc>
<speed>0.800000</speed>
</trkpt>
<trkpt lat="43.148540" lon="19.292234">
<ele>785.195801</ele>
<time>2012-05-01T16:57:59Z</time>
<desc>lat.=43.148540, lon.=19.292234, Alt.=785.195801m. Speed=0.720000m/h.</desc>
<speed>0.200000</speed>
</trkpt>
<trkpt lat="43.148537" lon="19.292231">
<ele>785.883301</ele>
<time>2012-05-01T16:58:04Z</time>
<desc>lat.=43.148537, lon.=19.292231, Alt.=785.883301m. Speed=0.180000m/h.</desc>
<speed>0.050000</speed>
</trkpt>
<trkpt lat="43.148533" lon="19.292229">
<ele>786.336426</ele>
<time>2012-05-01T16:58:09Z</time>
<desc>lat.=43.148533, lon.=19.292229, Alt.=786.336426m. Speed=0.180000m/h.</desc>
<speed>0.050000</speed>
</trkpt>
<trkpt lat="43.148533" lon="19.292225">
<ele>786.758301</ele>
<time>2012-05-01T16:58:14Z</time>
<desc>lat.=43.148533, lon.=19.292225, Alt.=786.758301m. Speed=0.216000m/h.</desc>
<speed>0.060000</speed>
</trkpt>
<trkpt lat="43.148529" lon="19.292223">
<ele>787.164551</ele>
<time>2012-05-01T16:58:19Z</time>
<desc>lat.=43.148529, lon.=19.292223, Alt.=787.164551m. Speed=0.216000m/h.</desc>
<speed>0.060000</speed>
</trkpt>
<trkpt lat="43.148529" lon="19.292219">
<ele>787.602051</ele>
<time>2012-05-01T16:58:24Z</time>
<desc>lat.=43.148529, lon.=19.292219, Alt.=787.602051m. Speed=0.216000m/h.</desc>
<speed>0.060000</speed>
</trkpt>
<trkpt lat="43.148525" lon="19.292217">
<ele>787.992676</ele>
<time>2012-05-01T16:58:29Z</time>
<desc>lat.=43.148525, lon.=19.292217, Alt.=787.992676m. Speed=0.144000m/h.</desc>
<speed>0.040000</speed>
</trkpt>
<trkpt lat="43.148525" lon="19.292217">
<ele>788.273926</ele>
<time>2012-05-01T16:58:34Z</time>
<desc>lat.=43.148525, lon.=19.292217, Alt.=788.273926m. Speed=0.180000m/h.</desc>
<speed>0.050000</speed>
</trkpt>
<trkpt lat="43.148525" lon="19.292217">
<ele>788.258301</ele>
<time>2012-05-01T16:58:39Z</time>
<desc>lat.=43.148525, lon.=19.292217, Alt.=788.258301m. Speed=0.036000m/h.</desc>
<speed>0.010000</speed>
</trkpt>
<trkpt lat="43.148525" lon="19.292217">
<ele>788.258301</ele>
<time>2012-05-01T16:58:44Z</time>
<desc>lat.=43.148525, lon.=19.292217, Alt.=788.258301m. Speed=0.000000m/h.</desc>
<speed>0.000000</speed>
</trkpt>
<trkpt lat="43.148525" lon="19.292217">
<ele>788.242676</ele>
<time>2012-05-01T16:58:49Z</time>
<desc>lat.=43.148525, lon.=19.292217, Alt.=788.242676m. Speed=0.108000m/h.</desc>
<speed>0.030000</speed>
</trkpt>
<trkpt lat="43.148525" lon="19.292217">
<ele>788.227051</ele>
<time>2012-05-01T16:58:54Z</time>
<desc>lat.=43.148525, lon.=19.292217, Alt.=788.227051m. Speed=0.036000m/h.</desc>
<speed>0.010000</speed>
</trkpt>
<trkpt lat="43.148525" lon="19.292217">
<ele>788.211426</ele>
<time>2012-05-01T16:58:59Z</time>
<desc>lat.=43.148525, lon.=19.292217, Alt.=788.211426m. Speed=0.000000m/h.</desc>
<speed>0.000000</speed>
</trkpt>
<trkpt lat="43.148525" lon="19.292217">
<ele>788.195801</ele>
<time>2012-05-01T16:59:04Z</time>
<desc>lat.=43.148525, lon.=19.292217, Alt.=788.195801m. Speed=0.000000m/h.</desc>
<speed>0.000000</speed>
</trkpt>
<trkpt lat="43.148525" lon="19.292217">
<ele>788.195801</ele>
<time>2012-05-01T16:59:09Z</time>
<desc>lat.=43.148525, lon.=19.292217, Alt.=788.195801m. Speed=0.000000m/h.</desc>
<speed>0.000000</speed>
</trkpt>
<trkpt lat="43.148525" lon="19.292217">
<ele>788.195801</ele>
<time>2012-05-01T16:59:14Z</time>
<desc>lat.=43.148525, lon.=19.292217, Alt.=788.195801m. Speed=0.000000m/h.</desc>
<speed>0.000000</speed>
</trkpt>
<trkpt lat="43.148525" lon="19.292217">
<ele>788.211426</ele>
<time>2012-05-01T16:59:19Z</time>
<desc>lat.=43.148525, lon.=19.292217, Alt.=788.211426m. Speed=0.396000m/h.</desc>
<speed>0.110000</speed>
</trkpt>
<trkpt lat="43.148537" lon="19.292225">
<ele>788.102051</ele>
<time>2012-05-01T16:59:24Z</time>
<desc>lat.=43.148537, lon.=19.292225, Alt.=788.102051m. Speed=6.444000m/h.</desc>
<speed>1.790000</speed>
</trkpt>
<trkpt lat="43.148628" lon="19.292183">
<ele>787.461426</ele>
<time>2012-05-01T16:59:29Z</time>
<desc>lat.=43.148628, lon.=19.292183, Alt.=787.461426m. Speed=6.408000m/h.</desc>
<speed>1.780000</speed>
</trkpt>
<trkpt lat="43.148655" lon="19.292171">
<ele>788.461426</ele>
<time>2012-05-01T16:59:34Z</time>
<desc>lat.=43.148655, lon.=19.292171, Alt.=788.461426m. Speed=0.036000m/h.</desc>
<speed>0.010000</speed>
</trkpt>
<trkpt lat="43.148655" lon="19.292168">
<ele>788.602051</ele>
<time>2012-05-01T16:59:39Z</time>
<desc>lat.=43.148655, lon.=19.292168, Alt.=788.602051m. Speed=0.000000m/h.</desc>
<speed>0.000000</speed>
</trkpt>
<trkpt lat="43.148655" lon="19.292168">
<ele>788.570801</ele>
<time>2012-05-01T16:59:44Z</time>
<desc>lat.=43.148655, lon.=19.292168, Alt.=788.570801m. Speed=0.000000m/h.</desc>
<speed>0.000000</speed>
</trkpt>
<trkpt lat="43.148655" lon="19.292168">
<ele>788.586426</ele>
<time>2012-05-01T16:59:49Z</time>
<desc>lat.=43.148655, lon.=19.292168, Alt.=788.586426m. Speed=0.288000m/h.</desc>
<speed>0.080000</speed>
</trkpt>
<trkpt lat="43.148655" lon="19.292168">
<ele>788.602051</ele>
<time>2012-05-01T16:59:54Z</time>
<desc>lat.=43.148655, lon.=19.292168, Alt.=788.602051m. Speed=0.036000m/h.</desc>
<speed>0.010000</speed>
</trkpt>
<trkpt lat="43.148655" lon="19.292170">
<ele>788.586426</ele>
<time>2012-05-01T16:59:59Z</time>
<desc>lat.=43.148655, lon.=19.292170, Alt.=788.586426m. Speed=0.036000m/h.</desc>
<speed>0.010000</speed>
</trkpt>
<trkpt lat="43.148655" lon="19.292170">
<ele>788.570801</ele>
<time>2012-05-01T17:00:04Z</time>
<desc>lat.=43.148655, lon.=19.292170, Alt.=788.570801m. Speed=0.108000m/h.</desc>
<speed>0.030000</speed>
</trkpt>
<trkpt lat="43.148655" lon="19.292170">
<ele>788.586426</ele>
<time>2012-05-01T17:00:09Z</time>
<desc>lat.=43.148655, lon.=19.292170, Alt.=788.586426m. Speed=0.036000m/h.</desc>
<speed>0.010000</speed>
</trkpt>
<trkpt lat="43.148655" lon="19.292168">
<ele>788.570801</ele>
<time>2012-05-01T17:00:14Z</time>
<desc>lat.=43.148655, lon.=19.292168, Alt.=788.570801m. Speed=0.000000m/h.</desc>
<speed>0.000000</speed>
</trkpt>
<trkpt lat="43.148655" lon="19.292168">
<ele>788.555176</ele>
<time>2012-05-01T17:00:19Z</time>
<desc>lat.=43.148655, lon.=19.292168, Alt.=788.555176m. Speed=0.000000m/h.</desc>
<speed>0.000000</speed>
</trkpt>
<trkpt lat="43.148655" lon="19.292168">
<ele>788.539551</ele>
<time>2012-05-01T17:00:24Z</time>
<desc>lat.=43.148655, lon.=19.292168, Alt.=788.539551m. Speed=0.000000m/h.</desc>
<speed>0.000000</speed>
</trkpt>
<trkpt lat="43.148655" lon="19.292170">
<ele>788.523926</ele>
<time>2012-05-01T17:00:29Z</time>
<desc>lat.=43.148655, lon.=19.292170, Alt.=788.523926m. Speed=0.144000m/h.</desc>
<speed>0.040000</speed>
</trkpt>
<trkpt lat="43.148655" lon="19.292170">
<ele>788.477051</ele>
<time>2012-05-01T17:00:34Z</time>
<desc>lat.=43.148655, lon.=19.292170, Alt.=788.477051m. Speed=0.108000m/h.</desc>
<speed>0.030000</speed>
</trkpt>
<trkpt lat="43.148659" lon="19.292154">
<ele>787.945801</ele>
<time>2012-05-01T17:00:39Z</time>
<desc>lat.=43.148659, lon.=19.292154, Alt.=787.945801m. Speed=5.688000m/h.</desc>
<speed>1.580000</speed>
</trkpt>
<trkpt lat="43.148739" lon="19.292080">
<ele>787.820801</ele>
<time>2012-05-01T17:00:44Z</time>
<desc>lat.=43.148739, lon.=19.292080, Alt.=787.820801m. Speed=10.476000m/h.</desc>
<speed>2.910000</speed>
</trkpt>
<trkpt lat="43.148823" lon="19.292002">
<ele>791.430176</ele>
<time>2012-05-01T17:00:49Z</time>
<desc>lat.=43.148823, lon.=19.292002, Alt.=791.430176m. Speed=9.216000m/h.</desc>
<speed>2.560000</speed>
</trkpt>
<trkpt lat="43.148937" lon="19.291952">
<ele>791.602051</ele>
<time>2012-05-01T17:00:54Z</time>
<desc>lat.=43.148937, lon.=19.291952, Alt.=791.602051m. Speed=6.552000m/h.</desc>
<speed>1.820000</speed>
</trkpt>
<trkpt lat="43.149017" lon="19.291918">
<ele>788.648926</ele>
<time>2012-05-01T17:00:59Z</time>
<desc>lat.=43.149017, lon.=19.291918, Alt.=788.648926m. Speed=3.528000m/h.</desc>
<speed>0.980000</speed>
</trkpt>
<trkpt lat="43.149071" lon="19.291903">
<ele>787.461426</ele>
<time>2012-05-01T17:01:04Z</time>
<desc>lat.=43.149071, lon.=19.291903, Alt.=787.461426m. Speed=3.708000m/h.</desc>
<speed>1.030000</speed>
</trkpt>
<trkpt lat="43.149101" lon="19.291851">
<ele>787.477051</ele>
<time>2012-05-01T17:01:09Z</time>
<desc>lat.=43.149101, lon.=19.291851, Alt.=787.477051m. Speed=2.412000m/h.</desc>
<speed>0.670000</speed>
</trkpt>
<trkpt lat="43.149033" lon="19.291912">
<ele>788.117676</ele>
<time>2012-05-01T17:01:14Z</time>
<desc>lat.=43.149033, lon.=19.291912, Alt.=788.117676m. Speed=10.008000m/h.</desc>
<speed>2.780000</speed>
</trkpt>
<trkpt lat="43.148937" lon="19.291983">
<ele>788.117676</ele>
<time>2012-05-01T17:01:19Z</time>
<desc>lat.=43.148937, lon.=19.291983, Alt.=788.117676m. Speed=10.908000m/h.</desc>
<speed>3.030000</speed>
</trkpt>
<trkpt lat="43.148777" lon="19.292057">
<ele>787.461426</ele>
<time>2012-05-01T17:01:24Z</time>
<desc>lat.=43.148777, lon.=19.292057, Alt.=787.461426m. Speed=16.812000m/h.</desc>
<speed>4.670000</speed>
</trkpt>
<trkpt lat="43.148708" lon="19.292130">
<ele>786.836426</ele>
<time>2012-05-01T17:01:29Z</time>
<desc>lat.=43.148708, lon.=19.292130, Alt.=786.836426m. Speed=4.176000m/h.</desc>
<speed>1.160000</speed>
</trkpt>
<trkpt lat="43.148670" lon="19.292191">
<ele>786.555176</ele>
<time>2012-05-01T17:01:34Z</time>
<desc>lat.=43.148670, lon.=19.292191, Alt.=786.555176m. Speed=4.536000m/h.</desc>
<speed>1.260000</speed>
</trkpt>
<trkpt lat="43.148647" lon="19.292374">
<ele>787.258301</ele>
<time>2012-05-01T17:01:39Z</time>
<desc>lat.=43.148647, lon.=19.292374, Alt.=787.258301m. Speed=17.856001m/h.</desc>
<speed>4.960000</speed>
</trkpt>
<trkpt lat="43.148769" lon="19.292744">
<ele>785.820801</ele>
<time>2012-05-01T17:01:44Z</time>
<desc>lat.=43.148769, lon.=19.292744, Alt.=785.820801m. Speed=25.344000m/h.</desc>
<speed>7.040000</speed>
</trkpt>
<trkpt lat="43.148918" lon="19.293133">
<ele>784.711426</ele>
<time>2012-05-01T17:01:49Z</time>
<desc>lat.=43.148918, lon.=19.293133, Alt.=784.711426m. Speed=25.920000m/h.</desc>
<speed>7.200000</speed>
</trkpt>
<trkpt lat="43.149082" lon="19.293516">
<ele>783.477051</ele>
<time>2012-05-01T17:01:54Z</time>
<desc>lat.=43.149082, lon.=19.293516, Alt.=783.477051m. Speed=25.667999m/h.</desc>
<speed>7.130000</speed>
</trkpt>
<trkpt lat="43.149273" lon="19.293869">
<ele>782.414551</ele>
<time>2012-05-01T17:01:59Z</time>
<desc>lat.=43.149273, lon.=19.293869, Alt.=782.414551m. Speed=25.416000m/h.</desc>
<speed>7.060000</speed>
</trkpt>
<trkpt lat="43.149464" lon="19.294188">
<ele>781.414551</ele>
<time>2012-05-01T17:02:04Z</time>
<desc>lat.=43.149464, lon.=19.294188, Alt.=781.414551m. Speed=21.600000m/h.</desc>
<speed>6.000000</speed>
</trkpt>
<trkpt lat="43.149639" lon="19.294416">
<ele>780.539551</ele>
<time>2012-05-01T17:02:09Z</time>
<desc>lat.=43.149639, lon.=19.294416, Alt.=780.539551m. Speed=19.440001m/h.</desc>
<speed>5.400000</speed>
</trkpt>
<trkpt lat="43.149784" lon="19.294619">
<ele>780.008301</ele>
<time>2012-05-01T17:02:14Z</time>
<desc>lat.=43.149784, lon.=19.294619, Alt.=780.008301m. Speed=8.856000m/h.</desc>
<speed>2.460000</speed>
</trkpt>
<trkpt lat="43.149792" lon="19.294636">
<ele>779.508301</ele>
<time>2012-05-01T17:02:19Z</time>
<desc>lat.=43.149792, lon.=19.294636, Alt.=779.508301m. Speed=0.036000m/h.</desc>
<speed>0.010000</speed>
</trkpt>
<trkpt lat="43.149799" lon="19.294641">
<ele>779.477051</ele>
<time>2012-05-01T17:02:24Z</time>
<desc>lat.=43.149799, lon.=19.294641, Alt.=779.477051m. Speed=0.432000m/h.</desc>
<speed>0.120000</speed>
</trkpt>
<trkpt lat="43.149796" lon="19.294641">
<ele>779.445801</ele>
<time>2012-05-01T17:02:29Z</time>
<desc>lat.=43.149796, lon.=19.294641, Alt.=779.445801m. Speed=0.648000m/h.</desc>
<speed>0.180000</speed>
</trkpt>
<trkpt lat="43.149792" lon="19.294640">
<ele>779.570801</ele>
<time>2012-05-01T17:02:34Z</time>
<desc>lat.=43.149792, lon.=19.294640, Alt.=779.570801m. Speed=0.036000m/h.</desc>
<speed>0.010000</speed>
</trkpt>
<trkpt lat="43.149792" lon="19.294638">
<ele>779.570801</ele>
<time>2012-05-01T17:02:39Z</time>
<desc>lat.=43.149792, lon.=19.294638, Alt.=779.570801m. Speed=0.000000m/h.</desc>
<speed>0.000000</speed>
</trkpt>
<trkpt lat="43.149792" lon="19.294638">
<ele>779.570801</ele>
<time>2012-05-01T17:02:44Z</time>
<desc>lat.=43.149792, lon.=19.294638, Alt.=779.570801m. Speed=0.072000m/h.</desc>
<speed>0.020000</speed>
</trkpt>
<trkpt lat="43.149792" lon="19.294638">
<ele>779.570801</ele>
<time>2012-05-01T17:02:49Z</time>
<desc>lat.=43.149792, lon.=19.294638, Alt.=779.570801m. Speed=0.000000m/h.</desc>
<speed>0.000000</speed>
</trkpt>
<trkpt lat="43.149792" lon="19.294638">
<ele>779.570801</ele>
<time>2012-05-01T17:02:54Z</time>
<desc>lat.=43.149792, lon.=19.294638, Alt.=779.570801m. Speed=0.036000m/h.</desc>
<speed>0.010000</speed>
</trkpt>
<trkpt lat="43.149792" lon="19.294638">
<ele>779.586426</ele>
<time>2012-05-01T17:02:59Z</time>
<desc>lat.=43.149792, lon.=19.294638, Alt.=779.586426m. Speed=0.180000m/h.</desc>
<speed>0.050000</speed>
</trkpt>
<trkpt lat="43.149792" lon="19.294638">
<ele>779.586426</ele>
<time>2012-05-01T17:03:04Z</time>
<desc>lat.=43.149792, lon.=19.294638, Alt.=779.586426m. Speed=0.036000m/h.</desc>
<speed>0.010000</speed>
</trkpt>
<trkpt lat="43.149792" lon="19.294638">
<ele>779.617676</ele>
<time>2012-05-01T17:03:09Z</time>
<desc>lat.=43.149792, lon.=19.294638, Alt.=779.617676m. Speed=0.036000m/h.</desc>
<speed>0.010000</speed>
</trkpt>
<trkpt lat="43.149792" lon="19.294638">
<ele>779.617676</ele>
<time>2012-05-01T17:03:14Z</time>
<desc>lat.=43.149792, lon.=19.294638, Alt.=779.617676m. Speed=0.000000m/h.</desc>
<speed>0.000000</speed>
</trkpt>
<trkpt lat="43.149792" lon="19.294638">
<ele>779.617676</ele>
<time>2012-05-01T17:03:19Z</time>
<desc>lat.=43.149792, lon.=19.294638, Alt.=779.617676m. Speed=0.000000m/h.</desc>
<speed>0.000000</speed>
</trkpt>
<trkpt lat="43.149792" lon="19.294638">
<ele>779.633301</ele>
<time>2012-05-01T17:03:24Z</time>
<desc>lat.=43.149792, lon.=19.294638, Alt.=779.633301m. Speed=0.000000m/h.</desc>
<speed>0.000000</speed>
</trkpt>
<trkpt lat="43.149792" lon="19.294638">
<ele>779.633301</ele>
<time>2012-05-01T17:03:29Z</time>
<desc>lat.=43.149792, lon.=19.294638, Alt.=779.633301m. Speed=0.000000m/h.</desc>
<speed>0.000000</speed>
</trkpt>
<trkpt lat="43.149792" lon="19.294638">
<ele>779.648926</ele>
<time>2012-05-01T17:03:34Z</time>
<desc>lat.=43.149792, lon.=19.294638, Alt.=779.648926m. Speed=0.000000m/h.</desc>
<speed>0.000000</speed>
</trkpt>
<trkpt lat="43.149792" lon="19.294638">
<ele>779.648926</ele>
<time>2012-05-01T17:03:39Z</time>
<desc>lat.=43.149792, lon.=19.294638, Alt.=779.648926m. Speed=0.000000m/h.</desc>
<speed>0.000000</speed>
</trkpt>
<trkpt lat="43.149792" lon="19.294638">
<ele>779.648926</ele>
<time>2012-05-01T17:03:44Z</time>
<desc>lat.=43.149792, lon.=19.294638, Alt.=779.648926m. Speed=0.000000m/h.</desc>
<speed>0.000000</speed>
</trkpt>
<trkpt lat="43.149792" lon="19.294638">
<ele>779.648926</ele>
<time>2012-05-01T17:03:49Z</time>
<desc>lat.=43.149792, lon.=19.294638, Alt.=779.648926m. Speed=0.000000m/h.</desc>
<speed>0.000000</speed>
</trkpt>
<trkpt lat="43.149792" lon="19.294638">
<ele>779.648926</ele>
<time>2012-05-01T17:03:54Z</time>
<desc>lat.=43.149792, lon.=19.294638, Alt.=779.648926m. Speed=0.000000m/h.</desc>
<speed>0.000000</speed>
</trkpt>
<trkpt lat="43.149792" lon="19.294638">
<ele>779.664551</ele>
<time>2012-05-01T17:03:59Z</time>
<desc>lat.=43.149792, lon.=19.294638, Alt.=779.664551m. Speed=0.216000m/h.</desc>
<speed>0.060000</speed>
</trkpt>
<trkpt lat="43.149792" lon="19.294638">
<ele>779.680176</ele>
<time>2012-05-01T17:04:04Z</time>
<desc>lat.=43.149792, lon.=19.294638, Alt.=779.680176m. Speed=0.000000m/h.</desc>
<speed>0.000000</speed>
</trkpt>
<trkpt lat="43.149792" lon="19.294638">
<ele>779.695801</ele>
<time>2012-05-01T17:04:09Z</time>
<desc>lat.=43.149792, lon.=19.294638, Alt.=779.695801m. Speed=0.000000m/h.</desc>
<speed>0.000000</speed>
</trkpt>
<trkpt lat="43.149792" lon="19.294638">
<ele>779.695801</ele>
<time>2012-05-01T17:04:14Z</time>
<desc>lat.=43.149792, lon.=19.294638, Alt.=779.695801m. Speed=0.000000m/h.</desc>
<speed>0.000000</speed>
</trkpt>
<trkpt lat="43.149792" lon="19.294638">
<ele>779.695801</ele>
<time>2012-05-01T17:04:19Z</time>
<desc>lat.=43.149792, lon.=19.294638, Alt.=779.695801m. Speed=0.036000m/h.</desc>
<speed>0.010000</speed>
</trkpt>
<trkpt lat="43.149792" lon="19.294638">
<ele>779.695801</ele>
<time>2012-05-01T17:04:24Z</time>
<desc>lat.=43.149792, lon.=19.294638, Alt.=779.695801m. Speed=0.036000m/h.</desc>
<speed>0.010000</speed>
</trkpt>
<trkpt lat="43.149792" lon="19.294638">
<ele>779.711426</ele>
<time>2012-05-01T17:04:29Z</time>
<desc>lat.=43.149792, lon.=19.294638, Alt.=779.711426m. Speed=0.000000m/h.</desc>
<speed>0.000000</speed>
</trkpt>
<trkpt lat="43.149792" lon="19.294638">
<ele>779.711426</ele>
<time>2012-05-01T17:04:34Z</time>
<desc>lat.=43.149792, lon.=19.294638, Alt.=779.711426m. Speed=0.000000m/h.</desc>
<speed>0.000000</speed>
</trkpt>
<trkpt lat="43.149792" lon="19.294638">
<ele>779.711426</ele>
<time>2012-05-01T17:04:39Z</time>
<desc>lat.=43.149792, lon.=19.294638, Alt.=779.711426m. Speed=0.000000m/h.</desc>
<speed>0.000000</speed>
</trkpt>
<trkpt lat="43.149792" lon="19.294638">
<ele>779.711426</ele>
<time>2012-05-01T17:04:44Z</time>
<desc>lat.=43.149792, lon.=19.294638, Alt.=779.711426m. Speed=0.072000m/h.</desc>
<speed>0.020000</speed>
</trkpt>
<trkpt lat="43.149792" lon="19.294638">
<ele>779.711426</ele>
<time>2012-05-01T17:04:49Z</time>
<desc>lat.=43.149792, lon.=19.294638, Alt.=779.711426m. Speed=0.036000m/h.</desc>
<speed>0.010000</speed>
</trkpt>
<trkpt lat="43.149792" lon="19.294638">
<ele>779.711426</ele>
<time>2012-05-01T17:04:54Z</time>
<desc>lat.=43.149792, lon.=19.294638, Alt.=779.711426m. Speed=0.252000m/h.</desc>
<speed>0.070000</speed>
</trkpt>
<trkpt lat="43.149822" lon="19.294668">
<ele>779.898926</ele>
<time>2012-05-01T17:04:59Z</time>
<desc>lat.=43.149822, lon.=19.294668, Alt.=779.898926m. Speed=5.220000m/h.</desc>
<speed>1.450000</speed>
</trkpt>
<trkpt lat="43.149837" lon="19.294693">
<ele>779.023926</ele>
<time>2012-05-01T17:05:04Z</time>
<desc>lat.=43.149837, lon.=19.294693, Alt.=779.023926m. Speed=0.108000m/h.</desc>
<speed>0.030000</speed>
</trkpt>
<trkpt lat="43.149837" lon="19.294697">
<ele>778.383301</ele>
<time>2012-05-01T17:05:09Z</time>
<desc>lat.=43.149837, lon.=19.294697, Alt.=778.383301m. Speed=0.144000m/h.</desc>
<speed>0.040000</speed>
</trkpt>
<trkpt lat="43.149837" lon="19.294699">
<ele>778.023926</ele>
<time>2012-05-01T17:05:14Z</time>
<desc>lat.=43.149837, lon.=19.294699, Alt.=778.023926m. Speed=0.144000m/h.</desc>
<speed>0.040000</speed>
</trkpt>
<trkpt lat="43.149837" lon="19.294703">
<ele>777.711426</ele>
<time>2012-05-01T17:05:19Z</time>
<desc>lat.=43.149837, lon.=19.294703, Alt.=777.711426m. Speed=0.360000m/h.</desc>
<speed>0.100000</speed>
</trkpt>
<trkpt lat="43.149837" lon="19.294704">
<ele>777.445801</ele>
<time>2012-05-01T17:05:24Z</time>
<desc>lat.=43.149837, lon.=19.294704, Alt.=777.445801m. Speed=0.036000m/h.</desc>
<speed>0.010000</speed>
</trkpt>
<trkpt lat="43.149837" lon="19.294704">
<ele>777.414551</ele>
<time>2012-05-01T17:05:29Z</time>
<desc>lat.=43.149837, lon.=19.294704, Alt.=777.414551m. Speed=0.000000m/h.</desc>
<speed>0.000000</speed>
</trkpt>
<trkpt lat="43.149837" lon="19.294704">
<ele>777.430176</ele>
<time>2012-05-01T17:05:34Z</time>
<desc>lat.=43.149837, lon.=19.294704, Alt.=777.430176m. Speed=0.000000m/h.</desc>
<speed>0.000000</speed>
</trkpt>
<trkpt lat="43.149837" lon="19.294704">
<ele>777.430176</ele>
<time>2012-05-01T17:05:39Z</time>
<desc>lat.=43.149837, lon.=19.294704, Alt.=777.430176m. Speed=0.000000m/h.</desc>
<speed>0.000000</speed>
</trkpt>
<trkpt lat="43.149837" lon="19.294704">
<ele>777.445801</ele>
<time>2012-05-01T17:05:44Z</time>
<desc>lat.=43.149837, lon.=19.294704, Alt.=777.445801m. Speed=0.036000m/h.</desc>
<speed>0.010000</speed>
</trkpt>
<trkpt lat="43.149837" lon="19.294704">
<ele>777.445801</ele>
<time>2012-05-01T17:05:49Z</time>
<desc>lat.=43.149837, lon.=19.294704, Alt.=777.445801m. Speed=0.144000m/h.</desc>
<speed>0.040000</speed>
</trkpt>
<trkpt lat="43.149837" lon="19.294704">
<ele>777.445801</ele>
<time>2012-05-01T17:05:54Z</time>
<desc>lat.=43.149837, lon.=19.294704, Alt.=777.445801m. Speed=0.000000m/h.</desc>
<speed>0.000000</speed>
</trkpt>
<trkpt lat="43.149837" lon="19.294704">
<ele>777.430176</ele>
<time>2012-05-01T17:05:59Z</time>
<desc>lat.=43.149837, lon.=19.294704, Alt.=777.430176m. Speed=0.108000m/h.</desc>
<speed>0.030000</speed>
</trkpt>
<trkpt lat="43.149837" lon="19.294704">
<ele>777.414551</ele>
<time>2012-05-01T17:06:04Z</time>
<desc>lat.=43.149837, lon.=19.294704, Alt.=777.414551m. Speed=0.000000m/h.</desc>
<speed>0.000000</speed>
</trkpt>
<trkpt lat="43.149837" lon="19.294704">
<ele>777.414551</ele>
<time>2012-05-01T17:06:09Z</time>
<desc>lat.=43.149837, lon.=19.294704, Alt.=777.414551m. Speed=0.216000m/h.</desc>
<speed>0.060000</speed>
</trkpt>
<trkpt lat="43.149837" lon="19.294704">
<ele>777.414551</ele>
<time>2012-05-01T17:06:14Z</time>
<desc>lat.=43.149837, lon.=19.294704, Alt.=777.414551m. Speed=0.072000m/h.</desc>
<speed>0.020000</speed>
</trkpt>
<trkpt lat="43.149837" lon="19.294703">
<ele>777.367676</ele>
<time>2012-05-01T17:06:19Z</time>
<desc>lat.=43.149837, lon.=19.294703, Alt.=777.367676m. Speed=0.072000m/h.</desc>
<speed>0.020000</speed>
</trkpt>
<trkpt lat="43.149837" lon="19.294703">
<ele>777.367676</ele>
<time>2012-05-01T17:06:24Z</time>
<desc>lat.=43.149837, lon.=19.294703, Alt.=777.367676m. Speed=0.000000m/h.</desc>
<speed>0.000000</speed>
</trkpt>
<trkpt lat="43.149837" lon="19.294703">
<ele>777.367676</ele>
<time>2012-05-01T17:06:29Z</time>
<desc>lat.=43.149837, lon.=19.294703, Alt.=777.367676m. Speed=0.072000m/h.</desc>
<speed>0.020000</speed>
</trkpt>
<trkpt lat="43.149837" lon="19.294703">
<ele>777.367676</ele>
<time>2012-05-01T17:06:34Z</time>
<desc>lat.=43.149837, lon.=19.294703, Alt.=777.367676m. Speed=0.036000m/h.</desc>
<speed>0.010000</speed>
</trkpt>
<trkpt lat="43.149837" lon="19.294703">
<ele>777.367676</ele>
<time>2012-05-01T17:06:39Z</time>
<desc>lat.=43.149837, lon.=19.294703, Alt.=777.367676m. Speed=0.036000m/h.</desc>
<speed>0.010000</speed>
</trkpt>
<trkpt lat="43.149837" lon="19.294703">
<ele>777.367676</ele>
<time>2012-05-01T17:06:44Z</time>
<desc>lat.=43.149837, lon.=19.294703, Alt.=777.367676m. Speed=0.468000m/h.</desc>
<speed>0.130000</speed>
</trkpt>
<trkpt lat="43.149837" lon="19.294703">
<ele>777.336426</ele>
<time>2012-05-01T17:06:49Z</time>
<desc>lat.=43.149837, lon.=19.294703, Alt.=777.336426m. Speed=0.036000m/h.</desc>
<speed>0.010000</speed>
</trkpt>
<trkpt lat="43.149837" lon="19.294703">
<ele>777.336426</ele>
<time>2012-05-01T17:06:54Z</time>
<desc>lat.=43.149837, lon.=19.294703, Alt.=777.336426m. Speed=0.000000m/h.</desc>
<speed>0.000000</speed>
</trkpt>
<trkpt lat="43.149837" lon="19.294703">
<ele>777.336426</ele>
<time>2012-05-01T17:06:59Z</time>
<desc>lat.=43.149837, lon.=19.294703, Alt.=777.336426m. Speed=0.036000m/h.</desc>
<speed>0.010000</speed>
</trkpt>
<trkpt lat="43.149837" lon="19.294703">
<ele>777.336426</ele>
<time>2012-05-01T17:07:04Z</time>
<desc>lat.=43.149837, lon.=19.294703, Alt.=777.336426m. Speed=0.036000m/h.</desc>
<speed>0.010000</speed>
</trkpt>
<trkpt lat="43.149837" lon="19.294703">
<ele>777.336426</ele>
<time>2012-05-01T17:07:09Z</time>
<desc>lat.=43.149837, lon.=19.294703, Alt.=777.336426m. Speed=0.108000m/h.</desc>
<speed>0.030000</speed>
</trkpt>
<trkpt lat="43.149837" lon="19.294703">
<ele>777.336426</ele>
<time>2012-05-01T17:07:14Z</time>
<desc>lat.=43.149837, lon.=19.294703, Alt.=777.336426m. Speed=0.000000m/h.</desc>
<speed>0.000000</speed>
</trkpt>
<trkpt lat="43.149837" lon="19.294703">
<ele>777.320801</ele>
<time>2012-05-01T17:07:19Z</time>
<desc>lat.=43.149837, lon.=19.294703, Alt.=777.320801m. Speed=0.000000m/h.</desc>
<speed>0.000000</speed>
</trkpt>
<trkpt lat="43.149837" lon="19.294703">
<ele>777.320801</ele>
<time>2012-05-01T17:07:24Z</time>
<desc>lat.=43.149837, lon.=19.294703, Alt.=777.320801m. Speed=0.144000m/h.</desc>
<speed>0.040000</speed>
</trkpt>
<trkpt lat="43.149837" lon="19.294703">
<ele>777.305176</ele>
<time>2012-05-01T17:07:29Z</time>
<desc>lat.=43.149837, lon.=19.294703, Alt.=777.305176m. Speed=0.072000m/h.</desc>
<speed>0.020000</speed>
</trkpt>
<trkpt lat="43.149837" lon="19.294703">
<ele>777.305176</ele>
<time>2012-05-01T17:07:34Z</time>
<desc>lat.=43.149837, lon.=19.294703, Alt.=777.305176m. Speed=0.072000m/h.</desc>
<speed>0.020000</speed>
</trkpt>
<trkpt lat="43.149837" lon="19.294703">
<ele>777.305176</ele>
<time>2012-05-01T17:07:39Z</time>
<desc>lat.=43.149837, lon.=19.294703, Alt.=777.305176m. Speed=0.000000m/h.</desc>
<speed>0.000000</speed>
</trkpt>
<trkpt lat="43.149837" lon="19.294703">
<ele>777.305176</ele>
<time>2012-05-01T17:07:44Z</time>
<desc>lat.=43.149837, lon.=19.294703, Alt.=777.305176m. Speed=0.000000m/h.</desc>
<speed>0.000000</speed>
</trkpt>
<trkpt lat="43.149837" lon="19.294703">
<ele>777.305176</ele>
<time>2012-05-01T17:07:49Z</time>
<desc>lat.=43.149837, lon.=19.294703, Alt.=777.305176m. Speed=0.000000m/h.</desc>
<speed>0.000000</speed>
</trkpt>
<trkpt lat="43.149837" lon="19.294703">
<ele>777.289551</ele>
<time>2012-05-01T17:07:54Z</time>
<desc>lat.=43.149837, lon.=19.294703, Alt.=777.289551m. Speed=0.000000m/h.</desc>
<speed>0.000000</speed>
</trkpt>
<trkpt lat="43.149837" lon="19.294703">
<ele>777.273926</ele>
<time>2012-05-01T17:07:59Z</time>
<desc>lat.=43.149837, lon.=19.294703, Alt.=777.273926m. Speed=0.036000m/h.</desc>
<speed>0.010000</speed>
</trkpt>
<trkpt lat="43.149837" lon="19.294704">
<ele>777.227051</ele>
<time>2012-05-01T17:08:04Z</time>
<desc>lat.=43.149837, lon.=19.294704, Alt.=777.227051m. Speed=0.108000m/h.</desc>
<speed>0.030000</speed>
</trkpt>
<trkpt lat="43.149837" lon="19.294704">
<ele>777.211426</ele>
<time>2012-05-01T17:08:09Z</time>
<desc>lat.=43.149837, lon.=19.294704, Alt.=777.211426m. Speed=0.000000m/h.</desc>
<speed>0.000000</speed>
</trkpt>
<trkpt lat="43.149837" lon="19.294704">
<ele>777.211426</ele>
<time>2012-05-01T17:08:14Z</time>
<desc>lat.=43.149837, lon.=19.294704, Alt.=777.211426m. Speed=0.072000m/h.</desc>
<speed>0.020000</speed>
</trkpt>
<trkpt lat="43.149837" lon="19.294704">
<ele>777.211426</ele>
<time>2012-05-01T17:08:19Z</time>
<desc>lat.=43.149837, lon.=19.294704, Alt.=777.211426m. Speed=0.036000m/h.</desc>
<speed>0.010000</speed>
</trkpt>
<trkpt lat="43.149837" lon="19.294704">
<ele>777.211426</ele>
<time>2012-05-01T17:08:24Z</time>
<desc>lat.=43.149837, lon.=19.294704, Alt.=777.211426m. Speed=0.036000m/h.</desc>
<speed>0.010000</speed>
</trkpt>
<trkpt lat="43.149837" lon="19.294704">
<ele>777.211426</ele>
<time>2012-05-01T17:08:29Z</time>
<desc>lat.=43.149837, lon.=19.294704, Alt.=777.211426m. Speed=0.000000m/h.</desc>
<speed>0.000000</speed>
</trkpt>
<trkpt lat="43.149837" lon="19.294704">
<ele>777.211426</ele>
<time>2012-05-01T17:08:34Z</time>
<desc>lat.=43.149837, lon.=19.294704, Alt.=777.211426m. Speed=0.000000m/h.</desc>
<speed>0.000000</speed>
</trkpt>
<trkpt lat="43.149837" lon="19.294704">
<ele>777.211426</ele>
<time>2012-05-01T17:08:39Z</time>
<desc>lat.=43.149837, lon.=19.294704, Alt.=777.211426m. Speed=0.000000m/h.</desc>
<speed>0.000000</speed>
</trkpt>
<trkpt lat="43.149837" lon="19.294704">
<ele>777.211426</ele>
<time>2012-05-01T17:08:44Z</time>
<desc>lat.=43.149837, lon.=19.294704, Alt.=777.211426m. Speed=0.072000m/h.</desc>
<speed>0.020000</speed>
</trkpt>
<trkpt lat="43.149837" lon="19.294704">
<ele>777.195801</ele>
<time>2012-05-01T17:08:49Z</time>
<desc>lat.=43.149837, lon.=19.294704, Alt.=777.195801m. Speed=0.000000m/h.</desc>
<speed>0.000000</speed>
</trkpt>
<trkpt lat="43.149837" lon="19.294704">
<ele>777.195801</ele>
<time>2012-05-01T17:08:54Z</time>
<desc>lat.=43.149837, lon.=19.294704, Alt.=777.195801m. Speed=0.000000m/h.</desc>
<speed>0.000000</speed>
</trkpt>
<trkpt lat="43.149837" lon="19.294704">
<ele>777.195801</ele>
<time>2012-05-01T17:08:59Z</time>
<desc>lat.=43.149837, lon.=19.294704, Alt.=777.195801m. Speed=0.000000m/h.</desc>
<speed>0.000000</speed>
</trkpt>
<trkpt lat="43.149837" lon="19.294704">
<ele>777.180176</ele>
<time>2012-05-01T17:09:04Z</time>
<desc>lat.=43.149837, lon.=19.294704, Alt.=777.180176m. Speed=0.144000m/h.</desc>
<speed>0.040000</speed>
</trkpt>
<trkpt lat="43.149837" lon="19.294704">
<ele>777.180176</ele>
<time>2012-05-01T17:09:09Z</time>
<desc>lat.=43.149837, lon.=19.294704, Alt.=777.180176m. Speed=0.036000m/h.</desc>
<speed>0.010000</speed>
</trkpt>
<trkpt lat="43.149837" lon="19.294704">
<ele>777.180176</ele>
<time>2012-05-01T17:09:14Z</time>
<desc>lat.=43.149837, lon.=19.294704, Alt.=777.180176m. Speed=0.000000m/h.</desc>
<speed>0.000000</speed>
</trkpt>
<trkpt lat="43.149837" lon="19.294704">
<ele>777.180176</ele>
<time>2012-05-01T17:09:19Z</time>
<desc>lat.=43.149837, lon.=19.294704, Alt.=777.180176m. Speed=0.000000m/h.</desc>
<speed>0.000000</speed>
</trkpt>
<trkpt lat="43.149837" lon="19.294704">
<ele>777.180176</ele>
<time>2012-05-01T17:09:24Z</time>
<desc>lat.=43.149837, lon.=19.294704, Alt.=777.180176m. Speed=0.000000m/h.</desc>
<speed>0.000000</speed>
</trkpt>
<trkpt lat="43.149837" lon="19.294704">
<ele>777.180176</ele>
<time>2012-05-01T17:09:29Z</time>
<desc>lat.=43.149837, lon.=19.294704, Alt.=777.180176m. Speed=0.036000m/h.</desc>
<speed>0.010000</speed>
</trkpt>
<trkpt lat="43.149837" lon="19.294704">
<ele>777.164551</ele>
<time>2012-05-01T17:09:34Z</time>
<desc>lat.=43.149837, lon.=19.294704, Alt.=777.164551m. Speed=0.036000m/h.</desc>
<speed>0.010000</speed>
</trkpt>
<trkpt lat="43.149837" lon="19.294704">
<ele>777.164551</ele>
<time>2012-05-01T17:09:39Z</time>
<desc>lat.=43.149837, lon.=19.294704, Alt.=777.164551m. Speed=0.000000m/h.</desc>
<speed>0.000000</speed>
</trkpt>
<trkpt lat="43.149837" lon="19.294704">
<ele>777.148926</ele>
<time>2012-05-01T17:09:44Z</time>
<desc>lat.=43.149837, lon.=19.294704, Alt.=777.148926m. Speed=0.036000m/h.</desc>
<speed>0.010000</speed>
</trkpt>
<trkpt lat="43.149837" lon="19.294704">
<ele>777.148926</ele>
<time>2012-05-01T17:09:49Z</time>
<desc>lat.=43.149837, lon.=19.294704, Alt.=777.148926m. Speed=0.036000m/h.</desc>
<speed>0.010000</speed>
</trkpt>
<trkpt lat="43.149837" lon="19.294704">
<ele>777.133301</ele>
<time>2012-05-01T17:09:54Z</time>
<desc>lat.=43.149837, lon.=19.294704, Alt.=777.133301m. Speed=0.000000m/h.</desc>
<speed>0.000000</speed>
</trkpt>
<trkpt lat="43.149837" lon="19.294704">
<ele>777.133301</ele>
<time>2012-05-01T17:09:59Z</time>
<desc>lat.=43.149837, lon.=19.294704, Alt.=777.133301m. Speed=0.000000m/h.</desc>
<speed>0.000000</speed>
</trkpt>
<trkpt lat="43.149837" lon="19.294704">
<ele>777.133301</ele>
<time>2012-05-01T17:10:04Z</time>
<desc>lat.=43.149837, lon.=19.294704, Alt.=777.133301m. Speed=0.000000m/h.</desc>
<speed>0.000000</speed>
</trkpt>
<trkpt lat="43.149837" lon="19.294704">
<ele>777.133301</ele>
<time>2012-05-01T17:10:09Z</time>
<desc>lat.=43.149837, lon.=19.294704, Alt.=777.133301m. Speed=0.000000m/h.</desc>
<speed>0.000000</speed>
</trkpt>
<trkpt lat="43.149837" lon="19.294704">
<ele>777.117676</ele>
<time>2012-05-01T17:10:14Z</time>
<desc>lat.=43.149837, lon.=19.294704, Alt.=777.117676m. Speed=0.000000m/h.</desc>
<speed>0.000000</speed>
</trkpt>
<trkpt lat="43.149837" lon="19.294704">
<ele>777.117676</ele>
<time>2012-05-01T17:10:19Z</time>
<desc>lat.=43.149837, lon.=19.294704, Alt.=777.117676m. Speed=0.000000m/h.</desc>
<speed>0.000000</speed>
</trkpt>
<trkpt lat="43.149837" lon="19.294704">
<ele>777.102051</ele>
<time>2012-05-01T17:10:24Z</time>
<desc>lat.=43.149837, lon.=19.294704, Alt.=777.102051m. Speed=0.216000m/h.</desc>
<speed>0.060000</speed>
</trkpt>
<trkpt lat="43.149837" lon="19.294704">
<ele>777.102051</ele>
<time>2012-05-01T17:10:29Z</time>
<desc>lat.=43.149837, lon.=19.294704, Alt.=777.102051m. Speed=0.000000m/h.</desc>
<speed>0.000000</speed>
</trkpt>
<trkpt lat="43.149837" lon="19.294704">
<ele>777.086426</ele>
<time>2012-05-01T17:10:34Z</time>
<desc>lat.=43.149837, lon.=19.294704, Alt.=777.086426m. Speed=0.000000m/h.</desc>
<speed>0.000000</speed>
</trkpt>
<trkpt lat="43.149837" lon="19.294704">
<ele>777.086426</ele>
<time>2012-05-01T17:10:39Z</time>
<desc>lat.=43.149837, lon.=19.294704, Alt.=777.086426m. Speed=0.036000m/h.</desc>
<speed>0.010000</speed>
</trkpt>
<trkpt lat="43.149849" lon="19.294710">
<ele>777.008301</ele>
<time>2012-05-01T17:10:44Z</time>
<desc>lat.=43.149849, lon.=19.294710, Alt.=777.008301m. Speed=5.220000m/h.</desc>
<speed>1.450000</speed>
</trkpt>
<trkpt lat="43.149879" lon="19.294691">
<ele>776.211426</ele>
<time>2012-05-01T17:10:49Z</time>
<desc>lat.=43.149879, lon.=19.294691, Alt.=776.211426m. Speed=0.684000m/h.</desc>
<speed>0.190000</speed>
</trkpt>
<trkpt lat="43.149879" lon="19.294693">
<ele>775.773926</ele>
<time>2012-05-01T17:10:54Z</time>
<desc>lat.=43.149879, lon.=19.294693, Alt.=775.773926m. Speed=0.288000m/h.</desc>
<speed>0.080000</speed>
</trkpt>
<trkpt lat="43.149879" lon="19.294693">
<ele>775.805176</ele>
<time>2012-05-01T17:10:59Z</time>
<desc>lat.=43.149879, lon.=19.294693, Alt.=775.805176m. Speed=0.072000m/h.</desc>
<speed>0.020000</speed>
</trkpt>
<trkpt lat="43.149879" lon="19.294695">
<ele>775.836426</ele>
<time>2012-05-01T17:11:04Z</time>
<desc>lat.=43.149879, lon.=19.294695, Alt.=775.836426m. Speed=0.072000m/h.</desc>
<speed>0.020000</speed>
</trkpt>
<trkpt lat="43.149879" lon="19.294695">
<ele>775.836426</ele>
<time>2012-05-01T17:11:09Z</time>
<desc>lat.=43.149879, lon.=19.294695, Alt.=775.836426m. Speed=0.000000m/h.</desc>
<speed>0.000000</speed>
</trkpt>
<trkpt lat="43.149879" lon="19.294695">
<ele>775.820801</ele>
<time>2012-05-01T17:11:14Z</time>
<desc>lat.=43.149879, lon.=19.294695, Alt.=775.820801m. Speed=0.000000m/h.</desc>
<speed>0.000000</speed>
</trkpt>
<trkpt lat="43.149879" lon="19.294695">
<ele>775.805176</ele>
<time>2012-05-01T17:11:19Z</time>
<desc>lat.=43.149879, lon.=19.294695, Alt.=775.805176m. Speed=0.000000m/h.</desc>
<speed>0.000000</speed>
</trkpt>
<trkpt lat="43.149879" lon="19.294695">
<ele>775.789551</ele>
<time>2012-05-01T17:11:24Z</time>
<desc>lat.=43.149879, lon.=19.294695, Alt.=775.789551m. Speed=0.000000m/h.</desc>
<speed>0.000000</speed>
</trkpt>
<trkpt lat="43.149879" lon="19.294695">
<ele>775.789551</ele>
<time>2012-05-01T17:11:29Z</time>
<desc>lat.=43.149879, lon.=19.294695, Alt.=775.789551m. Speed=0.036000m/h.</desc>
<speed>0.010000</speed>
</trkpt>
<trkpt lat="43.149879" lon="19.294695">
<ele>775.789551</ele>
<time>2012-05-01T17:11:34Z</time>
<desc>lat.=43.149879, lon.=19.294695, Alt.=775.789551m. Speed=0.432000m/h.</desc>
<speed>0.120000</speed>
</trkpt>
<trkpt lat="43.149921" lon="19.294752">
<ele>775.773926</ele>
<time>2012-05-01T17:11:39Z</time>
<desc>lat.=43.149921, lon.=19.294752, Alt.=775.773926m. Speed=7.632000m/h.</desc>
<speed>2.120000</speed>
</trkpt>
<trkpt lat="43.150009" lon="19.294895">
<ele>775.742676</ele>
<time>2012-05-01T17:11:44Z</time>
<desc>lat.=43.150009, lon.=19.294895, Alt.=775.742676m. Speed=9.756000m/h.</desc>
<speed>2.710000</speed>
</trkpt>
<trkpt lat="43.150131" lon="19.295048">
<ele>775.430176</ele>
<time>2012-05-01T17:11:49Z</time>
<desc>lat.=43.150131, lon.=19.295048, Alt.=775.430176m. Speed=11.160000m/h.</desc>
<speed>3.100000</speed>
</trkpt>
<trkpt lat="43.150242" lon="19.295160">
<ele>775.258301</ele>
<time>2012-05-01T17:11:54Z</time>
<desc>lat.=43.150242, lon.=19.295160, Alt.=775.258301m. Speed=10.836000m/h.</desc>
<speed>3.010000</speed>
</trkpt>
<trkpt lat="43.150368" lon="19.295319">
<ele>773.898926</ele>
<time>2012-05-01T17:11:59Z</time>
<desc>lat.=43.150368, lon.=19.295319, Alt.=773.898926m. Speed=14.256000m/h.</desc>
<speed>3.960000</speed>
</trkpt>
<trkpt lat="43.150509" lon="19.295486">
<ele>773.055176</ele>
<time>2012-05-01T17:12:04Z</time>
<desc>lat.=43.150509, lon.=19.295486, Alt.=773.055176m. Speed=15.552000m/h.</desc>
<speed>4.320000</speed>
</trkpt>
<trkpt lat="43.150673" lon="19.295677">
<ele>772.867676</ele>
<time>2012-05-01T17:12:09Z</time>
<desc>lat.=43.150673, lon.=19.295677, Alt.=772.867676m. Speed=16.524000m/h.</desc>
<speed>4.590000</speed>
</trkpt>
<trkpt lat="43.150791" lon="19.295803">
<ele>774.211426</ele>
<time>2012-05-01T17:12:14Z</time>
<desc>lat.=43.150791, lon.=19.295803, Alt.=774.211426m. Speed=10.116000m/h.</desc>
<speed>2.810000</speed>
</trkpt>
<trkpt lat="43.150879" lon="19.295883">
<ele>775.742676</ele>
<time>2012-05-01T17:12:19Z</time>
<desc>lat.=43.150879, lon.=19.295883, Alt.=775.742676m. Speed=6.408000m/h.</desc>
<speed>1.780000</speed>
</trkpt>
<trkpt lat="43.150948" lon="19.295927">
<ele>776.867676</ele>
<time>2012-05-01T17:12:24Z</time>
<desc>lat.=43.150948, lon.=19.295927, Alt.=776.867676m. Speed=6.300000m/h.</desc>
<speed>1.750000</speed>
</trkpt>
<trkpt lat="43.151012" lon="19.295967">
<ele>776.789551</ele>
<time>2012-05-01T17:12:29Z</time>
<desc>lat.=43.151012, lon.=19.295967, Alt.=776.789551m. Speed=6.372000m/h.</desc>
<speed>1.770000</speed>
</trkpt>
<trkpt lat="43.151115" lon="19.296009">
<ele>777.336426</ele>
<time>2012-05-01T17:12:34Z</time>
<desc>lat.=43.151115, lon.=19.296009, Alt.=777.336426m. Speed=9.900000m/h.</desc>
<speed>2.750000</speed>
</trkpt>
<trkpt lat="43.151192" lon="19.296053">
<ele>777.477051</ele>
<time>2012-05-01T17:12:39Z</time>
<desc>lat.=43.151192, lon.=19.296053, Alt.=777.477051m. Speed=6.732000m/h.</desc>
<speed>1.870000</speed>
</trkpt>
<trkpt lat="43.151287" lon="19.296076">
<ele>777.836426</ele>
<time>2012-05-01T17:12:44Z</time>
<desc>lat.=43.151287, lon.=19.296076, Alt.=777.836426m. Speed=8.820000m/h.</desc>
<speed>2.450000</speed>
</trkpt>
<trkpt lat="43.151398" lon="19.296095">
<ele>778.336426</ele>
<time>2012-05-01T17:12:49Z</time>
<desc>lat.=43.151398, lon.=19.296095, Alt.=778.336426m. Speed=9.108000m/h.</desc>
<speed>2.530000</speed>
</trkpt>
<trkpt lat="43.151501" lon="19.296101">
<ele>778.258301</ele>
<time>2012-05-01T17:12:54Z</time>
<desc>lat.=43.151501, lon.=19.296101, Alt.=778.258301m. Speed=8.028000m/h.</desc>
<speed>2.230000</speed>
</trkpt>
<trkpt lat="43.151581" lon="19.296101">
<ele>780.102051</ele>
<time>2012-05-01T17:12:59Z</time>
<desc>lat.=43.151581, lon.=19.296101, Alt.=780.102051m. Speed=4.032000m/h.</desc>
<speed>1.120000</speed>
</trkpt>
<trkpt lat="43.151642" lon="19.296099">
<ele>781.758301</ele>
<time>2012-05-01T17:13:04Z</time>
<desc>lat.=43.151642, lon.=19.296099, Alt.=781.758301m. Speed=7.488000m/h.</desc>
<speed>2.080000</speed>
</trkpt>
<trkpt lat="43.151737" lon="19.296101">
<ele>783.523926</ele>
<time>2012-05-01T17:13:09Z</time>
<desc>lat.=43.151737, lon.=19.296101, Alt.=783.523926m. Speed=7.632000m/h.</desc>
<speed>2.120000</speed>
</trkpt>
<trkpt lat="43.151859" lon="19.296127">
<ele>781.258301</ele>
<time>2012-05-01T17:13:14Z</time>
<desc>lat.=43.151859, lon.=19.296127, Alt.=781.258301m. Speed=8.244000m/h.</desc>
<speed>2.290000</speed>
</trkpt>
<trkpt lat="43.151962" lon="19.296127">
<ele>783.711426</ele>
<time>2012-05-01T17:13:19Z</time>
<desc>lat.=43.151962, lon.=19.296127, Alt.=783.711426m. Speed=8.964000m/h.</desc>
<speed>2.490000</speed>
</trkpt>
<trkpt lat="43.152069" lon="19.296137">
<ele>786.414551</ele>
<time>2012-05-01T17:13:24Z</time>
<desc>lat.=43.152069, lon.=19.296137, Alt.=786.414551m. Speed=9.144000m/h.</desc>
<speed>2.540000</speed>
</trkpt>
<trkpt lat="43.152157" lon="19.296135">
<ele>790.102051</ele>
<time>2012-05-01T17:13:29Z</time>
<desc>lat.=43.152157, lon.=19.296135, Alt.=790.102051m. Speed=4.572000m/h.</desc>
<speed>1.270000</speed>
</trkpt>
<trkpt lat="43.152229" lon="19.296148">
<ele>792.273926</ele>
<time>2012-05-01T17:13:34Z</time>
<desc>lat.=43.152229, lon.=19.296148, Alt.=792.273926m. Speed=7.884000m/h.</desc>
<speed>2.190000</speed>
</trkpt>
<trkpt lat="43.152325" lon="19.296167">
<ele>795.117676</ele>
<time>2012-05-01T17:13:39Z</time>
<desc>lat.=43.152325, lon.=19.296167, Alt.=795.117676m. Speed=5.256000m/h.</desc>
<speed>1.460000</speed>
</trkpt>
<trkpt lat="43.152435" lon="19.296221">
<ele>790.852051</ele>
<time>2012-05-01T17:13:44Z</time>
<desc>lat.=43.152435, lon.=19.296221, Alt.=790.852051m. Speed=8.496000m/h.</desc>
<speed>2.360000</speed>
</trkpt>
<trkpt lat="43.152534" lon="19.296246">
<ele>791.758301</ele>
<time>2012-05-01T17:13:49Z</time>
<desc>lat.=43.152534, lon.=19.296246, Alt.=791.758301m. Speed=7.632000m/h.</desc>
<speed>2.120000</speed>
</trkpt>
<trkpt lat="43.152618" lon="19.296249">
<ele>793.523926</ele>
<time>2012-05-01T17:13:54Z</time>
<desc>lat.=43.152618, lon.=19.296249, Alt.=793.523926m. Speed=6.984000m/h.</desc>
<speed>1.940000</speed>
</trkpt>
<trkpt lat="43.152687" lon="19.296246">
<ele>796.555176</ele>
<time>2012-05-01T17:13:59Z</time>
<desc>lat.=43.152687, lon.=19.296246, Alt.=796.555176m. Speed=5.868000m/h.</desc>
<speed>1.630000</speed>
</trkpt>
<trkpt lat="43.152756" lon="19.296217">
<ele>799.945801</ele>
<time>2012-05-01T17:14:04Z</time>
<desc>lat.=43.152756, lon.=19.296217, Alt.=799.945801m. Speed=5.076000m/h.</desc>
<speed>1.410000</speed>
</trkpt>
<trkpt lat="43.152805" lon="19.296188">
<ele>802.211426</ele>
<time>2012-05-01T17:14:09Z</time>
<desc>lat.=43.152805, lon.=19.296188, Alt.=802.211426m. Speed=6.264000m/h.</desc>
<speed>1.740000</speed>
</trkpt>
<trkpt lat="43.152897" lon="19.296160">
<ele>803.039551</ele>
<time>2012-05-01T17:14:14Z</time>
<desc>lat.=43.152897, lon.=19.296160, Alt.=803.039551m. Speed=7.668000m/h.</desc>
<speed>2.130000</speed>
</trkpt>
<trkpt lat="43.153011" lon="19.296143">
<ele>800.148926</ele>
<time>2012-05-01T17:14:19Z</time>
<desc>lat.=43.153011, lon.=19.296143, Alt.=800.148926m. Speed=7.560000m/h.</desc>
<speed>2.100000</speed>
</trkpt>
<trkpt lat="43.153114" lon="19.296125">
<ele>795.539551</ele>
<time>2012-05-01T17:14:24Z</time>
<desc>lat.=43.153114, lon.=19.296125, Alt.=795.539551m. Speed=6.336000m/h.</desc>
<speed>1.760000</speed>
</trkpt>
<trkpt lat="43.153191" lon="19.296074">
<ele>795.602051</ele>
<time>2012-05-01T17:14:29Z</time>
<desc>lat.=43.153191, lon.=19.296074, Alt.=795.602051m. Speed=6.804000m/h.</desc>
<speed>1.890000</speed>
</trkpt>
<trkpt lat="43.153267" lon="19.296013">
<ele>795.695801</ele>
<time>2012-05-01T17:14:34Z</time>
<desc>lat.=43.153267, lon.=19.296013, Alt.=795.695801m. Speed=6.768000m/h.</desc>
<speed>1.880000</speed>
</trkpt>
<trkpt lat="43.153347" lon="19.295956">
<ele>794.789551</ele>
<time>2012-05-01T17:14:39Z</time>
<desc>lat.=43.153347, lon.=19.295956, Alt.=794.789551m. Speed=7.740000m/h.</desc>
<speed>2.150000</speed>
</trkpt>
<trkpt lat="43.153427" lon="19.295887">
<ele>795.008301</ele>
<time>2012-05-01T17:14:44Z</time>
<desc>lat.=43.153427, lon.=19.295887, Alt.=795.008301m. Speed=6.372000m/h.</desc>
<speed>1.770000</speed>
</trkpt>
<trkpt lat="43.153503" lon="19.295822">
<ele>795.820801</ele>
<time>2012-05-01T17:14:49Z</time>
<desc>lat.=43.153503, lon.=19.295822, Alt.=795.820801m. Speed=7.884000m/h.</desc>
<speed>2.190000</speed>
</trkpt>
<trkpt lat="43.153584" lon="19.295748">
<ele>795.617676</ele>
<time>2012-05-01T17:14:54Z</time>
<desc>lat.=43.153584, lon.=19.295748, Alt.=795.617676m. Speed=7.344000m/h.</desc>
<speed>2.040000</speed>
</trkpt>
<trkpt lat="43.153667" lon="19.295683">
<ele>796.477051</ele>
<time>2012-05-01T17:14:59Z</time>
<desc>lat.=43.153667, lon.=19.295683, Alt.=796.477051m. Speed=7.488000m/h.</desc>
<speed>2.080000</speed>
</trkpt>
<trkpt lat="43.153744" lon="19.295622">
<ele>799.430176</ele>
<time>2012-05-01T17:15:04Z</time>
<desc>lat.=43.153744, lon.=19.295622, Alt.=799.430176m. Speed=7.380000m/h.</desc>
<speed>2.050000</speed>
</trkpt>
<trkpt lat="43.153839" lon="19.295582">
<ele>800.398926</ele>
<time>2012-05-01T17:15:09Z</time>
<desc>lat.=43.153839, lon.=19.295582, Alt.=800.398926m. Speed=7.704000m/h.</desc>
<speed>2.140000</speed>
</trkpt>
<trkpt lat="43.153931" lon="19.295547">
<ele>800.523926</ele>
<time>2012-05-01T17:15:14Z</time>
<desc>lat.=43.153931, lon.=19.295547, Alt.=800.523926m. Speed=7.776000m/h.</desc>
<speed>2.160000</speed>
</trkpt>
<trkpt lat="43.154022" lon="19.295540">
<ele>801.742676</ele>
<time>2012-05-01T17:15:19Z</time>
<desc>lat.=43.154022, lon.=19.295540, Alt.=801.742676m. Speed=7.416000m/h.</desc>
<speed>2.060000</speed>
</trkpt>
<trkpt lat="43.154087" lon="19.295532">
<ele>804.102051</ele>
<time>2012-05-01T17:15:24Z</time>
<desc>lat.=43.154087, lon.=19.295532, Alt.=804.102051m. Speed=3.492000m/h.</desc>
<speed>0.970000</speed>
</trkpt>
<trkpt lat="43.154171" lon="19.295527">
<ele>806.461426</ele>
<time>2012-05-01T17:15:29Z</time>
<desc>lat.=43.154171, lon.=19.295527, Alt.=806.461426m. Speed=10.044000m/h.</desc>
<speed>2.790000</speed>
</trkpt>
<trkpt lat="43.154255" lon="19.295542">
<ele>808.836426</ele>
<time>2012-05-01T17:15:34Z</time>
<desc>lat.=43.154255, lon.=19.295542, Alt.=808.836426m. Speed=5.400000m/h.</desc>
<speed>1.500000</speed>
</trkpt>
<trkpt lat="43.154366" lon="19.295605">
<ele>803.805176</ele>
<time>2012-05-01T17:15:39Z</time>
<desc>lat.=43.154366, lon.=19.295605, Alt.=803.805176m. Speed=7.848000m/h.</desc>
<speed>2.180000</speed>
</trkpt>
<trkpt lat="43.154465" lon="19.295643">
<ele>804.992676</ele>
<time>2012-05-01T17:15:44Z</time>
<desc>lat.=43.154465, lon.=19.295643, Alt.=804.992676m. Speed=7.920000m/h.</desc>
<speed>2.200000</speed>
</trkpt>
<trkpt lat="43.154549" lon="19.295694">
<ele>804.867676</ele>
<time>2012-05-01T17:15:49Z</time>
<desc>lat.=43.154549, lon.=19.295694, Alt.=804.867676m. Speed=6.876000m/h.</desc>
<speed>1.910000</speed>
</trkpt>
<trkpt lat="43.154629" lon="19.295738">
<ele>805.648926</ele>
<time>2012-05-01T17:15:54Z</time>
<desc>lat.=43.154629, lon.=19.295738, Alt.=805.648926m. Speed=6.768000m/h.</desc>
<speed>1.880000</speed>
</trkpt>
<trkpt lat="43.154705" lon="19.295784">
<ele>806.273926</ele>
<time>2012-05-01T17:15:59Z</time>
<desc>lat.=43.154705, lon.=19.295784, Alt.=806.273926m. Speed=6.948000m/h.</desc>
<speed>1.930000</speed>
</trkpt>
<trkpt lat="43.154785" lon="19.295839">
<ele>805.977051</ele>
<time>2012-05-01T17:16:04Z</time>
<desc>lat.=43.154785, lon.=19.295839, Alt.=805.977051m. Speed=7.200000m/h.</desc>
<speed>2.000000</speed>
</trkpt>
<trkpt lat="43.154858" lon="19.295889">
<ele>806.242676</ele>
<time>2012-05-01T17:16:09Z</time>
<desc>lat.=43.154858, lon.=19.295889, Alt.=806.242676m. Speed=6.588000m/h.</desc>
<speed>1.830000</speed>
</trkpt>
<trkpt lat="43.154934" lon="19.295942">
<ele>807.070801</ele>
<time>2012-05-01T17:16:14Z</time>
<desc>lat.=43.154934, lon.=19.295942, Alt.=807.070801m. Speed=7.020000m/h.</desc>
<speed>1.950000</speed>
</trkpt>
<trkpt lat="43.155014" lon="19.295996">
<ele>807.914551</ele>
<time>2012-05-01T17:16:19Z</time>
<desc>lat.=43.155014, lon.=19.295996, Alt.=807.914551m. Speed=6.840000m/h.</desc>
<speed>1.900000</speed>
</trkpt>
<trkpt lat="43.155083" lon="19.296055">
<ele>809.883301</ele>
<time>2012-05-01T17:16:24Z</time>
<desc>lat.=43.155083, lon.=19.296055, Alt.=809.883301m. Speed=6.588000m/h.</desc>
<speed>1.830000</speed>
</trkpt>
<trkpt lat="43.155163" lon="19.296103">
<ele>810.914551</ele>
<time>2012-05-01T17:16:29Z</time>
<desc>lat.=43.155163, lon.=19.296103, Alt.=810.914551m. Speed=7.308000m/h.</desc>
<speed>2.030000</speed>
</trkpt>
<trkpt lat="43.155247" lon="19.296165">
<ele>811.008301</ele>
<time>2012-05-01T17:16:34Z</time>
<desc>lat.=43.155247, lon.=19.296165, Alt.=811.008301m. Speed=7.452000m/h.</desc>
<speed>2.070000</speed>
</trkpt>
<trkpt lat="43.155331" lon="19.296217">
<ele>811.508301</ele>
<time>2012-05-01T17:16:39Z</time>
<desc>lat.=43.155331, lon.=19.296217, Alt.=811.508301m. Speed=6.480000m/h.</desc>
<speed>1.800000</speed>
</trkpt>
<trkpt lat="43.155411" lon="19.296267">
<ele>812.289551</ele>
<time>2012-05-01T17:16:44Z</time>
<desc>lat.=43.155411, lon.=19.296267, Alt.=812.289551m. Speed=6.984000m/h.</desc>
<speed>1.940000</speed>
</trkpt>
<trkpt lat="43.155499" lon="19.296289">
<ele>812.977051</ele>
<time>2012-05-01T17:16:49Z</time>
<desc>lat.=43.155499, lon.=19.296289, Alt.=812.977051m. Speed=6.984000m/h.</desc>
<speed>1.940000</speed>
</trkpt>
<trkpt lat="43.155579" lon="19.296331">
<ele>813.914551</ele>
<time>2012-05-01T17:16:54Z</time>
<desc>lat.=43.155579, lon.=19.296331, Alt.=813.914551m. Speed=6.804000m/h.</desc>
<speed>1.890000</speed>
</trkpt>
<trkpt lat="43.155663" lon="19.296364">
<ele>814.633301</ele>
<time>2012-05-01T17:16:59Z</time>
<desc>lat.=43.155663, lon.=19.296364, Alt.=814.633301m. Speed=7.308000m/h.</desc>
<speed>2.030000</speed>
</trkpt>
<trkpt lat="43.155754" lon="19.296394">
<ele>815.539551</ele>
<time>2012-05-01T17:17:04Z</time>
<desc>lat.=43.155754, lon.=19.296394, Alt.=815.539551m. Speed=6.696000m/h.</desc>
<speed>1.860000</speed>
</trkpt>
<trkpt lat="43.155849" lon="19.296412">
<ele>816.555176</ele>
<time>2012-05-01T17:17:09Z</time>
<desc>lat.=43.155849, lon.=19.296412, Alt.=816.555176m. Speed=7.632000m/h.</desc>
<speed>2.120000</speed>
</trkpt>
<trkpt lat="43.155945" lon="19.296432">
<ele>817.742676</ele>
<time>2012-05-01T17:17:14Z</time>
<desc>lat.=43.155945, lon.=19.296432, Alt.=817.742676m. Speed=8.424000m/h.</desc>
<speed>2.340000</speed>
</trkpt>
<trkpt lat="43.156040" lon="19.296440">
<ele>818.398926</ele>
<time>2012-05-01T17:17:19Z</time>
<desc>lat.=43.156040, lon.=19.296440, Alt.=818.398926m. Speed=6.876000m/h.</desc>
<speed>1.910000</speed>
</trkpt>
<trkpt lat="43.156139" lon="19.296453">
<ele>819.555176</ele>
<time>2012-05-01T17:17:24Z</time>
<desc>lat.=43.156139, lon.=19.296453, Alt.=819.555176m. Speed=7.884000m/h.</desc>
<speed>2.190000</speed>
</trkpt>
<trkpt lat="43.156242" lon="19.296459">
<ele>820.305176</ele>
<time>2012-05-01T17:17:29Z</time>
<desc>lat.=43.156242, lon.=19.296459, Alt.=820.305176m. Speed=8.064000m/h.</desc>
<speed>2.240000</speed>
</trkpt>
<trkpt lat="43.156345" lon="19.296463">
<ele>820.945801</ele>
<time>2012-05-01T17:17:34Z</time>
<desc>lat.=43.156345, lon.=19.296463, Alt.=820.945801m. Speed=8.028000m/h.</desc>
<speed>2.230000</speed>
</trkpt>
<trkpt lat="43.156441" lon="19.296457">
<ele>821.648926</ele>
<time>2012-05-01T17:17:39Z</time>
<desc>lat.=43.156441, lon.=19.296457, Alt.=821.648926m. Speed=7.560000m/h.</desc>
<speed>2.100000</speed>
</trkpt>
<trkpt lat="43.156544" lon="19.296446">
<ele>821.195801</ele>
<time>2012-05-01T17:17:44Z</time>
<desc>lat.=43.156544, lon.=19.296446, Alt.=821.195801m. Speed=8.388000m/h.</desc>
<speed>2.330000</speed>
</trkpt>
<trkpt lat="43.156647" lon="19.296429">
<ele>822.117676</ele>
<time>2012-05-01T17:17:49Z</time>
<desc>lat.=43.156647, lon.=19.296429, Alt.=822.117676m. Speed=8.604000m/h.</desc>
<speed>2.390000</speed>
</trkpt>
<trkpt lat="43.156754" lon="19.296400">
<ele>822.711426</ele>
<time>2012-05-01T17:17:54Z</time>
<desc>lat.=43.156754, lon.=19.296400, Alt.=822.711426m. Speed=8.136000m/h.</desc>
<speed>2.260000</speed>
</trkpt>
<trkpt lat="43.156834" lon="19.296350">
<ele>822.773926</ele>
<time>2012-05-01T17:17:59Z</time>
<desc>lat.=43.156834, lon.=19.296350, Alt.=822.773926m. Speed=6.696000m/h.</desc>
<speed>1.860000</speed>
</trkpt>
<trkpt lat="43.156910" lon="19.296326">
<ele>823.555176</ele>
<time>2012-05-01T17:18:04Z</time>
<desc>lat.=43.156910, lon.=19.296326, Alt.=823.555176m. Speed=7.956000m/h.</desc>
<speed>2.210000</speed>
</trkpt>
<trkpt lat="43.157001" lon="19.296274">
<ele>824.586426</ele>
<time>2012-05-01T17:18:09Z</time>
<desc>lat.=43.157001, lon.=19.296274, Alt.=824.586426m. Speed=7.992000m/h.</desc>
<speed>2.220000</speed>
</trkpt>
<trkpt lat="43.157078" lon="19.296207">
<ele>825.820801</ele>
<time>2012-05-01T17:18:14Z</time>
<desc>lat.=43.157078, lon.=19.296207, Alt.=825.820801m. Speed=8.100000m/h.</desc>
<speed>2.250000</speed>
</trkpt>
<trkpt lat="43.157166" lon="19.296131">
<ele>826.508301</ele>
<time>2012-05-01T17:18:19Z</time>
<desc>lat.=43.157166, lon.=19.296131, Alt.=826.508301m. Speed=8.136000m/h.</desc>
<speed>2.260000</speed>
</trkpt>
<trkpt lat="43.157223" lon="19.296070">
<ele>827.336426</ele>
<time>2012-05-01T17:18:24Z</time>
<desc>lat.=43.157223, lon.=19.296070, Alt.=827.336426m. Speed=5.364000m/h.</desc>
<speed>1.490000</speed>
</trkpt>
<trkpt lat="43.157249" lon="19.296028">
<ele>828.430176</ele>
<time>2012-05-01T17:18:29Z</time>
<desc>lat.=43.157249, lon.=19.296028, Alt.=828.430176m. Speed=4.788000m/h.</desc>
<speed>1.330000</speed>
</trkpt>
<trkpt lat="43.157299" lon="19.295954">
<ele>828.508301</ele>
<time>2012-05-01T17:18:34Z</time>
<desc>lat.=43.157299, lon.=19.295954, Alt.=828.508301m. Speed=7.056000m/h.</desc>
<speed>1.960000</speed>
</trkpt>
<trkpt lat="43.157360" lon="19.295877">
<ele>829.602051</ele>
<time>2012-05-01T17:18:39Z</time>
<desc>lat.=43.157360, lon.=19.295877, Alt.=829.602051m. Speed=7.128000m/h.</desc>
<speed>1.980000</speed>
</trkpt>
<trkpt lat="43.157410" lon="19.295773">
<ele>830.039551</ele>
<time>2012-05-01T17:18:44Z</time>
<desc>lat.=43.157410, lon.=19.295773, Alt.=830.039551m. Speed=7.488000m/h.</desc>
<speed>2.080000</speed>
</trkpt>
<trkpt lat="43.157452" lon="19.295668">
<ele>830.461426</ele>
<time>2012-05-01T17:18:49Z</time>
<desc>lat.=43.157452, lon.=19.295668, Alt.=830.461426m. Speed=6.660000m/h.</desc>
<speed>1.850000</speed>
</trkpt>
<trkpt lat="43.157486" lon="19.295555">
<ele>830.695801</ele>
<time>2012-05-01T17:18:54Z</time>
<desc>lat.=43.157486, lon.=19.295555, Alt.=830.695801m. Speed=7.056000m/h.</desc>
<speed>1.960000</speed>
</trkpt>
<trkpt lat="43.157516" lon="19.295444">
<ele>831.320801</ele>
<time>2012-05-01T17:18:59Z</time>
<desc>lat.=43.157516, lon.=19.295444, Alt.=831.320801m. Speed=7.488000m/h.</desc>
<speed>2.080000</speed>
</trkpt>
<trkpt lat="43.157547" lon="19.295322">
<ele>831.523926</ele>
<time>2012-05-01T17:19:04Z</time>
<desc>lat.=43.157547, lon.=19.295322, Alt.=831.523926m. Speed=6.984000m/h.</desc>
<speed>1.940000</speed>
</trkpt>
<trkpt lat="43.157574" lon="19.295200">
<ele>831.727051</ele>
<time>2012-05-01T17:19:09Z</time>
<desc>lat.=43.157574, lon.=19.295200, Alt.=831.727051m. Speed=7.380000m/h.</desc>
<speed>2.050000</speed>
</trkpt>
<trkpt lat="43.157604" lon="19.295078">
<ele>832.461426</ele>
<time>2012-05-01T17:19:14Z</time>
<desc>lat.=43.157604, lon.=19.295078, Alt.=832.461426m. Speed=8.064000m/h.</desc>
<speed>2.240000</speed>
</trkpt>
<trkpt lat="43.157639" lon="19.294949">
<ele>833.555176</ele>
<time>2012-05-01T17:19:19Z</time>
<desc>lat.=43.157639, lon.=19.294949, Alt.=833.555176m. Speed=8.136000m/h.</desc>
<speed>2.260000</speed>
</trkpt>
<trkpt lat="43.157677" lon="19.294813">
<ele>833.180176</ele>
<time>2012-05-01T17:19:24Z</time>
<desc>lat.=43.157677, lon.=19.294813, Alt.=833.180176m. Speed=7.956000m/h.</desc>
<speed>2.210000</speed>
</trkpt>
<trkpt lat="43.157734" lon="19.294697">
<ele>833.352051</ele>
<time>2012-05-01T17:19:29Z</time>
<desc>lat.=43.157734, lon.=19.294697, Alt.=833.352051m. Speed=8.748000m/h.</desc>
<speed>2.430000</speed>
</trkpt>
<trkpt lat="43.157803" lon="19.294573">
<ele>832.852051</ele>
<time>2012-05-01T17:19:34Z</time>
<desc>lat.=43.157803, lon.=19.294573, Alt.=832.852051m. Speed=8.784000m/h.</desc>
<speed>2.440000</speed>
</trkpt>
<trkpt lat="43.157864" lon="19.294451">
<ele>833.430176</ele>
<time>2012-05-01T17:19:39Z</time>
<desc>lat.=43.157864, lon.=19.294451, Alt.=833.430176m. Speed=9.576000m/h.</desc>
<speed>2.660000</speed>
</trkpt>
<trkpt lat="43.157948" lon="19.294336">
<ele>834.883301</ele>
<time>2012-05-01T17:19:44Z</time>
<desc>lat.=43.157948, lon.=19.294336, Alt.=834.883301m. Speed=9.216000m/h.</desc>
<speed>2.560000</speed>
</trkpt>
<trkpt lat="43.158031" lon="19.294235">
<ele>835.945801</ele>
<time>2012-05-01T17:19:49Z</time>
<desc>lat.=43.158031, lon.=19.294235, Alt.=835.945801m. Speed=9.144000m/h.</desc>
<speed>2.540000</speed>
</trkpt>
<trkpt lat="43.158104" lon="19.294176">
<ele>837.008301</ele>
<time>2012-05-01T17:19:54Z</time>
<desc>lat.=43.158104, lon.=19.294176, Alt.=837.008301m. Speed=8.928000m/h.</desc>
<speed>2.480000</speed>
</trkpt>
<trkpt lat="43.158226" lon="19.294102">
<ele>838.805176</ele>
<time>2012-05-01T17:19:59Z</time>
<desc>lat.=43.158226, lon.=19.294102, Alt.=838.805176m. Speed=11.592000m/h.</desc>
<speed>3.220000</speed>
</trkpt>
<trkpt lat="43.158367" lon="19.294031">
<ele>840.055176</ele>
<time>2012-05-01T17:20:04Z</time>
<desc>lat.=43.158367, lon.=19.294031, Alt.=840.055176m. Speed=11.628000m/h.</desc>
<speed>3.230000</speed>
</trkpt>
<trkpt lat="43.158489" lon="19.293976">
<ele>841.773926</ele>
<time>2012-05-01T17:20:09Z</time>
<desc>lat.=43.158489, lon.=19.293976, Alt.=841.773926m. Speed=10.296000m/h.</desc>
<speed>2.860000</speed>
</trkpt>
<trkpt lat="43.158607" lon="19.293953">
<ele>843.930176</ele>
<time>2012-05-01T17:20:14Z</time>
<desc>lat.=43.158607, lon.=19.293953, Alt.=843.930176m. Speed=8.784000m/h.</desc>
<speed>2.440000</speed>
</trkpt>
<trkpt lat="43.158699" lon="19.293959">
<ele>847.180176</ele>
<time>2012-05-01T17:20:19Z</time>
<desc>lat.=43.158699, lon.=19.293959, Alt.=847.180176m. Speed=7.884000m/h.</desc>
<speed>2.190000</speed>
</trkpt>
<trkpt lat="43.158829" lon="19.293970">
<ele>846.477051</ele>
<time>2012-05-01T17:20:24Z</time>
<desc>lat.=43.158829, lon.=19.293970, Alt.=846.477051m. Speed=10.476000m/h.</desc>
<speed>2.910000</speed>
</trkpt>
<trkpt lat="43.158913" lon="19.293995">
<ele>845.961426</ele>
<time>2012-05-01T17:20:29Z</time>
<desc>lat.=43.158913, lon.=19.293995, Alt.=845.961426m. Speed=2.844000m/h.</desc>
<speed>0.790000</speed>
</trkpt>
<trkpt lat="43.158932" lon="19.293924">
<ele>846.227051</ele>
<time>2012-05-01T17:20:34Z</time>
<desc>lat.=43.158932, lon.=19.293924, Alt.=846.227051m. Speed=6.912000m/h.</desc>
<speed>1.920000</speed>
</trkpt>
<trkpt lat="43.158894" lon="19.293688">
<ele>845.977051</ele>
<time>2012-05-01T17:20:39Z</time>
<desc>lat.=43.158894, lon.=19.293688, Alt.=845.977051m. Speed=14.868000m/h.</desc>
<speed>4.130000</speed>
</trkpt>
<trkpt lat="43.158901" lon="19.293352">
<ele>840.711426</ele>
<time>2012-05-01T17:20:44Z</time>
<desc>lat.=43.158901, lon.=19.293352, Alt.=840.711426m. Speed=22.752001m/h.</desc>
<speed>6.320000</speed>
</trkpt>
<trkpt lat="43.158939" lon="19.292925">
<ele>835.930176</ele>
<time>2012-05-01T17:20:49Z</time>
<desc>lat.=43.158939, lon.=19.292925, Alt.=835.930176m. Speed=27.540001m/h.</desc>
<speed>7.650000</speed>
</trkpt>
<trkpt lat="43.158978" lon="19.292685">
<ele>835.508301</ele>
<time>2012-05-01T17:20:54Z</time>
<desc>lat.=43.158978, lon.=19.292685, Alt.=835.508301m. Speed=6.084000m/h.</desc>
<speed>1.690000</speed>
</trkpt>
<trkpt lat="43.158981" lon="19.292625">
<ele>835.695801</ele>
<time>2012-05-01T17:20:59Z</time>
<desc>lat.=43.158981, lon.=19.292625, Alt.=835.695801m. Speed=1.296000m/h.</desc>
<speed>0.360000</speed>
</trkpt>
<trkpt lat="43.158974" lon="19.292624">
<ele>835.305176</ele>
<time>2012-05-01T17:21:04Z</time>
<desc>lat.=43.158974, lon.=19.292624, Alt.=835.305176m. Speed=0.504000m/h.</desc>
<speed>0.140000</speed>
</trkpt>
<trkpt lat="43.158974" lon="19.292616">
<ele>835.227051</ele>
<time>2012-05-01T17:21:09Z</time>
<desc>lat.=43.158974, lon.=19.292616, Alt.=835.227051m. Speed=0.504000m/h.</desc>
<speed>0.140000</speed>
</trkpt>
<trkpt lat="43.158978" lon="19.292616">
<ele>835.227051</ele>
<time>2012-05-01T17:21:14Z</time>
<desc>lat.=43.158978, lon.=19.292616, Alt.=835.227051m. Speed=0.144000m/h.</desc>
<speed>0.040000</speed>
</trkpt>
<trkpt lat="43.158978" lon="19.292616">
<ele>835.320801</ele>
<time>2012-05-01T17:21:19Z</time>
<desc>lat.=43.158978, lon.=19.292616, Alt.=835.320801m. Speed=0.036000m/h.</desc>
<speed>0.010000</speed>
</trkpt>
<trkpt lat="43.158978" lon="19.292614">
<ele>835.461426</ele>
<time>2012-05-01T17:21:24Z</time>
<desc>lat.=43.158978, lon.=19.292614, Alt.=835.461426m. Speed=0.072000m/h.</desc>
<speed>0.020000</speed>
</trkpt>
<trkpt lat="43.158974" lon="19.292612">
<ele>835.633301</ele>
<time>2012-05-01T17:21:29Z</time>
<desc>lat.=43.158974, lon.=19.292612, Alt.=835.633301m. Speed=0.360000m/h.</desc>
<speed>0.100000</speed>
</trkpt>
<trkpt lat="43.158978" lon="19.292610">
<ele>835.805176</ele>
<time>2012-05-01T17:21:34Z</time>
<desc>lat.=43.158978, lon.=19.292610, Alt.=835.805176m. Speed=0.036000m/h.</desc>
<speed>0.010000</speed>
</trkpt>
<trkpt lat="43.158978" lon="19.292610">
<ele>835.883301</ele>
<time>2012-05-01T17:21:39Z</time>
<desc>lat.=43.158978, lon.=19.292610, Alt.=835.883301m. Speed=0.216000m/h.</desc>
<speed>0.060000</speed>
</trkpt>
<trkpt lat="43.158978" lon="19.292610">
<ele>835.898926</ele>
<time>2012-05-01T17:21:44Z</time>
<desc>lat.=43.158978, lon.=19.292610, Alt.=835.898926m. Speed=0.036000m/h.</desc>
<speed>0.010000</speed>
</trkpt>
<trkpt lat="43.158978" lon="19.292610">
<ele>835.914551</ele>
<time>2012-05-01T17:21:49Z</time>
<desc>lat.=43.158978, lon.=19.292610, Alt.=835.914551m. Speed=0.036000m/h.</desc>
<speed>0.010000</speed>
</trkpt>
<trkpt lat="43.158978" lon="19.292610">
<ele>835.914551</ele>
<time>2012-05-01T17:21:54Z</time>
<desc>lat.=43.158978, lon.=19.292610, Alt.=835.914551m. Speed=0.000000m/h.</desc>
<speed>0.000000</speed>
</trkpt>
<trkpt lat="43.158978" lon="19.292610">
<ele>835.930176</ele>
<time>2012-05-01T17:21:59Z</time>
<desc>lat.=43.158978, lon.=19.292610, Alt.=835.930176m. Speed=0.000000m/h.</desc>
<speed>0.000000</speed>
</trkpt>
<trkpt lat="43.158978" lon="19.292610">
<ele>835.930176</ele>
<time>2012-05-01T17:22:04Z</time>
<desc>lat.=43.158978, lon.=19.292610, Alt.=835.930176m. Speed=0.180000m/h.</desc>
<speed>0.050000</speed>
</trkpt>
</trkseg>
</trk>
</gpx>